<?xml version="1.0" encoding="UTF-8"?>
<gpx version="1.1" creator="https://www.www-youtrack-es.amenigma.com" xsi:schemaLocation="http://www.topografix.com/GPX/1/1 http://www.topografix.com/GPX/1/1/gpx.xsd http://www.garmin.com/xmlschemas/GpxExtensions/v3 http://www.garmin.com/xmlschemas/GpxExtensionsv3.xsd http://www.garmin.com/xmlschemas/TrackPointExtension/v1 http://www.garmin.com/xmlschemas/TrackPointExtensionv1.xsd" xmlns:gpxtpx="http://www.garmin.com/xmlschemas/TrackPointExtension/v1" xmlns:gpxx="http://www.garmin.com/xmlschemas/GpxExtensions/v3" xmlns:xsi="http://www.w3.org/2001/XMLSchema-instance">
  <metadata>
    <link href="https://www.www-youtrack-es.amenigma.com">
      <text>YouTrack.es</text>
    </link>
    <time>2026-09-01T22:59:14Z</time>
  </metadata>
  <trk>
    <src>https://www.www-youtrack-es.amenigma.com</src>
    <link href="https://www.www-youtrack-es.amenigma.com/ruta/14565-tour-de-france-a-velo">
      <text>YouTrack.es</text>
    </link>
    <trkseg>
      <trkpt lat="49.1070730" lon="1.5334050">
        <ele>135.2</ele>
        <time>2020-07-01T07:28:24Z</time>
      </trkpt>
      <trkpt lat="49.1070620" lon="1.5335390">
        <ele>135.0</ele>
        <time>2020-07-01T07:28:31Z</time>
      </trkpt>
      <trkpt lat="49.1070530" lon="1.5335740">
        <ele>135.0</ele>
        <time>2020-07-01T07:28:33Z</time>
      </trkpt>
      <trkpt lat="49.1070450" lon="1.5335940">
        <ele>135.2</ele>
        <time>2020-07-01T07:28:34Z</time>
      </trkpt>
      <trkpt lat="49.1070370" lon="1.5336120">
        <ele>135.2</ele>
        <time>2020-07-01T07:28:35Z</time>
      </trkpt>
      <trkpt lat="49.1069900" lon="1.5336390">
        <ele>135.0</ele>
        <time>2020-07-01T07:28:39Z</time>
      </trkpt>
      <trkpt lat="49.1069530" lon="1.5336170">
        <ele>135.0</ele>
        <time>2020-07-01T07:28:41Z</time>
      </trkpt>
      <trkpt lat="49.1068580" lon="1.5335150">
        <ele>134.8</ele>
        <time>2020-07-01T07:28:45Z</time>
      </trkpt>
      <trkpt lat="49.1067990" lon="1.5334670">
        <ele>134.8</ele>
        <time>2020-07-01T07:28:47Z</time>
      </trkpt>
      <trkpt lat="49.1066440" lon="1.5333420">
        <ele>134.8</ele>
        <time>2020-07-01T07:28:52Z</time>
      </trkpt>
      <trkpt lat="49.1064010" lon="1.5332490">
        <ele>134.6</ele>
        <time>2020-07-01T07:28:59Z</time>
      </trkpt>
      <trkpt lat="49.1061030" lon="1.5332300">
        <ele>134.4</ele>
        <time>2020-07-01T07:29:07Z</time>
      </trkpt>
      <trkpt lat="49.1059180" lon="1.5332830">
        <ele>134.2</ele>
        <time>2020-07-01T07:29:12Z</time>
      </trkpt>
      <trkpt lat="49.1057600" lon="1.5333010">
        <ele>134.0</ele>
        <time>2020-07-01T07:29:16Z</time>
      </trkpt>
      <trkpt lat="49.1054360" lon="1.5332690">
        <ele>133.0</ele>
        <time>2020-07-01T07:29:23Z</time>
      </trkpt>
      <trkpt lat="49.1053430" lon="1.5332620">
        <ele>132.8</ele>
        <time>2020-07-01T07:29:25Z</time>
      </trkpt>
      <trkpt lat="49.1052040" lon="1.5333010">
        <ele>132.8</ele>
        <time>2020-07-01T07:29:28Z</time>
      </trkpt>
      <trkpt lat="49.1051280" lon="1.5333690">
        <ele>132.6</ele>
        <time>2020-07-01T07:29:32Z</time>
      </trkpt>
      <trkpt lat="49.1051190" lon="1.5333820">
        <ele>132.8</ele>
        <time>2020-07-01T07:29:33Z</time>
      </trkpt>
      <trkpt lat="49.1050490" lon="1.5334400">
        <ele>133.0</ele>
        <time>2020-07-01T07:29:38Z</time>
      </trkpt>
      <trkpt lat="49.1049740" lon="1.5335440">
        <ele>133.8</ele>
        <time>2020-07-01T07:29:43Z</time>
      </trkpt>
      <trkpt lat="49.1049830" lon="1.5335560">
        <ele>133.6</ele>
        <time>2020-07-01T07:29:44Z</time>
      </trkpt>
      <trkpt lat="49.1049970" lon="1.5335470">
        <ele>133.6</ele>
        <time>2020-07-01T07:29:45Z</time>
      </trkpt>
      <trkpt lat="49.1050420" lon="1.5334950">
        <ele>133.8</ele>
        <time>2020-07-01T07:29:48Z</time>
      </trkpt>
      <trkpt lat="49.1052050" lon="1.5333040">
        <ele>133.4</ele>
        <time>2020-07-01T07:29:55Z</time>
      </trkpt>
      <trkpt lat="49.1052310" lon="1.5332640">
        <ele>133.6</ele>
        <time>2020-07-01T07:29:56Z</time>
      </trkpt>
      <trkpt lat="49.1052610" lon="1.5331180">
        <ele>133.6</ele>
        <time>2020-07-01T07:29:59Z</time>
      </trkpt>
      <trkpt lat="49.1051910" lon="1.5327880">
        <ele>133.2</ele>
        <time>2020-07-01T07:30:05Z</time>
      </trkpt>
      <trkpt lat="49.1051170" lon="1.5323220">
        <ele>132.6</ele>
        <time>2020-07-01T07:30:12Z</time>
      </trkpt>
      <trkpt lat="49.1051080" lon="1.5322550">
        <ele>132.2</ele>
        <time>2020-07-01T07:30:13Z</time>
      </trkpt>
      <trkpt lat="49.1050930" lon="1.5317800">
        <ele>131.6</ele>
        <time>2020-07-01T07:30:19Z</time>
      </trkpt>
      <trkpt lat="49.1050740" lon="1.5315480">
        <ele>131.4</ele>
        <time>2020-07-01T07:30:22Z</time>
      </trkpt>
      <trkpt lat="49.1050730" lon="1.5313070">
        <ele>131.2</ele>
        <time>2020-07-01T07:30:25Z</time>
      </trkpt>
      <trkpt lat="49.1050720" lon="1.5312260">
        <ele>131.0</ele>
        <time>2020-07-01T07:30:26Z</time>
      </trkpt>
      <trkpt lat="49.1050900" lon="1.5305670">
        <ele>130.8</ele>
        <time>2020-07-01T07:30:34Z</time>
      </trkpt>
      <trkpt lat="49.1050980" lon="1.5304040">
        <ele>130.6</ele>
        <time>2020-07-01T07:30:36Z</time>
      </trkpt>
      <trkpt lat="49.1050940" lon="1.5299430">
        <ele>130.0</ele>
        <time>2020-07-01T07:30:42Z</time>
      </trkpt>
      <trkpt lat="49.1050920" lon="1.5297830">
        <ele>129.4</ele>
        <time>2020-07-01T07:30:44Z</time>
      </trkpt>
      <trkpt lat="49.1051170" lon="1.5291090">
        <ele>128.6</ele>
        <time>2020-07-01T07:30:52Z</time>
      </trkpt>
      <trkpt lat="49.1051080" lon="1.5284900">
        <ele>128.6</ele>
        <time>2020-07-01T07:30:59Z</time>
      </trkpt>
      <trkpt lat="49.1051150" lon="1.5283990">
        <ele>128.2</ele>
        <time>2020-07-01T07:31:00Z</time>
      </trkpt>
      <trkpt lat="49.1051040" lon="1.5279180">
        <ele>127.8</ele>
        <time>2020-07-01T07:31:06Z</time>
      </trkpt>
      <trkpt lat="49.1050950" lon="1.5278340">
        <ele>127.2</ele>
        <time>2020-07-01T07:31:07Z</time>
      </trkpt>
      <trkpt lat="49.1050270" lon="1.5272710">
        <ele>126.2</ele>
        <time>2020-07-01T07:31:14Z</time>
      </trkpt>
      <trkpt lat="49.1050070" lon="1.5266840">
        <ele>125.6</ele>
        <time>2020-07-01T07:31:21Z</time>
      </trkpt>
      <trkpt lat="49.1050020" lon="1.5265960">
        <ele>125.4</ele>
        <time>2020-07-01T07:31:22Z</time>
      </trkpt>
      <trkpt lat="49.1049960" lon="1.5258960">
        <ele>124.8</ele>
        <time>2020-07-01T07:31:30Z</time>
      </trkpt>
      <trkpt lat="49.1049850" lon="1.5257370">
        <ele>124.6</ele>
        <time>2020-07-01T07:31:32Z</time>
      </trkpt>
      <trkpt lat="49.1049490" lon="1.5253160">
        <ele>124.4</ele>
        <time>2020-07-01T07:31:37Z</time>
      </trkpt>
      <trkpt lat="49.1048980" lon="1.5250620">
        <ele>124.4</ele>
        <time>2020-07-01T07:31:40Z</time>
      </trkpt>
      <trkpt lat="49.1048400" lon="1.5247910">
        <ele>124.2</ele>
        <time>2020-07-01T07:31:43Z</time>
      </trkpt>
      <trkpt lat="49.1048010" lon="1.5244370">
        <ele>124.0</ele>
        <time>2020-07-01T07:31:47Z</time>
      </trkpt>
      <trkpt lat="49.1047610" lon="1.5242800">
        <ele>124.0</ele>
        <time>2020-07-01T07:31:49Z</time>
      </trkpt>
      <trkpt lat="49.1047240" lon="1.5240230">
        <ele>123.2</ele>
        <time>2020-07-01T07:31:52Z</time>
      </trkpt>
      <trkpt lat="49.1047250" lon="1.5238020">
        <ele>122.8</ele>
        <time>2020-07-01T07:31:54Z</time>
      </trkpt>
      <trkpt lat="49.1046910" lon="1.5231880">
        <ele>122.4</ele>
        <time>2020-07-01T07:32:01Z</time>
      </trkpt>
      <trkpt lat="49.1045480" lon="1.5227400">
        <ele>122.0</ele>
        <time>2020-07-01T07:32:07Z</time>
      </trkpt>
      <trkpt lat="49.1042820" lon="1.5221570">
        <ele>122.0</ele>
        <time>2020-07-01T07:32:15Z</time>
      </trkpt>
      <trkpt lat="49.1041010" lon="1.5216910">
        <ele>122.0</ele>
        <time>2020-07-01T07:32:21Z</time>
      </trkpt>
      <trkpt lat="49.1040000" lon="1.5212050">
        <ele>122.0</ele>
        <time>2020-07-01T07:32:27Z</time>
      </trkpt>
      <trkpt lat="49.1039550" lon="1.5210570">
        <ele>122.2</ele>
        <time>2020-07-01T07:32:29Z</time>
      </trkpt>
      <trkpt lat="49.1038460" lon="1.5207650">
        <ele>122.0</ele>
        <time>2020-07-01T07:32:33Z</time>
      </trkpt>
      <trkpt lat="49.1036940" lon="1.5202290">
        <ele>122.2</ele>
        <time>2020-07-01T07:32:40Z</time>
      </trkpt>
      <trkpt lat="49.1035860" lon="1.5198360">
        <ele>122.0</ele>
        <time>2020-07-01T07:32:45Z</time>
      </trkpt>
      <trkpt lat="49.1035530" lon="1.5196970">
        <ele>122.0</ele>
        <time>2020-07-01T07:32:47Z</time>
      </trkpt>
      <trkpt lat="49.1035330" lon="1.5196330">
        <ele>122.2</ele>
        <time>2020-07-01T07:32:48Z</time>
      </trkpt>
      <trkpt lat="49.1034030" lon="1.5192940">
        <ele>122.0</ele>
        <time>2020-07-01T07:32:53Z</time>
      </trkpt>
      <trkpt lat="49.1032480" lon="1.5186870">
        <ele>121.4</ele>
        <time>2020-07-01T07:33:00Z</time>
      </trkpt>
      <trkpt lat="49.1031120" lon="1.5182730">
        <ele>121.4</ele>
        <time>2020-07-01T07:33:04Z</time>
      </trkpt>
      <trkpt lat="49.1030040" lon="1.5179890">
        <ele>121.0</ele>
        <time>2020-07-01T07:33:07Z</time>
      </trkpt>
      <trkpt lat="49.1028870" lon="1.5176120">
        <ele>120.0</ele>
        <time>2020-07-01T07:33:11Z</time>
      </trkpt>
      <trkpt lat="49.1028410" lon="1.5174120">
        <ele>119.0</ele>
        <time>2020-07-01T07:33:13Z</time>
      </trkpt>
      <trkpt lat="49.1028340" lon="1.5173090">
        <ele>118.8</ele>
        <time>2020-07-01T07:33:14Z</time>
      </trkpt>
      <trkpt lat="49.1028240" lon="1.5172070">
        <ele>118.4</ele>
        <time>2020-07-01T07:33:15Z</time>
      </trkpt>
      <trkpt lat="49.1028220" lon="1.5167800">
        <ele>117.2</ele>
        <time>2020-07-01T07:33:19Z</time>
      </trkpt>
      <trkpt lat="49.1028330" lon="1.5165440">
        <ele>116.4</ele>
        <time>2020-07-01T07:33:21Z</time>
      </trkpt>
      <trkpt lat="49.1028320" lon="1.5163190">
        <ele>115.8</ele>
        <time>2020-07-01T07:33:23Z</time>
      </trkpt>
      <trkpt lat="49.1028210" lon="1.5162070">
        <ele>115.6</ele>
        <time>2020-07-01T07:33:24Z</time>
      </trkpt>
      <trkpt lat="49.1028040" lon="1.5160960">
        <ele>115.4</ele>
        <time>2020-07-01T07:33:25Z</time>
      </trkpt>
      <trkpt lat="49.1027820" lon="1.5159830">
        <ele>115.4</ele>
        <time>2020-07-01T07:33:26Z</time>
      </trkpt>
      <trkpt lat="49.1027180" lon="1.5157750">
        <ele>115.0</ele>
        <time>2020-07-01T07:33:28Z</time>
      </trkpt>
      <trkpt lat="49.1026740" lon="1.5156850">
        <ele>115.2</ele>
        <time>2020-07-01T07:33:29Z</time>
      </trkpt>
      <trkpt lat="49.1026220" lon="1.5156070">
        <ele>115.0</ele>
        <time>2020-07-01T07:33:30Z</time>
      </trkpt>
      <trkpt lat="49.1025380" lon="1.5154440">
        <ele>113.8</ele>
        <time>2020-07-01T07:33:32Z</time>
      </trkpt>
      <trkpt lat="49.1024920" lon="1.5153680">
        <ele>113.8</ele>
        <time>2020-07-01T07:33:33Z</time>
      </trkpt>
      <trkpt lat="49.1023930" lon="1.5151920">
        <ele>113.2</ele>
        <time>2020-07-01T07:33:35Z</time>
      </trkpt>
      <trkpt lat="49.1023470" lon="1.5150900">
        <ele>112.6</ele>
        <time>2020-07-01T07:33:36Z</time>
      </trkpt>
      <trkpt lat="49.1022750" lon="1.5148670">
        <ele>111.8</ele>
        <time>2020-07-01T07:33:38Z</time>
      </trkpt>
      <trkpt lat="49.1021310" lon="1.5144350">
        <ele>111.2</ele>
        <time>2020-07-01T07:33:42Z</time>
      </trkpt>
      <trkpt lat="49.1019530" lon="1.5141210">
        <ele>109.6</ele>
        <time>2020-07-01T07:33:45Z</time>
      </trkpt>
      <trkpt lat="49.1017650" lon="1.5138510">
        <ele>108.8</ele>
        <time>2020-07-01T07:33:48Z</time>
      </trkpt>
      <trkpt lat="49.1016270" lon="1.5136790">
        <ele>108.4</ele>
        <time>2020-07-01T07:33:50Z</time>
      </trkpt>
      <trkpt lat="49.1011300" lon="1.5131120">
        <ele>106.6</ele>
        <time>2020-07-01T07:33:57Z</time>
      </trkpt>
      <trkpt lat="49.1010650" lon="1.5130300">
        <ele>105.8</ele>
        <time>2020-07-01T07:33:58Z</time>
      </trkpt>
      <trkpt lat="49.1009990" lon="1.5129470">
        <ele>105.4</ele>
        <time>2020-07-01T07:33:59Z</time>
      </trkpt>
      <trkpt lat="49.1007270" lon="1.5124570">
        <ele>104.0</ele>
        <time>2020-07-01T07:34:04Z</time>
      </trkpt>
      <trkpt lat="49.1006060" lon="1.5121630">
        <ele>103.6</ele>
        <time>2020-07-01T07:34:07Z</time>
      </trkpt>
      <trkpt lat="49.1005100" lon="1.5119650">
        <ele>103.0</ele>
        <time>2020-07-01T07:34:09Z</time>
      </trkpt>
      <trkpt lat="49.1004540" lon="1.5118770">
        <ele>102.6</ele>
        <time>2020-07-01T07:34:10Z</time>
      </trkpt>
      <trkpt lat="49.1001730" lon="1.5116080">
        <ele>101.6</ele>
        <time>2020-07-01T07:34:14Z</time>
      </trkpt>
      <trkpt lat="49.1000990" lon="1.5115560">
        <ele>101.8</ele>
        <time>2020-07-01T07:34:15Z</time>
      </trkpt>
      <trkpt lat="49.1000170" lon="1.5115110">
        <ele>101.2</ele>
        <time>2020-07-01T07:34:16Z</time>
      </trkpt>
      <trkpt lat="49.0997800" lon="1.5113970">
        <ele>99.4</ele>
        <time>2020-07-01T07:34:19Z</time>
      </trkpt>
      <trkpt lat="49.0996270" lon="1.5113120">
        <ele>98.8</ele>
        <time>2020-07-01T07:34:21Z</time>
      </trkpt>
      <trkpt lat="49.0994250" lon="1.5111400">
        <ele>97.6</ele>
        <time>2020-07-01T07:34:24Z</time>
      </trkpt>
      <trkpt lat="49.0989740" lon="1.5107710">
        <ele>96.0</ele>
        <time>2020-07-01T07:34:30Z</time>
      </trkpt>
      <trkpt lat="49.0988950" lon="1.5107130">
        <ele>95.6</ele>
        <time>2020-07-01T07:34:31Z</time>
      </trkpt>
      <trkpt lat="49.0984520" lon="1.5103750">
        <ele>92.8</ele>
        <time>2020-07-01T07:34:37Z</time>
      </trkpt>
      <trkpt lat="49.0983880" lon="1.5103140">
        <ele>92.4</ele>
        <time>2020-07-01T07:34:38Z</time>
      </trkpt>
      <trkpt lat="49.0983290" lon="1.5102470">
        <ele>92.2</ele>
        <time>2020-07-01T07:34:39Z</time>
      </trkpt>
      <trkpt lat="49.0982200" lon="1.5100780">
        <ele>92.0</ele>
        <time>2020-07-01T07:34:41Z</time>
      </trkpt>
      <trkpt lat="49.0981780" lon="1.5099680">
        <ele>92.0</ele>
        <time>2020-07-01T07:34:42Z</time>
      </trkpt>
      <trkpt lat="49.0981590" lon="1.5098480">
        <ele>92.0</ele>
        <time>2020-07-01T07:34:43Z</time>
      </trkpt>
      <trkpt lat="49.0981440" lon="1.5097250">
        <ele>91.8</ele>
        <time>2020-07-01T07:34:44Z</time>
      </trkpt>
      <trkpt lat="49.0981890" lon="1.5094570">
        <ele>91.4</ele>
        <time>2020-07-01T07:34:46Z</time>
      </trkpt>
      <trkpt lat="49.0982160" lon="1.5093300">
        <ele>91.2</ele>
        <time>2020-07-01T07:34:47Z</time>
      </trkpt>
      <trkpt lat="49.0982700" lon="1.5090910">
        <ele>90.0</ele>
        <time>2020-07-01T07:34:49Z</time>
      </trkpt>
      <trkpt lat="49.0983770" lon="1.5087470">
        <ele>89.0</ele>
        <time>2020-07-01T07:34:52Z</time>
      </trkpt>
      <trkpt lat="49.0984930" lon="1.5084190">
        <ele>88.6</ele>
        <time>2020-07-01T07:34:55Z</time>
      </trkpt>
      <trkpt lat="49.0986060" lon="1.5080920">
        <ele>87.2</ele>
        <time>2020-07-01T07:34:58Z</time>
      </trkpt>
      <trkpt lat="49.0986650" lon="1.5078550">
        <ele>86.0</ele>
        <time>2020-07-01T07:35:00Z</time>
      </trkpt>
      <trkpt lat="49.0987210" lon="1.5071990">
        <ele>85.0</ele>
        <time>2020-07-01T07:35:05Z</time>
      </trkpt>
      <trkpt lat="49.0987160" lon="1.5069410">
        <ele>84.0</ele>
        <time>2020-07-01T07:35:07Z</time>
      </trkpt>
      <trkpt lat="49.0987340" lon="1.5065620">
        <ele>82.8</ele>
        <time>2020-07-01T07:35:10Z</time>
      </trkpt>
      <trkpt lat="49.0987830" lon="1.5063170">
        <ele>82.4</ele>
        <time>2020-07-01T07:35:12Z</time>
      </trkpt>
      <trkpt lat="49.0988130" lon="1.5062000">
        <ele>82.2</ele>
        <time>2020-07-01T07:35:13Z</time>
      </trkpt>
      <trkpt lat="49.0988500" lon="1.5060880">
        <ele>82.0</ele>
        <time>2020-07-01T07:35:14Z</time>
      </trkpt>
      <trkpt lat="49.0989350" lon="1.5058730">
        <ele>81.4</ele>
        <time>2020-07-01T07:35:16Z</time>
      </trkpt>
      <trkpt lat="49.0990910" lon="1.5054810">
        <ele>80.4</ele>
        <time>2020-07-01T07:35:20Z</time>
      </trkpt>
      <trkpt lat="49.0992840" lon="1.5050060">
        <ele>79.2</ele>
        <time>2020-07-01T07:35:26Z</time>
      </trkpt>
      <trkpt lat="49.0993350" lon="1.5049360">
        <ele>79.0</ele>
        <time>2020-07-01T07:35:27Z</time>
      </trkpt>
      <trkpt lat="49.0994480" lon="1.5047890">
        <ele>79.0</ele>
        <time>2020-07-01T07:35:29Z</time>
      </trkpt>
      <trkpt lat="49.0995780" lon="1.5046200">
        <ele>78.6</ele>
        <time>2020-07-01T07:35:31Z</time>
      </trkpt>
      <trkpt lat="49.0996320" lon="1.5045240">
        <ele>78.4</ele>
        <time>2020-07-01T07:35:32Z</time>
      </trkpt>
      <trkpt lat="49.0997210" lon="1.5042770">
        <ele>78.2</ele>
        <time>2020-07-01T07:35:34Z</time>
      </trkpt>
      <trkpt lat="49.0997750" lon="1.5040100">
        <ele>77.6</ele>
        <time>2020-07-01T07:35:36Z</time>
      </trkpt>
      <trkpt lat="49.0997880" lon="1.5038680">
        <ele>77.2</ele>
        <time>2020-07-01T07:35:37Z</time>
      </trkpt>
      <trkpt lat="49.0997890" lon="1.5037290">
        <ele>76.6</ele>
        <time>2020-07-01T07:35:38Z</time>
      </trkpt>
      <trkpt lat="49.0997660" lon="1.5034590">
        <ele>75.2</ele>
        <time>2020-07-01T07:35:40Z</time>
      </trkpt>
      <trkpt lat="49.0996870" lon="1.5031990">
        <ele>74.2</ele>
        <time>2020-07-01T07:35:42Z</time>
      </trkpt>
      <trkpt lat="49.0996380" lon="1.5030610">
        <ele>73.6</ele>
        <time>2020-07-01T07:35:43Z</time>
      </trkpt>
      <trkpt lat="49.0994850" lon="1.5026370">
        <ele>71.6</ele>
        <time>2020-07-01T07:35:46Z</time>
      </trkpt>
      <trkpt lat="49.0994400" lon="1.5024940">
        <ele>70.6</ele>
        <time>2020-07-01T07:35:47Z</time>
      </trkpt>
      <trkpt lat="49.0993920" lon="1.5023510">
        <ele>70.0</ele>
        <time>2020-07-01T07:35:48Z</time>
      </trkpt>
      <trkpt lat="49.0992950" lon="1.5020620">
        <ele>68.6</ele>
        <time>2020-07-01T07:35:50Z</time>
      </trkpt>
      <trkpt lat="49.0992080" lon="1.5017660">
        <ele>66.6</ele>
        <time>2020-07-01T07:35:52Z</time>
      </trkpt>
      <trkpt lat="49.0991630" lon="1.5016160">
        <ele>66.0</ele>
        <time>2020-07-01T07:35:53Z</time>
      </trkpt>
      <trkpt lat="49.0990590" lon="1.5013070">
        <ele>65.0</ele>
        <time>2020-07-01T07:35:55Z</time>
      </trkpt>
      <trkpt lat="49.0988690" lon="1.5006930">
        <ele>61.0</ele>
        <time>2020-07-01T07:35:59Z</time>
      </trkpt>
      <trkpt lat="49.0988280" lon="1.5005420">
        <ele>59.8</ele>
        <time>2020-07-01T07:36:00Z</time>
      </trkpt>
      <trkpt lat="49.0986680" lon="1.4999420">
        <ele>56.6</ele>
        <time>2020-07-01T07:36:04Z</time>
      </trkpt>
      <trkpt lat="49.0985920" lon="1.4996470">
        <ele>55.6</ele>
        <time>2020-07-01T07:36:06Z</time>
      </trkpt>
      <trkpt lat="49.0985110" lon="1.4993580">
        <ele>54.6</ele>
        <time>2020-07-01T07:36:08Z</time>
      </trkpt>
      <trkpt lat="49.0983920" lon="1.4989130">
        <ele>52.0</ele>
        <time>2020-07-01T07:36:11Z</time>
      </trkpt>
      <trkpt lat="49.0983240" lon="1.4986060">
        <ele>51.6</ele>
        <time>2020-07-01T07:36:13Z</time>
      </trkpt>
      <trkpt lat="49.0982670" lon="1.4982980">
        <ele>50.6</ele>
        <time>2020-07-01T07:36:15Z</time>
      </trkpt>
      <trkpt lat="49.0982420" lon="1.4981450">
        <ele>49.2</ele>
        <time>2020-07-01T07:36:16Z</time>
      </trkpt>
      <trkpt lat="49.0981840" lon="1.4977060">
        <ele>47.2</ele>
        <time>2020-07-01T07:36:19Z</time>
      </trkpt>
      <trkpt lat="49.0981580" lon="1.4974300">
        <ele>46.0</ele>
        <time>2020-07-01T07:36:21Z</time>
      </trkpt>
      <trkpt lat="49.0981520" lon="1.4972970">
        <ele>44.4</ele>
        <time>2020-07-01T07:36:22Z</time>
      </trkpt>
      <trkpt lat="49.0981530" lon="1.4971650">
        <ele>43.4</ele>
        <time>2020-07-01T07:36:23Z</time>
      </trkpt>
      <trkpt lat="49.0981790" lon="1.4967570">
        <ele>41.6</ele>
        <time>2020-07-01T07:36:26Z</time>
      </trkpt>
      <trkpt lat="49.0982160" lon="1.4964920">
        <ele>41.2</ele>
        <time>2020-07-01T07:36:28Z</time>
      </trkpt>
      <trkpt lat="49.0982330" lon="1.4962560">
        <ele>39.6</ele>
        <time>2020-07-01T07:36:30Z</time>
      </trkpt>
      <trkpt lat="49.0982600" lon="1.4960210">
        <ele>38.6</ele>
        <time>2020-07-01T07:36:32Z</time>
      </trkpt>
      <trkpt lat="49.0982670" lon="1.4959010">
        <ele>38.0</ele>
        <time>2020-07-01T07:36:33Z</time>
      </trkpt>
      <trkpt lat="49.0982760" lon="1.4957830">
        <ele>37.2</ele>
        <time>2020-07-01T07:36:34Z</time>
      </trkpt>
      <trkpt lat="49.0983170" lon="1.4954320">
        <ele>35.6</ele>
        <time>2020-07-01T07:36:37Z</time>
      </trkpt>
      <trkpt lat="49.0983410" lon="1.4951980">
        <ele>34.2</ele>
        <time>2020-07-01T07:36:39Z</time>
      </trkpt>
      <trkpt lat="49.0983530" lon="1.4950790">
        <ele>33.4</ele>
        <time>2020-07-01T07:36:40Z</time>
      </trkpt>
      <trkpt lat="49.0983660" lon="1.4949580">
        <ele>32.6</ele>
        <time>2020-07-01T07:36:41Z</time>
      </trkpt>
      <trkpt lat="49.0984040" lon="1.4945890">
        <ele>30.6</ele>
        <time>2020-07-01T07:36:44Z</time>
      </trkpt>
      <trkpt lat="49.0984270" lon="1.4943440">
        <ele>29.2</ele>
        <time>2020-07-01T07:36:46Z</time>
      </trkpt>
      <trkpt lat="49.0984380" lon="1.4942270">
        <ele>28.2</ele>
        <time>2020-07-01T07:36:47Z</time>
      </trkpt>
      <trkpt lat="49.0984470" lon="1.4941130">
        <ele>27.8</ele>
        <time>2020-07-01T07:36:48Z</time>
      </trkpt>
      <trkpt lat="49.0984520" lon="1.4938890">
        <ele>26.2</ele>
        <time>2020-07-01T07:36:50Z</time>
      </trkpt>
      <trkpt lat="49.0984530" lon="1.4936520">
        <ele>24.6</ele>
        <time>2020-07-01T07:36:52Z</time>
      </trkpt>
      <trkpt lat="49.0984470" lon="1.4935330">
        <ele>24.0</ele>
        <time>2020-07-01T07:36:53Z</time>
      </trkpt>
      <trkpt lat="49.0984490" lon="1.4933040">
        <ele>22.4</ele>
        <time>2020-07-01T07:36:55Z</time>
      </trkpt>
      <trkpt lat="49.0984760" lon="1.4931060">
        <ele>21.6</ele>
        <time>2020-07-01T07:36:57Z</time>
      </trkpt>
      <trkpt lat="49.0985490" lon="1.4928350">
        <ele>19.6</ele>
        <time>2020-07-01T07:37:00Z</time>
      </trkpt>
      <trkpt lat="49.0986100" lon="1.4925660">
        <ele>18.2</ele>
        <time>2020-07-01T07:37:03Z</time>
      </trkpt>
      <trkpt lat="49.0986100" lon="1.4921920">
        <ele>17.2</ele>
        <time>2020-07-01T07:37:07Z</time>
      </trkpt>
      <trkpt lat="49.0985540" lon="1.4916960">
        <ele>16.4</ele>
        <time>2020-07-01T07:37:13Z</time>
      </trkpt>
      <trkpt lat="49.0985330" lon="1.4914990">
        <ele>16.4</ele>
        <time>2020-07-01T07:37:16Z</time>
      </trkpt>
      <trkpt lat="49.0985460" lon="1.4913710">
        <ele>16.4</ele>
        <time>2020-07-01T07:37:18Z</time>
      </trkpt>
      <trkpt lat="49.0985050" lon="1.4912170">
        <ele>16.4</ele>
        <time>2020-07-01T07:37:21Z</time>
      </trkpt>
      <trkpt lat="49.0984020" lon="1.4911660">
        <ele>16.4</ele>
        <time>2020-07-01T07:37:24Z</time>
      </trkpt>
      <trkpt lat="49.0983620" lon="1.4911420">
        <ele>16.4</ele>
        <time>2020-07-01T07:37:25Z</time>
      </trkpt>
      <trkpt lat="49.0980960" lon="1.4909620">
        <ele>16.8</ele>
        <time>2020-07-01T07:37:33Z</time>
      </trkpt>
      <trkpt lat="49.0978880" lon="1.4908120">
        <ele>16.8</ele>
        <time>2020-07-01T07:37:40Z</time>
      </trkpt>
      <trkpt lat="49.0978650" lon="1.4907760">
        <ele>16.8</ele>
        <time>2020-07-01T07:37:41Z</time>
      </trkpt>
      <trkpt lat="49.0977160" lon="1.4905160">
        <ele>17.0</ele>
        <time>2020-07-01T07:37:47Z</time>
      </trkpt>
      <trkpt lat="49.0975440" lon="1.4902320">
        <ele>17.4</ele>
        <time>2020-07-01T07:37:53Z</time>
      </trkpt>
      <trkpt lat="49.0974540" lon="1.4900950">
        <ele>17.8</ele>
        <time>2020-07-01T07:37:56Z</time>
      </trkpt>
      <trkpt lat="49.0971780" lon="1.4897420">
        <ele>18.4</ele>
        <time>2020-07-01T07:38:05Z</time>
      </trkpt>
      <trkpt lat="49.0971620" lon="1.4897110">
        <ele>18.4</ele>
        <time>2020-07-01T07:38:06Z</time>
      </trkpt>
      <trkpt lat="49.0971460" lon="1.4896560">
        <ele>18.6</ele>
        <time>2020-07-01T07:38:09Z</time>
      </trkpt>
      <trkpt lat="49.0971500" lon="1.4894680">
        <ele>19.0</ele>
        <time>2020-07-01T07:38:15Z</time>
      </trkpt>
      <trkpt lat="49.0970510" lon="1.4892240">
        <ele>19.2</ele>
        <time>2020-07-01T07:38:20Z</time>
      </trkpt>
      <trkpt lat="49.0969040" lon="1.4892320">
        <ele>19.6</ele>
        <time>2020-07-01T07:38:24Z</time>
      </trkpt>
      <trkpt lat="49.0968550" lon="1.4894070">
        <ele>19.8</ele>
        <time>2020-07-01T07:38:28Z</time>
      </trkpt>
      <trkpt lat="49.0968330" lon="1.4895570">
        <ele>20.0</ele>
        <time>2020-07-01T07:38:33Z</time>
      </trkpt>
      <trkpt lat="49.0968240" lon="1.4896030">
        <ele>20.2</ele>
        <time>2020-07-01T07:38:38Z</time>
      </trkpt>
      <trkpt lat="49.0968230" lon="1.4896030">
        <ele>20.2</ele>
        <time>2020-07-01T07:38:40Z</time>
      </trkpt>
      <trkpt lat="49.0968230" lon="1.4896030">
        <ele>20.2</ele>
        <time>2020-07-01T07:38:42Z</time>
      </trkpt>
      <trkpt lat="49.0968380" lon="1.4896530">
        <ele>20.0</ele>
        <time>2020-07-01T07:38:57Z</time>
      </trkpt>
      <trkpt lat="49.0968400" lon="1.4896800">
        <ele>20.0</ele>
        <time>2020-07-01T07:38:58Z</time>
      </trkpt>
      <trkpt lat="49.0968360" lon="1.4898560">
        <ele>20.0</ele>
        <time>2020-07-01T07:39:02Z</time>
      </trkpt>
      <trkpt lat="49.0967850" lon="1.4902460">
        <ele>19.4</ele>
        <time>2020-07-01T07:39:08Z</time>
      </trkpt>
      <trkpt lat="49.0966540" lon="1.4905830">
        <ele>17.4</ele>
        <time>2020-07-01T07:39:14Z</time>
      </trkpt>
      <trkpt lat="49.0964340" lon="1.4909420">
        <ele>16.2</ele>
        <time>2020-07-01T07:39:20Z</time>
      </trkpt>
      <trkpt lat="49.0963550" lon="1.4910360">
        <ele>15.6</ele>
        <time>2020-07-01T07:39:22Z</time>
      </trkpt>
      <trkpt lat="49.0962550" lon="1.4910880">
        <ele>15.2</ele>
        <time>2020-07-01T07:39:24Z</time>
      </trkpt>
      <trkpt lat="49.0961630" lon="1.4910750">
        <ele>14.8</ele>
        <time>2020-07-01T07:39:26Z</time>
      </trkpt>
      <trkpt lat="49.0961290" lon="1.4910430">
        <ele>14.6</ele>
        <time>2020-07-01T07:39:27Z</time>
      </trkpt>
      <trkpt lat="49.0960350" lon="1.4909310">
        <ele>14.4</ele>
        <time>2020-07-01T07:39:30Z</time>
      </trkpt>
      <trkpt lat="49.0959480" lon="1.4908270">
        <ele>14.4</ele>
        <time>2020-07-01T07:39:33Z</time>
      </trkpt>
      <trkpt lat="49.0958140" lon="1.4906240">
        <ele>14.6</ele>
        <time>2020-07-01T07:39:39Z</time>
      </trkpt>
      <trkpt lat="49.0956850" lon="1.4904760">
        <ele>14.4</ele>
        <time>2020-07-01T07:39:45Z</time>
      </trkpt>
      <trkpt lat="49.0956610" lon="1.4904830">
        <ele>14.2</ele>
        <time>2020-07-01T07:39:46Z</time>
      </trkpt>
      <trkpt lat="49.0956060" lon="1.4905680">
        <ele>14.4</ele>
        <time>2020-07-01T07:39:49Z</time>
      </trkpt>
      <trkpt lat="49.0955870" lon="1.4906000">
        <ele>14.4</ele>
        <time>2020-07-01T07:39:50Z</time>
      </trkpt>
      <trkpt lat="49.0954300" lon="1.4908200">
        <ele>14.6</ele>
        <time>2020-07-01T07:39:58Z</time>
      </trkpt>
      <trkpt lat="49.0953860" lon="1.4908710">
        <ele>14.8</ele>
        <time>2020-07-01T07:40:02Z</time>
      </trkpt>
      <trkpt lat="49.0953790" lon="1.4908780">
        <ele>14.8</ele>
        <time>2020-07-01T07:40:08Z</time>
      </trkpt>
      <trkpt lat="49.0953790" lon="1.4908780">
        <ele>14.8</ele>
        <time>2020-07-01T07:40:09Z</time>
      </trkpt>
      <trkpt lat="49.0953790" lon="1.4908780">
        <ele>14.8</ele>
        <time>2020-07-01T07:40:10Z</time>
      </trkpt>
      <trkpt lat="49.0953790" lon="1.4908790">
        <ele>14.8</ele>
        <time>2020-07-01T07:40:11Z</time>
      </trkpt>
      <trkpt lat="49.0953820" lon="1.4908790">
        <ele>15.0</ele>
        <time>2020-07-01T07:40:15Z</time>
      </trkpt>
      <trkpt lat="49.0953890" lon="1.4908730">
        <ele>15.2</ele>
        <time>2020-07-01T07:40:36Z</time>
      </trkpt>
      <trkpt lat="49.0953890" lon="1.4908800">
        <ele>15.4</ele>
        <time>2020-07-01T07:40:54Z</time>
      </trkpt>
      <trkpt lat="49.0953980" lon="1.4908820">
        <ele>15.6</ele>
        <time>2020-07-01T07:41:12Z</time>
      </trkpt>
      <trkpt lat="49.0954080" lon="1.4908670">
        <ele>15.2</ele>
        <time>2020-07-01T07:41:29Z</time>
      </trkpt>
      <trkpt lat="49.0954100" lon="1.4908660">
        <ele>15.2</ele>
        <time>2020-07-01T07:41:35Z</time>
      </trkpt>
      <trkpt lat="49.0954100" lon="1.4908660">
        <ele>15.2</ele>
        <time>2020-07-01T07:41:36Z</time>
      </trkpt>
      <trkpt lat="49.0954100" lon="1.4908650">
        <ele>15.2</ele>
        <time>2020-07-01T07:41:38Z</time>
      </trkpt>
      <trkpt lat="49.0954110" lon="1.4908630">
        <ele>15.2</ele>
        <time>2020-07-01T07:41:42Z</time>
      </trkpt>
      <trkpt lat="49.0954110" lon="1.4908610">
        <ele>15.2</ele>
        <time>2020-07-01T07:41:43Z</time>
      </trkpt>
      <trkpt lat="49.0954120" lon="1.4908590">
        <ele>15.2</ele>
        <time>2020-07-01T07:41:44Z</time>
      </trkpt>
      <trkpt lat="49.0954120" lon="1.4908560">
        <ele>15.2</ele>
        <time>2020-07-01T07:41:45Z</time>
      </trkpt>
      <trkpt lat="49.0954130" lon="1.4908550">
        <ele>15.2</ele>
        <time>2020-07-01T07:41:46Z</time>
      </trkpt>
      <trkpt lat="49.0954100" lon="1.4908630">
        <ele>15.2</ele>
        <time>2020-07-01T07:41:47Z</time>
      </trkpt>
      <trkpt lat="49.0954030" lon="1.4908750">
        <ele>15.2</ele>
        <time>2020-07-01T07:41:49Z</time>
      </trkpt>
      <trkpt lat="49.0954010" lon="1.4908790">
        <ele>15.2</ele>
        <time>2020-07-01T07:41:50Z</time>
      </trkpt>
      <trkpt lat="49.0954030" lon="1.4908790">
        <ele>15.4</ele>
        <time>2020-07-01T07:41:51Z</time>
      </trkpt>
      <trkpt lat="49.0953930" lon="1.4908780">
        <ele>16.0</ele>
        <time>2020-07-01T07:41:54Z</time>
      </trkpt>
      <trkpt lat="49.0954160" lon="1.4908840">
        <ele>16.2</ele>
        <time>2020-07-01T07:41:57Z</time>
      </trkpt>
      <trkpt lat="49.0954180" lon="1.4908800">
        <ele>16.2</ele>
        <time>2020-07-01T07:42:00Z</time>
      </trkpt>
      <trkpt lat="49.0954190" lon="1.4908700">
        <ele>16.0</ele>
        <time>2020-07-01T07:42:05Z</time>
      </trkpt>
      <trkpt lat="49.0954190" lon="1.4908680">
        <ele>15.8</ele>
        <time>2020-07-01T07:42:07Z</time>
      </trkpt>
      <trkpt lat="49.0954190" lon="1.4908680">
        <ele>15.8</ele>
        <time>2020-07-01T07:42:08Z</time>
      </trkpt>
      <trkpt lat="49.0954210" lon="1.4908650">
        <ele>15.8</ele>
        <time>2020-07-01T07:42:10Z</time>
      </trkpt>
      <trkpt lat="49.0954280" lon="1.4908750">
        <ele>15.6</ele>
        <time>2020-07-01T07:42:23Z</time>
      </trkpt>
      <trkpt lat="49.0954260" lon="1.4908720">
        <ele>15.6</ele>
        <time>2020-07-01T07:42:41Z</time>
      </trkpt>
      <trkpt lat="49.0953750" lon="1.4908620">
        <ele>15.4</ele>
        <time>2020-07-01T07:43:00Z</time>
      </trkpt>
      <trkpt lat="49.0953360" lon="1.4909410">
        <ele>15.4</ele>
        <time>2020-07-01T07:43:09Z</time>
      </trkpt>
      <trkpt lat="49.0953210" lon="1.4909640">
        <ele>15.4</ele>
        <time>2020-07-01T07:43:10Z</time>
      </trkpt>
      <trkpt lat="49.0951320" lon="1.4911960">
        <ele>15.0</ele>
        <time>2020-07-01T07:43:22Z</time>
      </trkpt>
      <trkpt lat="49.0951120" lon="1.4912220">
        <ele>15.0</ele>
        <time>2020-07-01T07:43:23Z</time>
      </trkpt>
      <trkpt lat="49.0950920" lon="1.4912500">
        <ele>15.0</ele>
        <time>2020-07-01T07:43:24Z</time>
      </trkpt>
      <trkpt lat="49.0950690" lon="1.4912800">
        <ele>15.2</ele>
        <time>2020-07-01T07:43:25Z</time>
      </trkpt>
      <trkpt lat="49.0949610" lon="1.4914350">
        <ele>15.0</ele>
        <time>2020-07-01T07:43:30Z</time>
      </trkpt>
      <trkpt lat="49.0949370" lon="1.4914640">
        <ele>15.2</ele>
        <time>2020-07-01T07:43:31Z</time>
      </trkpt>
      <trkpt lat="49.0949130" lon="1.4914990">
        <ele>15.0</ele>
        <time>2020-07-01T07:43:32Z</time>
      </trkpt>
      <trkpt lat="49.0948000" lon="1.4916730">
        <ele>14.8</ele>
        <time>2020-07-01T07:43:36Z</time>
      </trkpt>
      <trkpt lat="49.0947340" lon="1.4917610">
        <ele>14.8</ele>
        <time>2020-07-01T07:43:38Z</time>
      </trkpt>
      <trkpt lat="49.0945770" lon="1.4919870">
        <ele>14.4</ele>
        <time>2020-07-01T07:43:43Z</time>
      </trkpt>
      <trkpt lat="49.0945430" lon="1.4920380">
        <ele>14.4</ele>
        <time>2020-07-01T07:43:44Z</time>
      </trkpt>
      <trkpt lat="49.0944730" lon="1.4921370">
        <ele>14.0</ele>
        <time>2020-07-01T07:43:46Z</time>
      </trkpt>
      <trkpt lat="49.0944430" lon="1.4921810">
        <ele>14.0</ele>
        <time>2020-07-01T07:43:47Z</time>
      </trkpt>
      <trkpt lat="49.0943450" lon="1.4923180">
        <ele>13.8</ele>
        <time>2020-07-01T07:43:50Z</time>
      </trkpt>
      <trkpt lat="49.0942460" lon="1.4924550">
        <ele>13.8</ele>
        <time>2020-07-01T07:43:53Z</time>
      </trkpt>
      <trkpt lat="49.0942120" lon="1.4925000">
        <ele>13.8</ele>
        <time>2020-07-01T07:43:54Z</time>
      </trkpt>
      <trkpt lat="49.0941770" lon="1.4925430">
        <ele>13.6</ele>
        <time>2020-07-01T07:43:55Z</time>
      </trkpt>
      <trkpt lat="49.0941390" lon="1.4925880">
        <ele>13.6</ele>
        <time>2020-07-01T07:43:56Z</time>
      </trkpt>
      <trkpt lat="49.0941060" lon="1.4926320">
        <ele>13.6</ele>
        <time>2020-07-01T07:43:57Z</time>
      </trkpt>
      <trkpt lat="49.0940450" lon="1.4927220">
        <ele>13.6</ele>
        <time>2020-07-01T07:43:59Z</time>
      </trkpt>
      <trkpt lat="49.0937540" lon="1.4931700">
        <ele>14.0</ele>
        <time>2020-07-01T07:44:09Z</time>
      </trkpt>
      <trkpt lat="49.0935590" lon="1.4934650">
        <ele>14.2</ele>
        <time>2020-07-01T07:44:16Z</time>
      </trkpt>
      <trkpt lat="49.0935140" lon="1.4935370">
        <ele>14.2</ele>
        <time>2020-07-01T07:44:18Z</time>
      </trkpt>
      <trkpt lat="49.0934650" lon="1.4936190">
        <ele>14.2</ele>
        <time>2020-07-01T07:44:20Z</time>
      </trkpt>
      <trkpt lat="49.0934430" lon="1.4936610">
        <ele>14.0</ele>
        <time>2020-07-01T07:44:21Z</time>
      </trkpt>
      <trkpt lat="49.0933930" lon="1.4937490">
        <ele>14.0</ele>
        <time>2020-07-01T07:44:23Z</time>
      </trkpt>
      <trkpt lat="49.0933700" lon="1.4937890">
        <ele>13.8</ele>
        <time>2020-07-01T07:44:24Z</time>
      </trkpt>
      <trkpt lat="49.0932560" lon="1.4939560">
        <ele>13.6</ele>
        <time>2020-07-01T07:44:28Z</time>
      </trkpt>
      <trkpt lat="49.0932290" lon="1.4940050">
        <ele>13.6</ele>
        <time>2020-07-01T07:44:29Z</time>
      </trkpt>
      <trkpt lat="49.0931690" lon="1.4941090">
        <ele>13.4</ele>
        <time>2020-07-01T07:44:31Z</time>
      </trkpt>
      <trkpt lat="49.0930960" lon="1.4942320">
        <ele>13.2</ele>
        <time>2020-07-01T07:44:33Z</time>
      </trkpt>
      <trkpt lat="49.0930610" lon="1.4942930">
        <ele>13.0</ele>
        <time>2020-07-01T07:44:34Z</time>
      </trkpt>
      <trkpt lat="49.0926120" lon="1.4949080">
        <ele>12.4</ele>
        <time>2020-07-01T07:44:46Z</time>
      </trkpt>
      <trkpt lat="49.0925900" lon="1.4949360">
        <ele>12.2</ele>
        <time>2020-07-01T07:44:47Z</time>
      </trkpt>
      <trkpt lat="49.0925500" lon="1.4949910">
        <ele>12.4</ele>
        <time>2020-07-01T07:44:48Z</time>
      </trkpt>
      <trkpt lat="49.0923920" lon="1.4951980">
        <ele>12.2</ele>
        <time>2020-07-01T07:44:52Z</time>
      </trkpt>
      <trkpt lat="49.0923630" lon="1.4952450">
        <ele>12.2</ele>
        <time>2020-07-01T07:44:53Z</time>
      </trkpt>
      <trkpt lat="49.0923400" lon="1.4952940">
        <ele>12.4</ele>
        <time>2020-07-01T07:44:54Z</time>
      </trkpt>
      <trkpt lat="49.0923190" lon="1.4953440">
        <ele>12.4</ele>
        <time>2020-07-01T07:44:55Z</time>
      </trkpt>
      <trkpt lat="49.0923010" lon="1.4954000">
        <ele>12.4</ele>
        <time>2020-07-01T07:44:56Z</time>
      </trkpt>
      <trkpt lat="49.0922830" lon="1.4954580">
        <ele>12.2</ele>
        <time>2020-07-01T07:44:57Z</time>
      </trkpt>
      <trkpt lat="49.0922500" lon="1.4955900">
        <ele>12.4</ele>
        <time>2020-07-01T07:44:59Z</time>
      </trkpt>
      <trkpt lat="49.0922340" lon="1.4956580">
        <ele>12.4</ele>
        <time>2020-07-01T07:45:00Z</time>
      </trkpt>
      <trkpt lat="49.0922050" lon="1.4957210">
        <ele>12.4</ele>
        <time>2020-07-01T07:45:01Z</time>
      </trkpt>
      <trkpt lat="49.0921760" lon="1.4957780">
        <ele>12.4</ele>
        <time>2020-07-01T07:45:02Z</time>
      </trkpt>
      <trkpt lat="49.0921410" lon="1.4958160">
        <ele>12.4</ele>
        <time>2020-07-01T07:45:03Z</time>
      </trkpt>
      <trkpt lat="49.0921020" lon="1.4958480">
        <ele>12.6</ele>
        <time>2020-07-01T07:45:04Z</time>
      </trkpt>
      <trkpt lat="49.0920320" lon="1.4959240">
        <ele>12.8</ele>
        <time>2020-07-01T07:45:06Z</time>
      </trkpt>
      <trkpt lat="49.0917910" lon="1.4961990">
        <ele>13.4</ele>
        <time>2020-07-01T07:45:13Z</time>
      </trkpt>
      <trkpt lat="49.0917390" lon="1.4963220">
        <ele>13.4</ele>
        <time>2020-07-01T07:45:15Z</time>
      </trkpt>
      <trkpt lat="49.0916840" lon="1.4965020">
        <ele>13.4</ele>
        <time>2020-07-01T07:45:18Z</time>
      </trkpt>
      <trkpt lat="49.0915380" lon="1.4967580">
        <ele>13.4</ele>
        <time>2020-07-01T07:45:24Z</time>
      </trkpt>
      <trkpt lat="49.0912940" lon="1.4970480">
        <ele>13.0</ele>
        <time>2020-07-01T07:45:30Z</time>
      </trkpt>
      <trkpt lat="49.0909520" lon="1.4975270">
        <ele>13.2</ele>
        <time>2020-07-01T07:45:39Z</time>
      </trkpt>
      <trkpt lat="49.0907360" lon="1.4978560">
        <ele>13.2</ele>
        <time>2020-07-01T07:45:45Z</time>
      </trkpt>
      <trkpt lat="49.0906730" lon="1.4979660">
        <ele>13.4</ele>
        <time>2020-07-01T07:45:47Z</time>
      </trkpt>
      <trkpt lat="49.0905720" lon="1.4981510">
        <ele>13.4</ele>
        <time>2020-07-01T07:45:50Z</time>
      </trkpt>
      <trkpt lat="49.0904930" lon="1.4982710">
        <ele>13.6</ele>
        <time>2020-07-01T07:45:52Z</time>
      </trkpt>
      <trkpt lat="49.0904510" lon="1.4983280">
        <ele>13.4</ele>
        <time>2020-07-01T07:45:53Z</time>
      </trkpt>
      <trkpt lat="49.0903540" lon="1.4984440">
        <ele>13.4</ele>
        <time>2020-07-01T07:45:55Z</time>
      </trkpt>
      <trkpt lat="49.0901460" lon="1.4987080">
        <ele>13.2</ele>
        <time>2020-07-01T07:46:00Z</time>
      </trkpt>
      <trkpt lat="49.0898130" lon="1.4991920">
        <ele>12.8</ele>
        <time>2020-07-01T07:46:08Z</time>
      </trkpt>
      <trkpt lat="49.0894930" lon="1.4996970">
        <ele>12.8</ele>
        <time>2020-07-01T07:46:17Z</time>
      </trkpt>
      <trkpt lat="49.0890410" lon="1.5002170">
        <ele>12.8</ele>
        <time>2020-07-01T07:46:28Z</time>
      </trkpt>
      <trkpt lat="49.0886300" lon="1.5005960">
        <ele>12.8</ele>
        <time>2020-07-01T07:46:38Z</time>
      </trkpt>
      <trkpt lat="49.0884940" lon="1.5007520">
        <ele>12.8</ele>
        <time>2020-07-01T07:46:42Z</time>
      </trkpt>
      <trkpt lat="49.0883950" lon="1.5008780">
        <ele>13.0</ele>
        <time>2020-07-01T07:46:46Z</time>
      </trkpt>
      <trkpt lat="49.0883780" lon="1.5008890">
        <ele>13.0</ele>
        <time>2020-07-01T07:46:50Z</time>
      </trkpt>
      <trkpt lat="49.0883890" lon="1.5008760">
        <ele>14.2</ele>
        <time>2020-07-01T07:47:06Z</time>
      </trkpt>
      <trkpt lat="49.0883960" lon="1.5008610">
        <ele>14.2</ele>
        <time>2020-07-01T07:47:17Z</time>
      </trkpt>
      <trkpt lat="49.0883970" lon="1.5008600">
        <ele>14.2</ele>
        <time>2020-07-01T07:47:18Z</time>
      </trkpt>
      <trkpt lat="49.0883980" lon="1.5008590">
        <ele>14.2</ele>
        <time>2020-07-01T07:47:20Z</time>
      </trkpt>
      <trkpt lat="49.0883900" lon="1.5008680">
        <ele>14.4</ele>
        <time>2020-07-01T07:47:42Z</time>
      </trkpt>
      <trkpt lat="49.0883760" lon="1.5008960">
        <ele>14.6</ele>
        <time>2020-07-01T07:47:44Z</time>
      </trkpt>
      <trkpt lat="49.0883320" lon="1.5009910">
        <ele>14.4</ele>
        <time>2020-07-01T07:47:48Z</time>
      </trkpt>
      <trkpt lat="49.0883130" lon="1.5010260">
        <ele>14.4</ele>
        <time>2020-07-01T07:47:49Z</time>
      </trkpt>
      <trkpt lat="49.0881650" lon="1.5012880">
        <ele>14.4</ele>
        <time>2020-07-01T07:47:55Z</time>
      </trkpt>
      <trkpt lat="49.0880520" lon="1.5015130">
        <ele>13.8</ele>
        <time>2020-07-01T07:47:59Z</time>
      </trkpt>
      <trkpt lat="49.0879320" lon="1.5017610">
        <ele>13.4</ele>
        <time>2020-07-01T07:48:03Z</time>
      </trkpt>
      <trkpt lat="49.0876580" lon="1.5023540">
        <ele>13.2</ele>
        <time>2020-07-01T07:48:13Z</time>
      </trkpt>
      <trkpt lat="49.0874140" lon="1.5030120">
        <ele>13.0</ele>
        <time>2020-07-01T07:48:24Z</time>
      </trkpt>
      <trkpt lat="49.0872990" lon="1.5033850">
        <ele>13.2</ele>
        <time>2020-07-01T07:48:31Z</time>
      </trkpt>
      <trkpt lat="49.0873340" lon="1.5036600">
        <ele>13.4</ele>
        <time>2020-07-01T07:48:37Z</time>
      </trkpt>
      <trkpt lat="49.0874260" lon="1.5040840">
        <ele>13.8</ele>
        <time>2020-07-01T07:48:46Z</time>
      </trkpt>
      <trkpt lat="49.0874640" lon="1.5042790">
        <ele>13.8</ele>
        <time>2020-07-01T07:48:52Z</time>
      </trkpt>
      <trkpt lat="49.0874530" lon="1.5042660">
        <ele>14.0</ele>
        <time>2020-07-01T07:48:57Z</time>
      </trkpt>
      <trkpt lat="49.0874550" lon="1.5042610">
        <ele>14.0</ele>
        <time>2020-07-01T07:49:07Z</time>
      </trkpt>
      <trkpt lat="49.0874540" lon="1.5042600">
        <ele>13.8</ele>
        <time>2020-07-01T07:49:08Z</time>
      </trkpt>
      <trkpt lat="49.0874530" lon="1.5042550">
        <ele>14.0</ele>
        <time>2020-07-01T07:49:09Z</time>
      </trkpt>
      <trkpt lat="49.0874520" lon="1.5042510">
        <ele>14.0</ele>
        <time>2020-07-01T07:49:10Z</time>
      </trkpt>
      <trkpt lat="49.0874510" lon="1.5042490">
        <ele>14.2</ele>
        <time>2020-07-01T07:49:11Z</time>
      </trkpt>
      <trkpt lat="49.0874520" lon="1.5042460">
        <ele>14.2</ele>
        <time>2020-07-01T07:49:12Z</time>
      </trkpt>
      <trkpt lat="49.0874570" lon="1.5042380">
        <ele>14.0</ele>
        <time>2020-07-01T07:49:15Z</time>
      </trkpt>
      <trkpt lat="49.0874600" lon="1.5042350">
        <ele>14.0</ele>
        <time>2020-07-01T07:49:16Z</time>
      </trkpt>
      <trkpt lat="49.0874610" lon="1.5042330">
        <ele>14.0</ele>
        <time>2020-07-01T07:49:17Z</time>
      </trkpt>
      <trkpt lat="49.0874610" lon="1.5042330">
        <ele>14.0</ele>
        <time>2020-07-01T07:49:18Z</time>
      </trkpt>
      <trkpt lat="49.0874610" lon="1.5042330">
        <ele>14.2</ele>
        <time>2020-07-01T07:49:19Z</time>
      </trkpt>
      <trkpt lat="49.0874620" lon="1.5042320">
        <ele>14.0</ele>
        <time>2020-07-01T07:49:20Z</time>
      </trkpt>
      <trkpt lat="49.0874620" lon="1.5042320">
        <ele>14.4</ele>
        <time>2020-07-01T07:49:28Z</time>
      </trkpt>
      <trkpt lat="49.0874510" lon="1.5042550">
        <ele>14.4</ele>
        <time>2020-07-01T07:49:51Z</time>
      </trkpt>
      <trkpt lat="49.0874520" lon="1.5042530">
        <ele>14.4</ele>
        <time>2020-07-01T07:50:11Z</time>
      </trkpt>
      <trkpt lat="49.0874590" lon="1.5042450">
        <ele>14.4</ele>
        <time>2020-07-01T07:50:45Z</time>
      </trkpt>
      <trkpt lat="49.0874810" lon="1.5042520">
        <ele>14.4</ele>
        <time>2020-07-01T07:51:06Z</time>
      </trkpt>
      <trkpt lat="49.0875070" lon="1.5043130">
        <ele>14.4</ele>
        <time>2020-07-01T07:51:16Z</time>
      </trkpt>
      <trkpt lat="49.0875220" lon="1.5043470">
        <ele>14.4</ele>
        <time>2020-07-01T07:51:18Z</time>
      </trkpt>
      <trkpt lat="49.0875610" lon="1.5045290">
        <ele>14.2</ele>
        <time>2020-07-01T07:51:24Z</time>
      </trkpt>
      <trkpt lat="49.0876250" lon="1.5048280">
        <ele>14.0</ele>
        <time>2020-07-01T07:51:30Z</time>
      </trkpt>
      <trkpt lat="49.0877520" lon="1.5054480">
        <ele>13.8</ele>
        <time>2020-07-01T07:51:40Z</time>
      </trkpt>
      <trkpt lat="49.0878190" lon="1.5059100">
        <ele>13.6</ele>
        <time>2020-07-01T07:51:48Z</time>
      </trkpt>
      <trkpt lat="49.0878150" lon="1.5059620">
        <ele>13.6</ele>
        <time>2020-07-01T07:51:49Z</time>
      </trkpt>
      <trkpt lat="49.0877630" lon="1.5063770">
        <ele>14.4</ele>
        <time>2020-07-01T07:51:58Z</time>
      </trkpt>
      <trkpt lat="49.0877290" lon="1.5068610">
        <ele>14.8</ele>
        <time>2020-07-01T07:52:08Z</time>
      </trkpt>
      <trkpt lat="49.0876480" lon="1.5074450">
        <ele>14.8</ele>
        <time>2020-07-01T07:52:17Z</time>
      </trkpt>
      <trkpt lat="49.0875970" lon="1.5077130">
        <ele>14.8</ele>
        <time>2020-07-01T07:52:21Z</time>
      </trkpt>
      <trkpt lat="49.0875440" lon="1.5079010">
        <ele>14.6</ele>
        <time>2020-07-01T07:52:24Z</time>
      </trkpt>
      <trkpt lat="49.0875090" lon="1.5080190">
        <ele>14.6</ele>
        <time>2020-07-01T07:52:26Z</time>
      </trkpt>
      <trkpt lat="49.0873040" lon="1.5086850">
        <ele>13.4</ele>
        <time>2020-07-01T07:52:37Z</time>
      </trkpt>
      <trkpt lat="49.0871670" lon="1.5089940">
        <ele>13.4</ele>
        <time>2020-07-01T07:52:44Z</time>
      </trkpt>
      <trkpt lat="49.0871170" lon="1.5091380">
        <ele>13.6</ele>
        <time>2020-07-01T07:52:49Z</time>
      </trkpt>
      <trkpt lat="49.0871080" lon="1.5092240">
        <ele>14.0</ele>
        <time>2020-07-01T07:52:52Z</time>
      </trkpt>
      <trkpt lat="49.0870950" lon="1.5092810">
        <ele>14.2</ele>
        <time>2020-07-01T07:52:55Z</time>
      </trkpt>
      <trkpt lat="49.0870580" lon="1.5094310">
        <ele>15.2</ele>
        <time>2020-07-01T07:53:05Z</time>
      </trkpt>
      <trkpt lat="49.0869550" lon="1.5096020">
        <ele>15.4</ele>
        <time>2020-07-01T07:53:11Z</time>
      </trkpt>
      <trkpt lat="49.0867540" lon="1.5099460">
        <ele>15.2</ele>
        <time>2020-07-01T07:53:20Z</time>
      </trkpt>
      <trkpt lat="49.0865690" lon="1.5102670">
        <ele>14.2</ele>
        <time>2020-07-01T07:53:27Z</time>
      </trkpt>
      <trkpt lat="49.0863890" lon="1.5105630">
        <ele>14.2</ele>
        <time>2020-07-01T07:53:33Z</time>
      </trkpt>
      <trkpt lat="49.0863590" lon="1.5106130">
        <ele>14.0</ele>
        <time>2020-07-01T07:53:34Z</time>
      </trkpt>
      <trkpt lat="49.0863270" lon="1.5106660">
        <ele>14.0</ele>
        <time>2020-07-01T07:53:35Z</time>
      </trkpt>
      <trkpt lat="49.0859420" lon="1.5111910">
        <ele>14.2</ele>
        <time>2020-07-01T07:53:44Z</time>
      </trkpt>
      <trkpt lat="49.0855100" lon="1.5118060">
        <ele>14.6</ele>
        <time>2020-07-01T07:53:54Z</time>
      </trkpt>
      <trkpt lat="49.0850870" lon="1.5123690">
        <ele>14.6</ele>
        <time>2020-07-01T07:54:03Z</time>
      </trkpt>
      <trkpt lat="49.0846610" lon="1.5128780">
        <ele>14.4</ele>
        <time>2020-07-01T07:54:12Z</time>
      </trkpt>
      <trkpt lat="49.0845730" lon="1.5129830">
        <ele>14.6</ele>
        <time>2020-07-01T07:54:14Z</time>
      </trkpt>
      <trkpt lat="49.0842080" lon="1.5133340">
        <ele>14.8</ele>
        <time>2020-07-01T07:54:22Z</time>
      </trkpt>
      <trkpt lat="49.0837820" lon="1.5137540">
        <ele>15.0</ele>
        <time>2020-07-01T07:54:32Z</time>
      </trkpt>
      <trkpt lat="49.0833210" lon="1.5142070">
        <ele>14.8</ele>
        <time>2020-07-01T07:54:42Z</time>
      </trkpt>
      <trkpt lat="49.0831780" lon="1.5143440">
        <ele>14.8</ele>
        <time>2020-07-01T07:54:45Z</time>
      </trkpt>
      <trkpt lat="49.0829920" lon="1.5145220">
        <ele>14.6</ele>
        <time>2020-07-01T07:54:49Z</time>
      </trkpt>
      <trkpt lat="49.0829010" lon="1.5146160">
        <ele>14.8</ele>
        <time>2020-07-01T07:54:51Z</time>
      </trkpt>
      <trkpt lat="49.0828160" lon="1.5146990">
        <ele>14.8</ele>
        <time>2020-07-01T07:54:53Z</time>
      </trkpt>
      <trkpt lat="49.0825020" lon="1.5149090">
        <ele>15.0</ele>
        <time>2020-07-01T07:55:00Z</time>
      </trkpt>
      <trkpt lat="49.0821930" lon="1.5151050">
        <ele>14.8</ele>
        <time>2020-07-01T07:55:07Z</time>
      </trkpt>
      <trkpt lat="49.0819670" lon="1.5153860">
        <ele>15.0</ele>
        <time>2020-07-01T07:55:13Z</time>
      </trkpt>
      <trkpt lat="49.0818350" lon="1.5155980">
        <ele>15.0</ele>
        <time>2020-07-01T07:55:17Z</time>
      </trkpt>
      <trkpt lat="49.0817260" lon="1.5157090">
        <ele>15.0</ele>
        <time>2020-07-01T07:55:20Z</time>
      </trkpt>
      <trkpt lat="49.0816940" lon="1.5157490">
        <ele>15.0</ele>
        <time>2020-07-01T07:55:21Z</time>
      </trkpt>
      <trkpt lat="49.0816500" lon="1.5158450">
        <ele>15.4</ele>
        <time>2020-07-01T07:55:23Z</time>
      </trkpt>
      <trkpt lat="49.0816490" lon="1.5158960">
        <ele>15.6</ele>
        <time>2020-07-01T07:55:24Z</time>
      </trkpt>
      <trkpt lat="49.0816640" lon="1.5159350">
        <ele>15.8</ele>
        <time>2020-07-01T07:55:25Z</time>
      </trkpt>
      <trkpt lat="49.0817040" lon="1.5159800">
        <ele>15.8</ele>
        <time>2020-07-01T07:55:27Z</time>
      </trkpt>
      <trkpt lat="49.0817210" lon="1.5159990">
        <ele>16.0</ele>
        <time>2020-07-01T07:55:28Z</time>
      </trkpt>
      <trkpt lat="49.0817290" lon="1.5160170">
        <ele>16.0</ele>
        <time>2020-07-01T07:55:29Z</time>
      </trkpt>
      <trkpt lat="49.0817120" lon="1.5160100">
        <ele>16.2</ele>
        <time>2020-07-01T07:55:31Z</time>
      </trkpt>
      <trkpt lat="49.0816750" lon="1.5159930">
        <ele>16.6</ele>
        <time>2020-07-01T07:55:33Z</time>
      </trkpt>
      <trkpt lat="49.0816270" lon="1.5160030">
        <ele>16.8</ele>
        <time>2020-07-01T07:55:35Z</time>
      </trkpt>
      <trkpt lat="49.0816010" lon="1.5160160">
        <ele>16.8</ele>
        <time>2020-07-01T07:55:36Z</time>
      </trkpt>
      <trkpt lat="49.0814010" lon="1.5161720">
        <ele>16.8</ele>
        <time>2020-07-01T07:55:43Z</time>
      </trkpt>
      <trkpt lat="49.0812840" lon="1.5162680">
        <ele>16.8</ele>
        <time>2020-07-01T07:55:46Z</time>
      </trkpt>
      <trkpt lat="49.0810980" lon="1.5164140">
        <ele>16.4</ele>
        <time>2020-07-01T07:55:51Z</time>
      </trkpt>
      <trkpt lat="49.0809150" lon="1.5165620">
        <ele>15.8</ele>
        <time>2020-07-01T07:55:58Z</time>
      </trkpt>
      <trkpt lat="49.0809060" lon="1.5165400">
        <ele>15.6</ele>
        <time>2020-07-01T07:56:03Z</time>
      </trkpt>
      <trkpt lat="49.0808970" lon="1.5165230">
        <ele>15.6</ele>
        <time>2020-07-01T07:56:05Z</time>
      </trkpt>
      <trkpt lat="49.0808660" lon="1.5164980">
        <ele>15.8</ele>
        <time>2020-07-01T07:56:07Z</time>
      </trkpt>
      <trkpt lat="49.0807530" lon="1.5165860">
        <ele>15.4</ele>
        <time>2020-07-01T07:56:11Z</time>
      </trkpt>
      <trkpt lat="49.0804960" lon="1.5168660">
        <ele>15.6</ele>
        <time>2020-07-01T07:56:18Z</time>
      </trkpt>
      <trkpt lat="49.0800800" lon="1.5173130">
        <ele>15.6</ele>
        <time>2020-07-01T07:56:28Z</time>
      </trkpt>
      <trkpt lat="49.0797930" lon="1.5176160">
        <ele>15.8</ele>
        <time>2020-07-01T07:56:35Z</time>
      </trkpt>
      <trkpt lat="49.0794060" lon="1.5180430">
        <ele>15.4</ele>
        <time>2020-07-01T07:56:44Z</time>
      </trkpt>
      <trkpt lat="49.0790480" lon="1.5184440">
        <ele>15.2</ele>
        <time>2020-07-01T07:56:52Z</time>
      </trkpt>
      <trkpt lat="49.0786310" lon="1.5189970">
        <ele>15.4</ele>
        <time>2020-07-01T07:57:02Z</time>
      </trkpt>
      <trkpt lat="49.0783730" lon="1.5194490">
        <ele>15.6</ele>
        <time>2020-07-01T07:57:10Z</time>
      </trkpt>
      <trkpt lat="49.0780490" lon="1.5199910">
        <ele>15.4</ele>
        <time>2020-07-01T07:57:19Z</time>
      </trkpt>
      <trkpt lat="49.0778190" lon="1.5204090">
        <ele>14.8</ele>
        <time>2020-07-01T07:57:26Z</time>
      </trkpt>
      <trkpt lat="49.0776230" lon="1.5207650">
        <ele>14.8</ele>
        <time>2020-07-01T07:57:32Z</time>
      </trkpt>
      <trkpt lat="49.0773470" lon="1.5212890">
        <ele>14.6</ele>
        <time>2020-07-01T07:57:40Z</time>
      </trkpt>
      <trkpt lat="49.0770880" lon="1.5216610">
        <ele>14.6</ele>
        <time>2020-07-01T07:57:46Z</time>
      </trkpt>
      <trkpt lat="49.0768380" lon="1.5220980">
        <ele>14.8</ele>
        <time>2020-07-01T07:57:53Z</time>
      </trkpt>
      <trkpt lat="49.0766700" lon="1.5223570">
        <ele>15.0</ele>
        <time>2020-07-01T07:57:57Z</time>
      </trkpt>
      <trkpt lat="49.0765910" lon="1.5224780">
        <ele>15.0</ele>
        <time>2020-07-01T07:57:59Z</time>
      </trkpt>
      <trkpt lat="49.0762640" lon="1.5229580">
        <ele>14.8</ele>
        <time>2020-07-01T07:58:07Z</time>
      </trkpt>
      <trkpt lat="49.0759070" lon="1.5234800">
        <ele>14.6</ele>
        <time>2020-07-01T07:58:16Z</time>
      </trkpt>
      <trkpt lat="49.0757280" lon="1.5237690">
        <ele>14.6</ele>
        <time>2020-07-01T07:58:21Z</time>
      </trkpt>
      <trkpt lat="49.0756620" lon="1.5238830">
        <ele>14.6</ele>
        <time>2020-07-01T07:58:23Z</time>
      </trkpt>
      <trkpt lat="49.0754220" lon="1.5242230">
        <ele>18.0</ele>
        <time>2020-07-01T07:58:30Z</time>
      </trkpt>
      <trkpt lat="49.0751950" lon="1.5246060">
        <ele>14.8</ele>
        <time>2020-07-01T07:58:37Z</time>
      </trkpt>
      <trkpt lat="49.0749800" lon="1.5250580">
        <ele>15.0</ele>
        <time>2020-07-01T07:58:44Z</time>
      </trkpt>
      <trkpt lat="49.0747710" lon="1.5255280">
        <ele>15.2</ele>
        <time>2020-07-01T07:58:51Z</time>
      </trkpt>
      <trkpt lat="49.0745110" lon="1.5262300">
        <ele>15.4</ele>
        <time>2020-07-01T07:59:00Z</time>
      </trkpt>
      <trkpt lat="49.0743430" lon="1.5269240">
        <ele>15.4</ele>
        <time>2020-07-01T07:59:09Z</time>
      </trkpt>
      <trkpt lat="49.0742460" lon="1.5276340">
        <ele>15.6</ele>
        <time>2020-07-01T07:59:18Z</time>
      </trkpt>
      <trkpt lat="49.0741960" lon="1.5281840">
        <ele>15.6</ele>
        <time>2020-07-01T07:59:25Z</time>
      </trkpt>
      <trkpt lat="49.0741840" lon="1.5283490">
        <ele>15.6</ele>
        <time>2020-07-01T07:59:27Z</time>
      </trkpt>
      <trkpt lat="49.0741620" lon="1.5286840">
        <ele>15.6</ele>
        <time>2020-07-01T07:59:31Z</time>
      </trkpt>
      <trkpt lat="49.0741630" lon="1.5289300">
        <ele>15.8</ele>
        <time>2020-07-01T07:59:34Z</time>
      </trkpt>
      <trkpt lat="49.0742290" lon="1.5294170">
        <ele>16.0</ele>
        <time>2020-07-01T07:59:40Z</time>
      </trkpt>
      <trkpt lat="49.0742370" lon="1.5299000">
        <ele>16.0</ele>
        <time>2020-07-01T07:59:46Z</time>
      </trkpt>
      <trkpt lat="49.0742670" lon="1.5300520">
        <ele>15.8</ele>
        <time>2020-07-01T07:59:48Z</time>
      </trkpt>
      <trkpt lat="49.0743190" lon="1.5301850">
        <ele>15.8</ele>
        <time>2020-07-01T07:59:50Z</time>
      </trkpt>
      <trkpt lat="49.0744760" lon="1.5306760">
        <ele>15.8</ele>
        <time>2020-07-01T07:59:57Z</time>
      </trkpt>
      <trkpt lat="49.0744840" lon="1.5307540">
        <ele>15.6</ele>
        <time>2020-07-01T07:59:58Z</time>
      </trkpt>
      <trkpt lat="49.0745350" lon="1.5311680">
        <ele>15.4</ele>
        <time>2020-07-01T08:00:03Z</time>
      </trkpt>
      <trkpt lat="49.0746250" lon="1.5316510">
        <ele>15.4</ele>
        <time>2020-07-01T08:00:09Z</time>
      </trkpt>
      <trkpt lat="49.0746380" lon="1.5317350">
        <ele>15.4</ele>
        <time>2020-07-01T08:00:10Z</time>
      </trkpt>
      <trkpt lat="49.0747080" lon="1.5324630">
        <ele>15.4</ele>
        <time>2020-07-01T08:00:19Z</time>
      </trkpt>
      <trkpt lat="49.0746880" lon="1.5333550">
        <ele>15.2</ele>
        <time>2020-07-01T08:00:30Z</time>
      </trkpt>
      <trkpt lat="49.0746710" lon="1.5338500">
        <ele>15.4</ele>
        <time>2020-07-01T08:00:36Z</time>
      </trkpt>
      <trkpt lat="49.0746550" lon="1.5341090">
        <ele>15.4</ele>
        <time>2020-07-01T08:00:39Z</time>
      </trkpt>
      <trkpt lat="49.0746430" lon="1.5342840">
        <ele>15.4</ele>
        <time>2020-07-01T08:00:41Z</time>
      </trkpt>
      <trkpt lat="49.0746280" lon="1.5345430">
        <ele>15.4</ele>
        <time>2020-07-01T08:00:44Z</time>
      </trkpt>
      <trkpt lat="49.0746090" lon="1.5349750">
        <ele>15.8</ele>
        <time>2020-07-01T08:00:49Z</time>
      </trkpt>
      <trkpt lat="49.0745930" lon="1.5353920">
        <ele>15.8</ele>
        <time>2020-07-01T08:00:54Z</time>
      </trkpt>
      <trkpt lat="49.0745470" lon="1.5358580">
        <ele>15.4</ele>
        <time>2020-07-01T08:01:00Z</time>
      </trkpt>
      <trkpt lat="49.0744750" lon="1.5365400">
        <ele>15.4</ele>
        <time>2020-07-01T08:01:09Z</time>
      </trkpt>
      <trkpt lat="49.0744160" lon="1.5370180">
        <ele>15.2</ele>
        <time>2020-07-01T08:01:15Z</time>
      </trkpt>
      <trkpt lat="49.0743950" lon="1.5371820">
        <ele>15.4</ele>
        <time>2020-07-01T08:01:17Z</time>
      </trkpt>
      <trkpt lat="49.0742880" lon="1.5380690">
        <ele>16.0</ele>
        <time>2020-07-01T08:01:28Z</time>
      </trkpt>
      <trkpt lat="49.0742210" lon="1.5386440">
        <ele>16.4</ele>
        <time>2020-07-01T08:01:35Z</time>
      </trkpt>
      <trkpt lat="49.0741310" lon="1.5391390">
        <ele>16.4</ele>
        <time>2020-07-01T08:01:41Z</time>
      </trkpt>
      <trkpt lat="49.0740690" lon="1.5399210">
        <ele>16.4</ele>
        <time>2020-07-01T08:01:50Z</time>
      </trkpt>
      <trkpt lat="49.0740650" lon="1.5407630">
        <ele>16.4</ele>
        <time>2020-07-01T08:02:00Z</time>
      </trkpt>
      <trkpt lat="49.0740560" lon="1.5409260">
        <ele>16.4</ele>
        <time>2020-07-01T08:02:02Z</time>
      </trkpt>
      <trkpt lat="49.0740330" lon="1.5413570">
        <ele>16.4</ele>
        <time>2020-07-01T08:02:08Z</time>
      </trkpt>
      <trkpt lat="49.0740140" lon="1.5414090">
        <ele>16.2</ele>
        <time>2020-07-01T08:02:09Z</time>
      </trkpt>
      <trkpt lat="49.0739740" lon="1.5414470">
        <ele>16.4</ele>
        <time>2020-07-01T08:02:10Z</time>
      </trkpt>
      <trkpt lat="49.0738790" lon="1.5414740">
        <ele>16.8</ele>
        <time>2020-07-01T08:02:12Z</time>
      </trkpt>
      <trkpt lat="49.0735790" lon="1.5414390">
        <ele>17.4</ele>
        <time>2020-07-01T08:02:18Z</time>
      </trkpt>
      <trkpt lat="49.0734440" lon="1.5414350">
        <ele>17.4</ele>
        <time>2020-07-01T08:02:21Z</time>
      </trkpt>
      <trkpt lat="49.0733160" lon="1.5414640">
        <ele>17.4</ele>
        <time>2020-07-01T08:02:24Z</time>
      </trkpt>
      <trkpt lat="49.0730220" lon="1.5416270">
        <ele>16.8</ele>
        <time>2020-07-01T08:02:29Z</time>
      </trkpt>
      <trkpt lat="49.0727420" lon="1.5418330">
        <ele>15.8</ele>
        <time>2020-07-01T08:02:34Z</time>
      </trkpt>
      <trkpt lat="49.0725830" lon="1.5419600">
        <ele>15.8</ele>
        <time>2020-07-01T08:02:37Z</time>
      </trkpt>
      <trkpt lat="49.0721640" lon="1.5423080">
        <ele>15.0</ele>
        <time>2020-07-01T08:02:45Z</time>
      </trkpt>
      <trkpt lat="49.0716890" lon="1.5426380">
        <ele>14.6</ele>
        <time>2020-07-01T08:02:54Z</time>
      </trkpt>
      <trkpt lat="49.0712180" lon="1.5429720">
        <ele>14.8</ele>
        <time>2020-07-01T08:03:03Z</time>
      </trkpt>
      <trkpt lat="49.0707010" lon="1.5433630">
        <ele>15.2</ele>
        <time>2020-07-01T08:03:13Z</time>
      </trkpt>
      <trkpt lat="49.0706490" lon="1.5434020">
        <ele>15.2</ele>
        <time>2020-07-01T08:03:14Z</time>
      </trkpt>
      <trkpt lat="49.0701400" lon="1.5437740">
        <ele>15.2</ele>
        <time>2020-07-01T08:03:24Z</time>
      </trkpt>
      <trkpt lat="49.0700910" lon="1.5438090">
        <ele>15.0</ele>
        <time>2020-07-01T08:03:25Z</time>
      </trkpt>
      <trkpt lat="49.0697420" lon="1.5440670">
        <ele>14.8</ele>
        <time>2020-07-01T08:03:32Z</time>
      </trkpt>
      <trkpt lat="49.0695930" lon="1.5441830">
        <ele>14.8</ele>
        <time>2020-07-01T08:03:35Z</time>
      </trkpt>
      <trkpt lat="49.0692310" lon="1.5444430">
        <ele>15.2</ele>
        <time>2020-07-01T08:03:42Z</time>
      </trkpt>
      <trkpt lat="49.0691280" lon="1.5445170">
        <ele>15.2</ele>
        <time>2020-07-01T08:03:44Z</time>
      </trkpt>
      <trkpt lat="49.0690280" lon="1.5445890">
        <ele>15.4</ele>
        <time>2020-07-01T08:03:46Z</time>
      </trkpt>
      <trkpt lat="49.0685480" lon="1.5449170">
        <ele>15.0</ele>
        <time>2020-07-01T08:03:56Z</time>
      </trkpt>
      <trkpt lat="49.0681230" lon="1.5452280">
        <ele>15.4</ele>
        <time>2020-07-01T08:04:05Z</time>
      </trkpt>
      <trkpt lat="49.0678190" lon="1.5454320">
        <ele>15.6</ele>
        <time>2020-07-01T08:04:11Z</time>
      </trkpt>
      <trkpt lat="49.0673170" lon="1.5458000">
        <ele>15.8</ele>
        <time>2020-07-01T08:04:21Z</time>
      </trkpt>
      <trkpt lat="49.0667910" lon="1.5461950">
        <ele>15.8</ele>
        <time>2020-07-01T08:04:32Z</time>
      </trkpt>
      <trkpt lat="49.0662920" lon="1.5465590">
        <ele>15.8</ele>
        <time>2020-07-01T08:04:42Z</time>
      </trkpt>
      <trkpt lat="49.0661380" lon="1.5466770">
        <ele>16.0</ele>
        <time>2020-07-01T08:04:45Z</time>
      </trkpt>
      <trkpt lat="49.0656410" lon="1.5470830">
        <ele>16.2</ele>
        <time>2020-07-01T08:04:55Z</time>
      </trkpt>
      <trkpt lat="49.0655910" lon="1.5471240">
        <ele>16.2</ele>
        <time>2020-07-01T08:04:56Z</time>
      </trkpt>
      <trkpt lat="49.0653580" lon="1.5473380">
        <ele>16.4</ele>
        <time>2020-07-01T08:05:01Z</time>
      </trkpt>
      <trkpt lat="49.0653150" lon="1.5473800">
        <ele>16.4</ele>
        <time>2020-07-01T08:05:02Z</time>
      </trkpt>
      <trkpt lat="49.0652260" lon="1.5474600">
        <ele>16.6</ele>
        <time>2020-07-01T08:05:04Z</time>
      </trkpt>
      <trkpt lat="49.0650930" lon="1.5475810">
        <ele>16.4</ele>
        <time>2020-07-01T08:05:07Z</time>
      </trkpt>
      <trkpt lat="49.0646800" lon="1.5479520">
        <ele>16.6</ele>
        <time>2020-07-01T08:05:16Z</time>
      </trkpt>
      <trkpt lat="49.0644870" lon="1.5480540">
        <ele>16.6</ele>
        <time>2020-07-01T08:05:20Z</time>
      </trkpt>
      <trkpt lat="49.0643820" lon="1.5481020">
        <ele>16.4</ele>
        <time>2020-07-01T08:05:22Z</time>
      </trkpt>
      <trkpt lat="49.0643340" lon="1.5481210">
        <ele>16.4</ele>
        <time>2020-07-01T08:05:23Z</time>
      </trkpt>
      <trkpt lat="49.0642400" lon="1.5481530">
        <ele>16.4</ele>
        <time>2020-07-01T08:05:25Z</time>
      </trkpt>
      <trkpt lat="49.0641400" lon="1.5481830">
        <ele>16.4</ele>
        <time>2020-07-01T08:05:27Z</time>
      </trkpt>
      <trkpt lat="49.0640430" lon="1.5482100">
        <ele>16.0</ele>
        <time>2020-07-01T08:05:29Z</time>
      </trkpt>
      <trkpt lat="49.0639990" lon="1.5482110">
        <ele>15.0</ele>
        <time>2020-07-01T08:05:30Z</time>
      </trkpt>
      <trkpt lat="49.0638120" lon="1.5482330">
        <ele>13.8</ele>
        <time>2020-07-01T08:05:34Z</time>
      </trkpt>
      <trkpt lat="49.0636690" lon="1.5482960">
        <ele>13.8</ele>
        <time>2020-07-01T08:05:37Z</time>
      </trkpt>
      <trkpt lat="49.0635750" lon="1.5483340">
        <ele>14.0</ele>
        <time>2020-07-01T08:05:39Z</time>
      </trkpt>
      <trkpt lat="49.0633560" lon="1.5485230">
        <ele>14.2</ele>
        <time>2020-07-01T08:05:44Z</time>
      </trkpt>
      <trkpt lat="49.0632760" lon="1.5486180">
        <ele>14.4</ele>
        <time>2020-07-01T08:05:46Z</time>
      </trkpt>
      <trkpt lat="49.0632350" lon="1.5486650">
        <ele>14.4</ele>
        <time>2020-07-01T08:05:47Z</time>
      </trkpt>
      <trkpt lat="49.0630210" lon="1.5488850">
        <ele>15.4</ele>
        <time>2020-07-01T08:05:52Z</time>
      </trkpt>
      <trkpt lat="49.0627140" lon="1.5492230">
        <ele>16.0</ele>
        <time>2020-07-01T08:06:00Z</time>
      </trkpt>
      <trkpt lat="49.0624100" lon="1.5495170">
        <ele>16.2</ele>
        <time>2020-07-01T08:06:09Z</time>
      </trkpt>
      <trkpt lat="49.0622460" lon="1.5495980">
        <ele>16.2</ele>
        <time>2020-07-01T08:06:14Z</time>
      </trkpt>
      <trkpt lat="49.0622160" lon="1.5495800">
        <ele>16.2</ele>
        <time>2020-07-01T08:06:15Z</time>
      </trkpt>
      <trkpt lat="49.0621250" lon="1.5494840">
        <ele>16.2</ele>
        <time>2020-07-01T08:06:18Z</time>
      </trkpt>
      <trkpt lat="49.0620970" lon="1.5494440">
        <ele>16.2</ele>
        <time>2020-07-01T08:06:19Z</time>
      </trkpt>
      <trkpt lat="49.0620370" lon="1.5493590">
        <ele>16.0</ele>
        <time>2020-07-01T08:06:21Z</time>
      </trkpt>
      <trkpt lat="49.0619350" lon="1.5492300">
        <ele>16.2</ele>
        <time>2020-07-01T08:06:25Z</time>
      </trkpt>
      <trkpt lat="49.0618990" lon="1.5492310">
        <ele>16.2</ele>
        <time>2020-07-01T08:06:26Z</time>
      </trkpt>
      <trkpt lat="49.0618580" lon="1.5492450">
        <ele>16.4</ele>
        <time>2020-07-01T08:06:27Z</time>
      </trkpt>
      <trkpt lat="49.0617750" lon="1.5492960">
        <ele>16.6</ele>
        <time>2020-07-01T08:06:29Z</time>
      </trkpt>
      <trkpt lat="49.0616980" lon="1.5493600">
        <ele>16.6</ele>
        <time>2020-07-01T08:06:31Z</time>
      </trkpt>
      <trkpt lat="49.0615510" lon="1.5494580">
        <ele>17.2</ele>
        <time>2020-07-01T08:06:36Z</time>
      </trkpt>
      <trkpt lat="49.0614720" lon="1.5495010">
        <ele>17.4</ele>
        <time>2020-07-01T08:06:40Z</time>
      </trkpt>
      <trkpt lat="49.0614570" lon="1.5495130">
        <ele>17.4</ele>
        <time>2020-07-01T08:06:41Z</time>
      </trkpt>
      <trkpt lat="49.0614450" lon="1.5495140">
        <ele>17.8</ele>
        <time>2020-07-01T08:06:42Z</time>
      </trkpt>
      <trkpt lat="49.0614300" lon="1.5495120">
        <ele>17.6</ele>
        <time>2020-07-01T08:06:43Z</time>
      </trkpt>
      <trkpt lat="49.0614170" lon="1.5495110">
        <ele>17.6</ele>
        <time>2020-07-01T08:06:44Z</time>
      </trkpt>
      <trkpt lat="49.0614050" lon="1.5495000">
        <ele>17.6</ele>
        <time>2020-07-01T08:06:45Z</time>
      </trkpt>
      <trkpt lat="49.0613260" lon="1.5493250">
        <ele>18.0</ele>
        <time>2020-07-01T08:06:52Z</time>
      </trkpt>
      <trkpt lat="49.0612490" lon="1.5491090">
        <ele>18.2</ele>
        <time>2020-07-01T08:06:58Z</time>
      </trkpt>
      <trkpt lat="49.0611090" lon="1.5489060">
        <ele>18.6</ele>
        <time>2020-07-01T08:07:04Z</time>
      </trkpt>
      <trkpt lat="49.0610400" lon="1.5486750">
        <ele>18.6</ele>
        <time>2020-07-01T08:07:09Z</time>
      </trkpt>
      <trkpt lat="49.0609680" lon="1.5483480">
        <ele>18.6</ele>
        <time>2020-07-01T08:07:15Z</time>
      </trkpt>
      <trkpt lat="49.0608940" lon="1.5481400">
        <ele>18.6</ele>
        <time>2020-07-01T08:07:19Z</time>
      </trkpt>
      <trkpt lat="49.0608580" lon="1.5478950">
        <ele>18.6</ele>
        <time>2020-07-01T08:07:23Z</time>
      </trkpt>
      <trkpt lat="49.0608480" lon="1.5478240">
        <ele>18.6</ele>
        <time>2020-07-01T08:07:24Z</time>
      </trkpt>
      <trkpt lat="49.0608370" lon="1.5477550">
        <ele>18.8</ele>
        <time>2020-07-01T08:07:25Z</time>
      </trkpt>
      <trkpt lat="49.0607900" lon="1.5472670">
        <ele>17.8</ele>
        <time>2020-07-01T08:07:31Z</time>
      </trkpt>
      <trkpt lat="49.0607930" lon="1.5471820">
        <ele>17.8</ele>
        <time>2020-07-01T08:07:32Z</time>
      </trkpt>
      <trkpt lat="49.0607710" lon="1.5466860">
        <ele>17.2</ele>
        <time>2020-07-01T08:07:38Z</time>
      </trkpt>
      <trkpt lat="49.0607590" lon="1.5465190">
        <ele>17.2</ele>
        <time>2020-07-01T08:07:40Z</time>
      </trkpt>
      <trkpt lat="49.0607160" lon="1.5459690">
        <ele>16.6</ele>
        <time>2020-07-01T08:07:47Z</time>
      </trkpt>
      <trkpt lat="49.0606800" lon="1.5456640">
        <ele>15.8</ele>
        <time>2020-07-01T08:07:51Z</time>
      </trkpt>
      <trkpt lat="49.0606570" lon="1.5454490">
        <ele>15.4</ele>
        <time>2020-07-01T08:07:54Z</time>
      </trkpt>
      <trkpt lat="49.0606350" lon="1.5451080">
        <ele>14.8</ele>
        <time>2020-07-01T08:07:59Z</time>
      </trkpt>
      <trkpt lat="49.0606370" lon="1.5449670">
        <ele>14.6</ele>
        <time>2020-07-01T08:08:01Z</time>
      </trkpt>
      <trkpt lat="49.0606360" lon="1.5448960">
        <ele>14.6</ele>
        <time>2020-07-01T08:08:02Z</time>
      </trkpt>
      <trkpt lat="49.0605540" lon="1.5444030">
        <ele>14.6</ele>
        <time>2020-07-01T08:08:09Z</time>
      </trkpt>
      <trkpt lat="49.0605300" lon="1.5442660">
        <ele>14.8</ele>
        <time>2020-07-01T08:08:11Z</time>
      </trkpt>
      <trkpt lat="49.0605200" lon="1.5441910">
        <ele>14.8</ele>
        <time>2020-07-01T08:08:12Z</time>
      </trkpt>
      <trkpt lat="49.0605150" lon="1.5441210">
        <ele>15.0</ele>
        <time>2020-07-01T08:08:13Z</time>
      </trkpt>
      <trkpt lat="49.0605040" lon="1.5440510">
        <ele>15.0</ele>
        <time>2020-07-01T08:08:14Z</time>
      </trkpt>
      <trkpt lat="49.0604520" lon="1.5438260">
        <ele>15.2</ele>
        <time>2020-07-01T08:08:17Z</time>
      </trkpt>
      <trkpt lat="49.0604030" lon="1.5436170">
        <ele>15.2</ele>
        <time>2020-07-01T08:08:20Z</time>
      </trkpt>
      <trkpt lat="49.0603260" lon="1.5430840">
        <ele>15.6</ele>
        <time>2020-07-01T08:08:28Z</time>
      </trkpt>
      <trkpt lat="49.0603230" lon="1.5430090">
        <ele>15.6</ele>
        <time>2020-07-01T08:08:29Z</time>
      </trkpt>
      <trkpt lat="49.0602590" lon="1.5424410">
        <ele>15.8</ele>
        <time>2020-07-01T08:08:37Z</time>
      </trkpt>
      <trkpt lat="49.0602370" lon="1.5423010">
        <ele>15.8</ele>
        <time>2020-07-01T08:08:39Z</time>
      </trkpt>
      <trkpt lat="49.0602280" lon="1.5422270">
        <ele>16.0</ele>
        <time>2020-07-01T08:08:40Z</time>
      </trkpt>
      <trkpt lat="49.0601460" lon="1.5417000">
        <ele>16.4</ele>
        <time>2020-07-01T08:08:47Z</time>
      </trkpt>
      <trkpt lat="49.0601370" lon="1.5416200">
        <ele>16.2</ele>
        <time>2020-07-01T08:08:48Z</time>
      </trkpt>
      <trkpt lat="49.0601320" lon="1.5415340">
        <ele>16.4</ele>
        <time>2020-07-01T08:08:49Z</time>
      </trkpt>
      <trkpt lat="49.0601190" lon="1.5413610">
        <ele>16.4</ele>
        <time>2020-07-01T08:08:51Z</time>
      </trkpt>
      <trkpt lat="49.0600810" lon="1.5410230">
        <ele>16.0</ele>
        <time>2020-07-01T08:08:55Z</time>
      </trkpt>
      <trkpt lat="49.0600470" lon="1.5407850">
        <ele>16.0</ele>
        <time>2020-07-01T08:08:58Z</time>
      </trkpt>
      <trkpt lat="49.0599810" lon="1.5402830">
        <ele>15.6</ele>
        <time>2020-07-01T08:09:05Z</time>
      </trkpt>
      <trkpt lat="49.0599660" lon="1.5399910">
        <ele>15.4</ele>
        <time>2020-07-01T08:09:09Z</time>
      </trkpt>
      <trkpt lat="49.0599770" lon="1.5397000">
        <ele>15.6</ele>
        <time>2020-07-01T08:09:13Z</time>
      </trkpt>
      <trkpt lat="49.0600030" lon="1.5391370">
        <ele>15.8</ele>
        <time>2020-07-01T08:09:20Z</time>
      </trkpt>
      <trkpt lat="49.0600280" lon="1.5382560">
        <ele>16.0</ele>
        <time>2020-07-01T08:09:31Z</time>
      </trkpt>
      <trkpt lat="49.0600330" lon="1.5380210">
        <ele>16.0</ele>
        <time>2020-07-01T08:09:34Z</time>
      </trkpt>
      <trkpt lat="49.0600560" lon="1.5374730">
        <ele>16.2</ele>
        <time>2020-07-01T08:09:42Z</time>
      </trkpt>
      <trkpt lat="49.0600750" lon="1.5369110">
        <ele>16.2</ele>
        <time>2020-07-01T08:09:50Z</time>
      </trkpt>
      <trkpt lat="49.0600840" lon="1.5364260">
        <ele>16.4</ele>
        <time>2020-07-01T08:09:57Z</time>
      </trkpt>
      <trkpt lat="49.0600170" lon="1.5361750">
        <ele>16.4</ele>
        <time>2020-07-01T08:10:02Z</time>
      </trkpt>
      <trkpt lat="49.0599800" lon="1.5361590">
        <ele>16.4</ele>
        <time>2020-07-01T08:10:03Z</time>
      </trkpt>
      <trkpt lat="49.0598920" lon="1.5361530">
        <ele>16.2</ele>
        <time>2020-07-01T08:10:05Z</time>
      </trkpt>
      <trkpt lat="49.0594870" lon="1.5361920">
        <ele>16.2</ele>
        <time>2020-07-01T08:10:14Z</time>
      </trkpt>
      <trkpt lat="49.0594430" lon="1.5361920">
        <ele>16.4</ele>
        <time>2020-07-01T08:10:15Z</time>
      </trkpt>
      <trkpt lat="49.0591120" lon="1.5361900">
        <ele>17.0</ele>
        <time>2020-07-01T08:10:23Z</time>
      </trkpt>
      <trkpt lat="49.0590300" lon="1.5362110">
        <ele>17.2</ele>
        <time>2020-07-01T08:10:25Z</time>
      </trkpt>
      <trkpt lat="49.0588710" lon="1.5362770">
        <ele>18.0</ele>
        <time>2020-07-01T08:10:29Z</time>
      </trkpt>
      <trkpt lat="49.0588300" lon="1.5362900">
        <ele>18.2</ele>
        <time>2020-07-01T08:10:30Z</time>
      </trkpt>
      <trkpt lat="49.0587080" lon="1.5363360">
        <ele>18.6</ele>
        <time>2020-07-01T08:10:33Z</time>
      </trkpt>
      <trkpt lat="49.0586340" lon="1.5363860">
        <ele>18.6</ele>
        <time>2020-07-01T08:10:35Z</time>
      </trkpt>
      <trkpt lat="49.0585980" lon="1.5364190">
        <ele>18.6</ele>
        <time>2020-07-01T08:10:36Z</time>
      </trkpt>
      <trkpt lat="49.0583740" lon="1.5366380">
        <ele>18.8</ele>
        <time>2020-07-01T08:10:42Z</time>
      </trkpt>
      <trkpt lat="49.0582240" lon="1.5367730">
        <ele>19.0</ele>
        <time>2020-07-01T08:10:46Z</time>
      </trkpt>
      <trkpt lat="49.0580020" lon="1.5369420">
        <ele>19.2</ele>
        <time>2020-07-01T08:10:52Z</time>
      </trkpt>
      <trkpt lat="49.0579310" lon="1.5369990">
        <ele>19.4</ele>
        <time>2020-07-01T08:10:54Z</time>
      </trkpt>
      <trkpt lat="49.0576960" lon="1.5371440">
        <ele>20.4</ele>
        <time>2020-07-01T08:11:01Z</time>
      </trkpt>
      <trkpt lat="49.0576640" lon="1.5371430">
        <ele>20.4</ele>
        <time>2020-07-01T08:11:02Z</time>
      </trkpt>
      <trkpt lat="49.0574550" lon="1.5371130">
        <ele>21.8</ele>
        <time>2020-07-01T08:11:08Z</time>
      </trkpt>
      <trkpt lat="49.0572520" lon="1.5371460">
        <ele>22.2</ele>
        <time>2020-07-01T08:11:14Z</time>
      </trkpt>
      <trkpt lat="49.0571850" lon="1.5371820">
        <ele>22.6</ele>
        <time>2020-07-01T08:11:16Z</time>
      </trkpt>
      <trkpt lat="49.0568950" lon="1.5373190">
        <ele>23.4</ele>
        <time>2020-07-01T08:11:24Z</time>
      </trkpt>
      <trkpt lat="49.0565700" lon="1.5374990">
        <ele>24.0</ele>
        <time>2020-07-01T08:11:33Z</time>
      </trkpt>
      <trkpt lat="49.0565340" lon="1.5375210">
        <ele>24.0</ele>
        <time>2020-07-01T08:11:34Z</time>
      </trkpt>
      <trkpt lat="49.0563840" lon="1.5376170">
        <ele>24.0</ele>
        <time>2020-07-01T08:11:38Z</time>
      </trkpt>
      <trkpt lat="49.0562230" lon="1.5377180">
        <ele>24.0</ele>
        <time>2020-07-01T08:11:42Z</time>
      </trkpt>
      <trkpt lat="49.0561810" lon="1.5377480">
        <ele>24.0</ele>
        <time>2020-07-01T08:11:43Z</time>
      </trkpt>
      <trkpt lat="49.0557600" lon="1.5380010">
        <ele>24.6</ele>
        <time>2020-07-01T08:11:53Z</time>
      </trkpt>
      <trkpt lat="49.0553820" lon="1.5382040">
        <ele>24.8</ele>
        <time>2020-07-01T08:12:02Z</time>
      </trkpt>
      <trkpt lat="49.0550860" lon="1.5384070">
        <ele>24.8</ele>
        <time>2020-07-01T08:12:09Z</time>
      </trkpt>
      <trkpt lat="49.0547930" lon="1.5386130">
        <ele>25.2</ele>
        <time>2020-07-01T08:12:16Z</time>
      </trkpt>
      <trkpt lat="49.0547490" lon="1.5386400">
        <ele>25.2</ele>
        <time>2020-07-01T08:12:17Z</time>
      </trkpt>
      <trkpt lat="49.0544890" lon="1.5388130">
        <ele>25.4</ele>
        <time>2020-07-01T08:12:23Z</time>
      </trkpt>
      <trkpt lat="49.0543580" lon="1.5389190">
        <ele>25.6</ele>
        <time>2020-07-01T08:12:26Z</time>
      </trkpt>
      <trkpt lat="49.0540840" lon="1.5391130">
        <ele>26.0</ele>
        <time>2020-07-01T08:12:32Z</time>
      </trkpt>
      <trkpt lat="49.0538240" lon="1.5393020">
        <ele>26.2</ele>
        <time>2020-07-01T08:12:38Z</time>
      </trkpt>
      <trkpt lat="49.0533350" lon="1.5396050">
        <ele>26.4</ele>
        <time>2020-07-01T08:12:49Z</time>
      </trkpt>
      <trkpt lat="49.0532050" lon="1.5396820">
        <ele>26.6</ele>
        <time>2020-07-01T08:12:52Z</time>
      </trkpt>
      <trkpt lat="49.0527580" lon="1.5399710">
        <ele>26.6</ele>
        <time>2020-07-01T08:13:02Z</time>
      </trkpt>
      <trkpt lat="49.0522210" lon="1.5403200">
        <ele>27.0</ele>
        <time>2020-07-01T08:13:14Z</time>
      </trkpt>
      <trkpt lat="49.0521760" lon="1.5403490">
        <ele>27.0</ele>
        <time>2020-07-01T08:13:15Z</time>
      </trkpt>
      <trkpt lat="49.0516930" lon="1.5406100">
        <ele>27.2</ele>
        <time>2020-07-01T08:13:26Z</time>
      </trkpt>
      <trkpt lat="49.0512790" lon="1.5407230">
        <ele>27.2</ele>
        <time>2020-07-01T08:13:34Z</time>
      </trkpt>
      <trkpt lat="49.0508080" lon="1.5408460">
        <ele>27.2</ele>
        <time>2020-07-01T08:13:43Z</time>
      </trkpt>
      <trkpt lat="49.0507010" lon="1.5408700">
        <ele>27.0</ele>
        <time>2020-07-01T08:13:45Z</time>
      </trkpt>
      <trkpt lat="49.0501730" lon="1.5410070">
        <ele>25.8</ele>
        <time>2020-07-01T08:13:55Z</time>
      </trkpt>
      <trkpt lat="49.0496500" lon="1.5412410">
        <ele>25.6</ele>
        <time>2020-07-01T08:14:05Z</time>
      </trkpt>
      <trkpt lat="49.0495450" lon="1.5413010">
        <ele>25.6</ele>
        <time>2020-07-01T08:14:07Z</time>
      </trkpt>
      <trkpt lat="49.0491930" lon="1.5415470">
        <ele>25.6</ele>
        <time>2020-07-01T08:14:14Z</time>
      </trkpt>
      <trkpt lat="49.0488890" lon="1.5417550">
        <ele>25.2</ele>
        <time>2020-07-01T08:14:20Z</time>
      </trkpt>
      <trkpt lat="49.0488370" lon="1.5417870">
        <ele>25.2</ele>
        <time>2020-07-01T08:14:21Z</time>
      </trkpt>
      <trkpt lat="49.0486870" lon="1.5418820">
        <ele>25.2</ele>
        <time>2020-07-01T08:14:24Z</time>
      </trkpt>
      <trkpt lat="49.0483650" lon="1.5420970">
        <ele>24.6</ele>
        <time>2020-07-01T08:14:31Z</time>
      </trkpt>
      <trkpt lat="49.0483210" lon="1.5421300">
        <ele>24.4</ele>
        <time>2020-07-01T08:14:32Z</time>
      </trkpt>
      <trkpt lat="49.0478070" lon="1.5425210">
        <ele>24.6</ele>
        <time>2020-07-01T08:14:43Z</time>
      </trkpt>
      <trkpt lat="49.0472890" lon="1.5429130">
        <ele>25.0</ele>
        <time>2020-07-01T08:14:54Z</time>
      </trkpt>
      <trkpt lat="49.0471950" lon="1.5429870">
        <ele>25.0</ele>
        <time>2020-07-01T08:14:56Z</time>
      </trkpt>
      <trkpt lat="49.0471450" lon="1.5430230">
        <ele>24.8</ele>
        <time>2020-07-01T08:14:57Z</time>
      </trkpt>
      <trkpt lat="49.0470080" lon="1.5431240">
        <ele>24.8</ele>
        <time>2020-07-01T08:15:00Z</time>
      </trkpt>
      <trkpt lat="49.0465070" lon="1.5434970">
        <ele>24.4</ele>
        <time>2020-07-01T08:15:11Z</time>
      </trkpt>
      <trkpt lat="49.0460090" lon="1.5439490">
        <ele>25.0</ele>
        <time>2020-07-01T08:15:22Z</time>
      </trkpt>
      <trkpt lat="49.0459630" lon="1.5439930">
        <ele>25.0</ele>
        <time>2020-07-01T08:15:23Z</time>
      </trkpt>
      <trkpt lat="49.0456240" lon="1.5443160">
        <ele>25.2</ele>
        <time>2020-07-01T08:15:30Z</time>
      </trkpt>
      <trkpt lat="49.0454210" lon="1.5444920">
        <ele>25.2</ele>
        <time>2020-07-01T08:15:34Z</time>
      </trkpt>
      <trkpt lat="49.0449580" lon="1.5449120">
        <ele>24.2</ele>
        <time>2020-07-01T08:15:44Z</time>
      </trkpt>
      <trkpt lat="49.0449120" lon="1.5449600">
        <ele>24.2</ele>
        <time>2020-07-01T08:15:45Z</time>
      </trkpt>
      <trkpt lat="49.0447880" lon="1.5451130">
        <ele>24.2</ele>
        <time>2020-07-01T08:15:48Z</time>
      </trkpt>
      <trkpt lat="49.0446830" lon="1.5452740">
        <ele>24.2</ele>
        <time>2020-07-01T08:15:51Z</time>
      </trkpt>
      <trkpt lat="49.0443680" lon="1.5459100">
        <ele>26.0</ele>
        <time>2020-07-01T08:16:01Z</time>
      </trkpt>
      <trkpt lat="49.0440830" lon="1.5464980">
        <ele>26.4</ele>
        <time>2020-07-01T08:16:10Z</time>
      </trkpt>
      <trkpt lat="49.0439560" lon="1.5467500">
        <ele>26.8</ele>
        <time>2020-07-01T08:16:14Z</time>
      </trkpt>
      <trkpt lat="49.0435860" lon="1.5474120">
        <ele>27.0</ele>
        <time>2020-07-01T08:16:25Z</time>
      </trkpt>
      <trkpt lat="49.0432320" lon="1.5480610">
        <ele>27.0</ele>
        <time>2020-07-01T08:16:36Z</time>
      </trkpt>
      <trkpt lat="49.0431970" lon="1.5481180">
        <ele>27.0</ele>
        <time>2020-07-01T08:16:37Z</time>
      </trkpt>
      <trkpt lat="49.0430280" lon="1.5484090">
        <ele>27.2</ele>
        <time>2020-07-01T08:16:42Z</time>
      </trkpt>
      <trkpt lat="49.0428710" lon="1.5486150">
        <ele>27.2</ele>
        <time>2020-07-01T08:16:46Z</time>
      </trkpt>
      <trkpt lat="49.0424270" lon="1.5491980">
        <ele>27.4</ele>
        <time>2020-07-01T08:16:57Z</time>
      </trkpt>
      <trkpt lat="49.0422990" lon="1.5493610">
        <ele>27.6</ele>
        <time>2020-07-01T08:17:00Z</time>
      </trkpt>
      <trkpt lat="49.0420250" lon="1.5498180">
        <ele>28.0</ele>
        <time>2020-07-01T08:17:08Z</time>
      </trkpt>
      <trkpt lat="49.0418650" lon="1.5501300">
        <ele>27.8</ele>
        <time>2020-07-01T08:17:13Z</time>
      </trkpt>
      <trkpt lat="49.0416080" lon="1.5506380">
        <ele>27.6</ele>
        <time>2020-07-01T08:17:21Z</time>
      </trkpt>
      <trkpt lat="49.0415770" lon="1.5507030">
        <ele>27.4</ele>
        <time>2020-07-01T08:17:22Z</time>
      </trkpt>
      <trkpt lat="49.0413150" lon="1.5513280">
        <ele>27.4</ele>
        <time>2020-07-01T08:17:31Z</time>
      </trkpt>
      <trkpt lat="49.0412890" lon="1.5513990">
        <ele>27.4</ele>
        <time>2020-07-01T08:17:32Z</time>
      </trkpt>
      <trkpt lat="49.0411090" lon="1.5518780">
        <ele>27.6</ele>
        <time>2020-07-01T08:17:39Z</time>
      </trkpt>
      <trkpt lat="49.0409560" lon="1.5522130">
        <ele>27.8</ele>
        <time>2020-07-01T08:17:44Z</time>
      </trkpt>
      <trkpt lat="49.0408140" lon="1.5524730">
        <ele>27.4</ele>
        <time>2020-07-01T08:17:48Z</time>
      </trkpt>
      <trkpt lat="49.0407450" lon="1.5526010">
        <ele>27.4</ele>
        <time>2020-07-01T08:17:50Z</time>
      </trkpt>
      <trkpt lat="49.0406130" lon="1.5528660">
        <ele>27.4</ele>
        <time>2020-07-01T08:17:54Z</time>
      </trkpt>
      <trkpt lat="49.0405180" lon="1.5530730">
        <ele>27.6</ele>
        <time>2020-07-01T08:17:57Z</time>
      </trkpt>
      <trkpt lat="49.0403240" lon="1.5535930">
        <ele>26.8</ele>
        <time>2020-07-01T08:18:04Z</time>
      </trkpt>
      <trkpt lat="49.0401570" lon="1.5542910">
        <ele>25.8</ele>
        <time>2020-07-01T08:18:13Z</time>
      </trkpt>
      <trkpt lat="49.0401200" lon="1.5545350">
        <ele>25.6</ele>
        <time>2020-07-01T08:18:16Z</time>
      </trkpt>
      <trkpt lat="49.0400960" lon="1.5546890">
        <ele>25.6</ele>
        <time>2020-07-01T08:18:18Z</time>
      </trkpt>
      <trkpt lat="49.0400550" lon="1.5550630">
        <ele>25.6</ele>
        <time>2020-07-01T08:18:23Z</time>
      </trkpt>
      <trkpt lat="49.0400360" lon="1.5552780">
        <ele>26.2</ele>
        <time>2020-07-01T08:18:26Z</time>
      </trkpt>
      <trkpt lat="49.0400120" lon="1.5555010">
        <ele>27.2</ele>
        <time>2020-07-01T08:18:29Z</time>
      </trkpt>
      <trkpt lat="49.0399460" lon="1.5558810">
        <ele>28.0</ele>
        <time>2020-07-01T08:18:34Z</time>
      </trkpt>
      <trkpt lat="49.0398970" lon="1.5561830">
        <ele>27.8</ele>
        <time>2020-07-01T08:18:38Z</time>
      </trkpt>
      <trkpt lat="49.0398050" lon="1.5567370">
        <ele>28.0</ele>
        <time>2020-07-01T08:18:45Z</time>
      </trkpt>
      <trkpt lat="49.0396680" lon="1.5572960">
        <ele>28.0</ele>
        <time>2020-07-01T08:18:52Z</time>
      </trkpt>
      <trkpt lat="49.0396330" lon="1.5574590">
        <ele>27.8</ele>
        <time>2020-07-01T08:18:54Z</time>
      </trkpt>
      <trkpt lat="49.0396170" lon="1.5575400">
        <ele>27.8</ele>
        <time>2020-07-01T08:18:55Z</time>
      </trkpt>
      <trkpt lat="49.0395590" lon="1.5577850">
        <ele>28.0</ele>
        <time>2020-07-01T08:18:58Z</time>
      </trkpt>
      <trkpt lat="49.0394300" lon="1.5583690">
        <ele>27.8</ele>
        <time>2020-07-01T08:19:05Z</time>
      </trkpt>
      <trkpt lat="49.0393520" lon="1.5590150">
        <ele>27.6</ele>
        <time>2020-07-01T08:19:13Z</time>
      </trkpt>
      <trkpt lat="49.0393110" lon="1.5595060">
        <ele>27.8</ele>
        <time>2020-07-01T08:19:20Z</time>
      </trkpt>
      <trkpt lat="49.0393000" lon="1.5595730">
        <ele>27.8</ele>
        <time>2020-07-01T08:19:21Z</time>
      </trkpt>
      <trkpt lat="49.0392910" lon="1.5596400">
        <ele>27.8</ele>
        <time>2020-07-01T08:19:22Z</time>
      </trkpt>
      <trkpt lat="49.0392930" lon="1.5599360">
        <ele>27.8</ele>
        <time>2020-07-01T08:19:26Z</time>
      </trkpt>
      <trkpt lat="49.0392720" lon="1.5604710">
        <ele>27.6</ele>
        <time>2020-07-01T08:19:33Z</time>
      </trkpt>
      <trkpt lat="49.0392550" lon="1.5606630">
        <ele>27.6</ele>
        <time>2020-07-01T08:19:36Z</time>
      </trkpt>
      <trkpt lat="49.0392620" lon="1.5608600">
        <ele>27.4</ele>
        <time>2020-07-01T08:19:39Z</time>
      </trkpt>
      <trkpt lat="49.0392750" lon="1.5610650">
        <ele>27.6</ele>
        <time>2020-07-01T08:19:42Z</time>
      </trkpt>
      <trkpt lat="49.0393230" lon="1.5614540">
        <ele>27.2</ele>
        <time>2020-07-01T08:19:47Z</time>
      </trkpt>
      <trkpt lat="49.0393870" lon="1.5618080">
        <ele>27.0</ele>
        <time>2020-07-01T08:19:52Z</time>
      </trkpt>
      <trkpt lat="49.0394330" lon="1.5619280">
        <ele>26.8</ele>
        <time>2020-07-01T08:19:54Z</time>
      </trkpt>
      <trkpt lat="49.0395110" lon="1.5621210">
        <ele>26.4</ele>
        <time>2020-07-01T08:19:57Z</time>
      </trkpt>
      <trkpt lat="49.0396050" lon="1.5623210">
        <ele>25.6</ele>
        <time>2020-07-01T08:20:00Z</time>
      </trkpt>
      <trkpt lat="49.0396670" lon="1.5624440">
        <ele>25.6</ele>
        <time>2020-07-01T08:20:02Z</time>
      </trkpt>
      <trkpt lat="49.0397340" lon="1.5625380">
        <ele>25.4</ele>
        <time>2020-07-01T08:20:04Z</time>
      </trkpt>
      <trkpt lat="49.0398480" lon="1.5626720">
        <ele>24.4</ele>
        <time>2020-07-01T08:20:07Z</time>
      </trkpt>
      <trkpt lat="49.0399150" lon="1.5627820">
        <ele>24.0</ele>
        <time>2020-07-01T08:20:09Z</time>
      </trkpt>
      <trkpt lat="49.0399370" lon="1.5628480">
        <ele>23.8</ele>
        <time>2020-07-01T08:20:10Z</time>
      </trkpt>
      <trkpt lat="49.0399520" lon="1.5629180">
        <ele>23.4</ele>
        <time>2020-07-01T08:20:11Z</time>
      </trkpt>
      <trkpt lat="49.0399870" lon="1.5631970">
        <ele>23.0</ele>
        <time>2020-07-01T08:20:15Z</time>
      </trkpt>
      <trkpt lat="49.0399770" lon="1.5633190">
        <ele>23.0</ele>
        <time>2020-07-01T08:20:17Z</time>
      </trkpt>
      <trkpt lat="49.0399450" lon="1.5634770">
        <ele>22.6</ele>
        <time>2020-07-01T08:20:20Z</time>
      </trkpt>
      <trkpt lat="49.0399100" lon="1.5636230">
        <ele>22.6</ele>
        <time>2020-07-01T08:20:23Z</time>
      </trkpt>
      <trkpt lat="49.0399190" lon="1.5636840">
        <ele>22.6</ele>
        <time>2020-07-01T08:20:24Z</time>
      </trkpt>
      <trkpt lat="49.0399220" lon="1.5637480">
        <ele>22.6</ele>
        <time>2020-07-01T08:20:25Z</time>
      </trkpt>
      <trkpt lat="49.0399110" lon="1.5640480">
        <ele>22.6</ele>
        <time>2020-07-01T08:20:29Z</time>
      </trkpt>
      <trkpt lat="49.0398890" lon="1.5642350">
        <ele>22.6</ele>
        <time>2020-07-01T08:20:31Z</time>
      </trkpt>
      <trkpt lat="49.0398270" lon="1.5645420">
        <ele>22.6</ele>
        <time>2020-07-01T08:20:34Z</time>
      </trkpt>
      <trkpt lat="49.0398100" lon="1.5646560">
        <ele>22.6</ele>
        <time>2020-07-01T08:20:35Z</time>
      </trkpt>
      <trkpt lat="49.0398020" lon="1.5647650">
        <ele>22.8</ele>
        <time>2020-07-01T08:20:36Z</time>
      </trkpt>
      <trkpt lat="49.0398230" lon="1.5649800">
        <ele>22.6</ele>
        <time>2020-07-01T08:20:38Z</time>
      </trkpt>
      <trkpt lat="49.0398750" lon="1.5652880">
        <ele>21.6</ele>
        <time>2020-07-01T08:20:41Z</time>
      </trkpt>
      <trkpt lat="49.0399760" lon="1.5659650">
        <ele>19.2</ele>
        <time>2020-07-01T08:20:48Z</time>
      </trkpt>
      <trkpt lat="49.0399840" lon="1.5661620">
        <ele>18.8</ele>
        <time>2020-07-01T08:20:50Z</time>
      </trkpt>
      <trkpt lat="49.0400270" lon="1.5666650">
        <ele>17.8</ele>
        <time>2020-07-01T08:20:55Z</time>
      </trkpt>
      <trkpt lat="49.0400870" lon="1.5670710">
        <ele>17.2</ele>
        <time>2020-07-01T08:20:59Z</time>
      </trkpt>
      <trkpt lat="49.0401460" lon="1.5677540">
        <ele>16.6</ele>
        <time>2020-07-01T08:21:06Z</time>
      </trkpt>
      <trkpt lat="49.0401710" lon="1.5681970">
        <ele>16.4</ele>
        <time>2020-07-01T08:21:11Z</time>
      </trkpt>
      <trkpt lat="49.0401290" lon="1.5683210">
        <ele>16.4</ele>
        <time>2020-07-01T08:21:13Z</time>
      </trkpt>
      <trkpt lat="49.0400770" lon="1.5685320">
        <ele>16.2</ele>
        <time>2020-07-01T08:21:17Z</time>
      </trkpt>
      <trkpt lat="49.0400910" lon="1.5685910">
        <ele>16.2</ele>
        <time>2020-07-01T08:21:18Z</time>
      </trkpt>
      <trkpt lat="49.0402200" lon="1.5689370">
        <ele>16.0</ele>
        <time>2020-07-01T08:21:24Z</time>
      </trkpt>
      <trkpt lat="49.0402550" lon="1.5690410">
        <ele>16.2</ele>
        <time>2020-07-01T08:21:26Z</time>
      </trkpt>
      <trkpt lat="49.0404190" lon="1.5694630">
        <ele>16.8</ele>
        <time>2020-07-01T08:21:34Z</time>
      </trkpt>
      <trkpt lat="49.0404330" lon="1.5695100">
        <ele>17.0</ele>
        <time>2020-07-01T08:21:35Z</time>
      </trkpt>
      <trkpt lat="49.0404750" lon="1.5698160">
        <ele>18.0</ele>
        <time>2020-07-01T08:21:41Z</time>
      </trkpt>
      <trkpt lat="49.0404100" lon="1.5698950">
        <ele>18.2</ele>
        <time>2020-07-01T08:21:43Z</time>
      </trkpt>
      <trkpt lat="49.0403320" lon="1.5699590">
        <ele>18.2</ele>
        <time>2020-07-01T08:21:45Z</time>
      </trkpt>
      <trkpt lat="49.0401670" lon="1.5700760">
        <ele>18.6</ele>
        <time>2020-07-01T08:21:49Z</time>
      </trkpt>
      <trkpt lat="49.0400360" lon="1.5701680">
        <ele>18.8</ele>
        <time>2020-07-01T08:21:52Z</time>
      </trkpt>
      <trkpt lat="49.0399910" lon="1.5702000">
        <ele>18.6</ele>
        <time>2020-07-01T08:21:53Z</time>
      </trkpt>
      <trkpt lat="49.0399440" lon="1.5702360">
        <ele>18.6</ele>
        <time>2020-07-01T08:21:54Z</time>
      </trkpt>
      <trkpt lat="49.0397400" lon="1.5703880">
        <ele>18.6</ele>
        <time>2020-07-01T08:21:58Z</time>
      </trkpt>
      <trkpt lat="49.0396480" lon="1.5704530">
        <ele>18.4</ele>
        <time>2020-07-01T08:22:00Z</time>
      </trkpt>
      <trkpt lat="49.0395580" lon="1.5705080">
        <ele>18.4</ele>
        <time>2020-07-01T08:22:02Z</time>
      </trkpt>
      <trkpt lat="49.0394150" lon="1.5706100">
        <ele>16.8</ele>
        <time>2020-07-01T08:22:05Z</time>
      </trkpt>
      <trkpt lat="49.0393680" lon="1.5706460">
        <ele>16.6</ele>
        <time>2020-07-01T08:22:06Z</time>
      </trkpt>
      <trkpt lat="49.0391750" lon="1.5707890">
        <ele>16.4</ele>
        <time>2020-07-01T08:22:10Z</time>
      </trkpt>
      <trkpt lat="49.0390210" lon="1.5709030">
        <ele>16.4</ele>
        <time>2020-07-01T08:22:13Z</time>
      </trkpt>
      <trkpt lat="49.0389640" lon="1.5709440">
        <ele>16.6</ele>
        <time>2020-07-01T08:22:14Z</time>
      </trkpt>
      <trkpt lat="49.0387570" lon="1.5711080">
        <ele>16.8</ele>
        <time>2020-07-01T08:22:18Z</time>
      </trkpt>
      <trkpt lat="49.0385700" lon="1.5712490">
        <ele>17.2</ele>
        <time>2020-07-01T08:22:22Z</time>
      </trkpt>
      <trkpt lat="49.0384550" lon="1.5713350">
        <ele>17.6</ele>
        <time>2020-07-01T08:22:25Z</time>
      </trkpt>
      <trkpt lat="49.0384200" lon="1.5713600">
        <ele>17.4</ele>
        <time>2020-07-01T08:22:26Z</time>
      </trkpt>
      <trkpt lat="49.0381010" lon="1.5716050">
        <ele>19.8</ele>
        <time>2020-07-01T08:22:36Z</time>
      </trkpt>
      <trkpt lat="49.0379010" lon="1.5717600">
        <ele>21.0</ele>
        <time>2020-07-01T08:22:43Z</time>
      </trkpt>
      <trkpt lat="49.0378300" lon="1.5718040">
        <ele>21.4</ele>
        <time>2020-07-01T08:22:46Z</time>
      </trkpt>
      <trkpt lat="49.0377500" lon="1.5718550">
        <ele>22.0</ele>
        <time>2020-07-01T08:22:49Z</time>
      </trkpt>
      <trkpt lat="49.0375730" lon="1.5719960">
        <ele>22.6</ele>
        <time>2020-07-01T08:22:54Z</time>
      </trkpt>
      <trkpt lat="49.0375390" lon="1.5720300">
        <ele>23.0</ele>
        <time>2020-07-01T08:22:55Z</time>
      </trkpt>
      <trkpt lat="49.0372500" lon="1.5722930">
        <ele>24.4</ele>
        <time>2020-07-01T08:23:05Z</time>
      </trkpt>
      <trkpt lat="49.0372170" lon="1.5723190">
        <ele>24.4</ele>
        <time>2020-07-01T08:23:06Z</time>
      </trkpt>
      <trkpt lat="49.0371110" lon="1.5724000">
        <ele>25.0</ele>
        <time>2020-07-01T08:23:09Z</time>
      </trkpt>
      <trkpt lat="49.0370740" lon="1.5724290">
        <ele>25.0</ele>
        <time>2020-07-01T08:23:10Z</time>
      </trkpt>
      <trkpt lat="49.0369330" lon="1.5725360">
        <ele>25.6</ele>
        <time>2020-07-01T08:23:14Z</time>
      </trkpt>
      <trkpt lat="49.0368290" lon="1.5726100">
        <ele>25.6</ele>
        <time>2020-07-01T08:23:17Z</time>
      </trkpt>
      <trkpt lat="49.0365700" lon="1.5728250">
        <ele>25.6</ele>
        <time>2020-07-01T08:23:24Z</time>
      </trkpt>
      <trkpt lat="49.0364210" lon="1.5729400">
        <ele>25.4</ele>
        <time>2020-07-01T08:23:28Z</time>
      </trkpt>
      <trkpt lat="49.0363840" lon="1.5729700">
        <ele>25.4</ele>
        <time>2020-07-01T08:23:29Z</time>
      </trkpt>
      <trkpt lat="49.0362210" lon="1.5730870">
        <ele>24.8</ele>
        <time>2020-07-01T08:23:33Z</time>
      </trkpt>
      <trkpt lat="49.0360810" lon="1.5731720">
        <ele>24.4</ele>
        <time>2020-07-01T08:23:36Z</time>
      </trkpt>
      <trkpt lat="49.0357080" lon="1.5734220">
        <ele>23.4</ele>
        <time>2020-07-01T08:23:44Z</time>
      </trkpt>
      <trkpt lat="49.0355490" lon="1.5735560">
        <ele>23.6</ele>
        <time>2020-07-01T08:23:49Z</time>
      </trkpt>
      <trkpt lat="49.0354930" lon="1.5736260">
        <ele>23.6</ele>
        <time>2020-07-01T08:23:53Z</time>
      </trkpt>
      <trkpt lat="49.0354880" lon="1.5736570">
        <ele>23.6</ele>
        <time>2020-07-01T08:23:54Z</time>
      </trkpt>
      <trkpt lat="49.0355160" lon="1.5738960">
        <ele>24.0</ele>
        <time>2020-07-01T08:23:59Z</time>
      </trkpt>
      <trkpt lat="49.0355850" lon="1.5740800">
        <ele>24.0</ele>
        <time>2020-07-01T08:24:02Z</time>
      </trkpt>
      <trkpt lat="49.0356700" lon="1.5742630">
        <ele>23.8</ele>
        <time>2020-07-01T08:24:05Z</time>
      </trkpt>
      <trkpt lat="49.0357500" lon="1.5744980">
        <ele>23.2</ele>
        <time>2020-07-01T08:24:10Z</time>
      </trkpt>
      <trkpt lat="49.0357450" lon="1.5745310">
        <ele>22.8</ele>
        <time>2020-07-01T08:24:11Z</time>
      </trkpt>
      <trkpt lat="49.0357050" lon="1.5745460">
        <ele>22.0</ele>
        <time>2020-07-01T08:24:13Z</time>
      </trkpt>
      <trkpt lat="49.0356790" lon="1.5745240">
        <ele>21.6</ele>
        <time>2020-07-01T08:24:14Z</time>
      </trkpt>
      <trkpt lat="49.0356130" lon="1.5743970">
        <ele>21.2</ele>
        <time>2020-07-01T08:24:17Z</time>
      </trkpt>
      <trkpt lat="49.0355690" lon="1.5742860">
        <ele>20.8</ele>
        <time>2020-07-01T08:24:19Z</time>
      </trkpt>
      <trkpt lat="49.0354550" lon="1.5739850">
        <ele>20.0</ele>
        <time>2020-07-01T08:24:24Z</time>
      </trkpt>
      <trkpt lat="49.0353120" lon="1.5737530">
        <ele>19.4</ele>
        <time>2020-07-01T08:24:30Z</time>
      </trkpt>
      <trkpt lat="49.0351690" lon="1.5738210">
        <ele>19.0</ele>
        <time>2020-07-01T08:24:34Z</time>
      </trkpt>
      <trkpt lat="49.0349590" lon="1.5740010">
        <ele>19.0</ele>
        <time>2020-07-01T08:24:40Z</time>
      </trkpt>
      <trkpt lat="49.0348540" lon="1.5740750">
        <ele>19.2</ele>
        <time>2020-07-01T08:24:43Z</time>
      </trkpt>
      <trkpt lat="49.0347140" lon="1.5741780">
        <ele>19.4</ele>
        <time>2020-07-01T08:24:48Z</time>
      </trkpt>
      <trkpt lat="49.0346950" lon="1.5741920">
        <ele>19.4</ele>
        <time>2020-07-01T08:24:49Z</time>
      </trkpt>
      <trkpt lat="49.0345370" lon="1.5743400">
        <ele>20.2</ele>
        <time>2020-07-01T08:24:56Z</time>
      </trkpt>
      <trkpt lat="49.0344560" lon="1.5744200">
        <ele>21.2</ele>
        <time>2020-07-01T08:24:59Z</time>
      </trkpt>
      <trkpt lat="49.0343360" lon="1.5744910">
        <ele>21.6</ele>
        <time>2020-07-01T08:25:04Z</time>
      </trkpt>
      <trkpt lat="49.0341360" lon="1.5746120">
        <ele>23.8</ele>
        <time>2020-07-01T08:25:13Z</time>
      </trkpt>
      <trkpt lat="49.0340570" lon="1.5747050">
        <ele>24.6</ele>
        <time>2020-07-01T08:25:18Z</time>
      </trkpt>
      <trkpt lat="49.0340010" lon="1.5747470">
        <ele>24.6</ele>
        <time>2020-07-01T08:25:21Z</time>
      </trkpt>
      <trkpt lat="49.0339620" lon="1.5747720">
        <ele>25.0</ele>
        <time>2020-07-01T08:25:23Z</time>
      </trkpt>
      <trkpt lat="49.0338870" lon="1.5748310">
        <ele>25.2</ele>
        <time>2020-07-01T08:25:27Z</time>
      </trkpt>
      <trkpt lat="49.0338170" lon="1.5748670">
        <ele>25.8</ele>
        <time>2020-07-01T08:25:31Z</time>
      </trkpt>
      <trkpt lat="49.0337090" lon="1.5749310">
        <ele>28.0</ele>
        <time>2020-07-01T08:25:39Z</time>
      </trkpt>
      <trkpt lat="49.0336970" lon="1.5749390">
        <ele>28.2</ele>
        <time>2020-07-01T08:25:40Z</time>
      </trkpt>
      <trkpt lat="49.0336430" lon="1.5749740">
        <ele>29.2</ele>
        <time>2020-07-01T08:25:44Z</time>
      </trkpt>
      <trkpt lat="49.0335770" lon="1.5750400">
        <ele>30.0</ele>
        <time>2020-07-01T08:25:49Z</time>
      </trkpt>
      <trkpt lat="49.0335370" lon="1.5750780">
        <ele>30.4</ele>
        <time>2020-07-01T08:25:52Z</time>
      </trkpt>
      <trkpt lat="49.0334510" lon="1.5751370">
        <ele>31.4</ele>
        <time>2020-07-01T08:25:58Z</time>
      </trkpt>
      <trkpt lat="49.0333740" lon="1.5751620">
        <ele>32.2</ele>
        <time>2020-07-01T08:26:03Z</time>
      </trkpt>
      <trkpt lat="49.0333430" lon="1.5751800">
        <ele>32.8</ele>
        <time>2020-07-01T08:26:05Z</time>
      </trkpt>
      <trkpt lat="49.0332760" lon="1.5752210">
        <ele>33.4</ele>
        <time>2020-07-01T08:26:09Z</time>
      </trkpt>
      <trkpt lat="49.0332040" lon="1.5752660">
        <ele>34.4</ele>
        <time>2020-07-01T08:26:14Z</time>
      </trkpt>
      <trkpt lat="49.0331520" lon="1.5753120">
        <ele>35.4</ele>
        <time>2020-07-01T08:26:18Z</time>
      </trkpt>
      <trkpt lat="49.0331380" lon="1.5753240">
        <ele>35.6</ele>
        <time>2020-07-01T08:26:19Z</time>
      </trkpt>
      <trkpt lat="49.0330870" lon="1.5753780">
        <ele>36.2</ele>
        <time>2020-07-01T08:26:23Z</time>
      </trkpt>
      <trkpt lat="49.0330630" lon="1.5754000">
        <ele>36.6</ele>
        <time>2020-07-01T08:26:25Z</time>
      </trkpt>
      <trkpt lat="49.0330540" lon="1.5754140">
        <ele>36.8</ele>
        <time>2020-07-01T08:26:26Z</time>
      </trkpt>
      <trkpt lat="49.0330400" lon="1.5754280">
        <ele>37.0</ele>
        <time>2020-07-01T08:26:27Z</time>
      </trkpt>
      <trkpt lat="49.0330260" lon="1.5754370">
        <ele>37.0</ele>
        <time>2020-07-01T08:26:28Z</time>
      </trkpt>
      <trkpt lat="49.0330120" lon="1.5754490">
        <ele>37.4</ele>
        <time>2020-07-01T08:26:29Z</time>
      </trkpt>
      <trkpt lat="49.0329960" lon="1.5754670">
        <ele>37.6</ele>
        <time>2020-07-01T08:26:30Z</time>
      </trkpt>
      <trkpt lat="49.0329450" lon="1.5755090">
        <ele>38.0</ele>
        <time>2020-07-01T08:26:34Z</time>
      </trkpt>
      <trkpt lat="49.0328370" lon="1.5755960">
        <ele>39.8</ele>
        <time>2020-07-01T08:26:42Z</time>
      </trkpt>
      <trkpt lat="49.0327950" lon="1.5756270">
        <ele>40.4</ele>
        <time>2020-07-01T08:26:45Z</time>
      </trkpt>
      <trkpt lat="49.0327300" lon="1.5756760">
        <ele>41.2</ele>
        <time>2020-07-01T08:26:50Z</time>
      </trkpt>
      <trkpt lat="49.0326910" lon="1.5757100">
        <ele>41.6</ele>
        <time>2020-07-01T08:26:53Z</time>
      </trkpt>
      <trkpt lat="49.0326620" lon="1.5757320">
        <ele>41.8</ele>
        <time>2020-07-01T08:26:55Z</time>
      </trkpt>
      <trkpt lat="49.0325980" lon="1.5757690">
        <ele>42.8</ele>
        <time>2020-07-01T08:27:00Z</time>
      </trkpt>
      <trkpt lat="49.0325150" lon="1.5758480">
        <ele>44.6</ele>
        <time>2020-07-01T08:27:06Z</time>
      </trkpt>
      <trkpt lat="49.0325010" lon="1.5758560">
        <ele>44.6</ele>
        <time>2020-07-01T08:27:07Z</time>
      </trkpt>
      <trkpt lat="49.0324150" lon="1.5759210">
        <ele>46.0</ele>
        <time>2020-07-01T08:27:14Z</time>
      </trkpt>
      <trkpt lat="49.0323520" lon="1.5759700">
        <ele>46.6</ele>
        <time>2020-07-01T08:27:19Z</time>
      </trkpt>
      <trkpt lat="49.0323150" lon="1.5759900">
        <ele>47.0</ele>
        <time>2020-07-01T08:27:22Z</time>
      </trkpt>
      <trkpt lat="49.0322640" lon="1.5759880">
        <ele>47.6</ele>
        <time>2020-07-01T08:27:26Z</time>
      </trkpt>
      <trkpt lat="49.0322340" lon="1.5760090">
        <ele>48.0</ele>
        <time>2020-07-01T08:27:29Z</time>
      </trkpt>
      <trkpt lat="49.0321700" lon="1.5760410">
        <ele>48.8</ele>
        <time>2020-07-01T08:27:35Z</time>
      </trkpt>
      <trkpt lat="49.0321590" lon="1.5760360">
        <ele>49.0</ele>
        <time>2020-07-01T08:27:36Z</time>
      </trkpt>
      <trkpt lat="49.0320900" lon="1.5759390">
        <ele>50.4</ele>
        <time>2020-07-01T08:27:44Z</time>
      </trkpt>
      <trkpt lat="49.0320820" lon="1.5759210">
        <ele>50.8</ele>
        <time>2020-07-01T08:27:45Z</time>
      </trkpt>
      <trkpt lat="49.0320090" lon="1.5757670">
        <ele>51.4</ele>
        <time>2020-07-01T08:27:53Z</time>
      </trkpt>
      <trkpt lat="49.0319960" lon="1.5757260">
        <ele>51.8</ele>
        <time>2020-07-01T08:27:55Z</time>
      </trkpt>
      <trkpt lat="49.0319280" lon="1.5755620">
        <ele>52.8</ele>
        <time>2020-07-01T08:28:02Z</time>
      </trkpt>
      <trkpt lat="49.0318890" lon="1.5754410">
        <ele>53.4</ele>
        <time>2020-07-01T08:28:07Z</time>
      </trkpt>
      <trkpt lat="49.0318650" lon="1.5753610">
        <ele>53.8</ele>
        <time>2020-07-01T08:28:10Z</time>
      </trkpt>
      <trkpt lat="49.0317900" lon="1.5751030">
        <ele>56.0</ele>
        <time>2020-07-01T08:28:20Z</time>
      </trkpt>
      <trkpt lat="49.0317830" lon="1.5750800">
        <ele>56.0</ele>
        <time>2020-07-01T08:28:21Z</time>
      </trkpt>
      <trkpt lat="49.0317270" lon="1.5748630">
        <ele>57.0</ele>
        <time>2020-07-01T08:28:30Z</time>
      </trkpt>
      <trkpt lat="49.0316920" lon="1.5747740">
        <ele>57.4</ele>
        <time>2020-07-01T08:28:34Z</time>
      </trkpt>
      <trkpt lat="49.0316720" lon="1.5747310">
        <ele>57.8</ele>
        <time>2020-07-01T08:28:36Z</time>
      </trkpt>
      <trkpt lat="49.0315700" lon="1.5745430">
        <ele>59.2</ele>
        <time>2020-07-01T08:28:45Z</time>
      </trkpt>
      <trkpt lat="49.0315520" lon="1.5745000">
        <ele>59.4</ele>
        <time>2020-07-01T08:28:47Z</time>
      </trkpt>
      <trkpt lat="49.0315030" lon="1.5743360">
        <ele>60.4</ele>
        <time>2020-07-01T08:28:54Z</time>
      </trkpt>
      <trkpt lat="49.0314670" lon="1.5742270">
        <ele>61.0</ele>
        <time>2020-07-01T08:28:59Z</time>
      </trkpt>
      <trkpt lat="49.0314590" lon="1.5742040">
        <ele>61.0</ele>
        <time>2020-07-01T08:29:00Z</time>
      </trkpt>
      <trkpt lat="49.0314520" lon="1.5741830">
        <ele>61.2</ele>
        <time>2020-07-01T08:29:01Z</time>
      </trkpt>
      <trkpt lat="49.0314430" lon="1.5741620">
        <ele>61.4</ele>
        <time>2020-07-01T08:29:02Z</time>
      </trkpt>
      <trkpt lat="49.0313860" lon="1.5739900">
        <ele>62.4</ele>
        <time>2020-07-01T08:29:09Z</time>
      </trkpt>
      <trkpt lat="49.0314130" lon="1.5738680">
        <ele>63.0</ele>
        <time>2020-07-01T08:29:14Z</time>
      </trkpt>
      <trkpt lat="49.0314170" lon="1.5738460">
        <ele>63.4</ele>
        <time>2020-07-01T08:29:15Z</time>
      </trkpt>
      <trkpt lat="49.0314200" lon="1.5738240">
        <ele>63.4</ele>
        <time>2020-07-01T08:29:16Z</time>
      </trkpt>
      <trkpt lat="49.0314270" lon="1.5738010">
        <ele>63.6</ele>
        <time>2020-07-01T08:29:17Z</time>
      </trkpt>
      <trkpt lat="49.0314360" lon="1.5737780">
        <ele>63.6</ele>
        <time>2020-07-01T08:29:18Z</time>
      </trkpt>
      <trkpt lat="49.0314500" lon="1.5737250">
        <ele>63.6</ele>
        <time>2020-07-01T08:29:20Z</time>
      </trkpt>
      <trkpt lat="49.0314560" lon="1.5736960">
        <ele>63.8</ele>
        <time>2020-07-01T08:29:21Z</time>
      </trkpt>
      <trkpt lat="49.0314620" lon="1.5736410">
        <ele>63.8</ele>
        <time>2020-07-01T08:29:23Z</time>
      </trkpt>
      <trkpt lat="49.0314630" lon="1.5736150">
        <ele>64.0</ele>
        <time>2020-07-01T08:29:24Z</time>
      </trkpt>
      <trkpt lat="49.0314640" lon="1.5735920">
        <ele>64.0</ele>
        <time>2020-07-01T08:29:25Z</time>
      </trkpt>
      <trkpt lat="49.0314660" lon="1.5735690">
        <ele>64.2</ele>
        <time>2020-07-01T08:29:26Z</time>
      </trkpt>
      <trkpt lat="49.0314660" lon="1.5735390">
        <ele>64.2</ele>
        <time>2020-07-01T08:29:27Z</time>
      </trkpt>
      <trkpt lat="49.0314650" lon="1.5735130">
        <ele>64.4</ele>
        <time>2020-07-01T08:29:28Z</time>
      </trkpt>
      <trkpt lat="49.0314590" lon="1.5734900">
        <ele>64.6</ele>
        <time>2020-07-01T08:29:29Z</time>
      </trkpt>
      <trkpt lat="49.0314540" lon="1.5734630">
        <ele>65.0</ele>
        <time>2020-07-01T08:29:30Z</time>
      </trkpt>
      <trkpt lat="49.0314510" lon="1.5734370">
        <ele>65.4</ele>
        <time>2020-07-01T08:29:31Z</time>
      </trkpt>
      <trkpt lat="49.0314260" lon="1.5733160">
        <ele>66.4</ele>
        <time>2020-07-01T08:29:36Z</time>
      </trkpt>
      <trkpt lat="49.0314060" lon="1.5731320">
        <ele>67.4</ele>
        <time>2020-07-01T08:29:43Z</time>
      </trkpt>
      <trkpt lat="49.0314100" lon="1.5729560">
        <ele>67.8</ele>
        <time>2020-07-01T08:29:49Z</time>
      </trkpt>
      <trkpt lat="49.0314160" lon="1.5727700">
        <ele>68.2</ele>
        <time>2020-07-01T08:29:56Z</time>
      </trkpt>
      <trkpt lat="49.0314150" lon="1.5727220">
        <ele>68.6</ele>
        <time>2020-07-01T08:29:58Z</time>
      </trkpt>
      <trkpt lat="49.0314130" lon="1.5725680">
        <ele>69.6</ele>
        <time>2020-07-01T08:30:04Z</time>
      </trkpt>
      <trkpt lat="49.0314080" lon="1.5724880">
        <ele>69.8</ele>
        <time>2020-07-01T08:30:07Z</time>
      </trkpt>
      <trkpt lat="49.0314060" lon="1.5722850">
        <ele>70.8</ele>
        <time>2020-07-01T08:30:14Z</time>
      </trkpt>
      <trkpt lat="49.0314070" lon="1.5721900">
        <ele>71.2</ele>
        <time>2020-07-01T08:30:17Z</time>
      </trkpt>
      <trkpt lat="49.0314100" lon="1.5720530">
        <ele>71.4</ele>
        <time>2020-07-01T08:30:21Z</time>
      </trkpt>
      <trkpt lat="49.0314260" lon="1.5717340">
        <ele>72.4</ele>
        <time>2020-07-01T08:30:30Z</time>
      </trkpt>
      <trkpt lat="49.0314500" lon="1.5714590">
        <ele>73.0</ele>
        <time>2020-07-01T08:30:37Z</time>
      </trkpt>
      <trkpt lat="49.0314680" lon="1.5711440">
        <ele>73.6</ele>
        <time>2020-07-01T08:30:44Z</time>
      </trkpt>
      <trkpt lat="49.0314870" lon="1.5708390">
        <ele>74.0</ele>
        <time>2020-07-01T08:30:50Z</time>
      </trkpt>
      <trkpt lat="49.0314850" lon="1.5707920">
        <ele>74.2</ele>
        <time>2020-07-01T08:30:51Z</time>
      </trkpt>
      <trkpt lat="49.0314450" lon="1.5704020">
        <ele>74.2</ele>
        <time>2020-07-01T08:30:59Z</time>
      </trkpt>
      <trkpt lat="49.0314100" lon="1.5699680">
        <ele>74.6</ele>
        <time>2020-07-01T08:31:08Z</time>
      </trkpt>
      <trkpt lat="49.0313690" lon="1.5696430">
        <ele>74.8</ele>
        <time>2020-07-01T08:31:14Z</time>
      </trkpt>
      <trkpt lat="49.0313290" lon="1.5694580">
        <ele>75.2</ele>
        <time>2020-07-01T08:31:18Z</time>
      </trkpt>
      <trkpt lat="49.0312850" lon="1.5690190">
        <ele>75.8</ele>
        <time>2020-07-01T08:31:27Z</time>
      </trkpt>
      <trkpt lat="49.0312580" lon="1.5687810">
        <ele>76.2</ele>
        <time>2020-07-01T08:31:32Z</time>
      </trkpt>
      <trkpt lat="49.0312310" lon="1.5685480">
        <ele>76.4</ele>
        <time>2020-07-01T08:31:37Z</time>
      </trkpt>
      <trkpt lat="49.0311540" lon="1.5682430">
        <ele>76.6</ele>
        <time>2020-07-01T08:31:44Z</time>
      </trkpt>
      <trkpt lat="49.0309940" lon="1.5678870">
        <ele>76.6</ele>
        <time>2020-07-01T08:31:52Z</time>
      </trkpt>
      <trkpt lat="49.0308410" lon="1.5674790">
        <ele>76.4</ele>
        <time>2020-07-01T08:32:01Z</time>
      </trkpt>
      <trkpt lat="49.0305880" lon="1.5670180">
        <ele>76.2</ele>
        <time>2020-07-01T08:32:12Z</time>
      </trkpt>
      <trkpt lat="49.0304220" lon="1.5668030">
        <ele>76.2</ele>
        <time>2020-07-01T08:32:18Z</time>
      </trkpt>
      <trkpt lat="49.0303250" lon="1.5666440">
        <ele>76.2</ele>
        <time>2020-07-01T08:32:22Z</time>
      </trkpt>
      <trkpt lat="49.0300960" lon="1.5661840">
        <ele>77.2</ele>
        <time>2020-07-01T08:32:33Z</time>
      </trkpt>
      <trkpt lat="49.0300360" lon="1.5660700">
        <ele>77.6</ele>
        <time>2020-07-01T08:32:36Z</time>
      </trkpt>
      <trkpt lat="49.0297990" lon="1.5656140">
        <ele>78.8</ele>
        <time>2020-07-01T08:32:49Z</time>
      </trkpt>
      <trkpt lat="49.0296650" lon="1.5653630">
        <ele>79.2</ele>
        <time>2020-07-01T08:32:57Z</time>
      </trkpt>
      <trkpt lat="49.0296080" lon="1.5652520">
        <ele>80.0</ele>
        <time>2020-07-01T08:33:01Z</time>
      </trkpt>
      <trkpt lat="49.0295550" lon="1.5651510">
        <ele>80.6</ele>
        <time>2020-07-01T08:33:05Z</time>
      </trkpt>
      <trkpt lat="49.0294420" lon="1.5649640">
        <ele>81.6</ele>
        <time>2020-07-01T08:33:13Z</time>
      </trkpt>
      <trkpt lat="49.0294290" lon="1.5649370">
        <ele>81.8</ele>
        <time>2020-07-01T08:33:14Z</time>
      </trkpt>
      <trkpt lat="49.0292750" lon="1.5646440">
        <ele>83.4</ele>
        <time>2020-07-01T08:33:25Z</time>
      </trkpt>
      <trkpt lat="49.0291820" lon="1.5644850">
        <ele>84.0</ele>
        <time>2020-07-01T08:33:32Z</time>
      </trkpt>
      <trkpt lat="49.0290990" lon="1.5643650">
        <ele>85.2</ele>
        <time>2020-07-01T08:33:38Z</time>
      </trkpt>
      <trkpt lat="49.0290360" lon="1.5642590">
        <ele>86.2</ele>
        <time>2020-07-01T08:33:44Z</time>
      </trkpt>
      <trkpt lat="49.0290040" lon="1.5642010">
        <ele>86.8</ele>
        <time>2020-07-01T08:33:47Z</time>
      </trkpt>
      <trkpt lat="49.0289590" lon="1.5641320">
        <ele>87.2</ele>
        <time>2020-07-01T08:33:51Z</time>
      </trkpt>
      <trkpt lat="49.0288880" lon="1.5640040">
        <ele>88.4</ele>
        <time>2020-07-01T08:33:58Z</time>
      </trkpt>
      <trkpt lat="49.0288820" lon="1.5639850">
        <ele>88.6</ele>
        <time>2020-07-01T08:33:59Z</time>
      </trkpt>
      <trkpt lat="49.0288100" lon="1.5638150">
        <ele>90.0</ele>
        <time>2020-07-01T08:34:07Z</time>
      </trkpt>
      <trkpt lat="49.0288000" lon="1.5637910">
        <ele>90.0</ele>
        <time>2020-07-01T08:34:08Z</time>
      </trkpt>
      <trkpt lat="49.0287300" lon="1.5636560">
        <ele>90.8</ele>
        <time>2020-07-01T08:34:15Z</time>
      </trkpt>
      <trkpt lat="49.0287020" lon="1.5636010">
        <ele>91.4</ele>
        <time>2020-07-01T08:34:18Z</time>
      </trkpt>
      <trkpt lat="49.0286640" lon="1.5635280">
        <ele>92.0</ele>
        <time>2020-07-01T08:34:22Z</time>
      </trkpt>
      <trkpt lat="49.0286210" lon="1.5634620">
        <ele>92.6</ele>
        <time>2020-07-01T08:34:26Z</time>
      </trkpt>
      <trkpt lat="49.0285740" lon="1.5633860">
        <ele>93.0</ele>
        <time>2020-07-01T08:34:30Z</time>
      </trkpt>
      <trkpt lat="49.0285480" lon="1.5633430">
        <ele>93.6</ele>
        <time>2020-07-01T08:34:32Z</time>
      </trkpt>
      <trkpt lat="49.0284780" lon="1.5632340">
        <ele>94.8</ele>
        <time>2020-07-01T08:34:38Z</time>
      </trkpt>
      <trkpt lat="49.0284320" lon="1.5631520">
        <ele>95.4</ele>
        <time>2020-07-01T08:34:43Z</time>
      </trkpt>
      <trkpt lat="49.0284240" lon="1.5631360">
        <ele>95.6</ele>
        <time>2020-07-01T08:34:44Z</time>
      </trkpt>
      <trkpt lat="49.0283330" lon="1.5629540">
        <ele>97.4</ele>
        <time>2020-07-01T08:34:53Z</time>
      </trkpt>
      <trkpt lat="49.0283100" lon="1.5628800">
        <ele>97.8</ele>
        <time>2020-07-01T08:34:57Z</time>
      </trkpt>
      <trkpt lat="49.0282650" lon="1.5627850">
        <ele>98.2</ele>
        <time>2020-07-01T08:35:03Z</time>
      </trkpt>
      <trkpt lat="49.0282530" lon="1.5627680">
        <ele>98.2</ele>
        <time>2020-07-01T08:35:04Z</time>
      </trkpt>
      <trkpt lat="49.0281800" lon="1.5625660">
        <ele>99.2</ele>
        <time>2020-07-01T08:35:13Z</time>
      </trkpt>
      <trkpt lat="49.0281740" lon="1.5625480">
        <ele>99.6</ele>
        <time>2020-07-01T08:35:14Z</time>
      </trkpt>
      <trkpt lat="49.0281320" lon="1.5624440">
        <ele>100.4</ele>
        <time>2020-07-01T08:35:20Z</time>
      </trkpt>
      <trkpt lat="49.0281180" lon="1.5623710">
        <ele>100.8</ele>
        <time>2020-07-01T08:35:23Z</time>
      </trkpt>
      <trkpt lat="49.0280280" lon="1.5621660">
        <ele>101.8</ele>
        <time>2020-07-01T08:35:32Z</time>
      </trkpt>
      <trkpt lat="49.0280120" lon="1.5621210">
        <ele>102.0</ele>
        <time>2020-07-01T08:35:34Z</time>
      </trkpt>
      <trkpt lat="49.0279810" lon="1.5620560">
        <ele>102.2</ele>
        <time>2020-07-01T08:35:37Z</time>
      </trkpt>
      <trkpt lat="49.0279390" lon="1.5618980">
        <ele>103.0</ele>
        <time>2020-07-01T08:35:43Z</time>
      </trkpt>
      <trkpt lat="49.0279200" lon="1.5618340">
        <ele>103.6</ele>
        <time>2020-07-01T08:35:46Z</time>
      </trkpt>
      <trkpt lat="49.0278550" lon="1.5616630">
        <ele>105.2</ele>
        <time>2020-07-01T08:35:54Z</time>
      </trkpt>
      <trkpt lat="49.0278110" lon="1.5615370">
        <ele>105.6</ele>
        <time>2020-07-01T08:35:59Z</time>
      </trkpt>
      <trkpt lat="49.0277380" lon="1.5613590">
        <ele>106.4</ele>
        <time>2020-07-01T08:36:07Z</time>
      </trkpt>
      <trkpt lat="49.0276720" lon="1.5612220">
        <ele>106.6</ele>
        <time>2020-07-01T08:36:13Z</time>
      </trkpt>
      <trkpt lat="49.0276480" lon="1.5611690">
        <ele>106.8</ele>
        <time>2020-07-01T08:36:15Z</time>
      </trkpt>
      <trkpt lat="49.0276350" lon="1.5611430">
        <ele>106.8</ele>
        <time>2020-07-01T08:36:16Z</time>
      </trkpt>
      <trkpt lat="49.0275270" lon="1.5608660">
        <ele>108.0</ele>
        <time>2020-07-01T08:36:25Z</time>
      </trkpt>
      <trkpt lat="49.0274370" lon="1.5606850">
        <ele>108.6</ele>
        <time>2020-07-01T08:36:32Z</time>
      </trkpt>
      <trkpt lat="49.0274230" lon="1.5606250">
        <ele>108.6</ele>
        <time>2020-07-01T08:36:34Z</time>
      </trkpt>
      <trkpt lat="49.0273620" lon="1.5603490">
        <ele>109.0</ele>
        <time>2020-07-01T08:36:42Z</time>
      </trkpt>
      <trkpt lat="49.0273500" lon="1.5603100">
        <ele>109.2</ele>
        <time>2020-07-01T08:36:43Z</time>
      </trkpt>
      <trkpt lat="49.0272220" lon="1.5598660">
        <ele>110.2</ele>
        <time>2020-07-01T08:36:54Z</time>
      </trkpt>
      <trkpt lat="49.0270980" lon="1.5595110">
        <ele>110.8</ele>
        <time>2020-07-01T08:37:04Z</time>
      </trkpt>
      <trkpt lat="49.0270590" lon="1.5593940">
        <ele>111.2</ele>
        <time>2020-07-01T08:37:07Z</time>
      </trkpt>
      <trkpt lat="49.0270320" lon="1.5593190">
        <ele>111.4</ele>
        <time>2020-07-01T08:37:09Z</time>
      </trkpt>
      <trkpt lat="49.0270060" lon="1.5592400">
        <ele>111.4</ele>
        <time>2020-07-01T08:37:11Z</time>
      </trkpt>
      <trkpt lat="49.0268900" lon="1.5589220">
        <ele>111.8</ele>
        <time>2020-07-01T08:37:19Z</time>
      </trkpt>
      <trkpt lat="49.0267890" lon="1.5586750">
        <ele>112.0</ele>
        <time>2020-07-01T08:37:25Z</time>
      </trkpt>
      <trkpt lat="49.0267480" lon="1.5586010">
        <ele>112.0</ele>
        <time>2020-07-01T08:37:27Z</time>
      </trkpt>
      <trkpt lat="49.0266740" lon="1.5583830">
        <ele>112.4</ele>
        <time>2020-07-01T08:37:32Z</time>
      </trkpt>
      <trkpt lat="49.0266620" lon="1.5583340">
        <ele>112.6</ele>
        <time>2020-07-01T08:37:33Z</time>
      </trkpt>
      <trkpt lat="49.0265740" lon="1.5579980">
        <ele>113.4</ele>
        <time>2020-07-01T08:37:41Z</time>
      </trkpt>
      <trkpt lat="49.0264880" lon="1.5577580">
        <ele>114.2</ele>
        <time>2020-07-01T08:37:48Z</time>
      </trkpt>
      <trkpt lat="49.0264520" lon="1.5576580">
        <ele>114.4</ele>
        <time>2020-07-01T08:37:51Z</time>
      </trkpt>
      <trkpt lat="49.0263740" lon="1.5574520">
        <ele>114.6</ele>
        <time>2020-07-01T08:37:57Z</time>
      </trkpt>
      <trkpt lat="49.0263530" lon="1.5573910">
        <ele>114.8</ele>
        <time>2020-07-01T08:37:59Z</time>
      </trkpt>
      <trkpt lat="49.0262800" lon="1.5572030">
        <ele>115.6</ele>
        <time>2020-07-01T08:38:04Z</time>
      </trkpt>
      <trkpt lat="49.0261750" lon="1.5570170">
        <ele>115.8</ele>
        <time>2020-07-01T08:38:09Z</time>
      </trkpt>
      <trkpt lat="49.0261050" lon="1.5568340">
        <ele>116.0</ele>
        <time>2020-07-01T08:38:14Z</time>
      </trkpt>
      <trkpt lat="49.0260840" lon="1.5567150">
        <ele>116.2</ele>
        <time>2020-07-01T08:38:17Z</time>
      </trkpt>
      <trkpt lat="49.0260510" lon="1.5566020">
        <ele>116.4</ele>
        <time>2020-07-01T08:38:20Z</time>
      </trkpt>
      <trkpt lat="49.0259980" lon="1.5564240">
        <ele>116.8</ele>
        <time>2020-07-01T08:38:25Z</time>
      </trkpt>
      <trkpt lat="49.0259350" lon="1.5562230">
        <ele>117.4</ele>
        <time>2020-07-01T08:38:30Z</time>
      </trkpt>
      <trkpt lat="49.0258640" lon="1.5560660">
        <ele>118.0</ele>
        <time>2020-07-01T08:38:34Z</time>
      </trkpt>
      <trkpt lat="49.0257900" lon="1.5558640">
        <ele>118.2</ele>
        <time>2020-07-01T08:38:39Z</time>
      </trkpt>
      <trkpt lat="49.0256860" lon="1.5555560">
        <ele>118.2</ele>
        <time>2020-07-01T08:38:46Z</time>
      </trkpt>
      <trkpt lat="49.0255840" lon="1.5552480">
        <ele>118.2</ele>
        <time>2020-07-01T08:38:53Z</time>
      </trkpt>
      <trkpt lat="49.0255700" lon="1.5552060">
        <ele>118.4</ele>
        <time>2020-07-01T08:38:54Z</time>
      </trkpt>
      <trkpt lat="49.0254590" lon="1.5549430">
        <ele>118.4</ele>
        <time>2020-07-01T08:38:58Z</time>
      </trkpt>
      <trkpt lat="49.0253470" lon="1.5546430">
        <ele>118.8</ele>
        <time>2020-07-01T08:39:04Z</time>
      </trkpt>
      <trkpt lat="49.0252030" lon="1.5542950">
        <ele>119.2</ele>
        <time>2020-07-01T08:39:11Z</time>
      </trkpt>
      <trkpt lat="49.0250550" lon="1.5539700">
        <ele>118.8</ele>
        <time>2020-07-01T08:39:17Z</time>
      </trkpt>
      <trkpt lat="49.0248950" lon="1.5535740">
        <ele>118.8</ele>
        <time>2020-07-01T08:39:24Z</time>
      </trkpt>
      <trkpt lat="49.0248800" lon="1.5535150">
        <ele>118.8</ele>
        <time>2020-07-01T08:39:25Z</time>
      </trkpt>
      <trkpt lat="49.0247970" lon="1.5531970">
        <ele>118.6</ele>
        <time>2020-07-01T08:39:30Z</time>
      </trkpt>
      <trkpt lat="49.0247230" lon="1.5529500">
        <ele>118.2</ele>
        <time>2020-07-01T08:39:34Z</time>
      </trkpt>
      <trkpt lat="49.0246980" lon="1.5528830">
        <ele>117.6</ele>
        <time>2020-07-01T08:39:35Z</time>
      </trkpt>
      <trkpt lat="49.0245420" lon="1.5524230">
        <ele>117.2</ele>
        <time>2020-07-01T08:39:42Z</time>
      </trkpt>
      <trkpt lat="49.0242970" lon="1.5518440">
        <ele>116.8</ele>
        <time>2020-07-01T08:39:50Z</time>
      </trkpt>
      <trkpt lat="49.0242710" lon="1.5517750">
        <ele>116.6</ele>
        <time>2020-07-01T08:39:51Z</time>
      </trkpt>
      <trkpt lat="49.0240400" lon="1.5511110">
        <ele>116.4</ele>
        <time>2020-07-01T08:40:00Z</time>
      </trkpt>
      <trkpt lat="49.0239450" lon="1.5508200">
        <ele>116.2</ele>
        <time>2020-07-01T08:40:04Z</time>
      </trkpt>
      <trkpt lat="49.0238530" lon="1.5506450">
        <ele>116.2</ele>
        <time>2020-07-01T08:40:07Z</time>
      </trkpt>
      <trkpt lat="49.0238200" lon="1.5505890">
        <ele>116.2</ele>
        <time>2020-07-01T08:40:08Z</time>
      </trkpt>
      <trkpt lat="49.0236230" lon="1.5502260">
        <ele>115.2</ele>
        <time>2020-07-01T08:40:15Z</time>
      </trkpt>
      <trkpt lat="49.0235780" lon="1.5501340">
        <ele>115.2</ele>
        <time>2020-07-01T08:40:17Z</time>
      </trkpt>
      <trkpt lat="49.0233880" lon="1.5497580">
        <ele>115.2</ele>
        <time>2020-07-01T08:40:25Z</time>
      </trkpt>
      <trkpt lat="49.0233430" lon="1.5496650">
        <ele>115.4</ele>
        <time>2020-07-01T08:40:27Z</time>
      </trkpt>
      <trkpt lat="49.0231260" lon="1.5491860">
        <ele>116.8</ele>
        <time>2020-07-01T08:40:37Z</time>
      </trkpt>
      <trkpt lat="49.0229050" lon="1.5485900">
        <ele>117.2</ele>
        <time>2020-07-01T08:40:49Z</time>
      </trkpt>
      <trkpt lat="49.0228470" lon="1.5483890">
        <ele>117.4</ele>
        <time>2020-07-01T08:40:53Z</time>
      </trkpt>
      <trkpt lat="49.0227960" lon="1.5481810">
        <ele>117.2</ele>
        <time>2020-07-01T08:40:57Z</time>
      </trkpt>
      <trkpt lat="49.0227820" lon="1.5481310">
        <ele>117.4</ele>
        <time>2020-07-01T08:40:58Z</time>
      </trkpt>
      <trkpt lat="49.0227440" lon="1.5480350">
        <ele>117.4</ele>
        <time>2020-07-01T08:41:00Z</time>
      </trkpt>
      <trkpt lat="49.0227260" lon="1.5479940">
        <ele>117.4</ele>
        <time>2020-07-01T08:41:01Z</time>
      </trkpt>
      <trkpt lat="49.0227090" lon="1.5479530">
        <ele>117.6</ele>
        <time>2020-07-01T08:41:02Z</time>
      </trkpt>
      <trkpt lat="49.0226440" lon="1.5477620">
        <ele>117.8</ele>
        <time>2020-07-01T08:41:06Z</time>
      </trkpt>
      <trkpt lat="49.0226280" lon="1.5477130">
        <ele>117.8</ele>
        <time>2020-07-01T08:41:07Z</time>
      </trkpt>
      <trkpt lat="49.0224710" lon="1.5471770">
        <ele>119.0</ele>
        <time>2020-07-01T08:41:16Z</time>
      </trkpt>
      <trkpt lat="49.0223980" lon="1.5467590">
        <ele>119.4</ele>
        <time>2020-07-01T08:41:23Z</time>
      </trkpt>
      <trkpt lat="49.0223680" lon="1.5465870">
        <ele>119.6</ele>
        <time>2020-07-01T08:41:26Z</time>
      </trkpt>
      <trkpt lat="49.0223300" lon="1.5461700">
        <ele>120.4</ele>
        <time>2020-07-01T08:41:33Z</time>
      </trkpt>
      <trkpt lat="49.0222960" lon="1.5458010">
        <ele>121.0</ele>
        <time>2020-07-01T08:41:39Z</time>
      </trkpt>
      <trkpt lat="49.0222480" lon="1.5454380">
        <ele>121.2</ele>
        <time>2020-07-01T08:41:45Z</time>
      </trkpt>
      <trkpt lat="49.0222100" lon="1.5450430">
        <ele>121.0</ele>
        <time>2020-07-01T08:41:51Z</time>
      </trkpt>
      <trkpt lat="49.0222120" lon="1.5449710">
        <ele>121.2</ele>
        <time>2020-07-01T08:41:52Z</time>
      </trkpt>
      <trkpt lat="49.0222110" lon="1.5445280">
        <ele>121.4</ele>
        <time>2020-07-01T08:41:58Z</time>
      </trkpt>
      <trkpt lat="49.0221940" lon="1.5441480">
        <ele>121.4</ele>
        <time>2020-07-01T08:42:04Z</time>
      </trkpt>
      <trkpt lat="49.0221070" lon="1.5437120">
        <ele>121.6</ele>
        <time>2020-07-01T08:42:10Z</time>
      </trkpt>
      <trkpt lat="49.0219990" lon="1.5433680">
        <ele>121.6</ele>
        <time>2020-07-01T08:42:15Z</time>
      </trkpt>
      <trkpt lat="49.0219250" lon="1.5431760">
        <ele>121.6</ele>
        <time>2020-07-01T08:42:18Z</time>
      </trkpt>
      <trkpt lat="49.0218580" lon="1.5430140">
        <ele>121.6</ele>
        <time>2020-07-01T08:42:21Z</time>
      </trkpt>
      <trkpt lat="49.0217820" lon="1.5428710">
        <ele>120.8</ele>
        <time>2020-07-01T08:42:24Z</time>
      </trkpt>
      <trkpt lat="49.0217480" lon="1.5428260">
        <ele>120.6</ele>
        <time>2020-07-01T08:42:25Z</time>
      </trkpt>
      <trkpt lat="49.0215440" lon="1.5425920">
        <ele>119.2</ele>
        <time>2020-07-01T08:42:31Z</time>
      </trkpt>
      <trkpt lat="49.0215060" lon="1.5425630">
        <ele>119.0</ele>
        <time>2020-07-01T08:42:32Z</time>
      </trkpt>
      <trkpt lat="49.0212270" lon="1.5423800">
        <ele>117.8</ele>
        <time>2020-07-01T08:42:39Z</time>
      </trkpt>
      <trkpt lat="49.0211090" lon="1.5423330">
        <ele>117.2</ele>
        <time>2020-07-01T08:42:42Z</time>
      </trkpt>
      <trkpt lat="49.0210300" lon="1.5423070">
        <ele>117.0</ele>
        <time>2020-07-01T08:42:44Z</time>
      </trkpt>
      <trkpt lat="49.0209310" lon="1.5422670">
        <ele>116.8</ele>
        <time>2020-07-01T08:42:47Z</time>
      </trkpt>
      <trkpt lat="49.0208320" lon="1.5421620">
        <ele>116.8</ele>
        <time>2020-07-01T08:42:52Z</time>
      </trkpt>
      <trkpt lat="49.0207800" lon="1.5421360">
        <ele>117.2</ele>
        <time>2020-07-01T08:42:57Z</time>
      </trkpt>
      <trkpt lat="49.0207780" lon="1.5421350">
        <ele>117.4</ele>
        <time>2020-07-01T08:42:58Z</time>
      </trkpt>
      <trkpt lat="49.0208000" lon="1.5421280">
        <ele>118.2</ele>
        <time>2020-07-01T08:43:13Z</time>
      </trkpt>
      <trkpt lat="49.0208000" lon="1.5421120">
        <ele>118.0</ele>
        <time>2020-07-01T08:43:29Z</time>
      </trkpt>
      <trkpt lat="49.0207930" lon="1.5421160">
        <ele>118.2</ele>
        <time>2020-07-01T08:43:46Z</time>
      </trkpt>
      <trkpt lat="49.0207800" lon="1.5421250">
        <ele>118.4</ele>
        <time>2020-07-01T08:43:55Z</time>
      </trkpt>
      <trkpt lat="49.0207610" lon="1.5421360">
        <ele>118.4</ele>
        <time>2020-07-01T08:43:57Z</time>
      </trkpt>
      <trkpt lat="49.0207250" lon="1.5421530">
        <ele>118.4</ele>
        <time>2020-07-01T08:44:00Z</time>
      </trkpt>
      <trkpt lat="49.0206550" lon="1.5421470">
        <ele>118.0</ele>
        <time>2020-07-01T08:44:03Z</time>
      </trkpt>
      <trkpt lat="49.0205360" lon="1.5420930">
        <ele>117.0</ele>
        <time>2020-07-01T08:44:08Z</time>
      </trkpt>
      <trkpt lat="49.0203770" lon="1.5420670">
        <ele>116.6</ele>
        <time>2020-07-01T08:44:14Z</time>
      </trkpt>
      <trkpt lat="49.0202450" lon="1.5420210">
        <ele>117.0</ele>
        <time>2020-07-01T08:44:20Z</time>
      </trkpt>
      <trkpt lat="49.0202170" lon="1.5420150">
        <ele>117.2</ele>
        <time>2020-07-01T08:44:22Z</time>
      </trkpt>
      <trkpt lat="49.0201030" lon="1.5419490">
        <ele>117.8</ele>
        <time>2020-07-01T08:44:28Z</time>
      </trkpt>
      <trkpt lat="49.0198880" lon="1.5417160">
        <ele>118.0</ele>
        <time>2020-07-01T08:44:37Z</time>
      </trkpt>
      <trkpt lat="49.0197600" lon="1.5414000">
        <ele>119.0</ele>
        <time>2020-07-01T08:44:46Z</time>
      </trkpt>
      <trkpt lat="49.0197500" lon="1.5413630">
        <ele>119.2</ele>
        <time>2020-07-01T08:44:47Z</time>
      </trkpt>
      <trkpt lat="49.0197180" lon="1.5411710">
        <ele>119.8</ele>
        <time>2020-07-01T08:44:52Z</time>
      </trkpt>
      <trkpt lat="49.0197040" lon="1.5409610">
        <ele>120.4</ele>
        <time>2020-07-01T08:44:57Z</time>
      </trkpt>
      <trkpt lat="49.0196970" lon="1.5407920">
        <ele>121.2</ele>
        <time>2020-07-01T08:45:01Z</time>
      </trkpt>
      <trkpt lat="49.0196960" lon="1.5404500">
        <ele>122.4</ele>
        <time>2020-07-01T08:45:10Z</time>
      </trkpt>
      <trkpt lat="49.0196960" lon="1.5404130">
        <ele>122.6</ele>
        <time>2020-07-01T08:45:11Z</time>
      </trkpt>
      <trkpt lat="49.0196770" lon="1.5400720">
        <ele>123.6</ele>
        <time>2020-07-01T08:45:19Z</time>
      </trkpt>
      <trkpt lat="49.0196750" lon="1.5400290">
        <ele>123.6</ele>
        <time>2020-07-01T08:45:20Z</time>
      </trkpt>
      <trkpt lat="49.0196650" lon="1.5399460">
        <ele>123.4</ele>
        <time>2020-07-01T08:45:22Z</time>
      </trkpt>
      <trkpt lat="49.0196620" lon="1.5398380">
        <ele>123.6</ele>
        <time>2020-07-01T08:45:25Z</time>
      </trkpt>
      <trkpt lat="49.0196610" lon="1.5397990">
        <ele>123.6</ele>
        <time>2020-07-01T08:45:26Z</time>
      </trkpt>
      <trkpt lat="49.0196520" lon="1.5396850">
        <ele>123.6</ele>
        <time>2020-07-01T08:45:29Z</time>
      </trkpt>
      <trkpt lat="49.0196410" lon="1.5394630">
        <ele>124.0</ele>
        <time>2020-07-01T08:45:34Z</time>
      </trkpt>
      <trkpt lat="49.0196300" lon="1.5392420">
        <ele>124.8</ele>
        <time>2020-07-01T08:45:39Z</time>
      </trkpt>
      <trkpt lat="49.0195990" lon="1.5387910">
        <ele>125.6</ele>
        <time>2020-07-01T08:45:49Z</time>
      </trkpt>
      <trkpt lat="49.0195650" lon="1.5383950">
        <ele>125.6</ele>
        <time>2020-07-01T08:45:55Z</time>
      </trkpt>
      <trkpt lat="49.0195220" lon="1.5380220">
        <ele>125.4</ele>
        <time>2020-07-01T08:46:01Z</time>
      </trkpt>
      <trkpt lat="49.0195010" lon="1.5379060">
        <ele>125.6</ele>
        <time>2020-07-01T08:46:03Z</time>
      </trkpt>
      <trkpt lat="49.0194900" lon="1.5378500">
        <ele>125.4</ele>
        <time>2020-07-01T08:46:04Z</time>
      </trkpt>
      <trkpt lat="49.0194250" lon="1.5374660">
        <ele>125.6</ele>
        <time>2020-07-01T08:46:11Z</time>
      </trkpt>
      <trkpt lat="49.0193650" lon="1.5371840">
        <ele>125.6</ele>
        <time>2020-07-01T08:46:16Z</time>
      </trkpt>
      <trkpt lat="49.0193440" lon="1.5370780">
        <ele>125.6</ele>
        <time>2020-07-01T08:46:18Z</time>
      </trkpt>
      <trkpt lat="49.0192840" lon="1.5367950">
        <ele>125.8</ele>
        <time>2020-07-01T08:46:23Z</time>
      </trkpt>
      <trkpt lat="49.0192150" lon="1.5364810">
        <ele>125.4</ele>
        <time>2020-07-01T08:46:28Z</time>
      </trkpt>
      <trkpt lat="49.0191860" lon="1.5363550">
        <ele>125.2</ele>
        <time>2020-07-01T08:46:30Z</time>
      </trkpt>
      <trkpt lat="49.0190970" lon="1.5359650">
        <ele>124.0</ele>
        <time>2020-07-01T08:46:36Z</time>
      </trkpt>
      <trkpt lat="49.0190700" lon="1.5358380">
        <ele>123.4</ele>
        <time>2020-07-01T08:46:38Z</time>
      </trkpt>
      <trkpt lat="49.0190300" lon="1.5356580">
        <ele>123.0</ele>
        <time>2020-07-01T08:46:41Z</time>
      </trkpt>
      <trkpt lat="49.0190180" lon="1.5355970">
        <ele>123.2</ele>
        <time>2020-07-01T08:46:42Z</time>
      </trkpt>
      <trkpt lat="49.0188880" lon="1.5348780">
        <ele>123.8</ele>
        <time>2020-07-01T08:46:54Z</time>
      </trkpt>
      <trkpt lat="49.0188780" lon="1.5348200">
        <ele>123.8</ele>
        <time>2020-07-01T08:46:55Z</time>
      </trkpt>
      <trkpt lat="49.0188680" lon="1.5347650">
        <ele>123.8</ele>
        <time>2020-07-01T08:46:56Z</time>
      </trkpt>
      <trkpt lat="49.0188460" lon="1.5346580">
        <ele>123.8</ele>
        <time>2020-07-01T08:46:58Z</time>
      </trkpt>
      <trkpt lat="49.0187220" lon="1.5343190">
        <ele>123.6</ele>
        <time>2020-07-01T08:47:05Z</time>
      </trkpt>
      <trkpt lat="49.0186240" lon="1.5341380">
        <ele>123.6</ele>
        <time>2020-07-01T08:47:09Z</time>
      </trkpt>
      <trkpt lat="49.0185500" lon="1.5340080">
        <ele>123.2</ele>
        <time>2020-07-01T08:47:12Z</time>
      </trkpt>
      <trkpt lat="49.0185010" lon="1.5339370">
        <ele>123.2</ele>
        <time>2020-07-01T08:47:14Z</time>
      </trkpt>
      <trkpt lat="49.0182000" lon="1.5335590">
        <ele>123.8</ele>
        <time>2020-07-01T08:47:25Z</time>
      </trkpt>
      <trkpt lat="49.0181720" lon="1.5335280">
        <ele>123.8</ele>
        <time>2020-07-01T08:47:26Z</time>
      </trkpt>
      <trkpt lat="49.0178640" lon="1.5332340">
        <ele>124.8</ele>
        <time>2020-07-01T08:47:37Z</time>
      </trkpt>
      <trkpt lat="49.0176370" lon="1.5329980">
        <ele>125.4</ele>
        <time>2020-07-01T08:47:46Z</time>
      </trkpt>
      <trkpt lat="49.0175920" lon="1.5329440">
        <ele>125.4</ele>
        <time>2020-07-01T08:47:48Z</time>
      </trkpt>
      <trkpt lat="49.0173190" lon="1.5326570">
        <ele>127.8</ele>
        <time>2020-07-01T08:47:59Z</time>
      </trkpt>
      <trkpt lat="49.0172940" lon="1.5326310">
        <ele>127.8</ele>
        <time>2020-07-01T08:48:00Z</time>
      </trkpt>
      <trkpt lat="49.0172180" lon="1.5325660">
        <ele>128.0</ele>
        <time>2020-07-01T08:48:03Z</time>
      </trkpt>
      <trkpt lat="49.0170960" lon="1.5324680">
        <ele>128.2</ele>
        <time>2020-07-01T08:48:08Z</time>
      </trkpt>
      <trkpt lat="49.0170450" lon="1.5324260">
        <ele>128.0</ele>
        <time>2020-07-01T08:48:10Z</time>
      </trkpt>
      <trkpt lat="49.0169060" lon="1.5322920">
        <ele>128.6</ele>
        <time>2020-07-01T08:48:15Z</time>
      </trkpt>
      <trkpt lat="49.0168030" lon="1.5321520">
        <ele>129.2</ele>
        <time>2020-07-01T08:48:19Z</time>
      </trkpt>
      <trkpt lat="49.0167740" lon="1.5321180">
        <ele>129.2</ele>
        <time>2020-07-01T08:48:20Z</time>
      </trkpt>
      <trkpt lat="49.0167460" lon="1.5320830">
        <ele>129.2</ele>
        <time>2020-07-01T08:48:21Z</time>
      </trkpt>
      <trkpt lat="49.0165940" lon="1.5318550">
        <ele>129.2</ele>
        <time>2020-07-01T08:48:27Z</time>
      </trkpt>
      <trkpt lat="49.0165710" lon="1.5318280">
        <ele>129.2</ele>
        <time>2020-07-01T08:48:28Z</time>
      </trkpt>
      <trkpt lat="49.0165550" lon="1.5317560">
        <ele>129.4</ele>
        <time>2020-07-01T08:48:30Z</time>
      </trkpt>
      <trkpt lat="49.0165650" lon="1.5316890">
        <ele>129.2</ele>
        <time>2020-07-01T08:48:32Z</time>
      </trkpt>
      <trkpt lat="49.0166370" lon="1.5315220">
        <ele>130.4</ele>
        <time>2020-07-01T08:48:40Z</time>
      </trkpt>
      <trkpt lat="49.0166830" lon="1.5314850">
        <ele>130.4</ele>
        <time>2020-07-01T08:48:46Z</time>
      </trkpt>
      <trkpt lat="49.0167040" lon="1.5314610">
        <ele>130.8</ele>
        <time>2020-07-01T08:48:57Z</time>
      </trkpt>
      <trkpt lat="49.0167020" lon="1.5314730">
        <ele>130.4</ele>
        <time>2020-07-01T08:49:24Z</time>
      </trkpt>
      <trkpt lat="49.0166760" lon="1.5314780">
        <ele>130.6</ele>
        <time>2020-07-01T08:49:36Z</time>
      </trkpt>
      <trkpt lat="49.0166720" lon="1.5314880">
        <ele>130.6</ele>
        <time>2020-07-01T08:49:37Z</time>
      </trkpt>
      <trkpt lat="49.0166720" lon="1.5315040">
        <ele>130.6</ele>
        <time>2020-07-01T08:49:45Z</time>
      </trkpt>
      <trkpt lat="49.0166200" lon="1.5315200">
        <ele>131.0</ele>
        <time>2020-07-01T08:49:55Z</time>
      </trkpt>
      <trkpt lat="49.0166070" lon="1.5315220">
        <ele>130.8</ele>
        <time>2020-07-01T08:49:56Z</time>
      </trkpt>
      <trkpt lat="49.0164730" lon="1.5314470">
        <ele>130.8</ele>
        <time>2020-07-01T08:50:03Z</time>
      </trkpt>
      <trkpt lat="49.0163780" lon="1.5313380">
        <ele>130.4</ele>
        <time>2020-07-01T08:50:07Z</time>
      </trkpt>
      <trkpt lat="49.0162580" lon="1.5311660">
        <ele>130.0</ele>
        <time>2020-07-01T08:50:12Z</time>
      </trkpt>
      <trkpt lat="49.0161740" lon="1.5310650">
        <ele>129.8</ele>
        <time>2020-07-01T08:50:15Z</time>
      </trkpt>
      <trkpt lat="49.0159640" lon="1.5308060">
        <ele>129.6</ele>
        <time>2020-07-01T08:50:22Z</time>
      </trkpt>
      <trkpt lat="49.0159340" lon="1.5307680">
        <ele>129.8</ele>
        <time>2020-07-01T08:50:23Z</time>
      </trkpt>
      <trkpt lat="49.0155640" lon="1.5303400">
        <ele>131.2</ele>
        <time>2020-07-01T08:50:35Z</time>
      </trkpt>
      <trkpt lat="49.0152480" lon="1.5299750">
        <ele>131.4</ele>
        <time>2020-07-01T08:50:45Z</time>
      </trkpt>
      <trkpt lat="49.0149770" lon="1.5296510">
        <ele>131.4</ele>
        <time>2020-07-01T08:50:54Z</time>
      </trkpt>
      <trkpt lat="49.0149420" lon="1.5296150">
        <ele>131.4</ele>
        <time>2020-07-01T08:50:55Z</time>
      </trkpt>
      <trkpt lat="49.0146920" lon="1.5293600">
        <ele>131.4</ele>
        <time>2020-07-01T08:51:02Z</time>
      </trkpt>
      <trkpt lat="49.0146600" lon="1.5293210">
        <ele>131.2</ele>
        <time>2020-07-01T08:51:03Z</time>
      </trkpt>
      <trkpt lat="49.0143990" lon="1.5289880">
        <ele>131.0</ele>
        <time>2020-07-01T08:51:12Z</time>
      </trkpt>
      <trkpt lat="49.0143910" lon="1.5287820">
        <ele>130.8</ele>
        <time>2020-07-01T08:51:16Z</time>
      </trkpt>
      <trkpt lat="49.0144100" lon="1.5287250">
        <ele>131.0</ele>
        <time>2020-07-01T08:51:17Z</time>
      </trkpt>
      <trkpt lat="49.0144950" lon="1.5285580">
        <ele>130.8</ele>
        <time>2020-07-01T08:51:21Z</time>
      </trkpt>
      <trkpt lat="49.0146150" lon="1.5282820">
        <ele>131.4</ele>
        <time>2020-07-01T08:51:29Z</time>
      </trkpt>
      <trkpt lat="49.0146400" lon="1.5282230">
        <ele>131.8</ele>
        <time>2020-07-01T08:51:33Z</time>
      </trkpt>
      <trkpt lat="49.0146450" lon="1.5282150">
        <ele>131.8</ele>
        <time>2020-07-01T08:51:34Z</time>
      </trkpt>
      <trkpt lat="49.0146890" lon="1.5282060">
        <ele>132.0</ele>
        <time>2020-07-01T08:51:37Z</time>
      </trkpt>
      <trkpt lat="49.0147550" lon="1.5282240">
        <ele>132.0</ele>
        <time>2020-07-01T08:51:41Z</time>
      </trkpt>
      <trkpt lat="49.0148310" lon="1.5282520">
        <ele>132.8</ele>
        <time>2020-07-01T08:51:48Z</time>
      </trkpt>
      <trkpt lat="49.0148580" lon="1.5282760">
        <ele>132.8</ele>
        <time>2020-07-01T08:51:51Z</time>
      </trkpt>
      <trkpt lat="49.0149540" lon="1.5284460">
        <ele>132.8</ele>
        <time>2020-07-01T08:52:01Z</time>
      </trkpt>
      <trkpt lat="49.0151720" lon="1.5286460">
        <ele>132.8</ele>
        <time>2020-07-01T08:52:10Z</time>
      </trkpt>
      <trkpt lat="49.0153200" lon="1.5287810">
        <ele>132.8</ele>
        <time>2020-07-01T08:52:17Z</time>
      </trkpt>
      <trkpt lat="49.0154050" lon="1.5287300">
        <ele>132.8</ele>
        <time>2020-07-01T08:52:21Z</time>
      </trkpt>
      <trkpt lat="49.0155110" lon="1.5284870">
        <ele>132.6</ele>
        <time>2020-07-01T08:52:29Z</time>
      </trkpt>
      <trkpt lat="49.0155600" lon="1.5284580">
        <ele>132.6</ele>
        <time>2020-07-01T08:52:34Z</time>
      </trkpt>
      <trkpt lat="49.0155650" lon="1.5284710">
        <ele>132.6</ele>
        <time>2020-07-01T08:52:35Z</time>
      </trkpt>
      <trkpt lat="49.0155690" lon="1.5284900">
        <ele>132.6</ele>
        <time>2020-07-01T08:52:36Z</time>
      </trkpt>
      <trkpt lat="49.0155590" lon="1.5285410">
        <ele>132.6</ele>
        <time>2020-07-01T08:52:39Z</time>
      </trkpt>
      <trkpt lat="49.0155490" lon="1.5285530">
        <ele>132.6</ele>
        <time>2020-07-01T08:52:40Z</time>
      </trkpt>
      <trkpt lat="49.0155030" lon="1.5285370">
        <ele>132.6</ele>
        <time>2020-07-01T08:52:45Z</time>
      </trkpt>
      <trkpt lat="49.0155060" lon="1.5285290">
        <ele>132.6</ele>
        <time>2020-07-01T08:52:46Z</time>
      </trkpt>
      <trkpt lat="49.0155260" lon="1.5285020">
        <ele>132.6</ele>
        <time>2020-07-01T08:52:49Z</time>
      </trkpt>
      <trkpt lat="49.0155200" lon="1.5284760">
        <ele>132.4</ele>
        <time>2020-07-01T08:52:53Z</time>
      </trkpt>
      <trkpt lat="49.0154970" lon="1.5285110">
        <ele>132.4</ele>
        <time>2020-07-01T08:52:56Z</time>
      </trkpt>
      <trkpt lat="49.0154710" lon="1.5286000">
        <ele>132.4</ele>
        <time>2020-07-01T08:53:00Z</time>
      </trkpt>
      <trkpt lat="49.0154080" lon="1.5287460">
        <ele>132.4</ele>
        <time>2020-07-01T08:53:06Z</time>
      </trkpt>
      <trkpt lat="49.0153900" lon="1.5287540">
        <ele>132.4</ele>
        <time>2020-07-01T08:53:07Z</time>
      </trkpt>
      <trkpt lat="49.0152570" lon="1.5286970">
        <ele>132.4</ele>
        <time>2020-07-01T08:53:13Z</time>
      </trkpt>
      <trkpt lat="49.0151480" lon="1.5286050">
        <ele>132.2</ele>
        <time>2020-07-01T08:53:17Z</time>
      </trkpt>
      <trkpt lat="49.0150930" lon="1.5285670">
        <ele>132.2</ele>
        <time>2020-07-01T08:53:19Z</time>
      </trkpt>
      <trkpt lat="49.0150440" lon="1.5285210">
        <ele>132.2</ele>
        <time>2020-07-01T08:53:21Z</time>
      </trkpt>
      <trkpt lat="49.0148890" lon="1.5283810">
        <ele>132.2</ele>
        <time>2020-07-01T08:53:28Z</time>
      </trkpt>
      <trkpt lat="49.0148850" lon="1.5283160">
        <ele>132.2</ele>
        <time>2020-07-01T08:53:30Z</time>
      </trkpt>
      <trkpt lat="49.0148990" lon="1.5282570">
        <ele>132.2</ele>
        <time>2020-07-01T08:53:32Z</time>
      </trkpt>
      <trkpt lat="49.0149440" lon="1.5281900">
        <ele>132.4</ele>
        <time>2020-07-01T08:53:37Z</time>
      </trkpt>
      <trkpt lat="49.0149480" lon="1.5281970">
        <ele>132.6</ele>
        <time>2020-07-01T08:53:48Z</time>
      </trkpt>
      <trkpt lat="49.0148840" lon="1.5281830">
        <ele>132.4</ele>
        <time>2020-07-01T08:53:54Z</time>
      </trkpt>
      <trkpt lat="49.0147780" lon="1.5281680">
        <ele>132.2</ele>
        <time>2020-07-01T08:53:59Z</time>
      </trkpt>
      <trkpt lat="49.0146540" lon="1.5281230">
        <ele>132.2</ele>
        <time>2020-07-01T08:54:05Z</time>
      </trkpt>
      <trkpt lat="49.0145150" lon="1.5279800">
        <ele>132.0</ele>
        <time>2020-07-01T08:54:11Z</time>
      </trkpt>
      <trkpt lat="49.0142630" lon="1.5277130">
        <ele>131.0</ele>
        <time>2020-07-01T08:54:19Z</time>
      </trkpt>
      <trkpt lat="49.0142300" lon="1.5276820">
        <ele>131.0</ele>
        <time>2020-07-01T08:54:20Z</time>
      </trkpt>
      <trkpt lat="49.0139980" lon="1.5274650">
        <ele>130.6</ele>
        <time>2020-07-01T08:54:27Z</time>
      </trkpt>
      <trkpt lat="49.0137970" lon="1.5272510">
        <ele>130.0</ele>
        <time>2020-07-01T08:54:34Z</time>
      </trkpt>
      <trkpt lat="49.0137040" lon="1.5271530">
        <ele>129.8</ele>
        <time>2020-07-01T08:54:37Z</time>
      </trkpt>
      <trkpt lat="49.0136190" lon="1.5270600">
        <ele>129.4</ele>
        <time>2020-07-01T08:54:41Z</time>
      </trkpt>
      <trkpt lat="49.0134800" lon="1.5269330">
        <ele>129.4</ele>
        <time>2020-07-01T08:54:46Z</time>
      </trkpt>
      <trkpt lat="49.0133680" lon="1.5268220">
        <ele>129.2</ele>
        <time>2020-07-01T08:54:49Z</time>
      </trkpt>
      <trkpt lat="49.0133300" lon="1.5267850">
        <ele>129.0</ele>
        <time>2020-07-01T08:54:50Z</time>
      </trkpt>
      <trkpt lat="49.0132130" lon="1.5266630">
        <ele>128.6</ele>
        <time>2020-07-01T08:54:53Z</time>
      </trkpt>
      <trkpt lat="49.0131330" lon="1.5265780">
        <ele>128.4</ele>
        <time>2020-07-01T08:54:55Z</time>
      </trkpt>
      <trkpt lat="49.0129030" lon="1.5263510">
        <ele>127.6</ele>
        <time>2020-07-01T08:55:00Z</time>
      </trkpt>
      <trkpt lat="49.0126800" lon="1.5261250">
        <ele>126.8</ele>
        <time>2020-07-01T08:55:05Z</time>
      </trkpt>
      <trkpt lat="49.0121950" lon="1.5256380">
        <ele>126.0</ele>
        <time>2020-07-01T08:55:17Z</time>
      </trkpt>
      <trkpt lat="49.0120730" lon="1.5255190">
        <ele>126.0</ele>
        <time>2020-07-01T08:55:20Z</time>
      </trkpt>
      <trkpt lat="49.0119940" lon="1.5254390">
        <ele>125.8</ele>
        <time>2020-07-01T08:55:22Z</time>
      </trkpt>
      <trkpt lat="49.0119160" lon="1.5253580">
        <ele>125.4</ele>
        <time>2020-07-01T08:55:24Z</time>
      </trkpt>
      <trkpt lat="49.0116320" lon="1.5250690">
        <ele>125.2</ele>
        <time>2020-07-01T08:55:31Z</time>
      </trkpt>
      <trkpt lat="49.0113410" lon="1.5247590">
        <ele>124.6</ele>
        <time>2020-07-01T08:55:38Z</time>
      </trkpt>
      <trkpt lat="49.0111820" lon="1.5245830">
        <ele>124.2</ele>
        <time>2020-07-01T08:55:42Z</time>
      </trkpt>
      <trkpt lat="49.0111460" lon="1.5245390">
        <ele>124.2</ele>
        <time>2020-07-01T08:55:43Z</time>
      </trkpt>
      <trkpt lat="49.0111090" lon="1.5244930">
        <ele>124.0</ele>
        <time>2020-07-01T08:55:44Z</time>
      </trkpt>
      <trkpt lat="49.0107700" lon="1.5240690">
        <ele>123.0</ele>
        <time>2020-07-01T08:55:53Z</time>
      </trkpt>
      <trkpt lat="49.0107350" lon="1.5240200">
        <ele>122.8</ele>
        <time>2020-07-01T08:55:54Z</time>
      </trkpt>
      <trkpt lat="49.0104480" lon="1.5236320">
        <ele>122.4</ele>
        <time>2020-07-01T08:56:02Z</time>
      </trkpt>
      <trkpt lat="49.0103730" lon="1.5235380">
        <ele>122.6</ele>
        <time>2020-07-01T08:56:04Z</time>
      </trkpt>
      <trkpt lat="49.0103340" lon="1.5234900">
        <ele>122.4</ele>
        <time>2020-07-01T08:56:05Z</time>
      </trkpt>
      <trkpt lat="49.0099010" lon="1.5229200">
        <ele>122.0</ele>
        <time>2020-07-01T08:56:16Z</time>
      </trkpt>
      <trkpt lat="49.0095920" lon="1.5225620">
        <ele>121.6</ele>
        <time>2020-07-01T08:56:24Z</time>
      </trkpt>
      <trkpt lat="49.0095450" lon="1.5225350">
        <ele>121.6</ele>
        <time>2020-07-01T08:56:25Z</time>
      </trkpt>
      <trkpt lat="49.0093820" lon="1.5225250">
        <ele>121.6</ele>
        <time>2020-07-01T08:56:28Z</time>
      </trkpt>
      <trkpt lat="49.0093290" lon="1.5225340">
        <ele>121.4</ele>
        <time>2020-07-01T08:56:29Z</time>
      </trkpt>
      <trkpt lat="49.0091120" lon="1.5225860">
        <ele>121.2</ele>
        <time>2020-07-01T08:56:33Z</time>
      </trkpt>
      <trkpt lat="49.0089500" lon="1.5226400">
        <ele>120.8</ele>
        <time>2020-07-01T08:56:36Z</time>
      </trkpt>
      <trkpt lat="49.0083900" lon="1.5228210">
        <ele>120.0</ele>
        <time>2020-07-01T08:56:46Z</time>
      </trkpt>
      <trkpt lat="49.0083310" lon="1.5228410">
        <ele>120.0</ele>
        <time>2020-07-01T08:56:47Z</time>
      </trkpt>
      <trkpt lat="49.0082710" lon="1.5228580">
        <ele>119.8</ele>
        <time>2020-07-01T08:56:48Z</time>
      </trkpt>
      <trkpt lat="49.0080350" lon="1.5229130">
        <ele>119.4</ele>
        <time>2020-07-01T08:56:52Z</time>
      </trkpt>
      <trkpt lat="49.0079800" lon="1.5229340">
        <ele>119.4</ele>
        <time>2020-07-01T08:56:53Z</time>
      </trkpt>
      <trkpt lat="49.0079220" lon="1.5229520">
        <ele>119.4</ele>
        <time>2020-07-01T08:56:54Z</time>
      </trkpt>
      <trkpt lat="49.0076800" lon="1.5229650">
        <ele>119.2</ele>
        <time>2020-07-01T08:56:58Z</time>
      </trkpt>
      <trkpt lat="49.0076220" lon="1.5229530">
        <ele>119.2</ele>
        <time>2020-07-01T08:56:59Z</time>
      </trkpt>
      <trkpt lat="49.0075660" lon="1.5229250">
        <ele>119.2</ele>
        <time>2020-07-01T08:57:00Z</time>
      </trkpt>
      <trkpt lat="49.0074590" lon="1.5228290">
        <ele>118.8</ele>
        <time>2020-07-01T08:57:02Z</time>
      </trkpt>
      <trkpt lat="49.0074130" lon="1.5227650">
        <ele>118.4</ele>
        <time>2020-07-01T08:57:03Z</time>
      </trkpt>
      <trkpt lat="49.0072130" lon="1.5224390">
        <ele>118.2</ele>
        <time>2020-07-01T08:57:08Z</time>
      </trkpt>
      <trkpt lat="49.0071050" lon="1.5222560">
        <ele>118.6</ele>
        <time>2020-07-01T08:57:11Z</time>
      </trkpt>
      <trkpt lat="49.0068970" lon="1.5219340">
        <ele>118.8</ele>
        <time>2020-07-01T08:57:17Z</time>
      </trkpt>
      <trkpt lat="49.0068630" lon="1.5218820">
        <ele>118.6</ele>
        <time>2020-07-01T08:57:18Z</time>
      </trkpt>
      <trkpt lat="49.0065040" lon="1.5213330">
        <ele>118.2</ele>
        <time>2020-07-01T08:57:29Z</time>
      </trkpt>
      <trkpt lat="49.0064330" lon="1.5212460">
        <ele>118.2</ele>
        <time>2020-07-01T08:57:31Z</time>
      </trkpt>
      <trkpt lat="49.0062180" lon="1.5210080">
        <ele>118.4</ele>
        <time>2020-07-01T08:57:37Z</time>
      </trkpt>
      <trkpt lat="49.0061850" lon="1.5209730">
        <ele>118.4</ele>
        <time>2020-07-01T08:57:38Z</time>
      </trkpt>
      <trkpt lat="49.0058270" lon="1.5206030">
        <ele>120.4</ele>
        <time>2020-07-01T08:57:49Z</time>
      </trkpt>
      <trkpt lat="49.0055780" lon="1.5203280">
        <ele>120.6</ele>
        <time>2020-07-01T08:57:57Z</time>
      </trkpt>
      <trkpt lat="49.0054270" lon="1.5201610">
        <ele>120.6</ele>
        <time>2020-07-01T08:58:02Z</time>
      </trkpt>
      <trkpt lat="49.0051840" lon="1.5198810">
        <ele>121.6</ele>
        <time>2020-07-01T08:58:10Z</time>
      </trkpt>
      <trkpt lat="49.0049860" lon="1.5196400">
        <ele>122.2</ele>
        <time>2020-07-01T08:58:17Z</time>
      </trkpt>
      <trkpt lat="49.0047370" lon="1.5194000">
        <ele>123.4</ele>
        <time>2020-07-01T08:58:26Z</time>
      </trkpt>
      <trkpt lat="49.0044940" lon="1.5191360">
        <ele>124.0</ele>
        <time>2020-07-01T08:58:36Z</time>
      </trkpt>
      <trkpt lat="49.0044190" lon="1.5190650">
        <ele>124.2</ele>
        <time>2020-07-01T08:58:39Z</time>
      </trkpt>
      <trkpt lat="49.0042030" lon="1.5188680">
        <ele>124.8</ele>
        <time>2020-07-01T08:58:48Z</time>
      </trkpt>
      <trkpt lat="49.0041020" lon="1.5187850">
        <ele>125.4</ele>
        <time>2020-07-01T08:58:52Z</time>
      </trkpt>
      <trkpt lat="49.0040020" lon="1.5187060">
        <ele>125.4</ele>
        <time>2020-07-01T08:58:56Z</time>
      </trkpt>
      <trkpt lat="49.0038930" lon="1.5186360">
        <ele>125.8</ele>
        <time>2020-07-01T08:59:00Z</time>
      </trkpt>
      <trkpt lat="49.0036120" lon="1.5184700">
        <ele>127.8</ele>
        <time>2020-07-01T08:59:10Z</time>
      </trkpt>
      <trkpt lat="49.0033700" lon="1.5184090">
        <ele>128.0</ele>
        <time>2020-07-01T08:59:17Z</time>
      </trkpt>
      <trkpt lat="49.0032980" lon="1.5183960">
        <ele>128.0</ele>
        <time>2020-07-01T08:59:19Z</time>
      </trkpt>
      <trkpt lat="49.0030640" lon="1.5183880">
        <ele>128.2</ele>
        <time>2020-07-01T08:59:25Z</time>
      </trkpt>
      <trkpt lat="49.0029420" lon="1.5183630">
        <ele>128.4</ele>
        <time>2020-07-01T08:59:28Z</time>
      </trkpt>
      <trkpt lat="49.0028580" lon="1.5183320">
        <ele>128.2</ele>
        <time>2020-07-01T08:59:30Z</time>
      </trkpt>
      <trkpt lat="49.0027760" lon="1.5183010">
        <ele>128.2</ele>
        <time>2020-07-01T08:59:32Z</time>
      </trkpt>
      <trkpt lat="49.0025360" lon="1.5181600">
        <ele>127.8</ele>
        <time>2020-07-01T08:59:38Z</time>
      </trkpt>
      <trkpt lat="49.0024150" lon="1.5180670">
        <ele>126.4</ele>
        <time>2020-07-01T08:59:41Z</time>
      </trkpt>
      <trkpt lat="49.0021710" lon="1.5178880">
        <ele>125.0</ele>
        <time>2020-07-01T08:59:47Z</time>
      </trkpt>
      <trkpt lat="49.0019760" lon="1.5177350">
        <ele>124.4</ele>
        <time>2020-07-01T08:59:52Z</time>
      </trkpt>
      <trkpt lat="49.0014970" lon="1.5173750">
        <ele>124.0</ele>
        <time>2020-07-01T09:00:04Z</time>
      </trkpt>
      <trkpt lat="49.0010260" lon="1.5169980">
        <ele>124.0</ele>
        <time>2020-07-01T09:00:16Z</time>
      </trkpt>
      <trkpt lat="49.0008730" lon="1.5168690">
        <ele>124.0</ele>
        <time>2020-07-01T09:00:20Z</time>
      </trkpt>
      <trkpt lat="49.0006830" lon="1.5167210">
        <ele>124.0</ele>
        <time>2020-07-01T09:00:25Z</time>
      </trkpt>
      <trkpt lat="49.0003510" lon="1.5164760">
        <ele>124.2</ele>
        <time>2020-07-01T09:00:34Z</time>
      </trkpt>
      <trkpt lat="49.0002010" lon="1.5163700">
        <ele>124.2</ele>
        <time>2020-07-01T09:00:38Z</time>
      </trkpt>
      <trkpt lat="48.9998370" lon="1.5161000">
        <ele>125.2</ele>
        <time>2020-07-01T09:00:48Z</time>
      </trkpt>
      <trkpt lat="48.9995360" lon="1.5159910">
        <ele>125.6</ele>
        <time>2020-07-01T09:00:56Z</time>
      </trkpt>
      <trkpt lat="48.9994220" lon="1.5159730">
        <ele>125.6</ele>
        <time>2020-07-01T09:00:59Z</time>
      </trkpt>
      <trkpt lat="48.9992270" lon="1.5159420">
        <ele>126.2</ele>
        <time>2020-07-01T09:01:05Z</time>
      </trkpt>
      <trkpt lat="48.9991100" lon="1.5159300">
        <ele>126.8</ele>
        <time>2020-07-01T09:01:09Z</time>
      </trkpt>
      <trkpt lat="48.9989230" lon="1.5158970">
        <ele>127.8</ele>
        <time>2020-07-01T09:01:16Z</time>
      </trkpt>
      <trkpt lat="48.9988690" lon="1.5158970">
        <ele>127.8</ele>
        <time>2020-07-01T09:01:18Z</time>
      </trkpt>
      <trkpt lat="48.9985940" lon="1.5158620">
        <ele>129.2</ele>
        <time>2020-07-01T09:01:28Z</time>
      </trkpt>
      <trkpt lat="48.9984830" lon="1.5158470">
        <ele>129.4</ele>
        <time>2020-07-01T09:01:32Z</time>
      </trkpt>
      <trkpt lat="48.9982860" lon="1.5158220">
        <ele>130.0</ele>
        <time>2020-07-01T09:01:39Z</time>
      </trkpt>
      <trkpt lat="48.9982290" lon="1.5158190">
        <ele>130.2</ele>
        <time>2020-07-01T09:01:41Z</time>
      </trkpt>
      <trkpt lat="48.9978710" lon="1.5157760">
        <ele>131.6</ele>
        <time>2020-07-01T09:01:54Z</time>
      </trkpt>
      <trkpt lat="48.9977880" lon="1.5157660">
        <ele>131.8</ele>
        <time>2020-07-01T09:01:57Z</time>
      </trkpt>
      <trkpt lat="48.9975870" lon="1.5157470">
        <ele>132.6</ele>
        <time>2020-07-01T09:02:04Z</time>
      </trkpt>
      <trkpt lat="48.9973850" lon="1.5157190">
        <ele>133.2</ele>
        <time>2020-07-01T09:02:11Z</time>
      </trkpt>
      <trkpt lat="48.9972110" lon="1.5157070">
        <ele>134.0</ele>
        <time>2020-07-01T09:02:17Z</time>
      </trkpt>
      <trkpt lat="48.9970320" lon="1.5156880">
        <ele>134.6</ele>
        <time>2020-07-01T09:02:23Z</time>
      </trkpt>
      <trkpt lat="48.9968510" lon="1.5156590">
        <ele>135.2</ele>
        <time>2020-07-01T09:02:29Z</time>
      </trkpt>
      <trkpt lat="48.9965970" lon="1.5156310">
        <ele>135.8</ele>
        <time>2020-07-01T09:02:38Z</time>
      </trkpt>
      <trkpt lat="48.9964480" lon="1.5156090">
        <ele>136.8</ele>
        <time>2020-07-01T09:02:43Z</time>
      </trkpt>
      <trkpt lat="48.9963270" lon="1.5155970">
        <ele>136.6</ele>
        <time>2020-07-01T09:02:47Z</time>
      </trkpt>
      <trkpt lat="48.9961410" lon="1.5155800">
        <ele>136.6</ele>
        <time>2020-07-01T09:02:53Z</time>
      </trkpt>
      <trkpt lat="48.9961110" lon="1.5155760">
        <ele>136.6</ele>
        <time>2020-07-01T09:02:54Z</time>
      </trkpt>
      <trkpt lat="48.9960510" lon="1.5155730">
        <ele>136.6</ele>
        <time>2020-07-01T09:02:56Z</time>
      </trkpt>
      <trkpt lat="48.9960230" lon="1.5155680">
        <ele>136.8</ele>
        <time>2020-07-01T09:02:57Z</time>
      </trkpt>
      <trkpt lat="48.9959670" lon="1.5155650">
        <ele>136.8</ele>
        <time>2020-07-01T09:02:59Z</time>
      </trkpt>
      <trkpt lat="48.9958950" lon="1.5155610">
        <ele>136.8</ele>
        <time>2020-07-01T09:03:02Z</time>
      </trkpt>
      <trkpt lat="48.9957810" lon="1.5155480">
        <ele>137.0</ele>
        <time>2020-07-01T09:03:08Z</time>
      </trkpt>
      <trkpt lat="48.9957550" lon="1.5155490">
        <ele>136.8</ele>
        <time>2020-07-01T09:03:09Z</time>
      </trkpt>
      <trkpt lat="48.9957290" lon="1.5155480">
        <ele>137.0</ele>
        <time>2020-07-01T09:03:10Z</time>
      </trkpt>
      <trkpt lat="48.9954420" lon="1.5155150">
        <ele>137.0</ele>
        <time>2020-07-01T09:03:19Z</time>
      </trkpt>
      <trkpt lat="48.9950520" lon="1.5154310">
        <ele>137.2</ele>
        <time>2020-07-01T09:03:29Z</time>
      </trkpt>
      <trkpt lat="48.9946880" lon="1.5154340">
        <ele>137.4</ele>
        <time>2020-07-01T09:03:38Z</time>
      </trkpt>
      <trkpt lat="48.9945290" lon="1.5156130">
        <ele>137.0</ele>
        <time>2020-07-01T09:03:44Z</time>
      </trkpt>
      <trkpt lat="48.9943740" lon="1.5158540">
        <ele>136.6</ele>
        <time>2020-07-01T09:03:50Z</time>
      </trkpt>
      <trkpt lat="48.9943450" lon="1.5158910">
        <ele>136.6</ele>
        <time>2020-07-01T09:03:51Z</time>
      </trkpt>
      <trkpt lat="48.9941960" lon="1.5160590">
        <ele>136.4</ele>
        <time>2020-07-01T09:03:56Z</time>
      </trkpt>
      <trkpt lat="48.9941670" lon="1.5160650">
        <ele>136.2</ele>
        <time>2020-07-01T09:03:57Z</time>
      </trkpt>
      <trkpt lat="48.9941420" lon="1.5160530">
        <ele>136.2</ele>
        <time>2020-07-01T09:03:58Z</time>
      </trkpt>
      <trkpt lat="48.9941200" lon="1.5160250">
        <ele>136.0</ele>
        <time>2020-07-01T09:03:59Z</time>
      </trkpt>
      <trkpt lat="48.9940180" lon="1.5157700">
        <ele>135.8</ele>
        <time>2020-07-01T09:04:04Z</time>
      </trkpt>
      <trkpt lat="48.9937880" lon="1.5152630">
        <ele>134.4</ele>
        <time>2020-07-01T09:04:14Z</time>
      </trkpt>
      <trkpt lat="48.9936900" lon="1.5149390">
        <ele>134.6</ele>
        <time>2020-07-01T09:04:20Z</time>
      </trkpt>
      <trkpt lat="48.9936820" lon="1.5148810">
        <ele>135.0</ele>
        <time>2020-07-01T09:04:21Z</time>
      </trkpt>
      <trkpt lat="48.9936280" lon="1.5146050">
        <ele>135.2</ele>
        <time>2020-07-01T09:04:26Z</time>
      </trkpt>
      <trkpt lat="48.9935940" lon="1.5144740">
        <ele>135.4</ele>
        <time>2020-07-01T09:04:29Z</time>
      </trkpt>
      <trkpt lat="48.9935490" lon="1.5142650">
        <ele>136.0</ele>
        <time>2020-07-01T09:04:35Z</time>
      </trkpt>
      <trkpt lat="48.9934740" lon="1.5141050">
        <ele>137.0</ele>
        <time>2020-07-01T09:04:40Z</time>
      </trkpt>
      <trkpt lat="48.9933880" lon="1.5139440">
        <ele>137.0</ele>
        <time>2020-07-01T09:04:44Z</time>
      </trkpt>
      <trkpt lat="48.9932680" lon="1.5138430">
        <ele>137.0</ele>
        <time>2020-07-01T09:04:48Z</time>
      </trkpt>
      <trkpt lat="48.9931250" lon="1.5138620">
        <ele>137.2</ele>
        <time>2020-07-01T09:04:52Z</time>
      </trkpt>
      <trkpt lat="48.9930550" lon="1.5139230">
        <ele>136.8</ele>
        <time>2020-07-01T09:04:54Z</time>
      </trkpt>
      <trkpt lat="48.9929560" lon="1.5140360">
        <ele>136.6</ele>
        <time>2020-07-01T09:04:57Z</time>
      </trkpt>
      <trkpt lat="48.9928710" lon="1.5140620">
        <ele>136.4</ele>
        <time>2020-07-01T09:04:59Z</time>
      </trkpt>
      <trkpt lat="48.9927840" lon="1.5140340">
        <ele>136.0</ele>
        <time>2020-07-01T09:05:01Z</time>
      </trkpt>
      <trkpt lat="48.9926060" lon="1.5138290">
        <ele>135.2</ele>
        <time>2020-07-01T09:05:06Z</time>
      </trkpt>
      <trkpt lat="48.9924730" lon="1.5136480">
        <ele>134.6</ele>
        <time>2020-07-01T09:05:10Z</time>
      </trkpt>
      <trkpt lat="48.9923440" lon="1.5134680">
        <ele>134.0</ele>
        <time>2020-07-01T09:05:14Z</time>
      </trkpt>
      <trkpt lat="48.9923100" lon="1.5134160">
        <ele>134.0</ele>
        <time>2020-07-01T09:05:15Z</time>
      </trkpt>
      <trkpt lat="48.9922450" lon="1.5133180">
        <ele>133.6</ele>
        <time>2020-07-01T09:05:17Z</time>
      </trkpt>
      <trkpt lat="48.9920600" lon="1.5130310">
        <ele>133.2</ele>
        <time>2020-07-01T09:05:23Z</time>
      </trkpt>
      <trkpt lat="48.9919750" lon="1.5129820">
        <ele>133.2</ele>
        <time>2020-07-01T09:05:25Z</time>
      </trkpt>
      <trkpt lat="48.9918710" lon="1.5129980">
        <ele>132.8</ele>
        <time>2020-07-01T09:05:27Z</time>
      </trkpt>
      <trkpt lat="48.9917700" lon="1.5130520">
        <ele>132.6</ele>
        <time>2020-07-01T09:05:29Z</time>
      </trkpt>
      <trkpt lat="48.9916730" lon="1.5131420">
        <ele>132.6</ele>
        <time>2020-07-01T09:05:31Z</time>
      </trkpt>
      <trkpt lat="48.9916280" lon="1.5131950">
        <ele>132.4</ele>
        <time>2020-07-01T09:05:32Z</time>
      </trkpt>
      <trkpt lat="48.9915050" lon="1.5133270">
        <ele>132.4</ele>
        <time>2020-07-01T09:05:35Z</time>
      </trkpt>
      <trkpt lat="48.9914110" lon="1.5134320">
        <ele>132.2</ele>
        <time>2020-07-01T09:05:37Z</time>
      </trkpt>
      <trkpt lat="48.9911290" lon="1.5137250">
        <ele>131.4</ele>
        <time>2020-07-01T09:05:43Z</time>
      </trkpt>
      <trkpt lat="48.9910840" lon="1.5137740">
        <ele>131.4</ele>
        <time>2020-07-01T09:05:44Z</time>
      </trkpt>
      <trkpt lat="48.9907230" lon="1.5141500">
        <ele>130.4</ele>
        <time>2020-07-01T09:05:52Z</time>
      </trkpt>
      <trkpt lat="48.9903020" lon="1.5145160">
        <ele>129.4</ele>
        <time>2020-07-01T09:06:02Z</time>
      </trkpt>
      <trkpt lat="48.9899880" lon="1.5146470">
        <ele>129.6</ele>
        <time>2020-07-01T09:06:09Z</time>
      </trkpt>
      <trkpt lat="48.9899410" lon="1.5146590">
        <ele>129.6</ele>
        <time>2020-07-01T09:06:10Z</time>
      </trkpt>
      <trkpt lat="48.9895840" lon="1.5146550">
        <ele>130.0</ele>
        <time>2020-07-01T09:06:18Z</time>
      </trkpt>
      <trkpt lat="48.9893610" lon="1.5145270">
        <ele>130.8</ele>
        <time>2020-07-01T09:06:24Z</time>
      </trkpt>
      <trkpt lat="48.9892950" lon="1.5144680">
        <ele>131.0</ele>
        <time>2020-07-01T09:06:26Z</time>
      </trkpt>
      <trkpt lat="48.9890380" lon="1.5142430">
        <ele>132.4</ele>
        <time>2020-07-01T09:06:34Z</time>
      </trkpt>
      <trkpt lat="48.9890130" lon="1.5142140">
        <ele>132.6</ele>
        <time>2020-07-01T09:06:35Z</time>
      </trkpt>
      <trkpt lat="48.9889660" lon="1.5141610">
        <ele>133.2</ele>
        <time>2020-07-01T09:06:37Z</time>
      </trkpt>
      <trkpt lat="48.9888540" lon="1.5140550">
        <ele>133.6</ele>
        <time>2020-07-01T09:06:42Z</time>
      </trkpt>
      <trkpt lat="48.9887700" lon="1.5139810">
        <ele>134.8</ele>
        <time>2020-07-01T09:06:46Z</time>
      </trkpt>
      <trkpt lat="48.9886750" lon="1.5139040">
        <ele>135.2</ele>
        <time>2020-07-01T09:06:50Z</time>
      </trkpt>
      <trkpt lat="48.9886560" lon="1.5138800">
        <ele>135.2</ele>
        <time>2020-07-01T09:06:51Z</time>
      </trkpt>
      <trkpt lat="48.9885580" lon="1.5137740">
        <ele>136.0</ele>
        <time>2020-07-01T09:06:56Z</time>
      </trkpt>
      <trkpt lat="48.9883610" lon="1.5137140">
        <ele>137.4</ele>
        <time>2020-07-01T09:07:03Z</time>
      </trkpt>
      <trkpt lat="48.9883110" lon="1.5136940">
        <ele>137.6</ele>
        <time>2020-07-01T09:07:05Z</time>
      </trkpt>
      <trkpt lat="48.9881780" lon="1.5136260">
        <ele>137.8</ele>
        <time>2020-07-01T09:07:11Z</time>
      </trkpt>
      <trkpt lat="48.9881040" lon="1.5135640">
        <ele>138.2</ele>
        <time>2020-07-01T09:07:15Z</time>
      </trkpt>
      <trkpt lat="48.9880660" lon="1.5135360">
        <ele>138.6</ele>
        <time>2020-07-01T09:07:17Z</time>
      </trkpt>
      <trkpt lat="48.9879790" lon="1.5134370">
        <ele>138.8</ele>
        <time>2020-07-01T09:07:23Z</time>
      </trkpt>
      <trkpt lat="48.9879690" lon="1.5134200">
        <ele>139.0</ele>
        <time>2020-07-01T09:07:24Z</time>
      </trkpt>
      <trkpt lat="48.9879060" lon="1.5133640">
        <ele>139.6</ele>
        <time>2020-07-01T09:07:29Z</time>
      </trkpt>
      <trkpt lat="48.9878860" lon="1.5133530">
        <ele>139.6</ele>
        <time>2020-07-01T09:07:30Z</time>
      </trkpt>
      <trkpt lat="48.9877760" lon="1.5132500">
        <ele>141.0</ele>
        <time>2020-07-01T09:07:37Z</time>
      </trkpt>
      <trkpt lat="48.9877090" lon="1.5132190">
        <ele>142.0</ele>
        <time>2020-07-01T09:07:41Z</time>
      </trkpt>
      <trkpt lat="48.9876810" lon="1.5132040">
        <ele>142.2</ele>
        <time>2020-07-01T09:07:43Z</time>
      </trkpt>
      <trkpt lat="48.9875950" lon="1.5131450">
        <ele>142.6</ele>
        <time>2020-07-01T09:07:48Z</time>
      </trkpt>
      <trkpt lat="48.9875730" lon="1.5131290">
        <ele>142.6</ele>
        <time>2020-07-01T09:07:49Z</time>
      </trkpt>
      <trkpt lat="48.9874550" lon="1.5130770">
        <ele>143.0</ele>
        <time>2020-07-01T09:07:54Z</time>
      </trkpt>
      <trkpt lat="48.9873340" lon="1.5130020">
        <ele>144.0</ele>
        <time>2020-07-01T09:08:01Z</time>
      </trkpt>
      <trkpt lat="48.9872550" lon="1.5129420">
        <ele>144.0</ele>
        <time>2020-07-01T09:08:06Z</time>
      </trkpt>
      <trkpt lat="48.9872250" lon="1.5129220">
        <ele>144.2</ele>
        <time>2020-07-01T09:08:08Z</time>
      </trkpt>
      <trkpt lat="48.9871380" lon="1.5128280">
        <ele>144.8</ele>
        <time>2020-07-01T09:08:14Z</time>
      </trkpt>
      <trkpt lat="48.9870710" lon="1.5127630">
        <ele>145.2</ele>
        <time>2020-07-01T09:08:19Z</time>
      </trkpt>
      <trkpt lat="48.9869620" lon="1.5126820">
        <ele>145.6</ele>
        <time>2020-07-01T09:08:25Z</time>
      </trkpt>
      <trkpt lat="48.9869420" lon="1.5126590">
        <ele>145.8</ele>
        <time>2020-07-01T09:08:26Z</time>
      </trkpt>
      <trkpt lat="48.9868490" lon="1.5125740">
        <ele>146.0</ele>
        <time>2020-07-01T09:08:31Z</time>
      </trkpt>
      <trkpt lat="48.9868300" lon="1.5125720">
        <ele>146.0</ele>
        <time>2020-07-01T09:08:32Z</time>
      </trkpt>
      <trkpt lat="48.9867320" lon="1.5125320">
        <ele>147.2</ele>
        <time>2020-07-01T09:08:39Z</time>
      </trkpt>
      <trkpt lat="48.9867120" lon="1.5125140">
        <ele>147.2</ele>
        <time>2020-07-01T09:08:40Z</time>
      </trkpt>
      <trkpt lat="48.9866480" lon="1.5124410">
        <ele>147.6</ele>
        <time>2020-07-01T09:08:44Z</time>
      </trkpt>
      <trkpt lat="48.9866150" lon="1.5124280">
        <ele>147.6</ele>
        <time>2020-07-01T09:08:46Z</time>
      </trkpt>
      <trkpt lat="48.9865730" lon="1.5123830">
        <ele>148.0</ele>
        <time>2020-07-01T09:08:49Z</time>
      </trkpt>
      <trkpt lat="48.9865030" lon="1.5123320">
        <ele>148.8</ele>
        <time>2020-07-01T09:08:53Z</time>
      </trkpt>
      <trkpt lat="48.9864310" lon="1.5122590">
        <ele>149.6</ele>
        <time>2020-07-01T09:08:58Z</time>
      </trkpt>
      <trkpt lat="48.9864040" lon="1.5122250">
        <ele>150.4</ele>
        <time>2020-07-01T09:09:00Z</time>
      </trkpt>
      <trkpt lat="48.9863020" lon="1.5121190">
        <ele>151.6</ele>
        <time>2020-07-01T09:09:07Z</time>
      </trkpt>
      <trkpt lat="48.9862550" lon="1.5120770">
        <ele>152.0</ele>
        <time>2020-07-01T09:09:10Z</time>
      </trkpt>
      <trkpt lat="48.9862390" lon="1.5120660">
        <ele>152.0</ele>
        <time>2020-07-01T09:09:11Z</time>
      </trkpt>
      <trkpt lat="48.9861630" lon="1.5120240">
        <ele>152.2</ele>
        <time>2020-07-01T09:09:15Z</time>
      </trkpt>
      <trkpt lat="48.9861060" lon="1.5119730">
        <ele>152.4</ele>
        <time>2020-07-01T09:09:19Z</time>
      </trkpt>
      <trkpt lat="48.9860330" lon="1.5119290">
        <ele>152.8</ele>
        <time>2020-07-01T09:09:23Z</time>
      </trkpt>
      <trkpt lat="48.9859720" lon="1.5118750">
        <ele>153.6</ele>
        <time>2020-07-01T09:09:26Z</time>
      </trkpt>
      <trkpt lat="48.9858820" lon="1.5118040">
        <ele>153.8</ele>
        <time>2020-07-01T09:09:31Z</time>
      </trkpt>
      <trkpt lat="48.9858270" lon="1.5117620">
        <ele>154.4</ele>
        <time>2020-07-01T09:09:34Z</time>
      </trkpt>
      <trkpt lat="48.9857070" lon="1.5116710">
        <ele>155.8</ele>
        <time>2020-07-01T09:09:41Z</time>
      </trkpt>
      <trkpt lat="48.9856170" lon="1.5115890">
        <ele>156.4</ele>
        <time>2020-07-01T09:09:46Z</time>
      </trkpt>
      <trkpt lat="48.9855410" lon="1.5115170">
        <ele>156.6</ele>
        <time>2020-07-01T09:09:50Z</time>
      </trkpt>
      <trkpt lat="48.9853750" lon="1.5113540">
        <ele>158.0</ele>
        <time>2020-07-01T09:09:58Z</time>
      </trkpt>
      <trkpt lat="48.9852510" lon="1.5112350">
        <ele>158.6</ele>
        <time>2020-07-01T09:10:04Z</time>
      </trkpt>
      <trkpt lat="48.9851700" lon="1.5111630">
        <ele>159.0</ele>
        <time>2020-07-01T09:10:08Z</time>
      </trkpt>
      <trkpt lat="48.9851030" lon="1.5111010">
        <ele>159.0</ele>
        <time>2020-07-01T09:10:11Z</time>
      </trkpt>
      <trkpt lat="48.9849460" lon="1.5109410">
        <ele>160.2</ele>
        <time>2020-07-01T09:10:19Z</time>
      </trkpt>
      <trkpt lat="48.9847530" lon="1.5107440">
        <ele>161.0</ele>
        <time>2020-07-01T09:10:27Z</time>
      </trkpt>
      <trkpt lat="48.9844680" lon="1.5104850">
        <ele>161.0</ele>
        <time>2020-07-01T09:10:37Z</time>
      </trkpt>
      <trkpt lat="48.9843620" lon="1.5103830">
        <ele>160.8</ele>
        <time>2020-07-01T09:10:40Z</time>
      </trkpt>
      <trkpt lat="48.9843260" lon="1.5103460">
        <ele>160.6</ele>
        <time>2020-07-01T09:10:41Z</time>
      </trkpt>
      <trkpt lat="48.9842570" lon="1.5102790">
        <ele>160.6</ele>
        <time>2020-07-01T09:10:43Z</time>
      </trkpt>
      <trkpt lat="48.9841910" lon="1.5102160">
        <ele>160.4</ele>
        <time>2020-07-01T09:10:45Z</time>
      </trkpt>
      <trkpt lat="48.9839390" lon="1.5098850">
        <ele>159.6</ele>
        <time>2020-07-01T09:10:53Z</time>
      </trkpt>
      <trkpt lat="48.9839070" lon="1.5098440">
        <ele>159.6</ele>
        <time>2020-07-01T09:10:54Z</time>
      </trkpt>
      <trkpt lat="48.9838420" lon="1.5097670">
        <ele>159.6</ele>
        <time>2020-07-01T09:10:56Z</time>
      </trkpt>
      <trkpt lat="48.9837830" lon="1.5096860">
        <ele>159.6</ele>
        <time>2020-07-01T09:10:58Z</time>
      </trkpt>
      <trkpt lat="48.9837180" lon="1.5096090">
        <ele>159.6</ele>
        <time>2020-07-01T09:11:00Z</time>
      </trkpt>
      <trkpt lat="48.9834260" lon="1.5092300">
        <ele>160.0</ele>
        <time>2020-07-01T09:11:09Z</time>
      </trkpt>
      <trkpt lat="48.9833900" lon="1.5091880">
        <ele>160.0</ele>
        <time>2020-07-01T09:11:10Z</time>
      </trkpt>
      <trkpt lat="48.9832450" lon="1.5089650">
        <ele>159.8</ele>
        <time>2020-07-01T09:11:15Z</time>
      </trkpt>
      <trkpt lat="48.9832160" lon="1.5089270">
        <ele>160.2</ele>
        <time>2020-07-01T09:11:16Z</time>
      </trkpt>
      <trkpt lat="48.9831850" lon="1.5088920">
        <ele>160.0</ele>
        <time>2020-07-01T09:11:17Z</time>
      </trkpt>
      <trkpt lat="48.9830510" lon="1.5087260">
        <ele>159.4</ele>
        <time>2020-07-01T09:11:21Z</time>
      </trkpt>
      <trkpt lat="48.9829020" lon="1.5085580">
        <ele>158.4</ele>
        <time>2020-07-01T09:11:25Z</time>
      </trkpt>
      <trkpt lat="48.9828300" lon="1.5084730">
        <ele>158.2</ele>
        <time>2020-07-01T09:11:27Z</time>
      </trkpt>
      <trkpt lat="48.9826670" lon="1.5082130">
        <ele>157.6</ele>
        <time>2020-07-01T09:11:32Z</time>
      </trkpt>
      <trkpt lat="48.9826030" lon="1.5081000">
        <ele>157.6</ele>
        <time>2020-07-01T09:11:34Z</time>
      </trkpt>
      <trkpt lat="48.9823950" lon="1.5076970">
        <ele>157.4</ele>
        <time>2020-07-01T09:11:40Z</time>
      </trkpt>
      <trkpt lat="48.9823530" lon="1.5076230">
        <ele>157.4</ele>
        <time>2020-07-01T09:11:41Z</time>
      </trkpt>
      <trkpt lat="48.9822010" lon="1.5073230">
        <ele>156.6</ele>
        <time>2020-07-01T09:11:45Z</time>
      </trkpt>
      <trkpt lat="48.9821680" lon="1.5072500">
        <ele>156.4</ele>
        <time>2020-07-01T09:11:46Z</time>
      </trkpt>
      <trkpt lat="48.9820450" lon="1.5069650">
        <ele>155.6</ele>
        <time>2020-07-01T09:11:50Z</time>
      </trkpt>
      <trkpt lat="48.9819300" lon="1.5067570">
        <ele>154.6</ele>
        <time>2020-07-01T09:11:53Z</time>
      </trkpt>
      <trkpt lat="48.9818910" lon="1.5066830">
        <ele>154.4</ele>
        <time>2020-07-01T09:11:54Z</time>
      </trkpt>
      <trkpt lat="48.9817610" lon="1.5064740">
        <ele>153.8</ele>
        <time>2020-07-01T09:11:57Z</time>
      </trkpt>
      <trkpt lat="48.9817180" lon="1.5064140">
        <ele>153.6</ele>
        <time>2020-07-01T09:11:58Z</time>
      </trkpt>
      <trkpt lat="48.9814980" lon="1.5060730">
        <ele>152.2</ele>
        <time>2020-07-01T09:12:03Z</time>
      </trkpt>
      <trkpt lat="48.9813170" lon="1.5058400">
        <ele>151.4</ele>
        <time>2020-07-01T09:12:07Z</time>
      </trkpt>
      <trkpt lat="48.9812670" lon="1.5057930">
        <ele>151.2</ele>
        <time>2020-07-01T09:12:08Z</time>
      </trkpt>
      <trkpt lat="48.9812140" lon="1.5057500">
        <ele>151.2</ele>
        <time>2020-07-01T09:12:09Z</time>
      </trkpt>
      <trkpt lat="48.9810120" lon="1.5055820">
        <ele>151.0</ele>
        <time>2020-07-01T09:12:13Z</time>
      </trkpt>
      <trkpt lat="48.9807170" lon="1.5054540">
        <ele>151.0</ele>
        <time>2020-07-01T09:12:19Z</time>
      </trkpt>
      <trkpt lat="48.9804600" lon="1.5054020">
        <ele>151.2</ele>
        <time>2020-07-01T09:12:24Z</time>
      </trkpt>
      <trkpt lat="48.9803510" lon="1.5053840">
        <ele>151.2</ele>
        <time>2020-07-01T09:12:26Z</time>
      </trkpt>
      <trkpt lat="48.9800140" lon="1.5053300">
        <ele>151.8</ele>
        <time>2020-07-01T09:12:33Z</time>
      </trkpt>
      <trkpt lat="48.9799610" lon="1.5053180">
        <ele>151.8</ele>
        <time>2020-07-01T09:12:34Z</time>
      </trkpt>
      <trkpt lat="48.9796640" lon="1.5052070">
        <ele>151.8</ele>
        <time>2020-07-01T09:12:39Z</time>
      </trkpt>
      <trkpt lat="48.9796060" lon="1.5051830">
        <ele>151.6</ele>
        <time>2020-07-01T09:12:40Z</time>
      </trkpt>
      <trkpt lat="48.9795500" lon="1.5051610">
        <ele>151.6</ele>
        <time>2020-07-01T09:12:41Z</time>
      </trkpt>
      <trkpt lat="48.9792480" lon="1.5050470">
        <ele>151.4</ele>
        <time>2020-07-01T09:12:46Z</time>
      </trkpt>
      <trkpt lat="48.9789830" lon="1.5049660">
        <ele>150.4</ele>
        <time>2020-07-01T09:12:50Z</time>
      </trkpt>
      <trkpt lat="48.9789220" lon="1.5049230">
        <ele>150.0</ele>
        <time>2020-07-01T09:12:51Z</time>
      </trkpt>
      <trkpt lat="48.9787870" lon="1.5048220">
        <ele>149.6</ele>
        <time>2020-07-01T09:12:53Z</time>
      </trkpt>
      <trkpt lat="48.9785620" lon="1.5046920">
        <ele>149.2</ele>
        <time>2020-07-01T09:12:56Z</time>
      </trkpt>
      <trkpt lat="48.9783470" lon="1.5045400">
        <ele>148.6</ele>
        <time>2020-07-01T09:12:59Z</time>
      </trkpt>
      <trkpt lat="48.9780500" lon="1.5043330">
        <ele>146.8</ele>
        <time>2020-07-01T09:13:03Z</time>
      </trkpt>
      <trkpt lat="48.9779800" lon="1.5042810">
        <ele>146.8</ele>
        <time>2020-07-01T09:13:04Z</time>
      </trkpt>
      <trkpt lat="48.9774820" lon="1.5038460">
        <ele>145.0</ele>
        <time>2020-07-01T09:13:12Z</time>
      </trkpt>
      <trkpt lat="48.9774240" lon="1.5037940">
        <ele>144.6</ele>
        <time>2020-07-01T09:13:13Z</time>
      </trkpt>
      <trkpt lat="48.9773010" lon="1.5036960">
        <ele>144.2</ele>
        <time>2020-07-01T09:13:15Z</time>
      </trkpt>
      <trkpt lat="48.9771100" lon="1.5035640">
        <ele>143.8</ele>
        <time>2020-07-01T09:13:18Z</time>
      </trkpt>
      <trkpt lat="48.9769190" lon="1.5034400">
        <ele>143.4</ele>
        <time>2020-07-01T09:13:21Z</time>
      </trkpt>
      <trkpt lat="48.9768600" lon="1.5033900">
        <ele>143.0</ele>
        <time>2020-07-01T09:13:22Z</time>
      </trkpt>
      <trkpt lat="48.9764850" lon="1.5030500">
        <ele>140.0</ele>
        <time>2020-07-01T09:13:29Z</time>
      </trkpt>
      <trkpt lat="48.9762760" lon="1.5028730">
        <ele>139.0</ele>
        <time>2020-07-01T09:13:33Z</time>
      </trkpt>
      <trkpt lat="48.9761740" lon="1.5027720">
        <ele>138.8</ele>
        <time>2020-07-01T09:13:35Z</time>
      </trkpt>
      <trkpt lat="48.9761220" lon="1.5027240">
        <ele>138.8</ele>
        <time>2020-07-01T09:13:36Z</time>
      </trkpt>
      <trkpt lat="48.9756650" lon="1.5023440">
        <ele>138.6</ele>
        <time>2020-07-01T09:13:45Z</time>
      </trkpt>
      <trkpt lat="48.9754420" lon="1.5021460">
        <ele>138.2</ele>
        <time>2020-07-01T09:13:50Z</time>
      </trkpt>
      <trkpt lat="48.9753080" lon="1.5020360">
        <ele>138.0</ele>
        <time>2020-07-01T09:13:53Z</time>
      </trkpt>
      <trkpt lat="48.9752640" lon="1.5020000">
        <ele>138.2</ele>
        <time>2020-07-01T09:13:54Z</time>
      </trkpt>
      <trkpt lat="48.9749820" lon="1.5017990">
        <ele>138.0</ele>
        <time>2020-07-01T09:14:00Z</time>
      </trkpt>
      <trkpt lat="48.9748830" lon="1.5017350">
        <ele>137.6</ele>
        <time>2020-07-01T09:14:02Z</time>
      </trkpt>
      <trkpt lat="48.9744720" lon="1.5014410">
        <ele>137.2</ele>
        <time>2020-07-01T09:14:10Z</time>
      </trkpt>
      <trkpt lat="48.9744190" lon="1.5014090">
        <ele>137.0</ele>
        <time>2020-07-01T09:14:11Z</time>
      </trkpt>
      <trkpt lat="48.9743640" lon="1.5013810">
        <ele>136.8</ele>
        <time>2020-07-01T09:14:12Z</time>
      </trkpt>
      <trkpt lat="48.9739880" lon="1.5011480">
        <ele>136.0</ele>
        <time>2020-07-01T09:14:19Z</time>
      </trkpt>
      <trkpt lat="48.9738410" lon="1.5010340">
        <ele>135.4</ele>
        <time>2020-07-01T09:14:22Z</time>
      </trkpt>
      <trkpt lat="48.9737420" lon="1.5009650">
        <ele>135.0</ele>
        <time>2020-07-01T09:14:24Z</time>
      </trkpt>
      <trkpt lat="48.9736920" lon="1.5009280">
        <ele>134.6</ele>
        <time>2020-07-01T09:14:25Z</time>
      </trkpt>
      <trkpt lat="48.9735000" lon="1.5007770">
        <ele>133.6</ele>
        <time>2020-07-01T09:14:29Z</time>
      </trkpt>
      <trkpt lat="48.9733660" lon="1.5006440">
        <ele>133.0</ele>
        <time>2020-07-01T09:14:32Z</time>
      </trkpt>
      <trkpt lat="48.9733250" lon="1.5005960">
        <ele>133.0</ele>
        <time>2020-07-01T09:14:33Z</time>
      </trkpt>
      <trkpt lat="48.9731110" lon="1.5003700">
        <ele>132.6</ele>
        <time>2020-07-01T09:14:38Z</time>
      </trkpt>
      <trkpt lat="48.9730300" lon="1.5002650">
        <ele>132.6</ele>
        <time>2020-07-01T09:14:40Z</time>
      </trkpt>
      <trkpt lat="48.9726090" lon="1.4997750">
        <ele>132.0</ele>
        <time>2020-07-01T09:14:50Z</time>
      </trkpt>
      <trkpt lat="48.9725670" lon="1.4997230">
        <ele>132.0</ele>
        <time>2020-07-01T09:14:51Z</time>
      </trkpt>
      <trkpt lat="48.9725260" lon="1.4996720">
        <ele>132.0</ele>
        <time>2020-07-01T09:14:52Z</time>
      </trkpt>
      <trkpt lat="48.9723070" lon="1.4993900">
        <ele>131.6</ele>
        <time>2020-07-01T09:14:58Z</time>
      </trkpt>
      <trkpt lat="48.9722400" lon="1.4993020">
        <ele>131.6</ele>
        <time>2020-07-01T09:15:00Z</time>
      </trkpt>
      <trkpt lat="48.9721730" lon="1.4992130">
        <ele>130.8</ele>
        <time>2020-07-01T09:15:02Z</time>
      </trkpt>
      <trkpt lat="48.9720500" lon="1.4990670">
        <ele>130.2</ele>
        <time>2020-07-01T09:15:06Z</time>
      </trkpt>
      <trkpt lat="48.9719910" lon="1.4989780">
        <ele>130.4</ele>
        <time>2020-07-01T09:15:08Z</time>
      </trkpt>
      <trkpt lat="48.9719600" lon="1.4989330">
        <ele>130.2</ele>
        <time>2020-07-01T09:15:09Z</time>
      </trkpt>
      <trkpt lat="48.9719290" lon="1.4988880">
        <ele>130.2</ele>
        <time>2020-07-01T09:15:10Z</time>
      </trkpt>
      <trkpt lat="48.9716410" lon="1.4985390">
        <ele>131.2</ele>
        <time>2020-07-01T09:15:18Z</time>
      </trkpt>
      <trkpt lat="48.9712310" lon="1.4981650">
        <ele>132.8</ele>
        <time>2020-07-01T09:15:29Z</time>
      </trkpt>
      <trkpt lat="48.9708090" lon="1.4977900">
        <ele>132.8</ele>
        <time>2020-07-01T09:15:40Z</time>
      </trkpt>
      <trkpt lat="48.9704720" lon="1.4974890">
        <ele>132.2</ele>
        <time>2020-07-01T09:15:49Z</time>
      </trkpt>
      <trkpt lat="48.9704360" lon="1.4974580">
        <ele>132.0</ele>
        <time>2020-07-01T09:15:50Z</time>
      </trkpt>
      <trkpt lat="48.9701410" lon="1.4972060">
        <ele>132.0</ele>
        <time>2020-07-01T09:15:58Z</time>
      </trkpt>
      <trkpt lat="48.9697410" lon="1.4968700">
        <ele>132.2</ele>
        <time>2020-07-01T09:16:10Z</time>
      </trkpt>
      <trkpt lat="48.9697090" lon="1.4968460">
        <ele>132.4</ele>
        <time>2020-07-01T09:16:11Z</time>
      </trkpt>
      <trkpt lat="48.9693090" lon="1.4965200">
        <ele>133.0</ele>
        <time>2020-07-01T09:16:23Z</time>
      </trkpt>
      <trkpt lat="48.9689180" lon="1.4961370">
        <ele>133.8</ele>
        <time>2020-07-01T09:16:35Z</time>
      </trkpt>
      <trkpt lat="48.9685340" lon="1.4957580">
        <ele>134.6</ele>
        <time>2020-07-01T09:16:46Z</time>
      </trkpt>
      <trkpt lat="48.9682330" lon="1.4955110">
        <ele>135.2</ele>
        <time>2020-07-01T09:16:54Z</time>
      </trkpt>
      <trkpt lat="48.9680830" lon="1.4953910">
        <ele>135.2</ele>
        <time>2020-07-01T09:16:58Z</time>
      </trkpt>
      <trkpt lat="48.9677180" lon="1.4950690">
        <ele>135.4</ele>
        <time>2020-07-01T09:17:08Z</time>
      </trkpt>
      <trkpt lat="48.9676420" lon="1.4949940">
        <ele>135.2</ele>
        <time>2020-07-01T09:17:10Z</time>
      </trkpt>
      <trkpt lat="48.9675620" lon="1.4949170">
        <ele>135.0</ele>
        <time>2020-07-01T09:17:12Z</time>
      </trkpt>
      <trkpt lat="48.9674440" lon="1.4948120">
        <ele>135.0</ele>
        <time>2020-07-01T09:17:15Z</time>
      </trkpt>
      <trkpt lat="48.9672550" lon="1.4946380">
        <ele>135.0</ele>
        <time>2020-07-01T09:17:20Z</time>
      </trkpt>
      <trkpt lat="48.9671790" lon="1.4945630">
        <ele>135.0</ele>
        <time>2020-07-01T09:17:22Z</time>
      </trkpt>
      <trkpt lat="48.9670600" lon="1.4944540">
        <ele>135.2</ele>
        <time>2020-07-01T09:17:25Z</time>
      </trkpt>
      <trkpt lat="48.9670180" lon="1.4944100">
        <ele>135.0</ele>
        <time>2020-07-01T09:17:26Z</time>
      </trkpt>
      <trkpt lat="48.9668420" lon="1.4942490">
        <ele>135.2</ele>
        <time>2020-07-01T09:17:30Z</time>
      </trkpt>
      <trkpt lat="48.9666300" lon="1.4940550">
        <ele>135.0</ele>
        <time>2020-07-01T09:17:35Z</time>
      </trkpt>
      <trkpt lat="48.9663800" lon="1.4938280">
        <ele>134.0</ele>
        <time>2020-07-01T09:17:41Z</time>
      </trkpt>
      <trkpt lat="48.9660740" lon="1.4935920">
        <ele>133.2</ele>
        <time>2020-07-01T09:17:48Z</time>
      </trkpt>
      <trkpt lat="48.9659910" lon="1.4935330">
        <ele>133.0</ele>
        <time>2020-07-01T09:17:50Z</time>
      </trkpt>
      <trkpt lat="48.9659510" lon="1.4935010">
        <ele>132.8</ele>
        <time>2020-07-01T09:17:51Z</time>
      </trkpt>
      <trkpt lat="48.9659120" lon="1.4934660">
        <ele>132.6</ele>
        <time>2020-07-01T09:17:52Z</time>
      </trkpt>
      <trkpt lat="48.9657590" lon="1.4933300">
        <ele>132.4</ele>
        <time>2020-07-01T09:17:56Z</time>
      </trkpt>
      <trkpt lat="48.9654760" lon="1.4930540">
        <ele>132.6</ele>
        <time>2020-07-01T09:18:03Z</time>
      </trkpt>
      <trkpt lat="48.9651040" lon="1.4926270">
        <ele>133.2</ele>
        <time>2020-07-01T09:18:12Z</time>
      </trkpt>
      <trkpt lat="48.9648190" lon="1.4921850">
        <ele>133.2</ele>
        <time>2020-07-01T09:18:20Z</time>
      </trkpt>
      <trkpt lat="48.9647860" lon="1.4921290">
        <ele>133.2</ele>
        <time>2020-07-01T09:18:21Z</time>
      </trkpt>
      <trkpt lat="48.9646860" lon="1.4919600">
        <ele>132.8</ele>
        <time>2020-07-01T09:18:24Z</time>
      </trkpt>
      <trkpt lat="48.9644340" lon="1.4915140">
        <ele>131.6</ele>
        <time>2020-07-01T09:18:32Z</time>
      </trkpt>
      <trkpt lat="48.9644040" lon="1.4914570">
        <ele>131.4</ele>
        <time>2020-07-01T09:18:33Z</time>
      </trkpt>
      <trkpt lat="48.9641920" lon="1.4910610">
        <ele>130.6</ele>
        <time>2020-07-01T09:18:40Z</time>
      </trkpt>
      <trkpt lat="48.9640390" lon="1.4907810">
        <ele>130.0</ele>
        <time>2020-07-01T09:18:45Z</time>
      </trkpt>
      <trkpt lat="48.9638780" lon="1.4904920">
        <ele>129.4</ele>
        <time>2020-07-01T09:18:50Z</time>
      </trkpt>
      <trkpt lat="48.9636050" lon="1.4899950">
        <ele>129.2</ele>
        <time>2020-07-01T09:18:59Z</time>
      </trkpt>
      <trkpt lat="48.9635720" lon="1.4899420">
        <ele>129.0</ele>
        <time>2020-07-01T09:19:00Z</time>
      </trkpt>
      <trkpt lat="48.9635120" lon="1.4898390">
        <ele>128.8</ele>
        <time>2020-07-01T09:19:02Z</time>
      </trkpt>
      <trkpt lat="48.9634300" lon="1.4896780">
        <ele>128.8</ele>
        <time>2020-07-01T09:19:05Z</time>
      </trkpt>
      <trkpt lat="48.9632240" lon="1.4892870">
        <ele>128.0</ele>
        <time>2020-07-01T09:19:12Z</time>
      </trkpt>
      <trkpt lat="48.9631600" lon="1.4891810">
        <ele>128.0</ele>
        <time>2020-07-01T09:19:14Z</time>
      </trkpt>
      <trkpt lat="48.9630890" lon="1.4890900">
        <ele>127.8</ele>
        <time>2020-07-01T09:19:16Z</time>
      </trkpt>
      <trkpt lat="48.9630080" lon="1.4890410">
        <ele>127.6</ele>
        <time>2020-07-01T09:19:18Z</time>
      </trkpt>
      <trkpt lat="48.9629210" lon="1.4890030">
        <ele>127.8</ele>
        <time>2020-07-01T09:19:20Z</time>
      </trkpt>
      <trkpt lat="48.9628310" lon="1.4889700">
        <ele>127.4</ele>
        <time>2020-07-01T09:19:22Z</time>
      </trkpt>
      <trkpt lat="48.9627340" lon="1.4889500">
        <ele>127.2</ele>
        <time>2020-07-01T09:19:24Z</time>
      </trkpt>
      <trkpt lat="48.9626300" lon="1.4889390">
        <ele>126.8</ele>
        <time>2020-07-01T09:19:26Z</time>
      </trkpt>
      <trkpt lat="48.9622230" lon="1.4888660">
        <ele>124.8</ele>
        <time>2020-07-01T09:19:34Z</time>
      </trkpt>
      <trkpt lat="48.9619210" lon="1.4888210">
        <ele>123.2</ele>
        <time>2020-07-01T09:19:40Z</time>
      </trkpt>
      <trkpt lat="48.9613750" lon="1.4887680">
        <ele>122.6</ele>
        <time>2020-07-01T09:19:50Z</time>
      </trkpt>
      <trkpt lat="48.9612600" lon="1.4887560">
        <ele>122.4</ele>
        <time>2020-07-01T09:19:52Z</time>
      </trkpt>
      <trkpt lat="48.9612020" lon="1.4887480">
        <ele>122.4</ele>
        <time>2020-07-01T09:19:53Z</time>
      </trkpt>
      <trkpt lat="48.9611420" lon="1.4887390">
        <ele>122.4</ele>
        <time>2020-07-01T09:19:54Z</time>
      </trkpt>
      <trkpt lat="48.9609070" lon="1.4886980">
        <ele>122.0</ele>
        <time>2020-07-01T09:19:58Z</time>
      </trkpt>
      <trkpt lat="48.9606460" lon="1.4886650">
        <ele>121.0</ele>
        <time>2020-07-01T09:20:02Z</time>
      </trkpt>
      <trkpt lat="48.9605780" lon="1.4886580">
        <ele>120.6</ele>
        <time>2020-07-01T09:20:03Z</time>
      </trkpt>
      <trkpt lat="48.9603030" lon="1.4886290">
        <ele>120.0</ele>
        <time>2020-07-01T09:20:07Z</time>
      </trkpt>
      <trkpt lat="48.9602360" lon="1.4886190">
        <ele>119.8</ele>
        <time>2020-07-01T09:20:08Z</time>
      </trkpt>
      <trkpt lat="48.9599140" lon="1.4885930">
        <ele>118.0</ele>
        <time>2020-07-01T09:20:13Z</time>
      </trkpt>
      <trkpt lat="48.9598560" lon="1.4885930">
        <ele>117.4</ele>
        <time>2020-07-01T09:20:14Z</time>
      </trkpt>
      <trkpt lat="48.9597990" lon="1.4885930">
        <ele>117.2</ele>
        <time>2020-07-01T09:20:15Z</time>
      </trkpt>
      <trkpt lat="48.9596910" lon="1.4885990">
        <ele>116.2</ele>
        <time>2020-07-01T09:20:17Z</time>
      </trkpt>
      <trkpt lat="48.9596390" lon="1.4886050">
        <ele>115.8</ele>
        <time>2020-07-01T09:20:18Z</time>
      </trkpt>
      <trkpt lat="48.9595350" lon="1.4886260">
        <ele>115.6</ele>
        <time>2020-07-01T09:20:20Z</time>
      </trkpt>
      <trkpt lat="48.9589870" lon="1.4887730">
        <ele>116.6</ele>
        <time>2020-07-01T09:20:31Z</time>
      </trkpt>
      <trkpt lat="48.9589380" lon="1.4887860">
        <ele>116.6</ele>
        <time>2020-07-01T09:20:32Z</time>
      </trkpt>
      <trkpt lat="48.9585550" lon="1.4888520">
        <ele>117.6</ele>
        <time>2020-07-01T09:20:41Z</time>
      </trkpt>
      <trkpt lat="48.9585160" lon="1.4888570">
        <ele>118.0</ele>
        <time>2020-07-01T09:20:42Z</time>
      </trkpt>
      <trkpt lat="48.9580250" lon="1.4889350">
        <ele>119.6</ele>
        <time>2020-07-01T09:20:55Z</time>
      </trkpt>
      <trkpt lat="48.9579460" lon="1.4889430">
        <ele>119.8</ele>
        <time>2020-07-01T09:20:57Z</time>
      </trkpt>
      <trkpt lat="48.9577100" lon="1.4889810">
        <ele>120.2</ele>
        <time>2020-07-01T09:21:03Z</time>
      </trkpt>
      <trkpt lat="48.9574760" lon="1.4890250">
        <ele>121.2</ele>
        <time>2020-07-01T09:21:09Z</time>
      </trkpt>
      <trkpt lat="48.9574370" lon="1.4890330">
        <ele>121.2</ele>
        <time>2020-07-01T09:21:10Z</time>
      </trkpt>
      <trkpt lat="48.9571180" lon="1.4891060">
        <ele>121.8</ele>
        <time>2020-07-01T09:21:18Z</time>
      </trkpt>
      <trkpt lat="48.9570760" lon="1.4891150">
        <ele>121.8</ele>
        <time>2020-07-01T09:21:19Z</time>
      </trkpt>
      <trkpt lat="48.9569920" lon="1.4891310">
        <ele>122.0</ele>
        <time>2020-07-01T09:21:21Z</time>
      </trkpt>
      <trkpt lat="48.9566440" lon="1.4891430">
        <ele>122.2</ele>
        <time>2020-07-01T09:21:29Z</time>
      </trkpt>
      <trkpt lat="48.9565540" lon="1.4891250">
        <ele>122.2</ele>
        <time>2020-07-01T09:21:31Z</time>
      </trkpt>
      <trkpt lat="48.9563200" lon="1.4890580">
        <ele>121.8</ele>
        <time>2020-07-01T09:21:36Z</time>
      </trkpt>
      <trkpt lat="48.9562290" lon="1.4890220">
        <ele>121.6</ele>
        <time>2020-07-01T09:21:38Z</time>
      </trkpt>
      <trkpt lat="48.9560500" lon="1.4889350">
        <ele>121.2</ele>
        <time>2020-07-01T09:21:42Z</time>
      </trkpt>
      <trkpt lat="48.9556020" lon="1.4887170">
        <ele>121.0</ele>
        <time>2020-07-01T09:21:52Z</time>
      </trkpt>
      <trkpt lat="48.9553980" lon="1.4885990">
        <ele>121.2</ele>
        <time>2020-07-01T09:21:57Z</time>
      </trkpt>
      <trkpt lat="48.9550710" lon="1.4884550">
        <ele>121.4</ele>
        <time>2020-07-01T09:22:05Z</time>
      </trkpt>
      <trkpt lat="48.9546020" lon="1.4882650">
        <ele>122.2</ele>
        <time>2020-07-01T09:22:16Z</time>
      </trkpt>
      <trkpt lat="48.9544760" lon="1.4882170">
        <ele>122.4</ele>
        <time>2020-07-01T09:22:19Z</time>
      </trkpt>
      <trkpt lat="48.9543150" lon="1.4881600">
        <ele>122.6</ele>
        <time>2020-07-01T09:22:23Z</time>
      </trkpt>
      <trkpt lat="48.9541140" lon="1.4880830">
        <ele>122.8</ele>
        <time>2020-07-01T09:22:28Z</time>
      </trkpt>
      <trkpt lat="48.9540340" lon="1.4880540">
        <ele>123.0</ele>
        <time>2020-07-01T09:22:30Z</time>
      </trkpt>
      <trkpt lat="48.9534890" lon="1.4878710">
        <ele>124.0</ele>
        <time>2020-07-01T09:22:43Z</time>
      </trkpt>
      <trkpt lat="48.9534470" lon="1.4878560">
        <ele>124.2</ele>
        <time>2020-07-01T09:22:44Z</time>
      </trkpt>
      <trkpt lat="48.9533250" lon="1.4878210">
        <ele>124.4</ele>
        <time>2020-07-01T09:22:47Z</time>
      </trkpt>
      <trkpt lat="48.9529820" lon="1.4877130">
        <ele>124.6</ele>
        <time>2020-07-01T09:22:56Z</time>
      </trkpt>
      <trkpt lat="48.9525840" lon="1.4876320">
        <ele>125.0</ele>
        <time>2020-07-01T09:23:06Z</time>
      </trkpt>
      <trkpt lat="48.9525430" lon="1.4876230">
        <ele>125.0</ele>
        <time>2020-07-01T09:23:07Z</time>
      </trkpt>
      <trkpt lat="48.9520280" lon="1.4875170">
        <ele>126.2</ele>
        <time>2020-07-01T09:23:20Z</time>
      </trkpt>
      <trkpt lat="48.9519860" lon="1.4875140">
        <ele>126.2</ele>
        <time>2020-07-01T09:23:21Z</time>
      </trkpt>
      <trkpt lat="48.9518180" lon="1.4875140">
        <ele>126.6</ele>
        <time>2020-07-01T09:23:25Z</time>
      </trkpt>
      <trkpt lat="48.9516930" lon="1.4875250">
        <ele>126.4</ele>
        <time>2020-07-01T09:23:28Z</time>
      </trkpt>
      <trkpt lat="48.9516510" lon="1.4875290">
        <ele>126.6</ele>
        <time>2020-07-01T09:23:29Z</time>
      </trkpt>
      <trkpt lat="48.9514820" lon="1.4875530">
        <ele>126.4</ele>
        <time>2020-07-01T09:23:33Z</time>
      </trkpt>
      <trkpt lat="48.9509460" lon="1.4876700">
        <ele>126.2</ele>
        <time>2020-07-01T09:23:46Z</time>
      </trkpt>
      <trkpt lat="48.9506120" lon="1.4877840">
        <ele>126.6</ele>
        <time>2020-07-01T09:23:54Z</time>
      </trkpt>
      <trkpt lat="48.9505260" lon="1.4878270">
        <ele>126.8</ele>
        <time>2020-07-01T09:23:56Z</time>
      </trkpt>
      <trkpt lat="48.9503300" lon="1.4879550">
        <ele>127.2</ele>
        <time>2020-07-01T09:24:01Z</time>
      </trkpt>
      <trkpt lat="48.9501400" lon="1.4880820">
        <ele>127.2</ele>
        <time>2020-07-01T09:24:06Z</time>
      </trkpt>
      <trkpt lat="48.9498730" lon="1.4881580">
        <ele>127.2</ele>
        <time>2020-07-01T09:24:12Z</time>
      </trkpt>
      <trkpt lat="48.9498240" lon="1.4881500">
        <ele>127.2</ele>
        <time>2020-07-01T09:24:13Z</time>
      </trkpt>
      <trkpt lat="48.9497760" lon="1.4881360">
        <ele>127.2</ele>
        <time>2020-07-01T09:24:14Z</time>
      </trkpt>
      <trkpt lat="48.9496830" lon="1.4880860">
        <ele>127.0</ele>
        <time>2020-07-01T09:24:16Z</time>
      </trkpt>
      <trkpt lat="48.9496400" lon="1.4880540">
        <ele>127.0</ele>
        <time>2020-07-01T09:24:17Z</time>
      </trkpt>
      <trkpt lat="48.9496000" lon="1.4880160">
        <ele>127.0</ele>
        <time>2020-07-01T09:24:18Z</time>
      </trkpt>
      <trkpt lat="48.9493700" lon="1.4877210">
        <ele>126.8</ele>
        <time>2020-07-01T09:24:25Z</time>
      </trkpt>
      <trkpt lat="48.9493140" lon="1.4876190">
        <ele>126.6</ele>
        <time>2020-07-01T09:24:27Z</time>
      </trkpt>
      <trkpt lat="48.9490770" lon="1.4872400">
        <ele>126.8</ele>
        <time>2020-07-01T09:24:35Z</time>
      </trkpt>
      <trkpt lat="48.9488040" lon="1.4869260">
        <ele>126.8</ele>
        <time>2020-07-01T09:24:43Z</time>
      </trkpt>
      <trkpt lat="48.9485170" lon="1.4866450">
        <ele>126.8</ele>
        <time>2020-07-01T09:24:51Z</time>
      </trkpt>
      <trkpt lat="48.9483460" lon="1.4864270">
        <ele>127.0</ele>
        <time>2020-07-01T09:24:57Z</time>
      </trkpt>
      <trkpt lat="48.9480870" lon="1.4861250">
        <ele>127.2</ele>
        <time>2020-07-01T09:25:05Z</time>
      </trkpt>
      <trkpt lat="48.9478860" lon="1.4859050">
        <ele>127.2</ele>
        <time>2020-07-01T09:25:12Z</time>
      </trkpt>
      <trkpt lat="48.9478580" lon="1.4858810">
        <ele>127.2</ele>
        <time>2020-07-01T09:25:13Z</time>
      </trkpt>
      <trkpt lat="48.9478010" lon="1.4858010">
        <ele>127.2</ele>
        <time>2020-07-01T09:25:17Z</time>
      </trkpt>
      <trkpt lat="48.9477310" lon="1.4858380">
        <ele>127.4</ele>
        <time>2020-07-01T09:25:21Z</time>
      </trkpt>
      <trkpt lat="48.9475930" lon="1.4860790">
        <ele>128.0</ele>
        <time>2020-07-01T09:25:28Z</time>
      </trkpt>
      <trkpt lat="48.9474740" lon="1.4864240">
        <ele>127.8</ele>
        <time>2020-07-01T09:25:35Z</time>
      </trkpt>
      <trkpt lat="48.9474200" lon="1.4865770">
        <ele>128.0</ele>
        <time>2020-07-01T09:25:38Z</time>
      </trkpt>
      <trkpt lat="48.9473350" lon="1.4868350">
        <ele>127.6</ele>
        <time>2020-07-01T09:25:44Z</time>
      </trkpt>
      <trkpt lat="48.9472910" lon="1.4869060">
        <ele>127.6</ele>
        <time>2020-07-01T09:25:50Z</time>
      </trkpt>
      <trkpt lat="48.9472870" lon="1.4869100">
        <ele>127.8</ele>
        <time>2020-07-01T09:25:51Z</time>
      </trkpt>
      <trkpt lat="48.9472710" lon="1.4869400">
        <ele>128.0</ele>
        <time>2020-07-01T09:25:59Z</time>
      </trkpt>
      <trkpt lat="48.9472670" lon="1.4869680">
        <ele>128.4</ele>
        <time>2020-07-01T09:26:12Z</time>
      </trkpt>
      <trkpt lat="48.9472910" lon="1.4869260">
        <ele>128.0</ele>
        <time>2020-07-01T09:26:25Z</time>
      </trkpt>
      <trkpt lat="48.9472940" lon="1.4869180">
        <ele>128.0</ele>
        <time>2020-07-01T09:26:45Z</time>
      </trkpt>
      <trkpt lat="48.9472930" lon="1.4869110">
        <ele>127.4</ele>
        <time>2020-07-01T09:27:08Z</time>
      </trkpt>
      <trkpt lat="48.9472960" lon="1.4869220">
        <ele>127.8</ele>
        <time>2020-07-01T09:27:33Z</time>
      </trkpt>
      <trkpt lat="48.9472900" lon="1.4869220">
        <ele>127.6</ele>
        <time>2020-07-01T09:28:04Z</time>
      </trkpt>
      <trkpt lat="48.9472940" lon="1.4869210">
        <ele>127.6</ele>
        <time>2020-07-01T09:28:39Z</time>
      </trkpt>
      <trkpt lat="48.9472970" lon="1.4869280">
        <ele>127.6</ele>
        <time>2020-07-01T09:29:11Z</time>
      </trkpt>
      <trkpt lat="48.9473010" lon="1.4869270">
        <ele>127.4</ele>
        <time>2020-07-01T09:29:46Z</time>
      </trkpt>
      <trkpt lat="48.9472920" lon="1.4869240">
        <ele>127.4</ele>
        <time>2020-07-01T09:30:15Z</time>
      </trkpt>
      <trkpt lat="48.9472840" lon="1.4869180">
        <ele>127.2</ele>
        <time>2020-07-01T09:30:22Z</time>
      </trkpt>
      <trkpt lat="48.9472820" lon="1.4869110">
        <ele>127.4</ele>
        <time>2020-07-01T09:30:39Z</time>
      </trkpt>
      <trkpt lat="48.9472860" lon="1.4869030">
        <ele>127.4</ele>
        <time>2020-07-01T09:31:09Z</time>
      </trkpt>
      <trkpt lat="48.9472790" lon="1.4869040">
        <ele>127.4</ele>
        <time>2020-07-01T09:31:42Z</time>
      </trkpt>
      <trkpt lat="48.9472810" lon="1.4868940">
        <ele>127.4</ele>
        <time>2020-07-01T09:32:12Z</time>
      </trkpt>
      <trkpt lat="48.9473250" lon="1.4868590">
        <ele>127.4</ele>
        <time>2020-07-01T09:32:25Z</time>
      </trkpt>
      <trkpt lat="48.9474000" lon="1.4869260">
        <ele>127.2</ele>
        <time>2020-07-01T09:32:37Z</time>
      </trkpt>
      <trkpt lat="48.9474740" lon="1.4870050">
        <ele>127.2</ele>
        <time>2020-07-01T09:32:51Z</time>
      </trkpt>
      <trkpt lat="48.9475190" lon="1.4870160">
        <ele>127.4</ele>
        <time>2020-07-01T09:32:55Z</time>
      </trkpt>
      <trkpt lat="48.9476410" lon="1.4870740">
        <ele>127.6</ele>
        <time>2020-07-01T09:33:06Z</time>
      </trkpt>
      <trkpt lat="48.9477370" lon="1.4869690">
        <ele>127.8</ele>
        <time>2020-07-01T09:33:17Z</time>
      </trkpt>
      <trkpt lat="48.9477990" lon="1.4868630">
        <ele>127.8</ele>
        <time>2020-07-01T09:33:29Z</time>
      </trkpt>
      <trkpt lat="48.9477880" lon="1.4868290">
        <ele>127.8</ele>
        <time>2020-07-01T09:33:31Z</time>
      </trkpt>
      <trkpt lat="48.9477490" lon="1.4867220">
        <ele>127.6</ele>
        <time>2020-07-01T09:33:36Z</time>
      </trkpt>
      <trkpt lat="48.9476230" lon="1.4866450">
        <ele>127.6</ele>
        <time>2020-07-01T09:33:43Z</time>
      </trkpt>
      <trkpt lat="48.9475000" lon="1.4864540">
        <ele>127.6</ele>
        <time>2020-07-01T09:33:52Z</time>
      </trkpt>
      <trkpt lat="48.9475480" lon="1.4862850">
        <ele>127.4</ele>
        <time>2020-07-01T09:33:57Z</time>
      </trkpt>
      <trkpt lat="48.9476400" lon="1.4861310">
        <ele>127.4</ele>
        <time>2020-07-01T09:34:01Z</time>
      </trkpt>
      <trkpt lat="48.9477590" lon="1.4859690">
        <ele>127.6</ele>
        <time>2020-07-01T09:34:06Z</time>
      </trkpt>
      <trkpt lat="48.9478260" lon="1.4858590">
        <ele>127.4</ele>
        <time>2020-07-01T09:34:09Z</time>
      </trkpt>
      <trkpt lat="48.9478500" lon="1.4858380">
        <ele>127.4</ele>
        <time>2020-07-01T09:34:10Z</time>
      </trkpt>
      <trkpt lat="48.9478760" lon="1.4858420">
        <ele>127.4</ele>
        <time>2020-07-01T09:34:11Z</time>
      </trkpt>
      <trkpt lat="48.9480020" lon="1.4859870">
        <ele>127.4</ele>
        <time>2020-07-01T09:34:16Z</time>
      </trkpt>
      <trkpt lat="48.9482270" lon="1.4862880">
        <ele>128.0</ele>
        <time>2020-07-01T09:34:25Z</time>
      </trkpt>
      <trkpt lat="48.9484710" lon="1.4866060">
        <ele>128.4</ele>
        <time>2020-07-01T09:34:35Z</time>
      </trkpt>
      <trkpt lat="48.9487500" lon="1.4869210">
        <ele>128.6</ele>
        <time>2020-07-01T09:34:46Z</time>
      </trkpt>
      <trkpt lat="48.9490000" lon="1.4872340">
        <ele>128.4</ele>
        <time>2020-07-01T09:34:55Z</time>
      </trkpt>
      <trkpt lat="48.9493000" lon="1.4876080">
        <ele>128.2</ele>
        <time>2020-07-01T09:35:05Z</time>
      </trkpt>
      <trkpt lat="48.9496170" lon="1.4880340">
        <ele>128.0</ele>
        <time>2020-07-01T09:35:16Z</time>
      </trkpt>
      <trkpt lat="48.9499090" lon="1.4882500">
        <ele>128.2</ele>
        <time>2020-07-01T09:35:25Z</time>
      </trkpt>
      <trkpt lat="48.9500500" lon="1.4883260">
        <ele>128.2</ele>
        <time>2020-07-01T09:35:29Z</time>
      </trkpt>
      <trkpt lat="48.9502900" lon="1.4884420">
        <ele>128.4</ele>
        <time>2020-07-01T09:35:36Z</time>
      </trkpt>
      <trkpt lat="48.9506760" lon="1.4886790">
        <ele>129.0</ele>
        <time>2020-07-01T09:35:47Z</time>
      </trkpt>
      <trkpt lat="48.9509530" lon="1.4888840">
        <ele>129.2</ele>
        <time>2020-07-01T09:35:56Z</time>
      </trkpt>
      <trkpt lat="48.9509710" lon="1.4889100">
        <ele>129.4</ele>
        <time>2020-07-01T09:36:01Z</time>
      </trkpt>
      <trkpt lat="48.9509390" lon="1.4889330">
        <ele>129.8</ele>
        <time>2020-07-01T09:36:13Z</time>
      </trkpt>
      <trkpt lat="48.9509400" lon="1.4889290">
        <ele>129.6</ele>
        <time>2020-07-01T09:36:36Z</time>
      </trkpt>
      <trkpt lat="48.9509480" lon="1.4889280">
        <ele>129.8</ele>
        <time>2020-07-01T09:36:59Z</time>
      </trkpt>
      <trkpt lat="48.9509850" lon="1.4889080">
        <ele>129.6</ele>
        <time>2020-07-01T09:37:15Z</time>
      </trkpt>
      <trkpt lat="48.9510340" lon="1.4888160">
        <ele>129.6</ele>
        <time>2020-07-01T09:37:27Z</time>
      </trkpt>
      <trkpt lat="48.9510570" lon="1.4888330">
        <ele>129.8</ele>
        <time>2020-07-01T09:37:30Z</time>
      </trkpt>
      <trkpt lat="48.9511040" lon="1.4888890">
        <ele>129.8</ele>
        <time>2020-07-01T09:37:34Z</time>
      </trkpt>
      <trkpt lat="48.9512240" lon="1.4890660">
        <ele>129.8</ele>
        <time>2020-07-01T09:37:41Z</time>
      </trkpt>
      <trkpt lat="48.9512650" lon="1.4891320">
        <ele>130.0</ele>
        <time>2020-07-01T09:37:43Z</time>
      </trkpt>
      <trkpt lat="48.9515480" lon="1.4894950">
        <ele>130.2</ele>
        <time>2020-07-01T09:37:54Z</time>
      </trkpt>
      <trkpt lat="48.9518690" lon="1.4898480">
        <ele>130.8</ele>
        <time>2020-07-01T09:38:07Z</time>
      </trkpt>
      <trkpt lat="48.9520080" lon="1.4899580">
        <ele>131.0</ele>
        <time>2020-07-01T09:38:13Z</time>
      </trkpt>
      <trkpt lat="48.9520560" lon="1.4899830">
        <ele>131.0</ele>
        <time>2020-07-01T09:38:16Z</time>
      </trkpt>
      <trkpt lat="48.9520850" lon="1.4899810">
        <ele>131.0</ele>
        <time>2020-07-01T09:38:22Z</time>
      </trkpt>
      <trkpt lat="48.9520400" lon="1.4900190">
        <ele>131.0</ele>
        <time>2020-07-01T09:38:31Z</time>
      </trkpt>
      <trkpt lat="48.9519910" lon="1.4900400">
        <ele>130.8</ele>
        <time>2020-07-01T09:38:37Z</time>
      </trkpt>
      <trkpt lat="48.9519410" lon="1.4900830">
        <ele>130.6</ele>
        <time>2020-07-01T09:38:46Z</time>
      </trkpt>
      <trkpt lat="48.9519320" lon="1.4900730">
        <ele>130.8</ele>
        <time>2020-07-01T09:38:55Z</time>
      </trkpt>
      <trkpt lat="48.9519340" lon="1.4900290">
        <ele>130.8</ele>
        <time>2020-07-01T09:39:13Z</time>
      </trkpt>
      <trkpt lat="48.9519410" lon="1.4900150">
        <ele>130.8</ele>
        <time>2020-07-01T09:39:31Z</time>
      </trkpt>
      <trkpt lat="48.9519400" lon="1.4900180">
        <ele>130.8</ele>
        <time>2020-07-01T09:39:48Z</time>
      </trkpt>
      <trkpt lat="48.9519430" lon="1.4900100">
        <ele>131.0</ele>
        <time>2020-07-01T09:40:10Z</time>
      </trkpt>
      <trkpt lat="48.9519490" lon="1.4900060">
        <ele>131.0</ele>
        <time>2020-07-01T09:40:47Z</time>
      </trkpt>
      <trkpt lat="48.9519530" lon="1.4899890">
        <ele>131.0</ele>
        <time>2020-07-01T09:41:24Z</time>
      </trkpt>
      <trkpt lat="48.9519580" lon="1.4899800">
        <ele>131.0</ele>
        <time>2020-07-01T09:41:54Z</time>
      </trkpt>
      <trkpt lat="48.9519620" lon="1.4899690">
        <ele>131.0</ele>
        <time>2020-07-01T09:42:23Z</time>
      </trkpt>
      <trkpt lat="48.9519620" lon="1.4899580">
        <ele>131.0</ele>
        <time>2020-07-01T09:42:56Z</time>
      </trkpt>
      <trkpt lat="48.9519610" lon="1.4899430">
        <ele>131.0</ele>
        <time>2020-07-01T09:43:32Z</time>
      </trkpt>
      <trkpt lat="48.9519660" lon="1.4899370">
        <ele>130.8</ele>
        <time>2020-07-01T09:44:09Z</time>
      </trkpt>
      <trkpt lat="48.9519670" lon="1.4899360">
        <ele>131.0</ele>
        <time>2020-07-01T09:44:14Z</time>
      </trkpt>
      <trkpt lat="48.9519710" lon="1.4899330">
        <ele>130.8</ele>
        <time>2020-07-01T09:44:38Z</time>
      </trkpt>
      <trkpt lat="48.9519710" lon="1.4899280">
        <ele>130.8</ele>
        <time>2020-07-01T09:45:06Z</time>
      </trkpt>
      <trkpt lat="48.9519710" lon="1.4899350">
        <ele>130.8</ele>
        <time>2020-07-01T09:45:32Z</time>
      </trkpt>
      <trkpt lat="48.9519680" lon="1.4899360">
        <ele>130.8</ele>
        <time>2020-07-01T09:46:05Z</time>
      </trkpt>
      <trkpt lat="48.9519680" lon="1.4899440">
        <ele>131.0</ele>
        <time>2020-07-01T09:46:38Z</time>
      </trkpt>
      <trkpt lat="48.9519700" lon="1.4899450">
        <ele>130.8</ele>
        <time>2020-07-01T09:47:09Z</time>
      </trkpt>
      <trkpt lat="48.9519730" lon="1.4899430">
        <ele>130.6</ele>
        <time>2020-07-01T09:47:36Z</time>
      </trkpt>
      <trkpt lat="48.9519580" lon="1.4899920">
        <ele>130.6</ele>
        <time>2020-07-01T09:48:03Z</time>
      </trkpt>
      <trkpt lat="48.9519450" lon="1.4900530">
        <ele>130.6</ele>
        <time>2020-07-01T09:48:06Z</time>
      </trkpt>
      <trkpt lat="48.9519070" lon="1.4902010">
        <ele>130.4</ele>
        <time>2020-07-01T09:48:11Z</time>
      </trkpt>
      <trkpt lat="48.9518700" lon="1.4903420">
        <ele>130.6</ele>
        <time>2020-07-01T09:48:15Z</time>
      </trkpt>
      <trkpt lat="48.9518060" lon="1.4904900">
        <ele>130.4</ele>
        <time>2020-07-01T09:48:20Z</time>
      </trkpt>
      <trkpt lat="48.9516450" lon="1.4907010">
        <ele>130.4</ele>
        <time>2020-07-01T09:48:29Z</time>
      </trkpt>
      <trkpt lat="48.9515180" lon="1.4908310">
        <ele>130.6</ele>
        <time>2020-07-01T09:48:37Z</time>
      </trkpt>
      <trkpt lat="48.9515060" lon="1.4908270">
        <ele>130.6</ele>
        <time>2020-07-01T09:48:44Z</time>
      </trkpt>
      <trkpt lat="48.9515130" lon="1.4908180">
        <ele>131.2</ele>
        <time>2020-07-01T09:49:00Z</time>
      </trkpt>
      <trkpt lat="48.9515140" lon="1.4908180">
        <ele>131.0</ele>
        <time>2020-07-01T09:49:04Z</time>
      </trkpt>
      <trkpt lat="48.9515220" lon="1.4908240">
        <ele>131.2</ele>
        <time>2020-07-01T09:49:26Z</time>
      </trkpt>
      <trkpt lat="48.9515280" lon="1.4908320">
        <ele>131.2</ele>
        <time>2020-07-01T09:49:48Z</time>
      </trkpt>
      <trkpt lat="48.9515300" lon="1.4908390">
        <ele>131.0</ele>
        <time>2020-07-01T09:50:02Z</time>
      </trkpt>
      <trkpt lat="48.9515310" lon="1.4908480">
        <ele>130.8</ele>
        <time>2020-07-01T09:50:16Z</time>
      </trkpt>
      <trkpt lat="48.9515330" lon="1.4908470">
        <ele>131.0</ele>
        <time>2020-07-01T09:50:35Z</time>
      </trkpt>
      <trkpt lat="48.9515380" lon="1.4908460">
        <ele>130.8</ele>
        <time>2020-07-01T09:50:56Z</time>
      </trkpt>
      <trkpt lat="48.9515410" lon="1.4908360">
        <ele>131.0</ele>
        <time>2020-07-01T09:51:18Z</time>
      </trkpt>
      <trkpt lat="48.9515450" lon="1.4908320">
        <ele>130.6</ele>
        <time>2020-07-01T09:51:42Z</time>
      </trkpt>
      <trkpt lat="48.9515470" lon="1.4908170">
        <ele>130.8</ele>
        <time>2020-07-01T09:52:09Z</time>
      </trkpt>
      <trkpt lat="48.9515450" lon="1.4908060">
        <ele>131.2</ele>
        <time>2020-07-01T09:52:28Z</time>
      </trkpt>
      <trkpt lat="48.9515480" lon="1.4908000">
        <ele>131.2</ele>
        <time>2020-07-01T09:52:45Z</time>
      </trkpt>
      <trkpt lat="48.9515490" lon="1.4907950">
        <ele>131.2</ele>
        <time>2020-07-01T09:53:04Z</time>
      </trkpt>
      <trkpt lat="48.9515510" lon="1.4907870">
        <ele>131.4</ele>
        <time>2020-07-01T09:53:23Z</time>
      </trkpt>
      <trkpt lat="48.9515530" lon="1.4907800">
        <ele>131.4</ele>
        <time>2020-07-01T09:53:43Z</time>
      </trkpt>
      <trkpt lat="48.9515580" lon="1.4907770">
        <ele>131.4</ele>
        <time>2020-07-01T09:54:05Z</time>
      </trkpt>
      <trkpt lat="48.9515610" lon="1.4907740">
        <ele>131.2</ele>
        <time>2020-07-01T09:54:22Z</time>
      </trkpt>
      <trkpt lat="48.9515630" lon="1.4907620">
        <ele>131.4</ele>
        <time>2020-07-01T09:54:54Z</time>
      </trkpt>
      <trkpt lat="48.9515670" lon="1.4907500">
        <ele>131.4</ele>
        <time>2020-07-01T09:55:22Z</time>
      </trkpt>
      <trkpt lat="48.9515720" lon="1.4907460">
        <ele>131.2</ele>
        <time>2020-07-01T09:55:48Z</time>
      </trkpt>
      <trkpt lat="48.9515740" lon="1.4907400">
        <ele>131.2</ele>
        <time>2020-07-01T09:56:04Z</time>
      </trkpt>
      <trkpt lat="48.9515790" lon="1.4907150">
        <ele>131.0</ele>
        <time>2020-07-01T09:56:24Z</time>
      </trkpt>
      <trkpt lat="48.9515790" lon="1.4907140">
        <ele>131.2</ele>
        <time>2020-07-01T09:56:41Z</time>
      </trkpt>
      <trkpt lat="48.9515860" lon="1.4907080">
        <ele>130.6</ele>
        <time>2020-07-01T09:57:15Z</time>
      </trkpt>
      <trkpt lat="48.9515920" lon="1.4906990">
        <ele>130.8</ele>
        <time>2020-07-01T09:57:36Z</time>
      </trkpt>
      <trkpt lat="48.9515930" lon="1.4906840">
        <ele>130.6</ele>
        <time>2020-07-01T09:57:57Z</time>
      </trkpt>
      <trkpt lat="48.9516000" lon="1.4906780">
        <ele>130.6</ele>
        <time>2020-07-01T09:58:14Z</time>
      </trkpt>
      <trkpt lat="48.9516080" lon="1.4906780">
        <ele>130.8</ele>
        <time>2020-07-01T09:58:31Z</time>
      </trkpt>
      <trkpt lat="48.9516140" lon="1.4906720">
        <ele>130.6</ele>
        <time>2020-07-01T09:58:44Z</time>
      </trkpt>
      <trkpt lat="48.9516220" lon="1.4906630">
        <ele>130.8</ele>
        <time>2020-07-01T09:59:16Z</time>
      </trkpt>
      <trkpt lat="48.9516370" lon="1.4906530">
        <ele>130.8</ele>
        <time>2020-07-01T09:59:50Z</time>
      </trkpt>
      <trkpt lat="48.9516500" lon="1.4906420">
        <ele>130.6</ele>
        <time>2020-07-01T10:00:22Z</time>
      </trkpt>
      <trkpt lat="48.9516660" lon="1.4906300">
        <ele>130.8</ele>
        <time>2020-07-01T10:00:45Z</time>
      </trkpt>
      <trkpt lat="48.9516820" lon="1.4906210">
        <ele>130.8</ele>
        <time>2020-07-01T10:01:20Z</time>
      </trkpt>
      <trkpt lat="48.9516970" lon="1.4906060">
        <ele>130.6</ele>
        <time>2020-07-01T10:01:45Z</time>
      </trkpt>
      <trkpt lat="48.9517100" lon="1.4905890">
        <ele>130.4</ele>
        <time>2020-07-01T10:02:08Z</time>
      </trkpt>
      <trkpt lat="48.9517410" lon="1.4905670">
        <ele>130.4</ele>
        <time>2020-07-01T10:02:28Z</time>
      </trkpt>
      <trkpt lat="48.9517620" lon="1.4906060">
        <ele>130.4</ele>
        <time>2020-07-01T10:02:46Z</time>
      </trkpt>
      <trkpt lat="48.9517670" lon="1.4905960">
        <ele>130.4</ele>
        <time>2020-07-01T10:03:07Z</time>
      </trkpt>
      <trkpt lat="48.9517670" lon="1.4905970">
        <ele>130.4</ele>
        <time>2020-07-01T10:03:16Z</time>
      </trkpt>
      <trkpt lat="48.9517660" lon="1.4906000">
        <ele>130.4</ele>
        <time>2020-07-01T10:03:20Z</time>
      </trkpt>
      <trkpt lat="48.9517600" lon="1.4906160">
        <ele>130.2</ele>
        <time>2020-07-01T10:03:26Z</time>
      </trkpt>
      <trkpt lat="48.9517450" lon="1.4906700">
        <ele>130.4</ele>
        <time>2020-07-01T10:03:41Z</time>
      </trkpt>
      <trkpt lat="48.9517500" lon="1.4906680">
        <ele>130.4</ele>
        <time>2020-07-01T10:03:53Z</time>
      </trkpt>
      <trkpt lat="48.9517570" lon="1.4906820">
        <ele>130.4</ele>
        <time>2020-07-01T10:04:03Z</time>
      </trkpt>
      <trkpt lat="48.9517660" lon="1.4906620">
        <ele>130.6</ele>
        <time>2020-07-01T10:04:07Z</time>
      </trkpt>
      <trkpt lat="48.9517860" lon="1.4906080">
        <ele>130.2</ele>
        <time>2020-07-01T10:04:11Z</time>
      </trkpt>
      <trkpt lat="48.9519070" lon="1.4904510">
        <ele>130.0</ele>
        <time>2020-07-01T10:04:19Z</time>
      </trkpt>
      <trkpt lat="48.9520790" lon="1.4903340">
        <ele>129.6</ele>
        <time>2020-07-01T10:04:27Z</time>
      </trkpt>
      <trkpt lat="48.9522810" lon="1.4902180">
        <ele>129.4</ele>
        <time>2020-07-01T10:04:35Z</time>
      </trkpt>
      <trkpt lat="48.9523970" lon="1.4902630">
        <ele>129.2</ele>
        <time>2020-07-01T10:04:40Z</time>
      </trkpt>
      <trkpt lat="48.9524660" lon="1.4902900">
        <ele>129.0</ele>
        <time>2020-07-01T10:04:46Z</time>
      </trkpt>
      <trkpt lat="48.9524800" lon="1.4902930">
        <ele>129.2</ele>
        <time>2020-07-01T10:04:49Z</time>
      </trkpt>
      <trkpt lat="48.9525120" lon="1.4902800">
        <ele>129.4</ele>
        <time>2020-07-01T10:04:57Z</time>
      </trkpt>
      <trkpt lat="48.9525290" lon="1.4902570">
        <ele>129.4</ele>
        <time>2020-07-01T10:05:11Z</time>
      </trkpt>
      <trkpt lat="48.9525400" lon="1.4902400">
        <ele>129.6</ele>
        <time>2020-07-01T10:05:28Z</time>
      </trkpt>
      <trkpt lat="48.9525260" lon="1.4902280">
        <ele>129.6</ele>
        <time>2020-07-01T10:05:48Z</time>
      </trkpt>
      <trkpt lat="48.9525110" lon="1.4902200">
        <ele>129.8</ele>
        <time>2020-07-01T10:06:05Z</time>
      </trkpt>
      <trkpt lat="48.9525180" lon="1.4902160">
        <ele>129.6</ele>
        <time>2020-07-01T10:06:23Z</time>
      </trkpt>
      <trkpt lat="48.9525170" lon="1.4902410">
        <ele>129.6</ele>
        <time>2020-07-01T10:06:40Z</time>
      </trkpt>
      <trkpt lat="48.9525160" lon="1.4902440">
        <ele>129.8</ele>
        <time>2020-07-01T10:06:56Z</time>
      </trkpt>
      <trkpt lat="48.9525080" lon="1.4902440">
        <ele>130.0</ele>
        <time>2020-07-01T10:07:13Z</time>
      </trkpt>
      <trkpt lat="48.9525050" lon="1.4902360">
        <ele>129.4</ele>
        <time>2020-07-01T10:07:34Z</time>
      </trkpt>
      <trkpt lat="48.9524980" lon="1.4902620">
        <ele>129.4</ele>
        <time>2020-07-01T10:07:51Z</time>
      </trkpt>
      <trkpt lat="48.9525010" lon="1.4902770">
        <ele>129.2</ele>
        <time>2020-07-01T10:08:09Z</time>
      </trkpt>
      <trkpt lat="48.9525000" lon="1.4902860">
        <ele>129.2</ele>
        <time>2020-07-01T10:08:26Z</time>
      </trkpt>
      <trkpt lat="48.9524940" lon="1.4902930">
        <ele>129.2</ele>
        <time>2020-07-01T10:08:43Z</time>
      </trkpt>
      <trkpt lat="48.9525010" lon="1.4903180">
        <ele>129.2</ele>
        <time>2020-07-01T10:09:01Z</time>
      </trkpt>
      <trkpt lat="48.9524830" lon="1.4903190">
        <ele>129.4</ele>
        <time>2020-07-01T10:09:14Z</time>
      </trkpt>
      <trkpt lat="48.9524850" lon="1.4903160">
        <ele>129.4</ele>
        <time>2020-07-01T10:09:31Z</time>
      </trkpt>
      <trkpt lat="48.9524800" lon="1.4903280">
        <ele>129.6</ele>
        <time>2020-07-01T10:09:48Z</time>
      </trkpt>
      <trkpt lat="48.9524780" lon="1.4903300">
        <ele>129.2</ele>
        <time>2020-07-01T10:10:05Z</time>
      </trkpt>
      <trkpt lat="48.9524920" lon="1.4902610">
        <ele>129.0</ele>
        <time>2020-07-01T10:10:21Z</time>
      </trkpt>
      <trkpt lat="48.9524890" lon="1.4902650">
        <ele>129.2</ele>
        <time>2020-07-01T10:10:37Z</time>
      </trkpt>
      <trkpt lat="48.9524910" lon="1.4902590">
        <ele>128.8</ele>
        <time>2020-07-01T10:10:55Z</time>
      </trkpt>
      <trkpt lat="48.9524900" lon="1.4902770">
        <ele>129.0</ele>
        <time>2020-07-01T10:11:12Z</time>
      </trkpt>
      <trkpt lat="48.9524870" lon="1.4902940">
        <ele>129.0</ele>
        <time>2020-07-01T10:11:29Z</time>
      </trkpt>
      <trkpt lat="48.9524900" lon="1.4902880">
        <ele>129.0</ele>
        <time>2020-07-01T10:11:47Z</time>
      </trkpt>
      <trkpt lat="48.9524890" lon="1.4902820">
        <ele>129.0</ele>
        <time>2020-07-01T10:12:04Z</time>
      </trkpt>
      <trkpt lat="48.9524910" lon="1.4902800">
        <ele>128.8</ele>
        <time>2020-07-01T10:12:21Z</time>
      </trkpt>
      <trkpt lat="48.9525010" lon="1.4902280">
        <ele>129.0</ele>
        <time>2020-07-01T10:12:38Z</time>
      </trkpt>
      <trkpt lat="48.9525000" lon="1.4902590">
        <ele>129.0</ele>
        <time>2020-07-01T10:12:54Z</time>
      </trkpt>
      <trkpt lat="48.9524980" lon="1.4902670">
        <ele>128.8</ele>
        <time>2020-07-01T10:13:11Z</time>
      </trkpt>
      <trkpt lat="48.9525010" lon="1.4902350">
        <ele>129.0</ele>
        <time>2020-07-01T10:13:29Z</time>
      </trkpt>
      <trkpt lat="48.9525040" lon="1.4902240">
        <ele>128.8</ele>
        <time>2020-07-01T10:13:46Z</time>
      </trkpt>
      <trkpt lat="48.9525010" lon="1.4902300">
        <ele>129.0</ele>
        <time>2020-07-01T10:14:05Z</time>
      </trkpt>
      <trkpt lat="48.9525050" lon="1.4901830">
        <ele>128.8</ele>
        <time>2020-07-01T10:14:13Z</time>
      </trkpt>
      <trkpt lat="48.9525050" lon="1.4901760">
        <ele>128.8</ele>
        <time>2020-07-01T10:14:14Z</time>
      </trkpt>
      <trkpt lat="48.9525050" lon="1.4901670">
        <ele>129.0</ele>
        <time>2020-07-01T10:14:15Z</time>
      </trkpt>
      <trkpt lat="48.9525070" lon="1.4901640">
        <ele>129.0</ele>
        <time>2020-07-01T10:14:16Z</time>
      </trkpt>
      <trkpt lat="48.9525080" lon="1.4901610">
        <ele>129.0</ele>
        <time>2020-07-01T10:14:17Z</time>
      </trkpt>
      <trkpt lat="48.9525090" lon="1.4901590">
        <ele>128.8</ele>
        <time>2020-07-01T10:14:18Z</time>
      </trkpt>
      <trkpt lat="48.9525000" lon="1.4901670">
        <ele>129.0</ele>
        <time>2020-07-01T10:14:20Z</time>
      </trkpt>
      <trkpt lat="48.9524960" lon="1.4901700">
        <ele>129.0</ele>
        <time>2020-07-01T10:14:21Z</time>
      </trkpt>
      <trkpt lat="48.9524920" lon="1.4901740">
        <ele>129.0</ele>
        <time>2020-07-01T10:14:22Z</time>
      </trkpt>
      <trkpt lat="48.9524890" lon="1.4901770">
        <ele>129.0</ele>
        <time>2020-07-01T10:14:23Z</time>
      </trkpt>
      <trkpt lat="48.9524870" lon="1.4901720">
        <ele>129.0</ele>
        <time>2020-07-01T10:14:24Z</time>
      </trkpt>
      <trkpt lat="48.9524850" lon="1.4901740">
        <ele>128.8</ele>
        <time>2020-07-01T10:14:25Z</time>
      </trkpt>
      <trkpt lat="48.9524820" lon="1.4901770">
        <ele>128.6</ele>
        <time>2020-07-01T10:14:26Z</time>
      </trkpt>
      <trkpt lat="48.9524700" lon="1.4901970">
        <ele>128.6</ele>
        <time>2020-07-01T10:14:29Z</time>
      </trkpt>
      <trkpt lat="48.9524640" lon="1.4902460">
        <ele>129.2</ele>
        <time>2020-07-01T10:14:34Z</time>
      </trkpt>
      <trkpt lat="48.9524740" lon="1.4902710">
        <ele>129.2</ele>
        <time>2020-07-01T10:14:48Z</time>
      </trkpt>
      <trkpt lat="48.9524850" lon="1.4902660">
        <ele>129.2</ele>
        <time>2020-07-01T10:15:02Z</time>
      </trkpt>
      <trkpt lat="48.9524860" lon="1.4902630">
        <ele>129.2</ele>
        <time>2020-07-01T10:15:03Z</time>
      </trkpt>
      <trkpt lat="48.9524870" lon="1.4902560">
        <ele>129.2</ele>
        <time>2020-07-01T10:15:04Z</time>
      </trkpt>
      <trkpt lat="48.9524880" lon="1.4902490">
        <ele>129.2</ele>
        <time>2020-07-01T10:15:05Z</time>
      </trkpt>
      <trkpt lat="48.9524880" lon="1.4902430">
        <ele>129.0</ele>
        <time>2020-07-01T10:15:06Z</time>
      </trkpt>
      <trkpt lat="48.9524860" lon="1.4902430">
        <ele>129.0</ele>
        <time>2020-07-01T10:15:07Z</time>
      </trkpt>
      <trkpt lat="48.9524860" lon="1.4902170">
        <ele>129.2</ele>
        <time>2020-07-01T10:15:08Z</time>
      </trkpt>
      <trkpt lat="48.9524810" lon="1.4902160">
        <ele>129.0</ele>
        <time>2020-07-01T10:15:09Z</time>
      </trkpt>
      <trkpt lat="48.9524790" lon="1.4902100">
        <ele>129.2</ele>
        <time>2020-07-01T10:15:10Z</time>
      </trkpt>
      <trkpt lat="48.9524770" lon="1.4902040">
        <ele>129.2</ele>
        <time>2020-07-01T10:15:11Z</time>
      </trkpt>
      <trkpt lat="48.9524760" lon="1.4901940">
        <ele>129.0</ele>
        <time>2020-07-01T10:15:13Z</time>
      </trkpt>
      <trkpt lat="48.9524760" lon="1.4901880">
        <ele>129.0</ele>
        <time>2020-07-01T10:15:14Z</time>
      </trkpt>
      <trkpt lat="48.9524760" lon="1.4901870">
        <ele>129.2</ele>
        <time>2020-07-01T10:15:15Z</time>
      </trkpt>
      <trkpt lat="48.9524770" lon="1.4901870">
        <ele>129.0</ele>
        <time>2020-07-01T10:15:16Z</time>
      </trkpt>
      <trkpt lat="48.9524850" lon="1.4901920">
        <ele>129.4</ele>
        <time>2020-07-01T10:15:18Z</time>
      </trkpt>
      <trkpt lat="48.9524980" lon="1.4902540">
        <ele>129.2</ele>
        <time>2020-07-01T10:15:27Z</time>
      </trkpt>
      <trkpt lat="48.9525040" lon="1.4902590">
        <ele>129.4</ele>
        <time>2020-07-01T10:15:46Z</time>
      </trkpt>
      <trkpt lat="48.9525080" lon="1.4902590">
        <ele>129.2</ele>
        <time>2020-07-01T10:16:02Z</time>
      </trkpt>
      <trkpt lat="48.9524980" lon="1.4902700">
        <ele>129.0</ele>
        <time>2020-07-01T10:16:17Z</time>
      </trkpt>
      <trkpt lat="48.9524980" lon="1.4902860">
        <ele>129.2</ele>
        <time>2020-07-01T10:16:32Z</time>
      </trkpt>
      <trkpt lat="48.9525000" lon="1.4902750">
        <ele>129.0</ele>
        <time>2020-07-01T10:16:48Z</time>
      </trkpt>
      <trkpt lat="48.9525030" lon="1.4902630">
        <ele>129.2</ele>
        <time>2020-07-01T10:17:03Z</time>
      </trkpt>
      <trkpt lat="48.9525100" lon="1.4902290">
        <ele>129.2</ele>
        <time>2020-07-01T10:17:16Z</time>
      </trkpt>
      <trkpt lat="48.9524980" lon="1.4902560">
        <ele>129.0</ele>
        <time>2020-07-01T10:17:31Z</time>
      </trkpt>
      <trkpt lat="48.9525000" lon="1.4902240">
        <ele>128.8</ele>
        <time>2020-07-01T10:17:52Z</time>
      </trkpt>
      <trkpt lat="48.9525010" lon="1.4901950">
        <ele>128.8</ele>
        <time>2020-07-01T10:18:07Z</time>
      </trkpt>
      <trkpt lat="48.9525030" lon="1.4901890">
        <ele>128.8</ele>
        <time>2020-07-01T10:18:09Z</time>
      </trkpt>
      <trkpt lat="48.9525000" lon="1.4901810">
        <ele>128.8</ele>
        <time>2020-07-01T10:18:22Z</time>
      </trkpt>
      <trkpt lat="48.9525010" lon="1.4901880">
        <ele>129.0</ele>
        <time>2020-07-01T10:18:39Z</time>
      </trkpt>
      <trkpt lat="48.9525050" lon="1.4901970">
        <ele>129.0</ele>
        <time>2020-07-01T10:18:56Z</time>
      </trkpt>
      <trkpt lat="48.9525020" lon="1.4902030">
        <ele>128.8</ele>
        <time>2020-07-01T10:19:13Z</time>
      </trkpt>
      <trkpt lat="48.9524960" lon="1.4901650">
        <ele>128.8</ele>
        <time>2020-07-01T10:19:30Z</time>
      </trkpt>
      <trkpt lat="48.9524820" lon="1.4902180">
        <ele>128.8</ele>
        <time>2020-07-01T10:19:46Z</time>
      </trkpt>
      <trkpt lat="48.9524920" lon="1.4902130">
        <ele>129.0</ele>
        <time>2020-07-01T10:20:02Z</time>
      </trkpt>
      <trkpt lat="48.9524950" lon="1.4902260">
        <ele>129.0</ele>
        <time>2020-07-01T10:20:18Z</time>
      </trkpt>
      <trkpt lat="48.9524940" lon="1.4902180">
        <ele>128.8</ele>
        <time>2020-07-01T10:20:33Z</time>
      </trkpt>
      <trkpt lat="48.9524890" lon="1.4903040">
        <ele>128.6</ele>
        <time>2020-07-01T10:20:49Z</time>
      </trkpt>
      <trkpt lat="48.9525070" lon="1.4903520">
        <ele>128.6</ele>
        <time>2020-07-01T10:20:58Z</time>
      </trkpt>
      <trkpt lat="48.9524920" lon="1.4904130">
        <ele>128.8</ele>
        <time>2020-07-01T10:21:05Z</time>
      </trkpt>
      <trkpt lat="48.9524750" lon="1.4904150">
        <ele>128.8</ele>
        <time>2020-07-01T10:21:07Z</time>
      </trkpt>
      <trkpt lat="48.9524070" lon="1.4903680">
        <ele>128.6</ele>
        <time>2020-07-01T10:21:19Z</time>
      </trkpt>
      <trkpt lat="48.9523930" lon="1.4903360">
        <ele>128.8</ele>
        <time>2020-07-01T10:21:34Z</time>
      </trkpt>
      <trkpt lat="48.9523930" lon="1.4903380">
        <ele>129.0</ele>
        <time>2020-07-01T10:21:35Z</time>
      </trkpt>
      <trkpt lat="48.9523930" lon="1.4903400">
        <ele>128.8</ele>
        <time>2020-07-01T10:21:36Z</time>
      </trkpt>
      <trkpt lat="48.9523930" lon="1.4903410">
        <ele>128.8</ele>
        <time>2020-07-01T10:21:37Z</time>
      </trkpt>
      <trkpt lat="48.9523930" lon="1.4903410">
        <ele>128.8</ele>
        <time>2020-07-01T10:21:39Z</time>
      </trkpt>
      <trkpt lat="48.9523940" lon="1.4903420">
        <ele>129.0</ele>
        <time>2020-07-01T10:21:51Z</time>
      </trkpt>
      <trkpt lat="48.9523940" lon="1.4903440">
        <ele>129.0</ele>
        <time>2020-07-01T10:21:55Z</time>
      </trkpt>
      <trkpt lat="48.9523940" lon="1.4903470">
        <ele>129.0</ele>
        <time>2020-07-01T10:21:59Z</time>
      </trkpt>
      <trkpt lat="48.9523910" lon="1.4903540">
        <ele>128.6</ele>
        <time>2020-07-01T10:22:17Z</time>
      </trkpt>
      <trkpt lat="48.9523890" lon="1.4903510">
        <ele>129.2</ele>
        <time>2020-07-01T10:22:48Z</time>
      </trkpt>
      <trkpt lat="48.9523770" lon="1.4903040">
        <ele>128.8</ele>
        <time>2020-07-01T10:22:57Z</time>
      </trkpt>
      <trkpt lat="48.9523760" lon="1.4902810">
        <ele>129.0</ele>
        <time>2020-07-01T10:23:08Z</time>
      </trkpt>
      <trkpt lat="48.9523760" lon="1.4902810">
        <ele>128.8</ele>
        <time>2020-07-01T10:23:36Z</time>
      </trkpt>
      <trkpt lat="48.9523820" lon="1.4901620">
        <ele>128.6</ele>
        <time>2020-07-01T10:23:46Z</time>
      </trkpt>
      <trkpt lat="48.9523630" lon="1.4901070">
        <ele>128.6</ele>
        <time>2020-07-01T10:23:50Z</time>
      </trkpt>
      <trkpt lat="48.9523410" lon="1.4900670">
        <ele>128.0</ele>
        <time>2020-07-01T10:23:57Z</time>
      </trkpt>
      <trkpt lat="48.9523010" lon="1.4900160">
        <ele>128.0</ele>
        <time>2020-07-01T10:24:04Z</time>
      </trkpt>
      <trkpt lat="48.9522920" lon="1.4900050">
        <ele>128.0</ele>
        <time>2020-07-01T10:24:05Z</time>
      </trkpt>
      <trkpt lat="48.9522650" lon="1.4899820">
        <ele>128.0</ele>
        <time>2020-07-01T10:24:07Z</time>
      </trkpt>
      <trkpt lat="48.9522350" lon="1.4899590">
        <ele>128.0</ele>
        <time>2020-07-01T10:24:09Z</time>
      </trkpt>
      <trkpt lat="48.9521090" lon="1.4898620">
        <ele>128.0</ele>
        <time>2020-07-01T10:24:16Z</time>
      </trkpt>
      <trkpt lat="48.9518780" lon="1.4897150">
        <ele>127.6</ele>
        <time>2020-07-01T10:24:24Z</time>
      </trkpt>
      <trkpt lat="48.9515730" lon="1.4894510">
        <ele>127.6</ele>
        <time>2020-07-01T10:24:35Z</time>
      </trkpt>
      <trkpt lat="48.9513010" lon="1.4891450">
        <ele>127.6</ele>
        <time>2020-07-01T10:24:44Z</time>
      </trkpt>
      <trkpt lat="48.9511450" lon="1.4889930">
        <ele>127.4</ele>
        <time>2020-07-01T10:24:49Z</time>
      </trkpt>
      <trkpt lat="48.9509900" lon="1.4888180">
        <ele>127.0</ele>
        <time>2020-07-01T10:24:54Z</time>
      </trkpt>
      <trkpt lat="48.9507640" lon="1.4886570">
        <ele>126.2</ele>
        <time>2020-07-01T10:25:00Z</time>
      </trkpt>
      <trkpt lat="48.9506110" lon="1.4885790">
        <ele>126.0</ele>
        <time>2020-07-01T10:25:04Z</time>
      </trkpt>
      <trkpt lat="48.9501660" lon="1.4883100">
        <ele>125.8</ele>
        <time>2020-07-01T10:25:16Z</time>
      </trkpt>
      <trkpt lat="48.9499060" lon="1.4881420">
        <ele>125.4</ele>
        <time>2020-07-01T10:25:24Z</time>
      </trkpt>
      <trkpt lat="48.9496690" lon="1.4879870">
        <ele>125.2</ele>
        <time>2020-07-01T10:25:30Z</time>
      </trkpt>
      <trkpt lat="48.9495910" lon="1.4879170">
        <ele>125.0</ele>
        <time>2020-07-01T10:25:32Z</time>
      </trkpt>
      <trkpt lat="48.9492290" lon="1.4874540">
        <ele>124.4</ele>
        <time>2020-07-01T10:25:42Z</time>
      </trkpt>
      <trkpt lat="48.9488420" lon="1.4869860">
        <ele>124.6</ele>
        <time>2020-07-01T10:25:53Z</time>
      </trkpt>
      <trkpt lat="48.9484640" lon="1.4865250">
        <ele>124.6</ele>
        <time>2020-07-01T10:26:03Z</time>
      </trkpt>
      <trkpt lat="48.9482030" lon="1.4862200">
        <ele>124.6</ele>
        <time>2020-07-01T10:26:10Z</time>
      </trkpt>
      <trkpt lat="48.9480960" lon="1.4860740">
        <ele>124.6</ele>
        <time>2020-07-01T10:26:13Z</time>
      </trkpt>
      <trkpt lat="48.9479950" lon="1.4859340">
        <ele>124.6</ele>
        <time>2020-07-01T10:26:16Z</time>
      </trkpt>
      <trkpt lat="48.9478790" lon="1.4858050">
        <ele>124.8</ele>
        <time>2020-07-01T10:26:20Z</time>
      </trkpt>
      <trkpt lat="48.9478340" lon="1.4857470">
        <ele>125.0</ele>
        <time>2020-07-01T10:26:24Z</time>
      </trkpt>
      <trkpt lat="48.9477960" lon="1.4857450">
        <ele>126.2</ele>
        <time>2020-07-01T10:26:33Z</time>
      </trkpt>
      <trkpt lat="48.9477800" lon="1.4857660">
        <ele>126.2</ele>
        <time>2020-07-01T10:26:34Z</time>
      </trkpt>
      <trkpt lat="48.9477130" lon="1.4858910">
        <ele>126.4</ele>
        <time>2020-07-01T10:26:38Z</time>
      </trkpt>
      <trkpt lat="48.9475250" lon="1.4862490">
        <ele>126.2</ele>
        <time>2020-07-01T10:26:46Z</time>
      </trkpt>
      <trkpt lat="48.9473750" lon="1.4866460">
        <ele>126.0</ele>
        <time>2020-07-01T10:26:53Z</time>
      </trkpt>
      <trkpt lat="48.9472140" lon="1.4872990">
        <ele>125.2</ele>
        <time>2020-07-01T10:27:03Z</time>
      </trkpt>
      <trkpt lat="48.9471750" lon="1.4874260">
        <ele>125.2</ele>
        <time>2020-07-01T10:27:05Z</time>
      </trkpt>
      <trkpt lat="48.9471360" lon="1.4875470">
        <ele>125.0</ele>
        <time>2020-07-01T10:27:07Z</time>
      </trkpt>
      <trkpt lat="48.9470790" lon="1.4877510">
        <ele>125.0</ele>
        <time>2020-07-01T10:27:10Z</time>
      </trkpt>
      <trkpt lat="48.9470290" lon="1.4879600">
        <ele>124.4</ele>
        <time>2020-07-01T10:27:13Z</time>
      </trkpt>
      <trkpt lat="48.9469830" lon="1.4881630">
        <ele>124.2</ele>
        <time>2020-07-01T10:27:16Z</time>
      </trkpt>
      <trkpt lat="48.9469670" lon="1.4882320">
        <ele>124.0</ele>
        <time>2020-07-01T10:27:17Z</time>
      </trkpt>
      <trkpt lat="48.9468550" lon="1.4889110">
        <ele>123.6</ele>
        <time>2020-07-01T10:27:26Z</time>
      </trkpt>
      <trkpt lat="48.9467490" lon="1.4893990">
        <ele>123.4</ele>
        <time>2020-07-01T10:27:33Z</time>
      </trkpt>
      <trkpt lat="48.9467230" lon="1.4894590">
        <ele>123.4</ele>
        <time>2020-07-01T10:27:34Z</time>
      </trkpt>
      <trkpt lat="48.9466640" lon="1.4895680">
        <ele>123.4</ele>
        <time>2020-07-01T10:27:36Z</time>
      </trkpt>
      <trkpt lat="48.9465260" lon="1.4897410">
        <ele>123.2</ele>
        <time>2020-07-01T10:27:40Z</time>
      </trkpt>
      <trkpt lat="48.9464350" lon="1.4897620">
        <ele>123.2</ele>
        <time>2020-07-01T10:27:42Z</time>
      </trkpt>
      <trkpt lat="48.9463330" lon="1.4897570">
        <ele>123.2</ele>
        <time>2020-07-01T10:27:44Z</time>
      </trkpt>
      <trkpt lat="48.9462800" lon="1.4897400">
        <ele>123.0</ele>
        <time>2020-07-01T10:27:45Z</time>
      </trkpt>
      <trkpt lat="48.9459670" lon="1.4896360">
        <ele>122.8</ele>
        <time>2020-07-01T10:27:51Z</time>
      </trkpt>
      <trkpt lat="48.9454820" lon="1.4895490">
        <ele>122.8</ele>
        <time>2020-07-01T10:28:00Z</time>
      </trkpt>
      <trkpt lat="48.9453870" lon="1.4895720">
        <ele>123.0</ele>
        <time>2020-07-01T10:28:02Z</time>
      </trkpt>
      <trkpt lat="48.9452440" lon="1.4896440">
        <ele>122.8</ele>
        <time>2020-07-01T10:28:05Z</time>
      </trkpt>
      <trkpt lat="48.9451960" lon="1.4896810">
        <ele>122.8</ele>
        <time>2020-07-01T10:28:06Z</time>
      </trkpt>
      <trkpt lat="48.9451130" lon="1.4897720">
        <ele>123.0</ele>
        <time>2020-07-01T10:28:08Z</time>
      </trkpt>
      <trkpt lat="48.9450440" lon="1.4898980">
        <ele>123.0</ele>
        <time>2020-07-01T10:28:10Z</time>
      </trkpt>
      <trkpt lat="48.9447330" lon="1.4905720">
        <ele>123.0</ele>
        <time>2020-07-01T10:28:20Z</time>
      </trkpt>
      <trkpt lat="48.9447000" lon="1.4906400">
        <ele>123.0</ele>
        <time>2020-07-01T10:28:21Z</time>
      </trkpt>
      <trkpt lat="48.9446670" lon="1.4907110">
        <ele>123.0</ele>
        <time>2020-07-01T10:28:22Z</time>
      </trkpt>
      <trkpt lat="48.9443270" lon="1.4914280">
        <ele>122.0</ele>
        <time>2020-07-01T10:28:33Z</time>
      </trkpt>
      <trkpt lat="48.9442990" lon="1.4914880">
        <ele>121.8</ele>
        <time>2020-07-01T10:28:34Z</time>
      </trkpt>
      <trkpt lat="48.9440520" lon="1.4920200">
        <ele>121.6</ele>
        <time>2020-07-01T10:28:43Z</time>
      </trkpt>
      <trkpt lat="48.9438460" lon="1.4924540">
        <ele>121.4</ele>
        <time>2020-07-01T10:28:50Z</time>
      </trkpt>
      <trkpt lat="48.9437850" lon="1.4925810">
        <ele>121.4</ele>
        <time>2020-07-01T10:28:52Z</time>
      </trkpt>
      <trkpt lat="48.9435860" lon="1.4929300">
        <ele>121.0</ele>
        <time>2020-07-01T10:28:58Z</time>
      </trkpt>
      <trkpt lat="48.9435200" lon="1.4930440">
        <ele>120.6</ele>
        <time>2020-07-01T10:29:00Z</time>
      </trkpt>
      <trkpt lat="48.9434150" lon="1.4932190">
        <ele>120.2</ele>
        <time>2020-07-01T10:29:03Z</time>
      </trkpt>
      <trkpt lat="48.9432600" lon="1.4934560">
        <ele>119.8</ele>
        <time>2020-07-01T10:29:07Z</time>
      </trkpt>
      <trkpt lat="48.9432170" lon="1.4935250">
        <ele>119.6</ele>
        <time>2020-07-01T10:29:08Z</time>
      </trkpt>
      <trkpt lat="48.9430970" lon="1.4937280">
        <ele>119.0</ele>
        <time>2020-07-01T10:29:11Z</time>
      </trkpt>
      <trkpt lat="48.9430230" lon="1.4938930">
        <ele>118.4</ele>
        <time>2020-07-01T10:29:13Z</time>
      </trkpt>
      <trkpt lat="48.9429380" lon="1.4940340">
        <ele>117.8</ele>
        <time>2020-07-01T10:29:15Z</time>
      </trkpt>
      <trkpt lat="48.9428550" lon="1.4941640">
        <ele>117.8</ele>
        <time>2020-07-01T10:29:17Z</time>
      </trkpt>
      <trkpt lat="48.9427610" lon="1.4942570">
        <ele>117.8</ele>
        <time>2020-07-01T10:29:19Z</time>
      </trkpt>
      <trkpt lat="48.9427160" lon="1.4942900">
        <ele>117.8</ele>
        <time>2020-07-01T10:29:20Z</time>
      </trkpt>
      <trkpt lat="48.9424770" lon="1.4943920">
        <ele>117.8</ele>
        <time>2020-07-01T10:29:26Z</time>
      </trkpt>
      <trkpt lat="48.9424050" lon="1.4944360">
        <ele>118.6</ele>
        <time>2020-07-01T10:29:28Z</time>
      </trkpt>
      <trkpt lat="48.9422310" lon="1.4944740">
        <ele>119.6</ele>
        <time>2020-07-01T10:29:32Z</time>
      </trkpt>
      <trkpt lat="48.9421840" lon="1.4944830">
        <ele>119.4</ele>
        <time>2020-07-01T10:29:33Z</time>
      </trkpt>
      <trkpt lat="48.9419640" lon="1.4945410">
        <ele>120.2</ele>
        <time>2020-07-01T10:29:38Z</time>
      </trkpt>
      <trkpt lat="48.9415720" lon="1.4945660">
        <ele>120.6</ele>
        <time>2020-07-01T10:29:46Z</time>
      </trkpt>
      <trkpt lat="48.9412470" lon="1.4945430">
        <ele>121.0</ele>
        <time>2020-07-01T10:29:53Z</time>
      </trkpt>
      <trkpt lat="48.9411410" lon="1.4945030">
        <ele>121.2</ele>
        <time>2020-07-01T10:29:55Z</time>
      </trkpt>
      <trkpt lat="48.9409470" lon="1.4943550">
        <ele>121.0</ele>
        <time>2020-07-01T10:29:59Z</time>
      </trkpt>
      <trkpt lat="48.9408000" lon="1.4942620">
        <ele>121.0</ele>
        <time>2020-07-01T10:30:02Z</time>
      </trkpt>
      <trkpt lat="48.9406600" lon="1.4942370">
        <ele>120.8</ele>
        <time>2020-07-01T10:30:05Z</time>
      </trkpt>
      <trkpt lat="48.9403570" lon="1.4943500">
        <ele>120.6</ele>
        <time>2020-07-01T10:30:11Z</time>
      </trkpt>
      <trkpt lat="48.9403070" lon="1.4943800">
        <ele>120.6</ele>
        <time>2020-07-01T10:30:12Z</time>
      </trkpt>
      <trkpt lat="48.9401340" lon="1.4944500">
        <ele>120.6</ele>
        <time>2020-07-01T10:30:16Z</time>
      </trkpt>
      <trkpt lat="48.9400530" lon="1.4944730">
        <ele>120.4</ele>
        <time>2020-07-01T10:30:18Z</time>
      </trkpt>
      <trkpt lat="48.9398360" lon="1.4944600">
        <ele>121.0</ele>
        <time>2020-07-01T10:30:23Z</time>
      </trkpt>
      <trkpt lat="48.9396590" lon="1.4944070">
        <ele>121.6</ele>
        <time>2020-07-01T10:30:27Z</time>
      </trkpt>
      <trkpt lat="48.9394770" lon="1.4943490">
        <ele>121.8</ele>
        <time>2020-07-01T10:30:31Z</time>
      </trkpt>
      <trkpt lat="48.9394260" lon="1.4943310">
        <ele>121.8</ele>
        <time>2020-07-01T10:30:32Z</time>
      </trkpt>
      <trkpt lat="48.9392000" lon="1.4942470">
        <ele>121.8</ele>
        <time>2020-07-01T10:30:36Z</time>
      </trkpt>
      <trkpt lat="48.9391370" lon="1.4942320">
        <ele>121.6</ele>
        <time>2020-07-01T10:30:37Z</time>
      </trkpt>
      <trkpt lat="48.9390050" lon="1.4941990">
        <ele>121.6</ele>
        <time>2020-07-01T10:30:39Z</time>
      </trkpt>
      <trkpt lat="48.9389400" lon="1.4941810">
        <ele>121.0</ele>
        <time>2020-07-01T10:30:40Z</time>
      </trkpt>
      <trkpt lat="48.9384090" lon="1.4940010">
        <ele>118.8</ele>
        <time>2020-07-01T10:30:49Z</time>
      </trkpt>
      <trkpt lat="48.9383530" lon="1.4939790">
        <ele>118.6</ele>
        <time>2020-07-01T10:30:50Z</time>
      </trkpt>
      <trkpt lat="48.9379530" lon="1.4938780">
        <ele>118.2</ele>
        <time>2020-07-01T10:30:57Z</time>
      </trkpt>
      <trkpt lat="48.9377840" lon="1.4938140">
        <ele>118.2</ele>
        <time>2020-07-01T10:31:00Z</time>
      </trkpt>
      <trkpt lat="48.9374640" lon="1.4935810">
        <ele>117.4</ele>
        <time>2020-07-01T10:31:06Z</time>
      </trkpt>
      <trkpt lat="48.9371360" lon="1.4932700">
        <ele>116.8</ele>
        <time>2020-07-01T10:31:12Z</time>
      </trkpt>
      <trkpt lat="48.9369720" lon="1.4930900">
        <ele>116.4</ele>
        <time>2020-07-01T10:31:15Z</time>
      </trkpt>
      <trkpt lat="48.9368000" lon="1.4929090">
        <ele>115.8</ele>
        <time>2020-07-01T10:31:18Z</time>
      </trkpt>
      <trkpt lat="48.9366420" lon="1.4927150">
        <ele>115.0</ele>
        <time>2020-07-01T10:31:21Z</time>
      </trkpt>
      <trkpt lat="48.9365270" lon="1.4925710">
        <ele>114.8</ele>
        <time>2020-07-01T10:31:23Z</time>
      </trkpt>
      <trkpt lat="48.9362620" lon="1.4922930">
        <ele>112.8</ele>
        <time>2020-07-01T10:31:27Z</time>
      </trkpt>
      <trkpt lat="48.9361300" lon="1.4921610">
        <ele>112.0</ele>
        <time>2020-07-01T10:31:29Z</time>
      </trkpt>
      <trkpt lat="48.9356630" lon="1.4916280">
        <ele>109.4</ele>
        <time>2020-07-01T10:31:37Z</time>
      </trkpt>
      <trkpt lat="48.9355490" lon="1.4915010">
        <ele>109.2</ele>
        <time>2020-07-01T10:31:39Z</time>
      </trkpt>
      <trkpt lat="48.9354340" lon="1.4913780">
        <ele>109.0</ele>
        <time>2020-07-01T10:31:41Z</time>
      </trkpt>
      <trkpt lat="48.9352670" lon="1.4911910">
        <ele>109.0</ele>
        <time>2020-07-01T10:31:44Z</time>
      </trkpt>
      <trkpt lat="48.9351630" lon="1.4910700">
        <ele>108.6</ele>
        <time>2020-07-01T10:31:46Z</time>
      </trkpt>
      <trkpt lat="48.9348980" lon="1.4907800">
        <ele>106.8</ele>
        <time>2020-07-01T10:31:51Z</time>
      </trkpt>
      <trkpt lat="48.9344700" lon="1.4904010">
        <ele>105.6</ele>
        <time>2020-07-01T10:31:58Z</time>
      </trkpt>
      <trkpt lat="48.9340980" lon="1.4902850">
        <ele>105.4</ele>
        <time>2020-07-01T10:32:04Z</time>
      </trkpt>
      <trkpt lat="48.9336560" lon="1.4902960">
        <ele>105.4</ele>
        <time>2020-07-01T10:32:11Z</time>
      </trkpt>
      <trkpt lat="48.9332570" lon="1.4903770">
        <ele>105.2</ele>
        <time>2020-07-01T10:32:18Z</time>
      </trkpt>
      <trkpt lat="48.9331930" lon="1.4904030">
        <ele>105.2</ele>
        <time>2020-07-01T10:32:19Z</time>
      </trkpt>
      <trkpt lat="48.9330590" lon="1.4904420">
        <ele>105.2</ele>
        <time>2020-07-01T10:32:21Z</time>
      </trkpt>
      <trkpt lat="48.9328600" lon="1.4904840">
        <ele>105.2</ele>
        <time>2020-07-01T10:32:24Z</time>
      </trkpt>
      <trkpt lat="48.9327070" lon="1.4905100">
        <ele>104.6</ele>
        <time>2020-07-01T10:32:26Z</time>
      </trkpt>
      <trkpt lat="48.9323520" lon="1.4905210">
        <ele>101.8</ele>
        <time>2020-07-01T10:32:31Z</time>
      </trkpt>
      <trkpt lat="48.9322940" lon="1.4904920">
        <ele>101.2</ele>
        <time>2020-07-01T10:32:32Z</time>
      </trkpt>
      <trkpt lat="48.9322430" lon="1.4904490">
        <ele>100.6</ele>
        <time>2020-07-01T10:32:33Z</time>
      </trkpt>
      <trkpt lat="48.9322060" lon="1.4903850">
        <ele>100.4</ele>
        <time>2020-07-01T10:32:34Z</time>
      </trkpt>
      <trkpt lat="48.9321780" lon="1.4903060">
        <ele>100.2</ele>
        <time>2020-07-01T10:32:35Z</time>
      </trkpt>
      <trkpt lat="48.9321500" lon="1.4901340">
        <ele>99.6</ele>
        <time>2020-07-01T10:32:37Z</time>
      </trkpt>
      <trkpt lat="48.9321250" lon="1.4899690">
        <ele>99.4</ele>
        <time>2020-07-01T10:32:39Z</time>
      </trkpt>
      <trkpt lat="48.9321040" lon="1.4898950">
        <ele>99.4</ele>
        <time>2020-07-01T10:32:40Z</time>
      </trkpt>
      <trkpt lat="48.9320490" lon="1.4898040">
        <ele>98.4</ele>
        <time>2020-07-01T10:32:42Z</time>
      </trkpt>
      <trkpt lat="48.9320090" lon="1.4897840">
        <ele>97.8</ele>
        <time>2020-07-01T10:32:43Z</time>
      </trkpt>
      <trkpt lat="48.9319650" lon="1.4897750">
        <ele>97.2</ele>
        <time>2020-07-01T10:32:44Z</time>
      </trkpt>
      <trkpt lat="48.9318570" lon="1.4897850">
        <ele>97.0</ele>
        <time>2020-07-01T10:32:46Z</time>
      </trkpt>
      <trkpt lat="48.9315190" lon="1.4898920">
        <ele>96.0</ele>
        <time>2020-07-01T10:32:52Z</time>
      </trkpt>
      <trkpt lat="48.9312820" lon="1.4899540">
        <ele>94.0</ele>
        <time>2020-07-01T10:32:57Z</time>
      </trkpt>
      <trkpt lat="48.9311810" lon="1.4899990">
        <ele>94.0</ele>
        <time>2020-07-01T10:32:59Z</time>
      </trkpt>
      <trkpt lat="48.9310530" lon="1.4900610">
        <ele>94.0</ele>
        <time>2020-07-01T10:33:01Z</time>
      </trkpt>
      <trkpt lat="48.9309050" lon="1.4901270">
        <ele>94.0</ele>
        <time>2020-07-01T10:33:04Z</time>
      </trkpt>
      <trkpt lat="48.9308320" lon="1.4902170">
        <ele>94.0</ele>
        <time>2020-07-01T10:33:06Z</time>
      </trkpt>
      <trkpt lat="48.9307200" lon="1.4904930">
        <ele>94.0</ele>
        <time>2020-07-01T10:33:10Z</time>
      </trkpt>
      <trkpt lat="48.9306920" lon="1.4905670">
        <ele>94.0</ele>
        <time>2020-07-01T10:33:11Z</time>
      </trkpt>
      <trkpt lat="48.9304030" lon="1.4912520">
        <ele>92.8</ele>
        <time>2020-07-01T10:33:20Z</time>
      </trkpt>
      <trkpt lat="48.9301130" lon="1.4916550">
        <ele>92.4</ele>
        <time>2020-07-01T10:33:27Z</time>
      </trkpt>
      <trkpt lat="48.9298990" lon="1.4918160">
        <ele>92.4</ele>
        <time>2020-07-01T10:33:31Z</time>
      </trkpt>
      <trkpt lat="48.9297900" lon="1.4918810">
        <ele>92.4</ele>
        <time>2020-07-01T10:33:33Z</time>
      </trkpt>
      <trkpt lat="48.9295130" lon="1.4920360">
        <ele>92.2</ele>
        <time>2020-07-01T10:33:38Z</time>
      </trkpt>
      <trkpt lat="48.9291730" lon="1.4922520">
        <ele>91.2</ele>
        <time>2020-07-01T10:33:44Z</time>
      </trkpt>
      <trkpt lat="48.9287730" lon="1.4926170">
        <ele>90.4</ele>
        <time>2020-07-01T10:33:52Z</time>
      </trkpt>
      <trkpt lat="48.9284230" lon="1.4929470">
        <ele>90.2</ele>
        <time>2020-07-01T10:33:59Z</time>
      </trkpt>
      <trkpt lat="48.9281890" lon="1.4932090">
        <ele>90.0</ele>
        <time>2020-07-01T10:34:04Z</time>
      </trkpt>
      <trkpt lat="48.9280380" lon="1.4933780">
        <ele>89.2</ele>
        <time>2020-07-01T10:34:07Z</time>
      </trkpt>
      <trkpt lat="48.9277240" lon="1.4937330">
        <ele>88.4</ele>
        <time>2020-07-01T10:34:13Z</time>
      </trkpt>
      <trkpt lat="48.9275750" lon="1.4938680">
        <ele>87.4</ele>
        <time>2020-07-01T10:34:16Z</time>
      </trkpt>
      <trkpt lat="48.9275280" lon="1.4938960">
        <ele>87.2</ele>
        <time>2020-07-01T10:34:17Z</time>
      </trkpt>
      <trkpt lat="48.9274840" lon="1.4939180">
        <ele>87.0</ele>
        <time>2020-07-01T10:34:18Z</time>
      </trkpt>
      <trkpt lat="48.9274400" lon="1.4939340">
        <ele>86.8</ele>
        <time>2020-07-01T10:34:19Z</time>
      </trkpt>
      <trkpt lat="48.9273460" lon="1.4939480">
        <ele>86.8</ele>
        <time>2020-07-01T10:34:21Z</time>
      </trkpt>
      <trkpt lat="48.9272940" lon="1.4939460">
        <ele>86.6</ele>
        <time>2020-07-01T10:34:22Z</time>
      </trkpt>
      <trkpt lat="48.9271170" lon="1.4939180">
        <ele>86.4</ele>
        <time>2020-07-01T10:34:25Z</time>
      </trkpt>
      <trkpt lat="48.9270560" lon="1.4939060">
        <ele>86.0</ele>
        <time>2020-07-01T10:34:26Z</time>
      </trkpt>
      <trkpt lat="48.9269940" lon="1.4938990">
        <ele>85.8</ele>
        <time>2020-07-01T10:34:27Z</time>
      </trkpt>
      <trkpt lat="48.9268580" lon="1.4938760">
        <ele>85.6</ele>
        <time>2020-07-01T10:34:29Z</time>
      </trkpt>
      <trkpt lat="48.9266040" lon="1.4938160">
        <ele>84.6</ele>
        <time>2020-07-01T10:34:33Z</time>
      </trkpt>
      <trkpt lat="48.9264710" lon="1.4937890">
        <ele>83.4</ele>
        <time>2020-07-01T10:34:35Z</time>
      </trkpt>
      <trkpt lat="48.9262880" lon="1.4937630">
        <ele>82.4</ele>
        <time>2020-07-01T10:34:38Z</time>
      </trkpt>
      <trkpt lat="48.9261560" lon="1.4937440">
        <ele>82.0</ele>
        <time>2020-07-01T10:34:40Z</time>
      </trkpt>
      <trkpt lat="48.9260810" lon="1.4937450">
        <ele>81.6</ele>
        <time>2020-07-01T10:34:41Z</time>
      </trkpt>
      <trkpt lat="48.9256990" lon="1.4938340">
        <ele>80.6</ele>
        <time>2020-07-01T10:34:46Z</time>
      </trkpt>
      <trkpt lat="48.9254650" lon="1.4939650">
        <ele>79.0</ele>
        <time>2020-07-01T10:34:49Z</time>
      </trkpt>
      <trkpt lat="48.9251670" lon="1.4941590">
        <ele>77.8</ele>
        <time>2020-07-01T10:34:53Z</time>
      </trkpt>
      <trkpt lat="48.9249360" lon="1.4942940">
        <ele>76.0</ele>
        <time>2020-07-01T10:34:56Z</time>
      </trkpt>
      <trkpt lat="48.9244380" lon="1.4946170">
        <ele>74.0</ele>
        <time>2020-07-01T10:35:03Z</time>
      </trkpt>
      <trkpt lat="48.9243740" lon="1.4946660">
        <ele>73.8</ele>
        <time>2020-07-01T10:35:04Z</time>
      </trkpt>
      <trkpt lat="48.9239790" lon="1.4950320">
        <ele>72.6</ele>
        <time>2020-07-01T10:35:11Z</time>
      </trkpt>
      <trkpt lat="48.9235430" lon="1.4955160">
        <ele>72.0</ele>
        <time>2020-07-01T10:35:20Z</time>
      </trkpt>
      <trkpt lat="48.9234890" lon="1.4955670">
        <ele>72.0</ele>
        <time>2020-07-01T10:35:21Z</time>
      </trkpt>
      <trkpt lat="48.9232750" lon="1.4957780">
        <ele>71.8</ele>
        <time>2020-07-01T10:35:25Z</time>
      </trkpt>
      <trkpt lat="48.9231180" lon="1.4959430">
        <ele>72.0</ele>
        <time>2020-07-01T10:35:28Z</time>
      </trkpt>
      <trkpt lat="48.9229110" lon="1.4961670">
        <ele>72.2</ele>
        <time>2020-07-01T10:35:32Z</time>
      </trkpt>
      <trkpt lat="48.9228580" lon="1.4962060">
        <ele>72.2</ele>
        <time>2020-07-01T10:35:33Z</time>
      </trkpt>
      <trkpt lat="48.9227400" lon="1.4962360">
        <ele>72.0</ele>
        <time>2020-07-01T10:35:35Z</time>
      </trkpt>
      <trkpt lat="48.9226840" lon="1.4962280">
        <ele>72.0</ele>
        <time>2020-07-01T10:35:36Z</time>
      </trkpt>
      <trkpt lat="48.9226290" lon="1.4961990">
        <ele>72.0</ele>
        <time>2020-07-01T10:35:37Z</time>
      </trkpt>
      <trkpt lat="48.9225200" lon="1.4961040">
        <ele>72.0</ele>
        <time>2020-07-01T10:35:39Z</time>
      </trkpt>
      <trkpt lat="48.9224650" lon="1.4960450">
        <ele>71.8</ele>
        <time>2020-07-01T10:35:40Z</time>
      </trkpt>
      <trkpt lat="48.9222880" lon="1.4958590">
        <ele>70.6</ele>
        <time>2020-07-01T10:35:43Z</time>
      </trkpt>
      <trkpt lat="48.9220590" lon="1.4956220">
        <ele>69.6</ele>
        <time>2020-07-01T10:35:47Z</time>
      </trkpt>
      <trkpt lat="48.9219490" lon="1.4955040">
        <ele>68.6</ele>
        <time>2020-07-01T10:35:49Z</time>
      </trkpt>
      <trkpt lat="48.9214650" lon="1.4950170">
        <ele>66.6</ele>
        <time>2020-07-01T10:35:58Z</time>
      </trkpt>
      <trkpt lat="48.9210700" lon="1.4947830">
        <ele>66.4</ele>
        <time>2020-07-01T10:36:05Z</time>
      </trkpt>
      <trkpt lat="48.9207320" lon="1.4946650">
        <ele>66.6</ele>
        <time>2020-07-01T10:36:12Z</time>
      </trkpt>
      <trkpt lat="48.9206890" lon="1.4946470">
        <ele>66.6</ele>
        <time>2020-07-01T10:36:13Z</time>
      </trkpt>
      <trkpt lat="48.9204100" lon="1.4945080">
        <ele>67.0</ele>
        <time>2020-07-01T10:36:20Z</time>
      </trkpt>
      <trkpt lat="48.9203440" lon="1.4944180">
        <ele>67.2</ele>
        <time>2020-07-01T10:36:22Z</time>
      </trkpt>
      <trkpt lat="48.9203010" lon="1.4942860">
        <ele>67.2</ele>
        <time>2020-07-01T10:36:24Z</time>
      </trkpt>
      <trkpt lat="48.9202490" lon="1.4938630">
        <ele>67.2</ele>
        <time>2020-07-01T10:36:30Z</time>
      </trkpt>
      <trkpt lat="48.9202150" lon="1.4935600">
        <ele>67.6</ele>
        <time>2020-07-01T10:36:35Z</time>
      </trkpt>
      <trkpt lat="48.9201900" lon="1.4932360">
        <ele>68.2</ele>
        <time>2020-07-01T10:36:40Z</time>
      </trkpt>
      <trkpt lat="48.9201790" lon="1.4927510">
        <ele>68.6</ele>
        <time>2020-07-01T10:36:46Z</time>
      </trkpt>
      <trkpt lat="48.9201790" lon="1.4924300">
        <ele>68.4</ele>
        <time>2020-07-01T10:36:50Z</time>
      </trkpt>
      <trkpt lat="48.9201800" lon="1.4923490">
        <ele>68.2</ele>
        <time>2020-07-01T10:36:51Z</time>
      </trkpt>
      <trkpt lat="48.9201880" lon="1.4921890">
        <ele>68.2</ele>
        <time>2020-07-01T10:36:53Z</time>
      </trkpt>
      <trkpt lat="48.9202290" lon="1.4915630">
        <ele>68.0</ele>
        <time>2020-07-01T10:37:00Z</time>
      </trkpt>
      <trkpt lat="48.9202390" lon="1.4914650">
        <ele>67.8</ele>
        <time>2020-07-01T10:37:01Z</time>
      </trkpt>
      <trkpt lat="48.9203300" lon="1.4906080">
        <ele>65.4</ele>
        <time>2020-07-01T10:37:10Z</time>
      </trkpt>
      <trkpt lat="48.9203590" lon="1.4901570">
        <ele>65.0</ele>
        <time>2020-07-01T10:37:15Z</time>
      </trkpt>
      <trkpt lat="48.9203520" lon="1.4899800">
        <ele>65.0</ele>
        <time>2020-07-01T10:37:17Z</time>
      </trkpt>
      <trkpt lat="48.9203450" lon="1.4898920">
        <ele>65.0</ele>
        <time>2020-07-01T10:37:18Z</time>
      </trkpt>
      <trkpt lat="48.9203210" lon="1.4897250">
        <ele>65.0</ele>
        <time>2020-07-01T10:37:20Z</time>
      </trkpt>
      <trkpt lat="48.9202080" lon="1.4892840">
        <ele>65.8</ele>
        <time>2020-07-01T10:37:26Z</time>
      </trkpt>
      <trkpt lat="48.9201670" lon="1.4891490">
        <ele>66.0</ele>
        <time>2020-07-01T10:37:28Z</time>
      </trkpt>
      <trkpt lat="48.9200800" lon="1.4889060">
        <ele>66.6</ele>
        <time>2020-07-01T10:37:32Z</time>
      </trkpt>
      <trkpt lat="48.9200360" lon="1.4887960">
        <ele>66.8</ele>
        <time>2020-07-01T10:37:34Z</time>
      </trkpt>
      <trkpt lat="48.9199890" lon="1.4886940">
        <ele>67.0</ele>
        <time>2020-07-01T10:37:36Z</time>
      </trkpt>
      <trkpt lat="48.9199670" lon="1.4886460">
        <ele>67.2</ele>
        <time>2020-07-01T10:37:37Z</time>
      </trkpt>
      <trkpt lat="48.9198350" lon="1.4883530">
        <ele>69.0</ele>
        <time>2020-07-01T10:37:44Z</time>
      </trkpt>
      <trkpt lat="48.9198230" lon="1.4883120">
        <ele>69.2</ele>
        <time>2020-07-01T10:37:45Z</time>
      </trkpt>
      <trkpt lat="48.9198040" lon="1.4882340">
        <ele>70.0</ele>
        <time>2020-07-01T10:37:47Z</time>
      </trkpt>
      <trkpt lat="48.9197880" lon="1.4881540">
        <ele>70.2</ele>
        <time>2020-07-01T10:37:49Z</time>
      </trkpt>
      <trkpt lat="48.9197740" lon="1.4880800">
        <ele>70.4</ele>
        <time>2020-07-01T10:37:51Z</time>
      </trkpt>
      <trkpt lat="48.9196870" lon="1.4878150">
        <ele>71.4</ele>
        <time>2020-07-01T10:37:59Z</time>
      </trkpt>
      <trkpt lat="48.9195700" lon="1.4877200">
        <ele>72.2</ele>
        <time>2020-07-01T10:38:03Z</time>
      </trkpt>
      <trkpt lat="48.9195000" lon="1.4876980">
        <ele>72.4</ele>
        <time>2020-07-01T10:38:05Z</time>
      </trkpt>
      <trkpt lat="48.9194240" lon="1.4876970">
        <ele>72.6</ele>
        <time>2020-07-01T10:38:07Z</time>
      </trkpt>
      <trkpt lat="48.9193040" lon="1.4876870">
        <ele>72.8</ele>
        <time>2020-07-01T10:38:10Z</time>
      </trkpt>
      <trkpt lat="48.9191360" lon="1.4875500">
        <ele>72.8</ele>
        <time>2020-07-01T10:38:15Z</time>
      </trkpt>
      <trkpt lat="48.9190120" lon="1.4872360">
        <ele>72.6</ele>
        <time>2020-07-01T10:38:20Z</time>
      </trkpt>
      <trkpt lat="48.9189490" lon="1.4868660">
        <ele>72.6</ele>
        <time>2020-07-01T10:38:25Z</time>
      </trkpt>
      <trkpt lat="48.9189430" lon="1.4867850">
        <ele>72.6</ele>
        <time>2020-07-01T10:38:26Z</time>
      </trkpt>
      <trkpt lat="48.9189390" lon="1.4866080">
        <ele>72.4</ele>
        <time>2020-07-01T10:38:28Z</time>
      </trkpt>
      <trkpt lat="48.9189360" lon="1.4864130">
        <ele>72.2</ele>
        <time>2020-07-01T10:38:30Z</time>
      </trkpt>
      <trkpt lat="48.9189430" lon="1.4863080">
        <ele>72.4</ele>
        <time>2020-07-01T10:38:31Z</time>
      </trkpt>
      <trkpt lat="48.9189480" lon="1.4861940">
        <ele>72.2</ele>
        <time>2020-07-01T10:38:32Z</time>
      </trkpt>
      <trkpt lat="48.9189610" lon="1.4860770">
        <ele>72.2</ele>
        <time>2020-07-01T10:38:33Z</time>
      </trkpt>
      <trkpt lat="48.9190050" lon="1.4858500">
        <ele>71.2</ele>
        <time>2020-07-01T10:38:35Z</time>
      </trkpt>
      <trkpt lat="48.9190380" lon="1.4857380">
        <ele>70.8</ele>
        <time>2020-07-01T10:38:36Z</time>
      </trkpt>
      <trkpt lat="48.9191210" lon="1.4855290">
        <ele>69.4</ele>
        <time>2020-07-01T10:38:38Z</time>
      </trkpt>
      <trkpt lat="48.9192250" lon="1.4853320">
        <ele>68.2</ele>
        <time>2020-07-01T10:38:40Z</time>
      </trkpt>
      <trkpt lat="48.9192730" lon="1.4852340">
        <ele>67.4</ele>
        <time>2020-07-01T10:38:41Z</time>
      </trkpt>
      <trkpt lat="48.9195010" lon="1.4846610">
        <ele>63.2</ele>
        <time>2020-07-01T10:38:46Z</time>
      </trkpt>
      <trkpt lat="48.9195420" lon="1.4845300">
        <ele>62.6</ele>
        <time>2020-07-01T10:38:47Z</time>
      </trkpt>
      <trkpt lat="48.9198280" lon="1.4837660">
        <ele>60.0</ele>
        <time>2020-07-01T10:38:53Z</time>
      </trkpt>
      <trkpt lat="48.9200350" lon="1.4831040">
        <ele>57.6</ele>
        <time>2020-07-01T10:38:59Z</time>
      </trkpt>
      <trkpt lat="48.9200870" lon="1.4825890">
        <ele>57.4</ele>
        <time>2020-07-01T10:39:04Z</time>
      </trkpt>
      <trkpt lat="48.9200310" lon="1.4820180">
        <ele>57.2</ele>
        <time>2020-07-01T10:39:10Z</time>
      </trkpt>
      <trkpt lat="48.9199960" lon="1.4818510">
        <ele>57.4</ele>
        <time>2020-07-01T10:39:12Z</time>
      </trkpt>
      <trkpt lat="48.9198660" lon="1.4813430">
        <ele>57.8</ele>
        <time>2020-07-01T10:39:18Z</time>
      </trkpt>
      <trkpt lat="48.9196610" lon="1.4805030">
        <ele>58.0</ele>
        <time>2020-07-01T10:39:28Z</time>
      </trkpt>
      <trkpt lat="48.9196450" lon="1.4804270">
        <ele>57.8</ele>
        <time>2020-07-01T10:39:29Z</time>
      </trkpt>
      <trkpt lat="48.9196100" lon="1.4802830">
        <ele>58.0</ele>
        <time>2020-07-01T10:39:31Z</time>
      </trkpt>
      <trkpt lat="48.9195490" lon="1.4797480">
        <ele>57.8</ele>
        <time>2020-07-01T10:39:38Z</time>
      </trkpt>
      <trkpt lat="48.9195370" lon="1.4789440">
        <ele>57.8</ele>
        <time>2020-07-01T10:39:48Z</time>
      </trkpt>
      <trkpt lat="48.9195870" lon="1.4784640">
        <ele>57.8</ele>
        <time>2020-07-01T10:39:54Z</time>
      </trkpt>
      <trkpt lat="48.9196000" lon="1.4782360">
        <ele>58.2</ele>
        <time>2020-07-01T10:39:57Z</time>
      </trkpt>
      <trkpt lat="48.9195600" lon="1.4780900">
        <ele>58.4</ele>
        <time>2020-07-01T10:39:59Z</time>
      </trkpt>
      <trkpt lat="48.9195280" lon="1.4780270">
        <ele>58.2</ele>
        <time>2020-07-01T10:40:00Z</time>
      </trkpt>
      <trkpt lat="48.9194870" lon="1.4779710">
        <ele>58.2</ele>
        <time>2020-07-01T10:40:01Z</time>
      </trkpt>
      <trkpt lat="48.9194400" lon="1.4779250">
        <ele>58.2</ele>
        <time>2020-07-01T10:40:02Z</time>
      </trkpt>
      <trkpt lat="48.9193470" lon="1.4778540">
        <ele>58.2</ele>
        <time>2020-07-01T10:40:04Z</time>
      </trkpt>
      <trkpt lat="48.9191180" lon="1.4777320">
        <ele>58.4</ele>
        <time>2020-07-01T10:40:09Z</time>
      </trkpt>
      <trkpt lat="48.9190780" lon="1.4776910">
        <ele>58.4</ele>
        <time>2020-07-01T10:40:10Z</time>
      </trkpt>
      <trkpt lat="48.9190400" lon="1.4776450">
        <ele>58.4</ele>
        <time>2020-07-01T10:40:11Z</time>
      </trkpt>
      <trkpt lat="48.9189780" lon="1.4775300">
        <ele>58.4</ele>
        <time>2020-07-01T10:40:13Z</time>
      </trkpt>
      <trkpt lat="48.9189520" lon="1.4774660">
        <ele>58.4</ele>
        <time>2020-07-01T10:40:14Z</time>
      </trkpt>
      <trkpt lat="48.9189290" lon="1.4774000">
        <ele>58.2</ele>
        <time>2020-07-01T10:40:15Z</time>
      </trkpt>
      <trkpt lat="48.9188740" lon="1.4772080">
        <ele>58.2</ele>
        <time>2020-07-01T10:40:18Z</time>
      </trkpt>
      <trkpt lat="48.9188380" lon="1.4770370">
        <ele>58.2</ele>
        <time>2020-07-01T10:40:21Z</time>
      </trkpt>
      <trkpt lat="48.9188310" lon="1.4769870">
        <ele>58.2</ele>
        <time>2020-07-01T10:40:22Z</time>
      </trkpt>
      <trkpt lat="48.9188050" lon="1.4767600">
        <ele>59.4</ele>
        <time>2020-07-01T10:40:27Z</time>
      </trkpt>
      <trkpt lat="48.9187900" lon="1.4766720">
        <ele>60.2</ele>
        <time>2020-07-01T10:40:29Z</time>
      </trkpt>
      <trkpt lat="48.9186880" lon="1.4762630">
        <ele>62.6</ele>
        <time>2020-07-01T10:40:38Z</time>
      </trkpt>
      <trkpt lat="48.9186310" lon="1.4760400">
        <ele>62.8</ele>
        <time>2020-07-01T10:40:42Z</time>
      </trkpt>
      <trkpt lat="48.9185760" lon="1.4758660">
        <ele>62.8</ele>
        <time>2020-07-01T10:40:45Z</time>
      </trkpt>
      <trkpt lat="48.9185330" lon="1.4757500">
        <ele>62.8</ele>
        <time>2020-07-01T10:40:47Z</time>
      </trkpt>
      <trkpt lat="48.9184850" lon="1.4756330">
        <ele>62.6</ele>
        <time>2020-07-01T10:40:49Z</time>
      </trkpt>
      <trkpt lat="48.9183280" lon="1.4752540">
        <ele>61.4</ele>
        <time>2020-07-01T10:40:55Z</time>
      </trkpt>
      <trkpt lat="48.9180550" lon="1.4748080">
        <ele>60.8</ele>
        <time>2020-07-01T10:41:02Z</time>
      </trkpt>
      <trkpt lat="48.9179660" lon="1.4746800">
        <ele>60.8</ele>
        <time>2020-07-01T10:41:04Z</time>
      </trkpt>
      <trkpt lat="48.9178640" lon="1.4745440">
        <ele>60.8</ele>
        <time>2020-07-01T10:41:06Z</time>
      </trkpt>
      <trkpt lat="48.9177580" lon="1.4744130">
        <ele>60.8</ele>
        <time>2020-07-01T10:41:08Z</time>
      </trkpt>
      <trkpt lat="48.9176000" lon="1.4742020">
        <ele>60.6</ele>
        <time>2020-07-01T10:41:11Z</time>
      </trkpt>
      <trkpt lat="48.9175160" lon="1.4740510">
        <ele>60.0</ele>
        <time>2020-07-01T10:41:13Z</time>
      </trkpt>
      <trkpt lat="48.9174250" lon="1.4738230">
        <ele>58.2</ele>
        <time>2020-07-01T10:41:16Z</time>
      </trkpt>
      <trkpt lat="48.9174000" lon="1.4737510">
        <ele>58.2</ele>
        <time>2020-07-01T10:41:17Z</time>
      </trkpt>
      <trkpt lat="48.9173270" lon="1.4735460">
        <ele>58.0</ele>
        <time>2020-07-01T10:41:20Z</time>
      </trkpt>
      <trkpt lat="48.9172360" lon="1.4733050">
        <ele>58.0</ele>
        <time>2020-07-01T10:41:24Z</time>
      </trkpt>
      <trkpt lat="48.9169360" lon="1.4725390">
        <ele>59.2</ele>
        <time>2020-07-01T10:41:36Z</time>
      </trkpt>
      <trkpt lat="48.9167180" lon="1.4718580">
        <ele>59.6</ele>
        <time>2020-07-01T10:41:47Z</time>
      </trkpt>
      <trkpt lat="48.9167000" lon="1.4717990">
        <ele>59.6</ele>
        <time>2020-07-01T10:41:48Z</time>
      </trkpt>
      <trkpt lat="48.9166620" lon="1.4716830">
        <ele>59.6</ele>
        <time>2020-07-01T10:41:50Z</time>
      </trkpt>
      <trkpt lat="48.9165710" lon="1.4713670">
        <ele>60.2</ele>
        <time>2020-07-01T10:41:56Z</time>
      </trkpt>
      <trkpt lat="48.9165310" lon="1.4712270">
        <ele>60.8</ele>
        <time>2020-07-01T10:41:59Z</time>
      </trkpt>
      <trkpt lat="48.9164400" lon="1.4709090">
        <ele>62.4</ele>
        <time>2020-07-01T10:42:06Z</time>
      </trkpt>
      <trkpt lat="48.9164020" lon="1.4707200">
        <ele>62.8</ele>
        <time>2020-07-01T10:42:10Z</time>
      </trkpt>
      <trkpt lat="48.9163830" lon="1.4705510">
        <ele>63.2</ele>
        <time>2020-07-01T10:42:14Z</time>
      </trkpt>
      <trkpt lat="48.9163460" lon="1.4701640">
        <ele>64.2</ele>
        <time>2020-07-01T10:42:21Z</time>
      </trkpt>
      <trkpt lat="48.9163710" lon="1.4697930">
        <ele>65.0</ele>
        <time>2020-07-01T10:42:29Z</time>
      </trkpt>
      <trkpt lat="48.9163760" lon="1.4697070">
        <ele>65.2</ele>
        <time>2020-07-01T10:42:31Z</time>
      </trkpt>
      <trkpt lat="48.9163890" lon="1.4696290">
        <ele>65.4</ele>
        <time>2020-07-01T10:42:33Z</time>
      </trkpt>
      <trkpt lat="48.9164020" lon="1.4694170">
        <ele>66.0</ele>
        <time>2020-07-01T10:42:38Z</time>
      </trkpt>
      <trkpt lat="48.9164030" lon="1.4693790">
        <ele>66.0</ele>
        <time>2020-07-01T10:42:39Z</time>
      </trkpt>
      <trkpt lat="48.9163920" lon="1.4691330">
        <ele>68.4</ele>
        <time>2020-07-01T10:42:47Z</time>
      </trkpt>
      <trkpt lat="48.9163670" lon="1.4689950">
        <ele>69.0</ele>
        <time>2020-07-01T10:42:51Z</time>
      </trkpt>
      <trkpt lat="48.9163030" lon="1.4687030">
        <ele>69.8</ele>
        <time>2020-07-01T10:43:00Z</time>
      </trkpt>
      <trkpt lat="48.9162610" lon="1.4685180">
        <ele>70.2</ele>
        <time>2020-07-01T10:43:05Z</time>
      </trkpt>
      <trkpt lat="48.9161740" lon="1.4681890">
        <ele>70.8</ele>
        <time>2020-07-01T10:43:13Z</time>
      </trkpt>
      <trkpt lat="48.9160080" lon="1.4675050">
        <ele>71.8</ele>
        <time>2020-07-01T10:43:27Z</time>
      </trkpt>
      <trkpt lat="48.9158270" lon="1.4667260">
        <ele>71.8</ele>
        <time>2020-07-01T10:43:41Z</time>
      </trkpt>
      <trkpt lat="48.9156490" lon="1.4659890">
        <ele>72.4</ele>
        <time>2020-07-01T10:43:54Z</time>
      </trkpt>
      <trkpt lat="48.9154730" lon="1.4651890">
        <ele>72.2</ele>
        <time>2020-07-01T10:44:07Z</time>
      </trkpt>
      <trkpt lat="48.9154630" lon="1.4651260">
        <ele>72.2</ele>
        <time>2020-07-01T10:44:08Z</time>
      </trkpt>
      <trkpt lat="48.9154460" lon="1.4649900">
        <ele>72.0</ele>
        <time>2020-07-01T10:44:10Z</time>
      </trkpt>
      <trkpt lat="48.9154320" lon="1.4647700">
        <ele>72.0</ele>
        <time>2020-07-01T10:44:13Z</time>
      </trkpt>
      <trkpt lat="48.9154280" lon="1.4646080">
        <ele>71.6</ele>
        <time>2020-07-01T10:44:15Z</time>
      </trkpt>
      <trkpt lat="48.9154260" lon="1.4645220">
        <ele>71.6</ele>
        <time>2020-07-01T10:44:16Z</time>
      </trkpt>
      <trkpt lat="48.9154320" lon="1.4642400">
        <ele>71.2</ele>
        <time>2020-07-01T10:44:19Z</time>
      </trkpt>
      <trkpt lat="48.9154410" lon="1.4640340">
        <ele>70.2</ele>
        <time>2020-07-01T10:44:21Z</time>
      </trkpt>
      <trkpt lat="48.9154470" lon="1.4639260">
        <ele>69.6</ele>
        <time>2020-07-01T10:44:22Z</time>
      </trkpt>
      <trkpt lat="48.9154550" lon="1.4634690">
        <ele>68.4</ele>
        <time>2020-07-01T10:44:26Z</time>
      </trkpt>
      <trkpt lat="48.9154580" lon="1.4632360">
        <ele>67.6</ele>
        <time>2020-07-01T10:44:28Z</time>
      </trkpt>
      <trkpt lat="48.9154560" lon="1.4631200">
        <ele>67.0</ele>
        <time>2020-07-01T10:44:29Z</time>
      </trkpt>
      <trkpt lat="48.9154490" lon="1.4630030">
        <ele>66.6</ele>
        <time>2020-07-01T10:44:30Z</time>
      </trkpt>
      <trkpt lat="48.9154370" lon="1.4628840">
        <ele>65.8</ele>
        <time>2020-07-01T10:44:31Z</time>
      </trkpt>
      <trkpt lat="48.9153770" lon="1.4625190">
        <ele>64.2</ele>
        <time>2020-07-01T10:44:34Z</time>
      </trkpt>
      <trkpt lat="48.9153510" lon="1.4623910">
        <ele>64.0</ele>
        <time>2020-07-01T10:44:35Z</time>
      </trkpt>
      <trkpt lat="48.9153240" lon="1.4622590">
        <ele>63.6</ele>
        <time>2020-07-01T10:44:36Z</time>
      </trkpt>
      <trkpt lat="48.9152280" lon="1.4618500">
        <ele>60.4</ele>
        <time>2020-07-01T10:44:39Z</time>
      </trkpt>
      <trkpt lat="48.9150840" lon="1.4612900">
        <ele>58.2</ele>
        <time>2020-07-01T10:44:43Z</time>
      </trkpt>
      <trkpt lat="48.9148920" lon="1.4606300">
        <ele>53.2</ele>
        <time>2020-07-01T10:44:48Z</time>
      </trkpt>
      <trkpt lat="48.9148540" lon="1.4605050">
        <ele>52.2</ele>
        <time>2020-07-01T10:44:49Z</time>
      </trkpt>
      <trkpt lat="48.9148160" lon="1.4603830">
        <ele>51.6</ele>
        <time>2020-07-01T10:44:50Z</time>
      </trkpt>
      <trkpt lat="48.9147800" lon="1.4602650">
        <ele>51.0</ele>
        <time>2020-07-01T10:44:51Z</time>
      </trkpt>
      <trkpt lat="48.9147470" lon="1.4601530">
        <ele>50.6</ele>
        <time>2020-07-01T10:44:52Z</time>
      </trkpt>
      <trkpt lat="48.9146410" lon="1.4597870">
        <ele>50.4</ele>
        <time>2020-07-01T10:44:56Z</time>
      </trkpt>
      <trkpt lat="48.9145770" lon="1.4595170">
        <ele>50.4</ele>
        <time>2020-07-01T10:45:01Z</time>
      </trkpt>
      <trkpt lat="48.9145520" lon="1.4594270">
        <ele>51.6</ele>
        <time>2020-07-01T10:45:06Z</time>
      </trkpt>
      <trkpt lat="48.9145540" lon="1.4594360">
        <ele>52.8</ele>
        <time>2020-07-01T10:45:14Z</time>
      </trkpt>
      <trkpt lat="48.9145480" lon="1.4594040">
        <ele>52.8</ele>
        <time>2020-07-01T10:45:16Z</time>
      </trkpt>
      <trkpt lat="48.9145080" lon="1.4592860">
        <ele>52.8</ele>
        <time>2020-07-01T10:45:20Z</time>
      </trkpt>
      <trkpt lat="48.9144800" lon="1.4591980">
        <ele>52.8</ele>
        <time>2020-07-01T10:45:22Z</time>
      </trkpt>
      <trkpt lat="48.9144220" lon="1.4589620">
        <ele>52.2</ele>
        <time>2020-07-01T10:45:26Z</time>
      </trkpt>
      <trkpt lat="48.9142530" lon="1.4583720">
        <ele>50.8</ele>
        <time>2020-07-01T10:45:34Z</time>
      </trkpt>
      <trkpt lat="48.9140760" lon="1.4577010">
        <ele>50.2</ele>
        <time>2020-07-01T10:45:42Z</time>
      </trkpt>
      <trkpt lat="48.9140520" lon="1.4576110">
        <ele>50.0</ele>
        <time>2020-07-01T10:45:43Z</time>
      </trkpt>
      <trkpt lat="48.9138150" lon="1.4568450">
        <ele>48.8</ele>
        <time>2020-07-01T10:45:52Z</time>
      </trkpt>
      <trkpt lat="48.9136580" lon="1.4562900">
        <ele>48.0</ele>
        <time>2020-07-01T10:45:59Z</time>
      </trkpt>
      <trkpt lat="48.9134240" lon="1.4555460">
        <ele>48.0</ele>
        <time>2020-07-01T10:46:08Z</time>
      </trkpt>
      <trkpt lat="48.9132660" lon="1.4548480">
        <ele>48.2</ele>
        <time>2020-07-01T10:46:16Z</time>
      </trkpt>
      <trkpt lat="48.9130630" lon="1.4540860">
        <ele>48.4</ele>
        <time>2020-07-01T10:46:25Z</time>
      </trkpt>
      <trkpt lat="48.9130380" lon="1.4540000">
        <ele>48.4</ele>
        <time>2020-07-01T10:46:26Z</time>
      </trkpt>
      <trkpt lat="48.9130120" lon="1.4539140">
        <ele>48.4</ele>
        <time>2020-07-01T10:46:27Z</time>
      </trkpt>
      <trkpt lat="48.9127870" lon="1.4531260">
        <ele>48.2</ele>
        <time>2020-07-01T10:46:37Z</time>
      </trkpt>
      <trkpt lat="48.9127250" lon="1.4529100">
        <ele>48.4</ele>
        <time>2020-07-01T10:46:40Z</time>
      </trkpt>
      <trkpt lat="48.9125580" lon="1.4524790">
        <ele>48.6</ele>
        <time>2020-07-01T10:46:46Z</time>
      </trkpt>
      <trkpt lat="48.9125300" lon="1.4524060">
        <ele>48.8</ele>
        <time>2020-07-01T10:46:47Z</time>
      </trkpt>
      <trkpt lat="48.9123120" lon="1.4517600">
        <ele>48.6</ele>
        <time>2020-07-01T10:46:56Z</time>
      </trkpt>
      <trkpt lat="48.9121440" lon="1.4512640">
        <ele>48.0</ele>
        <time>2020-07-01T10:47:04Z</time>
      </trkpt>
      <trkpt lat="48.9120680" lon="1.4511120">
        <ele>47.8</ele>
        <time>2020-07-01T10:47:09Z</time>
      </trkpt>
      <trkpt lat="48.9120420" lon="1.4511080">
        <ele>47.8</ele>
        <time>2020-07-01T10:47:11Z</time>
      </trkpt>
      <trkpt lat="48.9120300" lon="1.4511110">
        <ele>47.8</ele>
        <time>2020-07-01T10:47:12Z</time>
      </trkpt>
      <trkpt lat="48.9119850" lon="1.4511300">
        <ele>48.4</ele>
        <time>2020-07-01T10:47:15Z</time>
      </trkpt>
      <trkpt lat="48.9118400" lon="1.4511290">
        <ele>49.2</ele>
        <time>2020-07-01T10:47:22Z</time>
      </trkpt>
      <trkpt lat="48.9116280" lon="1.4511380">
        <ele>49.6</ele>
        <time>2020-07-01T10:47:28Z</time>
      </trkpt>
      <trkpt lat="48.9115820" lon="1.4511420">
        <ele>49.6</ele>
        <time>2020-07-01T10:47:29Z</time>
      </trkpt>
      <trkpt lat="48.9114470" lon="1.4511580">
        <ele>49.8</ele>
        <time>2020-07-01T10:47:32Z</time>
      </trkpt>
      <trkpt lat="48.9112830" lon="1.4511820">
        <ele>49.6</ele>
        <time>2020-07-01T10:47:36Z</time>
      </trkpt>
      <trkpt lat="48.9112420" lon="1.4511910">
        <ele>49.8</ele>
        <time>2020-07-01T10:47:37Z</time>
      </trkpt>
      <trkpt lat="48.9112010" lon="1.4512000">
        <ele>49.8</ele>
        <time>2020-07-01T10:47:38Z</time>
      </trkpt>
      <trkpt lat="48.9108470" lon="1.4512880">
        <ele>49.4</ele>
        <time>2020-07-01T10:47:46Z</time>
      </trkpt>
      <trkpt lat="48.9105090" lon="1.4514080">
        <ele>49.4</ele>
        <time>2020-07-01T10:47:53Z</time>
      </trkpt>
      <trkpt lat="48.9101240" lon="1.4515380">
        <ele>49.6</ele>
        <time>2020-07-01T10:48:02Z</time>
      </trkpt>
      <trkpt lat="48.9100590" lon="1.4515870">
        <ele>50.0</ele>
        <time>2020-07-01T10:48:06Z</time>
      </trkpt>
      <trkpt lat="48.9100560" lon="1.4515930">
        <ele>50.4</ele>
        <time>2020-07-01T10:48:15Z</time>
      </trkpt>
      <trkpt lat="48.9100620" lon="1.4515970">
        <ele>50.6</ele>
        <time>2020-07-01T10:48:39Z</time>
      </trkpt>
      <trkpt lat="48.9100770" lon="1.4515970">
        <ele>50.8</ele>
        <time>2020-07-01T10:49:03Z</time>
      </trkpt>
      <trkpt lat="48.9100990" lon="1.4515970">
        <ele>51.0</ele>
        <time>2020-07-01T10:49:19Z</time>
      </trkpt>
      <trkpt lat="48.9101060" lon="1.4516000">
        <ele>51.2</ele>
        <time>2020-07-01T10:49:21Z</time>
      </trkpt>
      <trkpt lat="48.9101200" lon="1.4516080">
        <ele>51.4</ele>
        <time>2020-07-01T10:49:42Z</time>
      </trkpt>
      <trkpt lat="48.9101270" lon="1.4516150">
        <ele>51.8</ele>
        <time>2020-07-01T10:50:14Z</time>
      </trkpt>
      <trkpt lat="48.9101330" lon="1.4516260">
        <ele>51.6</ele>
        <time>2020-07-01T10:50:43Z</time>
      </trkpt>
      <trkpt lat="48.9101370" lon="1.4516330">
        <ele>51.6</ele>
        <time>2020-07-01T10:51:05Z</time>
      </trkpt>
      <trkpt lat="48.9101350" lon="1.4516450">
        <ele>51.2</ele>
        <time>2020-07-01T10:51:34Z</time>
      </trkpt>
      <trkpt lat="48.9101410" lon="1.4516510">
        <ele>51.2</ele>
        <time>2020-07-01T10:52:02Z</time>
      </trkpt>
      <trkpt lat="48.9101470" lon="1.4516540">
        <ele>51.4</ele>
        <time>2020-07-01T10:52:23Z</time>
      </trkpt>
      <trkpt lat="48.9101500" lon="1.4516610">
        <ele>51.0</ele>
        <time>2020-07-01T10:52:46Z</time>
      </trkpt>
      <trkpt lat="48.9101530" lon="1.4516620">
        <ele>51.0</ele>
        <time>2020-07-01T10:53:09Z</time>
      </trkpt>
      <trkpt lat="48.9101580" lon="1.4516590">
        <ele>51.2</ele>
        <time>2020-07-01T10:53:32Z</time>
      </trkpt>
      <trkpt lat="48.9101580" lon="1.4516590">
        <ele>51.0</ele>
        <time>2020-07-01T10:53:35Z</time>
      </trkpt>
      <trkpt lat="48.9101640" lon="1.4516600">
        <ele>50.6</ele>
        <time>2020-07-01T10:54:01Z</time>
      </trkpt>
      <trkpt lat="48.9101690" lon="1.4516600">
        <ele>50.6</ele>
        <time>2020-07-01T10:54:23Z</time>
      </trkpt>
      <trkpt lat="48.9101720" lon="1.4516520">
        <ele>50.6</ele>
        <time>2020-07-01T10:54:44Z</time>
      </trkpt>
      <trkpt lat="48.9101720" lon="1.4516600">
        <ele>50.4</ele>
        <time>2020-07-01T10:55:08Z</time>
      </trkpt>
      <trkpt lat="48.9101730" lon="1.4516730">
        <ele>50.4</ele>
        <time>2020-07-01T10:55:39Z</time>
      </trkpt>
      <trkpt lat="48.9101750" lon="1.4516900">
        <ele>50.6</ele>
        <time>2020-07-01T10:56:05Z</time>
      </trkpt>
      <trkpt lat="48.9101790" lon="1.4516950">
        <ele>50.4</ele>
        <time>2020-07-01T10:56:21Z</time>
      </trkpt>
      <trkpt lat="48.9101530" lon="1.4517280">
        <ele>50.2</ele>
        <time>2020-07-01T10:56:28Z</time>
      </trkpt>
      <trkpt lat="48.9101390" lon="1.4517390">
        <ele>50.2</ele>
        <time>2020-07-01T10:56:29Z</time>
      </trkpt>
      <trkpt lat="48.9101020" lon="1.4517600">
        <ele>50.4</ele>
        <time>2020-07-01T10:56:31Z</time>
      </trkpt>
      <trkpt lat="48.9099510" lon="1.4518260">
        <ele>49.8</ele>
        <time>2020-07-01T10:56:37Z</time>
      </trkpt>
      <trkpt lat="48.9098570" lon="1.4518370">
        <ele>49.6</ele>
        <time>2020-07-01T10:56:41Z</time>
      </trkpt>
      <trkpt lat="48.9098450" lon="1.4518190">
        <ele>49.8</ele>
        <time>2020-07-01T10:56:42Z</time>
      </trkpt>
      <trkpt lat="48.9098380" lon="1.4517920">
        <ele>49.6</ele>
        <time>2020-07-01T10:56:43Z</time>
      </trkpt>
      <trkpt lat="48.9098330" lon="1.4517550">
        <ele>49.8</ele>
        <time>2020-07-01T10:56:44Z</time>
      </trkpt>
      <trkpt lat="48.9098320" lon="1.4516640">
        <ele>49.6</ele>
        <time>2020-07-01T10:56:46Z</time>
      </trkpt>
      <trkpt lat="48.9098470" lon="1.4515520">
        <ele>49.4</ele>
        <time>2020-07-01T10:56:48Z</time>
      </trkpt>
      <trkpt lat="48.9098770" lon="1.4513400">
        <ele>49.2</ele>
        <time>2020-07-01T10:56:51Z</time>
      </trkpt>
      <trkpt lat="48.9099110" lon="1.4507630">
        <ele>48.0</ele>
        <time>2020-07-01T10:56:58Z</time>
      </trkpt>
      <trkpt lat="48.9098260" lon="1.4501280">
        <ele>46.0</ele>
        <time>2020-07-01T10:57:06Z</time>
      </trkpt>
      <trkpt lat="48.9097110" lon="1.4496240">
        <ele>45.8</ele>
        <time>2020-07-01T10:57:13Z</time>
      </trkpt>
      <trkpt lat="48.9096830" lon="1.4494810">
        <ele>45.8</ele>
        <time>2020-07-01T10:57:15Z</time>
      </trkpt>
      <trkpt lat="48.9095850" lon="1.4490220">
        <ele>45.8</ele>
        <time>2020-07-01T10:57:21Z</time>
      </trkpt>
      <trkpt lat="48.9095090" lon="1.4486310">
        <ele>46.2</ele>
        <time>2020-07-01T10:57:26Z</time>
      </trkpt>
      <trkpt lat="48.9093700" lon="1.4479680">
        <ele>46.2</ele>
        <time>2020-07-01T10:57:35Z</time>
      </trkpt>
      <trkpt lat="48.9091650" lon="1.4472040">
        <ele>46.4</ele>
        <time>2020-07-01T10:57:45Z</time>
      </trkpt>
      <trkpt lat="48.9091470" lon="1.4471190">
        <ele>46.4</ele>
        <time>2020-07-01T10:57:46Z</time>
      </trkpt>
      <trkpt lat="48.9091390" lon="1.4470350">
        <ele>46.2</ele>
        <time>2020-07-01T10:57:47Z</time>
      </trkpt>
      <trkpt lat="48.9091430" lon="1.4469540">
        <ele>46.0</ele>
        <time>2020-07-01T10:57:48Z</time>
      </trkpt>
      <trkpt lat="48.9091750" lon="1.4465510">
        <ele>46.2</ele>
        <time>2020-07-01T10:57:53Z</time>
      </trkpt>
      <trkpt lat="48.9092210" lon="1.4461980">
        <ele>46.4</ele>
        <time>2020-07-01T10:57:58Z</time>
      </trkpt>
      <trkpt lat="48.9092260" lon="1.4461500">
        <ele>46.2</ele>
        <time>2020-07-01T10:57:59Z</time>
      </trkpt>
      <trkpt lat="48.9092230" lon="1.4461080">
        <ele>46.2</ele>
        <time>2020-07-01T10:58:00Z</time>
      </trkpt>
      <trkpt lat="48.9091560" lon="1.4459950">
        <ele>46.2</ele>
        <time>2020-07-01T10:58:03Z</time>
      </trkpt>
      <trkpt lat="48.9091310" lon="1.4459600">
        <ele>46.6</ele>
        <time>2020-07-01T10:58:04Z</time>
      </trkpt>
      <trkpt lat="48.9089290" lon="1.4457020">
        <ele>46.6</ele>
        <time>2020-07-01T10:58:10Z</time>
      </trkpt>
      <trkpt lat="48.9085960" lon="1.4452750">
        <ele>46.4</ele>
        <time>2020-07-01T10:58:19Z</time>
      </trkpt>
      <trkpt lat="48.9082850" lon="1.4448540">
        <ele>46.2</ele>
        <time>2020-07-01T10:58:27Z</time>
      </trkpt>
      <trkpt lat="48.9081700" lon="1.4447000">
        <ele>46.0</ele>
        <time>2020-07-01T10:58:30Z</time>
      </trkpt>
      <trkpt lat="48.9078120" lon="1.4441970">
        <ele>45.8</ele>
        <time>2020-07-01T10:58:39Z</time>
      </trkpt>
      <trkpt lat="48.9077310" lon="1.4440820">
        <ele>45.6</ele>
        <time>2020-07-01T10:58:41Z</time>
      </trkpt>
      <trkpt lat="48.9076500" lon="1.4439780">
        <ele>45.4</ele>
        <time>2020-07-01T10:58:43Z</time>
      </trkpt>
      <trkpt lat="48.9074670" lon="1.4437250">
        <ele>45.6</ele>
        <time>2020-07-01T10:58:48Z</time>
      </trkpt>
      <trkpt lat="48.9072900" lon="1.4434950">
        <ele>45.6</ele>
        <time>2020-07-01T10:58:53Z</time>
      </trkpt>
      <trkpt lat="48.9071830" lon="1.4434020">
        <ele>46.0</ele>
        <time>2020-07-01T10:58:56Z</time>
      </trkpt>
      <trkpt lat="48.9071430" lon="1.4434050">
        <ele>46.0</ele>
        <time>2020-07-01T10:58:57Z</time>
      </trkpt>
      <trkpt lat="48.9070660" lon="1.4434680">
        <ele>46.2</ele>
        <time>2020-07-01T10:58:59Z</time>
      </trkpt>
      <trkpt lat="48.9070230" lon="1.4435430">
        <ele>46.2</ele>
        <time>2020-07-01T10:59:00Z</time>
      </trkpt>
      <trkpt lat="48.9068050" lon="1.4438720">
        <ele>46.2</ele>
        <time>2020-07-01T10:59:05Z</time>
      </trkpt>
      <trkpt lat="48.9067650" lon="1.4439330">
        <ele>46.4</ele>
        <time>2020-07-01T10:59:06Z</time>
      </trkpt>
      <trkpt lat="48.9064290" lon="1.4443840">
        <ele>45.6</ele>
        <time>2020-07-01T10:59:14Z</time>
      </trkpt>
      <trkpt lat="48.9062900" lon="1.4445520">
        <ele>45.6</ele>
        <time>2020-07-01T10:59:17Z</time>
      </trkpt>
      <trkpt lat="48.9060240" lon="1.4448910">
        <ele>45.6</ele>
        <time>2020-07-01T10:59:23Z</time>
      </trkpt>
      <trkpt lat="48.9055670" lon="1.4454260">
        <ele>45.6</ele>
        <time>2020-07-01T10:59:33Z</time>
      </trkpt>
      <trkpt lat="48.9054330" lon="1.4455730">
        <ele>45.6</ele>
        <time>2020-07-01T10:59:36Z</time>
      </trkpt>
      <trkpt lat="48.9052220" lon="1.4458160">
        <ele>45.4</ele>
        <time>2020-07-01T10:59:41Z</time>
      </trkpt>
      <trkpt lat="48.9050140" lon="1.4460560">
        <ele>45.6</ele>
        <time>2020-07-01T10:59:46Z</time>
      </trkpt>
      <trkpt lat="48.9045800" lon="1.4465480">
        <ele>46.6</ele>
        <time>2020-07-01T10:59:56Z</time>
      </trkpt>
      <trkpt lat="48.9045360" lon="1.4466000">
        <ele>46.6</ele>
        <time>2020-07-01T10:59:57Z</time>
      </trkpt>
      <trkpt lat="48.9041330" lon="1.4471160">
        <ele>46.8</ele>
        <time>2020-07-01T11:00:07Z</time>
      </trkpt>
      <trkpt lat="48.9036970" lon="1.4476460">
        <ele>46.6</ele>
        <time>2020-07-01T11:00:17Z</time>
      </trkpt>
      <trkpt lat="48.9036540" lon="1.4477010">
        <ele>46.8</ele>
        <time>2020-07-01T11:00:18Z</time>
      </trkpt>
      <trkpt lat="48.9032030" lon="1.4482190">
        <ele>46.8</ele>
        <time>2020-07-01T11:00:28Z</time>
      </trkpt>
      <trkpt lat="48.9031140" lon="1.4483190">
        <ele>46.8</ele>
        <time>2020-07-01T11:00:30Z</time>
      </trkpt>
      <trkpt lat="48.9030720" lon="1.4483710">
        <ele>47.0</ele>
        <time>2020-07-01T11:00:31Z</time>
      </trkpt>
      <trkpt lat="48.9029360" lon="1.4485270">
        <ele>46.8</ele>
        <time>2020-07-01T11:00:34Z</time>
      </trkpt>
      <trkpt lat="48.9026340" lon="1.4488990">
        <ele>46.8</ele>
        <time>2020-07-01T11:00:41Z</time>
      </trkpt>
      <trkpt lat="48.9023060" lon="1.4493120">
        <ele>46.8</ele>
        <time>2020-07-01T11:00:49Z</time>
      </trkpt>
      <trkpt lat="48.9021770" lon="1.4494720">
        <ele>47.0</ele>
        <time>2020-07-01T11:00:52Z</time>
      </trkpt>
      <trkpt lat="48.9018520" lon="1.4499010">
        <ele>48.0</ele>
        <time>2020-07-01T11:01:01Z</time>
      </trkpt>
      <trkpt lat="48.9017360" lon="1.4500130">
        <ele>48.0</ele>
        <time>2020-07-01T11:01:06Z</time>
      </trkpt>
      <trkpt lat="48.9017040" lon="1.4500510">
        <ele>48.2</ele>
        <time>2020-07-01T11:01:08Z</time>
      </trkpt>
      <trkpt lat="48.9015530" lon="1.4501960">
        <ele>48.4</ele>
        <time>2020-07-01T11:01:14Z</time>
      </trkpt>
      <trkpt lat="48.9013210" lon="1.4504310">
        <ele>48.4</ele>
        <time>2020-07-01T11:01:20Z</time>
      </trkpt>
      <trkpt lat="48.9009410" lon="1.4508430">
        <ele>48.6</ele>
        <time>2020-07-01T11:01:29Z</time>
      </trkpt>
      <trkpt lat="48.9007100" lon="1.4511330">
        <ele>48.4</ele>
        <time>2020-07-01T11:01:35Z</time>
      </trkpt>
      <trkpt lat="48.9002910" lon="1.4516000">
        <ele>48.6</ele>
        <time>2020-07-01T11:01:45Z</time>
      </trkpt>
      <trkpt lat="48.9000330" lon="1.4519330">
        <ele>49.0</ele>
        <time>2020-07-01T11:01:52Z</time>
      </trkpt>
      <trkpt lat="48.9000130" lon="1.4519640">
        <ele>49.2</ele>
        <time>2020-07-01T11:01:53Z</time>
      </trkpt>
      <trkpt lat="48.8999040" lon="1.4520530">
        <ele>49.2</ele>
        <time>2020-07-01T11:01:58Z</time>
      </trkpt>
      <trkpt lat="48.8998420" lon="1.4522480">
        <ele>49.2</ele>
        <time>2020-07-01T11:02:03Z</time>
      </trkpt>
      <trkpt lat="48.8998240" lon="1.4522830">
        <ele>49.2</ele>
        <time>2020-07-01T11:02:04Z</time>
      </trkpt>
      <trkpt lat="48.8997020" lon="1.4524700">
        <ele>49.6</ele>
        <time>2020-07-01T11:02:09Z</time>
      </trkpt>
      <trkpt lat="48.8995100" lon="1.4527710">
        <ele>49.2</ele>
        <time>2020-07-01T11:02:16Z</time>
      </trkpt>
      <trkpt lat="48.8992540" lon="1.4530730">
        <ele>49.2</ele>
        <time>2020-07-01T11:02:23Z</time>
      </trkpt>
      <trkpt lat="48.8992150" lon="1.4531170">
        <ele>49.2</ele>
        <time>2020-07-01T11:02:24Z</time>
      </trkpt>
      <trkpt lat="48.8989980" lon="1.4533270">
        <ele>48.8</ele>
        <time>2020-07-01T11:02:29Z</time>
      </trkpt>
      <trkpt lat="48.8986620" lon="1.4537560">
        <ele>48.4</ele>
        <time>2020-07-01T11:02:38Z</time>
      </trkpt>
      <trkpt lat="48.8983270" lon="1.4541930">
        <ele>48.4</ele>
        <time>2020-07-01T11:02:47Z</time>
      </trkpt>
      <trkpt lat="48.8980840" lon="1.4545060">
        <ele>48.6</ele>
        <time>2020-07-01T11:02:53Z</time>
      </trkpt>
      <trkpt lat="48.8978150" lon="1.4548890">
        <ele>48.4</ele>
        <time>2020-07-01T11:03:00Z</time>
      </trkpt>
      <trkpt lat="48.8975420" lon="1.4552640">
        <ele>48.4</ele>
        <time>2020-07-01T11:03:07Z</time>
      </trkpt>
      <trkpt lat="48.8975010" lon="1.4553100">
        <ele>48.4</ele>
        <time>2020-07-01T11:03:08Z</time>
      </trkpt>
      <trkpt lat="48.8973790" lon="1.4554450">
        <ele>48.2</ele>
        <time>2020-07-01T11:03:11Z</time>
      </trkpt>
      <trkpt lat="48.8971580" lon="1.4556620">
        <ele>48.0</ele>
        <time>2020-07-01T11:03:16Z</time>
      </trkpt>
      <trkpt lat="48.8970690" lon="1.4557430">
        <ele>47.8</ele>
        <time>2020-07-01T11:03:18Z</time>
      </trkpt>
      <trkpt lat="48.8968670" lon="1.4558880">
        <ele>47.4</ele>
        <time>2020-07-01T11:03:22Z</time>
      </trkpt>
      <trkpt lat="48.8967780" lon="1.4559730">
        <ele>47.2</ele>
        <time>2020-07-01T11:03:24Z</time>
      </trkpt>
      <trkpt lat="48.8966370" lon="1.4560960">
        <ele>46.8</ele>
        <time>2020-07-01T11:03:27Z</time>
      </trkpt>
      <trkpt lat="48.8965530" lon="1.4561760">
        <ele>47.0</ele>
        <time>2020-07-01T11:03:29Z</time>
      </trkpt>
      <trkpt lat="48.8962870" lon="1.4564490">
        <ele>46.4</ele>
        <time>2020-07-01T11:03:36Z</time>
      </trkpt>
      <trkpt lat="48.8961730" lon="1.4566010">
        <ele>46.4</ele>
        <time>2020-07-01T11:03:39Z</time>
      </trkpt>
      <trkpt lat="48.8960070" lon="1.4567650">
        <ele>46.8</ele>
        <time>2020-07-01T11:03:43Z</time>
      </trkpt>
      <trkpt lat="48.8957800" lon="1.4570340">
        <ele>47.8</ele>
        <time>2020-07-01T11:03:49Z</time>
      </trkpt>
      <trkpt lat="48.8954820" lon="1.4573020">
        <ele>48.6</ele>
        <time>2020-07-01T11:03:56Z</time>
      </trkpt>
      <trkpt lat="48.8954430" lon="1.4573400">
        <ele>48.6</ele>
        <time>2020-07-01T11:03:57Z</time>
      </trkpt>
      <trkpt lat="48.8953160" lon="1.4574810">
        <ele>48.8</ele>
        <time>2020-07-01T11:04:01Z</time>
      </trkpt>
      <trkpt lat="48.8952860" lon="1.4575610">
        <ele>48.8</ele>
        <time>2020-07-01T11:04:03Z</time>
      </trkpt>
      <trkpt lat="48.8952760" lon="1.4578260">
        <ele>50.0</ele>
        <time>2020-07-01T11:04:09Z</time>
      </trkpt>
      <trkpt lat="48.8953260" lon="1.4580740">
        <ele>50.8</ele>
        <time>2020-07-01T11:04:13Z</time>
      </trkpt>
      <trkpt lat="48.8953420" lon="1.4581340">
        <ele>50.8</ele>
        <time>2020-07-01T11:04:14Z</time>
      </trkpt>
      <trkpt lat="48.8954730" lon="1.4585670">
        <ele>50.4</ele>
        <time>2020-07-01T11:04:22Z</time>
      </trkpt>
      <trkpt lat="48.8954760" lon="1.4586440">
        <ele>50.4</ele>
        <time>2020-07-01T11:04:24Z</time>
      </trkpt>
      <trkpt lat="48.8954510" lon="1.4586860">
        <ele>50.2</ele>
        <time>2020-07-01T11:04:26Z</time>
      </trkpt>
      <trkpt lat="48.8953580" lon="1.4587290">
        <ele>50.0</ele>
        <time>2020-07-01T11:04:30Z</time>
      </trkpt>
      <trkpt lat="48.8952290" lon="1.4588170">
        <ele>49.8</ele>
        <time>2020-07-01T11:04:34Z</time>
      </trkpt>
      <trkpt lat="48.8951630" lon="1.4588720">
        <ele>50.0</ele>
        <time>2020-07-01T11:04:36Z</time>
      </trkpt>
      <trkpt lat="48.8948980" lon="1.4590060">
        <ele>49.8</ele>
        <time>2020-07-01T11:04:42Z</time>
      </trkpt>
      <trkpt lat="48.8944950" lon="1.4591780">
        <ele>49.2</ele>
        <time>2020-07-01T11:04:50Z</time>
      </trkpt>
      <trkpt lat="48.8942280" lon="1.4592690">
        <ele>49.0</ele>
        <time>2020-07-01T11:04:55Z</time>
      </trkpt>
      <trkpt lat="48.8941320" lon="1.4592890">
        <ele>49.0</ele>
        <time>2020-07-01T11:04:57Z</time>
      </trkpt>
      <trkpt lat="48.8936060" lon="1.4594550">
        <ele>48.8</ele>
        <time>2020-07-01T11:05:07Z</time>
      </trkpt>
      <trkpt lat="48.8930570" lon="1.4596040">
        <ele>49.0</ele>
        <time>2020-07-01T11:05:17Z</time>
      </trkpt>
      <trkpt lat="48.8927930" lon="1.4596970">
        <ele>49.0</ele>
        <time>2020-07-01T11:05:22Z</time>
      </trkpt>
      <trkpt lat="48.8926380" lon="1.4597380">
        <ele>48.8</ele>
        <time>2020-07-01T11:05:25Z</time>
      </trkpt>
      <trkpt lat="48.8923250" lon="1.4598420">
        <ele>48.8</ele>
        <time>2020-07-01T11:05:31Z</time>
      </trkpt>
      <trkpt lat="48.8922220" lon="1.4598600">
        <ele>48.6</ele>
        <time>2020-07-01T11:05:33Z</time>
      </trkpt>
      <trkpt lat="48.8917870" lon="1.4599400">
        <ele>48.6</ele>
        <time>2020-07-01T11:05:41Z</time>
      </trkpt>
      <trkpt lat="48.8915330" lon="1.4600320">
        <ele>48.8</ele>
        <time>2020-07-01T11:05:46Z</time>
      </trkpt>
      <trkpt lat="48.8910730" lon="1.4601610">
        <ele>48.6</ele>
        <time>2020-07-01T11:05:55Z</time>
      </trkpt>
      <trkpt lat="48.8905170" lon="1.4603300">
        <ele>49.0</ele>
        <time>2020-07-01T11:06:05Z</time>
      </trkpt>
      <trkpt lat="48.8901650" lon="1.4604230">
        <ele>49.2</ele>
        <time>2020-07-01T11:06:12Z</time>
      </trkpt>
      <trkpt lat="48.8901180" lon="1.4604360">
        <ele>49.2</ele>
        <time>2020-07-01T11:06:13Z</time>
      </trkpt>
      <trkpt lat="48.8899810" lon="1.4604550">
        <ele>49.2</ele>
        <time>2020-07-01T11:06:16Z</time>
      </trkpt>
      <trkpt lat="48.8899530" lon="1.4604680">
        <ele>49.2</ele>
        <time>2020-07-01T11:06:17Z</time>
      </trkpt>
      <trkpt lat="48.8898460" lon="1.4605190">
        <ele>49.6</ele>
        <time>2020-07-01T11:06:22Z</time>
      </trkpt>
      <trkpt lat="48.8896880" lon="1.4605580">
        <ele>50.6</ele>
        <time>2020-07-01T11:06:29Z</time>
      </trkpt>
      <trkpt lat="48.8894980" lon="1.4606290">
        <ele>50.6</ele>
        <time>2020-07-01T11:06:35Z</time>
      </trkpt>
      <trkpt lat="48.8891730" lon="1.4607390">
        <ele>50.0</ele>
        <time>2020-07-01T11:06:42Z</time>
      </trkpt>
      <trkpt lat="48.8887270" lon="1.4609540">
        <ele>49.4</ele>
        <time>2020-07-01T11:06:51Z</time>
      </trkpt>
      <trkpt lat="48.8882070" lon="1.4612430">
        <ele>49.2</ele>
        <time>2020-07-01T11:07:02Z</time>
      </trkpt>
      <trkpt lat="48.8881610" lon="1.4612680">
        <ele>49.2</ele>
        <time>2020-07-01T11:07:03Z</time>
      </trkpt>
      <trkpt lat="48.8877170" lon="1.4614800">
        <ele>49.8</ele>
        <time>2020-07-01T11:07:12Z</time>
      </trkpt>
      <trkpt lat="48.8875780" lon="1.4614960">
        <ele>49.8</ele>
        <time>2020-07-01T11:07:15Z</time>
      </trkpt>
      <trkpt lat="48.8874800" lon="1.4615270">
        <ele>49.8</ele>
        <time>2020-07-01T11:07:18Z</time>
      </trkpt>
      <trkpt lat="48.8874510" lon="1.4615820">
        <ele>50.0</ele>
        <time>2020-07-01T11:07:20Z</time>
      </trkpt>
      <trkpt lat="48.8874480" lon="1.4616680">
        <ele>50.0</ele>
        <time>2020-07-01T11:07:22Z</time>
      </trkpt>
      <trkpt lat="48.8874250" lon="1.4618770">
        <ele>50.0</ele>
        <time>2020-07-01T11:07:26Z</time>
      </trkpt>
      <trkpt lat="48.8874090" lon="1.4618900">
        <ele>50.0</ele>
        <time>2020-07-01T11:07:27Z</time>
      </trkpt>
      <trkpt lat="48.8873720" lon="1.4618980">
        <ele>50.4</ele>
        <time>2020-07-01T11:07:30Z</time>
      </trkpt>
      <trkpt lat="48.8872930" lon="1.4618770">
        <ele>50.6</ele>
        <time>2020-07-01T11:07:39Z</time>
      </trkpt>
      <trkpt lat="48.8872220" lon="1.4618240">
        <ele>50.4</ele>
        <time>2020-07-01T11:07:43Z</time>
      </trkpt>
      <trkpt lat="48.8871980" lon="1.4617940">
        <ele>50.4</ele>
        <time>2020-07-01T11:07:44Z</time>
      </trkpt>
      <trkpt lat="48.8871690" lon="1.4617480">
        <ele>50.4</ele>
        <time>2020-07-01T11:07:45Z</time>
      </trkpt>
      <trkpt lat="48.8871250" lon="1.4616400">
        <ele>50.6</ele>
        <time>2020-07-01T11:07:47Z</time>
      </trkpt>
      <trkpt lat="48.8871090" lon="1.4615880">
        <ele>50.4</ele>
        <time>2020-07-01T11:07:48Z</time>
      </trkpt>
      <trkpt lat="48.8870080" lon="1.4614270">
        <ele>50.6</ele>
        <time>2020-07-01T11:07:53Z</time>
      </trkpt>
      <trkpt lat="48.8868490" lon="1.4613770">
        <ele>50.2</ele>
        <time>2020-07-01T11:07:57Z</time>
      </trkpt>
      <trkpt lat="48.8868020" lon="1.4613700">
        <ele>50.2</ele>
        <time>2020-07-01T11:07:58Z</time>
      </trkpt>
      <trkpt lat="48.8864210" lon="1.4613170">
        <ele>50.2</ele>
        <time>2020-07-01T11:08:07Z</time>
      </trkpt>
      <trkpt lat="48.8863060" lon="1.4612810">
        <ele>50.4</ele>
        <time>2020-07-01T11:08:12Z</time>
      </trkpt>
      <trkpt lat="48.8861890" lon="1.4613200">
        <ele>50.8</ele>
        <time>2020-07-01T11:08:19Z</time>
      </trkpt>
      <trkpt lat="48.8860990" lon="1.4612520">
        <ele>51.0</ele>
        <time>2020-07-01T11:08:25Z</time>
      </trkpt>
      <trkpt lat="48.8859860" lon="1.4611960">
        <ele>50.8</ele>
        <time>2020-07-01T11:08:31Z</time>
      </trkpt>
      <trkpt lat="48.8859100" lon="1.4611060">
        <ele>50.8</ele>
        <time>2020-07-01T11:08:35Z</time>
      </trkpt>
      <trkpt lat="48.8858620" lon="1.4610660">
        <ele>50.6</ele>
        <time>2020-07-01T11:08:37Z</time>
      </trkpt>
      <trkpt lat="48.8856440" lon="1.4608960">
        <ele>50.2</ele>
        <time>2020-07-01T11:08:44Z</time>
      </trkpt>
      <trkpt lat="48.8856080" lon="1.4608790">
        <ele>50.0</ele>
        <time>2020-07-01T11:08:45Z</time>
      </trkpt>
      <trkpt lat="48.8854470" lon="1.4608450">
        <ele>49.8</ele>
        <time>2020-07-01T11:08:49Z</time>
      </trkpt>
      <trkpt lat="48.8852840" lon="1.4608340">
        <ele>49.6</ele>
        <time>2020-07-01T11:08:54Z</time>
      </trkpt>
      <trkpt lat="48.8852600" lon="1.4608420">
        <ele>49.8</ele>
        <time>2020-07-01T11:08:55Z</time>
      </trkpt>
      <trkpt lat="48.8851860" lon="1.4608110">
        <ele>49.8</ele>
        <time>2020-07-01T11:09:00Z</time>
      </trkpt>
      <trkpt lat="48.8851620" lon="1.4605880">
        <ele>50.4</ele>
        <time>2020-07-01T11:09:05Z</time>
      </trkpt>
      <trkpt lat="48.8851490" lon="1.4605170">
        <ele>50.4</ele>
        <time>2020-07-01T11:09:07Z</time>
      </trkpt>
      <trkpt lat="48.8851010" lon="1.4604620">
        <ele>50.4</ele>
        <time>2020-07-01T11:09:09Z</time>
      </trkpt>
      <trkpt lat="48.8850680" lon="1.4604500">
        <ele>50.4</ele>
        <time>2020-07-01T11:09:10Z</time>
      </trkpt>
      <trkpt lat="48.8849130" lon="1.4604440">
        <ele>50.4</ele>
        <time>2020-07-01T11:09:14Z</time>
      </trkpt>
      <trkpt lat="48.8845890" lon="1.4604260">
        <ele>49.8</ele>
        <time>2020-07-01T11:09:21Z</time>
      </trkpt>
      <trkpt lat="48.8843960" lon="1.4603920">
        <ele>49.6</ele>
        <time>2020-07-01T11:09:25Z</time>
      </trkpt>
      <trkpt lat="48.8842650" lon="1.4603800">
        <ele>49.6</ele>
        <time>2020-07-01T11:09:28Z</time>
      </trkpt>
      <trkpt lat="48.8839850" lon="1.4603630">
        <ele>50.4</ele>
        <time>2020-07-01T11:09:35Z</time>
      </trkpt>
      <trkpt lat="48.8838400" lon="1.4603300">
        <ele>50.2</ele>
        <time>2020-07-01T11:09:38Z</time>
      </trkpt>
      <trkpt lat="48.8837330" lon="1.4602970">
        <ele>50.2</ele>
        <time>2020-07-01T11:09:40Z</time>
      </trkpt>
      <trkpt lat="48.8834310" lon="1.4602740">
        <ele>50.2</ele>
        <time>2020-07-01T11:09:45Z</time>
      </trkpt>
      <trkpt lat="48.8832640" lon="1.4602620">
        <ele>50.4</ele>
        <time>2020-07-01T11:09:48Z</time>
      </trkpt>
      <trkpt lat="48.8831160" lon="1.4602440">
        <ele>50.4</ele>
        <time>2020-07-01T11:09:51Z</time>
      </trkpt>
      <trkpt lat="48.8830070" lon="1.4602320">
        <ele>50.4</ele>
        <time>2020-07-01T11:09:54Z</time>
      </trkpt>
      <trkpt lat="48.8829880" lon="1.4602340">
        <ele>50.4</ele>
        <time>2020-07-01T11:09:55Z</time>
      </trkpt>
      <trkpt lat="48.8829750" lon="1.4602600">
        <ele>51.0</ele>
        <time>2020-07-01T11:09:59Z</time>
      </trkpt>
      <trkpt lat="48.8829740" lon="1.4602910">
        <ele>51.4</ele>
        <time>2020-07-01T11:10:01Z</time>
      </trkpt>
      <trkpt lat="48.8829890" lon="1.4603450">
        <ele>51.8</ele>
        <time>2020-07-01T11:10:03Z</time>
      </trkpt>
      <trkpt lat="48.8829970" lon="1.4603830">
        <ele>51.6</ele>
        <time>2020-07-01T11:10:04Z</time>
      </trkpt>
      <trkpt lat="48.8830030" lon="1.4605010">
        <ele>51.8</ele>
        <time>2020-07-01T11:10:09Z</time>
      </trkpt>
      <trkpt lat="48.8829960" lon="1.4605070">
        <ele>51.8</ele>
        <time>2020-07-01T11:10:10Z</time>
      </trkpt>
      <trkpt lat="48.8829100" lon="1.4605000">
        <ele>51.8</ele>
        <time>2020-07-01T11:10:15Z</time>
      </trkpt>
      <trkpt lat="48.8827670" lon="1.4604900">
        <ele>51.4</ele>
        <time>2020-07-01T11:10:21Z</time>
      </trkpt>
      <trkpt lat="48.8825240" lon="1.4604680">
        <ele>51.0</ele>
        <time>2020-07-01T11:10:29Z</time>
      </trkpt>
      <trkpt lat="48.8824770" lon="1.4604320">
        <ele>51.0</ele>
        <time>2020-07-01T11:10:31Z</time>
      </trkpt>
      <trkpt lat="48.8824500" lon="1.4604220">
        <ele>51.0</ele>
        <time>2020-07-01T11:10:32Z</time>
      </trkpt>
      <trkpt lat="48.8823940" lon="1.4603950">
        <ele>51.0</ele>
        <time>2020-07-01T11:10:34Z</time>
      </trkpt>
      <trkpt lat="48.8822230" lon="1.4603600">
        <ele>51.0</ele>
        <time>2020-07-01T11:10:41Z</time>
      </trkpt>
      <trkpt lat="48.8821400" lon="1.4603180">
        <ele>51.2</ele>
        <time>2020-07-01T11:10:45Z</time>
      </trkpt>
      <trkpt lat="48.8821350" lon="1.4602940">
        <ele>51.0</ele>
        <time>2020-07-01T11:10:46Z</time>
      </trkpt>
      <trkpt lat="48.8821400" lon="1.4601980">
        <ele>51.4</ele>
        <time>2020-07-01T11:10:50Z</time>
      </trkpt>
      <trkpt lat="48.8821370" lon="1.4602000">
        <ele>51.4</ele>
        <time>2020-07-01T11:10:51Z</time>
      </trkpt>
      <trkpt lat="48.8821420" lon="1.4603240">
        <ele>51.6</ele>
        <time>2020-07-01T11:10:55Z</time>
      </trkpt>
      <trkpt lat="48.8821160" lon="1.4603800">
        <ele>51.6</ele>
        <time>2020-07-01T11:10:57Z</time>
      </trkpt>
      <trkpt lat="48.8820690" lon="1.4604170">
        <ele>51.4</ele>
        <time>2020-07-01T11:10:59Z</time>
      </trkpt>
      <trkpt lat="48.8820090" lon="1.4604670">
        <ele>51.6</ele>
        <time>2020-07-01T11:11:03Z</time>
      </trkpt>
      <trkpt lat="48.8818300" lon="1.4603950">
        <ele>51.6</ele>
        <time>2020-07-01T11:11:08Z</time>
      </trkpt>
      <trkpt lat="48.8815440" lon="1.4602570">
        <ele>51.4</ele>
        <time>2020-07-01T11:11:14Z</time>
      </trkpt>
      <trkpt lat="48.8814810" lon="1.4602220">
        <ele>51.4</ele>
        <time>2020-07-01T11:11:15Z</time>
      </trkpt>
      <trkpt lat="48.8814140" lon="1.4602160">
        <ele>51.0</ele>
        <time>2020-07-01T11:11:18Z</time>
      </trkpt>
      <trkpt lat="48.8812200" lon="1.4602300">
        <ele>50.8</ele>
        <time>2020-07-01T11:11:24Z</time>
      </trkpt>
      <trkpt lat="48.8809170" lon="1.4601810">
        <ele>50.6</ele>
        <time>2020-07-01T11:11:31Z</time>
      </trkpt>
      <trkpt lat="48.8805550" lon="1.4601000">
        <ele>50.2</ele>
        <time>2020-07-01T11:11:39Z</time>
      </trkpt>
      <trkpt lat="48.8801270" lon="1.4599890">
        <ele>50.0</ele>
        <time>2020-07-01T11:11:48Z</time>
      </trkpt>
      <trkpt lat="48.8796180" lon="1.4597500">
        <ele>50.0</ele>
        <time>2020-07-01T11:11:58Z</time>
      </trkpt>
      <trkpt lat="48.8792110" lon="1.4594560">
        <ele>50.0</ele>
        <time>2020-07-01T11:12:05Z</time>
      </trkpt>
      <trkpt lat="48.8787980" lon="1.4591790">
        <ele>50.2</ele>
        <time>2020-07-01T11:12:12Z</time>
      </trkpt>
      <trkpt lat="48.8784850" lon="1.4589490">
        <ele>50.4</ele>
        <time>2020-07-01T11:12:17Z</time>
      </trkpt>
      <trkpt lat="48.8781590" lon="1.4586610">
        <ele>50.2</ele>
        <time>2020-07-01T11:12:22Z</time>
      </trkpt>
      <trkpt lat="48.8777730" lon="1.4583350">
        <ele>50.0</ele>
        <time>2020-07-01T11:12:28Z</time>
      </trkpt>
      <trkpt lat="48.8777210" lon="1.4582900">
        <ele>49.8</ele>
        <time>2020-07-01T11:12:29Z</time>
      </trkpt>
      <trkpt lat="48.8775390" lon="1.4582170">
        <ele>49.8</ele>
        <time>2020-07-01T11:12:34Z</time>
      </trkpt>
      <trkpt lat="48.8771930" lon="1.4580390">
        <ele>49.8</ele>
        <time>2020-07-01T11:12:42Z</time>
      </trkpt>
      <trkpt lat="48.8770980" lon="1.4579820">
        <ele>50.0</ele>
        <time>2020-07-01T11:12:44Z</time>
      </trkpt>
      <trkpt lat="48.8768740" lon="1.4578410">
        <ele>50.4</ele>
        <time>2020-07-01T11:12:49Z</time>
      </trkpt>
      <trkpt lat="48.8766010" lon="1.4576180">
        <ele>50.4</ele>
        <time>2020-07-01T11:12:54Z</time>
      </trkpt>
      <trkpt lat="48.8762680" lon="1.4572860">
        <ele>50.6</ele>
        <time>2020-07-01T11:13:00Z</time>
      </trkpt>
      <trkpt lat="48.8760640" lon="1.4570620">
        <ele>51.0</ele>
        <time>2020-07-01T11:13:05Z</time>
      </trkpt>
      <trkpt lat="48.8757670" lon="1.4567320">
        <ele>51.0</ele>
        <time>2020-07-01T11:13:12Z</time>
      </trkpt>
      <trkpt lat="48.8756290" lon="1.4565900">
        <ele>51.2</ele>
        <time>2020-07-01T11:13:17Z</time>
      </trkpt>
      <trkpt lat="48.8754560" lon="1.4563930">
        <ele>51.0</ele>
        <time>2020-07-01T11:13:22Z</time>
      </trkpt>
      <trkpt lat="48.8751900" lon="1.4560900">
        <ele>50.6</ele>
        <time>2020-07-01T11:13:29Z</time>
      </trkpt>
      <trkpt lat="48.8749460" lon="1.4558040">
        <ele>50.6</ele>
        <time>2020-07-01T11:13:35Z</time>
      </trkpt>
      <trkpt lat="48.8747390" lon="1.4555040">
        <ele>50.6</ele>
        <time>2020-07-01T11:13:41Z</time>
      </trkpt>
      <trkpt lat="48.8745110" lon="1.4551420">
        <ele>50.8</ele>
        <time>2020-07-01T11:13:48Z</time>
      </trkpt>
      <trkpt lat="48.8743460" lon="1.4548730">
        <ele>50.8</ele>
        <time>2020-07-01T11:13:53Z</time>
      </trkpt>
      <trkpt lat="48.8743110" lon="1.4548180">
        <ele>51.0</ele>
        <time>2020-07-01T11:13:54Z</time>
      </trkpt>
      <trkpt lat="48.8739860" lon="1.4543090">
        <ele>51.2</ele>
        <time>2020-07-01T11:14:03Z</time>
      </trkpt>
      <trkpt lat="48.8737070" lon="1.4538250">
        <ele>51.4</ele>
        <time>2020-07-01T11:14:10Z</time>
      </trkpt>
      <trkpt lat="48.8735080" lon="1.4535350">
        <ele>51.4</ele>
        <time>2020-07-01T11:14:14Z</time>
      </trkpt>
      <trkpt lat="48.8732430" lon="1.4530650">
        <ele>51.4</ele>
        <time>2020-07-01T11:14:21Z</time>
      </trkpt>
      <trkpt lat="48.8731150" lon="1.4527190">
        <ele>51.4</ele>
        <time>2020-07-01T11:14:27Z</time>
      </trkpt>
      <trkpt lat="48.8729390" lon="1.4523390">
        <ele>51.6</ele>
        <time>2020-07-01T11:14:33Z</time>
      </trkpt>
      <trkpt lat="48.8727580" lon="1.4519580">
        <ele>51.8</ele>
        <time>2020-07-01T11:14:39Z</time>
      </trkpt>
      <trkpt lat="48.8726690" lon="1.4517790">
        <ele>51.6</ele>
        <time>2020-07-01T11:14:42Z</time>
      </trkpt>
      <trkpt lat="48.8726180" lon="1.4516660">
        <ele>51.8</ele>
        <time>2020-07-01T11:14:44Z</time>
      </trkpt>
      <trkpt lat="48.8725920" lon="1.4516010">
        <ele>51.8</ele>
        <time>2020-07-01T11:14:45Z</time>
      </trkpt>
      <trkpt lat="48.8724760" lon="1.4513060">
        <ele>51.8</ele>
        <time>2020-07-01T11:14:49Z</time>
      </trkpt>
      <trkpt lat="48.8723690" lon="1.4509170">
        <ele>52.0</ele>
        <time>2020-07-01T11:14:55Z</time>
      </trkpt>
      <trkpt lat="48.8722510" lon="1.4504640">
        <ele>52.4</ele>
        <time>2020-07-01T11:15:02Z</time>
      </trkpt>
      <trkpt lat="48.8721980" lon="1.4502630">
        <ele>52.2</ele>
        <time>2020-07-01T11:15:05Z</time>
      </trkpt>
      <trkpt lat="48.8721790" lon="1.4501920">
        <ele>52.2</ele>
        <time>2020-07-01T11:15:06Z</time>
      </trkpt>
      <trkpt lat="48.8721220" lon="1.4500410">
        <ele>52.4</ele>
        <time>2020-07-01T11:15:08Z</time>
      </trkpt>
      <trkpt lat="48.8719820" lon="1.4496390">
        <ele>52.8</ele>
        <time>2020-07-01T11:15:13Z</time>
      </trkpt>
      <trkpt lat="48.8719180" lon="1.4493250">
        <ele>52.8</ele>
        <time>2020-07-01T11:15:18Z</time>
      </trkpt>
      <trkpt lat="48.8717900" lon="1.4489320">
        <ele>52.6</ele>
        <time>2020-07-01T11:15:24Z</time>
      </trkpt>
      <trkpt lat="48.8717740" lon="1.4488670">
        <ele>52.8</ele>
        <time>2020-07-01T11:15:25Z</time>
      </trkpt>
      <trkpt lat="48.8717350" lon="1.4486290">
        <ele>52.8</ele>
        <time>2020-07-01T11:15:29Z</time>
      </trkpt>
      <trkpt lat="48.8716200" lon="1.4482950">
        <ele>52.8</ele>
        <time>2020-07-01T11:15:34Z</time>
      </trkpt>
      <trkpt lat="48.8714680" lon="1.4478320">
        <ele>52.8</ele>
        <time>2020-07-01T11:15:41Z</time>
      </trkpt>
      <trkpt lat="48.8714430" lon="1.4477640">
        <ele>53.0</ele>
        <time>2020-07-01T11:15:42Z</time>
      </trkpt>
      <trkpt lat="48.8713630" lon="1.4474490">
        <ele>53.2</ele>
        <time>2020-07-01T11:15:47Z</time>
      </trkpt>
      <trkpt lat="48.8713560" lon="1.4473930">
        <ele>53.2</ele>
        <time>2020-07-01T11:15:48Z</time>
      </trkpt>
      <trkpt lat="48.8713190" lon="1.4470250">
        <ele>53.6</ele>
        <time>2020-07-01T11:15:54Z</time>
      </trkpt>
      <trkpt lat="48.8712170" lon="1.4466460">
        <ele>54.2</ele>
        <time>2020-07-01T11:15:59Z</time>
      </trkpt>
      <trkpt lat="48.8711740" lon="1.4464880">
        <ele>54.2</ele>
        <time>2020-07-01T11:16:01Z</time>
      </trkpt>
      <trkpt lat="48.8710840" lon="1.4460830">
        <ele>54.2</ele>
        <time>2020-07-01T11:16:06Z</time>
      </trkpt>
      <trkpt lat="48.8709430" lon="1.4454960">
        <ele>54.4</ele>
        <time>2020-07-01T11:16:14Z</time>
      </trkpt>
      <trkpt lat="48.8708590" lon="1.4451540">
        <ele>54.6</ele>
        <time>2020-07-01T11:16:19Z</time>
      </trkpt>
      <trkpt lat="48.8708580" lon="1.4450940">
        <ele>54.6</ele>
        <time>2020-07-01T11:16:20Z</time>
      </trkpt>
      <trkpt lat="48.8708340" lon="1.4445370">
        <ele>55.0</ele>
        <time>2020-07-01T11:16:29Z</time>
      </trkpt>
      <trkpt lat="48.8707800" lon="1.4440040">
        <ele>55.2</ele>
        <time>2020-07-01T11:16:37Z</time>
      </trkpt>
      <trkpt lat="48.8707720" lon="1.4439290">
        <ele>55.0</ele>
        <time>2020-07-01T11:16:38Z</time>
      </trkpt>
      <trkpt lat="48.8706720" lon="1.4435130">
        <ele>55.4</ele>
        <time>2020-07-01T11:16:43Z</time>
      </trkpt>
      <trkpt lat="48.8706360" lon="1.4430740">
        <ele>55.4</ele>
        <time>2020-07-01T11:16:49Z</time>
      </trkpt>
      <trkpt lat="48.8706070" lon="1.4424420">
        <ele>55.4</ele>
        <time>2020-07-01T11:16:58Z</time>
      </trkpt>
      <trkpt lat="48.8706020" lon="1.4423730">
        <ele>55.6</ele>
        <time>2020-07-01T11:16:59Z</time>
      </trkpt>
      <trkpt lat="48.8706040" lon="1.4420970">
        <ele>55.2</ele>
        <time>2020-07-01T11:17:03Z</time>
      </trkpt>
      <trkpt lat="48.8705780" lon="1.4418640">
        <ele>55.4</ele>
        <time>2020-07-01T11:17:06Z</time>
      </trkpt>
      <trkpt lat="48.8705300" lon="1.4412540">
        <ele>55.2</ele>
        <time>2020-07-01T11:17:14Z</time>
      </trkpt>
      <trkpt lat="48.8704910" lon="1.4406570">
        <ele>55.2</ele>
        <time>2020-07-01T11:17:22Z</time>
      </trkpt>
      <trkpt lat="48.8704480" lon="1.4398820">
        <ele>55.4</ele>
        <time>2020-07-01T11:17:32Z</time>
      </trkpt>
      <trkpt lat="48.8704110" lon="1.4396490">
        <ele>55.4</ele>
        <time>2020-07-01T11:17:35Z</time>
      </trkpt>
      <trkpt lat="48.8703500" lon="1.4393930">
        <ele>55.6</ele>
        <time>2020-07-01T11:17:38Z</time>
      </trkpt>
      <trkpt lat="48.8702350" lon="1.4388480">
        <ele>55.6</ele>
        <time>2020-07-01T11:17:44Z</time>
      </trkpt>
      <trkpt lat="48.8702290" lon="1.4383840">
        <ele>55.6</ele>
        <time>2020-07-01T11:17:50Z</time>
      </trkpt>
      <trkpt lat="48.8702180" lon="1.4379980">
        <ele>55.4</ele>
        <time>2020-07-01T11:17:55Z</time>
      </trkpt>
      <trkpt lat="48.8702080" lon="1.4378280">
        <ele>55.6</ele>
        <time>2020-07-01T11:17:57Z</time>
      </trkpt>
      <trkpt lat="48.8702010" lon="1.4377430">
        <ele>55.4</ele>
        <time>2020-07-01T11:17:58Z</time>
      </trkpt>
      <trkpt lat="48.8701110" lon="1.4372740">
        <ele>55.4</ele>
        <time>2020-07-01T11:18:03Z</time>
      </trkpt>
      <trkpt lat="48.8700160" lon="1.4367820">
        <ele>55.4</ele>
        <time>2020-07-01T11:18:08Z</time>
      </trkpt>
      <trkpt lat="48.8700110" lon="1.4367010">
        <ele>55.4</ele>
        <time>2020-07-01T11:18:09Z</time>
      </trkpt>
      <trkpt lat="48.8700030" lon="1.4363050">
        <ele>55.4</ele>
        <time>2020-07-01T11:18:14Z</time>
      </trkpt>
      <trkpt lat="48.8699790" lon="1.4356750">
        <ele>55.4</ele>
        <time>2020-07-01T11:18:22Z</time>
      </trkpt>
      <trkpt lat="48.8699280" lon="1.4350860">
        <ele>55.0</ele>
        <time>2020-07-01T11:18:29Z</time>
      </trkpt>
      <trkpt lat="48.8698710" lon="1.4347310">
        <ele>55.0</ele>
        <time>2020-07-01T11:18:33Z</time>
      </trkpt>
      <trkpt lat="48.8698260" lon="1.4344610">
        <ele>55.2</ele>
        <time>2020-07-01T11:18:36Z</time>
      </trkpt>
      <trkpt lat="48.8696850" lon="1.4337900">
        <ele>55.2</ele>
        <time>2020-07-01T11:18:43Z</time>
      </trkpt>
      <trkpt lat="48.8696730" lon="1.4337020">
        <ele>55.2</ele>
        <time>2020-07-01T11:18:44Z</time>
      </trkpt>
      <trkpt lat="48.8696710" lon="1.4334730">
        <ele>55.0</ele>
        <time>2020-07-01T11:18:47Z</time>
      </trkpt>
      <trkpt lat="48.8696820" lon="1.4334130">
        <ele>55.2</ele>
        <time>2020-07-01T11:18:48Z</time>
      </trkpt>
      <trkpt lat="48.8696940" lon="1.4329450">
        <ele>54.6</ele>
        <time>2020-07-01T11:18:55Z</time>
      </trkpt>
      <trkpt lat="48.8697210" lon="1.4323990">
        <ele>53.6</ele>
        <time>2020-07-01T11:19:03Z</time>
      </trkpt>
      <trkpt lat="48.8697200" lon="1.4322600">
        <ele>53.6</ele>
        <time>2020-07-01T11:19:05Z</time>
      </trkpt>
      <trkpt lat="48.8696980" lon="1.4316530">
        <ele>54.0</ele>
        <time>2020-07-01T11:19:13Z</time>
      </trkpt>
      <trkpt lat="48.8696940" lon="1.4315740">
        <ele>53.8</ele>
        <time>2020-07-01T11:19:14Z</time>
      </trkpt>
      <trkpt lat="48.8696270" lon="1.4310710">
        <ele>54.0</ele>
        <time>2020-07-01T11:19:20Z</time>
      </trkpt>
      <trkpt lat="48.8695220" lon="1.4304600">
        <ele>54.0</ele>
        <time>2020-07-01T11:19:27Z</time>
      </trkpt>
      <trkpt lat="48.8695110" lon="1.4303720">
        <ele>54.0</ele>
        <time>2020-07-01T11:19:28Z</time>
      </trkpt>
      <trkpt lat="48.8694840" lon="1.4299720">
        <ele>54.0</ele>
        <time>2020-07-01T11:19:33Z</time>
      </trkpt>
      <trkpt lat="48.8695000" lon="1.4295080">
        <ele>54.0</ele>
        <time>2020-07-01T11:19:40Z</time>
      </trkpt>
      <trkpt lat="48.8695060" lon="1.4292270">
        <ele>54.2</ele>
        <time>2020-07-01T11:19:45Z</time>
      </trkpt>
      <trkpt lat="48.8695210" lon="1.4291980">
        <ele>54.2</ele>
        <time>2020-07-01T11:19:46Z</time>
      </trkpt>
      <trkpt lat="48.8695470" lon="1.4291900">
        <ele>54.2</ele>
        <time>2020-07-01T11:19:47Z</time>
      </trkpt>
      <trkpt lat="48.8696150" lon="1.4291830">
        <ele>54.4</ele>
        <time>2020-07-01T11:19:50Z</time>
      </trkpt>
      <trkpt lat="48.8696500" lon="1.4291050">
        <ele>55.2</ele>
        <time>2020-07-01T11:19:54Z</time>
      </trkpt>
      <trkpt lat="48.8696500" lon="1.4290750">
        <ele>55.2</ele>
        <time>2020-07-01T11:19:55Z</time>
      </trkpt>
      <trkpt lat="48.8696450" lon="1.4290370">
        <ele>55.2</ele>
        <time>2020-07-01T11:19:56Z</time>
      </trkpt>
      <trkpt lat="48.8696200" lon="1.4289070">
        <ele>55.4</ele>
        <time>2020-07-01T11:19:59Z</time>
      </trkpt>
      <trkpt lat="48.8696070" lon="1.4288010">
        <ele>55.8</ele>
        <time>2020-07-01T11:20:01Z</time>
      </trkpt>
      <trkpt lat="48.8695790" lon="1.4286860">
        <ele>56.0</ele>
        <time>2020-07-01T11:20:03Z</time>
      </trkpt>
      <trkpt lat="48.8695040" lon="1.4285550">
        <ele>56.0</ele>
        <time>2020-07-01T11:20:05Z</time>
      </trkpt>
      <trkpt lat="48.8693840" lon="1.4283590">
        <ele>55.6</ele>
        <time>2020-07-01T11:20:09Z</time>
      </trkpt>
      <trkpt lat="48.8693590" lon="1.4283060">
        <ele>55.8</ele>
        <time>2020-07-01T11:20:10Z</time>
      </trkpt>
      <trkpt lat="48.8693080" lon="1.4282100">
        <ele>55.8</ele>
        <time>2020-07-01T11:20:12Z</time>
      </trkpt>
      <trkpt lat="48.8692730" lon="1.4281690">
        <ele>55.8</ele>
        <time>2020-07-01T11:20:14Z</time>
      </trkpt>
      <trkpt lat="48.8691890" lon="1.4280610">
        <ele>56.0</ele>
        <time>2020-07-01T11:20:18Z</time>
      </trkpt>
      <trkpt lat="48.8691590" lon="1.4278430">
        <ele>56.2</ele>
        <time>2020-07-01T11:20:25Z</time>
      </trkpt>
      <trkpt lat="48.8691480" lon="1.4278460">
        <ele>56.2</ele>
        <time>2020-07-01T11:20:32Z</time>
      </trkpt>
      <trkpt lat="48.8691810" lon="1.4278950">
        <ele>56.4</ele>
        <time>2020-07-01T11:20:37Z</time>
      </trkpt>
      <trkpt lat="48.8692040" lon="1.4279110">
        <ele>56.6</ele>
        <time>2020-07-01T11:20:48Z</time>
      </trkpt>
      <trkpt lat="48.8692040" lon="1.4279220">
        <ele>56.6</ele>
        <time>2020-07-01T11:21:07Z</time>
      </trkpt>
      <trkpt lat="48.8692060" lon="1.4279210">
        <ele>56.6</ele>
        <time>2020-07-01T11:21:11Z</time>
      </trkpt>
      <trkpt lat="48.8691960" lon="1.4279250">
        <ele>56.4</ele>
        <time>2020-07-01T11:21:23Z</time>
      </trkpt>
      <trkpt lat="48.8692550" lon="1.4279820">
        <ele>56.4</ele>
        <time>2020-07-01T11:21:33Z</time>
      </trkpt>
      <trkpt lat="48.8692690" lon="1.4279950">
        <ele>56.4</ele>
        <time>2020-07-01T11:21:46Z</time>
      </trkpt>
      <trkpt lat="48.8692680" lon="1.4279840">
        <ele>56.2</ele>
        <time>2020-07-01T11:22:03Z</time>
      </trkpt>
      <trkpt lat="48.8692580" lon="1.4279620">
        <ele>56.4</ele>
        <time>2020-07-01T11:22:15Z</time>
      </trkpt>
      <trkpt lat="48.8692300" lon="1.4279350">
        <ele>56.0</ele>
        <time>2020-07-01T11:22:29Z</time>
      </trkpt>
      <trkpt lat="48.8692280" lon="1.4279370">
        <ele>56.2</ele>
        <time>2020-07-01T11:22:40Z</time>
      </trkpt>
      <trkpt lat="48.8692470" lon="1.4278640">
        <ele>56.2</ele>
        <time>2020-07-01T11:22:59Z</time>
      </trkpt>
      <trkpt lat="48.8692370" lon="1.4276310">
        <ele>56.0</ele>
        <time>2020-07-01T11:23:08Z</time>
      </trkpt>
      <trkpt lat="48.8692340" lon="1.4275830">
        <ele>55.8</ele>
        <time>2020-07-01T11:23:09Z</time>
      </trkpt>
      <trkpt lat="48.8691920" lon="1.4272500">
        <ele>55.6</ele>
        <time>2020-07-01T11:23:15Z</time>
      </trkpt>
      <trkpt lat="48.8691340" lon="1.4267440">
        <ele>55.6</ele>
        <time>2020-07-01T11:23:23Z</time>
      </trkpt>
      <trkpt lat="48.8691370" lon="1.4266340">
        <ele>55.4</ele>
        <time>2020-07-01T11:23:25Z</time>
      </trkpt>
      <trkpt lat="48.8691380" lon="1.4264030">
        <ele>55.4</ele>
        <time>2020-07-01T11:23:29Z</time>
      </trkpt>
      <trkpt lat="48.8691290" lon="1.4262770">
        <ele>55.6</ele>
        <time>2020-07-01T11:23:31Z</time>
      </trkpt>
      <trkpt lat="48.8690740" lon="1.4258520">
        <ele>55.6</ele>
        <time>2020-07-01T11:23:38Z</time>
      </trkpt>
      <trkpt lat="48.8689950" lon="1.4253990">
        <ele>55.2</ele>
        <time>2020-07-01T11:23:46Z</time>
      </trkpt>
      <trkpt lat="48.8689050" lon="1.4249370">
        <ele>55.2</ele>
        <time>2020-07-01T11:23:53Z</time>
      </trkpt>
      <trkpt lat="48.8688580" lon="1.4247430">
        <ele>55.6</ele>
        <time>2020-07-01T11:23:58Z</time>
      </trkpt>
      <trkpt lat="48.8688390" lon="1.4246550">
        <ele>56.0</ele>
        <time>2020-07-01T11:24:04Z</time>
      </trkpt>
      <trkpt lat="48.8687830" lon="1.4244590">
        <ele>56.8</ele>
        <time>2020-07-01T11:24:15Z</time>
      </trkpt>
      <trkpt lat="48.8687780" lon="1.4244410">
        <ele>56.6</ele>
        <time>2020-07-01T11:24:16Z</time>
      </trkpt>
      <trkpt lat="48.8687320" lon="1.4242390">
        <ele>56.6</ele>
        <time>2020-07-01T11:24:23Z</time>
      </trkpt>
      <trkpt lat="48.8686910" lon="1.4240990">
        <ele>56.6</ele>
        <time>2020-07-01T11:24:26Z</time>
      </trkpt>
      <trkpt lat="48.8686410" lon="1.4239230">
        <ele>56.6</ele>
        <time>2020-07-01T11:24:29Z</time>
      </trkpt>
      <trkpt lat="48.8685690" lon="1.4236000">
        <ele>56.0</ele>
        <time>2020-07-01T11:24:34Z</time>
      </trkpt>
      <trkpt lat="48.8685150" lon="1.4233910">
        <ele>55.0</ele>
        <time>2020-07-01T11:24:37Z</time>
      </trkpt>
      <trkpt lat="48.8684910" lon="1.4233210">
        <ele>55.0</ele>
        <time>2020-07-01T11:24:38Z</time>
      </trkpt>
      <trkpt lat="48.8684200" lon="1.4230410">
        <ele>54.6</ele>
        <time>2020-07-01T11:24:42Z</time>
      </trkpt>
      <trkpt lat="48.8683000" lon="1.4224740">
        <ele>54.6</ele>
        <time>2020-07-01T11:24:50Z</time>
      </trkpt>
      <trkpt lat="48.8682960" lon="1.4224060">
        <ele>54.6</ele>
        <time>2020-07-01T11:24:51Z</time>
      </trkpt>
      <trkpt lat="48.8682170" lon="1.4218920">
        <ele>54.6</ele>
        <time>2020-07-01T11:24:58Z</time>
      </trkpt>
      <trkpt lat="48.8681420" lon="1.4216530">
        <ele>54.8</ele>
        <time>2020-07-01T11:25:02Z</time>
      </trkpt>
      <trkpt lat="48.8681280" lon="1.4216040">
        <ele>54.8</ele>
        <time>2020-07-01T11:25:03Z</time>
      </trkpt>
      <trkpt lat="48.8680660" lon="1.4214880">
        <ele>55.0</ele>
        <time>2020-07-01T11:25:07Z</time>
      </trkpt>
      <trkpt lat="48.8680390" lon="1.4213360">
        <ele>56.2</ele>
        <time>2020-07-01T11:25:12Z</time>
      </trkpt>
      <trkpt lat="48.8679560" lon="1.4210080">
        <ele>56.8</ele>
        <time>2020-07-01T11:25:19Z</time>
      </trkpt>
      <trkpt lat="48.8678940" lon="1.4205400">
        <ele>56.8</ele>
        <time>2020-07-01T11:25:26Z</time>
      </trkpt>
      <trkpt lat="48.8678700" lon="1.4199830">
        <ele>56.2</ele>
        <time>2020-07-01T11:25:34Z</time>
      </trkpt>
      <trkpt lat="48.8678480" lon="1.4194520">
        <ele>56.0</ele>
        <time>2020-07-01T11:25:41Z</time>
      </trkpt>
      <trkpt lat="48.8678420" lon="1.4193710">
        <ele>56.0</ele>
        <time>2020-07-01T11:25:42Z</time>
      </trkpt>
      <trkpt lat="48.8677720" lon="1.4189990">
        <ele>55.8</ele>
        <time>2020-07-01T11:25:47Z</time>
      </trkpt>
      <trkpt lat="48.8677390" lon="1.4189360">
        <ele>55.8</ele>
        <time>2020-07-01T11:25:48Z</time>
      </trkpt>
      <trkpt lat="48.8677050" lon="1.4188820">
        <ele>55.6</ele>
        <time>2020-07-01T11:25:49Z</time>
      </trkpt>
      <trkpt lat="48.8675490" lon="1.4187050">
        <ele>55.6</ele>
        <time>2020-07-01T11:25:53Z</time>
      </trkpt>
      <trkpt lat="48.8675100" lon="1.4186740">
        <ele>55.6</ele>
        <time>2020-07-01T11:25:54Z</time>
      </trkpt>
      <trkpt lat="48.8674020" lon="1.4185740">
        <ele>55.6</ele>
        <time>2020-07-01T11:25:58Z</time>
      </trkpt>
      <trkpt lat="48.8673130" lon="1.4184620">
        <ele>56.2</ele>
        <time>2020-07-01T11:26:04Z</time>
      </trkpt>
      <trkpt lat="48.8673080" lon="1.4183850">
        <ele>57.2</ele>
        <time>2020-07-01T11:26:10Z</time>
      </trkpt>
      <trkpt lat="48.8673680" lon="1.4183380">
        <ele>57.4</ele>
        <time>2020-07-01T11:26:16Z</time>
      </trkpt>
      <trkpt lat="48.8673920" lon="1.4182600">
        <ele>57.4</ele>
        <time>2020-07-01T11:26:19Z</time>
      </trkpt>
      <trkpt lat="48.8673810" lon="1.4180510">
        <ele>57.4</ele>
        <time>2020-07-01T11:26:23Z</time>
      </trkpt>
      <trkpt lat="48.8673720" lon="1.4179930">
        <ele>57.4</ele>
        <time>2020-07-01T11:26:24Z</time>
      </trkpt>
      <trkpt lat="48.8672950" lon="1.4175450">
        <ele>56.4</ele>
        <time>2020-07-01T11:26:31Z</time>
      </trkpt>
      <trkpt lat="48.8672440" lon="1.4173440">
        <ele>56.2</ele>
        <time>2020-07-01T11:26:36Z</time>
      </trkpt>
      <trkpt lat="48.8672310" lon="1.4173040">
        <ele>56.2</ele>
        <time>2020-07-01T11:26:38Z</time>
      </trkpt>
      <trkpt lat="48.8672330" lon="1.4172640">
        <ele>56.2</ele>
        <time>2020-07-01T11:26:41Z</time>
      </trkpt>
      <trkpt lat="48.8672430" lon="1.4172420">
        <ele>57.0</ele>
        <time>2020-07-01T11:26:50Z</time>
      </trkpt>
      <trkpt lat="48.8672470" lon="1.4172460">
        <ele>57.4</ele>
        <time>2020-07-01T11:27:20Z</time>
      </trkpt>
      <trkpt lat="48.8672460" lon="1.4172480">
        <ele>57.4</ele>
        <time>2020-07-01T11:27:44Z</time>
      </trkpt>
      <trkpt lat="48.8672490" lon="1.4172540">
        <ele>57.2</ele>
        <time>2020-07-01T11:28:17Z</time>
      </trkpt>
      <trkpt lat="48.8672150" lon="1.4172790">
        <ele>57.2</ele>
        <time>2020-07-01T11:28:37Z</time>
      </trkpt>
      <trkpt lat="48.8672120" lon="1.4172830">
        <ele>57.2</ele>
        <time>2020-07-01T11:28:44Z</time>
      </trkpt>
      <trkpt lat="48.8672110" lon="1.4172800">
        <ele>57.2</ele>
        <time>2020-07-01T11:28:45Z</time>
      </trkpt>
      <trkpt lat="48.8672110" lon="1.4172750">
        <ele>57.2</ele>
        <time>2020-07-01T11:28:46Z</time>
      </trkpt>
      <trkpt lat="48.8672110" lon="1.4172730">
        <ele>57.2</ele>
        <time>2020-07-01T11:28:47Z</time>
      </trkpt>
      <trkpt lat="48.8672100" lon="1.4172730">
        <ele>57.2</ele>
        <time>2020-07-01T11:28:48Z</time>
      </trkpt>
      <trkpt lat="48.8672100" lon="1.4172770">
        <ele>57.2</ele>
        <time>2020-07-01T11:28:50Z</time>
      </trkpt>
      <trkpt lat="48.8672100" lon="1.4172760">
        <ele>57.2</ele>
        <time>2020-07-01T11:28:52Z</time>
      </trkpt>
      <trkpt lat="48.8672100" lon="1.4172750">
        <ele>57.2</ele>
        <time>2020-07-01T11:28:55Z</time>
      </trkpt>
      <trkpt lat="48.8672100" lon="1.4172750">
        <ele>57.0</ele>
        <time>2020-07-01T11:28:56Z</time>
      </trkpt>
      <trkpt lat="48.8672100" lon="1.4172740">
        <ele>57.0</ele>
        <time>2020-07-01T11:28:57Z</time>
      </trkpt>
      <trkpt lat="48.8672110" lon="1.4172740">
        <ele>56.8</ele>
        <time>2020-07-01T11:28:58Z</time>
      </trkpt>
      <trkpt lat="48.8672100" lon="1.4172750">
        <ele>56.8</ele>
        <time>2020-07-01T11:28:59Z</time>
      </trkpt>
      <trkpt lat="48.8672100" lon="1.4172770">
        <ele>56.6</ele>
        <time>2020-07-01T11:29:00Z</time>
      </trkpt>
      <trkpt lat="48.8672100" lon="1.4172790">
        <ele>56.6</ele>
        <time>2020-07-01T11:29:01Z</time>
      </trkpt>
      <trkpt lat="48.8672120" lon="1.4172860">
        <ele>56.6</ele>
        <time>2020-07-01T11:29:04Z</time>
      </trkpt>
      <trkpt lat="48.8672120" lon="1.4172880">
        <ele>56.6</ele>
        <time>2020-07-01T11:29:08Z</time>
      </trkpt>
      <trkpt lat="48.8672110" lon="1.4172900">
        <ele>56.6</ele>
        <time>2020-07-01T11:29:18Z</time>
      </trkpt>
      <trkpt lat="48.8672110" lon="1.4172900">
        <ele>56.6</ele>
        <time>2020-07-01T11:29:20Z</time>
      </trkpt>
      <trkpt lat="48.8672030" lon="1.4172830">
        <ele>56.6</ele>
        <time>2020-07-01T11:29:33Z</time>
      </trkpt>
      <trkpt lat="48.8672010" lon="1.4172830">
        <ele>56.8</ele>
        <time>2020-07-01T11:29:34Z</time>
      </trkpt>
      <trkpt lat="48.8672010" lon="1.4172840">
        <ele>57.0</ele>
        <time>2020-07-01T11:29:35Z</time>
      </trkpt>
      <trkpt lat="48.8672010" lon="1.4172850">
        <ele>56.8</ele>
        <time>2020-07-01T11:29:36Z</time>
      </trkpt>
      <trkpt lat="48.8672000" lon="1.4172970">
        <ele>56.8</ele>
        <time>2020-07-01T11:29:39Z</time>
      </trkpt>
      <trkpt lat="48.8671960" lon="1.4172990">
        <ele>56.8</ele>
        <time>2020-07-01T11:29:42Z</time>
      </trkpt>
      <trkpt lat="48.8672100" lon="1.4172830">
        <ele>56.4</ele>
        <time>2020-07-01T11:29:46Z</time>
      </trkpt>
      <trkpt lat="48.8672130" lon="1.4172750">
        <ele>56.4</ele>
        <time>2020-07-01T11:29:49Z</time>
      </trkpt>
      <trkpt lat="48.8671920" lon="1.4172810">
        <ele>56.6</ele>
        <time>2020-07-01T11:29:58Z</time>
      </trkpt>
      <trkpt lat="48.8671810" lon="1.4172910">
        <ele>56.6</ele>
        <time>2020-07-01T11:30:00Z</time>
      </trkpt>
      <trkpt lat="48.8671770" lon="1.4172950">
        <ele>56.4</ele>
        <time>2020-07-01T11:30:02Z</time>
      </trkpt>
      <trkpt lat="48.8671750" lon="1.4172960">
        <ele>56.4</ele>
        <time>2020-07-01T11:30:03Z</time>
      </trkpt>
      <trkpt lat="48.8671690" lon="1.4173120">
        <ele>56.6</ele>
        <time>2020-07-01T11:30:08Z</time>
      </trkpt>
      <trkpt lat="48.8671710" lon="1.4173340">
        <ele>56.6</ele>
        <time>2020-07-01T11:30:13Z</time>
      </trkpt>
      <trkpt lat="48.8671700" lon="1.4173400">
        <ele>56.4</ele>
        <time>2020-07-01T11:30:36Z</time>
      </trkpt>
      <trkpt lat="48.8671700" lon="1.4173410">
        <ele>56.6</ele>
        <time>2020-07-01T11:30:43Z</time>
      </trkpt>
      <trkpt lat="48.8671690" lon="1.4173420">
        <ele>56.8</ele>
        <time>2020-07-01T11:30:51Z</time>
      </trkpt>
      <trkpt lat="48.8671690" lon="1.4173420">
        <ele>56.8</ele>
        <time>2020-07-01T11:30:52Z</time>
      </trkpt>
      <trkpt lat="48.8671700" lon="1.4173480">
        <ele>56.4</ele>
        <time>2020-07-01T11:31:07Z</time>
      </trkpt>
      <trkpt lat="48.8671740" lon="1.4173460">
        <ele>56.8</ele>
        <time>2020-07-01T11:31:28Z</time>
      </trkpt>
      <trkpt lat="48.8671360" lon="1.4173670">
        <ele>57.0</ele>
        <time>2020-07-01T11:31:33Z</time>
      </trkpt>
      <trkpt lat="48.8671100" lon="1.4174010">
        <ele>57.0</ele>
        <time>2020-07-01T11:31:36Z</time>
      </trkpt>
      <trkpt lat="48.8670290" lon="1.4173850">
        <ele>57.0</ele>
        <time>2020-07-01T11:31:41Z</time>
      </trkpt>
      <trkpt lat="48.8670170" lon="1.4173650">
        <ele>57.0</ele>
        <time>2020-07-01T11:31:42Z</time>
      </trkpt>
      <trkpt lat="48.8669410" lon="1.4171820">
        <ele>57.2</ele>
        <time>2020-07-01T11:31:48Z</time>
      </trkpt>
      <trkpt lat="48.8668390" lon="1.4170550">
        <ele>57.2</ele>
        <time>2020-07-01T11:31:53Z</time>
      </trkpt>
      <trkpt lat="48.8668280" lon="1.4170280">
        <ele>57.0</ele>
        <time>2020-07-01T11:31:54Z</time>
      </trkpt>
      <trkpt lat="48.8668150" lon="1.4169970">
        <ele>57.0</ele>
        <time>2020-07-01T11:31:55Z</time>
      </trkpt>
      <trkpt lat="48.8667890" lon="1.4168870">
        <ele>57.0</ele>
        <time>2020-07-01T11:31:58Z</time>
      </trkpt>
      <trkpt lat="48.8667230" lon="1.4165990">
        <ele>56.6</ele>
        <time>2020-07-01T11:32:05Z</time>
      </trkpt>
      <trkpt lat="48.8666750" lon="1.4164330">
        <ele>56.4</ele>
        <time>2020-07-01T11:32:08Z</time>
      </trkpt>
      <trkpt lat="48.8666450" lon="1.4162940">
        <ele>56.4</ele>
        <time>2020-07-01T11:32:10Z</time>
      </trkpt>
      <trkpt lat="48.8666370" lon="1.4162320">
        <ele>56.2</ele>
        <time>2020-07-01T11:32:11Z</time>
      </trkpt>
      <trkpt lat="48.8665350" lon="1.4157450">
        <ele>55.8</ele>
        <time>2020-07-01T11:32:19Z</time>
      </trkpt>
      <trkpt lat="48.8665210" lon="1.4156850">
        <ele>55.8</ele>
        <time>2020-07-01T11:32:20Z</time>
      </trkpt>
      <trkpt lat="48.8664770" lon="1.4154150">
        <ele>55.6</ele>
        <time>2020-07-01T11:32:25Z</time>
      </trkpt>
      <trkpt lat="48.8664710" lon="1.4153690">
        <ele>55.4</ele>
        <time>2020-07-01T11:32:26Z</time>
      </trkpt>
      <trkpt lat="48.8663780" lon="1.4149990">
        <ele>55.4</ele>
        <time>2020-07-01T11:32:33Z</time>
      </trkpt>
      <trkpt lat="48.8663330" lon="1.4147900">
        <ele>55.2</ele>
        <time>2020-07-01T11:32:38Z</time>
      </trkpt>
      <trkpt lat="48.8663180" lon="1.4146940">
        <ele>55.4</ele>
        <time>2020-07-01T11:32:41Z</time>
      </trkpt>
      <trkpt lat="48.8663030" lon="1.4146180">
        <ele>55.8</ele>
        <time>2020-07-01T11:32:45Z</time>
      </trkpt>
      <trkpt lat="48.8662830" lon="1.4145860">
        <ele>56.2</ele>
        <time>2020-07-01T11:32:47Z</time>
      </trkpt>
      <trkpt lat="48.8662140" lon="1.4143720">
        <ele>56.4</ele>
        <time>2020-07-01T11:32:53Z</time>
      </trkpt>
      <trkpt lat="48.8661840" lon="1.4142770">
        <ele>56.2</ele>
        <time>2020-07-01T11:32:55Z</time>
      </trkpt>
      <trkpt lat="48.8661130" lon="1.4139970">
        <ele>56.2</ele>
        <time>2020-07-01T11:33:00Z</time>
      </trkpt>
      <trkpt lat="48.8659520" lon="1.4134790">
        <ele>55.8</ele>
        <time>2020-07-01T11:33:08Z</time>
      </trkpt>
      <trkpt lat="48.8658610" lon="1.4131160">
        <ele>55.8</ele>
        <time>2020-07-01T11:33:14Z</time>
      </trkpt>
      <trkpt lat="48.8658590" lon="1.4130620">
        <ele>55.6</ele>
        <time>2020-07-01T11:33:15Z</time>
      </trkpt>
      <trkpt lat="48.8658540" lon="1.4129590">
        <ele>55.4</ele>
        <time>2020-07-01T11:33:17Z</time>
      </trkpt>
      <trkpt lat="48.8658260" lon="1.4127870">
        <ele>55.6</ele>
        <time>2020-07-01T11:33:21Z</time>
      </trkpt>
      <trkpt lat="48.8657490" lon="1.4125480">
        <ele>55.8</ele>
        <time>2020-07-01T11:33:30Z</time>
      </trkpt>
      <trkpt lat="48.8656890" lon="1.4123260">
        <ele>56.4</ele>
        <time>2020-07-01T11:33:38Z</time>
      </trkpt>
      <trkpt lat="48.8656130" lon="1.4120580">
        <ele>56.0</ele>
        <time>2020-07-01T11:33:44Z</time>
      </trkpt>
      <trkpt lat="48.8654990" lon="1.4116170">
        <ele>55.8</ele>
        <time>2020-07-01T11:33:51Z</time>
      </trkpt>
      <trkpt lat="48.8654650" lon="1.4114840">
        <ele>56.0</ele>
        <time>2020-07-01T11:33:53Z</time>
      </trkpt>
      <trkpt lat="48.8652790" lon="1.4107600">
        <ele>56.2</ele>
        <time>2020-07-01T11:34:04Z</time>
      </trkpt>
      <trkpt lat="48.8651490" lon="1.4103650">
        <ele>56.4</ele>
        <time>2020-07-01T11:34:11Z</time>
      </trkpt>
      <trkpt lat="48.8650870" lon="1.4102880">
        <ele>56.4</ele>
        <time>2020-07-01T11:34:15Z</time>
      </trkpt>
      <trkpt lat="48.8650320" lon="1.4102930">
        <ele>56.6</ele>
        <time>2020-07-01T11:34:21Z</time>
      </trkpt>
      <trkpt lat="48.8650280" lon="1.4102690">
        <ele>56.6</ele>
        <time>2020-07-01T11:34:23Z</time>
      </trkpt>
      <trkpt lat="48.8650190" lon="1.4101940">
        <ele>56.8</ele>
        <time>2020-07-01T11:34:27Z</time>
      </trkpt>
      <trkpt lat="48.8649660" lon="1.4100120">
        <ele>56.8</ele>
        <time>2020-07-01T11:34:32Z</time>
      </trkpt>
      <trkpt lat="48.8649570" lon="1.4099630">
        <ele>56.8</ele>
        <time>2020-07-01T11:34:33Z</time>
      </trkpt>
      <trkpt lat="48.8649000" lon="1.4096640">
        <ele>56.8</ele>
        <time>2020-07-01T11:34:38Z</time>
      </trkpt>
      <trkpt lat="48.8648890" lon="1.4095330">
        <ele>56.6</ele>
        <time>2020-07-01T11:34:40Z</time>
      </trkpt>
      <trkpt lat="48.8647800" lon="1.4089410">
        <ele>56.0</ele>
        <time>2020-07-01T11:34:49Z</time>
      </trkpt>
      <trkpt lat="48.8647070" lon="1.4085890">
        <ele>56.2</ele>
        <time>2020-07-01T11:34:54Z</time>
      </trkpt>
      <trkpt lat="48.8646120" lon="1.4081610">
        <ele>56.2</ele>
        <time>2020-07-01T11:35:00Z</time>
      </trkpt>
      <trkpt lat="48.8645590" lon="1.4079580">
        <ele>56.2</ele>
        <time>2020-07-01T11:35:03Z</time>
      </trkpt>
      <trkpt lat="48.8645350" lon="1.4078910">
        <ele>56.2</ele>
        <time>2020-07-01T11:35:04Z</time>
      </trkpt>
      <trkpt lat="48.8644700" lon="1.4077600">
        <ele>56.2</ele>
        <time>2020-07-01T11:35:06Z</time>
      </trkpt>
      <trkpt lat="48.8643380" lon="1.4074220">
        <ele>56.2</ele>
        <time>2020-07-01T11:35:11Z</time>
      </trkpt>
      <trkpt lat="48.8642840" lon="1.4071460">
        <ele>56.6</ele>
        <time>2020-07-01T11:35:15Z</time>
      </trkpt>
      <trkpt lat="48.8642310" lon="1.4068640">
        <ele>56.2</ele>
        <time>2020-07-01T11:35:19Z</time>
      </trkpt>
      <trkpt lat="48.8641000" lon="1.4063530">
        <ele>56.4</ele>
        <time>2020-07-01T11:35:26Z</time>
      </trkpt>
      <trkpt lat="48.8639710" lon="1.4057440">
        <ele>56.0</ele>
        <time>2020-07-01T11:35:35Z</time>
      </trkpt>
      <trkpt lat="48.8639380" lon="1.4055900">
        <ele>56.2</ele>
        <time>2020-07-01T11:35:38Z</time>
      </trkpt>
      <trkpt lat="48.8639000" lon="1.4054880">
        <ele>56.6</ele>
        <time>2020-07-01T11:35:41Z</time>
      </trkpt>
      <trkpt lat="48.8638890" lon="1.4054760">
        <ele>56.6</ele>
        <time>2020-07-01T11:35:42Z</time>
      </trkpt>
      <trkpt lat="48.8638640" lon="1.4054400">
        <ele>57.0</ele>
        <time>2020-07-01T11:35:46Z</time>
      </trkpt>
      <trkpt lat="48.8638650" lon="1.4054030">
        <ele>57.4</ele>
        <time>2020-07-01T11:35:48Z</time>
      </trkpt>
      <trkpt lat="48.8638430" lon="1.4052550">
        <ele>58.2</ele>
        <time>2020-07-01T11:35:53Z</time>
      </trkpt>
      <trkpt lat="48.8637890" lon="1.4051170">
        <ele>58.2</ele>
        <time>2020-07-01T11:35:59Z</time>
      </trkpt>
      <trkpt lat="48.8637890" lon="1.4050750">
        <ele>58.6</ele>
        <time>2020-07-01T11:36:02Z</time>
      </trkpt>
      <trkpt lat="48.8637640" lon="1.4049970">
        <ele>58.6</ele>
        <time>2020-07-01T11:36:05Z</time>
      </trkpt>
      <trkpt lat="48.8637000" lon="1.4047760">
        <ele>58.6</ele>
        <time>2020-07-01T11:36:10Z</time>
      </trkpt>
      <trkpt lat="48.8635830" lon="1.4043590">
        <ele>57.0</ele>
        <time>2020-07-01T11:36:17Z</time>
      </trkpt>
      <trkpt lat="48.8635520" lon="1.4042330">
        <ele>56.8</ele>
        <time>2020-07-01T11:36:19Z</time>
      </trkpt>
      <trkpt lat="48.8634920" lon="1.4039770">
        <ele>56.6</ele>
        <time>2020-07-01T11:36:23Z</time>
      </trkpt>
      <trkpt lat="48.8634100" lon="1.4036490">
        <ele>56.4</ele>
        <time>2020-07-01T11:36:28Z</time>
      </trkpt>
      <trkpt lat="48.8632560" lon="1.4031360">
        <ele>57.2</ele>
        <time>2020-07-01T11:36:36Z</time>
      </trkpt>
      <trkpt lat="48.8630630" lon="1.4024980">
        <ele>57.4</ele>
        <time>2020-07-01T11:36:45Z</time>
      </trkpt>
      <trkpt lat="48.8628310" lon="1.4018910">
        <ele>57.4</ele>
        <time>2020-07-01T11:36:54Z</time>
      </trkpt>
      <trkpt lat="48.8626540" lon="1.4015460">
        <ele>57.4</ele>
        <time>2020-07-01T11:37:00Z</time>
      </trkpt>
      <trkpt lat="48.8626160" lon="1.4014540">
        <ele>57.6</ele>
        <time>2020-07-01T11:37:02Z</time>
      </trkpt>
      <trkpt lat="48.8625970" lon="1.4013680">
        <ele>57.8</ele>
        <time>2020-07-01T11:37:05Z</time>
      </trkpt>
      <trkpt lat="48.8626380" lon="1.4013110">
        <ele>58.2</ele>
        <time>2020-07-01T11:37:10Z</time>
      </trkpt>
      <trkpt lat="48.8626350" lon="1.4012140">
        <ele>58.4</ele>
        <time>2020-07-01T11:37:17Z</time>
      </trkpt>
      <trkpt lat="48.8626330" lon="1.4011830">
        <ele>58.4</ele>
        <time>2020-07-01T11:37:19Z</time>
      </trkpt>
      <trkpt lat="48.8625780" lon="1.4010940">
        <ele>58.4</ele>
        <time>2020-07-01T11:37:23Z</time>
      </trkpt>
      <trkpt lat="48.8625270" lon="1.4009850">
        <ele>58.2</ele>
        <time>2020-07-01T11:37:26Z</time>
      </trkpt>
      <trkpt lat="48.8624740" lon="1.4008610">
        <ele>58.0</ele>
        <time>2020-07-01T11:37:29Z</time>
      </trkpt>
      <trkpt lat="48.8624500" lon="1.4008170">
        <ele>58.2</ele>
        <time>2020-07-01T11:37:30Z</time>
      </trkpt>
      <trkpt lat="48.8623800" lon="1.4006730">
        <ele>58.0</ele>
        <time>2020-07-01T11:37:33Z</time>
      </trkpt>
      <trkpt lat="48.8622940" lon="1.4005210">
        <ele>57.8</ele>
        <time>2020-07-01T11:37:36Z</time>
      </trkpt>
      <trkpt lat="48.8620400" lon="1.4001420">
        <ele>57.8</ele>
        <time>2020-07-01T11:37:43Z</time>
      </trkpt>
      <trkpt lat="48.8618890" lon="1.3998390">
        <ele>57.4</ele>
        <time>2020-07-01T11:37:48Z</time>
      </trkpt>
      <trkpt lat="48.8616570" lon="1.3994230">
        <ele>57.6</ele>
        <time>2020-07-01T11:37:55Z</time>
      </trkpt>
      <trkpt lat="48.8616200" lon="1.3993640">
        <ele>57.6</ele>
        <time>2020-07-01T11:37:56Z</time>
      </trkpt>
      <trkpt lat="48.8614390" lon="1.3990900">
        <ele>57.0</ele>
        <time>2020-07-01T11:38:01Z</time>
      </trkpt>
      <trkpt lat="48.8613310" lon="1.3989310">
        <ele>57.0</ele>
        <time>2020-07-01T11:38:04Z</time>
      </trkpt>
      <trkpt lat="48.8612600" lon="1.3988230">
        <ele>57.0</ele>
        <time>2020-07-01T11:38:06Z</time>
      </trkpt>
      <trkpt lat="48.8611200" lon="1.3985910">
        <ele>56.8</ele>
        <time>2020-07-01T11:38:11Z</time>
      </trkpt>
      <trkpt lat="48.8610890" lon="1.3985400">
        <ele>56.6</ele>
        <time>2020-07-01T11:38:12Z</time>
      </trkpt>
      <trkpt lat="48.8609190" lon="1.3982930">
        <ele>56.6</ele>
        <time>2020-07-01T11:38:17Z</time>
      </trkpt>
      <trkpt lat="48.8607690" lon="1.3981110">
        <ele>56.6</ele>
        <time>2020-07-01T11:38:21Z</time>
      </trkpt>
      <trkpt lat="48.8605350" lon="1.3978310">
        <ele>56.4</ele>
        <time>2020-07-01T11:38:27Z</time>
      </trkpt>
      <trkpt lat="48.8602750" lon="1.3975500">
        <ele>56.8</ele>
        <time>2020-07-01T11:38:33Z</time>
      </trkpt>
      <trkpt lat="48.8601500" lon="1.3974140">
        <ele>57.0</ele>
        <time>2020-07-01T11:38:36Z</time>
      </trkpt>
      <trkpt lat="48.8601080" lon="1.3973690">
        <ele>56.8</ele>
        <time>2020-07-01T11:38:37Z</time>
      </trkpt>
      <trkpt lat="48.8598160" lon="1.3970680">
        <ele>57.0</ele>
        <time>2020-07-01T11:38:44Z</time>
      </trkpt>
      <trkpt lat="48.8597690" lon="1.3970310">
        <ele>56.8</ele>
        <time>2020-07-01T11:38:45Z</time>
      </trkpt>
      <trkpt lat="48.8597230" lon="1.3969930">
        <ele>56.8</ele>
        <time>2020-07-01T11:38:46Z</time>
      </trkpt>
      <trkpt lat="48.8593950" lon="1.3966470">
        <ele>56.6</ele>
        <time>2020-07-01T11:38:54Z</time>
      </trkpt>
      <trkpt lat="48.8593170" lon="1.3965650">
        <ele>56.6</ele>
        <time>2020-07-01T11:38:56Z</time>
      </trkpt>
      <trkpt lat="48.8590480" lon="1.3962660">
        <ele>56.6</ele>
        <time>2020-07-01T11:39:03Z</time>
      </trkpt>
      <trkpt lat="48.8589740" lon="1.3961840">
        <ele>56.6</ele>
        <time>2020-07-01T11:39:05Z</time>
      </trkpt>
      <trkpt lat="48.8589340" lon="1.3961430">
        <ele>56.8</ele>
        <time>2020-07-01T11:39:06Z</time>
      </trkpt>
      <trkpt lat="48.8587410" lon="1.3959350">
        <ele>57.0</ele>
        <time>2020-07-01T11:39:11Z</time>
      </trkpt>
      <trkpt lat="48.8585460" lon="1.3957180">
        <ele>57.0</ele>
        <time>2020-07-01T11:39:16Z</time>
      </trkpt>
      <trkpt lat="48.8584220" lon="1.3955900">
        <ele>57.0</ele>
        <time>2020-07-01T11:39:19Z</time>
      </trkpt>
      <trkpt lat="48.8579750" lon="1.3951720">
        <ele>57.0</ele>
        <time>2020-07-01T11:39:29Z</time>
      </trkpt>
      <trkpt lat="48.8578870" lon="1.3950890">
        <ele>57.0</ele>
        <time>2020-07-01T11:39:31Z</time>
      </trkpt>
      <trkpt lat="48.8578420" lon="1.3950470">
        <ele>57.0</ele>
        <time>2020-07-01T11:39:32Z</time>
      </trkpt>
      <trkpt lat="48.8577970" lon="1.3950080">
        <ele>57.0</ele>
        <time>2020-07-01T11:39:33Z</time>
      </trkpt>
      <trkpt lat="48.8577100" lon="1.3949310">
        <ele>57.2</ele>
        <time>2020-07-01T11:39:35Z</time>
      </trkpt>
      <trkpt lat="48.8576280" lon="1.3948620">
        <ele>57.0</ele>
        <time>2020-07-01T11:39:37Z</time>
      </trkpt>
      <trkpt lat="48.8575430" lon="1.3947950">
        <ele>57.2</ele>
        <time>2020-07-01T11:39:39Z</time>
      </trkpt>
      <trkpt lat="48.8574090" lon="1.3947030">
        <ele>57.2</ele>
        <time>2020-07-01T11:39:42Z</time>
      </trkpt>
      <trkpt lat="48.8573670" lon="1.3946760">
        <ele>57.2</ele>
        <time>2020-07-01T11:39:43Z</time>
      </trkpt>
      <trkpt lat="48.8571910" lon="1.3945540">
        <ele>57.4</ele>
        <time>2020-07-01T11:39:48Z</time>
      </trkpt>
      <trkpt lat="48.8569530" lon="1.3944250">
        <ele>57.8</ele>
        <time>2020-07-01T11:39:55Z</time>
      </trkpt>
      <trkpt lat="48.8566390" lon="1.3942580">
        <ele>58.0</ele>
        <time>2020-07-01T11:40:02Z</time>
      </trkpt>
      <trkpt lat="48.8564450" lon="1.3941380">
        <ele>57.8</ele>
        <time>2020-07-01T11:40:06Z</time>
      </trkpt>
      <trkpt lat="48.8562100" lon="1.3939600">
        <ele>57.8</ele>
        <time>2020-07-01T11:40:11Z</time>
      </trkpt>
      <trkpt lat="48.8557600" lon="1.3936610">
        <ele>57.6</ele>
        <time>2020-07-01T11:40:20Z</time>
      </trkpt>
      <trkpt lat="48.8553490" lon="1.3933990">
        <ele>57.6</ele>
        <time>2020-07-01T11:40:28Z</time>
      </trkpt>
      <trkpt lat="48.8552990" lon="1.3933660">
        <ele>57.4</ele>
        <time>2020-07-01T11:40:29Z</time>
      </trkpt>
      <trkpt lat="48.8551450" lon="1.3932620">
        <ele>57.4</ele>
        <time>2020-07-01T11:40:32Z</time>
      </trkpt>
      <trkpt lat="48.8549800" lon="1.3931600">
        <ele>57.2</ele>
        <time>2020-07-01T11:40:35Z</time>
      </trkpt>
      <trkpt lat="48.8549290" lon="1.3931240">
        <ele>57.4</ele>
        <time>2020-07-01T11:40:36Z</time>
      </trkpt>
      <trkpt lat="48.8547210" lon="1.3929720">
        <ele>57.4</ele>
        <time>2020-07-01T11:40:40Z</time>
      </trkpt>
      <trkpt lat="48.8544570" lon="1.3927810">
        <ele>57.0</ele>
        <time>2020-07-01T11:40:45Z</time>
      </trkpt>
      <trkpt lat="48.8543440" lon="1.3927090">
        <ele>57.0</ele>
        <time>2020-07-01T11:40:47Z</time>
      </trkpt>
      <trkpt lat="48.8541740" lon="1.3925980">
        <ele>57.2</ele>
        <time>2020-07-01T11:40:50Z</time>
      </trkpt>
      <trkpt lat="48.8540160" lon="1.3924780">
        <ele>57.4</ele>
        <time>2020-07-01T11:40:53Z</time>
      </trkpt>
      <trkpt lat="48.8536980" lon="1.3922610">
        <ele>56.8</ele>
        <time>2020-07-01T11:40:59Z</time>
      </trkpt>
      <trkpt lat="48.8536070" lon="1.3922010">
        <ele>56.8</ele>
        <time>2020-07-01T11:41:01Z</time>
      </trkpt>
      <trkpt lat="48.8535150" lon="1.3921520">
        <ele>56.6</ele>
        <time>2020-07-01T11:41:03Z</time>
      </trkpt>
      <trkpt lat="48.8534630" lon="1.3921170">
        <ele>56.6</ele>
        <time>2020-07-01T11:41:04Z</time>
      </trkpt>
      <trkpt lat="48.8533460" lon="1.3920320">
        <ele>56.6</ele>
        <time>2020-07-01T11:41:06Z</time>
      </trkpt>
      <trkpt lat="48.8532940" lon="1.3919850">
        <ele>56.6</ele>
        <time>2020-07-01T11:41:07Z</time>
      </trkpt>
      <trkpt lat="48.8531920" lon="1.3918960">
        <ele>56.6</ele>
        <time>2020-07-01T11:41:09Z</time>
      </trkpt>
      <trkpt lat="48.8528610" lon="1.3916250">
        <ele>56.4</ele>
        <time>2020-07-01T11:41:16Z</time>
      </trkpt>
      <trkpt lat="48.8527860" lon="1.3915490">
        <ele>57.0</ele>
        <time>2020-07-01T11:41:18Z</time>
      </trkpt>
      <trkpt lat="48.8526640" lon="1.3914340">
        <ele>57.2</ele>
        <time>2020-07-01T11:41:21Z</time>
      </trkpt>
      <trkpt lat="48.8523430" lon="1.3912230">
        <ele>57.4</ele>
        <time>2020-07-01T11:41:29Z</time>
      </trkpt>
      <trkpt lat="48.8521120" lon="1.3910790">
        <ele>57.2</ele>
        <time>2020-07-01T11:41:35Z</time>
      </trkpt>
      <trkpt lat="48.8519160" lon="1.3909310">
        <ele>57.0</ele>
        <time>2020-07-01T11:41:40Z</time>
      </trkpt>
      <trkpt lat="48.8517320" lon="1.3907530">
        <ele>57.0</ele>
        <time>2020-07-01T11:41:43Z</time>
      </trkpt>
      <trkpt lat="48.8516310" lon="1.3906770">
        <ele>57.0</ele>
        <time>2020-07-01T11:41:45Z</time>
      </trkpt>
      <trkpt lat="48.8515280" lon="1.3905920">
        <ele>57.0</ele>
        <time>2020-07-01T11:41:47Z</time>
      </trkpt>
      <trkpt lat="48.8513250" lon="1.3904050">
        <ele>57.0</ele>
        <time>2020-07-01T11:41:51Z</time>
      </trkpt>
      <trkpt lat="48.8511430" lon="1.3902420">
        <ele>56.8</ele>
        <time>2020-07-01T11:41:54Z</time>
      </trkpt>
      <trkpt lat="48.8508510" lon="1.3899620">
        <ele>56.8</ele>
        <time>2020-07-01T11:41:59Z</time>
      </trkpt>
      <trkpt lat="48.8504730" lon="1.3896130">
        <ele>57.2</ele>
        <time>2020-07-01T11:42:06Z</time>
      </trkpt>
      <trkpt lat="48.8500420" lon="1.3892370">
        <ele>58.4</ele>
        <time>2020-07-01T11:42:14Z</time>
      </trkpt>
      <trkpt lat="48.8498870" lon="1.3891140">
        <ele>58.2</ele>
        <time>2020-07-01T11:42:17Z</time>
      </trkpt>
      <trkpt lat="48.8498360" lon="1.3890830">
        <ele>58.4</ele>
        <time>2020-07-01T11:42:18Z</time>
      </trkpt>
      <trkpt lat="48.8496400" lon="1.3889530">
        <ele>58.0</ele>
        <time>2020-07-01T11:42:22Z</time>
      </trkpt>
      <trkpt lat="48.8493150" lon="1.3886610">
        <ele>57.0</ele>
        <time>2020-07-01T11:42:29Z</time>
      </trkpt>
      <trkpt lat="48.8492740" lon="1.3886260">
        <ele>57.0</ele>
        <time>2020-07-01T11:42:30Z</time>
      </trkpt>
      <trkpt lat="48.8489770" lon="1.3883770">
        <ele>57.4</ele>
        <time>2020-07-01T11:42:38Z</time>
      </trkpt>
      <trkpt lat="48.8488570" lon="1.3882780">
        <ele>57.8</ele>
        <time>2020-07-01T11:42:41Z</time>
      </trkpt>
      <trkpt lat="48.8485170" lon="1.3880120">
        <ele>57.8</ele>
        <time>2020-07-01T11:42:49Z</time>
      </trkpt>
      <trkpt lat="48.8484290" lon="1.3879420">
        <ele>57.2</ele>
        <time>2020-07-01T11:42:51Z</time>
      </trkpt>
      <trkpt lat="48.8483070" lon="1.3878380">
        <ele>56.6</ele>
        <time>2020-07-01T11:42:54Z</time>
      </trkpt>
      <trkpt lat="48.8482220" lon="1.3877680">
        <ele>56.4</ele>
        <time>2020-07-01T11:42:56Z</time>
      </trkpt>
      <trkpt lat="48.8480060" lon="1.3875850">
        <ele>56.4</ele>
        <time>2020-07-01T11:43:01Z</time>
      </trkpt>
      <trkpt lat="48.8479200" lon="1.3875120">
        <ele>56.4</ele>
        <time>2020-07-01T11:43:03Z</time>
      </trkpt>
      <trkpt lat="48.8476140" lon="1.3872480">
        <ele>57.4</ele>
        <time>2020-07-01T11:43:10Z</time>
      </trkpt>
      <trkpt lat="48.8475280" lon="1.3871760">
        <ele>57.2</ele>
        <time>2020-07-01T11:43:12Z</time>
      </trkpt>
      <trkpt lat="48.8474490" lon="1.3871030">
        <ele>57.4</ele>
        <time>2020-07-01T11:43:14Z</time>
      </trkpt>
      <trkpt lat="48.8474100" lon="1.3870660">
        <ele>57.2</ele>
        <time>2020-07-01T11:43:15Z</time>
      </trkpt>
      <trkpt lat="48.8471760" lon="1.3868270">
        <ele>56.8</ele>
        <time>2020-07-01T11:43:21Z</time>
      </trkpt>
      <trkpt lat="48.8470650" lon="1.3867000">
        <ele>56.6</ele>
        <time>2020-07-01T11:43:24Z</time>
      </trkpt>
      <trkpt lat="48.8469250" lon="1.3865290">
        <ele>56.4</ele>
        <time>2020-07-01T11:43:28Z</time>
      </trkpt>
      <trkpt lat="48.8468180" lon="1.3863920">
        <ele>56.4</ele>
        <time>2020-07-01T11:43:31Z</time>
      </trkpt>
      <trkpt lat="48.8465470" lon="1.3859860">
        <ele>56.6</ele>
        <time>2020-07-01T11:43:39Z</time>
      </trkpt>
      <trkpt lat="48.8462900" lon="1.3855530">
        <ele>57.0</ele>
        <time>2020-07-01T11:43:47Z</time>
      </trkpt>
      <trkpt lat="48.8462060" lon="1.3853980">
        <ele>57.2</ele>
        <time>2020-07-01T11:43:50Z</time>
      </trkpt>
      <trkpt lat="48.8460250" lon="1.3850540">
        <ele>56.8</ele>
        <time>2020-07-01T11:43:56Z</time>
      </trkpt>
      <trkpt lat="48.8459020" lon="1.3847940">
        <ele>56.8</ele>
        <time>2020-07-01T11:44:00Z</time>
      </trkpt>
      <trkpt lat="48.8456420" lon="1.3841500">
        <ele>57.2</ele>
        <time>2020-07-01T11:44:10Z</time>
      </trkpt>
      <trkpt lat="48.8453870" lon="1.3835160">
        <ele>57.6</ele>
        <time>2020-07-01T11:44:20Z</time>
      </trkpt>
      <trkpt lat="48.8451360" lon="1.3829160">
        <ele>57.6</ele>
        <time>2020-07-01T11:44:30Z</time>
      </trkpt>
      <trkpt lat="48.8451040" lon="1.3828530">
        <ele>57.4</ele>
        <time>2020-07-01T11:44:31Z</time>
      </trkpt>
      <trkpt lat="48.8449090" lon="1.3824480">
        <ele>57.6</ele>
        <time>2020-07-01T11:44:37Z</time>
      </trkpt>
      <trkpt lat="48.8446870" lon="1.3818800">
        <ele>58.2</ele>
        <time>2020-07-01T11:44:46Z</time>
      </trkpt>
      <trkpt lat="48.8446610" lon="1.3818220">
        <ele>58.4</ele>
        <time>2020-07-01T11:44:47Z</time>
      </trkpt>
      <trkpt lat="48.8445430" lon="1.3815440">
        <ele>58.2</ele>
        <time>2020-07-01T11:44:53Z</time>
      </trkpt>
      <trkpt lat="48.8444950" lon="1.3814260">
        <ele>58.0</ele>
        <time>2020-07-01T11:44:56Z</time>
      </trkpt>
      <trkpt lat="48.8444020" lon="1.3812990">
        <ele>58.2</ele>
        <time>2020-07-01T11:45:00Z</time>
      </trkpt>
      <trkpt lat="48.8442600" lon="1.3810250">
        <ele>58.4</ele>
        <time>2020-07-01T11:45:06Z</time>
      </trkpt>
      <trkpt lat="48.8442240" lon="1.3809220">
        <ele>58.4</ele>
        <time>2020-07-01T11:45:08Z</time>
      </trkpt>
      <trkpt lat="48.8441910" lon="1.3807900">
        <ele>58.8</ele>
        <time>2020-07-01T11:45:11Z</time>
      </trkpt>
      <trkpt lat="48.8441790" lon="1.3807310">
        <ele>59.0</ele>
        <time>2020-07-01T11:45:13Z</time>
      </trkpt>
      <trkpt lat="48.8441740" lon="1.3807070">
        <ele>59.0</ele>
        <time>2020-07-01T11:45:14Z</time>
      </trkpt>
      <trkpt lat="48.8440730" lon="1.3805300">
        <ele>59.6</ele>
        <time>2020-07-01T11:45:20Z</time>
      </trkpt>
      <trkpt lat="48.8439510" lon="1.3802570">
        <ele>60.0</ele>
        <time>2020-07-01T11:45:25Z</time>
      </trkpt>
      <trkpt lat="48.8439250" lon="1.3801990">
        <ele>60.0</ele>
        <time>2020-07-01T11:45:26Z</time>
      </trkpt>
      <trkpt lat="48.8439000" lon="1.3801400">
        <ele>60.0</ele>
        <time>2020-07-01T11:45:27Z</time>
      </trkpt>
      <trkpt lat="48.8436820" lon="1.3796260">
        <ele>59.6</ele>
        <time>2020-07-01T11:45:35Z</time>
      </trkpt>
      <trkpt lat="48.8435280" lon="1.3792320">
        <ele>59.0</ele>
        <time>2020-07-01T11:45:41Z</time>
      </trkpt>
      <trkpt lat="48.8434560" lon="1.3790420">
        <ele>59.0</ele>
        <time>2020-07-01T11:45:44Z</time>
      </trkpt>
      <trkpt lat="48.8433870" lon="1.3788650">
        <ele>59.0</ele>
        <time>2020-07-01T11:45:47Z</time>
      </trkpt>
      <trkpt lat="48.8431960" lon="1.3784430">
        <ele>58.8</ele>
        <time>2020-07-01T11:45:55Z</time>
      </trkpt>
      <trkpt lat="48.8430980" lon="1.3782020">
        <ele>58.8</ele>
        <time>2020-07-01T11:45:59Z</time>
      </trkpt>
      <trkpt lat="48.8430180" lon="1.3780230">
        <ele>58.6</ele>
        <time>2020-07-01T11:46:02Z</time>
      </trkpt>
      <trkpt lat="48.8429150" lon="1.3778010">
        <ele>58.6</ele>
        <time>2020-07-01T11:46:06Z</time>
      </trkpt>
      <trkpt lat="48.8428640" lon="1.3776820">
        <ele>58.6</ele>
        <time>2020-07-01T11:46:08Z</time>
      </trkpt>
      <trkpt lat="48.8428210" lon="1.3775660">
        <ele>58.4</ele>
        <time>2020-07-01T11:46:10Z</time>
      </trkpt>
      <trkpt lat="48.8426770" lon="1.3772230">
        <ele>58.6</ele>
        <time>2020-07-01T11:46:17Z</time>
      </trkpt>
      <trkpt lat="48.8425570" lon="1.3769250">
        <ele>59.2</ele>
        <time>2020-07-01T11:46:24Z</time>
      </trkpt>
      <trkpt lat="48.8425250" lon="1.3768470">
        <ele>59.2</ele>
        <time>2020-07-01T11:46:26Z</time>
      </trkpt>
      <trkpt lat="48.8423700" lon="1.3765300">
        <ele>59.0</ele>
        <time>2020-07-01T11:46:32Z</time>
      </trkpt>
      <trkpt lat="48.8423110" lon="1.3764090">
        <ele>58.8</ele>
        <time>2020-07-01T11:46:34Z</time>
      </trkpt>
      <trkpt lat="48.8422060" lon="1.3761710">
        <ele>58.6</ele>
        <time>2020-07-01T11:46:38Z</time>
      </trkpt>
      <trkpt lat="48.8419930" lon="1.3756710">
        <ele>58.4</ele>
        <time>2020-07-01T11:46:47Z</time>
      </trkpt>
      <trkpt lat="48.8419180" lon="1.3755370">
        <ele>58.4</ele>
        <time>2020-07-01T11:46:51Z</time>
      </trkpt>
      <trkpt lat="48.8419060" lon="1.3755220">
        <ele>58.4</ele>
        <time>2020-07-01T11:46:52Z</time>
      </trkpt>
      <trkpt lat="48.8418740" lon="1.3754650">
        <ele>59.6</ele>
        <time>2020-07-01T11:46:58Z</time>
      </trkpt>
      <trkpt lat="48.8418620" lon="1.3754350">
        <ele>59.6</ele>
        <time>2020-07-01T11:47:00Z</time>
      </trkpt>
      <trkpt lat="48.8418190" lon="1.3752530">
        <ele>59.8</ele>
        <time>2020-07-01T11:47:08Z</time>
      </trkpt>
      <trkpt lat="48.8417740" lon="1.3751540">
        <ele>59.8</ele>
        <time>2020-07-01T11:47:11Z</time>
      </trkpt>
      <trkpt lat="48.8417290" lon="1.3750700">
        <ele>59.8</ele>
        <time>2020-07-01T11:47:13Z</time>
      </trkpt>
      <trkpt lat="48.8415320" lon="1.3746660">
        <ele>59.0</ele>
        <time>2020-07-01T11:47:20Z</time>
      </trkpt>
      <trkpt lat="48.8413300" lon="1.3742290">
        <ele>58.4</ele>
        <time>2020-07-01T11:47:27Z</time>
      </trkpt>
      <trkpt lat="48.8413040" lon="1.3741680">
        <ele>58.4</ele>
        <time>2020-07-01T11:47:28Z</time>
      </trkpt>
      <trkpt lat="48.8411990" lon="1.3739160">
        <ele>58.2</ele>
        <time>2020-07-01T11:47:32Z</time>
      </trkpt>
      <trkpt lat="48.8410690" lon="1.3736100">
        <ele>58.2</ele>
        <time>2020-07-01T11:47:37Z</time>
      </trkpt>
      <trkpt lat="48.8408940" lon="1.3731970">
        <ele>58.4</ele>
        <time>2020-07-01T11:47:44Z</time>
      </trkpt>
      <trkpt lat="48.8406800" lon="1.3727140">
        <ele>58.4</ele>
        <time>2020-07-01T11:47:51Z</time>
      </trkpt>
      <trkpt lat="48.8404190" lon="1.3721650">
        <ele>58.4</ele>
        <time>2020-07-01T11:47:59Z</time>
      </trkpt>
      <trkpt lat="48.8401720" lon="1.3715380">
        <ele>58.4</ele>
        <time>2020-07-01T11:48:07Z</time>
      </trkpt>
      <trkpt lat="48.8399520" lon="1.3709340">
        <ele>58.2</ele>
        <time>2020-07-01T11:48:15Z</time>
      </trkpt>
      <trkpt lat="48.8396760" lon="1.3702600">
        <ele>58.0</ele>
        <time>2020-07-01T11:48:24Z</time>
      </trkpt>
      <trkpt lat="48.8394270" lon="1.3696370">
        <ele>58.4</ele>
        <time>2020-07-01T11:48:32Z</time>
      </trkpt>
      <trkpt lat="48.8393930" lon="1.3695570">
        <ele>58.2</ele>
        <time>2020-07-01T11:48:33Z</time>
      </trkpt>
      <trkpt lat="48.8391870" lon="1.3690750">
        <ele>58.2</ele>
        <time>2020-07-01T11:48:39Z</time>
      </trkpt>
      <trkpt lat="48.8390890" lon="1.3688710">
        <ele>58.2</ele>
        <time>2020-07-01T11:48:42Z</time>
      </trkpt>
      <trkpt lat="48.8388710" lon="1.3683970">
        <ele>58.2</ele>
        <time>2020-07-01T11:48:49Z</time>
      </trkpt>
      <trkpt lat="48.8386400" lon="1.3678780">
        <ele>58.4</ele>
        <time>2020-07-01T11:48:57Z</time>
      </trkpt>
      <trkpt lat="48.8385810" lon="1.3677270">
        <ele>58.6</ele>
        <time>2020-07-01T11:49:00Z</time>
      </trkpt>
      <trkpt lat="48.8385590" lon="1.3676500">
        <ele>58.6</ele>
        <time>2020-07-01T11:49:02Z</time>
      </trkpt>
      <trkpt lat="48.8385180" lon="1.3675620">
        <ele>59.0</ele>
        <time>2020-07-01T11:49:08Z</time>
      </trkpt>
      <trkpt lat="48.8384540" lon="1.3673760">
        <ele>59.8</ele>
        <time>2020-07-01T11:49:16Z</time>
      </trkpt>
      <trkpt lat="48.8383400" lon="1.3670930">
        <ele>59.8</ele>
        <time>2020-07-01T11:49:22Z</time>
      </trkpt>
      <trkpt lat="48.8382700" lon="1.3669230">
        <ele>59.6</ele>
        <time>2020-07-01T11:49:25Z</time>
      </trkpt>
      <trkpt lat="48.8381230" lon="1.3666070">
        <ele>59.4</ele>
        <time>2020-07-01T11:49:30Z</time>
      </trkpt>
      <trkpt lat="48.8379020" lon="1.3661400">
        <ele>58.8</ele>
        <time>2020-07-01T11:49:37Z</time>
      </trkpt>
      <trkpt lat="48.8377460" lon="1.3657500">
        <ele>58.6</ele>
        <time>2020-07-01T11:49:42Z</time>
      </trkpt>
      <trkpt lat="48.8376830" lon="1.3655980">
        <ele>58.4</ele>
        <time>2020-07-01T11:49:44Z</time>
      </trkpt>
      <trkpt lat="48.8376510" lon="1.3655220">
        <ele>58.4</ele>
        <time>2020-07-01T11:49:45Z</time>
      </trkpt>
      <trkpt lat="48.8373610" lon="1.3648010">
        <ele>58.6</ele>
        <time>2020-07-01T11:49:54Z</time>
      </trkpt>
      <trkpt lat="48.8373290" lon="1.3647230">
        <ele>58.4</ele>
        <time>2020-07-01T11:49:55Z</time>
      </trkpt>
      <trkpt lat="48.8371050" lon="1.3642360">
        <ele>58.4</ele>
        <time>2020-07-01T11:50:02Z</time>
      </trkpt>
      <trkpt lat="48.8368490" lon="1.3636050">
        <ele>58.2</ele>
        <time>2020-07-01T11:50:11Z</time>
      </trkpt>
      <trkpt lat="48.8367590" lon="1.3633910">
        <ele>58.4</ele>
        <time>2020-07-01T11:50:16Z</time>
      </trkpt>
      <trkpt lat="48.8367300" lon="1.3633320">
        <ele>58.4</ele>
        <time>2020-07-01T11:50:18Z</time>
      </trkpt>
      <trkpt lat="48.8366850" lon="1.3632210">
        <ele>58.8</ele>
        <time>2020-07-01T11:50:22Z</time>
      </trkpt>
      <trkpt lat="48.8366430" lon="1.3630970">
        <ele>59.4</ele>
        <time>2020-07-01T11:50:28Z</time>
      </trkpt>
      <trkpt lat="48.8366250" lon="1.3630600">
        <ele>59.6</ele>
        <time>2020-07-01T11:50:31Z</time>
      </trkpt>
      <trkpt lat="48.8365830" lon="1.3629020">
        <ele>59.8</ele>
        <time>2020-07-01T11:50:37Z</time>
      </trkpt>
      <trkpt lat="48.8365300" lon="1.3627820">
        <ele>59.8</ele>
        <time>2020-07-01T11:50:40Z</time>
      </trkpt>
      <trkpt lat="48.8364210" lon="1.3625510">
        <ele>59.6</ele>
        <time>2020-07-01T11:50:45Z</time>
      </trkpt>
      <trkpt lat="48.8362800" lon="1.3622040">
        <ele>59.4</ele>
        <time>2020-07-01T11:50:51Z</time>
      </trkpt>
      <trkpt lat="48.8362200" lon="1.3620790">
        <ele>59.2</ele>
        <time>2020-07-01T11:50:53Z</time>
      </trkpt>
      <trkpt lat="48.8361890" lon="1.3620110">
        <ele>59.2</ele>
        <time>2020-07-01T11:50:54Z</time>
      </trkpt>
      <trkpt lat="48.8359590" lon="1.3614840">
        <ele>58.6</ele>
        <time>2020-07-01T11:51:02Z</time>
      </trkpt>
      <trkpt lat="48.8359280" lon="1.3614100">
        <ele>58.6</ele>
        <time>2020-07-01T11:51:03Z</time>
      </trkpt>
      <trkpt lat="48.8358260" lon="1.3611880">
        <ele>58.4</ele>
        <time>2020-07-01T11:51:06Z</time>
      </trkpt>
      <trkpt lat="48.8356800" lon="1.3608570">
        <ele>58.0</ele>
        <time>2020-07-01T11:51:11Z</time>
      </trkpt>
      <trkpt lat="48.8355610" lon="1.3606060">
        <ele>58.2</ele>
        <time>2020-07-01T11:51:15Z</time>
      </trkpt>
      <trkpt lat="48.8353100" lon="1.3600160">
        <ele>58.0</ele>
        <time>2020-07-01T11:51:24Z</time>
      </trkpt>
      <trkpt lat="48.8352550" lon="1.3598860">
        <ele>58.0</ele>
        <time>2020-07-01T11:51:26Z</time>
      </trkpt>
      <trkpt lat="48.8350840" lon="1.3594940">
        <ele>58.2</ele>
        <time>2020-07-01T11:51:32Z</time>
      </trkpt>
      <trkpt lat="48.8349770" lon="1.3592230">
        <ele>58.6</ele>
        <time>2020-07-01T11:51:36Z</time>
      </trkpt>
      <trkpt lat="48.8348650" lon="1.3589520">
        <ele>58.6</ele>
        <time>2020-07-01T11:51:40Z</time>
      </trkpt>
      <trkpt lat="48.8346360" lon="1.3584230">
        <ele>59.0</ele>
        <time>2020-07-01T11:51:48Z</time>
      </trkpt>
      <trkpt lat="48.8346060" lon="1.3583530">
        <ele>59.4</ele>
        <time>2020-07-01T11:51:49Z</time>
      </trkpt>
      <trkpt lat="48.8344320" lon="1.3579570">
        <ele>59.2</ele>
        <time>2020-07-01T11:51:55Z</time>
      </trkpt>
      <trkpt lat="48.8343450" lon="1.3577630">
        <ele>58.8</ele>
        <time>2020-07-01T11:51:58Z</time>
      </trkpt>
      <trkpt lat="48.8343190" lon="1.3576990">
        <ele>59.0</ele>
        <time>2020-07-01T11:51:59Z</time>
      </trkpt>
      <trkpt lat="48.8341180" lon="1.3572430">
        <ele>59.4</ele>
        <time>2020-07-01T11:52:06Z</time>
      </trkpt>
      <trkpt lat="48.8338900" lon="1.3566860">
        <ele>59.6</ele>
        <time>2020-07-01T11:52:14Z</time>
      </trkpt>
      <trkpt lat="48.8337940" lon="1.3564740">
        <ele>59.6</ele>
        <time>2020-07-01T11:52:17Z</time>
      </trkpt>
      <trkpt lat="48.8336670" lon="1.3562050">
        <ele>59.6</ele>
        <time>2020-07-01T11:52:21Z</time>
      </trkpt>
      <trkpt lat="48.8336320" lon="1.3561290">
        <ele>59.6</ele>
        <time>2020-07-01T11:52:22Z</time>
      </trkpt>
      <trkpt lat="48.8333930" lon="1.3556120">
        <ele>59.4</ele>
        <time>2020-07-01T11:52:29Z</time>
      </trkpt>
      <trkpt lat="48.8333400" lon="1.3554810">
        <ele>59.4</ele>
        <time>2020-07-01T11:52:31Z</time>
      </trkpt>
      <trkpt lat="48.8332000" lon="1.3551180">
        <ele>59.2</ele>
        <time>2020-07-01T11:52:36Z</time>
      </trkpt>
      <trkpt lat="48.8331730" lon="1.3550450">
        <ele>59.2</ele>
        <time>2020-07-01T11:52:37Z</time>
      </trkpt>
      <trkpt lat="48.8329630" lon="1.3545830">
        <ele>59.0</ele>
        <time>2020-07-01T11:52:44Z</time>
      </trkpt>
      <trkpt lat="48.8328460" lon="1.3542650">
        <ele>59.0</ele>
        <time>2020-07-01T11:52:49Z</time>
      </trkpt>
      <trkpt lat="48.8326650" lon="1.3538370">
        <ele>58.8</ele>
        <time>2020-07-01T11:52:55Z</time>
      </trkpt>
      <trkpt lat="48.8324690" lon="1.3534130">
        <ele>59.0</ele>
        <time>2020-07-01T11:53:01Z</time>
      </trkpt>
      <trkpt lat="48.8322460" lon="1.3529110">
        <ele>59.2</ele>
        <time>2020-07-01T11:53:08Z</time>
      </trkpt>
      <trkpt lat="48.8320020" lon="1.3523460">
        <ele>59.2</ele>
        <time>2020-07-01T11:53:16Z</time>
      </trkpt>
      <trkpt lat="48.8318060" lon="1.3518840">
        <ele>59.2</ele>
        <time>2020-07-01T11:53:23Z</time>
      </trkpt>
      <trkpt lat="48.8316230" lon="1.3515020">
        <ele>59.0</ele>
        <time>2020-07-01T11:53:29Z</time>
      </trkpt>
      <trkpt lat="48.8315670" lon="1.3513730">
        <ele>59.0</ele>
        <time>2020-07-01T11:53:31Z</time>
      </trkpt>
      <trkpt lat="48.8314580" lon="1.3511240">
        <ele>59.0</ele>
        <time>2020-07-01T11:53:35Z</time>
      </trkpt>
      <trkpt lat="48.8312490" lon="1.3506280">
        <ele>59.2</ele>
        <time>2020-07-01T11:53:42Z</time>
      </trkpt>
      <trkpt lat="48.8310650" lon="1.3502110">
        <ele>59.4</ele>
        <time>2020-07-01T11:53:48Z</time>
      </trkpt>
      <trkpt lat="48.8309940" lon="1.3500000">
        <ele>59.4</ele>
        <time>2020-07-01T11:53:51Z</time>
      </trkpt>
      <trkpt lat="48.8308030" lon="1.3495170">
        <ele>59.6</ele>
        <time>2020-07-01T11:53:58Z</time>
      </trkpt>
      <trkpt lat="48.8305050" lon="1.3488030">
        <ele>60.2</ele>
        <time>2020-07-01T11:54:08Z</time>
      </trkpt>
      <trkpt lat="48.8302460" lon="1.3482010">
        <ele>60.0</ele>
        <time>2020-07-01T11:54:18Z</time>
      </trkpt>
      <trkpt lat="48.8302010" lon="1.3480950">
        <ele>60.0</ele>
        <time>2020-07-01T11:54:20Z</time>
      </trkpt>
      <trkpt lat="48.8301640" lon="1.3480100">
        <ele>60.0</ele>
        <time>2020-07-01T11:54:22Z</time>
      </trkpt>
      <trkpt lat="48.8301580" lon="1.3479940">
        <ele>60.2</ele>
        <time>2020-07-01T11:54:23Z</time>
      </trkpt>
      <trkpt lat="48.8301400" lon="1.3479540">
        <ele>60.4</ele>
        <time>2020-07-01T11:54:27Z</time>
      </trkpt>
      <trkpt lat="48.8301400" lon="1.3479400">
        <ele>60.4</ele>
        <time>2020-07-01T11:54:28Z</time>
      </trkpt>
      <trkpt lat="48.8301200" lon="1.3478810">
        <ele>62.0</ele>
        <time>2020-07-01T11:54:35Z</time>
      </trkpt>
      <trkpt lat="48.8300710" lon="1.3477990">
        <ele>62.2</ele>
        <time>2020-07-01T11:54:45Z</time>
      </trkpt>
      <trkpt lat="48.8300120" lon="1.3476520">
        <ele>62.0</ele>
        <time>2020-07-01T11:54:51Z</time>
      </trkpt>
      <trkpt lat="48.8298600" lon="1.3473020">
        <ele>61.4</ele>
        <time>2020-07-01T11:54:59Z</time>
      </trkpt>
      <trkpt lat="48.8297220" lon="1.3469720">
        <ele>61.0</ele>
        <time>2020-07-01T11:55:05Z</time>
      </trkpt>
      <trkpt lat="48.8296100" lon="1.3467230">
        <ele>60.6</ele>
        <time>2020-07-01T11:55:09Z</time>
      </trkpt>
      <trkpt lat="48.8292850" lon="1.3460120">
        <ele>61.2</ele>
        <time>2020-07-01T11:55:20Z</time>
      </trkpt>
      <trkpt lat="48.8292560" lon="1.3459480">
        <ele>61.0</ele>
        <time>2020-07-01T11:55:21Z</time>
      </trkpt>
      <trkpt lat="48.8289280" lon="1.3453320">
        <ele>61.4</ele>
        <time>2020-07-01T11:55:31Z</time>
      </trkpt>
      <trkpt lat="48.8287180" lon="1.3450010">
        <ele>61.6</ele>
        <time>2020-07-01T11:55:37Z</time>
      </trkpt>
      <trkpt lat="48.8286040" lon="1.3448590">
        <ele>61.6</ele>
        <time>2020-07-01T11:55:40Z</time>
      </trkpt>
      <trkpt lat="48.8284090" lon="1.3446250">
        <ele>61.6</ele>
        <time>2020-07-01T11:55:46Z</time>
      </trkpt>
      <trkpt lat="48.8283950" lon="1.3446030">
        <ele>61.8</ele>
        <time>2020-07-01T11:55:47Z</time>
      </trkpt>
      <trkpt lat="48.8283720" lon="1.3445610">
        <ele>62.0</ele>
        <time>2020-07-01T11:55:50Z</time>
      </trkpt>
      <trkpt lat="48.8282900" lon="1.3444890">
        <ele>62.8</ele>
        <time>2020-07-01T11:55:56Z</time>
      </trkpt>
      <trkpt lat="48.8282790" lon="1.3444590">
        <ele>63.4</ele>
        <time>2020-07-01T11:55:58Z</time>
      </trkpt>
      <trkpt lat="48.8282340" lon="1.3444280">
        <ele>63.6</ele>
        <time>2020-07-01T11:56:01Z</time>
      </trkpt>
      <trkpt lat="48.8281010" lon="1.3443010">
        <ele>63.8</ele>
        <time>2020-07-01T11:56:08Z</time>
      </trkpt>
      <trkpt lat="48.8279230" lon="1.3441290">
        <ele>64.0</ele>
        <time>2020-07-01T11:56:13Z</time>
      </trkpt>
      <trkpt lat="48.8275980" lon="1.3438820">
        <ele>63.8</ele>
        <time>2020-07-01T11:56:20Z</time>
      </trkpt>
      <trkpt lat="48.8273980" lon="1.3437470">
        <ele>64.0</ele>
        <time>2020-07-01T11:56:24Z</time>
      </trkpt>
      <trkpt lat="48.8271350" lon="1.3436040">
        <ele>64.0</ele>
        <time>2020-07-01T11:56:29Z</time>
      </trkpt>
      <trkpt lat="48.8267590" lon="1.3434260">
        <ele>64.4</ele>
        <time>2020-07-01T11:56:36Z</time>
      </trkpt>
      <trkpt lat="48.8262340" lon="1.3432220">
        <ele>64.6</ele>
        <time>2020-07-01T11:56:47Z</time>
      </trkpt>
      <trkpt lat="48.8261850" lon="1.3431940">
        <ele>64.8</ele>
        <time>2020-07-01T11:56:51Z</time>
      </trkpt>
      <trkpt lat="48.8261340" lon="1.3431780">
        <ele>65.4</ele>
        <time>2020-07-01T11:56:58Z</time>
      </trkpt>
      <trkpt lat="48.8261240" lon="1.3431570">
        <ele>65.6</ele>
        <time>2020-07-01T11:57:00Z</time>
      </trkpt>
      <trkpt lat="48.8260680" lon="1.3431490">
        <ele>65.8</ele>
        <time>2020-07-01T11:57:04Z</time>
      </trkpt>
      <trkpt lat="48.8259440" lon="1.3431010">
        <ele>65.6</ele>
        <time>2020-07-01T11:57:08Z</time>
      </trkpt>
      <trkpt lat="48.8259040" lon="1.3430830">
        <ele>65.6</ele>
        <time>2020-07-01T11:57:09Z</time>
      </trkpt>
      <trkpt lat="48.8256690" lon="1.3429950">
        <ele>65.0</ele>
        <time>2020-07-01T11:57:14Z</time>
      </trkpt>
      <trkpt lat="48.8251810" lon="1.3428060">
        <ele>64.0</ele>
        <time>2020-07-01T11:57:24Z</time>
      </trkpt>
      <trkpt lat="48.8247020" lon="1.3426070">
        <ele>64.0</ele>
        <time>2020-07-01T11:57:34Z</time>
      </trkpt>
      <trkpt lat="48.8246050" lon="1.3425630">
        <ele>64.0</ele>
        <time>2020-07-01T11:57:38Z</time>
      </trkpt>
      <trkpt lat="48.8245930" lon="1.3425430">
        <ele>65.2</ele>
        <time>2020-07-01T11:57:44Z</time>
      </trkpt>
      <trkpt lat="48.8245540" lon="1.3425460">
        <ele>65.4</ele>
        <time>2020-07-01T11:57:49Z</time>
      </trkpt>
      <trkpt lat="48.8245330" lon="1.3425210">
        <ele>65.4</ele>
        <time>2020-07-01T11:57:52Z</time>
      </trkpt>
      <trkpt lat="48.8244550" lon="1.3425180">
        <ele>65.4</ele>
        <time>2020-07-01T11:57:56Z</time>
      </trkpt>
      <trkpt lat="48.8243050" lon="1.3424640">
        <ele>65.4</ele>
        <time>2020-07-01T11:58:01Z</time>
      </trkpt>
      <trkpt lat="48.8241320" lon="1.3423920">
        <ele>65.0</ele>
        <time>2020-07-01T11:58:05Z</time>
      </trkpt>
      <trkpt lat="48.8239840" lon="1.3423360">
        <ele>64.8</ele>
        <time>2020-07-01T11:58:08Z</time>
      </trkpt>
      <trkpt lat="48.8235030" lon="1.3421710">
        <ele>64.4</ele>
        <time>2020-07-01T11:58:17Z</time>
      </trkpt>
      <trkpt lat="48.8230370" lon="1.3419930">
        <ele>64.2</ele>
        <time>2020-07-01T11:58:25Z</time>
      </trkpt>
      <trkpt lat="48.8226060" lon="1.3418130">
        <ele>64.2</ele>
        <time>2020-07-01T11:58:33Z</time>
      </trkpt>
      <trkpt lat="48.8221940" lon="1.3416700">
        <ele>64.0</ele>
        <time>2020-07-01T11:58:41Z</time>
      </trkpt>
      <trkpt lat="48.8217890" lon="1.3415630">
        <ele>64.2</ele>
        <time>2020-07-01T11:58:48Z</time>
      </trkpt>
      <trkpt lat="48.8215350" lon="1.3415070">
        <ele>64.4</ele>
        <time>2020-07-01T11:58:53Z</time>
      </trkpt>
      <trkpt lat="48.8214550" lon="1.3414900">
        <ele>64.8</ele>
        <time>2020-07-01T11:58:55Z</time>
      </trkpt>
      <trkpt lat="48.8213790" lon="1.3414620">
        <ele>64.8</ele>
        <time>2020-07-01T11:58:59Z</time>
      </trkpt>
      <trkpt lat="48.8213700" lon="1.3414570">
        <ele>64.8</ele>
        <time>2020-07-01T11:59:00Z</time>
      </trkpt>
      <trkpt lat="48.8212910" lon="1.3414660">
        <ele>65.8</ele>
        <time>2020-07-01T11:59:05Z</time>
      </trkpt>
      <trkpt lat="48.8211790" lon="1.3414640">
        <ele>65.8</ele>
        <time>2020-07-01T11:59:11Z</time>
      </trkpt>
      <trkpt lat="48.8210520" lon="1.3414730">
        <ele>66.0</ele>
        <time>2020-07-01T11:59:15Z</time>
      </trkpt>
      <trkpt lat="48.8210140" lon="1.3414710">
        <ele>65.8</ele>
        <time>2020-07-01T11:59:16Z</time>
      </trkpt>
      <trkpt lat="48.8207010" lon="1.3414800">
        <ele>65.8</ele>
        <time>2020-07-01T11:59:23Z</time>
      </trkpt>
      <trkpt lat="48.8203410" lon="1.3414950">
        <ele>65.4</ele>
        <time>2020-07-01T11:59:30Z</time>
      </trkpt>
      <trkpt lat="48.8200700" lon="1.3414920">
        <ele>65.2</ele>
        <time>2020-07-01T11:59:35Z</time>
      </trkpt>
      <trkpt lat="48.8198560" lon="1.3415030">
        <ele>64.8</ele>
        <time>2020-07-01T11:59:39Z</time>
      </trkpt>
      <trkpt lat="48.8194670" lon="1.3415540">
        <ele>64.8</ele>
        <time>2020-07-01T11:59:46Z</time>
      </trkpt>
      <trkpt lat="48.8189370" lon="1.3415660">
        <ele>64.6</ele>
        <time>2020-07-01T11:59:55Z</time>
      </trkpt>
      <trkpt lat="48.8183980" lon="1.3415880">
        <ele>64.4</ele>
        <time>2020-07-01T12:00:04Z</time>
      </trkpt>
      <trkpt lat="48.8183360" lon="1.3415880">
        <ele>64.6</ele>
        <time>2020-07-01T12:00:05Z</time>
      </trkpt>
      <trkpt lat="48.8182760" lon="1.3415900">
        <ele>64.4</ele>
        <time>2020-07-01T12:00:06Z</time>
      </trkpt>
      <trkpt lat="48.8180950" lon="1.3416030">
        <ele>64.4</ele>
        <time>2020-07-01T12:00:09Z</time>
      </trkpt>
      <trkpt lat="48.8176290" lon="1.3416350">
        <ele>64.6</ele>
        <time>2020-07-01T12:00:17Z</time>
      </trkpt>
      <trkpt lat="48.8171890" lon="1.3416740">
        <ele>64.4</ele>
        <time>2020-07-01T12:00:25Z</time>
      </trkpt>
      <trkpt lat="48.8165940" lon="1.3417780">
        <ele>64.2</ele>
        <time>2020-07-01T12:00:35Z</time>
      </trkpt>
      <trkpt lat="48.8164160" lon="1.3418280">
        <ele>64.4</ele>
        <time>2020-07-01T12:00:38Z</time>
      </trkpt>
      <trkpt lat="48.8158810" lon="1.3420090">
        <ele>64.4</ele>
        <time>2020-07-01T12:00:47Z</time>
      </trkpt>
      <trkpt lat="48.8158220" lon="1.3420310">
        <ele>64.2</ele>
        <time>2020-07-01T12:00:48Z</time>
      </trkpt>
      <trkpt lat="48.8152950" lon="1.3422420">
        <ele>64.2</ele>
        <time>2020-07-01T12:00:57Z</time>
      </trkpt>
      <trkpt lat="48.8149470" lon="1.3424030">
        <ele>64.2</ele>
        <time>2020-07-01T12:01:03Z</time>
      </trkpt>
      <trkpt lat="48.8143830" lon="1.3426760">
        <ele>64.4</ele>
        <time>2020-07-01T12:01:13Z</time>
      </trkpt>
      <trkpt lat="48.8143320" lon="1.3427040">
        <ele>64.4</ele>
        <time>2020-07-01T12:01:14Z</time>
      </trkpt>
      <trkpt lat="48.8139330" lon="1.3429090">
        <ele>64.4</ele>
        <time>2020-07-01T12:01:22Z</time>
      </trkpt>
      <trkpt lat="48.8133920" lon="1.3431650">
        <ele>64.6</ele>
        <time>2020-07-01T12:01:32Z</time>
      </trkpt>
      <trkpt lat="48.8132340" lon="1.3432380">
        <ele>64.6</ele>
        <time>2020-07-01T12:01:35Z</time>
      </trkpt>
      <trkpt lat="48.8126880" lon="1.3434900">
        <ele>64.4</ele>
        <time>2020-07-01T12:01:45Z</time>
      </trkpt>
      <trkpt lat="48.8121480" lon="1.3437330">
        <ele>64.2</ele>
        <time>2020-07-01T12:01:55Z</time>
      </trkpt>
      <trkpt lat="48.8120310" lon="1.3437890">
        <ele>64.2</ele>
        <time>2020-07-01T12:01:57Z</time>
      </trkpt>
      <trkpt lat="48.8114700" lon="1.3440510">
        <ele>64.2</ele>
        <time>2020-07-01T12:02:07Z</time>
      </trkpt>
      <trkpt lat="48.8112990" lon="1.3441300">
        <ele>64.0</ele>
        <time>2020-07-01T12:02:10Z</time>
      </trkpt>
      <trkpt lat="48.8107770" lon="1.3443800">
        <ele>63.6</ele>
        <time>2020-07-01T12:02:19Z</time>
      </trkpt>
      <trkpt lat="48.8105490" lon="1.3444810">
        <ele>63.8</ele>
        <time>2020-07-01T12:02:23Z</time>
      </trkpt>
      <trkpt lat="48.8100390" lon="1.3447630">
        <ele>63.8</ele>
        <time>2020-07-01T12:02:32Z</time>
      </trkpt>
      <trkpt lat="48.8095110" lon="1.3450610">
        <ele>63.8</ele>
        <time>2020-07-01T12:02:41Z</time>
      </trkpt>
      <trkpt lat="48.8093420" lon="1.3451770">
        <ele>63.8</ele>
        <time>2020-07-01T12:02:44Z</time>
      </trkpt>
      <trkpt lat="48.8088470" lon="1.3455110">
        <ele>64.2</ele>
        <time>2020-07-01T12:02:53Z</time>
      </trkpt>
      <trkpt lat="48.8083460" lon="1.3458670">
        <ele>64.2</ele>
        <time>2020-07-01T12:03:02Z</time>
      </trkpt>
      <trkpt lat="48.8082440" lon="1.3459270">
        <ele>64.6</ele>
        <time>2020-07-01T12:03:04Z</time>
      </trkpt>
      <trkpt lat="48.8081390" lon="1.3459860">
        <ele>64.6</ele>
        <time>2020-07-01T12:03:06Z</time>
      </trkpt>
      <trkpt lat="48.8078530" lon="1.3461970">
        <ele>64.6</ele>
        <time>2020-07-01T12:03:12Z</time>
      </trkpt>
      <trkpt lat="48.8075220" lon="1.3464690">
        <ele>65.0</ele>
        <time>2020-07-01T12:03:20Z</time>
      </trkpt>
      <trkpt lat="48.8073380" lon="1.3466060">
        <ele>65.2</ele>
        <time>2020-07-01T12:03:25Z</time>
      </trkpt>
      <trkpt lat="48.8072720" lon="1.3466550">
        <ele>65.4</ele>
        <time>2020-07-01T12:03:27Z</time>
      </trkpt>
      <trkpt lat="48.8071770" lon="1.3467010">
        <ele>65.8</ele>
        <time>2020-07-01T12:03:32Z</time>
      </trkpt>
      <trkpt lat="48.8070730" lon="1.3467620">
        <ele>66.4</ele>
        <time>2020-07-01T12:03:39Z</time>
      </trkpt>
      <trkpt lat="48.8069000" lon="1.3469080">
        <ele>66.4</ele>
        <time>2020-07-01T12:03:44Z</time>
      </trkpt>
      <trkpt lat="48.8064940" lon="1.3472330">
        <ele>66.0</ele>
        <time>2020-07-01T12:03:53Z</time>
      </trkpt>
      <trkpt lat="48.8060110" lon="1.3475510">
        <ele>65.8</ele>
        <time>2020-07-01T12:04:03Z</time>
      </trkpt>
      <trkpt lat="48.8056450" lon="1.3477490">
        <ele>65.8</ele>
        <time>2020-07-01T12:04:10Z</time>
      </trkpt>
      <trkpt lat="48.8053790" lon="1.3479190">
        <ele>65.6</ele>
        <time>2020-07-01T12:04:15Z</time>
      </trkpt>
      <trkpt lat="48.8051650" lon="1.3480660">
        <ele>65.6</ele>
        <time>2020-07-01T12:04:19Z</time>
      </trkpt>
      <trkpt lat="48.8046840" lon="1.3484440">
        <ele>65.4</ele>
        <time>2020-07-01T12:04:28Z</time>
      </trkpt>
      <trkpt lat="48.8045800" lon="1.3485220">
        <ele>65.4</ele>
        <time>2020-07-01T12:04:30Z</time>
      </trkpt>
      <trkpt lat="48.8041600" lon="1.3488130">
        <ele>65.6</ele>
        <time>2020-07-01T12:04:38Z</time>
      </trkpt>
      <trkpt lat="48.8038780" lon="1.3489970">
        <ele>65.8</ele>
        <time>2020-07-01T12:04:43Z</time>
      </trkpt>
      <trkpt lat="48.8038250" lon="1.3490330">
        <ele>65.8</ele>
        <time>2020-07-01T12:04:44Z</time>
      </trkpt>
      <trkpt lat="48.8033310" lon="1.3493440">
        <ele>66.2</ele>
        <time>2020-07-01T12:04:53Z</time>
      </trkpt>
      <trkpt lat="48.8028820" lon="1.3497070">
        <ele>66.4</ele>
        <time>2020-07-01T12:05:01Z</time>
      </trkpt>
      <trkpt lat="48.8023890" lon="1.3500710">
        <ele>66.4</ele>
        <time>2020-07-01T12:05:10Z</time>
      </trkpt>
      <trkpt lat="48.8022230" lon="1.3502010">
        <ele>66.6</ele>
        <time>2020-07-01T12:05:13Z</time>
      </trkpt>
      <trkpt lat="48.8017370" lon="1.3505780">
        <ele>66.4</ele>
        <time>2020-07-01T12:05:22Z</time>
      </trkpt>
      <trkpt lat="48.8014740" lon="1.3507650">
        <ele>66.6</ele>
        <time>2020-07-01T12:05:27Z</time>
      </trkpt>
      <trkpt lat="48.8009590" lon="1.3511570">
        <ele>66.4</ele>
        <time>2020-07-01T12:05:37Z</time>
      </trkpt>
      <trkpt lat="48.8009110" lon="1.3511960">
        <ele>66.4</ele>
        <time>2020-07-01T12:05:38Z</time>
      </trkpt>
      <trkpt lat="48.8007330" lon="1.3513520">
        <ele>66.6</ele>
        <time>2020-07-01T12:05:42Z</time>
      </trkpt>
      <trkpt lat="48.8005650" lon="1.3515130">
        <ele>66.8</ele>
        <time>2020-07-01T12:05:46Z</time>
      </trkpt>
      <trkpt lat="48.8001220" lon="1.3519450">
        <ele>67.2</ele>
        <time>2020-07-01T12:05:55Z</time>
      </trkpt>
      <trkpt lat="48.7997340" lon="1.3523510">
        <ele>66.8</ele>
        <time>2020-07-01T12:06:03Z</time>
      </trkpt>
      <trkpt lat="48.7996420" lon="1.3524520">
        <ele>66.8</ele>
        <time>2020-07-01T12:06:05Z</time>
      </trkpt>
      <trkpt lat="48.7994290" lon="1.3526760">
        <ele>66.6</ele>
        <time>2020-07-01T12:06:10Z</time>
      </trkpt>
      <trkpt lat="48.7993430" lon="1.3527670">
        <ele>66.4</ele>
        <time>2020-07-01T12:06:12Z</time>
      </trkpt>
      <trkpt lat="48.7989750" lon="1.3532290">
        <ele>67.0</ele>
        <time>2020-07-01T12:06:21Z</time>
      </trkpt>
      <trkpt lat="48.7986430" lon="1.3536890">
        <ele>66.8</ele>
        <time>2020-07-01T12:06:29Z</time>
      </trkpt>
      <trkpt lat="48.7982580" lon="1.3542760">
        <ele>66.6</ele>
        <time>2020-07-01T12:06:38Z</time>
      </trkpt>
      <trkpt lat="48.7982160" lon="1.3543470">
        <ele>66.6</ele>
        <time>2020-07-01T12:06:39Z</time>
      </trkpt>
      <trkpt lat="48.7978510" lon="1.3549670">
        <ele>66.8</ele>
        <time>2020-07-01T12:06:48Z</time>
      </trkpt>
      <trkpt lat="48.7977740" lon="1.3551050">
        <ele>67.0</ele>
        <time>2020-07-01T12:06:50Z</time>
      </trkpt>
      <trkpt lat="48.7977380" lon="1.3551760">
        <ele>67.0</ele>
        <time>2020-07-01T12:06:51Z</time>
      </trkpt>
      <trkpt lat="48.7973800" lon="1.3558320">
        <ele>67.0</ele>
        <time>2020-07-01T12:07:00Z</time>
      </trkpt>
      <trkpt lat="48.7973410" lon="1.3559030">
        <ele>67.0</ele>
        <time>2020-07-01T12:07:01Z</time>
      </trkpt>
      <trkpt lat="48.7969960" lon="1.3565200">
        <ele>66.8</ele>
        <time>2020-07-01T12:07:10Z</time>
      </trkpt>
      <trkpt lat="48.7966560" lon="1.3571460">
        <ele>66.6</ele>
        <time>2020-07-01T12:07:19Z</time>
      </trkpt>
      <trkpt lat="48.7964280" lon="1.3575680">
        <ele>66.8</ele>
        <time>2020-07-01T12:07:25Z</time>
      </trkpt>
      <trkpt lat="48.7962780" lon="1.3578490">
        <ele>66.8</ele>
        <time>2020-07-01T12:07:29Z</time>
      </trkpt>
      <trkpt lat="48.7959070" lon="1.3584640">
        <ele>66.4</ele>
        <time>2020-07-01T12:07:38Z</time>
      </trkpt>
      <trkpt lat="48.7956000" lon="1.3589480">
        <ele>66.4</ele>
        <time>2020-07-01T12:07:46Z</time>
      </trkpt>
      <trkpt lat="48.7953330" lon="1.3592750">
        <ele>66.8</ele>
        <time>2020-07-01T12:07:53Z</time>
      </trkpt>
      <trkpt lat="48.7951530" lon="1.3594790">
        <ele>66.8</ele>
        <time>2020-07-01T12:07:59Z</time>
      </trkpt>
      <trkpt lat="48.7950970" lon="1.3595470">
        <ele>67.2</ele>
        <time>2020-07-01T12:08:05Z</time>
      </trkpt>
      <trkpt lat="48.7950120" lon="1.3596540">
        <ele>67.6</ele>
        <time>2020-07-01T12:08:12Z</time>
      </trkpt>
      <trkpt lat="48.7948380" lon="1.3598020">
        <ele>67.8</ele>
        <time>2020-07-01T12:08:18Z</time>
      </trkpt>
      <trkpt lat="48.7946050" lon="1.3600050">
        <ele>67.0</ele>
        <time>2020-07-01T12:08:24Z</time>
      </trkpt>
      <trkpt lat="48.7942910" lon="1.3602790">
        <ele>66.6</ele>
        <time>2020-07-01T12:08:31Z</time>
      </trkpt>
      <trkpt lat="48.7938760" lon="1.3606670">
        <ele>66.6</ele>
        <time>2020-07-01T12:08:40Z</time>
      </trkpt>
      <trkpt lat="48.7937370" lon="1.3607980">
        <ele>66.4</ele>
        <time>2020-07-01T12:08:43Z</time>
      </trkpt>
      <trkpt lat="48.7933910" lon="1.3611310">
        <ele>67.6</ele>
        <time>2020-07-01T12:08:50Z</time>
      </trkpt>
      <trkpt lat="48.7929210" lon="1.3614880">
        <ele>68.2</ele>
        <time>2020-07-01T12:08:59Z</time>
      </trkpt>
      <trkpt lat="48.7924570" lon="1.3617420">
        <ele>67.8</ele>
        <time>2020-07-01T12:09:08Z</time>
      </trkpt>
      <trkpt lat="48.7919530" lon="1.3618770">
        <ele>67.8</ele>
        <time>2020-07-01T12:09:17Z</time>
      </trkpt>
      <trkpt lat="48.7915490" lon="1.3620280">
        <ele>68.0</ele>
        <time>2020-07-01T12:09:24Z</time>
      </trkpt>
      <trkpt lat="48.7910060" lon="1.3620760">
        <ele>68.0</ele>
        <time>2020-07-01T12:09:33Z</time>
      </trkpt>
      <trkpt lat="48.7906370" lon="1.3619920">
        <ele>67.8</ele>
        <time>2020-07-01T12:09:39Z</time>
      </trkpt>
      <trkpt lat="48.7902770" lon="1.3619490">
        <ele>67.8</ele>
        <time>2020-07-01T12:09:45Z</time>
      </trkpt>
      <trkpt lat="48.7899530" lon="1.3618890">
        <ele>67.8</ele>
        <time>2020-07-01T12:09:51Z</time>
      </trkpt>
      <trkpt lat="48.7896000" lon="1.3618260">
        <ele>68.0</ele>
        <time>2020-07-01T12:09:57Z</time>
      </trkpt>
      <trkpt lat="48.7890570" lon="1.3616830">
        <ele>68.0</ele>
        <time>2020-07-01T12:10:06Z</time>
      </trkpt>
      <trkpt lat="48.7887510" lon="1.3616290">
        <ele>67.6</ele>
        <time>2020-07-01T12:10:11Z</time>
      </trkpt>
      <trkpt lat="48.7886860" lon="1.3616310">
        <ele>67.4</ele>
        <time>2020-07-01T12:10:12Z</time>
      </trkpt>
      <trkpt lat="48.7883430" lon="1.3615900">
        <ele>67.2</ele>
        <time>2020-07-01T12:10:17Z</time>
      </trkpt>
      <trkpt lat="48.7882730" lon="1.3615880">
        <ele>67.2</ele>
        <time>2020-07-01T12:10:18Z</time>
      </trkpt>
      <trkpt lat="48.7880140" lon="1.3615840">
        <ele>67.2</ele>
        <time>2020-07-01T12:10:22Z</time>
      </trkpt>
      <trkpt lat="48.7877600" lon="1.3615860">
        <ele>67.2</ele>
        <time>2020-07-01T12:10:26Z</time>
      </trkpt>
      <trkpt lat="48.7876130" lon="1.3615930">
        <ele>67.2</ele>
        <time>2020-07-01T12:10:29Z</time>
      </trkpt>
      <trkpt lat="48.7874420" lon="1.3615740">
        <ele>67.0</ele>
        <time>2020-07-01T12:10:32Z</time>
      </trkpt>
      <trkpt lat="48.7873310" lon="1.3615810">
        <ele>67.0</ele>
        <time>2020-07-01T12:10:34Z</time>
      </trkpt>
      <trkpt lat="48.7870360" lon="1.3615710">
        <ele>67.2</ele>
        <time>2020-07-01T12:10:39Z</time>
      </trkpt>
      <trkpt lat="48.7866840" lon="1.3615450">
        <ele>67.2</ele>
        <time>2020-07-01T12:10:45Z</time>
      </trkpt>
      <trkpt lat="48.7861810" lon="1.3614580">
        <ele>67.0</ele>
        <time>2020-07-01T12:10:53Z</time>
      </trkpt>
      <trkpt lat="48.7861150" lon="1.3614410">
        <ele>67.0</ele>
        <time>2020-07-01T12:10:54Z</time>
      </trkpt>
      <trkpt lat="48.7858690" lon="1.3613930">
        <ele>66.6</ele>
        <time>2020-07-01T12:10:58Z</time>
      </trkpt>
      <trkpt lat="48.7857510" lon="1.3613810">
        <ele>66.6</ele>
        <time>2020-07-01T12:11:00Z</time>
      </trkpt>
      <trkpt lat="48.7856350" lon="1.3613620">
        <ele>66.4</ele>
        <time>2020-07-01T12:11:02Z</time>
      </trkpt>
      <trkpt lat="48.7854610" lon="1.3613470">
        <ele>66.4</ele>
        <time>2020-07-01T12:11:05Z</time>
      </trkpt>
      <trkpt lat="48.7853500" lon="1.3613430">
        <ele>66.4</ele>
        <time>2020-07-01T12:11:07Z</time>
      </trkpt>
      <trkpt lat="48.7851870" lon="1.3613480">
        <ele>66.4</ele>
        <time>2020-07-01T12:11:10Z</time>
      </trkpt>
      <trkpt lat="48.7847570" lon="1.3613160">
        <ele>67.0</ele>
        <time>2020-07-01T12:11:18Z</time>
      </trkpt>
      <trkpt lat="48.7845950" lon="1.3612880">
        <ele>67.0</ele>
        <time>2020-07-01T12:11:21Z</time>
      </trkpt>
      <trkpt lat="48.7843040" lon="1.3612450">
        <ele>67.2</ele>
        <time>2020-07-01T12:11:27Z</time>
      </trkpt>
      <trkpt lat="48.7840550" lon="1.3612190">
        <ele>66.8</ele>
        <time>2020-07-01T12:11:33Z</time>
      </trkpt>
      <trkpt lat="48.7839940" lon="1.3612150">
        <ele>66.8</ele>
        <time>2020-07-01T12:11:35Z</time>
      </trkpt>
      <trkpt lat="48.7839510" lon="1.3612220">
        <ele>67.0</ele>
        <time>2020-07-01T12:11:39Z</time>
      </trkpt>
      <trkpt lat="48.7839290" lon="1.3612470">
        <ele>67.6</ele>
        <time>2020-07-01T12:11:43Z</time>
      </trkpt>
      <trkpt lat="48.7839090" lon="1.3613300">
        <ele>68.2</ele>
        <time>2020-07-01T12:11:46Z</time>
      </trkpt>
      <trkpt lat="48.7838810" lon="1.3616220">
        <ele>68.4</ele>
        <time>2020-07-01T12:11:51Z</time>
      </trkpt>
      <trkpt lat="48.7838740" lon="1.3616990">
        <ele>68.4</ele>
        <time>2020-07-01T12:11:52Z</time>
      </trkpt>
      <trkpt lat="48.7838520" lon="1.3619540">
        <ele>68.4</ele>
        <time>2020-07-01T12:11:55Z</time>
      </trkpt>
      <trkpt lat="48.7838270" lon="1.3621310">
        <ele>68.2</ele>
        <time>2020-07-01T12:11:57Z</time>
      </trkpt>
      <trkpt lat="48.7836830" lon="1.3629650">
        <ele>65.4</ele>
        <time>2020-07-01T12:12:07Z</time>
      </trkpt>
      <trkpt lat="48.7836730" lon="1.3630440">
        <ele>65.4</ele>
        <time>2020-07-01T12:12:08Z</time>
      </trkpt>
      <trkpt lat="48.7836650" lon="1.3634450">
        <ele>65.2</ele>
        <time>2020-07-01T12:12:14Z</time>
      </trkpt>
      <trkpt lat="48.7836590" lon="1.3635340">
        <ele>65.2</ele>
        <time>2020-07-01T12:12:18Z</time>
      </trkpt>
      <trkpt lat="48.7836010" lon="1.3636120">
        <ele>65.8</ele>
        <time>2020-07-01T12:12:23Z</time>
      </trkpt>
      <trkpt lat="48.7833650" lon="1.3637910">
        <ele>66.4</ele>
        <time>2020-07-01T12:12:31Z</time>
      </trkpt>
      <trkpt lat="48.7830360" lon="1.3639560">
        <ele>66.6</ele>
        <time>2020-07-01T12:12:39Z</time>
      </trkpt>
      <trkpt lat="48.7825870" lon="1.3640800">
        <ele>66.2</ele>
        <time>2020-07-01T12:12:48Z</time>
      </trkpt>
      <trkpt lat="48.7823600" lon="1.3641080">
        <ele>66.2</ele>
        <time>2020-07-01T12:12:52Z</time>
      </trkpt>
      <trkpt lat="48.7822450" lon="1.3641270">
        <ele>66.2</ele>
        <time>2020-07-01T12:12:54Z</time>
      </trkpt>
      <trkpt lat="48.7820680" lon="1.3641630">
        <ele>66.0</ele>
        <time>2020-07-01T12:12:57Z</time>
      </trkpt>
      <trkpt lat="48.7815210" lon="1.3642620">
        <ele>64.6</ele>
        <time>2020-07-01T12:13:06Z</time>
      </trkpt>
      <trkpt lat="48.7813430" lon="1.3642850">
        <ele>64.6</ele>
        <time>2020-07-01T12:13:09Z</time>
      </trkpt>
      <trkpt lat="48.7808780" lon="1.3643760">
        <ele>64.6</ele>
        <time>2020-07-01T12:13:17Z</time>
      </trkpt>
      <trkpt lat="48.7808220" lon="1.3643900">
        <ele>64.6</ele>
        <time>2020-07-01T12:13:18Z</time>
      </trkpt>
      <trkpt lat="48.7803140" lon="1.3645920">
        <ele>65.0</ele>
        <time>2020-07-01T12:13:27Z</time>
      </trkpt>
      <trkpt lat="48.7798010" lon="1.3648250">
        <ele>65.2</ele>
        <time>2020-07-01T12:13:36Z</time>
      </trkpt>
      <trkpt lat="48.7796890" lon="1.3648870">
        <ele>65.0</ele>
        <time>2020-07-01T12:13:38Z</time>
      </trkpt>
      <trkpt lat="48.7793260" lon="1.3651670">
        <ele>64.8</ele>
        <time>2020-07-01T12:13:45Z</time>
      </trkpt>
      <trkpt lat="48.7788310" lon="1.3656640">
        <ele>64.6</ele>
        <time>2020-07-01T12:13:55Z</time>
      </trkpt>
      <trkpt lat="48.7786830" lon="1.3657990">
        <ele>64.8</ele>
        <time>2020-07-01T12:13:58Z</time>
      </trkpt>
      <trkpt lat="48.7784340" lon="1.3660270">
        <ele>64.8</ele>
        <time>2020-07-01T12:14:03Z</time>
      </trkpt>
      <trkpt lat="48.7780250" lon="1.3663180">
        <ele>65.4</ele>
        <time>2020-07-01T12:14:11Z</time>
      </trkpt>
      <trkpt lat="48.7779260" lon="1.3663680">
        <ele>65.6</ele>
        <time>2020-07-01T12:14:13Z</time>
      </trkpt>
      <trkpt lat="48.7778780" lon="1.3663790">
        <ele>65.6</ele>
        <time>2020-07-01T12:14:14Z</time>
      </trkpt>
      <trkpt lat="48.7777720" lon="1.3664130">
        <ele>65.8</ele>
        <time>2020-07-01T12:14:16Z</time>
      </trkpt>
      <trkpt lat="48.7773560" lon="1.3665520">
        <ele>66.6</ele>
        <time>2020-07-01T12:14:24Z</time>
      </trkpt>
      <trkpt lat="48.7772700" lon="1.3665880">
        <ele>66.6</ele>
        <time>2020-07-01T12:14:26Z</time>
      </trkpt>
      <trkpt lat="48.7771390" lon="1.3666470">
        <ele>67.0</ele>
        <time>2020-07-01T12:14:30Z</time>
      </trkpt>
      <trkpt lat="48.7770960" lon="1.3666750">
        <ele>67.4</ele>
        <time>2020-07-01T12:14:33Z</time>
      </trkpt>
      <trkpt lat="48.7770960" lon="1.3666850">
        <ele>67.6</ele>
        <time>2020-07-01T12:14:34Z</time>
      </trkpt>
      <trkpt lat="48.7771190" lon="1.3666890">
        <ele>68.2</ele>
        <time>2020-07-01T12:14:36Z</time>
      </trkpt>
      <trkpt lat="48.7771500" lon="1.3666820">
        <ele>68.4</ele>
        <time>2020-07-01T12:14:38Z</time>
      </trkpt>
      <trkpt lat="48.7773290" lon="1.3666400">
        <ele>68.6</ele>
        <time>2020-07-01T12:14:44Z</time>
      </trkpt>
      <trkpt lat="48.7773670" lon="1.3666240">
        <ele>68.4</ele>
        <time>2020-07-01T12:14:45Z</time>
      </trkpt>
      <trkpt lat="48.7774820" lon="1.3665600">
        <ele>68.4</ele>
        <time>2020-07-01T12:14:48Z</time>
      </trkpt>
      <trkpt lat="48.7776030" lon="1.3664890">
        <ele>68.0</ele>
        <time>2020-07-01T12:14:51Z</time>
      </trkpt>
      <trkpt lat="48.7778790" lon="1.3664200">
        <ele>66.6</ele>
        <time>2020-07-01T12:14:58Z</time>
      </trkpt>
      <trkpt lat="48.7779220" lon="1.3664290">
        <ele>66.6</ele>
        <time>2020-07-01T12:15:00Z</time>
      </trkpt>
      <trkpt lat="48.7779390" lon="1.3664680">
        <ele>66.4</ele>
        <time>2020-07-01T12:15:02Z</time>
      </trkpt>
      <trkpt lat="48.7779570" lon="1.3666750">
        <ele>66.2</ele>
        <time>2020-07-01T12:15:08Z</time>
      </trkpt>
      <trkpt lat="48.7780680" lon="1.3668480">
        <ele>66.2</ele>
        <time>2020-07-01T12:15:13Z</time>
      </trkpt>
      <trkpt lat="48.7782200" lon="1.3670770">
        <ele>65.4</ele>
        <time>2020-07-01T12:15:18Z</time>
      </trkpt>
      <trkpt lat="48.7783470" lon="1.3674730">
        <ele>65.2</ele>
        <time>2020-07-01T12:15:24Z</time>
      </trkpt>
      <trkpt lat="48.7783550" lon="1.3675370">
        <ele>65.0</ele>
        <time>2020-07-01T12:15:25Z</time>
      </trkpt>
      <trkpt lat="48.7783380" lon="1.3677280">
        <ele>65.0</ele>
        <time>2020-07-01T12:15:28Z</time>
      </trkpt>
      <trkpt lat="48.7782710" lon="1.3678910">
        <ele>65.0</ele>
        <time>2020-07-01T12:15:31Z</time>
      </trkpt>
      <trkpt lat="48.7781970" lon="1.3680290">
        <ele>65.0</ele>
        <time>2020-07-01T12:15:34Z</time>
      </trkpt>
      <trkpt lat="48.7780700" lon="1.3684230">
        <ele>65.0</ele>
        <time>2020-07-01T12:15:41Z</time>
      </trkpt>
      <trkpt lat="48.7780220" lon="1.3687660">
        <ele>64.6</ele>
        <time>2020-07-01T12:15:46Z</time>
      </trkpt>
      <trkpt lat="48.7780010" lon="1.3689360">
        <ele>64.6</ele>
        <time>2020-07-01T12:15:48Z</time>
      </trkpt>
      <trkpt lat="48.7779000" lon="1.3696400">
        <ele>64.0</ele>
        <time>2020-07-01T12:15:57Z</time>
      </trkpt>
      <trkpt lat="48.7778160" lon="1.3702570">
        <ele>64.2</ele>
        <time>2020-07-01T12:16:06Z</time>
      </trkpt>
      <trkpt lat="48.7777080" lon="1.3708520">
        <ele>64.2</ele>
        <time>2020-07-01T12:16:14Z</time>
      </trkpt>
      <trkpt lat="48.7776710" lon="1.3709830">
        <ele>64.2</ele>
        <time>2020-07-01T12:16:16Z</time>
      </trkpt>
      <trkpt lat="48.7775830" lon="1.3712310">
        <ele>64.2</ele>
        <time>2020-07-01T12:16:20Z</time>
      </trkpt>
      <trkpt lat="48.7774650" lon="1.3715930">
        <ele>64.2</ele>
        <time>2020-07-01T12:16:26Z</time>
      </trkpt>
      <trkpt lat="48.7774450" lon="1.3716620">
        <ele>64.0</ele>
        <time>2020-07-01T12:16:27Z</time>
      </trkpt>
      <trkpt lat="48.7773640" lon="1.3720350">
        <ele>63.8</ele>
        <time>2020-07-01T12:16:32Z</time>
      </trkpt>
      <trkpt lat="48.7773440" lon="1.3721860">
        <ele>63.6</ele>
        <time>2020-07-01T12:16:34Z</time>
      </trkpt>
      <trkpt lat="48.7772860" lon="1.3726470">
        <ele>62.8</ele>
        <time>2020-07-01T12:16:41Z</time>
      </trkpt>
      <trkpt lat="48.7772770" lon="1.3728680">
        <ele>62.6</ele>
        <time>2020-07-01T12:16:45Z</time>
      </trkpt>
      <trkpt lat="48.7772810" lon="1.3729890">
        <ele>62.8</ele>
        <time>2020-07-01T12:16:47Z</time>
      </trkpt>
      <trkpt lat="48.7772410" lon="1.3735660">
        <ele>63.0</ele>
        <time>2020-07-01T12:16:56Z</time>
      </trkpt>
      <trkpt lat="48.7771890" lon="1.3738980">
        <ele>63.2</ele>
        <time>2020-07-01T12:17:03Z</time>
      </trkpt>
      <trkpt lat="48.7771720" lon="1.3739630">
        <ele>63.8</ele>
        <time>2020-07-01T12:17:08Z</time>
      </trkpt>
      <trkpt lat="48.7771810" lon="1.3739520">
        <ele>63.6</ele>
        <time>2020-07-01T12:17:16Z</time>
      </trkpt>
      <trkpt lat="48.7771790" lon="1.3739350">
        <ele>63.6</ele>
        <time>2020-07-01T12:17:19Z</time>
      </trkpt>
      <trkpt lat="48.7771640" lon="1.3739210">
        <ele>63.0</ele>
        <time>2020-07-01T12:17:28Z</time>
      </trkpt>
      <trkpt lat="48.7771620" lon="1.3739200">
        <ele>62.6</ele>
        <time>2020-07-01T12:17:33Z</time>
      </trkpt>
      <trkpt lat="48.7771370" lon="1.3738790">
        <ele>62.4</ele>
        <time>2020-07-01T12:17:45Z</time>
      </trkpt>
      <trkpt lat="48.7771190" lon="1.3738380">
        <ele>62.4</ele>
        <time>2020-07-01T12:17:57Z</time>
      </trkpt>
      <trkpt lat="48.7771170" lon="1.3738410">
        <ele>62.6</ele>
        <time>2020-07-01T12:18:11Z</time>
      </trkpt>
      <trkpt lat="48.7771160" lon="1.3738540">
        <ele>62.4</ele>
        <time>2020-07-01T12:18:32Z</time>
      </trkpt>
      <trkpt lat="48.7771140" lon="1.3738580">
        <ele>62.4</ele>
        <time>2020-07-01T12:18:52Z</time>
      </trkpt>
      <trkpt lat="48.7771150" lon="1.3738580">
        <ele>62.2</ele>
        <time>2020-07-01T12:19:05Z</time>
      </trkpt>
      <trkpt lat="48.7771170" lon="1.3738620">
        <ele>62.2</ele>
        <time>2020-07-01T12:19:24Z</time>
      </trkpt>
      <trkpt lat="48.7771160" lon="1.3738640">
        <ele>62.2</ele>
        <time>2020-07-01T12:19:40Z</time>
      </trkpt>
      <trkpt lat="48.7771150" lon="1.3738680">
        <ele>62.2</ele>
        <time>2020-07-01T12:20:04Z</time>
      </trkpt>
      <trkpt lat="48.7771110" lon="1.3738720">
        <ele>62.0</ele>
        <time>2020-07-01T12:20:19Z</time>
      </trkpt>
      <trkpt lat="48.7771100" lon="1.3738710">
        <ele>62.2</ele>
        <time>2020-07-01T12:20:33Z</time>
      </trkpt>
      <trkpt lat="48.7771060" lon="1.3739030">
        <ele>62.2</ele>
        <time>2020-07-01T12:20:44Z</time>
      </trkpt>
      <trkpt lat="48.7771450" lon="1.3738910">
        <ele>62.4</ele>
        <time>2020-07-01T12:20:57Z</time>
      </trkpt>
      <trkpt lat="48.7771480" lon="1.3738900">
        <ele>62.4</ele>
        <time>2020-07-01T12:20:58Z</time>
      </trkpt>
      <trkpt lat="48.7771770" lon="1.3739350">
        <ele>63.0</ele>
        <time>2020-07-01T12:21:08Z</time>
      </trkpt>
      <trkpt lat="48.7771480" lon="1.3740330">
        <ele>63.2</ele>
        <time>2020-07-01T12:21:17Z</time>
      </trkpt>
      <trkpt lat="48.7771120" lon="1.3742080">
        <ele>63.4</ele>
        <time>2020-07-01T12:21:22Z</time>
      </trkpt>
      <trkpt lat="48.7770820" lon="1.3745120">
        <ele>63.2</ele>
        <time>2020-07-01T12:21:27Z</time>
      </trkpt>
      <trkpt lat="48.7770680" lon="1.3746450">
        <ele>63.0</ele>
        <time>2020-07-01T12:21:29Z</time>
      </trkpt>
      <trkpt lat="48.7769960" lon="1.3752180">
        <ele>62.4</ele>
        <time>2020-07-01T12:21:37Z</time>
      </trkpt>
      <trkpt lat="48.7769300" lon="1.3756560">
        <ele>62.4</ele>
        <time>2020-07-01T12:21:43Z</time>
      </trkpt>
      <trkpt lat="48.7768700" lon="1.3759290">
        <ele>62.2</ele>
        <time>2020-07-01T12:21:47Z</time>
      </trkpt>
      <trkpt lat="48.7767310" lon="1.3765010">
        <ele>63.0</ele>
        <time>2020-07-01T12:21:56Z</time>
      </trkpt>
      <trkpt lat="48.7767120" lon="1.3766480">
        <ele>63.0</ele>
        <time>2020-07-01T12:22:00Z</time>
      </trkpt>
      <trkpt lat="48.7767170" lon="1.3766670">
        <ele>63.0</ele>
        <time>2020-07-01T12:22:01Z</time>
      </trkpt>
      <trkpt lat="48.7767350" lon="1.3766930">
        <ele>63.2</ele>
        <time>2020-07-01T12:22:05Z</time>
      </trkpt>
      <trkpt lat="48.7767380" lon="1.3766970">
        <ele>63.2</ele>
        <time>2020-07-01T12:22:20Z</time>
      </trkpt>
      <trkpt lat="48.7767430" lon="1.3767020">
        <ele>63.2</ele>
        <time>2020-07-01T12:22:27Z</time>
      </trkpt>
      <trkpt lat="48.7767410" lon="1.3767180">
        <ele>63.2</ele>
        <time>2020-07-01T12:22:37Z</time>
      </trkpt>
      <trkpt lat="48.7767440" lon="1.3767320">
        <ele>63.2</ele>
        <time>2020-07-01T12:22:52Z</time>
      </trkpt>
      <trkpt lat="48.7767460" lon="1.3767350">
        <ele>63.2</ele>
        <time>2020-07-01T12:23:14Z</time>
      </trkpt>
      <trkpt lat="48.7767530" lon="1.3767310">
        <ele>63.0</ele>
        <time>2020-07-01T12:23:28Z</time>
      </trkpt>
      <trkpt lat="48.7767650" lon="1.3767440">
        <ele>63.2</ele>
        <time>2020-07-01T12:23:41Z</time>
      </trkpt>
      <trkpt lat="48.7767630" lon="1.3767510">
        <ele>63.2</ele>
        <time>2020-07-01T12:23:56Z</time>
      </trkpt>
      <trkpt lat="48.7767640" lon="1.3767760">
        <ele>63.0</ele>
        <time>2020-07-01T12:24:23Z</time>
      </trkpt>
      <trkpt lat="48.7767640" lon="1.3767740">
        <ele>62.8</ele>
        <time>2020-07-01T12:24:45Z</time>
      </trkpt>
      <trkpt lat="48.7767520" lon="1.3767590">
        <ele>62.6</ele>
        <time>2020-07-01T12:25:11Z</time>
      </trkpt>
      <trkpt lat="48.7767250" lon="1.3767790">
        <ele>62.6</ele>
        <time>2020-07-01T12:25:16Z</time>
      </trkpt>
      <trkpt lat="48.7767080" lon="1.3768270">
        <ele>62.4</ele>
        <time>2020-07-01T12:25:19Z</time>
      </trkpt>
      <trkpt lat="48.7766600" lon="1.3769870">
        <ele>62.6</ele>
        <time>2020-07-01T12:25:26Z</time>
      </trkpt>
      <trkpt lat="48.7765890" lon="1.3771820">
        <ele>62.6</ele>
        <time>2020-07-01T12:25:33Z</time>
      </trkpt>
      <trkpt lat="48.7764940" lon="1.3775040">
        <ele>62.6</ele>
        <time>2020-07-01T12:25:41Z</time>
      </trkpt>
      <trkpt lat="48.7763710" lon="1.3778720">
        <ele>62.6</ele>
        <time>2020-07-01T12:25:49Z</time>
      </trkpt>
      <trkpt lat="48.7762940" lon="1.3783080">
        <ele>62.8</ele>
        <time>2020-07-01T12:25:58Z</time>
      </trkpt>
      <trkpt lat="48.7762620" lon="1.3785740">
        <ele>63.0</ele>
        <time>2020-07-01T12:26:05Z</time>
      </trkpt>
      <trkpt lat="48.7763360" lon="1.3787880">
        <ele>63.2</ele>
        <time>2020-07-01T12:26:10Z</time>
      </trkpt>
      <trkpt lat="48.7764750" lon="1.3790490">
        <ele>63.2</ele>
        <time>2020-07-01T12:26:16Z</time>
      </trkpt>
      <trkpt lat="48.7765120" lon="1.3791510">
        <ele>63.0</ele>
        <time>2020-07-01T12:26:18Z</time>
      </trkpt>
      <trkpt lat="48.7765550" lon="1.3792610">
        <ele>63.0</ele>
        <time>2020-07-01T12:26:20Z</time>
      </trkpt>
      <trkpt lat="48.7766870" lon="1.3795760">
        <ele>63.2</ele>
        <time>2020-07-01T12:26:26Z</time>
      </trkpt>
      <trkpt lat="48.7767350" lon="1.3796710">
        <ele>63.0</ele>
        <time>2020-07-01T12:26:28Z</time>
      </trkpt>
      <trkpt lat="48.7768680" lon="1.3799850">
        <ele>64.4</ele>
        <time>2020-07-01T12:26:35Z</time>
      </trkpt>
      <trkpt lat="48.7768440" lon="1.3801760">
        <ele>64.6</ele>
        <time>2020-07-01T12:26:40Z</time>
      </trkpt>
      <trkpt lat="48.7768020" lon="1.3802630">
        <ele>64.6</ele>
        <time>2020-07-01T12:26:42Z</time>
      </trkpt>
      <trkpt lat="48.7767390" lon="1.3803320">
        <ele>64.6</ele>
        <time>2020-07-01T12:26:44Z</time>
      </trkpt>
      <trkpt lat="48.7765090" lon="1.3805320">
        <ele>64.4</ele>
        <time>2020-07-01T12:26:50Z</time>
      </trkpt>
      <trkpt lat="48.7763280" lon="1.3807960">
        <ele>63.6</ele>
        <time>2020-07-01T12:26:56Z</time>
      </trkpt>
      <trkpt lat="48.7761670" lon="1.3810860">
        <ele>63.4</ele>
        <time>2020-07-01T12:27:02Z</time>
      </trkpt>
      <trkpt lat="48.7760220" lon="1.3813590">
        <ele>63.4</ele>
        <time>2020-07-01T12:27:07Z</time>
      </trkpt>
      <trkpt lat="48.7759940" lon="1.3814110">
        <ele>63.6</ele>
        <time>2020-07-01T12:27:08Z</time>
      </trkpt>
      <trkpt lat="48.7759340" lon="1.3815260">
        <ele>63.8</ele>
        <time>2020-07-01T12:27:10Z</time>
      </trkpt>
      <trkpt lat="48.7758610" lon="1.3816370">
        <ele>64.0</ele>
        <time>2020-07-01T12:27:12Z</time>
      </trkpt>
      <trkpt lat="48.7758170" lon="1.3816870">
        <ele>63.8</ele>
        <time>2020-07-01T12:27:13Z</time>
      </trkpt>
      <trkpt lat="48.7755010" lon="1.3821800">
        <ele>64.0</ele>
        <time>2020-07-01T12:27:21Z</time>
      </trkpt>
      <trkpt lat="48.7751550" lon="1.3829010">
        <ele>63.8</ele>
        <time>2020-07-01T12:27:31Z</time>
      </trkpt>
      <trkpt lat="48.7748410" lon="1.3835830">
        <ele>63.4</ele>
        <time>2020-07-01T12:27:40Z</time>
      </trkpt>
      <trkpt lat="48.7745350" lon="1.3843650">
        <ele>63.0</ele>
        <time>2020-07-01T12:27:50Z</time>
      </trkpt>
      <trkpt lat="48.7745050" lon="1.3844480">
        <ele>63.0</ele>
        <time>2020-07-01T12:27:51Z</time>
      </trkpt>
      <trkpt lat="48.7744740" lon="1.3845310">
        <ele>62.8</ele>
        <time>2020-07-01T12:27:52Z</time>
      </trkpt>
      <trkpt lat="48.7742870" lon="1.3850260">
        <ele>63.0</ele>
        <time>2020-07-01T12:27:58Z</time>
      </trkpt>
      <trkpt lat="48.7742020" lon="1.3852680">
        <ele>63.0</ele>
        <time>2020-07-01T12:28:01Z</time>
      </trkpt>
      <trkpt lat="48.7741410" lon="1.3854240">
        <ele>63.0</ele>
        <time>2020-07-01T12:28:03Z</time>
      </trkpt>
      <trkpt lat="48.7739620" lon="1.3859940">
        <ele>63.0</ele>
        <time>2020-07-01T12:28:10Z</time>
      </trkpt>
      <trkpt lat="48.7739030" lon="1.3861380">
        <ele>63.0</ele>
        <time>2020-07-01T12:28:12Z</time>
      </trkpt>
      <trkpt lat="48.7737490" lon="1.3865270">
        <ele>63.0</ele>
        <time>2020-07-01T12:28:17Z</time>
      </trkpt>
      <trkpt lat="48.7735110" lon="1.3872920">
        <ele>63.2</ele>
        <time>2020-07-01T12:28:26Z</time>
      </trkpt>
      <trkpt lat="48.7734850" lon="1.3873790">
        <ele>63.4</ele>
        <time>2020-07-01T12:28:27Z</time>
      </trkpt>
      <trkpt lat="48.7732220" lon="1.3882020">
        <ele>63.0</ele>
        <time>2020-07-01T12:28:36Z</time>
      </trkpt>
      <trkpt lat="48.7730350" lon="1.3888120">
        <ele>63.2</ele>
        <time>2020-07-01T12:28:43Z</time>
      </trkpt>
      <trkpt lat="48.7729600" lon="1.3890630">
        <ele>63.0</ele>
        <time>2020-07-01T12:28:46Z</time>
      </trkpt>
      <trkpt lat="48.7727930" lon="1.3896680">
        <ele>63.2</ele>
        <time>2020-07-01T12:28:53Z</time>
      </trkpt>
      <trkpt lat="48.7725930" lon="1.3905060">
        <ele>63.6</ele>
        <time>2020-07-01T12:29:02Z</time>
      </trkpt>
      <trkpt lat="48.7725720" lon="1.3906000">
        <ele>63.4</ele>
        <time>2020-07-01T12:29:03Z</time>
      </trkpt>
      <trkpt lat="48.7724770" lon="1.3911740">
        <ele>63.6</ele>
        <time>2020-07-01T12:29:09Z</time>
      </trkpt>
      <trkpt lat="48.7724360" lon="1.3914600">
        <ele>63.8</ele>
        <time>2020-07-01T12:29:12Z</time>
      </trkpt>
      <trkpt lat="48.7722910" lon="1.3922780">
        <ele>64.2</ele>
        <time>2020-07-01T12:29:21Z</time>
      </trkpt>
      <trkpt lat="48.7722710" lon="1.3923620">
        <ele>64.4</ele>
        <time>2020-07-01T12:29:22Z</time>
      </trkpt>
      <trkpt lat="48.7722150" lon="1.3926290">
        <ele>64.6</ele>
        <time>2020-07-01T12:29:25Z</time>
      </trkpt>
      <trkpt lat="48.7720980" lon="1.3932580">
        <ele>64.8</ele>
        <time>2020-07-01T12:29:32Z</time>
      </trkpt>
      <trkpt lat="48.7720450" lon="1.3937240">
        <ele>65.4</ele>
        <time>2020-07-01T12:29:38Z</time>
      </trkpt>
      <trkpt lat="48.7719070" lon="1.3944160">
        <ele>65.8</ele>
        <time>2020-07-01T12:29:46Z</time>
      </trkpt>
      <trkpt lat="48.7718750" lon="1.3945910">
        <ele>65.8</ele>
        <time>2020-07-01T12:29:48Z</time>
      </trkpt>
      <trkpt lat="48.7718200" lon="1.3950280">
        <ele>65.6</ele>
        <time>2020-07-01T12:29:53Z</time>
      </trkpt>
      <trkpt lat="48.7717430" lon="1.3956720">
        <ele>65.4</ele>
        <time>2020-07-01T12:30:00Z</time>
      </trkpt>
      <trkpt lat="48.7717090" lon="1.3958490">
        <ele>65.4</ele>
        <time>2020-07-01T12:30:02Z</time>
      </trkpt>
      <trkpt lat="48.7716150" lon="1.3960870">
        <ele>65.2</ele>
        <time>2020-07-01T12:30:05Z</time>
      </trkpt>
      <trkpt lat="48.7715750" lon="1.3961630">
        <ele>65.0</ele>
        <time>2020-07-01T12:30:06Z</time>
      </trkpt>
      <trkpt lat="48.7714450" lon="1.3963840">
        <ele>65.0</ele>
        <time>2020-07-01T12:30:09Z</time>
      </trkpt>
      <trkpt lat="48.7713440" lon="1.3965140">
        <ele>64.8</ele>
        <time>2020-07-01T12:30:11Z</time>
      </trkpt>
      <trkpt lat="48.7710670" lon="1.3969200">
        <ele>64.2</ele>
        <time>2020-07-01T12:30:17Z</time>
      </trkpt>
      <trkpt lat="48.7707850" lon="1.3974560">
        <ele>63.6</ele>
        <time>2020-07-01T12:30:24Z</time>
      </trkpt>
      <trkpt lat="48.7706120" lon="1.3978640">
        <ele>63.8</ele>
        <time>2020-07-01T12:30:29Z</time>
      </trkpt>
      <trkpt lat="48.7703580" lon="1.3986370">
        <ele>63.6</ele>
        <time>2020-07-01T12:30:38Z</time>
      </trkpt>
      <trkpt lat="48.7703280" lon="1.3987200">
        <ele>63.6</ele>
        <time>2020-07-01T12:30:39Z</time>
      </trkpt>
      <trkpt lat="48.7701810" lon="1.3992220">
        <ele>63.8</ele>
        <time>2020-07-01T12:30:45Z</time>
      </trkpt>
      <trkpt lat="48.7701890" lon="1.3992960">
        <ele>63.8</ele>
        <time>2020-07-01T12:30:46Z</time>
      </trkpt>
      <trkpt lat="48.7702110" lon="1.3993590">
        <ele>64.0</ele>
        <time>2020-07-01T12:30:47Z</time>
      </trkpt>
      <trkpt lat="48.7702770" lon="1.3994650">
        <ele>64.0</ele>
        <time>2020-07-01T12:30:49Z</time>
      </trkpt>
      <trkpt lat="48.7703210" lon="1.3995130">
        <ele>64.0</ele>
        <time>2020-07-01T12:30:50Z</time>
      </trkpt>
      <trkpt lat="48.7705290" lon="1.3997180">
        <ele>64.8</ele>
        <time>2020-07-01T12:30:55Z</time>
      </trkpt>
      <trkpt lat="48.7705580" lon="1.3998880">
        <ele>66.4</ele>
        <time>2020-07-01T12:30:59Z</time>
      </trkpt>
      <trkpt lat="48.7705300" lon="1.3999670">
        <ele>66.6</ele>
        <time>2020-07-01T12:31:01Z</time>
      </trkpt>
      <trkpt lat="48.7704870" lon="1.4001380">
        <ele>67.6</ele>
        <time>2020-07-01T12:31:05Z</time>
      </trkpt>
      <trkpt lat="48.7704050" lon="1.4003500">
        <ele>68.8</ele>
        <time>2020-07-01T12:31:10Z</time>
      </trkpt>
      <trkpt lat="48.7703740" lon="1.4004350">
        <ele>69.0</ele>
        <time>2020-07-01T12:31:12Z</time>
      </trkpt>
      <trkpt lat="48.7703230" lon="1.4005520">
        <ele>69.2</ele>
        <time>2020-07-01T12:31:15Z</time>
      </trkpt>
      <trkpt lat="48.7702090" lon="1.4007640">
        <ele>69.8</ele>
        <time>2020-07-01T12:31:21Z</time>
      </trkpt>
      <trkpt lat="48.7701760" lon="1.4008340">
        <ele>70.2</ele>
        <time>2020-07-01T12:31:23Z</time>
      </trkpt>
      <trkpt lat="48.7701130" lon="1.4009730">
        <ele>70.6</ele>
        <time>2020-07-01T12:31:27Z</time>
      </trkpt>
      <trkpt lat="48.7700780" lon="1.4010690">
        <ele>70.6</ele>
        <time>2020-07-01T12:31:29Z</time>
      </trkpt>
      <trkpt lat="48.7700540" lon="1.4011220">
        <ele>70.6</ele>
        <time>2020-07-01T12:31:30Z</time>
      </trkpt>
      <trkpt lat="48.7699480" lon="1.4013760">
        <ele>70.4</ele>
        <time>2020-07-01T12:31:34Z</time>
      </trkpt>
      <trkpt lat="48.7699110" lon="1.4014340">
        <ele>70.4</ele>
        <time>2020-07-01T12:31:35Z</time>
      </trkpt>
      <trkpt lat="48.7697810" lon="1.4016560">
        <ele>70.0</ele>
        <time>2020-07-01T12:31:39Z</time>
      </trkpt>
      <trkpt lat="48.7697340" lon="1.4017600">
        <ele>69.4</ele>
        <time>2020-07-01T12:31:43Z</time>
      </trkpt>
      <trkpt lat="48.7696760" lon="1.4020010">
        <ele>69.2</ele>
        <time>2020-07-01T12:31:49Z</time>
      </trkpt>
      <trkpt lat="48.7696700" lon="1.4020500">
        <ele>69.2</ele>
        <time>2020-07-01T12:31:50Z</time>
      </trkpt>
      <trkpt lat="48.7695890" lon="1.4024110">
        <ele>69.4</ele>
        <time>2020-07-01T12:31:57Z</time>
      </trkpt>
      <trkpt lat="48.7694960" lon="1.4028160">
        <ele>70.2</ele>
        <time>2020-07-01T12:32:04Z</time>
      </trkpt>
      <trkpt lat="48.7693790" lon="1.4032460">
        <ele>70.6</ele>
        <time>2020-07-01T12:32:12Z</time>
      </trkpt>
      <trkpt lat="48.7693670" lon="1.4032960">
        <ele>70.8</ele>
        <time>2020-07-01T12:32:13Z</time>
      </trkpt>
      <trkpt lat="48.7692640" lon="1.4035810">
        <ele>70.8</ele>
        <time>2020-07-01T12:32:19Z</time>
      </trkpt>
      <trkpt lat="48.7691280" lon="1.4040130">
        <ele>71.2</ele>
        <time>2020-07-01T12:32:27Z</time>
      </trkpt>
      <trkpt lat="48.7689910" lon="1.4044650">
        <ele>71.8</ele>
        <time>2020-07-01T12:32:34Z</time>
      </trkpt>
      <trkpt lat="48.7688450" lon="1.4048650">
        <ele>72.2</ele>
        <time>2020-07-01T12:32:41Z</time>
      </trkpt>
      <trkpt lat="48.7688090" lon="1.4049780">
        <ele>72.4</ele>
        <time>2020-07-01T12:32:43Z</time>
      </trkpt>
      <trkpt lat="48.7686670" lon="1.4051650">
        <ele>73.0</ele>
        <time>2020-07-01T12:32:48Z</time>
      </trkpt>
      <trkpt lat="48.7685020" lon="1.4053010">
        <ele>73.4</ele>
        <time>2020-07-01T12:32:53Z</time>
      </trkpt>
      <trkpt lat="48.7684660" lon="1.4054060">
        <ele>73.6</ele>
        <time>2020-07-01T12:32:55Z</time>
      </trkpt>
      <trkpt lat="48.7684250" lon="1.4055380">
        <ele>73.8</ele>
        <time>2020-07-01T12:32:57Z</time>
      </trkpt>
      <trkpt lat="48.7684070" lon="1.4056050">
        <ele>73.8</ele>
        <time>2020-07-01T12:32:58Z</time>
      </trkpt>
      <trkpt lat="48.7682760" lon="1.4061880">
        <ele>74.4</ele>
        <time>2020-07-01T12:33:07Z</time>
      </trkpt>
      <trkpt lat="48.7682000" lon="1.4065340">
        <ele>75.0</ele>
        <time>2020-07-01T12:33:12Z</time>
      </trkpt>
      <trkpt lat="48.7680920" lon="1.4070720">
        <ele>75.2</ele>
        <time>2020-07-01T12:33:20Z</time>
      </trkpt>
      <trkpt lat="48.7680110" lon="1.4075950">
        <ele>75.6</ele>
        <time>2020-07-01T12:33:27Z</time>
      </trkpt>
      <trkpt lat="48.7679980" lon="1.4076860">
        <ele>75.4</ele>
        <time>2020-07-01T12:33:28Z</time>
      </trkpt>
      <trkpt lat="48.7679820" lon="1.4077790">
        <ele>75.6</ele>
        <time>2020-07-01T12:33:29Z</time>
      </trkpt>
      <trkpt lat="48.7679610" lon="1.4078700">
        <ele>75.6</ele>
        <time>2020-07-01T12:33:30Z</time>
      </trkpt>
      <trkpt lat="48.7678820" lon="1.4081470">
        <ele>75.4</ele>
        <time>2020-07-01T12:33:33Z</time>
      </trkpt>
      <trkpt lat="48.7678060" lon="1.4083220">
        <ele>75.2</ele>
        <time>2020-07-01T12:33:35Z</time>
      </trkpt>
      <trkpt lat="48.7677190" lon="1.4084610">
        <ele>74.4</ele>
        <time>2020-07-01T12:33:37Z</time>
      </trkpt>
      <trkpt lat="48.7676700" lon="1.4085180">
        <ele>74.2</ele>
        <time>2020-07-01T12:33:38Z</time>
      </trkpt>
      <trkpt lat="48.7676160" lon="1.4085680">
        <ele>73.8</ele>
        <time>2020-07-01T12:33:39Z</time>
      </trkpt>
      <trkpt lat="48.7675160" lon="1.4086420">
        <ele>73.0</ele>
        <time>2020-07-01T12:33:41Z</time>
      </trkpt>
      <trkpt lat="48.7674110" lon="1.4086930">
        <ele>73.0</ele>
        <time>2020-07-01T12:33:43Z</time>
      </trkpt>
      <trkpt lat="48.7673020" lon="1.4087350">
        <ele>72.8</ele>
        <time>2020-07-01T12:33:45Z</time>
      </trkpt>
      <trkpt lat="48.7668920" lon="1.4089280">
        <ele>73.2</ele>
        <time>2020-07-01T12:33:53Z</time>
      </trkpt>
      <trkpt lat="48.7665880" lon="1.4091790">
        <ele>74.0</ele>
        <time>2020-07-01T12:34:00Z</time>
      </trkpt>
      <trkpt lat="48.7665500" lon="1.4092150">
        <ele>74.0</ele>
        <time>2020-07-01T12:34:01Z</time>
      </trkpt>
      <trkpt lat="48.7663000" lon="1.4095250">
        <ele>74.4</ele>
        <time>2020-07-01T12:34:08Z</time>
      </trkpt>
      <trkpt lat="48.7662650" lon="1.4095680">
        <ele>74.6</ele>
        <time>2020-07-01T12:34:09Z</time>
      </trkpt>
      <trkpt lat="48.7659840" lon="1.4099020">
        <ele>76.0</ele>
        <time>2020-07-01T12:34:17Z</time>
      </trkpt>
      <trkpt lat="48.7657620" lon="1.4101360">
        <ele>76.6</ele>
        <time>2020-07-01T12:34:23Z</time>
      </trkpt>
      <trkpt lat="48.7653450" lon="1.4106390">
        <ele>77.6</ele>
        <time>2020-07-01T12:34:34Z</time>
      </trkpt>
      <trkpt lat="48.7652580" lon="1.4107220">
        <ele>77.4</ele>
        <time>2020-07-01T12:34:36Z</time>
      </trkpt>
      <trkpt lat="48.7650710" lon="1.4108660">
        <ele>77.4</ele>
        <time>2020-07-01T12:34:40Z</time>
      </trkpt>
      <trkpt lat="48.7649750" lon="1.4109360">
        <ele>77.4</ele>
        <time>2020-07-01T12:34:42Z</time>
      </trkpt>
      <trkpt lat="48.7647980" lon="1.4110620">
        <ele>77.2</ele>
        <time>2020-07-01T12:34:46Z</time>
      </trkpt>
      <trkpt lat="48.7647470" lon="1.4110990">
        <ele>77.0</ele>
        <time>2020-07-01T12:34:47Z</time>
      </trkpt>
      <trkpt lat="48.7645900" lon="1.4112330">
        <ele>76.8</ele>
        <time>2020-07-01T12:34:50Z</time>
      </trkpt>
      <trkpt lat="48.7644840" lon="1.4113360">
        <ele>76.4</ele>
        <time>2020-07-01T12:34:52Z</time>
      </trkpt>
      <trkpt lat="48.7643780" lon="1.4114330">
        <ele>75.8</ele>
        <time>2020-07-01T12:34:54Z</time>
      </trkpt>
      <trkpt lat="48.7642140" lon="1.4115960">
        <ele>75.0</ele>
        <time>2020-07-01T12:34:57Z</time>
      </trkpt>
      <trkpt lat="48.7641020" lon="1.4117050">
        <ele>74.0</ele>
        <time>2020-07-01T12:34:59Z</time>
      </trkpt>
      <trkpt lat="48.7640400" lon="1.4117650">
        <ele>73.6</ele>
        <time>2020-07-01T12:35:00Z</time>
      </trkpt>
      <trkpt lat="48.7639770" lon="1.4118250">
        <ele>73.2</ele>
        <time>2020-07-01T12:35:01Z</time>
      </trkpt>
      <trkpt lat="48.7637260" lon="1.4120690">
        <ele>71.6</ele>
        <time>2020-07-01T12:35:05Z</time>
      </trkpt>
      <trkpt lat="48.7635610" lon="1.4122170">
        <ele>69.8</ele>
        <time>2020-07-01T12:35:08Z</time>
      </trkpt>
      <trkpt lat="48.7634340" lon="1.4122860">
        <ele>68.8</ele>
        <time>2020-07-01T12:35:10Z</time>
      </trkpt>
      <trkpt lat="48.7631960" lon="1.4124340">
        <ele>67.8</ele>
        <time>2020-07-01T12:35:14Z</time>
      </trkpt>
      <trkpt lat="48.7631480" lon="1.4124870">
        <ele>67.4</ele>
        <time>2020-07-01T12:35:15Z</time>
      </trkpt>
      <trkpt lat="48.7631010" lon="1.4125420">
        <ele>67.2</ele>
        <time>2020-07-01T12:35:16Z</time>
      </trkpt>
      <trkpt lat="48.7628690" lon="1.4128600">
        <ele>66.6</ele>
        <time>2020-07-01T12:35:22Z</time>
      </trkpt>
      <trkpt lat="48.7628140" lon="1.4129300">
        <ele>66.8</ele>
        <time>2020-07-01T12:35:24Z</time>
      </trkpt>
      <trkpt lat="48.7626900" lon="1.4130490">
        <ele>66.8</ele>
        <time>2020-07-01T12:35:28Z</time>
      </trkpt>
      <trkpt lat="48.7625490" lon="1.4131800">
        <ele>67.4</ele>
        <time>2020-07-01T12:35:32Z</time>
      </trkpt>
      <trkpt lat="48.7625150" lon="1.4132200">
        <ele>67.6</ele>
        <time>2020-07-01T12:35:33Z</time>
      </trkpt>
      <trkpt lat="48.7624840" lon="1.4132630">
        <ele>67.6</ele>
        <time>2020-07-01T12:35:34Z</time>
      </trkpt>
      <trkpt lat="48.7624340" lon="1.4133470">
        <ele>67.8</ele>
        <time>2020-07-01T12:35:36Z</time>
      </trkpt>
      <trkpt lat="48.7623710" lon="1.4134070">
        <ele>68.2</ele>
        <time>2020-07-01T12:35:39Z</time>
      </trkpt>
      <trkpt lat="48.7623580" lon="1.4134140">
        <ele>69.2</ele>
        <time>2020-07-01T12:35:44Z</time>
      </trkpt>
      <trkpt lat="48.7623540" lon="1.4134230">
        <ele>70.8</ele>
        <time>2020-07-01T12:35:58Z</time>
      </trkpt>
      <trkpt lat="48.7622890" lon="1.4135220">
        <ele>70.6</ele>
        <time>2020-07-01T12:36:06Z</time>
      </trkpt>
      <trkpt lat="48.7622120" lon="1.4136010">
        <ele>70.8</ele>
        <time>2020-07-01T12:36:09Z</time>
      </trkpt>
      <trkpt lat="48.7621560" lon="1.4136780">
        <ele>70.8</ele>
        <time>2020-07-01T12:36:11Z</time>
      </trkpt>
      <trkpt lat="48.7619840" lon="1.4139640">
        <ele>69.4</ele>
        <time>2020-07-01T12:36:17Z</time>
      </trkpt>
      <trkpt lat="48.7617360" lon="1.4142560">
        <ele>68.4</ele>
        <time>2020-07-01T12:36:23Z</time>
      </trkpt>
      <trkpt lat="48.7617000" lon="1.4143090">
        <ele>68.4</ele>
        <time>2020-07-01T12:36:24Z</time>
      </trkpt>
      <trkpt lat="48.7615170" lon="1.4146460">
        <ele>67.4</ele>
        <time>2020-07-01T12:36:30Z</time>
      </trkpt>
      <trkpt lat="48.7614860" lon="1.4146900">
        <ele>67.4</ele>
        <time>2020-07-01T12:36:31Z</time>
      </trkpt>
      <trkpt lat="48.7613050" lon="1.4148740">
        <ele>67.4</ele>
        <time>2020-07-01T12:36:36Z</time>
      </trkpt>
      <trkpt lat="48.7610640" lon="1.4150600">
        <ele>67.4</ele>
        <time>2020-07-01T12:36:42Z</time>
      </trkpt>
      <trkpt lat="48.7609730" lon="1.4151180">
        <ele>67.2</ele>
        <time>2020-07-01T12:36:44Z</time>
      </trkpt>
      <trkpt lat="48.7606650" lon="1.4153500">
        <ele>66.8</ele>
        <time>2020-07-01T12:36:51Z</time>
      </trkpt>
      <trkpt lat="48.7605080" lon="1.4154600">
        <ele>66.6</ele>
        <time>2020-07-01T12:36:54Z</time>
      </trkpt>
      <trkpt lat="48.7604550" lon="1.4154920">
        <ele>66.4</ele>
        <time>2020-07-01T12:36:55Z</time>
      </trkpt>
      <trkpt lat="48.7603930" lon="1.4155230">
        <ele>66.6</ele>
        <time>2020-07-01T12:36:56Z</time>
      </trkpt>
      <trkpt lat="48.7602240" lon="1.4156370">
        <ele>66.6</ele>
        <time>2020-07-01T12:36:59Z</time>
      </trkpt>
      <trkpt lat="48.7597980" lon="1.4158760">
        <ele>66.4</ele>
        <time>2020-07-01T12:37:06Z</time>
      </trkpt>
      <trkpt lat="48.7594470" lon="1.4160790">
        <ele>66.2</ele>
        <time>2020-07-01T12:37:12Z</time>
      </trkpt>
      <trkpt lat="48.7590060" lon="1.4163460">
        <ele>66.2</ele>
        <time>2020-07-01T12:37:20Z</time>
      </trkpt>
      <trkpt lat="48.7584690" lon="1.4165880">
        <ele>66.2</ele>
        <time>2020-07-01T12:37:29Z</time>
      </trkpt>
      <trkpt lat="48.7578800" lon="1.4167600">
        <ele>66.2</ele>
        <time>2020-07-01T12:37:39Z</time>
      </trkpt>
      <trkpt lat="48.7578200" lon="1.4167710">
        <ele>66.2</ele>
        <time>2020-07-01T12:37:40Z</time>
      </trkpt>
      <trkpt lat="48.7573060" lon="1.4168500">
        <ele>66.2</ele>
        <time>2020-07-01T12:37:49Z</time>
      </trkpt>
      <trkpt lat="48.7568070" lon="1.4168230">
        <ele>66.0</ele>
        <time>2020-07-01T12:37:58Z</time>
      </trkpt>
      <trkpt lat="48.7566990" lon="1.4167920">
        <ele>66.2</ele>
        <time>2020-07-01T12:38:00Z</time>
      </trkpt>
      <trkpt lat="48.7563340" lon="1.4167010">
        <ele>66.8</ele>
        <time>2020-07-01T12:38:07Z</time>
      </trkpt>
      <trkpt lat="48.7560200" lon="1.4166460">
        <ele>67.2</ele>
        <time>2020-07-01T12:38:13Z</time>
      </trkpt>
      <trkpt lat="48.7558160" lon="1.4166340">
        <ele>67.4</ele>
        <time>2020-07-01T12:38:17Z</time>
      </trkpt>
      <trkpt lat="48.7553850" lon="1.4166800">
        <ele>68.4</ele>
        <time>2020-07-01T12:38:25Z</time>
      </trkpt>
      <trkpt lat="48.7550970" lon="1.4168180">
        <ele>69.0</ele>
        <time>2020-07-01T12:38:32Z</time>
      </trkpt>
      <trkpt lat="48.7548500" lon="1.4170180">
        <ele>69.8</ele>
        <time>2020-07-01T12:38:39Z</time>
      </trkpt>
      <trkpt lat="48.7547930" lon="1.4171150">
        <ele>70.0</ele>
        <time>2020-07-01T12:38:41Z</time>
      </trkpt>
      <trkpt lat="48.7547240" lon="1.4172740">
        <ele>70.0</ele>
        <time>2020-07-01T12:38:44Z</time>
      </trkpt>
      <trkpt lat="48.7546440" lon="1.4176090">
        <ele>70.4</ele>
        <time>2020-07-01T12:38:50Z</time>
      </trkpt>
      <trkpt lat="48.7545890" lon="1.4177480">
        <ele>70.6</ele>
        <time>2020-07-01T12:38:53Z</time>
      </trkpt>
      <trkpt lat="48.7545390" lon="1.4178710">
        <ele>71.0</ele>
        <time>2020-07-01T12:38:56Z</time>
      </trkpt>
      <trkpt lat="48.7544100" lon="1.4180170">
        <ele>71.6</ele>
        <time>2020-07-01T12:39:00Z</time>
      </trkpt>
      <trkpt lat="48.7543630" lon="1.4180480">
        <ele>71.4</ele>
        <time>2020-07-01T12:39:01Z</time>
      </trkpt>
      <trkpt lat="48.7541020" lon="1.4181410">
        <ele>71.6</ele>
        <time>2020-07-01T12:39:06Z</time>
      </trkpt>
      <trkpt lat="48.7540490" lon="1.4181470">
        <ele>71.6</ele>
        <time>2020-07-01T12:39:07Z</time>
      </trkpt>
      <trkpt lat="48.7537240" lon="1.4181260">
        <ele>71.6</ele>
        <time>2020-07-01T12:39:13Z</time>
      </trkpt>
      <trkpt lat="48.7535670" lon="1.4181050">
        <ele>71.4</ele>
        <time>2020-07-01T12:39:16Z</time>
      </trkpt>
      <trkpt lat="48.7532770" lon="1.4180820">
        <ele>71.6</ele>
        <time>2020-07-01T12:39:22Z</time>
      </trkpt>
      <trkpt lat="48.7532320" lon="1.4180870">
        <ele>71.8</ele>
        <time>2020-07-01T12:39:23Z</time>
      </trkpt>
      <trkpt lat="48.7531040" lon="1.4180950">
        <ele>72.8</ele>
        <time>2020-07-01T12:39:26Z</time>
      </trkpt>
      <trkpt lat="48.7529380" lon="1.4181220">
        <ele>73.8</ele>
        <time>2020-07-01T12:39:30Z</time>
      </trkpt>
      <trkpt lat="48.7523860" lon="1.4182430">
        <ele>74.8</ele>
        <time>2020-07-01T12:39:42Z</time>
      </trkpt>
      <trkpt lat="48.7522440" lon="1.4182690">
        <ele>74.8</ele>
        <time>2020-07-01T12:39:45Z</time>
      </trkpt>
      <trkpt lat="48.7517040" lon="1.4184050">
        <ele>75.6</ele>
        <time>2020-07-01T12:39:56Z</time>
      </trkpt>
      <trkpt lat="48.7517040" lon="1.4184050">
        <ele>75.6</ele>
        <time>2020-07-01T12:39:57Z</time>
      </trkpt>
      <trkpt lat="48.7516190" lon="1.4184490">
        <ele>75.6</ele>
        <time>2020-07-01T12:39:59Z</time>
      </trkpt>
      <trkpt lat="48.7515800" lon="1.4184700">
        <ele>75.4</ele>
        <time>2020-07-01T12:40:00Z</time>
      </trkpt>
      <trkpt lat="48.7515000" lon="1.4185140">
        <ele>75.6</ele>
        <time>2020-07-01T12:40:02Z</time>
      </trkpt>
      <trkpt lat="48.7512540" lon="1.4185780">
        <ele>75.6</ele>
        <time>2020-07-01T12:40:07Z</time>
      </trkpt>
      <trkpt lat="48.7512010" lon="1.4185830">
        <ele>75.8</ele>
        <time>2020-07-01T12:40:08Z</time>
      </trkpt>
      <trkpt lat="48.7512010" lon="1.4185830">
        <ele>76.0</ele>
        <time>2020-07-01T12:40:13Z</time>
      </trkpt>
      <trkpt lat="48.7510040" lon="1.4187020">
        <ele>76.2</ele>
        <time>2020-07-01T12:40:14Z</time>
      </trkpt>
      <trkpt lat="48.7507810" lon="1.4187520">
        <ele>76.8</ele>
        <time>2020-07-01T12:40:19Z</time>
      </trkpt>
      <trkpt lat="48.7506530" lon="1.4187850">
        <ele>77.8</ele>
        <time>2020-07-01T12:40:22Z</time>
      </trkpt>
      <trkpt lat="48.7503320" lon="1.4188340">
        <ele>78.6</ele>
        <time>2020-07-01T12:40:30Z</time>
      </trkpt>
      <trkpt lat="48.7502610" lon="1.4188450">
        <ele>78.8</ele>
        <time>2020-07-01T12:40:32Z</time>
      </trkpt>
      <trkpt lat="48.7498410" lon="1.4189270">
        <ele>80.2</ele>
        <time>2020-07-01T12:40:44Z</time>
      </trkpt>
      <trkpt lat="48.7494780" lon="1.4189880">
        <ele>81.4</ele>
        <time>2020-07-01T12:40:54Z</time>
      </trkpt>
      <trkpt lat="48.7490840" lon="1.4190020">
        <ele>81.6</ele>
        <time>2020-07-01T12:41:04Z</time>
      </trkpt>
      <trkpt lat="48.7486310" lon="1.4190400">
        <ele>81.8</ele>
        <time>2020-07-01T12:41:14Z</time>
      </trkpt>
      <trkpt lat="48.7481310" lon="1.4190740">
        <ele>81.8</ele>
        <time>2020-07-01T12:41:25Z</time>
      </trkpt>
      <trkpt lat="48.7478690" lon="1.4190940">
        <ele>81.6</ele>
        <time>2020-07-01T12:41:31Z</time>
      </trkpt>
      <trkpt lat="48.7477710" lon="1.4190950">
        <ele>81.6</ele>
        <time>2020-07-01T12:41:33Z</time>
      </trkpt>
      <trkpt lat="48.7476200" lon="1.4191080">
        <ele>81.6</ele>
        <time>2020-07-01T12:41:36Z</time>
      </trkpt>
      <trkpt lat="48.7475290" lon="1.4191560">
        <ele>81.4</ele>
        <time>2020-07-01T12:41:38Z</time>
      </trkpt>
      <trkpt lat="48.7474910" lon="1.4191970">
        <ele>81.2</ele>
        <time>2020-07-01T12:41:39Z</time>
      </trkpt>
      <trkpt lat="48.7474600" lon="1.4192490">
        <ele>81.0</ele>
        <time>2020-07-01T12:41:40Z</time>
      </trkpt>
      <trkpt lat="48.7473780" lon="1.4194380">
        <ele>81.0</ele>
        <time>2020-07-01T12:41:43Z</time>
      </trkpt>
      <trkpt lat="48.7473130" lon="1.4195690">
        <ele>80.8</ele>
        <time>2020-07-01T12:41:45Z</time>
      </trkpt>
      <trkpt lat="48.7472340" lon="1.4196960">
        <ele>81.0</ele>
        <time>2020-07-01T12:41:48Z</time>
      </trkpt>
      <trkpt lat="48.7471710" lon="1.4197910">
        <ele>81.2</ele>
        <time>2020-07-01T12:41:52Z</time>
      </trkpt>
      <trkpt lat="48.7472130" lon="1.4197520">
        <ele>82.0</ele>
        <time>2020-07-01T12:41:59Z</time>
      </trkpt>
      <trkpt lat="48.7472370" lon="1.4196730">
        <ele>82.4</ele>
        <time>2020-07-01T12:42:09Z</time>
      </trkpt>
      <trkpt lat="48.7472370" lon="1.4196730">
        <ele>82.2</ele>
        <time>2020-07-01T12:42:10Z</time>
      </trkpt>
      <trkpt lat="48.7472370" lon="1.4196720">
        <ele>82.2</ele>
        <time>2020-07-01T12:42:11Z</time>
      </trkpt>
      <trkpt lat="48.7472350" lon="1.4196720">
        <ele>82.4</ele>
        <time>2020-07-01T12:42:12Z</time>
      </trkpt>
      <trkpt lat="48.7472330" lon="1.4196690">
        <ele>82.2</ele>
        <time>2020-07-01T12:42:13Z</time>
      </trkpt>
      <trkpt lat="48.7472320" lon="1.4196680">
        <ele>82.4</ele>
        <time>2020-07-01T12:42:14Z</time>
      </trkpt>
      <trkpt lat="48.7472340" lon="1.4196690">
        <ele>82.4</ele>
        <time>2020-07-01T12:42:16Z</time>
      </trkpt>
      <trkpt lat="48.7472350" lon="1.4196690">
        <ele>82.4</ele>
        <time>2020-07-01T12:42:17Z</time>
      </trkpt>
      <trkpt lat="48.7472360" lon="1.4196670">
        <ele>82.4</ele>
        <time>2020-07-01T12:42:18Z</time>
      </trkpt>
      <trkpt lat="48.7472360" lon="1.4196670">
        <ele>82.6</ele>
        <time>2020-07-01T12:42:19Z</time>
      </trkpt>
      <trkpt lat="48.7472400" lon="1.4196640">
        <ele>82.4</ele>
        <time>2020-07-01T12:42:20Z</time>
      </trkpt>
      <trkpt lat="48.7472490" lon="1.4196620">
        <ele>82.4</ele>
        <time>2020-07-01T12:42:21Z</time>
      </trkpt>
      <trkpt lat="48.7472620" lon="1.4196720">
        <ele>82.4</ele>
        <time>2020-07-01T12:42:25Z</time>
      </trkpt>
      <trkpt lat="48.7472610" lon="1.4196720">
        <ele>82.4</ele>
        <time>2020-07-01T12:42:44Z</time>
      </trkpt>
      <trkpt lat="48.7472650" lon="1.4196660">
        <ele>82.4</ele>
        <time>2020-07-01T12:43:01Z</time>
      </trkpt>
      <trkpt lat="48.7472660" lon="1.4196530">
        <ele>82.6</ele>
        <time>2020-07-01T12:43:25Z</time>
      </trkpt>
      <trkpt lat="48.7472480" lon="1.4196720">
        <ele>82.2</ele>
        <time>2020-07-01T12:43:50Z</time>
      </trkpt>
      <trkpt lat="48.7471990" lon="1.4197070">
        <ele>82.2</ele>
        <time>2020-07-01T12:43:58Z</time>
      </trkpt>
      <trkpt lat="48.7471770" lon="1.4197280">
        <ele>82.2</ele>
        <time>2020-07-01T12:44:00Z</time>
      </trkpt>
      <trkpt lat="48.7471620" lon="1.4197360">
        <ele>82.2</ele>
        <time>2020-07-01T12:44:01Z</time>
      </trkpt>
      <trkpt lat="48.7471290" lon="1.4197560">
        <ele>82.2</ele>
        <time>2020-07-01T12:44:03Z</time>
      </trkpt>
      <trkpt lat="48.7471100" lon="1.4197620">
        <ele>82.2</ele>
        <time>2020-07-01T12:44:04Z</time>
      </trkpt>
      <trkpt lat="48.7470440" lon="1.4197810">
        <ele>82.0</ele>
        <time>2020-07-01T12:44:07Z</time>
      </trkpt>
      <trkpt lat="48.7469560" lon="1.4197440">
        <ele>82.0</ele>
        <time>2020-07-01T12:44:11Z</time>
      </trkpt>
      <trkpt lat="48.7469040" lon="1.4197090">
        <ele>81.4</ele>
        <time>2020-07-01T12:44:13Z</time>
      </trkpt>
      <trkpt lat="48.7468170" lon="1.4196860">
        <ele>80.4</ele>
        <time>2020-07-01T12:44:18Z</time>
      </trkpt>
      <trkpt lat="48.7467910" lon="1.4196760">
        <ele>80.2</ele>
        <time>2020-07-01T12:44:29Z</time>
      </trkpt>
      <trkpt lat="48.7467950" lon="1.4197210">
        <ele>80.4</ele>
        <time>2020-07-01T12:44:43Z</time>
      </trkpt>
      <trkpt lat="48.7467940" lon="1.4197310">
        <ele>80.2</ele>
        <time>2020-07-01T12:44:57Z</time>
      </trkpt>
      <trkpt lat="48.7468030" lon="1.4197340">
        <ele>80.8</ele>
        <time>2020-07-01T12:45:06Z</time>
      </trkpt>
      <trkpt lat="48.7468320" lon="1.4197370">
        <ele>80.6</ele>
        <time>2020-07-01T12:45:24Z</time>
      </trkpt>
      <trkpt lat="48.7468400" lon="1.4197460">
        <ele>80.8</ele>
        <time>2020-07-01T12:45:53Z</time>
      </trkpt>
      <trkpt lat="48.7468400" lon="1.4197620">
        <ele>81.0</ele>
        <time>2020-07-01T12:46:07Z</time>
      </trkpt>
      <trkpt lat="48.7468480" lon="1.4197700">
        <ele>80.8</ele>
        <time>2020-07-01T12:46:28Z</time>
      </trkpt>
      <trkpt lat="48.7468660" lon="1.4197780">
        <ele>80.8</ele>
        <time>2020-07-01T12:46:56Z</time>
      </trkpt>
      <trkpt lat="48.7468710" lon="1.4197720">
        <ele>80.8</ele>
        <time>2020-07-01T12:47:13Z</time>
      </trkpt>
      <trkpt lat="48.7468650" lon="1.4197640">
        <ele>80.6</ele>
        <time>2020-07-01T12:47:37Z</time>
      </trkpt>
      <trkpt lat="48.7468840" lon="1.4197600">
        <ele>80.6</ele>
        <time>2020-07-01T12:48:01Z</time>
      </trkpt>
      <trkpt lat="48.7468770" lon="1.4197810">
        <ele>80.0</ele>
        <time>2020-07-01T12:48:34Z</time>
      </trkpt>
      <trkpt lat="48.7468030" lon="1.4197790">
        <ele>80.2</ele>
        <time>2020-07-01T12:48:58Z</time>
      </trkpt>
      <trkpt lat="48.7468070" lon="1.4197940">
        <ele>80.2</ele>
        <time>2020-07-01T12:49:28Z</time>
      </trkpt>
      <trkpt lat="48.7468400" lon="1.4197720">
        <ele>80.6</ele>
        <time>2020-07-01T12:49:48Z</time>
      </trkpt>
      <trkpt lat="48.7468450" lon="1.4197710">
        <ele>80.4</ele>
        <time>2020-07-01T12:49:51Z</time>
      </trkpt>
      <trkpt lat="48.7469220" lon="1.4197930">
        <ele>79.8</ele>
        <time>2020-07-01T12:49:59Z</time>
      </trkpt>
      <trkpt lat="48.7469350" lon="1.4198030">
        <ele>79.8</ele>
        <time>2020-07-01T12:50:00Z</time>
      </trkpt>
      <trkpt lat="48.7470310" lon="1.4199550">
        <ele>79.8</ele>
        <time>2020-07-01T12:50:09Z</time>
      </trkpt>
      <trkpt lat="48.7470500" lon="1.4200510">
        <ele>80.0</ele>
        <time>2020-07-01T12:50:13Z</time>
      </trkpt>
      <trkpt lat="48.7470750" lon="1.4202260">
        <ele>80.2</ele>
        <time>2020-07-01T12:50:19Z</time>
      </trkpt>
      <trkpt lat="48.7471280" lon="1.4205130">
        <ele>80.8</ele>
        <time>2020-07-01T12:50:29Z</time>
      </trkpt>
      <trkpt lat="48.7471470" lon="1.4205210">
        <ele>81.4</ele>
        <time>2020-07-01T12:50:31Z</time>
      </trkpt>
      <trkpt lat="48.7471460" lon="1.4204840">
        <ele>81.6</ele>
        <time>2020-07-01T12:50:33Z</time>
      </trkpt>
      <trkpt lat="48.7471450" lon="1.4204400">
        <ele>81.6</ele>
        <time>2020-07-01T12:50:34Z</time>
      </trkpt>
      <trkpt lat="48.7471380" lon="1.4202870">
        <ele>81.6</ele>
        <time>2020-07-01T12:50:37Z</time>
      </trkpt>
      <trkpt lat="48.7471170" lon="1.4201810">
        <ele>81.6</ele>
        <time>2020-07-01T12:50:39Z</time>
      </trkpt>
      <trkpt lat="48.7470490" lon="1.4200580">
        <ele>81.6</ele>
        <time>2020-07-01T12:50:42Z</time>
      </trkpt>
      <trkpt lat="48.7469860" lon="1.4199820">
        <ele>81.6</ele>
        <time>2020-07-01T12:50:44Z</time>
      </trkpt>
      <trkpt lat="48.7468200" lon="1.4198610">
        <ele>80.8</ele>
        <time>2020-07-01T12:50:50Z</time>
      </trkpt>
      <trkpt lat="48.7467350" lon="1.4199520">
        <ele>80.0</ele>
        <time>2020-07-01T12:50:55Z</time>
      </trkpt>
      <trkpt lat="48.7466740" lon="1.4200110">
        <ele>79.8</ele>
        <time>2020-07-01T12:51:00Z</time>
      </trkpt>
      <trkpt lat="48.7465810" lon="1.4200690">
        <ele>79.8</ele>
        <time>2020-07-01T12:51:05Z</time>
      </trkpt>
      <trkpt lat="48.7464690" lon="1.4202130">
        <ele>80.4</ele>
        <time>2020-07-01T12:51:13Z</time>
      </trkpt>
      <trkpt lat="48.7464420" lon="1.4202550">
        <ele>80.6</ele>
        <time>2020-07-01T12:51:15Z</time>
      </trkpt>
      <trkpt lat="48.7464150" lon="1.4203600">
        <ele>81.2</ele>
        <time>2020-07-01T12:51:22Z</time>
      </trkpt>
      <trkpt lat="48.7464280" lon="1.4203570">
        <ele>81.2</ele>
        <time>2020-07-01T12:51:23Z</time>
      </trkpt>
      <trkpt lat="48.7464700" lon="1.4202980">
        <ele>81.2</ele>
        <time>2020-07-01T12:51:26Z</time>
      </trkpt>
      <trkpt lat="48.7464870" lon="1.4202710">
        <ele>81.4</ele>
        <time>2020-07-01T12:51:27Z</time>
      </trkpt>
      <trkpt lat="48.7465600" lon="1.4201370">
        <ele>81.2</ele>
        <time>2020-07-01T12:51:31Z</time>
      </trkpt>
      <trkpt lat="48.7466290" lon="1.4200440">
        <ele>80.8</ele>
        <time>2020-07-01T12:51:34Z</time>
      </trkpt>
      <trkpt lat="48.7467630" lon="1.4198520">
        <ele>80.0</ele>
        <time>2020-07-01T12:51:39Z</time>
      </trkpt>
      <trkpt lat="48.7468090" lon="1.4196980">
        <ele>79.6</ele>
        <time>2020-07-01T12:51:43Z</time>
      </trkpt>
      <trkpt lat="48.7468080" lon="1.4196510">
        <ele>79.4</ele>
        <time>2020-07-01T12:51:44Z</time>
      </trkpt>
      <trkpt lat="48.7467820" lon="1.4195520">
        <ele>79.2</ele>
        <time>2020-07-01T12:51:46Z</time>
      </trkpt>
      <trkpt lat="48.7467510" lon="1.4194560">
        <ele>79.0</ele>
        <time>2020-07-01T12:51:48Z</time>
      </trkpt>
      <trkpt lat="48.7466370" lon="1.4191400">
        <ele>77.2</ele>
        <time>2020-07-01T12:51:56Z</time>
      </trkpt>
      <trkpt lat="48.7465350" lon="1.4190590">
        <ele>76.6</ele>
        <time>2020-07-01T12:52:02Z</time>
      </trkpt>
      <trkpt lat="48.7463610" lon="1.4190450">
        <ele>76.0</ele>
        <time>2020-07-01T12:52:07Z</time>
      </trkpt>
      <trkpt lat="48.7462510" lon="1.4190470">
        <ele>76.0</ele>
        <time>2020-07-01T12:52:10Z</time>
      </trkpt>
      <trkpt lat="48.7461150" lon="1.4190560">
        <ele>76.0</ele>
        <time>2020-07-01T12:52:13Z</time>
      </trkpt>
      <trkpt lat="48.7460200" lon="1.4190480">
        <ele>75.8</ele>
        <time>2020-07-01T12:52:14Z</time>
      </trkpt>
      <trkpt lat="48.7459220" lon="1.4190220">
        <ele>75.8</ele>
        <time>2020-07-01T12:52:16Z</time>
      </trkpt>
      <trkpt lat="48.7458980" lon="1.4190110">
        <ele>75.2</ele>
        <time>2020-07-01T12:52:17Z</time>
      </trkpt>
      <trkpt lat="48.7458730" lon="1.4190010">
        <ele>75.0</ele>
        <time>2020-07-01T12:52:18Z</time>
      </trkpt>
      <trkpt lat="48.7458220" lon="1.4189690">
        <ele>74.8</ele>
        <time>2020-07-01T12:52:19Z</time>
      </trkpt>
      <trkpt lat="48.7457140" lon="1.4188850">
        <ele>74.6</ele>
        <time>2020-07-01T12:52:20Z</time>
      </trkpt>
      <trkpt lat="48.7457140" lon="1.4188850">
        <ele>74.4</ele>
        <time>2020-07-01T12:52:21Z</time>
      </trkpt>
      <trkpt lat="48.7455340" lon="1.4187000">
        <ele>73.2</ele>
        <time>2020-07-01T12:52:24Z</time>
      </trkpt>
      <trkpt lat="48.7453960" lon="1.4185630">
        <ele>72.6</ele>
        <time>2020-07-01T12:52:26Z</time>
      </trkpt>
      <trkpt lat="48.7452350" lon="1.4184780">
        <ele>71.6</ele>
        <time>2020-07-01T12:52:28Z</time>
      </trkpt>
      <trkpt lat="48.7450670" lon="1.4184430">
        <ele>70.2</ele>
        <time>2020-07-01T12:52:30Z</time>
      </trkpt>
      <trkpt lat="48.7445940" lon="1.4184780">
        <ele>66.0</ele>
        <time>2020-07-01T12:52:36Z</time>
      </trkpt>
      <trkpt lat="48.7443160" lon="1.4185200">
        <ele>65.8</ele>
        <time>2020-07-01T12:52:40Z</time>
      </trkpt>
      <trkpt lat="48.7439900" lon="1.4185470">
        <ele>65.6</ele>
        <time>2020-07-01T12:52:44Z</time>
      </trkpt>
      <trkpt lat="48.7435710" lon="1.4185960">
        <ele>66.2</ele>
        <time>2020-07-01T12:52:52Z</time>
      </trkpt>
      <trkpt lat="48.7431970" lon="1.4185940">
        <ele>66.6</ele>
        <time>2020-07-01T12:53:00Z</time>
      </trkpt>
      <trkpt lat="48.7428110" lon="1.4185700">
        <ele>66.6</ele>
        <time>2020-07-01T12:53:08Z</time>
      </trkpt>
      <trkpt lat="48.7427630" lon="1.4185590">
        <ele>66.6</ele>
        <time>2020-07-01T12:53:09Z</time>
      </trkpt>
      <trkpt lat="48.7423580" lon="1.4185110">
        <ele>67.0</ele>
        <time>2020-07-01T12:53:17Z</time>
      </trkpt>
      <trkpt lat="48.7417580" lon="1.4183300">
        <ele>67.4</ele>
        <time>2020-07-01T12:53:27Z</time>
      </trkpt>
      <trkpt lat="48.7413780" lon="1.4181790">
        <ele>67.2</ele>
        <time>2020-07-01T12:53:35Z</time>
      </trkpt>
      <trkpt lat="48.7411650" lon="1.4180820">
        <ele>67.2</ele>
        <time>2020-07-01T12:53:39Z</time>
      </trkpt>
      <trkpt lat="48.7407090" lon="1.4178910">
        <ele>66.8</ele>
        <time>2020-07-01T12:53:48Z</time>
      </trkpt>
      <trkpt lat="48.7406570" lon="1.4178820">
        <ele>66.6</ele>
        <time>2020-07-01T12:53:49Z</time>
      </trkpt>
      <trkpt lat="48.7403630" lon="1.4178840">
        <ele>66.6</ele>
        <time>2020-07-01T12:53:55Z</time>
      </trkpt>
      <trkpt lat="48.7398520" lon="1.4179780">
        <ele>67.0</ele>
        <time>2020-07-01T12:54:05Z</time>
      </trkpt>
      <trkpt lat="48.7392770" lon="1.4180370">
        <ele>67.0</ele>
        <time>2020-07-01T12:54:16Z</time>
      </trkpt>
      <trkpt lat="48.7392230" lon="1.4180290">
        <ele>67.0</ele>
        <time>2020-07-01T12:54:17Z</time>
      </trkpt>
      <trkpt lat="48.7388520" lon="1.4179100">
        <ele>66.6</ele>
        <time>2020-07-01T12:54:24Z</time>
      </trkpt>
      <trkpt lat="48.7383490" lon="1.4177110">
        <ele>66.2</ele>
        <time>2020-07-01T12:54:34Z</time>
      </trkpt>
      <trkpt lat="48.7379150" lon="1.4175690">
        <ele>66.2</ele>
        <time>2020-07-01T12:54:42Z</time>
      </trkpt>
      <trkpt lat="48.7378750" lon="1.4175570">
        <ele>66.4</ele>
        <time>2020-07-01T12:54:44Z</time>
      </trkpt>
      <trkpt lat="48.7377080" lon="1.4174590">
        <ele>66.6</ele>
        <time>2020-07-01T12:54:49Z</time>
      </trkpt>
      <trkpt lat="48.7376900" lon="1.4174410">
        <ele>66.6</ele>
        <time>2020-07-01T12:54:50Z</time>
      </trkpt>
      <trkpt lat="48.7376750" lon="1.4174210">
        <ele>66.6</ele>
        <time>2020-07-01T12:54:52Z</time>
      </trkpt>
      <trkpt lat="48.7376550" lon="1.4173670">
        <ele>66.6</ele>
        <time>2020-07-01T12:54:53Z</time>
      </trkpt>
      <trkpt lat="48.7376520" lon="1.4172960">
        <ele>66.8</ele>
        <time>2020-07-01T12:54:55Z</time>
      </trkpt>
      <trkpt lat="48.7376500" lon="1.4170860">
        <ele>67.0</ele>
        <time>2020-07-01T12:55:01Z</time>
      </trkpt>
      <trkpt lat="48.7376490" lon="1.4169540">
        <ele>67.2</ele>
        <time>2020-07-01T12:55:04Z</time>
      </trkpt>
      <trkpt lat="48.7376390" lon="1.4168610">
        <ele>67.2</ele>
        <time>2020-07-01T12:55:05Z</time>
      </trkpt>
      <trkpt lat="48.7376320" lon="1.4168180">
        <ele>67.0</ele>
        <time>2020-07-01T12:55:06Z</time>
      </trkpt>
      <trkpt lat="48.7376240" lon="1.4167770">
        <ele>67.2</ele>
        <time>2020-07-01T12:55:07Z</time>
      </trkpt>
      <trkpt lat="48.7376160" lon="1.4167350">
        <ele>67.0</ele>
        <time>2020-07-01T12:55:08Z</time>
      </trkpt>
      <trkpt lat="48.7375620" lon="1.4163990">
        <ele>67.0</ele>
        <time>2020-07-01T12:55:14Z</time>
      </trkpt>
      <trkpt lat="48.7374880" lon="1.4159620">
        <ele>67.2</ele>
        <time>2020-07-01T12:55:22Z</time>
      </trkpt>
      <trkpt lat="48.7374830" lon="1.4158610">
        <ele>67.4</ele>
        <time>2020-07-01T12:55:25Z</time>
      </trkpt>
      <trkpt lat="48.7374600" lon="1.4156270">
        <ele>67.6</ele>
        <time>2020-07-01T12:55:31Z</time>
      </trkpt>
      <trkpt lat="48.7374440" lon="1.4155410">
        <ele>67.8</ele>
        <time>2020-07-01T12:55:33Z</time>
      </trkpt>
      <trkpt lat="48.7374210" lon="1.4152850">
        <ele>68.4</ele>
        <time>2020-07-01T12:55:38Z</time>
      </trkpt>
      <trkpt lat="48.7374220" lon="1.4151710">
        <ele>68.4</ele>
        <time>2020-07-01T12:55:40Z</time>
      </trkpt>
      <trkpt lat="48.7374120" lon="1.4151150">
        <ele>68.4</ele>
        <time>2020-07-01T12:55:41Z</time>
      </trkpt>
      <trkpt lat="48.7373570" lon="1.4149830">
        <ele>68.4</ele>
        <time>2020-07-01T12:55:44Z</time>
      </trkpt>
      <trkpt lat="48.7372700" lon="1.4149560">
        <ele>68.0</ele>
        <time>2020-07-01T12:55:50Z</time>
      </trkpt>
      <trkpt lat="48.7373090" lon="1.4149860">
        <ele>68.0</ele>
        <time>2020-07-01T12:55:54Z</time>
      </trkpt>
      <trkpt lat="48.7373390" lon="1.4149960">
        <ele>68.0</ele>
        <time>2020-07-01T12:55:56Z</time>
      </trkpt>
      <trkpt lat="48.7373660" lon="1.4149580">
        <ele>68.0</ele>
        <time>2020-07-01T12:56:03Z</time>
      </trkpt>
      <trkpt lat="48.7373140" lon="1.4149570">
        <ele>68.0</ele>
        <time>2020-07-01T12:56:06Z</time>
      </trkpt>
      <trkpt lat="48.7372550" lon="1.4149500">
        <ele>68.0</ele>
        <time>2020-07-01T12:56:08Z</time>
      </trkpt>
      <trkpt lat="48.7371540" lon="1.4149490">
        <ele>67.8</ele>
        <time>2020-07-01T12:56:13Z</time>
      </trkpt>
      <trkpt lat="48.7371360" lon="1.4149780">
        <ele>68.0</ele>
        <time>2020-07-01T12:56:14Z</time>
      </trkpt>
      <trkpt lat="48.7370960" lon="1.4150230">
        <ele>68.0</ele>
        <time>2020-07-01T12:56:22Z</time>
      </trkpt>
      <trkpt lat="48.7370820" lon="1.4150340">
        <ele>68.2</ele>
        <time>2020-07-01T12:56:38Z</time>
      </trkpt>
      <trkpt lat="48.7370760" lon="1.4150400">
        <ele>68.2</ele>
        <time>2020-07-01T12:57:03Z</time>
      </trkpt>
      <trkpt lat="48.7370690" lon="1.4150260">
        <ele>68.2</ele>
        <time>2020-07-01T12:57:26Z</time>
      </trkpt>
      <trkpt lat="48.7370710" lon="1.4150250">
        <ele>68.0</ele>
        <time>2020-07-01T12:57:44Z</time>
      </trkpt>
      <trkpt lat="48.7370690" lon="1.4150180">
        <ele>68.2</ele>
        <time>2020-07-01T12:58:16Z</time>
      </trkpt>
      <trkpt lat="48.7370660" lon="1.4150180">
        <ele>67.8</ele>
        <time>2020-07-01T12:58:43Z</time>
      </trkpt>
      <trkpt lat="48.7370660" lon="1.4150180">
        <ele>68.2</ele>
        <time>2020-07-01T12:59:16Z</time>
      </trkpt>
      <trkpt lat="48.7370760" lon="1.4150280">
        <ele>68.2</ele>
        <time>2020-07-01T12:59:41Z</time>
      </trkpt>
      <trkpt lat="48.7370890" lon="1.4150490">
        <ele>68.0</ele>
        <time>2020-07-01T12:59:58Z</time>
      </trkpt>
      <trkpt lat="48.7371010" lon="1.4150220">
        <ele>68.0</ele>
        <time>2020-07-01T13:00:22Z</time>
      </trkpt>
      <trkpt lat="48.7371610" lon="1.4149580">
        <ele>68.2</ele>
        <time>2020-07-01T13:00:28Z</time>
      </trkpt>
      <trkpt lat="48.7371810" lon="1.4149600">
        <ele>68.0</ele>
        <time>2020-07-01T13:00:30Z</time>
      </trkpt>
      <trkpt lat="48.7373230" lon="1.4149690">
        <ele>67.8</ele>
        <time>2020-07-01T13:00:35Z</time>
      </trkpt>
      <trkpt lat="48.7374200" lon="1.4149620">
        <ele>68.0</ele>
        <time>2020-07-01T13:00:40Z</time>
      </trkpt>
      <trkpt lat="48.7374890" lon="1.4147520">
        <ele>68.0</ele>
        <time>2020-07-01T13:00:45Z</time>
      </trkpt>
      <trkpt lat="48.7375450" lon="1.4143120">
        <ele>67.6</ele>
        <time>2020-07-01T13:00:54Z</time>
      </trkpt>
      <trkpt lat="48.7375310" lon="1.4140440">
        <ele>67.6</ele>
        <time>2020-07-01T13:01:00Z</time>
      </trkpt>
      <trkpt lat="48.7374870" lon="1.4139600">
        <ele>67.4</ele>
        <time>2020-07-01T13:01:04Z</time>
      </trkpt>
      <trkpt lat="48.7374810" lon="1.4139550">
        <ele>67.4</ele>
        <time>2020-07-01T13:01:05Z</time>
      </trkpt>
      <trkpt lat="48.7374870" lon="1.4139430">
        <ele>67.4</ele>
        <time>2020-07-01T13:01:12Z</time>
      </trkpt>
      <trkpt lat="48.7375050" lon="1.4139970">
        <ele>67.4</ele>
        <time>2020-07-01T13:01:15Z</time>
      </trkpt>
      <trkpt lat="48.7375230" lon="1.4140990">
        <ele>67.4</ele>
        <time>2020-07-01T13:01:19Z</time>
      </trkpt>
      <trkpt lat="48.7375240" lon="1.4141430">
        <ele>67.6</ele>
        <time>2020-07-01T13:01:22Z</time>
      </trkpt>
      <trkpt lat="48.7374820" lon="1.4141610">
        <ele>67.6</ele>
        <time>2020-07-01T13:01:25Z</time>
      </trkpt>
      <trkpt lat="48.7373170" lon="1.4141330">
        <ele>67.4</ele>
        <time>2020-07-01T13:01:32Z</time>
      </trkpt>
      <trkpt lat="48.7370400" lon="1.4141570">
        <ele>67.4</ele>
        <time>2020-07-01T13:01:41Z</time>
      </trkpt>
      <trkpt lat="48.7368330" lon="1.4142030">
        <ele>67.4</ele>
        <time>2020-07-01T13:01:48Z</time>
      </trkpt>
      <trkpt lat="48.7368080" lon="1.4142160">
        <ele>67.2</ele>
        <time>2020-07-01T13:01:49Z</time>
      </trkpt>
      <trkpt lat="48.7367380" lon="1.4142550">
        <ele>67.2</ele>
        <time>2020-07-01T13:01:52Z</time>
      </trkpt>
      <trkpt lat="48.7366910" lon="1.4142680">
        <ele>67.2</ele>
        <time>2020-07-01T13:01:54Z</time>
      </trkpt>
      <trkpt lat="48.7365350" lon="1.4143540">
        <ele>67.2</ele>
        <time>2020-07-01T13:02:02Z</time>
      </trkpt>
      <trkpt lat="48.7363350" lon="1.4144100">
        <ele>67.2</ele>
        <time>2020-07-01T13:02:09Z</time>
      </trkpt>
      <trkpt lat="48.7359660" lon="1.4145310">
        <ele>67.4</ele>
        <time>2020-07-01T13:02:18Z</time>
      </trkpt>
      <trkpt lat="48.7356690" lon="1.4146640">
        <ele>67.6</ele>
        <time>2020-07-01T13:02:27Z</time>
      </trkpt>
      <trkpt lat="48.7353940" lon="1.4147600">
        <ele>67.8</ele>
        <time>2020-07-01T13:02:35Z</time>
      </trkpt>
      <trkpt lat="48.7350980" lon="1.4148760">
        <ele>68.0</ele>
        <time>2020-07-01T13:02:44Z</time>
      </trkpt>
      <trkpt lat="48.7347790" lon="1.4149880">
        <ele>68.0</ele>
        <time>2020-07-01T13:02:53Z</time>
      </trkpt>
      <trkpt lat="48.7343330" lon="1.4151570">
        <ele>67.8</ele>
        <time>2020-07-01T13:03:04Z</time>
      </trkpt>
      <trkpt lat="48.7338290" lon="1.4152260">
        <ele>67.8</ele>
        <time>2020-07-01T13:03:15Z</time>
      </trkpt>
      <trkpt lat="48.7333660" lon="1.4152660">
        <ele>67.4</ele>
        <time>2020-07-01T13:03:24Z</time>
      </trkpt>
      <trkpt lat="48.7328010" lon="1.4152200">
        <ele>67.4</ele>
        <time>2020-07-01T13:03:35Z</time>
      </trkpt>
      <trkpt lat="48.7326940" lon="1.4152070">
        <ele>67.4</ele>
        <time>2020-07-01T13:03:37Z</time>
      </trkpt>
      <trkpt lat="48.7320680" lon="1.4151360">
        <ele>67.4</ele>
        <time>2020-07-01T13:03:48Z</time>
      </trkpt>
      <trkpt lat="48.7320200" lon="1.4151310">
        <ele>67.4</ele>
        <time>2020-07-01T13:03:49Z</time>
      </trkpt>
      <trkpt lat="48.7316160" lon="1.4151190">
        <ele>67.4</ele>
        <time>2020-07-01T13:03:58Z</time>
      </trkpt>
      <trkpt lat="48.7309770" lon="1.4150170">
        <ele>67.8</ele>
        <time>2020-07-01T13:04:09Z</time>
      </trkpt>
      <trkpt lat="48.7308160" lon="1.4150100">
        <ele>67.8</ele>
        <time>2020-07-01T13:04:12Z</time>
      </trkpt>
      <trkpt lat="48.7305590" lon="1.4150080">
        <ele>67.6</ele>
        <time>2020-07-01T13:04:18Z</time>
      </trkpt>
      <trkpt lat="48.7304520" lon="1.4150200">
        <ele>67.6</ele>
        <time>2020-07-01T13:04:20Z</time>
      </trkpt>
      <trkpt lat="48.7301820" lon="1.4150210">
        <ele>67.6</ele>
        <time>2020-07-01T13:04:25Z</time>
      </trkpt>
      <trkpt lat="48.7297070" lon="1.4149790">
        <ele>67.4</ele>
        <time>2020-07-01T13:04:33Z</time>
      </trkpt>
      <trkpt lat="48.7294840" lon="1.4149510">
        <ele>67.0</ele>
        <time>2020-07-01T13:04:37Z</time>
      </trkpt>
      <trkpt lat="48.7289330" lon="1.4148650">
        <ele>66.6</ele>
        <time>2020-07-01T13:04:47Z</time>
      </trkpt>
      <trkpt lat="48.7286660" lon="1.4148190">
        <ele>66.4</ele>
        <time>2020-07-01T13:04:52Z</time>
      </trkpt>
      <trkpt lat="48.7284100" lon="1.4147720">
        <ele>66.4</ele>
        <time>2020-07-01T13:04:57Z</time>
      </trkpt>
      <trkpt lat="48.7279630" lon="1.4146690">
        <ele>67.2</ele>
        <time>2020-07-01T13:05:06Z</time>
      </trkpt>
      <trkpt lat="48.7276210" lon="1.4145420">
        <ele>67.8</ele>
        <time>2020-07-01T13:05:14Z</time>
      </trkpt>
      <trkpt lat="48.7275570" lon="1.4144720">
        <ele>67.6</ele>
        <time>2020-07-01T13:05:15Z</time>
      </trkpt>
      <trkpt lat="48.7275430" lon="1.4144510">
        <ele>67.8</ele>
        <time>2020-07-01T13:05:16Z</time>
      </trkpt>
      <trkpt lat="48.7275280" lon="1.4144300">
        <ele>67.6</ele>
        <time>2020-07-01T13:05:17Z</time>
      </trkpt>
      <trkpt lat="48.7274430" lon="1.4143330">
        <ele>67.6</ele>
        <time>2020-07-01T13:05:20Z</time>
      </trkpt>
      <trkpt lat="48.7274070" lon="1.4143250">
        <ele>67.6</ele>
        <time>2020-07-01T13:05:21Z</time>
      </trkpt>
      <trkpt lat="48.7272030" lon="1.4143690">
        <ele>68.0</ele>
        <time>2020-07-01T13:05:27Z</time>
      </trkpt>
      <trkpt lat="48.7271670" lon="1.4143820">
        <ele>68.0</ele>
        <time>2020-07-01T13:05:28Z</time>
      </trkpt>
      <trkpt lat="48.7267740" lon="1.4145610">
        <ele>68.2</ele>
        <time>2020-07-01T13:05:37Z</time>
      </trkpt>
      <trkpt lat="48.7263750" lon="1.4148610">
        <ele>67.8</ele>
        <time>2020-07-01T13:05:47Z</time>
      </trkpt>
      <trkpt lat="48.7259730" lon="1.4150410">
        <ele>67.8</ele>
        <time>2020-07-01T13:05:55Z</time>
      </trkpt>
      <trkpt lat="48.7256210" lon="1.4151380">
        <ele>67.6</ele>
        <time>2020-07-01T13:06:02Z</time>
      </trkpt>
      <trkpt lat="48.7252180" lon="1.4152250">
        <ele>67.6</ele>
        <time>2020-07-01T13:06:10Z</time>
      </trkpt>
      <trkpt lat="48.7249210" lon="1.4152680">
        <ele>67.6</ele>
        <time>2020-07-01T13:06:16Z</time>
      </trkpt>
      <trkpt lat="48.7245270" lon="1.4154360">
        <ele>67.6</ele>
        <time>2020-07-01T13:06:26Z</time>
      </trkpt>
      <trkpt lat="48.7240410" lon="1.4156870">
        <ele>67.6</ele>
        <time>2020-07-01T13:06:36Z</time>
      </trkpt>
      <trkpt lat="48.7235950" lon="1.4158560">
        <ele>67.8</ele>
        <time>2020-07-01T13:06:45Z</time>
      </trkpt>
      <trkpt lat="48.7231720" lon="1.4160030">
        <ele>68.2</ele>
        <time>2020-07-01T13:06:54Z</time>
      </trkpt>
      <trkpt lat="48.7231330" lon="1.4160220">
        <ele>68.2</ele>
        <time>2020-07-01T13:06:55Z</time>
      </trkpt>
      <trkpt lat="48.7229660" lon="1.4160970">
        <ele>68.6</ele>
        <time>2020-07-01T13:07:00Z</time>
      </trkpt>
      <trkpt lat="48.7227390" lon="1.4162270">
        <ele>69.2</ele>
        <time>2020-07-01T13:07:09Z</time>
      </trkpt>
      <trkpt lat="48.7224260" lon="1.4164540">
        <ele>69.2</ele>
        <time>2020-07-01T13:07:16Z</time>
      </trkpt>
      <trkpt lat="48.7220810" lon="1.4167360">
        <ele>69.4</ele>
        <time>2020-07-01T13:07:25Z</time>
      </trkpt>
      <trkpt lat="48.7217820" lon="1.4170060">
        <ele>69.2</ele>
        <time>2020-07-01T13:07:33Z</time>
      </trkpt>
      <trkpt lat="48.7213320" lon="1.4173870">
        <ele>69.4</ele>
        <time>2020-07-01T13:07:42Z</time>
      </trkpt>
      <trkpt lat="48.7213320" lon="1.4173870">
        <ele>69.2</ele>
        <time>2020-07-01T13:07:43Z</time>
      </trkpt>
      <trkpt lat="48.7211720" lon="1.4175070">
        <ele>69.2</ele>
        <time>2020-07-01T13:07:48Z</time>
      </trkpt>
      <trkpt lat="48.7210750" lon="1.4175300">
        <ele>69.4</ele>
        <time>2020-07-01T13:07:52Z</time>
      </trkpt>
      <trkpt lat="48.7210650" lon="1.4175510">
        <ele>69.8</ele>
        <time>2020-07-01T13:07:53Z</time>
      </trkpt>
      <trkpt lat="48.7211000" lon="1.4177600">
        <ele>70.6</ele>
        <time>2020-07-01T13:07:58Z</time>
      </trkpt>
      <trkpt lat="48.7212480" lon="1.4182290">
        <ele>71.2</ele>
        <time>2020-07-01T13:08:07Z</time>
      </trkpt>
      <trkpt lat="48.7214400" lon="1.4189770">
        <ele>71.2</ele>
        <time>2020-07-01T13:08:18Z</time>
      </trkpt>
      <trkpt lat="48.7215440" lon="1.4193890">
        <ele>70.8</ele>
        <time>2020-07-01T13:08:24Z</time>
      </trkpt>
      <trkpt lat="48.7215830" lon="1.4195410">
        <ele>70.6</ele>
        <time>2020-07-01T13:08:26Z</time>
      </trkpt>
      <trkpt lat="48.7217130" lon="1.4201020">
        <ele>70.2</ele>
        <time>2020-07-01T13:08:33Z</time>
      </trkpt>
      <trkpt lat="48.7217560" lon="1.4202550">
        <ele>69.8</ele>
        <time>2020-07-01T13:08:36Z</time>
      </trkpt>
      <trkpt lat="48.7219160" lon="1.4209340">
        <ele>69.4</ele>
        <time>2020-07-01T13:08:45Z</time>
      </trkpt>
      <trkpt lat="48.7221070" lon="1.4215470">
        <ele>69.4</ele>
        <time>2020-07-01T13:08:54Z</time>
      </trkpt>
      <trkpt lat="48.7221360" lon="1.4216020">
        <ele>69.2</ele>
        <time>2020-07-01T13:08:55Z</time>
      </trkpt>
      <trkpt lat="48.7221980" lon="1.4216950">
        <ele>69.4</ele>
        <time>2020-07-01T13:08:57Z</time>
      </trkpt>
      <trkpt lat="48.7223050" lon="1.4217840">
        <ele>69.4</ele>
        <time>2020-07-01T13:09:00Z</time>
      </trkpt>
      <trkpt lat="48.7224560" lon="1.4219420">
        <ele>69.2</ele>
        <time>2020-07-01T13:09:05Z</time>
      </trkpt>
      <trkpt lat="48.7227120" lon="1.4222680">
        <ele>69.0</ele>
        <time>2020-07-01T13:09:12Z</time>
      </trkpt>
      <trkpt lat="48.7228480" lon="1.4224890">
        <ele>69.0</ele>
        <time>2020-07-01T13:09:16Z</time>
      </trkpt>
      <trkpt lat="48.7228940" lon="1.4226350">
        <ele>69.0</ele>
        <time>2020-07-01T13:09:18Z</time>
      </trkpt>
      <trkpt lat="48.7229740" lon="1.4229660">
        <ele>68.8</ele>
        <time>2020-07-01T13:09:22Z</time>
      </trkpt>
      <trkpt lat="48.7229940" lon="1.4230490">
        <ele>68.6</ele>
        <time>2020-07-01T13:09:23Z</time>
      </trkpt>
      <trkpt lat="48.7230790" lon="1.4233720">
        <ele>68.6</ele>
        <time>2020-07-01T13:09:27Z</time>
      </trkpt>
      <trkpt lat="48.7232510" lon="1.4239040">
        <ele>68.4</ele>
        <time>2020-07-01T13:09:34Z</time>
      </trkpt>
      <trkpt lat="48.7232800" lon="1.4239750">
        <ele>68.6</ele>
        <time>2020-07-01T13:09:35Z</time>
      </trkpt>
      <trkpt lat="48.7235330" lon="1.4243270">
        <ele>69.2</ele>
        <time>2020-07-01T13:09:41Z</time>
      </trkpt>
      <trkpt lat="48.7236500" lon="1.4245130">
        <ele>69.6</ele>
        <time>2020-07-01T13:09:46Z</time>
      </trkpt>
      <trkpt lat="48.7236530" lon="1.4245640">
        <ele>69.8</ele>
        <time>2020-07-01T13:09:47Z</time>
      </trkpt>
      <trkpt lat="48.7236320" lon="1.4246610">
        <ele>69.6</ele>
        <time>2020-07-01T13:09:48Z</time>
      </trkpt>
      <trkpt lat="48.7236060" lon="1.4246990">
        <ele>69.8</ele>
        <time>2020-07-01T13:09:49Z</time>
      </trkpt>
      <trkpt lat="48.7235270" lon="1.4248000">
        <ele>70.0</ele>
        <time>2020-07-01T13:09:52Z</time>
      </trkpt>
      <trkpt lat="48.7234690" lon="1.4248600">
        <ele>70.4</ele>
        <time>2020-07-01T13:09:55Z</time>
      </trkpt>
      <trkpt lat="48.7232740" lon="1.4251590">
        <ele>72.0</ele>
        <time>2020-07-01T13:10:02Z</time>
      </trkpt>
      <trkpt lat="48.7232740" lon="1.4251590">
        <ele>72.0</ele>
        <time>2020-07-01T13:10:03Z</time>
      </trkpt>
      <trkpt lat="48.7231770" lon="1.4252600">
        <ele>72.2</ele>
        <time>2020-07-01T13:10:05Z</time>
      </trkpt>
      <trkpt lat="48.7231430" lon="1.4253020">
        <ele>72.4</ele>
        <time>2020-07-01T13:10:06Z</time>
      </trkpt>
      <trkpt lat="48.7230490" lon="1.4254400">
        <ele>72.4</ele>
        <time>2020-07-01T13:10:09Z</time>
      </trkpt>
      <trkpt lat="48.7229410" lon="1.4257620">
        <ele>73.0</ele>
        <time>2020-07-01T13:10:17Z</time>
      </trkpt>
      <trkpt lat="48.7229310" lon="1.4258250">
        <ele>73.0</ele>
        <time>2020-07-01T13:10:18Z</time>
      </trkpt>
      <trkpt lat="48.7229090" lon="1.4258390">
        <ele>73.2</ele>
        <time>2020-07-01T13:10:19Z</time>
      </trkpt>
      <trkpt lat="48.7227550" lon="1.4260470">
        <ele>73.6</ele>
        <time>2020-07-01T13:10:22Z</time>
      </trkpt>
      <trkpt lat="48.7226060" lon="1.4262340">
        <ele>73.6</ele>
        <time>2020-07-01T13:10:27Z</time>
      </trkpt>
      <trkpt lat="48.7225600" lon="1.4262810">
        <ele>73.8</ele>
        <time>2020-07-01T13:10:28Z</time>
      </trkpt>
      <trkpt lat="48.7225150" lon="1.4263060">
        <ele>73.8</ele>
        <time>2020-07-01T13:10:29Z</time>
      </trkpt>
      <trkpt lat="48.7222240" lon="1.4265220">
        <ele>73.6</ele>
        <time>2020-07-01T13:10:34Z</time>
      </trkpt>
      <trkpt lat="48.7221040" lon="1.4265860">
        <ele>73.6</ele>
        <time>2020-07-01T13:10:37Z</time>
      </trkpt>
      <trkpt lat="48.7217290" lon="1.4268790">
        <ele>72.4</ele>
        <time>2020-07-01T13:10:44Z</time>
      </trkpt>
      <trkpt lat="48.7214040" lon="1.4272270">
        <ele>71.8</ele>
        <time>2020-07-01T13:10:50Z</time>
      </trkpt>
      <trkpt lat="48.7213180" lon="1.4273340">
        <ele>71.4</ele>
        <time>2020-07-01T13:10:52Z</time>
      </trkpt>
      <trkpt lat="48.7212740" lon="1.4273860">
        <ele>71.4</ele>
        <time>2020-07-01T13:10:53Z</time>
      </trkpt>
      <trkpt lat="48.7208690" lon="1.4278790">
        <ele>70.4</ele>
        <time>2020-07-01T13:11:03Z</time>
      </trkpt>
      <trkpt lat="48.7207330" lon="1.4280740">
        <ele>70.4</ele>
        <time>2020-07-01T13:11:07Z</time>
      </trkpt>
      <trkpt lat="48.7205720" lon="1.4282690">
        <ele>70.0</ele>
        <time>2020-07-01T13:11:12Z</time>
      </trkpt>
      <trkpt lat="48.7205370" lon="1.4283070">
        <ele>70.2</ele>
        <time>2020-07-01T13:11:13Z</time>
      </trkpt>
      <trkpt lat="48.7204710" lon="1.4283870">
        <ele>70.4</ele>
        <time>2020-07-01T13:11:16Z</time>
      </trkpt>
      <trkpt lat="48.7203690" lon="1.4285050">
        <ele>70.6</ele>
        <time>2020-07-01T13:11:19Z</time>
      </trkpt>
      <trkpt lat="48.7202370" lon="1.4286590">
        <ele>70.8</ele>
        <time>2020-07-01T13:11:23Z</time>
      </trkpt>
      <trkpt lat="48.7201120" lon="1.4288030">
        <ele>70.6</ele>
        <time>2020-07-01T13:11:27Z</time>
      </trkpt>
      <trkpt lat="48.7200500" lon="1.4288830">
        <ele>70.8</ele>
        <time>2020-07-01T13:11:29Z</time>
      </trkpt>
      <trkpt lat="48.7200170" lon="1.4289240">
        <ele>70.8</ele>
        <time>2020-07-01T13:11:30Z</time>
      </trkpt>
      <trkpt lat="48.7196520" lon="1.4293220">
        <ele>70.8</ele>
        <time>2020-07-01T13:11:40Z</time>
      </trkpt>
      <trkpt lat="48.7193600" lon="1.4296470">
        <ele>70.8</ele>
        <time>2020-07-01T13:11:47Z</time>
      </trkpt>
      <trkpt lat="48.7193220" lon="1.4296910">
        <ele>70.8</ele>
        <time>2020-07-01T13:11:49Z</time>
      </trkpt>
      <trkpt lat="48.7190220" lon="1.4300490">
        <ele>70.4</ele>
        <time>2020-07-01T13:11:56Z</time>
      </trkpt>
      <trkpt lat="48.7185930" lon="1.4305190">
        <ele>70.2</ele>
        <time>2020-07-01T13:12:04Z</time>
      </trkpt>
      <trkpt lat="48.7183890" lon="1.4307890">
        <ele>70.4</ele>
        <time>2020-07-01T13:12:09Z</time>
      </trkpt>
      <trkpt lat="48.7182410" lon="1.4310200">
        <ele>70.4</ele>
        <time>2020-07-01T13:12:13Z</time>
      </trkpt>
      <trkpt lat="48.7179620" lon="1.4314830">
        <ele>71.0</ele>
        <time>2020-07-01T13:12:22Z</time>
      </trkpt>
      <trkpt lat="48.7179010" lon="1.4316030">
        <ele>71.2</ele>
        <time>2020-07-01T13:12:24Z</time>
      </trkpt>
      <trkpt lat="48.7175590" lon="1.4322140">
        <ele>71.8</ele>
        <time>2020-07-01T13:12:33Z</time>
      </trkpt>
      <trkpt lat="48.7174890" lon="1.4323340">
        <ele>72.0</ele>
        <time>2020-07-01T13:12:35Z</time>
      </trkpt>
      <trkpt lat="48.7170830" lon="1.4328900">
        <ele>72.2</ele>
        <time>2020-07-01T13:12:45Z</time>
      </trkpt>
      <trkpt lat="48.7169930" lon="1.4330010">
        <ele>72.4</ele>
        <time>2020-07-01T13:12:47Z</time>
      </trkpt>
      <trkpt lat="48.7167330" lon="1.4332730">
        <ele>72.2</ele>
        <time>2020-07-01T13:12:52Z</time>
      </trkpt>
      <trkpt lat="48.7166100" lon="1.4333640">
        <ele>72.2</ele>
        <time>2020-07-01T13:12:54Z</time>
      </trkpt>
      <trkpt lat="48.7161130" lon="1.4336130">
        <ele>71.2</ele>
        <time>2020-07-01T13:13:01Z</time>
      </trkpt>
      <trkpt lat="48.7157480" lon="1.4339410">
        <ele>70.0</ele>
        <time>2020-07-01T13:13:07Z</time>
      </trkpt>
      <trkpt lat="48.7153250" lon="1.4344690">
        <ele>69.2</ele>
        <time>2020-07-01T13:13:15Z</time>
      </trkpt>
      <trkpt lat="48.7151200" lon="1.4346850">
        <ele>69.0</ele>
        <time>2020-07-01T13:13:19Z</time>
      </trkpt>
      <trkpt lat="48.7149550" lon="1.4348090">
        <ele>69.0</ele>
        <time>2020-07-01T13:13:22Z</time>
      </trkpt>
      <trkpt lat="48.7147120" lon="1.4349450">
        <ele>69.0</ele>
        <time>2020-07-01T13:13:26Z</time>
      </trkpt>
      <trkpt lat="48.7141880" lon="1.4351660">
        <ele>68.8</ele>
        <time>2020-07-01T13:13:35Z</time>
      </trkpt>
      <trkpt lat="48.7139090" lon="1.4352980">
        <ele>69.0</ele>
        <time>2020-07-01T13:13:40Z</time>
      </trkpt>
      <trkpt lat="48.7137420" lon="1.4353780">
        <ele>69.2</ele>
        <time>2020-07-01T13:13:44Z</time>
      </trkpt>
      <trkpt lat="48.7133750" lon="1.4356340">
        <ele>69.8</ele>
        <time>2020-07-01T13:13:51Z</time>
      </trkpt>
      <trkpt lat="48.7128100" lon="1.4360880">
        <ele>69.8</ele>
        <time>2020-07-01T13:14:01Z</time>
      </trkpt>
      <trkpt lat="48.7128100" lon="1.4360880">
        <ele>69.8</ele>
        <time>2020-07-01T13:14:02Z</time>
      </trkpt>
      <trkpt lat="48.7123400" lon="1.4365070">
        <ele>69.6</ele>
        <time>2020-07-01T13:14:10Z</time>
      </trkpt>
      <trkpt lat="48.7123400" lon="1.4365070">
        <ele>69.8</ele>
        <time>2020-07-01T13:14:11Z</time>
      </trkpt>
      <trkpt lat="48.7121370" lon="1.4367100">
        <ele>70.0</ele>
        <time>2020-07-01T13:14:15Z</time>
      </trkpt>
      <trkpt lat="48.7117470" lon="1.4371200">
        <ele>70.2</ele>
        <time>2020-07-01T13:14:22Z</time>
      </trkpt>
      <trkpt lat="48.7116030" lon="1.4372830">
        <ele>70.4</ele>
        <time>2020-07-01T13:14:25Z</time>
      </trkpt>
      <trkpt lat="48.7116030" lon="1.4372830">
        <ele>70.4</ele>
        <time>2020-07-01T13:14:26Z</time>
      </trkpt>
      <trkpt lat="48.7114010" lon="1.4374710">
        <ele>70.6</ele>
        <time>2020-07-01T13:14:29Z</time>
      </trkpt>
      <trkpt lat="48.7112390" lon="1.4375790">
        <ele>70.8</ele>
        <time>2020-07-01T13:14:32Z</time>
      </trkpt>
      <trkpt lat="48.7109630" lon="1.4377310">
        <ele>70.4</ele>
        <time>2020-07-01T13:14:38Z</time>
      </trkpt>
      <trkpt lat="48.7104610" lon="1.4379790">
        <ele>70.8</ele>
        <time>2020-07-01T13:14:46Z</time>
      </trkpt>
      <trkpt lat="48.7100820" lon="1.4382600">
        <ele>71.0</ele>
        <time>2020-07-01T13:14:53Z</time>
      </trkpt>
      <trkpt lat="48.7096380" lon="1.4386400">
        <ele>71.0</ele>
        <time>2020-07-01T13:15:02Z</time>
      </trkpt>
      <trkpt lat="48.7091780" lon="1.4390290">
        <ele>71.0</ele>
        <time>2020-07-01T13:15:11Z</time>
      </trkpt>
      <trkpt lat="48.7086610" lon="1.4394610">
        <ele>71.0</ele>
        <time>2020-07-01T13:15:21Z</time>
      </trkpt>
      <trkpt lat="48.7082510" lon="1.4398350">
        <ele>70.8</ele>
        <time>2020-07-01T13:15:30Z</time>
      </trkpt>
      <trkpt lat="48.7077890" lon="1.4402830">
        <ele>71.0</ele>
        <time>2020-07-01T13:15:38Z</time>
      </trkpt>
      <trkpt lat="48.7073940" lon="1.4405960">
        <ele>71.0</ele>
        <time>2020-07-01T13:15:46Z</time>
      </trkpt>
      <trkpt lat="48.7070830" lon="1.4408290">
        <ele>70.6</ele>
        <time>2020-07-01T13:15:52Z</time>
      </trkpt>
      <trkpt lat="48.7069160" lon="1.4409380">
        <ele>70.6</ele>
        <time>2020-07-01T13:15:55Z</time>
      </trkpt>
      <trkpt lat="48.7064430" lon="1.4411180">
        <ele>70.2</ele>
        <time>2020-07-01T13:16:03Z</time>
      </trkpt>
      <trkpt lat="48.7062100" lon="1.4411800">
        <ele>70.0</ele>
        <time>2020-07-01T13:16:07Z</time>
      </trkpt>
      <trkpt lat="48.7058660" lon="1.4412990">
        <ele>70.0</ele>
        <time>2020-07-01T13:16:13Z</time>
      </trkpt>
      <trkpt lat="48.7056460" lon="1.4414090">
        <ele>70.6</ele>
        <time>2020-07-01T13:16:18Z</time>
      </trkpt>
      <trkpt lat="48.7053780" lon="1.4415620">
        <ele>70.4</ele>
        <time>2020-07-01T13:16:22Z</time>
      </trkpt>
      <trkpt lat="48.7050140" lon="1.4416970">
        <ele>70.4</ele>
        <time>2020-07-01T13:16:29Z</time>
      </trkpt>
      <trkpt lat="48.7049680" lon="1.4417120">
        <ele>70.6</ele>
        <time>2020-07-01T13:16:30Z</time>
      </trkpt>
      <trkpt lat="48.7046640" lon="1.4418460">
        <ele>70.6</ele>
        <time>2020-07-01T13:16:36Z</time>
      </trkpt>
      <trkpt lat="48.7042210" lon="1.4420960">
        <ele>70.8</ele>
        <time>2020-07-01T13:16:44Z</time>
      </trkpt>
      <trkpt lat="48.7037060" lon="1.4423000">
        <ele>70.8</ele>
        <time>2020-07-01T13:16:54Z</time>
      </trkpt>
      <trkpt lat="48.7033250" lon="1.4424940">
        <ele>71.0</ele>
        <time>2020-07-01T13:17:02Z</time>
      </trkpt>
      <trkpt lat="48.7027880" lon="1.4428440">
        <ele>71.0</ele>
        <time>2020-07-01T13:17:13Z</time>
      </trkpt>
      <trkpt lat="48.7027450" lon="1.4428870">
        <ele>71.0</ele>
        <time>2020-07-01T13:17:14Z</time>
      </trkpt>
      <trkpt lat="48.7025570" lon="1.4431240">
        <ele>71.0</ele>
        <time>2020-07-01T13:17:19Z</time>
      </trkpt>
      <trkpt lat="48.7024680" lon="1.4432420">
        <ele>71.4</ele>
        <time>2020-07-01T13:17:23Z</time>
      </trkpt>
      <trkpt lat="48.7024170" lon="1.4433130">
        <ele>71.4</ele>
        <time>2020-07-01T13:17:25Z</time>
      </trkpt>
      <trkpt lat="48.7023290" lon="1.4435030">
        <ele>71.8</ele>
        <time>2020-07-01T13:17:30Z</time>
      </trkpt>
      <trkpt lat="48.7022030" lon="1.4436690">
        <ele>72.0</ele>
        <time>2020-07-01T13:17:34Z</time>
      </trkpt>
      <trkpt lat="48.7021250" lon="1.4437510">
        <ele>72.0</ele>
        <time>2020-07-01T13:17:36Z</time>
      </trkpt>
      <trkpt lat="48.7020440" lon="1.4438340">
        <ele>72.0</ele>
        <time>2020-07-01T13:17:38Z</time>
      </trkpt>
      <trkpt lat="48.7016960" lon="1.4441940">
        <ele>72.0</ele>
        <time>2020-07-01T13:17:46Z</time>
      </trkpt>
      <trkpt lat="48.7015520" lon="1.4443170">
        <ele>72.0</ele>
        <time>2020-07-01T13:17:49Z</time>
      </trkpt>
      <trkpt lat="48.7013820" lon="1.4444740">
        <ele>72.0</ele>
        <time>2020-07-01T13:17:53Z</time>
      </trkpt>
      <trkpt lat="48.7010300" lon="1.4447640">
        <ele>72.0</ele>
        <time>2020-07-01T13:18:01Z</time>
      </trkpt>
      <trkpt lat="48.7008980" lon="1.4449000">
        <ele>72.0</ele>
        <time>2020-07-01T13:18:04Z</time>
      </trkpt>
      <trkpt lat="48.7005970" lon="1.4451480">
        <ele>71.8</ele>
        <time>2020-07-01T13:18:10Z</time>
      </trkpt>
      <trkpt lat="48.7003800" lon="1.4453020">
        <ele>71.6</ele>
        <time>2020-07-01T13:18:14Z</time>
      </trkpt>
      <trkpt lat="48.7001710" lon="1.4454590">
        <ele>71.4</ele>
        <time>2020-07-01T13:18:18Z</time>
      </trkpt>
      <trkpt lat="48.7001200" lon="1.4455000">
        <ele>71.2</ele>
        <time>2020-07-01T13:18:19Z</time>
      </trkpt>
      <trkpt lat="48.6996220" lon="1.4459290">
        <ele>71.0</ele>
        <time>2020-07-01T13:18:29Z</time>
      </trkpt>
      <trkpt lat="48.6996220" lon="1.4459290">
        <ele>71.0</ele>
        <time>2020-07-01T13:18:30Z</time>
      </trkpt>
      <trkpt lat="48.6993920" lon="1.4461500">
        <ele>71.2</ele>
        <time>2020-07-01T13:18:34Z</time>
      </trkpt>
      <trkpt lat="48.6992960" lon="1.4462250">
        <ele>71.6</ele>
        <time>2020-07-01T13:18:37Z</time>
      </trkpt>
      <trkpt lat="48.6988080" lon="1.4465900">
        <ele>72.4</ele>
        <time>2020-07-01T13:18:46Z</time>
      </trkpt>
      <trkpt lat="48.6987050" lon="1.4466690">
        <ele>72.4</ele>
        <time>2020-07-01T13:18:48Z</time>
      </trkpt>
      <trkpt lat="48.6982120" lon="1.4470770">
        <ele>72.2</ele>
        <time>2020-07-01T13:18:58Z</time>
      </trkpt>
      <trkpt lat="48.6976970" lon="1.4475170">
        <ele>72.4</ele>
        <time>2020-07-01T13:19:09Z</time>
      </trkpt>
      <trkpt lat="48.6976000" lon="1.4476010">
        <ele>72.2</ele>
        <time>2020-07-01T13:19:11Z</time>
      </trkpt>
      <trkpt lat="48.6971690" lon="1.4480030">
        <ele>72.2</ele>
        <time>2020-07-01T13:19:20Z</time>
      </trkpt>
      <trkpt lat="48.6968380" lon="1.4482980">
        <ele>72.4</ele>
        <time>2020-07-01T13:19:27Z</time>
      </trkpt>
      <trkpt lat="48.6967860" lon="1.4483420">
        <ele>72.4</ele>
        <time>2020-07-01T13:19:28Z</time>
      </trkpt>
      <trkpt lat="48.6965970" lon="1.4485090">
        <ele>72.6</ele>
        <time>2020-07-01T13:19:32Z</time>
      </trkpt>
      <trkpt lat="48.6965020" lon="1.4485940">
        <ele>73.0</ele>
        <time>2020-07-01T13:19:35Z</time>
      </trkpt>
      <trkpt lat="48.6960780" lon="1.4488970">
        <ele>73.2</ele>
        <time>2020-07-01T13:19:43Z</time>
      </trkpt>
      <trkpt lat="48.6956860" lon="1.4492290">
        <ele>73.2</ele>
        <time>2020-07-01T13:19:51Z</time>
      </trkpt>
      <trkpt lat="48.6953780" lon="1.4495890">
        <ele>73.4</ele>
        <time>2020-07-01T13:19:57Z</time>
      </trkpt>
      <trkpt lat="48.6952210" lon="1.4497840">
        <ele>73.6</ele>
        <time>2020-07-01T13:20:00Z</time>
      </trkpt>
      <trkpt lat="48.6949550" lon="1.4500780">
        <ele>73.2</ele>
        <time>2020-07-01T13:20:05Z</time>
      </trkpt>
      <trkpt lat="48.6944610" lon="1.4505280">
        <ele>72.0</ele>
        <time>2020-07-01T13:20:14Z</time>
      </trkpt>
      <trkpt lat="48.6943520" lon="1.4506220">
        <ele>72.0</ele>
        <time>2020-07-01T13:20:16Z</time>
      </trkpt>
      <trkpt lat="48.6938740" lon="1.4510310">
        <ele>72.2</ele>
        <time>2020-07-01T13:20:25Z</time>
      </trkpt>
      <trkpt lat="48.6938210" lon="1.4510740">
        <ele>72.4</ele>
        <time>2020-07-01T13:20:26Z</time>
      </trkpt>
      <trkpt lat="48.6933120" lon="1.4514160">
        <ele>72.6</ele>
        <time>2020-07-01T13:20:35Z</time>
      </trkpt>
      <trkpt lat="48.6932530" lon="1.4514490">
        <ele>72.8</ele>
        <time>2020-07-01T13:20:36Z</time>
      </trkpt>
      <trkpt lat="48.6927560" lon="1.4517650">
        <ele>72.8</ele>
        <time>2020-07-01T13:20:45Z</time>
      </trkpt>
      <trkpt lat="48.6926630" lon="1.4518570">
        <ele>72.6</ele>
        <time>2020-07-01T13:20:47Z</time>
      </trkpt>
      <trkpt lat="48.6923270" lon="1.4521870">
        <ele>73.6</ele>
        <time>2020-07-01T13:20:54Z</time>
      </trkpt>
      <trkpt lat="48.6919990" lon="1.4525150">
        <ele>74.2</ele>
        <time>2020-07-01T13:21:01Z</time>
      </trkpt>
      <trkpt lat="48.6918750" lon="1.4526520">
        <ele>74.4</ele>
        <time>2020-07-01T13:21:04Z</time>
      </trkpt>
      <trkpt lat="48.6916750" lon="1.4528950">
        <ele>74.6</ele>
        <time>2020-07-01T13:21:09Z</time>
      </trkpt>
      <trkpt lat="48.6915320" lon="1.4530480">
        <ele>74.4</ele>
        <time>2020-07-01T13:21:12Z</time>
      </trkpt>
      <trkpt lat="48.6913320" lon="1.4532550">
        <ele>74.8</ele>
        <time>2020-07-01T13:21:16Z</time>
      </trkpt>
      <trkpt lat="48.6911420" lon="1.4534740">
        <ele>74.8</ele>
        <time>2020-07-01T13:21:20Z</time>
      </trkpt>
      <trkpt lat="48.6911000" lon="1.4535310">
        <ele>74.6</ele>
        <time>2020-07-01T13:21:21Z</time>
      </trkpt>
      <trkpt lat="48.6908460" lon="1.4538800">
        <ele>74.4</ele>
        <time>2020-07-01T13:21:27Z</time>
      </trkpt>
      <trkpt lat="48.6904980" lon="1.4543200">
        <ele>74.4</ele>
        <time>2020-07-01T13:21:35Z</time>
      </trkpt>
      <trkpt lat="48.6901510" lon="1.4547050">
        <ele>74.0</ele>
        <time>2020-07-01T13:21:43Z</time>
      </trkpt>
      <trkpt lat="48.6897040" lon="1.4551000">
        <ele>74.0</ele>
        <time>2020-07-01T13:21:52Z</time>
      </trkpt>
      <trkpt lat="48.6893310" lon="1.4553580">
        <ele>74.0</ele>
        <time>2020-07-01T13:22:00Z</time>
      </trkpt>
      <trkpt lat="48.6891980" lon="1.4555230">
        <ele>74.0</ele>
        <time>2020-07-01T13:22:05Z</time>
      </trkpt>
      <trkpt lat="48.6889580" lon="1.4558470">
        <ele>73.6</ele>
        <time>2020-07-01T13:22:11Z</time>
      </trkpt>
      <trkpt lat="48.6886900" lon="1.4561750">
        <ele>73.6</ele>
        <time>2020-07-01T13:22:17Z</time>
      </trkpt>
      <trkpt lat="48.6886020" lon="1.4562760">
        <ele>73.6</ele>
        <time>2020-07-01T13:22:19Z</time>
      </trkpt>
      <trkpt lat="48.6884630" lon="1.4564220">
        <ele>73.6</ele>
        <time>2020-07-01T13:22:22Z</time>
      </trkpt>
      <trkpt lat="48.6881810" lon="1.4566960">
        <ele>73.4</ele>
        <time>2020-07-01T13:22:28Z</time>
      </trkpt>
      <trkpt lat="48.6878850" lon="1.4570060">
        <ele>73.4</ele>
        <time>2020-07-01T13:22:34Z</time>
      </trkpt>
      <trkpt lat="48.6876920" lon="1.4572140">
        <ele>73.4</ele>
        <time>2020-07-01T13:22:38Z</time>
      </trkpt>
      <trkpt lat="48.6872240" lon="1.4577260">
        <ele>73.6</ele>
        <time>2020-07-01T13:22:48Z</time>
      </trkpt>
      <trkpt lat="48.6871360" lon="1.4578330">
        <ele>73.6</ele>
        <time>2020-07-01T13:22:50Z</time>
      </trkpt>
      <trkpt lat="48.6868800" lon="1.4581800">
        <ele>73.6</ele>
        <time>2020-07-01T13:22:56Z</time>
      </trkpt>
      <trkpt lat="48.6867510" lon="1.4583720">
        <ele>73.8</ele>
        <time>2020-07-01T13:22:59Z</time>
      </trkpt>
      <trkpt lat="48.6863520" lon="1.4590450">
        <ele>74.0</ele>
        <time>2020-07-01T13:23:10Z</time>
      </trkpt>
      <trkpt lat="48.6862770" lon="1.4591850">
        <ele>74.0</ele>
        <time>2020-07-01T13:23:12Z</time>
      </trkpt>
      <trkpt lat="48.6860580" lon="1.4596210">
        <ele>74.0</ele>
        <time>2020-07-01T13:23:17Z</time>
      </trkpt>
      <trkpt lat="48.6858440" lon="1.4600960">
        <ele>74.0</ele>
        <time>2020-07-01T13:23:23Z</time>
      </trkpt>
      <trkpt lat="48.6855820" lon="1.4608180">
        <ele>73.0</ele>
        <time>2020-07-01T13:23:32Z</time>
      </trkpt>
      <trkpt lat="48.6855820" lon="1.4608180">
        <ele>72.8</ele>
        <time>2020-07-01T13:23:33Z</time>
      </trkpt>
      <trkpt lat="48.6853950" lon="1.4615780">
        <ele>72.8</ele>
        <time>2020-07-01T13:23:41Z</time>
      </trkpt>
      <trkpt lat="48.6852730" lon="1.4620300">
        <ele>73.0</ele>
        <time>2020-07-01T13:23:47Z</time>
      </trkpt>
      <trkpt lat="48.6852120" lon="1.4621780">
        <ele>73.0</ele>
        <time>2020-07-01T13:23:50Z</time>
      </trkpt>
      <trkpt lat="48.6848580" lon="1.4628460">
        <ele>73.2</ele>
        <time>2020-07-01T13:23:59Z</time>
      </trkpt>
      <trkpt lat="48.6847770" lon="1.4629800">
        <ele>73.4</ele>
        <time>2020-07-01T13:24:02Z</time>
      </trkpt>
      <trkpt lat="48.6844100" lon="1.4635890">
        <ele>73.6</ele>
        <time>2020-07-01T13:24:10Z</time>
      </trkpt>
      <trkpt lat="48.6843220" lon="1.4637360">
        <ele>73.6</ele>
        <time>2020-07-01T13:24:12Z</time>
      </trkpt>
      <trkpt lat="48.6841710" lon="1.4639330">
        <ele>73.4</ele>
        <time>2020-07-01T13:24:15Z</time>
      </trkpt>
      <trkpt lat="48.6839600" lon="1.4641940">
        <ele>73.2</ele>
        <time>2020-07-01T13:24:19Z</time>
      </trkpt>
      <trkpt lat="48.6839080" lon="1.4642580">
        <ele>73.0</ele>
        <time>2020-07-01T13:24:20Z</time>
      </trkpt>
      <trkpt lat="48.6834860" lon="1.4647070">
        <ele>72.4</ele>
        <time>2020-07-01T13:24:28Z</time>
      </trkpt>
      <trkpt lat="48.6833860" lon="1.4648130">
        <ele>72.4</ele>
        <time>2020-07-01T13:24:30Z</time>
      </trkpt>
      <trkpt lat="48.6829680" lon="1.4653770">
        <ele>73.0</ele>
        <time>2020-07-01T13:24:39Z</time>
      </trkpt>
      <trkpt lat="48.6826500" lon="1.4659870">
        <ele>73.6</ele>
        <time>2020-07-01T13:24:48Z</time>
      </trkpt>
      <trkpt lat="48.6823640" lon="1.4667050">
        <ele>73.0</ele>
        <time>2020-07-01T13:24:58Z</time>
      </trkpt>
      <trkpt lat="48.6821190" lon="1.4673230">
        <ele>73.2</ele>
        <time>2020-07-01T13:25:08Z</time>
      </trkpt>
      <trkpt lat="48.6820870" lon="1.4673880">
        <ele>73.2</ele>
        <time>2020-07-01T13:25:09Z</time>
      </trkpt>
      <trkpt lat="48.6819970" lon="1.4675750">
        <ele>73.4</ele>
        <time>2020-07-01T13:25:12Z</time>
      </trkpt>
      <trkpt lat="48.6818060" lon="1.4679350">
        <ele>74.0</ele>
        <time>2020-07-01T13:25:17Z</time>
      </trkpt>
      <trkpt lat="48.6817040" lon="1.4681140">
        <ele>74.4</ele>
        <time>2020-07-01T13:25:20Z</time>
      </trkpt>
      <trkpt lat="48.6813690" lon="1.4687570">
        <ele>76.2</ele>
        <time>2020-07-01T13:25:31Z</time>
      </trkpt>
      <trkpt lat="48.6813380" lon="1.4688100">
        <ele>76.2</ele>
        <time>2020-07-01T13:25:32Z</time>
      </trkpt>
      <trkpt lat="48.6813380" lon="1.4688100">
        <ele>76.4</ele>
        <time>2020-07-01T13:25:33Z</time>
      </trkpt>
      <trkpt lat="48.6810740" lon="1.4692850">
        <ele>76.4</ele>
        <time>2020-07-01T13:25:41Z</time>
      </trkpt>
      <trkpt lat="48.6810740" lon="1.4692850">
        <ele>76.4</ele>
        <time>2020-07-01T13:25:42Z</time>
      </trkpt>
      <trkpt lat="48.6807370" lon="1.4698520">
        <ele>75.8</ele>
        <time>2020-07-01T13:25:52Z</time>
      </trkpt>
      <trkpt lat="48.6803560" lon="1.4704980">
        <ele>75.6</ele>
        <time>2020-07-01T13:26:01Z</time>
      </trkpt>
      <trkpt lat="48.6799960" lon="1.4711580">
        <ele>75.6</ele>
        <time>2020-07-01T13:26:11Z</time>
      </trkpt>
      <trkpt lat="48.6799960" lon="1.4711580">
        <ele>75.6</ele>
        <time>2020-07-01T13:26:12Z</time>
      </trkpt>
      <trkpt lat="48.6796880" lon="1.4718320">
        <ele>75.6</ele>
        <time>2020-07-01T13:26:21Z</time>
      </trkpt>
      <trkpt lat="48.6794640" lon="1.4724960">
        <ele>75.6</ele>
        <time>2020-07-01T13:26:30Z</time>
      </trkpt>
      <trkpt lat="48.6792580" lon="1.4731220">
        <ele>75.8</ele>
        <time>2020-07-01T13:26:40Z</time>
      </trkpt>
      <trkpt lat="48.6790040" lon="1.4738720">
        <ele>76.4</ele>
        <time>2020-07-01T13:26:50Z</time>
      </trkpt>
      <trkpt lat="48.6789300" lon="1.4740720">
        <ele>76.8</ele>
        <time>2020-07-01T13:26:53Z</time>
      </trkpt>
      <trkpt lat="48.6788730" lon="1.4742510">
        <ele>76.8</ele>
        <time>2020-07-01T13:26:57Z</time>
      </trkpt>
      <trkpt lat="48.6788130" lon="1.4744740">
        <ele>77.8</ele>
        <time>2020-07-01T13:27:04Z</time>
      </trkpt>
      <trkpt lat="48.6787210" lon="1.4748040">
        <ele>78.0</ele>
        <time>2020-07-01T13:27:11Z</time>
      </trkpt>
      <trkpt lat="48.6785700" lon="1.4752610">
        <ele>78.0</ele>
        <time>2020-07-01T13:27:20Z</time>
      </trkpt>
      <trkpt lat="48.6784800" lon="1.4755000">
        <ele>78.0</ele>
        <time>2020-07-01T13:27:25Z</time>
      </trkpt>
      <trkpt lat="48.6783900" lon="1.4757430">
        <ele>78.0</ele>
        <time>2020-07-01T13:27:29Z</time>
      </trkpt>
      <trkpt lat="48.6783570" lon="1.4758080">
        <ele>78.0</ele>
        <time>2020-07-01T13:27:30Z</time>
      </trkpt>
      <trkpt lat="48.6782830" lon="1.4759200">
        <ele>78.2</ele>
        <time>2020-07-01T13:27:32Z</time>
      </trkpt>
      <trkpt lat="48.6781930" lon="1.4760130">
        <ele>77.4</ele>
        <time>2020-07-01T13:27:34Z</time>
      </trkpt>
      <trkpt lat="48.6780640" lon="1.4761610">
        <ele>76.6</ele>
        <time>2020-07-01T13:27:37Z</time>
      </trkpt>
      <trkpt lat="48.6779940" lon="1.4762920">
        <ele>76.2</ele>
        <time>2020-07-01T13:27:39Z</time>
      </trkpt>
      <trkpt lat="48.6778780" lon="1.4765910">
        <ele>76.0</ele>
        <time>2020-07-01T13:27:43Z</time>
      </trkpt>
      <trkpt lat="48.6778380" lon="1.4767500">
        <ele>75.8</ele>
        <time>2020-07-01T13:27:45Z</time>
      </trkpt>
      <trkpt lat="48.6776580" lon="1.4772410">
        <ele>75.8</ele>
        <time>2020-07-01T13:27:52Z</time>
      </trkpt>
      <trkpt lat="48.6775250" lon="1.4776730">
        <ele>76.0</ele>
        <time>2020-07-01T13:27:58Z</time>
      </trkpt>
      <trkpt lat="48.6773760" lon="1.4782180">
        <ele>75.6</ele>
        <time>2020-07-01T13:28:05Z</time>
      </trkpt>
      <trkpt lat="48.6772430" lon="1.4787580">
        <ele>75.6</ele>
        <time>2020-07-01T13:28:12Z</time>
      </trkpt>
      <trkpt lat="48.6770850" lon="1.4794220">
        <ele>75.8</ele>
        <time>2020-07-01T13:28:21Z</time>
      </trkpt>
      <trkpt lat="48.6769080" lon="1.4801080">
        <ele>76.0</ele>
        <time>2020-07-01T13:28:30Z</time>
      </trkpt>
      <trkpt lat="48.6767310" lon="1.4806900">
        <ele>76.2</ele>
        <time>2020-07-01T13:28:37Z</time>
      </trkpt>
      <trkpt lat="48.6765150" lon="1.4814860">
        <ele>76.2</ele>
        <time>2020-07-01T13:28:47Z</time>
      </trkpt>
      <trkpt lat="48.6764960" lon="1.4815460">
        <ele>76.4</ele>
        <time>2020-07-01T13:28:48Z</time>
      </trkpt>
      <trkpt lat="48.6764360" lon="1.4817390">
        <ele>76.4</ele>
        <time>2020-07-01T13:28:53Z</time>
      </trkpt>
      <trkpt lat="48.6764640" lon="1.4817710">
        <ele>76.6</ele>
        <time>2020-07-01T13:28:58Z</time>
      </trkpt>
      <trkpt lat="48.6765030" lon="1.4817170">
        <ele>77.2</ele>
        <time>2020-07-01T13:29:13Z</time>
      </trkpt>
      <trkpt lat="48.6765080" lon="1.4816860">
        <ele>76.8</ele>
        <time>2020-07-01T13:29:31Z</time>
      </trkpt>
      <trkpt lat="48.6765160" lon="1.4816700">
        <ele>77.0</ele>
        <time>2020-07-01T13:29:48Z</time>
      </trkpt>
      <trkpt lat="48.6765180" lon="1.4816670">
        <ele>77.0</ele>
        <time>2020-07-01T13:29:51Z</time>
      </trkpt>
      <trkpt lat="48.6765240" lon="1.4816550">
        <ele>77.0</ele>
        <time>2020-07-01T13:30:10Z</time>
      </trkpt>
      <trkpt lat="48.6765230" lon="1.4816410">
        <ele>77.0</ele>
        <time>2020-07-01T13:30:31Z</time>
      </trkpt>
      <trkpt lat="48.6765280" lon="1.4816410">
        <ele>76.8</ele>
        <time>2020-07-01T13:30:57Z</time>
      </trkpt>
      <trkpt lat="48.6765280" lon="1.4816350">
        <ele>77.0</ele>
        <time>2020-07-01T13:31:13Z</time>
      </trkpt>
      <trkpt lat="48.6765230" lon="1.4816290">
        <ele>76.8</ele>
        <time>2020-07-01T13:31:27Z</time>
      </trkpt>
      <trkpt lat="48.6765230" lon="1.4816260">
        <ele>76.8</ele>
        <time>2020-07-01T13:31:34Z</time>
      </trkpt>
      <trkpt lat="48.6765250" lon="1.4816240">
        <ele>76.6</ele>
        <time>2020-07-01T13:31:37Z</time>
      </trkpt>
      <trkpt lat="48.6765260" lon="1.4816240">
        <ele>76.8</ele>
        <time>2020-07-01T13:31:38Z</time>
      </trkpt>
      <trkpt lat="48.6765290" lon="1.4816170">
        <ele>76.8</ele>
        <time>2020-07-01T13:31:50Z</time>
      </trkpt>
      <trkpt lat="48.6765420" lon="1.4816190">
        <ele>77.2</ele>
        <time>2020-07-01T13:32:18Z</time>
      </trkpt>
      <trkpt lat="48.6765560" lon="1.4816190">
        <ele>77.2</ele>
        <time>2020-07-01T13:32:40Z</time>
      </trkpt>
      <trkpt lat="48.6765580" lon="1.4816180">
        <ele>77.2</ele>
        <time>2020-07-01T13:32:45Z</time>
      </trkpt>
      <trkpt lat="48.6765590" lon="1.4816180">
        <ele>77.4</ele>
        <time>2020-07-01T13:32:46Z</time>
      </trkpt>
      <trkpt lat="48.6765570" lon="1.4816150">
        <ele>77.4</ele>
        <time>2020-07-01T13:32:48Z</time>
      </trkpt>
      <trkpt lat="48.6765570" lon="1.4816050">
        <ele>77.2</ele>
        <time>2020-07-01T13:32:59Z</time>
      </trkpt>
      <trkpt lat="48.6765600" lon="1.4816200">
        <ele>77.0</ele>
        <time>2020-07-01T13:33:09Z</time>
      </trkpt>
      <trkpt lat="48.6765600" lon="1.4816230">
        <ele>77.2</ele>
        <time>2020-07-01T13:33:10Z</time>
      </trkpt>
      <trkpt lat="48.6765600" lon="1.4816230">
        <ele>77.0</ele>
        <time>2020-07-01T13:33:11Z</time>
      </trkpt>
      <trkpt lat="48.6765620" lon="1.4816220">
        <ele>77.2</ele>
        <time>2020-07-01T13:33:12Z</time>
      </trkpt>
      <trkpt lat="48.6765630" lon="1.4816180">
        <ele>77.2</ele>
        <time>2020-07-01T13:33:15Z</time>
      </trkpt>
      <trkpt lat="48.6766100" lon="1.4816530">
        <ele>77.8</ele>
        <time>2020-07-01T13:33:28Z</time>
      </trkpt>
      <trkpt lat="48.6765810" lon="1.4816530">
        <ele>77.8</ele>
        <time>2020-07-01T13:33:47Z</time>
      </trkpt>
      <trkpt lat="48.6765840" lon="1.4816430">
        <ele>77.4</ele>
        <time>2020-07-01T13:34:12Z</time>
      </trkpt>
      <trkpt lat="48.6765860" lon="1.4816390">
        <ele>77.6</ele>
        <time>2020-07-01T13:34:38Z</time>
      </trkpt>
      <trkpt lat="48.6765860" lon="1.4816390">
        <ele>77.4</ele>
        <time>2020-07-01T13:34:44Z</time>
      </trkpt>
      <trkpt lat="48.6765860" lon="1.4816390">
        <ele>77.4</ele>
        <time>2020-07-01T13:34:45Z</time>
      </trkpt>
      <trkpt lat="48.6765860" lon="1.4816390">
        <ele>77.4</ele>
        <time>2020-07-01T13:34:47Z</time>
      </trkpt>
      <trkpt lat="48.6765560" lon="1.4816250">
        <ele>77.2</ele>
        <time>2020-07-01T13:35:04Z</time>
      </trkpt>
      <trkpt lat="48.6765530" lon="1.4816140">
        <ele>77.0</ele>
        <time>2020-07-01T13:35:21Z</time>
      </trkpt>
      <trkpt lat="48.6765510" lon="1.4816040">
        <ele>76.8</ele>
        <time>2020-07-01T13:35:45Z</time>
      </trkpt>
      <trkpt lat="48.6765590" lon="1.4816150">
        <ele>76.8</ele>
        <time>2020-07-01T13:36:08Z</time>
      </trkpt>
      <trkpt lat="48.6765690" lon="1.4816210">
        <ele>76.6</ele>
        <time>2020-07-01T13:36:25Z</time>
      </trkpt>
      <trkpt lat="48.6765690" lon="1.4816210">
        <ele>76.6</ele>
        <time>2020-07-01T13:36:26Z</time>
      </trkpt>
      <trkpt lat="48.6765690" lon="1.4816210">
        <ele>76.6</ele>
        <time>2020-07-01T13:36:27Z</time>
      </trkpt>
      <trkpt lat="48.6765700" lon="1.4816230">
        <ele>76.6</ele>
        <time>2020-07-01T13:36:30Z</time>
      </trkpt>
      <trkpt lat="48.6765700" lon="1.4816230">
        <ele>76.6</ele>
        <time>2020-07-01T13:36:31Z</time>
      </trkpt>
      <trkpt lat="48.6765700" lon="1.4816240">
        <ele>76.6</ele>
        <time>2020-07-01T13:36:32Z</time>
      </trkpt>
      <trkpt lat="48.6765750" lon="1.4816240">
        <ele>76.4</ele>
        <time>2020-07-01T13:36:47Z</time>
      </trkpt>
      <trkpt lat="48.6765730" lon="1.4816420">
        <ele>76.4</ele>
        <time>2020-07-01T13:36:54Z</time>
      </trkpt>
      <trkpt lat="48.6765760" lon="1.4816420">
        <ele>76.4</ele>
        <time>2020-07-01T13:36:58Z</time>
      </trkpt>
      <trkpt lat="48.6765780" lon="1.4816430">
        <ele>76.4</ele>
        <time>2020-07-01T13:36:59Z</time>
      </trkpt>
      <trkpt lat="48.6765730" lon="1.4816360">
        <ele>76.2</ele>
        <time>2020-07-01T13:37:01Z</time>
      </trkpt>
      <trkpt lat="48.6765660" lon="1.4816330">
        <ele>76.4</ele>
        <time>2020-07-01T13:37:05Z</time>
      </trkpt>
      <trkpt lat="48.6765650" lon="1.4816340">
        <ele>76.4</ele>
        <time>2020-07-01T13:37:06Z</time>
      </trkpt>
      <trkpt lat="48.6765630" lon="1.4816380">
        <ele>76.4</ele>
        <time>2020-07-01T13:37:10Z</time>
      </trkpt>
      <trkpt lat="48.6765550" lon="1.4816310">
        <ele>76.2</ele>
        <time>2020-07-01T13:37:14Z</time>
      </trkpt>
      <trkpt lat="48.6765530" lon="1.4816270">
        <ele>76.2</ele>
        <time>2020-07-01T13:37:16Z</time>
      </trkpt>
      <trkpt lat="48.6765490" lon="1.4816360">
        <ele>76.2</ele>
        <time>2020-07-01T13:37:17Z</time>
      </trkpt>
      <trkpt lat="48.6765470" lon="1.4816390">
        <ele>76.2</ele>
        <time>2020-07-01T13:37:18Z</time>
      </trkpt>
      <trkpt lat="48.6765140" lon="1.4816170">
        <ele>76.2</ele>
        <time>2020-07-01T13:37:33Z</time>
      </trkpt>
      <trkpt lat="48.6765150" lon="1.4816160">
        <ele>76.4</ele>
        <time>2020-07-01T13:37:34Z</time>
      </trkpt>
      <trkpt lat="48.6765160" lon="1.4816170">
        <ele>76.4</ele>
        <time>2020-07-01T13:37:35Z</time>
      </trkpt>
      <trkpt lat="48.6765170" lon="1.4816170">
        <ele>76.4</ele>
        <time>2020-07-01T13:37:36Z</time>
      </trkpt>
      <trkpt lat="48.6765250" lon="1.4816220">
        <ele>76.2</ele>
        <time>2020-07-01T13:37:46Z</time>
      </trkpt>
      <trkpt lat="48.6765270" lon="1.4816250">
        <ele>76.2</ele>
        <time>2020-07-01T13:37:47Z</time>
      </trkpt>
      <trkpt lat="48.6765290" lon="1.4816270">
        <ele>76.2</ele>
        <time>2020-07-01T13:37:48Z</time>
      </trkpt>
      <trkpt lat="48.6765300" lon="1.4816290">
        <ele>76.2</ele>
        <time>2020-07-01T13:37:49Z</time>
      </trkpt>
      <trkpt lat="48.6765300" lon="1.4816290">
        <ele>76.2</ele>
        <time>2020-07-01T13:37:50Z</time>
      </trkpt>
      <trkpt lat="48.6765310" lon="1.4816290">
        <ele>76.4</ele>
        <time>2020-07-01T13:37:51Z</time>
      </trkpt>
      <trkpt lat="48.6765550" lon="1.4816500">
        <ele>76.4</ele>
        <time>2020-07-01T13:38:04Z</time>
      </trkpt>
      <trkpt lat="48.6765550" lon="1.4816470">
        <ele>76.4</ele>
        <time>2020-07-01T13:38:05Z</time>
      </trkpt>
      <trkpt lat="48.6765550" lon="1.4816440">
        <ele>76.2</ele>
        <time>2020-07-01T13:38:06Z</time>
      </trkpt>
      <trkpt lat="48.6765460" lon="1.4816230">
        <ele>76.4</ele>
        <time>2020-07-01T13:38:12Z</time>
      </trkpt>
      <trkpt lat="48.6765480" lon="1.4816240">
        <ele>76.4</ele>
        <time>2020-07-01T13:38:14Z</time>
      </trkpt>
      <trkpt lat="48.6765570" lon="1.4816380">
        <ele>76.4</ele>
        <time>2020-07-01T13:38:17Z</time>
      </trkpt>
      <trkpt lat="48.6765700" lon="1.4816630">
        <ele>76.4</ele>
        <time>2020-07-01T13:38:22Z</time>
      </trkpt>
      <trkpt lat="48.6765240" lon="1.4816780">
        <ele>76.2</ele>
        <time>2020-07-01T13:38:40Z</time>
      </trkpt>
      <trkpt lat="48.6765540" lon="1.4816710">
        <ele>76.2</ele>
        <time>2020-07-01T13:38:53Z</time>
      </trkpt>
      <trkpt lat="48.6765010" lon="1.4817060">
        <ele>76.2</ele>
        <time>2020-07-01T13:39:06Z</time>
      </trkpt>
      <trkpt lat="48.6763990" lon="1.4816660">
        <ele>76.4</ele>
        <time>2020-07-01T13:39:23Z</time>
      </trkpt>
      <trkpt lat="48.6763960" lon="1.4816590">
        <ele>76.6</ele>
        <time>2020-07-01T13:39:30Z</time>
      </trkpt>
      <trkpt lat="48.6763910" lon="1.4816500">
        <ele>76.4</ele>
        <time>2020-07-01T13:39:32Z</time>
      </trkpt>
      <trkpt lat="48.6763960" lon="1.4816470">
        <ele>76.4</ele>
        <time>2020-07-01T13:39:36Z</time>
      </trkpt>
      <trkpt lat="48.6763970" lon="1.4816610">
        <ele>75.8</ele>
        <time>2020-07-01T13:39:52Z</time>
      </trkpt>
      <trkpt lat="48.6763870" lon="1.4817200">
        <ele>76.0</ele>
        <time>2020-07-01T13:40:06Z</time>
      </trkpt>
      <trkpt lat="48.6763620" lon="1.4816940">
        <ele>76.2</ele>
        <time>2020-07-01T13:40:23Z</time>
      </trkpt>
      <trkpt lat="48.6763950" lon="1.4816710">
        <ele>76.2</ele>
        <time>2020-07-01T13:40:39Z</time>
      </trkpt>
      <trkpt lat="48.6764090" lon="1.4816950">
        <ele>76.0</ele>
        <time>2020-07-01T13:40:50Z</time>
      </trkpt>
      <trkpt lat="48.6764490" lon="1.4816650">
        <ele>75.8</ele>
        <time>2020-07-01T13:41:07Z</time>
      </trkpt>
      <trkpt lat="48.6764200" lon="1.4815860">
        <ele>76.0</ele>
        <time>2020-07-01T13:41:25Z</time>
      </trkpt>
      <trkpt lat="48.6763880" lon="1.4816180">
        <ele>76.0</ele>
        <time>2020-07-01T13:41:38Z</time>
      </trkpt>
      <trkpt lat="48.6764690" lon="1.4817020">
        <ele>76.0</ele>
        <time>2020-07-01T13:41:55Z</time>
      </trkpt>
      <trkpt lat="48.6764970" lon="1.4817150">
        <ele>75.8</ele>
        <time>2020-07-01T13:42:08Z</time>
      </trkpt>
      <trkpt lat="48.6765190" lon="1.4816840">
        <ele>75.6</ele>
        <time>2020-07-01T13:42:21Z</time>
      </trkpt>
      <trkpt lat="48.6765280" lon="1.4816530">
        <ele>75.4</ele>
        <time>2020-07-01T13:42:37Z</time>
      </trkpt>
      <trkpt lat="48.6764720" lon="1.4816260">
        <ele>75.4</ele>
        <time>2020-07-01T13:42:51Z</time>
      </trkpt>
      <trkpt lat="48.6764870" lon="1.4816190">
        <ele>75.4</ele>
        <time>2020-07-01T13:43:06Z</time>
      </trkpt>
      <trkpt lat="48.6764740" lon="1.4816200">
        <ele>75.4</ele>
        <time>2020-07-01T13:43:24Z</time>
      </trkpt>
      <trkpt lat="48.6764920" lon="1.4816400">
        <ele>75.6</ele>
        <time>2020-07-01T13:43:40Z</time>
      </trkpt>
      <trkpt lat="48.6765360" lon="1.4816590">
        <ele>75.6</ele>
        <time>2020-07-01T13:43:55Z</time>
      </trkpt>
      <trkpt lat="48.6764720" lon="1.4817200">
        <ele>75.6</ele>
        <time>2020-07-01T13:44:11Z</time>
      </trkpt>
      <trkpt lat="48.6764200" lon="1.4817200">
        <ele>75.8</ele>
        <time>2020-07-01T13:44:28Z</time>
      </trkpt>
      <trkpt lat="48.6764920" lon="1.4817660">
        <ele>75.6</ele>
        <time>2020-07-01T13:44:36Z</time>
      </trkpt>
      <trkpt lat="48.6765010" lon="1.4817840">
        <ele>75.6</ele>
        <time>2020-07-01T13:44:42Z</time>
      </trkpt>
      <trkpt lat="48.6764060" lon="1.4817070">
        <ele>75.8</ele>
        <time>2020-07-01T13:44:56Z</time>
      </trkpt>
      <trkpt lat="48.6762160" lon="1.4816270">
        <ele>75.6</ele>
        <time>2020-07-01T13:45:09Z</time>
      </trkpt>
      <trkpt lat="48.6762110" lon="1.4816380">
        <ele>75.8</ele>
        <time>2020-07-01T13:45:25Z</time>
      </trkpt>
      <trkpt lat="48.6762130" lon="1.4816080">
        <ele>75.8</ele>
        <time>2020-07-01T13:45:42Z</time>
      </trkpt>
      <trkpt lat="48.6762240" lon="1.4816120">
        <ele>75.8</ele>
        <time>2020-07-01T13:45:58Z</time>
      </trkpt>
      <trkpt lat="48.6761990" lon="1.4816240">
        <ele>75.8</ele>
        <time>2020-07-01T13:46:14Z</time>
      </trkpt>
      <trkpt lat="48.6762860" lon="1.4816720">
        <ele>76.0</ele>
        <time>2020-07-01T13:46:26Z</time>
      </trkpt>
      <trkpt lat="48.6763550" lon="1.4816390">
        <ele>76.0</ele>
        <time>2020-07-01T13:46:41Z</time>
      </trkpt>
      <trkpt lat="48.6763990" lon="1.4816510">
        <ele>76.0</ele>
        <time>2020-07-01T13:46:55Z</time>
      </trkpt>
      <trkpt lat="48.6763240" lon="1.4816780">
        <ele>76.0</ele>
        <time>2020-07-01T13:47:06Z</time>
      </trkpt>
      <trkpt lat="48.6763830" lon="1.4817000">
        <ele>76.0</ele>
        <time>2020-07-01T13:47:22Z</time>
      </trkpt>
      <trkpt lat="48.6764020" lon="1.4817060">
        <ele>75.8</ele>
        <time>2020-07-01T13:47:39Z</time>
      </trkpt>
      <trkpt lat="48.6764150" lon="1.4817040">
        <ele>75.8</ele>
        <time>2020-07-01T13:47:54Z</time>
      </trkpt>
      <trkpt lat="48.6764410" lon="1.4816790">
        <ele>75.8</ele>
        <time>2020-07-01T13:48:11Z</time>
      </trkpt>
      <trkpt lat="48.6764810" lon="1.4816810">
        <ele>75.8</ele>
        <time>2020-07-01T13:48:24Z</time>
      </trkpt>
      <trkpt lat="48.6764170" lon="1.4816800">
        <ele>76.0</ele>
        <time>2020-07-01T13:48:32Z</time>
      </trkpt>
      <trkpt lat="48.6764170" lon="1.4816800">
        <ele>76.0</ele>
        <time>2020-07-01T13:48:33Z</time>
      </trkpt>
      <trkpt lat="48.6764200" lon="1.4816820">
        <ele>76.0</ele>
        <time>2020-07-01T13:48:34Z</time>
      </trkpt>
      <trkpt lat="48.6764090" lon="1.4816760">
        <ele>76.2</ele>
        <time>2020-07-01T13:48:35Z</time>
      </trkpt>
      <trkpt lat="48.6764010" lon="1.4816620">
        <ele>76.2</ele>
        <time>2020-07-01T13:48:42Z</time>
      </trkpt>
      <trkpt lat="48.6764160" lon="1.4816580">
        <ele>76.0</ele>
        <time>2020-07-01T13:48:44Z</time>
      </trkpt>
      <trkpt lat="48.6764270" lon="1.4816580">
        <ele>76.0</ele>
        <time>2020-07-01T13:48:45Z</time>
      </trkpt>
      <trkpt lat="48.6764790" lon="1.4816460">
        <ele>76.0</ele>
        <time>2020-07-01T13:48:50Z</time>
      </trkpt>
      <trkpt lat="48.6764810" lon="1.4816480">
        <ele>76.0</ele>
        <time>2020-07-01T13:48:51Z</time>
      </trkpt>
      <trkpt lat="48.6764740" lon="1.4816430">
        <ele>76.2</ele>
        <time>2020-07-01T13:49:04Z</time>
      </trkpt>
      <trkpt lat="48.6764750" lon="1.4816400">
        <ele>76.0</ele>
        <time>2020-07-01T13:49:06Z</time>
      </trkpt>
      <trkpt lat="48.6763850" lon="1.4816410">
        <ele>76.0</ele>
        <time>2020-07-01T13:49:15Z</time>
      </trkpt>
      <trkpt lat="48.6763880" lon="1.4816380">
        <ele>76.2</ele>
        <time>2020-07-01T13:49:17Z</time>
      </trkpt>
      <trkpt lat="48.6763910" lon="1.4816360">
        <ele>76.2</ele>
        <time>2020-07-01T13:49:18Z</time>
      </trkpt>
      <trkpt lat="48.6763980" lon="1.4816370">
        <ele>76.0</ele>
        <time>2020-07-01T13:49:20Z</time>
      </trkpt>
      <trkpt lat="48.6764020" lon="1.4816360">
        <ele>76.0</ele>
        <time>2020-07-01T13:49:21Z</time>
      </trkpt>
      <trkpt lat="48.6764080" lon="1.4816340">
        <ele>76.0</ele>
        <time>2020-07-01T13:49:22Z</time>
      </trkpt>
      <trkpt lat="48.6764090" lon="1.4816280">
        <ele>76.2</ele>
        <time>2020-07-01T13:49:23Z</time>
      </trkpt>
      <trkpt lat="48.6763970" lon="1.4816200">
        <ele>76.0</ele>
        <time>2020-07-01T13:49:26Z</time>
      </trkpt>
      <trkpt lat="48.6763760" lon="1.4816110">
        <ele>76.0</ele>
        <time>2020-07-01T13:49:29Z</time>
      </trkpt>
      <trkpt lat="48.6763840" lon="1.4816320">
        <ele>76.0</ele>
        <time>2020-07-01T13:49:42Z</time>
      </trkpt>
      <trkpt lat="48.6763960" lon="1.4816600">
        <ele>76.0</ele>
        <time>2020-07-01T13:49:56Z</time>
      </trkpt>
      <trkpt lat="48.6764540" lon="1.4816650">
        <ele>76.2</ele>
        <time>2020-07-01T13:50:11Z</time>
      </trkpt>
      <trkpt lat="48.6765380" lon="1.4816810">
        <ele>75.8</ele>
        <time>2020-07-01T13:50:26Z</time>
      </trkpt>
      <trkpt lat="48.6765220" lon="1.4817060">
        <ele>75.8</ele>
        <time>2020-07-01T13:50:38Z</time>
      </trkpt>
      <trkpt lat="48.6765330" lon="1.4817090">
        <ele>76.0</ele>
        <time>2020-07-01T13:50:59Z</time>
      </trkpt>
      <trkpt lat="48.6765220" lon="1.4817230">
        <ele>76.0</ele>
        <time>2020-07-01T13:51:25Z</time>
      </trkpt>
      <trkpt lat="48.6764980" lon="1.4817610">
        <ele>76.0</ele>
        <time>2020-07-01T13:51:28Z</time>
      </trkpt>
      <trkpt lat="48.6764520" lon="1.4818600">
        <ele>76.0</ele>
        <time>2020-07-01T13:51:34Z</time>
      </trkpt>
      <trkpt lat="48.6763450" lon="1.4820630">
        <ele>76.4</ele>
        <time>2020-07-01T13:51:42Z</time>
      </trkpt>
      <trkpt lat="48.6761490" lon="1.4821080">
        <ele>76.2</ele>
        <time>2020-07-01T13:51:48Z</time>
      </trkpt>
      <trkpt lat="48.6759020" lon="1.4821610">
        <ele>75.4</ele>
        <time>2020-07-01T13:51:55Z</time>
      </trkpt>
      <trkpt lat="48.6757080" lon="1.4823960">
        <ele>75.2</ele>
        <time>2020-07-01T13:52:01Z</time>
      </trkpt>
      <trkpt lat="48.6756830" lon="1.4824500">
        <ele>75.2</ele>
        <time>2020-07-01T13:52:02Z</time>
      </trkpt>
      <trkpt lat="48.6755520" lon="1.4829860">
        <ele>75.0</ele>
        <time>2020-07-01T13:52:10Z</time>
      </trkpt>
      <trkpt lat="48.6753960" lon="1.4835020">
        <ele>74.8</ele>
        <time>2020-07-01T13:52:18Z</time>
      </trkpt>
      <trkpt lat="48.6751790" lon="1.4840910">
        <ele>74.6</ele>
        <time>2020-07-01T13:52:28Z</time>
      </trkpt>
      <trkpt lat="48.6749410" lon="1.4847140">
        <ele>74.6</ele>
        <time>2020-07-01T13:52:38Z</time>
      </trkpt>
      <trkpt lat="48.6747310" lon="1.4853540">
        <ele>74.6</ele>
        <time>2020-07-01T13:52:48Z</time>
      </trkpt>
      <trkpt lat="48.6745140" lon="1.4861600">
        <ele>74.2</ele>
        <time>2020-07-01T13:53:00Z</time>
      </trkpt>
      <trkpt lat="48.6743050" lon="1.4869500">
        <ele>74.6</ele>
        <time>2020-07-01T13:53:12Z</time>
      </trkpt>
      <trkpt lat="48.6740740" lon="1.4877700">
        <ele>74.6</ele>
        <time>2020-07-01T13:53:24Z</time>
      </trkpt>
      <trkpt lat="48.6738930" lon="1.4882170">
        <ele>74.6</ele>
        <time>2020-07-01T13:53:31Z</time>
      </trkpt>
      <trkpt lat="48.6736870" lon="1.4886270">
        <ele>74.4</ele>
        <time>2020-07-01T13:53:38Z</time>
      </trkpt>
      <trkpt lat="48.6734680" lon="1.4891140">
        <ele>74.6</ele>
        <time>2020-07-01T13:53:46Z</time>
      </trkpt>
      <trkpt lat="48.6731900" lon="1.4897360">
        <ele>75.2</ele>
        <time>2020-07-01T13:53:56Z</time>
      </trkpt>
      <trkpt lat="48.6728550" lon="1.4904010">
        <ele>75.0</ele>
        <time>2020-07-01T13:54:07Z</time>
      </trkpt>
      <trkpt lat="48.6728230" lon="1.4904580">
        <ele>74.8</ele>
        <time>2020-07-01T13:54:08Z</time>
      </trkpt>
      <trkpt lat="48.6725390" lon="1.4909660">
        <ele>74.4</ele>
        <time>2020-07-01T13:54:17Z</time>
      </trkpt>
      <trkpt lat="48.6723460" lon="1.4912970">
        <ele>74.2</ele>
        <time>2020-07-01T13:54:23Z</time>
      </trkpt>
      <trkpt lat="48.6720810" lon="1.4917390">
        <ele>74.0</ele>
        <time>2020-07-01T13:54:31Z</time>
      </trkpt>
      <trkpt lat="48.6719140" lon="1.4920060">
        <ele>73.4</ele>
        <time>2020-07-01T13:54:36Z</time>
      </trkpt>
      <trkpt lat="48.6718490" lon="1.4921180">
        <ele>73.4</ele>
        <time>2020-07-01T13:54:38Z</time>
      </trkpt>
      <trkpt lat="48.6714910" lon="1.4927500">
        <ele>73.2</ele>
        <time>2020-07-01T13:54:49Z</time>
      </trkpt>
      <trkpt lat="48.6714610" lon="1.4928110">
        <ele>73.2</ele>
        <time>2020-07-01T13:54:50Z</time>
      </trkpt>
      <trkpt lat="48.6712050" lon="1.4933970">
        <ele>73.8</ele>
        <time>2020-07-01T13:54:59Z</time>
      </trkpt>
      <trkpt lat="48.6711560" lon="1.4935290">
        <ele>73.8</ele>
        <time>2020-07-01T13:55:01Z</time>
      </trkpt>
      <trkpt lat="48.6709360" lon="1.4943060">
        <ele>74.4</ele>
        <time>2020-07-01T13:55:12Z</time>
      </trkpt>
      <trkpt lat="48.6707330" lon="1.4950640">
        <ele>74.2</ele>
        <time>2020-07-01T13:55:23Z</time>
      </trkpt>
      <trkpt lat="48.6707210" lon="1.4951320">
        <ele>74.2</ele>
        <time>2020-07-01T13:55:24Z</time>
      </trkpt>
      <trkpt lat="48.6706570" lon="1.4954080">
        <ele>74.2</ele>
        <time>2020-07-01T13:55:28Z</time>
      </trkpt>
      <trkpt lat="48.6706040" lon="1.4956250">
        <ele>74.2</ele>
        <time>2020-07-01T13:55:31Z</time>
      </trkpt>
      <trkpt lat="48.6704630" lon="1.4961740">
        <ele>74.2</ele>
        <time>2020-07-01T13:55:39Z</time>
      </trkpt>
      <trkpt lat="48.6704100" lon="1.4963600">
        <ele>74.0</ele>
        <time>2020-07-01T13:55:42Z</time>
      </trkpt>
      <trkpt lat="48.6702820" lon="1.4967690">
        <ele>73.8</ele>
        <time>2020-07-01T13:55:48Z</time>
      </trkpt>
      <trkpt lat="48.6700350" lon="1.4974340">
        <ele>74.4</ele>
        <time>2020-07-01T13:55:58Z</time>
      </trkpt>
      <trkpt lat="48.6699140" lon="1.4977450">
        <ele>74.4</ele>
        <time>2020-07-01T13:56:03Z</time>
      </trkpt>
      <trkpt lat="48.6698230" lon="1.4979770">
        <ele>74.6</ele>
        <time>2020-07-01T13:56:07Z</time>
      </trkpt>
      <trkpt lat="48.6696300" lon="1.4983010">
        <ele>74.8</ele>
        <time>2020-07-01T13:56:13Z</time>
      </trkpt>
      <trkpt lat="48.6694500" lon="1.4985980">
        <ele>75.2</ele>
        <time>2020-07-01T13:56:19Z</time>
      </trkpt>
      <trkpt lat="48.6693820" lon="1.4987130">
        <ele>75.4</ele>
        <time>2020-07-01T13:56:22Z</time>
      </trkpt>
      <trkpt lat="48.6693180" lon="1.4987910">
        <ele>75.2</ele>
        <time>2020-07-01T13:56:25Z</time>
      </trkpt>
      <trkpt lat="48.6692660" lon="1.4988020">
        <ele>75.6</ele>
        <time>2020-07-01T13:56:27Z</time>
      </trkpt>
      <trkpt lat="48.6691400" lon="1.4986900">
        <ele>76.4</ele>
        <time>2020-07-01T13:56:32Z</time>
      </trkpt>
      <trkpt lat="48.6690150" lon="1.4985060">
        <ele>76.6</ele>
        <time>2020-07-01T13:56:39Z</time>
      </trkpt>
      <trkpt lat="48.6690490" lon="1.4985730">
        <ele>76.8</ele>
        <time>2020-07-01T13:56:46Z</time>
      </trkpt>
      <trkpt lat="48.6690920" lon="1.4986460">
        <ele>76.8</ele>
        <time>2020-07-01T13:56:57Z</time>
      </trkpt>
      <trkpt lat="48.6690990" lon="1.4986510">
        <ele>77.2</ele>
        <time>2020-07-01T13:57:25Z</time>
      </trkpt>
      <trkpt lat="48.6691160" lon="1.4986160">
        <ele>77.0</ele>
        <time>2020-07-01T13:57:53Z</time>
      </trkpt>
      <trkpt lat="48.6690950" lon="1.4985730">
        <ele>77.0</ele>
        <time>2020-07-01T13:57:56Z</time>
      </trkpt>
      <trkpt lat="48.6690460" lon="1.4984860">
        <ele>77.0</ele>
        <time>2020-07-01T13:58:00Z</time>
      </trkpt>
      <trkpt lat="48.6689730" lon="1.4983730">
        <ele>76.8</ele>
        <time>2020-07-01T13:58:04Z</time>
      </trkpt>
      <trkpt lat="48.6688560" lon="1.4982150">
        <ele>76.6</ele>
        <time>2020-07-01T13:58:10Z</time>
      </trkpt>
      <trkpt lat="48.6686680" lon="1.4980000">
        <ele>76.0</ele>
        <time>2020-07-01T13:58:17Z</time>
      </trkpt>
      <trkpt lat="48.6685610" lon="1.4978730">
        <ele>76.0</ele>
        <time>2020-07-01T13:58:20Z</time>
      </trkpt>
      <trkpt lat="48.6684880" lon="1.4977800">
        <ele>76.2</ele>
        <time>2020-07-01T13:58:22Z</time>
      </trkpt>
      <trkpt lat="48.6683400" lon="1.4975810">
        <ele>76.0</ele>
        <time>2020-07-01T13:58:26Z</time>
      </trkpt>
      <trkpt lat="48.6679290" lon="1.4970480">
        <ele>75.4</ele>
        <time>2020-07-01T13:58:37Z</time>
      </trkpt>
      <trkpt lat="48.6678260" lon="1.4969130">
        <ele>75.4</ele>
        <time>2020-07-01T13:58:40Z</time>
      </trkpt>
      <trkpt lat="48.6673560" lon="1.4964430">
        <ele>75.4</ele>
        <time>2020-07-01T13:58:52Z</time>
      </trkpt>
      <trkpt lat="48.6669990" lon="1.4962630">
        <ele>75.8</ele>
        <time>2020-07-01T13:59:00Z</time>
      </trkpt>
      <trkpt lat="48.6665660" lon="1.4961730">
        <ele>76.0</ele>
        <time>2020-07-01T13:59:09Z</time>
      </trkpt>
      <trkpt lat="48.6661720" lon="1.4962420">
        <ele>76.0</ele>
        <time>2020-07-01T13:59:17Z</time>
      </trkpt>
      <trkpt lat="48.6658820" lon="1.4964380">
        <ele>75.6</ele>
        <time>2020-07-01T13:59:23Z</time>
      </trkpt>
      <trkpt lat="48.6657950" lon="1.4965270">
        <ele>75.2</ele>
        <time>2020-07-01T13:59:25Z</time>
      </trkpt>
      <trkpt lat="48.6654290" lon="1.4968990">
        <ele>75.2</ele>
        <time>2020-07-01T13:59:34Z</time>
      </trkpt>
      <trkpt lat="48.6653560" lon="1.4969820">
        <ele>75.0</ele>
        <time>2020-07-01T13:59:36Z</time>
      </trkpt>
      <trkpt lat="48.6652480" lon="1.4970950">
        <ele>75.0</ele>
        <time>2020-07-01T13:59:39Z</time>
      </trkpt>
      <trkpt lat="48.6651090" lon="1.4972400">
        <ele>75.2</ele>
        <time>2020-07-01T13:59:43Z</time>
      </trkpt>
      <trkpt lat="48.6648040" lon="1.4976900">
        <ele>75.4</ele>
        <time>2020-07-01T13:59:53Z</time>
      </trkpt>
      <trkpt lat="48.6647240" lon="1.4978620">
        <ele>75.6</ele>
        <time>2020-07-01T13:59:56Z</time>
      </trkpt>
      <trkpt lat="48.6646620" lon="1.4980630">
        <ele>75.8</ele>
        <time>2020-07-01T13:59:59Z</time>
      </trkpt>
      <trkpt lat="48.6645520" lon="1.4986150">
        <ele>75.8</ele>
        <time>2020-07-01T14:00:07Z</time>
      </trkpt>
      <trkpt lat="48.6644700" lon="1.4989390">
        <ele>75.6</ele>
        <time>2020-07-01T14:00:12Z</time>
      </trkpt>
      <trkpt lat="48.6644110" lon="1.4990390">
        <ele>75.4</ele>
        <time>2020-07-01T14:00:14Z</time>
      </trkpt>
      <trkpt lat="48.6643370" lon="1.4991310">
        <ele>75.6</ele>
        <time>2020-07-01T14:00:16Z</time>
      </trkpt>
      <trkpt lat="48.6641660" lon="1.4992990">
        <ele>75.4</ele>
        <time>2020-07-01T14:00:20Z</time>
      </trkpt>
      <trkpt lat="48.6638890" lon="1.4994690">
        <ele>75.0</ele>
        <time>2020-07-01T14:00:26Z</time>
      </trkpt>
      <trkpt lat="48.6638420" lon="1.4994740">
        <ele>75.0</ele>
        <time>2020-07-01T14:00:27Z</time>
      </trkpt>
      <trkpt lat="48.6634600" lon="1.4994840">
        <ele>74.8</ele>
        <time>2020-07-01T14:00:35Z</time>
      </trkpt>
      <trkpt lat="48.6632100" lon="1.4995400">
        <ele>74.6</ele>
        <time>2020-07-01T14:00:42Z</time>
      </trkpt>
      <trkpt lat="48.6631030" lon="1.4997220">
        <ele>75.2</ele>
        <time>2020-07-01T14:00:47Z</time>
      </trkpt>
      <trkpt lat="48.6629720" lon="1.5001290">
        <ele>75.2</ele>
        <time>2020-07-01T14:00:54Z</time>
      </trkpt>
      <trkpt lat="48.6627710" lon="1.5007190">
        <ele>75.2</ele>
        <time>2020-07-01T14:01:03Z</time>
      </trkpt>
      <trkpt lat="48.6627240" lon="1.5008510">
        <ele>75.4</ele>
        <time>2020-07-01T14:01:05Z</time>
      </trkpt>
      <trkpt lat="48.6625900" lon="1.5012350">
        <ele>75.0</ele>
        <time>2020-07-01T14:01:11Z</time>
      </trkpt>
      <trkpt lat="48.6622970" lon="1.5019270">
        <ele>75.0</ele>
        <time>2020-07-01T14:01:22Z</time>
      </trkpt>
      <trkpt lat="48.6622680" lon="1.5019900">
        <ele>75.2</ele>
        <time>2020-07-01T14:01:23Z</time>
      </trkpt>
      <trkpt lat="48.6621130" lon="1.5024660">
        <ele>75.0</ele>
        <time>2020-07-01T14:01:30Z</time>
      </trkpt>
      <trkpt lat="48.6619980" lon="1.5030440">
        <ele>74.8</ele>
        <time>2020-07-01T14:01:38Z</time>
      </trkpt>
      <trkpt lat="48.6618680" lon="1.5036230">
        <ele>74.8</ele>
        <time>2020-07-01T14:01:46Z</time>
      </trkpt>
      <trkpt lat="48.6618430" lon="1.5037550">
        <ele>75.0</ele>
        <time>2020-07-01T14:01:48Z</time>
      </trkpt>
      <trkpt lat="48.6616730" lon="1.5045400">
        <ele>75.6</ele>
        <time>2020-07-01T14:01:59Z</time>
      </trkpt>
      <trkpt lat="48.6616050" lon="1.5047690">
        <ele>75.8</ele>
        <time>2020-07-01T14:02:02Z</time>
      </trkpt>
      <trkpt lat="48.6614680" lon="1.5052270">
        <ele>75.6</ele>
        <time>2020-07-01T14:02:08Z</time>
      </trkpt>
      <trkpt lat="48.6613040" lon="1.5058090">
        <ele>75.2</ele>
        <time>2020-07-01T14:02:16Z</time>
      </trkpt>
      <trkpt lat="48.6610820" lon="1.5066110">
        <ele>75.0</ele>
        <time>2020-07-01T14:02:27Z</time>
      </trkpt>
      <trkpt lat="48.6610640" lon="1.5066830">
        <ele>75.0</ele>
        <time>2020-07-01T14:02:28Z</time>
      </trkpt>
      <trkpt lat="48.6610450" lon="1.5067550">
        <ele>75.0</ele>
        <time>2020-07-01T14:02:29Z</time>
      </trkpt>
      <trkpt lat="48.6608640" lon="1.5073560">
        <ele>75.6</ele>
        <time>2020-07-01T14:02:38Z</time>
      </trkpt>
      <trkpt lat="48.6606380" lon="1.5078760">
        <ele>75.8</ele>
        <time>2020-07-01T14:02:47Z</time>
      </trkpt>
      <trkpt lat="48.6604580" lon="1.5082860">
        <ele>75.6</ele>
        <time>2020-07-01T14:02:54Z</time>
      </trkpt>
      <trkpt lat="48.6604040" lon="1.5083960">
        <ele>75.4</ele>
        <time>2020-07-01T14:02:56Z</time>
      </trkpt>
      <trkpt lat="48.6601510" lon="1.5088280">
        <ele>75.0</ele>
        <time>2020-07-01T14:03:04Z</time>
      </trkpt>
      <trkpt lat="48.6600690" lon="1.5089180">
        <ele>75.0</ele>
        <time>2020-07-01T14:03:06Z</time>
      </trkpt>
      <trkpt lat="48.6600260" lon="1.5089600">
        <ele>75.0</ele>
        <time>2020-07-01T14:03:07Z</time>
      </trkpt>
      <trkpt lat="48.6598300" lon="1.5092110">
        <ele>74.8</ele>
        <time>2020-07-01T14:03:13Z</time>
      </trkpt>
      <trkpt lat="48.6596150" lon="1.5094760">
        <ele>75.0</ele>
        <time>2020-07-01T14:03:20Z</time>
      </trkpt>
      <trkpt lat="48.6592790" lon="1.5098660">
        <ele>75.0</ele>
        <time>2020-07-01T14:03:28Z</time>
      </trkpt>
      <trkpt lat="48.6589660" lon="1.5101550">
        <ele>74.8</ele>
        <time>2020-07-01T14:03:35Z</time>
      </trkpt>
      <trkpt lat="48.6586830" lon="1.5103980">
        <ele>74.6</ele>
        <time>2020-07-01T14:03:42Z</time>
      </trkpt>
      <trkpt lat="48.6584140" lon="1.5106550">
        <ele>74.8</ele>
        <time>2020-07-01T14:03:50Z</time>
      </trkpt>
      <trkpt lat="48.6582870" lon="1.5108220">
        <ele>74.8</ele>
        <time>2020-07-01T14:03:55Z</time>
      </trkpt>
      <trkpt lat="48.6582330" lon="1.5109050">
        <ele>74.8</ele>
        <time>2020-07-01T14:03:57Z</time>
      </trkpt>
      <trkpt lat="48.6580410" lon="1.5112720">
        <ele>75.2</ele>
        <time>2020-07-01T14:04:04Z</time>
      </trkpt>
      <trkpt lat="48.6578840" lon="1.5114420">
        <ele>75.4</ele>
        <time>2020-07-01T14:04:09Z</time>
      </trkpt>
      <trkpt lat="48.6578390" lon="1.5114540">
        <ele>75.6</ele>
        <time>2020-07-01T14:04:14Z</time>
      </trkpt>
      <trkpt lat="48.6578320" lon="1.5114450">
        <ele>75.6</ele>
        <time>2020-07-01T14:04:23Z</time>
      </trkpt>
      <trkpt lat="48.6578330" lon="1.5114430">
        <ele>75.6</ele>
        <time>2020-07-01T14:04:24Z</time>
      </trkpt>
      <trkpt lat="48.6578390" lon="1.5114230">
        <ele>75.8</ele>
        <time>2020-07-01T14:04:28Z</time>
      </trkpt>
      <trkpt lat="48.6578390" lon="1.5114220">
        <ele>75.6</ele>
        <time>2020-07-01T14:04:29Z</time>
      </trkpt>
      <trkpt lat="48.6578350" lon="1.5114250">
        <ele>75.6</ele>
        <time>2020-07-01T14:04:31Z</time>
      </trkpt>
      <trkpt lat="48.6578350" lon="1.5114250">
        <ele>75.6</ele>
        <time>2020-07-01T14:04:32Z</time>
      </trkpt>
      <trkpt lat="48.6578300" lon="1.5114090">
        <ele>75.6</ele>
        <time>2020-07-01T14:04:39Z</time>
      </trkpt>
      <trkpt lat="48.6578270" lon="1.5114020">
        <ele>75.4</ele>
        <time>2020-07-01T14:04:40Z</time>
      </trkpt>
      <trkpt lat="48.6578180" lon="1.5113850">
        <ele>75.0</ele>
        <time>2020-07-01T14:04:42Z</time>
      </trkpt>
      <trkpt lat="48.6578170" lon="1.5113770">
        <ele>75.2</ele>
        <time>2020-07-01T14:04:43Z</time>
      </trkpt>
      <trkpt lat="48.6578180" lon="1.5113710">
        <ele>75.2</ele>
        <time>2020-07-01T14:04:44Z</time>
      </trkpt>
      <trkpt lat="48.6578170" lon="1.5113620">
        <ele>75.4</ele>
        <time>2020-07-01T14:04:46Z</time>
      </trkpt>
      <trkpt lat="48.6578170" lon="1.5113610">
        <ele>75.2</ele>
        <time>2020-07-01T14:04:47Z</time>
      </trkpt>
      <trkpt lat="48.6578150" lon="1.5113530">
        <ele>75.4</ele>
        <time>2020-07-01T14:04:49Z</time>
      </trkpt>
      <trkpt lat="48.6578130" lon="1.5113500">
        <ele>75.4</ele>
        <time>2020-07-01T14:04:50Z</time>
      </trkpt>
      <trkpt lat="48.6578150" lon="1.5113550">
        <ele>75.4</ele>
        <time>2020-07-01T14:04:51Z</time>
      </trkpt>
      <trkpt lat="48.6578160" lon="1.5113590">
        <ele>75.6</ele>
        <time>2020-07-01T14:04:52Z</time>
      </trkpt>
      <trkpt lat="48.6578190" lon="1.5113630">
        <ele>75.4</ele>
        <time>2020-07-01T14:04:53Z</time>
      </trkpt>
      <trkpt lat="48.6578270" lon="1.5113690">
        <ele>75.4</ele>
        <time>2020-07-01T14:04:57Z</time>
      </trkpt>
      <trkpt lat="48.6578280" lon="1.5113870">
        <ele>75.4</ele>
        <time>2020-07-01T14:04:58Z</time>
      </trkpt>
      <trkpt lat="48.6578210" lon="1.5114030">
        <ele>75.6</ele>
        <time>2020-07-01T14:05:00Z</time>
      </trkpt>
      <trkpt lat="48.6578220" lon="1.5114030">
        <ele>75.8</ele>
        <time>2020-07-01T14:05:02Z</time>
      </trkpt>
      <trkpt lat="48.6578220" lon="1.5114030">
        <ele>75.6</ele>
        <time>2020-07-01T14:05:03Z</time>
      </trkpt>
      <trkpt lat="48.6578220" lon="1.5114040">
        <ele>76.0</ele>
        <time>2020-07-01T14:05:06Z</time>
      </trkpt>
      <trkpt lat="48.6578220" lon="1.5114000">
        <ele>76.0</ele>
        <time>2020-07-01T14:05:08Z</time>
      </trkpt>
      <trkpt lat="48.6578220" lon="1.5113990">
        <ele>75.8</ele>
        <time>2020-07-01T14:05:09Z</time>
      </trkpt>
      <trkpt lat="48.6578100" lon="1.5114040">
        <ele>76.0</ele>
        <time>2020-07-01T14:05:18Z</time>
      </trkpt>
      <trkpt lat="48.6578070" lon="1.5114060">
        <ele>76.0</ele>
        <time>2020-07-01T14:05:21Z</time>
      </trkpt>
      <trkpt lat="48.6578070" lon="1.5114060">
        <ele>75.8</ele>
        <time>2020-07-01T14:05:22Z</time>
      </trkpt>
      <trkpt lat="48.6578080" lon="1.5114040">
        <ele>75.8</ele>
        <time>2020-07-01T14:05:23Z</time>
      </trkpt>
      <trkpt lat="48.6578090" lon="1.5114000">
        <ele>75.4</ele>
        <time>2020-07-01T14:05:25Z</time>
      </trkpt>
      <trkpt lat="48.6578050" lon="1.5114010">
        <ele>75.4</ele>
        <time>2020-07-01T14:05:26Z</time>
      </trkpt>
      <trkpt lat="48.6578050" lon="1.5114020">
        <ele>75.6</ele>
        <time>2020-07-01T14:05:27Z</time>
      </trkpt>
      <trkpt lat="48.6578050" lon="1.5114090">
        <ele>76.6</ele>
        <time>2020-07-01T14:05:37Z</time>
      </trkpt>
      <trkpt lat="48.6578130" lon="1.5114160">
        <ele>76.2</ele>
        <time>2020-07-01T14:06:02Z</time>
      </trkpt>
      <trkpt lat="48.6578040" lon="1.5114200">
        <ele>76.4</ele>
        <time>2020-07-01T14:06:08Z</time>
      </trkpt>
      <trkpt lat="48.6578020" lon="1.5114270">
        <ele>76.4</ele>
        <time>2020-07-01T14:06:10Z</time>
      </trkpt>
      <trkpt lat="48.6577960" lon="1.5114270">
        <ele>76.4</ele>
        <time>2020-07-01T14:06:19Z</time>
      </trkpt>
      <trkpt lat="48.6578050" lon="1.5114230">
        <ele>76.2</ele>
        <time>2020-07-01T14:06:24Z</time>
      </trkpt>
      <trkpt lat="48.6578220" lon="1.5113960">
        <ele>76.2</ele>
        <time>2020-07-01T14:06:30Z</time>
      </trkpt>
      <trkpt lat="48.6577340" lon="1.5114820">
        <ele>76.2</ele>
        <time>2020-07-01T14:06:38Z</time>
      </trkpt>
      <trkpt lat="48.6576460" lon="1.5116820">
        <ele>76.0</ele>
        <time>2020-07-01T14:06:45Z</time>
      </trkpt>
      <trkpt lat="48.6575150" lon="1.5120180">
        <ele>76.0</ele>
        <time>2020-07-01T14:06:53Z</time>
      </trkpt>
      <trkpt lat="48.6572920" lon="1.5125780">
        <ele>75.8</ele>
        <time>2020-07-01T14:07:04Z</time>
      </trkpt>
      <trkpt lat="48.6571230" lon="1.5130730">
        <ele>75.6</ele>
        <time>2020-07-01T14:07:14Z</time>
      </trkpt>
      <trkpt lat="48.6569390" lon="1.5135610">
        <ele>76.0</ele>
        <time>2020-07-01T14:07:23Z</time>
      </trkpt>
      <trkpt lat="48.6567190" lon="1.5141020">
        <ele>75.8</ele>
        <time>2020-07-01T14:07:32Z</time>
      </trkpt>
      <trkpt lat="48.6565340" lon="1.5145170">
        <ele>75.8</ele>
        <time>2020-07-01T14:07:38Z</time>
      </trkpt>
      <trkpt lat="48.6564740" lon="1.5146520">
        <ele>75.6</ele>
        <time>2020-07-01T14:07:40Z</time>
      </trkpt>
      <trkpt lat="48.6563710" lon="1.5149100">
        <ele>75.4</ele>
        <time>2020-07-01T14:07:44Z</time>
      </trkpt>
      <trkpt lat="48.6562670" lon="1.5151540">
        <ele>75.4</ele>
        <time>2020-07-01T14:07:48Z</time>
      </trkpt>
      <trkpt lat="48.6559420" lon="1.5158290">
        <ele>75.4</ele>
        <time>2020-07-01T14:07:59Z</time>
      </trkpt>
      <trkpt lat="48.6558800" lon="1.5159560">
        <ele>75.4</ele>
        <time>2020-07-01T14:08:01Z</time>
      </trkpt>
      <trkpt lat="48.6558480" lon="1.5160210">
        <ele>75.6</ele>
        <time>2020-07-01T14:08:02Z</time>
      </trkpt>
      <trkpt lat="48.6554920" lon="1.5167150">
        <ele>74.8</ele>
        <time>2020-07-01T14:08:13Z</time>
      </trkpt>
      <trkpt lat="48.6554050" lon="1.5168950">
        <ele>74.6</ele>
        <time>2020-07-01T14:08:16Z</time>
      </trkpt>
      <trkpt lat="48.6551610" lon="1.5173950">
        <ele>74.8</ele>
        <time>2020-07-01T14:08:24Z</time>
      </trkpt>
      <trkpt lat="48.6550030" lon="1.5177200">
        <ele>75.0</ele>
        <time>2020-07-01T14:08:29Z</time>
      </trkpt>
      <trkpt lat="48.6548460" lon="1.5180350">
        <ele>75.0</ele>
        <time>2020-07-01T14:08:34Z</time>
      </trkpt>
      <trkpt lat="48.6544820" lon="1.5186680">
        <ele>75.0</ele>
        <time>2020-07-01T14:08:45Z</time>
      </trkpt>
      <trkpt lat="48.6542590" lon="1.5189700">
        <ele>75.0</ele>
        <time>2020-07-01T14:08:51Z</time>
      </trkpt>
      <trkpt lat="48.6542230" lon="1.5190240">
        <ele>75.0</ele>
        <time>2020-07-01T14:08:52Z</time>
      </trkpt>
      <trkpt lat="48.6540870" lon="1.5192570">
        <ele>75.2</ele>
        <time>2020-07-01T14:08:56Z</time>
      </trkpt>
      <trkpt lat="48.6538550" lon="1.5197560">
        <ele>75.6</ele>
        <time>2020-07-01T14:09:04Z</time>
      </trkpt>
      <trkpt lat="48.6535990" lon="1.5203410">
        <ele>75.8</ele>
        <time>2020-07-01T14:09:13Z</time>
      </trkpt>
      <trkpt lat="48.6535540" lon="1.5204660">
        <ele>75.8</ele>
        <time>2020-07-01T14:09:15Z</time>
      </trkpt>
      <trkpt lat="48.6533850" lon="1.5209670">
        <ele>76.6</ele>
        <time>2020-07-01T14:09:24Z</time>
      </trkpt>
      <trkpt lat="48.6533600" lon="1.5210070">
        <ele>76.6</ele>
        <time>2020-07-01T14:09:25Z</time>
      </trkpt>
      <trkpt lat="48.6531780" lon="1.5212810">
        <ele>77.0</ele>
        <time>2020-07-01T14:09:31Z</time>
      </trkpt>
      <trkpt lat="48.6530600" lon="1.5215350">
        <ele>77.6</ele>
        <time>2020-07-01T14:09:37Z</time>
      </trkpt>
      <trkpt lat="48.6530310" lon="1.5217070">
        <ele>77.6</ele>
        <time>2020-07-01T14:09:42Z</time>
      </trkpt>
      <trkpt lat="48.6531200" lon="1.5219560">
        <ele>77.4</ele>
        <time>2020-07-01T14:09:48Z</time>
      </trkpt>
      <trkpt lat="48.6531060" lon="1.5223210">
        <ele>77.2</ele>
        <time>2020-07-01T14:09:55Z</time>
      </trkpt>
      <trkpt lat="48.6530370" lon="1.5226040">
        <ele>77.0</ele>
        <time>2020-07-01T14:10:00Z</time>
      </trkpt>
      <trkpt lat="48.6529750" lon="1.5229120">
        <ele>77.2</ele>
        <time>2020-07-01T14:10:05Z</time>
      </trkpt>
      <trkpt lat="48.6527520" lon="1.5236900">
        <ele>76.8</ele>
        <time>2020-07-01T14:10:17Z</time>
      </trkpt>
      <trkpt lat="48.6526990" lon="1.5238240">
        <ele>76.8</ele>
        <time>2020-07-01T14:10:19Z</time>
      </trkpt>
      <trkpt lat="48.6526190" lon="1.5240140">
        <ele>76.6</ele>
        <time>2020-07-01T14:10:22Z</time>
      </trkpt>
      <trkpt lat="48.6524600" lon="1.5244310">
        <ele>76.4</ele>
        <time>2020-07-01T14:10:29Z</time>
      </trkpt>
      <trkpt lat="48.6524280" lon="1.5245340">
        <ele>76.6</ele>
        <time>2020-07-01T14:10:31Z</time>
      </trkpt>
      <trkpt lat="48.6523790" lon="1.5246830">
        <ele>76.6</ele>
        <time>2020-07-01T14:10:35Z</time>
      </trkpt>
      <trkpt lat="48.6523770" lon="1.5247110">
        <ele>77.0</ele>
        <time>2020-07-01T14:10:40Z</time>
      </trkpt>
      <trkpt lat="48.6523790" lon="1.5247100">
        <ele>77.6</ele>
        <time>2020-07-01T14:10:41Z</time>
      </trkpt>
      <trkpt lat="48.6523630" lon="1.5246760">
        <ele>79.0</ele>
        <time>2020-07-01T14:10:57Z</time>
      </trkpt>
      <trkpt lat="48.6523530" lon="1.5246600">
        <ele>79.0</ele>
        <time>2020-07-01T14:10:58Z</time>
      </trkpt>
      <trkpt lat="48.6523280" lon="1.5246150">
        <ele>79.0</ele>
        <time>2020-07-01T14:11:00Z</time>
      </trkpt>
      <trkpt lat="48.6522730" lon="1.5245120">
        <ele>78.8</ele>
        <time>2020-07-01T14:11:03Z</time>
      </trkpt>
      <trkpt lat="48.6522460" lon="1.5244680">
        <ele>78.8</ele>
        <time>2020-07-01T14:11:04Z</time>
      </trkpt>
      <trkpt lat="48.6522020" lon="1.5244010">
        <ele>78.2</ele>
        <time>2020-07-01T14:11:06Z</time>
      </trkpt>
      <trkpt lat="48.6521450" lon="1.5242980">
        <ele>78.0</ele>
        <time>2020-07-01T14:11:09Z</time>
      </trkpt>
      <trkpt lat="48.6521230" lon="1.5242740">
        <ele>78.0</ele>
        <time>2020-07-01T14:11:10Z</time>
      </trkpt>
      <trkpt lat="48.6521040" lon="1.5242320">
        <ele>77.8</ele>
        <time>2020-07-01T14:11:12Z</time>
      </trkpt>
      <trkpt lat="48.6521020" lon="1.5242080">
        <ele>77.4</ele>
        <time>2020-07-01T14:11:13Z</time>
      </trkpt>
      <trkpt lat="48.6520920" lon="1.5241940">
        <ele>77.2</ele>
        <time>2020-07-01T14:11:14Z</time>
      </trkpt>
      <trkpt lat="48.6520630" lon="1.5241860">
        <ele>76.8</ele>
        <time>2020-07-01T14:11:16Z</time>
      </trkpt>
      <trkpt lat="48.6520480" lon="1.5241930">
        <ele>76.6</ele>
        <time>2020-07-01T14:11:17Z</time>
      </trkpt>
      <trkpt lat="48.6519080" lon="1.5243030">
        <ele>76.6</ele>
        <time>2020-07-01T14:11:22Z</time>
      </trkpt>
      <trkpt lat="48.6516840" lon="1.5244750">
        <ele>76.6</ele>
        <time>2020-07-01T14:11:28Z</time>
      </trkpt>
      <trkpt lat="48.6515670" lon="1.5245730">
        <ele>76.4</ele>
        <time>2020-07-01T14:11:31Z</time>
      </trkpt>
      <trkpt lat="48.6513680" lon="1.5247710">
        <ele>76.2</ele>
        <time>2020-07-01T14:11:36Z</time>
      </trkpt>
      <trkpt lat="48.6512750" lon="1.5248450">
        <ele>76.2</ele>
        <time>2020-07-01T14:11:38Z</time>
      </trkpt>
      <trkpt lat="48.6511410" lon="1.5249610">
        <ele>76.2</ele>
        <time>2020-07-01T14:11:41Z</time>
      </trkpt>
      <trkpt lat="48.6510560" lon="1.5250380">
        <ele>75.8</ele>
        <time>2020-07-01T14:11:43Z</time>
      </trkpt>
      <trkpt lat="48.6509690" lon="1.5251180">
        <ele>75.8</ele>
        <time>2020-07-01T14:11:45Z</time>
      </trkpt>
      <trkpt lat="48.6506830" lon="1.5254090">
        <ele>75.4</ele>
        <time>2020-07-01T14:11:52Z</time>
      </trkpt>
      <trkpt lat="48.6505200" lon="1.5256340">
        <ele>75.4</ele>
        <time>2020-07-01T14:11:56Z</time>
      </trkpt>
      <trkpt lat="48.6503210" lon="1.5259130">
        <ele>75.4</ele>
        <time>2020-07-01T14:12:01Z</time>
      </trkpt>
      <trkpt lat="48.6502420" lon="1.5260200">
        <ele>75.6</ele>
        <time>2020-07-01T14:12:03Z</time>
      </trkpt>
      <trkpt lat="48.6500830" lon="1.5262520">
        <ele>75.6</ele>
        <time>2020-07-01T14:12:07Z</time>
      </trkpt>
      <trkpt lat="48.6500440" lon="1.5263120">
        <ele>75.4</ele>
        <time>2020-07-01T14:12:08Z</time>
      </trkpt>
      <trkpt lat="48.6500120" lon="1.5263710">
        <ele>75.6</ele>
        <time>2020-07-01T14:12:09Z</time>
      </trkpt>
      <trkpt lat="48.6499790" lon="1.5264270">
        <ele>75.6</ele>
        <time>2020-07-01T14:12:10Z</time>
      </trkpt>
      <trkpt lat="48.6495910" lon="1.5270840">
        <ele>76.0</ele>
        <time>2020-07-01T14:12:21Z</time>
      </trkpt>
      <trkpt lat="48.6493170" lon="1.5275560">
        <ele>76.0</ele>
        <time>2020-07-01T14:12:29Z</time>
      </trkpt>
      <trkpt lat="48.6490470" lon="1.5277490">
        <ele>76.2</ele>
        <time>2020-07-01T14:12:36Z</time>
      </trkpt>
      <trkpt lat="48.6489200" lon="1.5277830">
        <ele>76.4</ele>
        <time>2020-07-01T14:12:41Z</time>
      </trkpt>
      <trkpt lat="48.6487760" lon="1.5279840">
        <ele>76.8</ele>
        <time>2020-07-01T14:12:46Z</time>
      </trkpt>
      <trkpt lat="48.6486920" lon="1.5281590">
        <ele>77.0</ele>
        <time>2020-07-01T14:12:49Z</time>
      </trkpt>
      <trkpt lat="48.6486690" lon="1.5282230">
        <ele>77.0</ele>
        <time>2020-07-01T14:12:50Z</time>
      </trkpt>
      <trkpt lat="48.6485940" lon="1.5284250">
        <ele>77.0</ele>
        <time>2020-07-01T14:12:53Z</time>
      </trkpt>
      <trkpt lat="48.6484910" lon="1.5287760">
        <ele>77.0</ele>
        <time>2020-07-01T14:12:58Z</time>
      </trkpt>
      <trkpt lat="48.6484760" lon="1.5288490">
        <ele>77.0</ele>
        <time>2020-07-01T14:12:59Z</time>
      </trkpt>
      <trkpt lat="48.6484610" lon="1.5289220">
        <ele>77.0</ele>
        <time>2020-07-01T14:13:00Z</time>
      </trkpt>
      <trkpt lat="48.6484050" lon="1.5291360">
        <ele>77.0</ele>
        <time>2020-07-01T14:13:03Z</time>
      </trkpt>
      <trkpt lat="48.6483280" lon="1.5294290">
        <ele>77.0</ele>
        <time>2020-07-01T14:13:07Z</time>
      </trkpt>
      <trkpt lat="48.6481820" lon="1.5298850">
        <ele>77.2</ele>
        <time>2020-07-01T14:13:14Z</time>
      </trkpt>
      <trkpt lat="48.6481230" lon="1.5301300">
        <ele>77.2</ele>
        <time>2020-07-01T14:13:18Z</time>
      </trkpt>
      <trkpt lat="48.6481290" lon="1.5303010">
        <ele>77.4</ele>
        <time>2020-07-01T14:13:21Z</time>
      </trkpt>
      <trkpt lat="48.6482190" lon="1.5304320">
        <ele>78.0</ele>
        <time>2020-07-01T14:13:24Z</time>
      </trkpt>
      <trkpt lat="48.6482610" lon="1.5304730">
        <ele>78.0</ele>
        <time>2020-07-01T14:13:25Z</time>
      </trkpt>
      <trkpt lat="48.6483940" lon="1.5305920">
        <ele>78.2</ele>
        <time>2020-07-01T14:13:28Z</time>
      </trkpt>
      <trkpt lat="48.6484760" lon="1.5306940">
        <ele>78.2</ele>
        <time>2020-07-01T14:13:30Z</time>
      </trkpt>
      <trkpt lat="48.6485070" lon="1.5307490">
        <ele>78.2</ele>
        <time>2020-07-01T14:13:31Z</time>
      </trkpt>
      <trkpt lat="48.6485070" lon="1.5308830">
        <ele>78.2</ele>
        <time>2020-07-01T14:13:33Z</time>
      </trkpt>
      <trkpt lat="48.6484560" lon="1.5311440">
        <ele>78.0</ele>
        <time>2020-07-01T14:13:37Z</time>
      </trkpt>
      <trkpt lat="48.6484210" lon="1.5312720">
        <ele>78.0</ele>
        <time>2020-07-01T14:13:39Z</time>
      </trkpt>
      <trkpt lat="48.6483940" lon="1.5313360">
        <ele>78.0</ele>
        <time>2020-07-01T14:13:40Z</time>
      </trkpt>
      <trkpt lat="48.6482880" lon="1.5315890">
        <ele>78.0</ele>
        <time>2020-07-01T14:13:44Z</time>
      </trkpt>
      <trkpt lat="48.6481830" lon="1.5319850">
        <ele>78.0</ele>
        <time>2020-07-01T14:13:50Z</time>
      </trkpt>
      <trkpt lat="48.6480750" lon="1.5324280">
        <ele>78.0</ele>
        <time>2020-07-01T14:13:57Z</time>
      </trkpt>
      <trkpt lat="48.6480380" lon="1.5326760">
        <ele>78.0</ele>
        <time>2020-07-01T14:14:02Z</time>
      </trkpt>
      <trkpt lat="48.6480370" lon="1.5327930">
        <ele>78.2</ele>
        <time>2020-07-01T14:14:08Z</time>
      </trkpt>
      <trkpt lat="48.6480620" lon="1.5328390">
        <ele>78.0</ele>
        <time>2020-07-01T14:14:19Z</time>
      </trkpt>
      <trkpt lat="48.6479530" lon="1.5328750">
        <ele>78.2</ele>
        <time>2020-07-01T14:14:29Z</time>
      </trkpt>
      <trkpt lat="48.6479210" lon="1.5328700">
        <ele>78.2</ele>
        <time>2020-07-01T14:14:30Z</time>
      </trkpt>
      <trkpt lat="48.6478720" lon="1.5328720">
        <ele>78.2</ele>
        <time>2020-07-01T14:14:32Z</time>
      </trkpt>
      <trkpt lat="48.6478370" lon="1.5328740">
        <ele>78.4</ele>
        <time>2020-07-01T14:14:33Z</time>
      </trkpt>
      <trkpt lat="48.6478040" lon="1.5329320">
        <ele>78.6</ele>
        <time>2020-07-01T14:14:35Z</time>
      </trkpt>
      <trkpt lat="48.6477470" lon="1.5330690">
        <ele>79.2</ele>
        <time>2020-07-01T14:14:39Z</time>
      </trkpt>
      <trkpt lat="48.6477190" lon="1.5331280">
        <ele>79.4</ele>
        <time>2020-07-01T14:14:41Z</time>
      </trkpt>
      <trkpt lat="48.6476500" lon="1.5333350">
        <ele>79.2</ele>
        <time>2020-07-01T14:14:47Z</time>
      </trkpt>
      <trkpt lat="48.6476230" lon="1.5336000">
        <ele>79.4</ele>
        <time>2020-07-01T14:14:54Z</time>
      </trkpt>
      <trkpt lat="48.6476010" lon="1.5338340">
        <ele>79.2</ele>
        <time>2020-07-01T14:15:01Z</time>
      </trkpt>
      <trkpt lat="48.6475800" lon="1.5339630">
        <ele>79.4</ele>
        <time>2020-07-01T14:15:07Z</time>
      </trkpt>
      <trkpt lat="48.6475620" lon="1.5339790">
        <ele>79.4</ele>
        <time>2020-07-01T14:15:16Z</time>
      </trkpt>
      <trkpt lat="48.6475790" lon="1.5340080">
        <ele>79.2</ele>
        <time>2020-07-01T14:15:20Z</time>
      </trkpt>
      <trkpt lat="48.6476080" lon="1.5340340">
        <ele>79.4</ele>
        <time>2020-07-01T14:15:22Z</time>
      </trkpt>
      <trkpt lat="48.6476660" lon="1.5340670">
        <ele>79.4</ele>
        <time>2020-07-01T14:15:25Z</time>
      </trkpt>
      <trkpt lat="48.6477140" lon="1.5340870">
        <ele>79.4</ele>
        <time>2020-07-01T14:15:27Z</time>
      </trkpt>
      <trkpt lat="48.6479630" lon="1.5341500">
        <ele>78.4</ele>
        <time>2020-07-01T14:15:35Z</time>
      </trkpt>
      <trkpt lat="48.6481110" lon="1.5342650">
        <ele>78.2</ele>
        <time>2020-07-01T14:15:41Z</time>
      </trkpt>
      <trkpt lat="48.6481130" lon="1.5345030">
        <ele>78.2</ele>
        <time>2020-07-01T14:15:46Z</time>
      </trkpt>
      <trkpt lat="48.6480600" lon="1.5349410">
        <ele>78.0</ele>
        <time>2020-07-01T14:15:54Z</time>
      </trkpt>
      <trkpt lat="48.6480620" lon="1.5355160">
        <ele>77.6</ele>
        <time>2020-07-01T14:16:03Z</time>
      </trkpt>
      <trkpt lat="48.6480550" lon="1.5355850">
        <ele>77.6</ele>
        <time>2020-07-01T14:16:04Z</time>
      </trkpt>
      <trkpt lat="48.6480090" lon="1.5359580">
        <ele>77.4</ele>
        <time>2020-07-01T14:16:09Z</time>
      </trkpt>
      <trkpt lat="48.6479810" lon="1.5364310">
        <ele>77.2</ele>
        <time>2020-07-01T14:16:16Z</time>
      </trkpt>
      <trkpt lat="48.6480120" lon="1.5364970">
        <ele>77.4</ele>
        <time>2020-07-01T14:16:18Z</time>
      </trkpt>
      <trkpt lat="48.6480630" lon="1.5365540">
        <ele>77.4</ele>
        <time>2020-07-01T14:16:20Z</time>
      </trkpt>
      <trkpt lat="48.6480890" lon="1.5366520">
        <ele>77.6</ele>
        <time>2020-07-01T14:16:24Z</time>
      </trkpt>
      <trkpt lat="48.6481060" lon="1.5366740">
        <ele>78.4</ele>
        <time>2020-07-01T14:16:30Z</time>
      </trkpt>
      <trkpt lat="48.6480580" lon="1.5367370">
        <ele>78.4</ele>
        <time>2020-07-01T14:16:36Z</time>
      </trkpt>
      <trkpt lat="48.6480340" lon="1.5367790">
        <ele>78.6</ele>
        <time>2020-07-01T14:16:38Z</time>
      </trkpt>
      <trkpt lat="48.6479420" lon="1.5370030">
        <ele>78.4</ele>
        <time>2020-07-01T14:16:44Z</time>
      </trkpt>
      <trkpt lat="48.6477550" lon="1.5374040">
        <ele>78.2</ele>
        <time>2020-07-01T14:16:52Z</time>
      </trkpt>
      <trkpt lat="48.6477320" lon="1.5374580">
        <ele>78.2</ele>
        <time>2020-07-01T14:16:53Z</time>
      </trkpt>
      <trkpt lat="48.6475700" lon="1.5377580">
        <ele>78.0</ele>
        <time>2020-07-01T14:16:59Z</time>
      </trkpt>
      <trkpt lat="48.6474500" lon="1.5379640">
        <ele>78.6</ele>
        <time>2020-07-01T14:17:03Z</time>
      </trkpt>
      <trkpt lat="48.6471630" lon="1.5384630">
        <ele>78.0</ele>
        <time>2020-07-01T14:17:13Z</time>
      </trkpt>
      <trkpt lat="48.6471320" lon="1.5385090">
        <ele>78.0</ele>
        <time>2020-07-01T14:17:14Z</time>
      </trkpt>
      <trkpt lat="48.6469110" lon="1.5388020">
        <ele>78.0</ele>
        <time>2020-07-01T14:17:21Z</time>
      </trkpt>
      <trkpt lat="48.6468190" lon="1.5389150">
        <ele>77.8</ele>
        <time>2020-07-01T14:17:24Z</time>
      </trkpt>
      <trkpt lat="48.6467010" lon="1.5390840">
        <ele>77.4</ele>
        <time>2020-07-01T14:17:28Z</time>
      </trkpt>
      <trkpt lat="48.6466450" lon="1.5391720">
        <ele>77.2</ele>
        <time>2020-07-01T14:17:30Z</time>
      </trkpt>
      <trkpt lat="48.6463700" lon="1.5396650">
        <ele>77.2</ele>
        <time>2020-07-01T14:17:40Z</time>
      </trkpt>
      <trkpt lat="48.6461290" lon="1.5400800">
        <ele>77.8</ele>
        <time>2020-07-01T14:17:49Z</time>
      </trkpt>
      <trkpt lat="48.6460130" lon="1.5403040">
        <ele>77.8</ele>
        <time>2020-07-01T14:17:54Z</time>
      </trkpt>
      <trkpt lat="48.6459270" lon="1.5404400">
        <ele>78.0</ele>
        <time>2020-07-01T14:17:58Z</time>
      </trkpt>
      <trkpt lat="48.6459990" lon="1.5406270">
        <ele>78.2</ele>
        <time>2020-07-01T14:18:02Z</time>
      </trkpt>
      <trkpt lat="48.6461290" lon="1.5409210">
        <ele>78.0</ele>
        <time>2020-07-01T14:18:08Z</time>
      </trkpt>
      <trkpt lat="48.6461120" lon="1.5410560">
        <ele>78.2</ele>
        <time>2020-07-01T14:18:10Z</time>
      </trkpt>
      <trkpt lat="48.6460950" lon="1.5411220">
        <ele>78.2</ele>
        <time>2020-07-01T14:18:11Z</time>
      </trkpt>
      <trkpt lat="48.6460750" lon="1.5411880">
        <ele>78.2</ele>
        <time>2020-07-01T14:18:12Z</time>
      </trkpt>
      <trkpt lat="48.6458900" lon="1.5417880">
        <ele>78.6</ele>
        <time>2020-07-01T14:18:21Z</time>
      </trkpt>
      <trkpt lat="48.6458060" lon="1.5422170">
        <ele>79.2</ele>
        <time>2020-07-01T14:18:27Z</time>
      </trkpt>
      <trkpt lat="48.6458010" lon="1.5422890">
        <ele>79.2</ele>
        <time>2020-07-01T14:18:28Z</time>
      </trkpt>
      <trkpt lat="48.6457980" lon="1.5424210">
        <ele>79.4</ele>
        <time>2020-07-01T14:18:30Z</time>
      </trkpt>
      <trkpt lat="48.6457910" lon="1.5430060">
        <ele>79.6</ele>
        <time>2020-07-01T14:18:39Z</time>
      </trkpt>
      <trkpt lat="48.6457830" lon="1.5430800">
        <ele>79.4</ele>
        <time>2020-07-01T14:18:40Z</time>
      </trkpt>
      <trkpt lat="48.6457620" lon="1.5431530">
        <ele>79.4</ele>
        <time>2020-07-01T14:18:41Z</time>
      </trkpt>
      <trkpt lat="48.6457300" lon="1.5432190">
        <ele>79.4</ele>
        <time>2020-07-01T14:18:42Z</time>
      </trkpt>
      <trkpt lat="48.6456850" lon="1.5432740">
        <ele>79.6</ele>
        <time>2020-07-01T14:18:43Z</time>
      </trkpt>
      <trkpt lat="48.6456320" lon="1.5433190">
        <ele>79.4</ele>
        <time>2020-07-01T14:18:44Z</time>
      </trkpt>
      <trkpt lat="48.6454670" lon="1.5434130">
        <ele>79.4</ele>
        <time>2020-07-01T14:18:47Z</time>
      </trkpt>
      <trkpt lat="48.6454160" lon="1.5434370">
        <ele>79.4</ele>
        <time>2020-07-01T14:18:48Z</time>
      </trkpt>
      <trkpt lat="48.6451310" lon="1.5436480">
        <ele>77.4</ele>
        <time>2020-07-01T14:18:54Z</time>
      </trkpt>
      <trkpt lat="48.6450810" lon="1.5436900">
        <ele>77.4</ele>
        <time>2020-07-01T14:18:55Z</time>
      </trkpt>
      <trkpt lat="48.6448820" lon="1.5438710">
        <ele>76.2</ele>
        <time>2020-07-01T14:18:59Z</time>
      </trkpt>
      <trkpt lat="48.6446350" lon="1.5441170">
        <ele>76.0</ele>
        <time>2020-07-01T14:19:04Z</time>
      </trkpt>
      <trkpt lat="48.6441870" lon="1.5446090">
        <ele>76.2</ele>
        <time>2020-07-01T14:19:14Z</time>
      </trkpt>
      <trkpt lat="48.6441480" lon="1.5446590">
        <ele>76.2</ele>
        <time>2020-07-01T14:19:15Z</time>
      </trkpt>
      <trkpt lat="48.6441090" lon="1.5447130">
        <ele>76.4</ele>
        <time>2020-07-01T14:19:16Z</time>
      </trkpt>
      <trkpt lat="48.6440000" lon="1.5448830">
        <ele>76.4</ele>
        <time>2020-07-01T14:19:19Z</time>
      </trkpt>
      <trkpt lat="48.6439310" lon="1.5450110">
        <ele>76.4</ele>
        <time>2020-07-01T14:19:21Z</time>
      </trkpt>
      <trkpt lat="48.6438650" lon="1.5451450">
        <ele>76.8</ele>
        <time>2020-07-01T14:19:23Z</time>
      </trkpt>
      <trkpt lat="48.6435220" lon="1.5457810">
        <ele>76.4</ele>
        <time>2020-07-01T14:19:33Z</time>
      </trkpt>
      <trkpt lat="48.6434510" lon="1.5458950">
        <ele>76.4</ele>
        <time>2020-07-01T14:19:35Z</time>
      </trkpt>
      <trkpt lat="48.6434130" lon="1.5459450">
        <ele>76.4</ele>
        <time>2020-07-01T14:19:36Z</time>
      </trkpt>
      <trkpt lat="48.6432550" lon="1.5461480">
        <ele>76.6</ele>
        <time>2020-07-01T14:19:40Z</time>
      </trkpt>
      <trkpt lat="48.6430420" lon="1.5464010">
        <ele>76.4</ele>
        <time>2020-07-01T14:19:45Z</time>
      </trkpt>
      <trkpt lat="48.6426720" lon="1.5468250">
        <ele>76.4</ele>
        <time>2020-07-01T14:19:54Z</time>
      </trkpt>
      <trkpt lat="48.6426350" lon="1.5468750">
        <ele>76.4</ele>
        <time>2020-07-01T14:19:55Z</time>
      </trkpt>
      <trkpt lat="48.6423820" lon="1.5473240">
        <ele>76.4</ele>
        <time>2020-07-01T14:20:03Z</time>
      </trkpt>
      <trkpt lat="48.6423160" lon="1.5475120">
        <ele>77.4</ele>
        <time>2020-07-01T14:20:06Z</time>
      </trkpt>
      <trkpt lat="48.6422970" lon="1.5476390">
        <ele>77.6</ele>
        <time>2020-07-01T14:20:08Z</time>
      </trkpt>
      <trkpt lat="48.6423000" lon="1.5477780">
        <ele>77.6</ele>
        <time>2020-07-01T14:20:10Z</time>
      </trkpt>
      <trkpt lat="48.6423310" lon="1.5479140">
        <ele>77.6</ele>
        <time>2020-07-01T14:20:12Z</time>
      </trkpt>
      <trkpt lat="48.6424860" lon="1.5482320">
        <ele>77.8</ele>
        <time>2020-07-01T14:20:17Z</time>
      </trkpt>
      <trkpt lat="48.6427730" lon="1.5487990">
        <ele>77.6</ele>
        <time>2020-07-01T14:20:26Z</time>
      </trkpt>
      <trkpt lat="48.6429990" lon="1.5493070">
        <ele>77.8</ele>
        <time>2020-07-01T14:20:34Z</time>
      </trkpt>
      <trkpt lat="48.6432710" lon="1.5497360">
        <ele>77.8</ele>
        <time>2020-07-01T14:20:42Z</time>
      </trkpt>
      <trkpt lat="48.6433150" lon="1.5497670">
        <ele>77.8</ele>
        <time>2020-07-01T14:20:43Z</time>
      </trkpt>
      <trkpt lat="48.6434980" lon="1.5498780">
        <ele>77.8</ele>
        <time>2020-07-01T14:20:47Z</time>
      </trkpt>
      <trkpt lat="48.6436970" lon="1.5501020">
        <ele>77.8</ele>
        <time>2020-07-01T14:20:52Z</time>
      </trkpt>
      <trkpt lat="48.6437220" lon="1.5501660">
        <ele>77.8</ele>
        <time>2020-07-01T14:20:53Z</time>
      </trkpt>
      <trkpt lat="48.6437370" lon="1.5502390">
        <ele>77.8</ele>
        <time>2020-07-01T14:20:54Z</time>
      </trkpt>
      <trkpt lat="48.6437360" lon="1.5503940">
        <ele>77.6</ele>
        <time>2020-07-01T14:20:56Z</time>
      </trkpt>
      <trkpt lat="48.6437220" lon="1.5504680">
        <ele>77.6</ele>
        <time>2020-07-01T14:20:57Z</time>
      </trkpt>
      <trkpt lat="48.6437030" lon="1.5505390">
        <ele>77.8</ele>
        <time>2020-07-01T14:20:58Z</time>
      </trkpt>
      <trkpt lat="48.6436430" lon="1.5506620">
        <ele>77.8</ele>
        <time>2020-07-01T14:21:00Z</time>
      </trkpt>
      <trkpt lat="48.6434310" lon="1.5509020">
        <ele>77.8</ele>
        <time>2020-07-01T14:21:05Z</time>
      </trkpt>
      <trkpt lat="48.6432990" lon="1.5510360">
        <ele>77.8</ele>
        <time>2020-07-01T14:21:08Z</time>
      </trkpt>
      <trkpt lat="48.6432570" lon="1.5510800">
        <ele>77.6</ele>
        <time>2020-07-01T14:21:09Z</time>
      </trkpt>
      <trkpt lat="48.6429150" lon="1.5514110">
        <ele>77.6</ele>
        <time>2020-07-01T14:21:17Z</time>
      </trkpt>
      <trkpt lat="48.6425380" lon="1.5517420">
        <ele>77.4</ele>
        <time>2020-07-01T14:21:26Z</time>
      </trkpt>
      <trkpt lat="48.6421350" lon="1.5521250">
        <ele>77.4</ele>
        <time>2020-07-01T14:21:36Z</time>
      </trkpt>
      <trkpt lat="48.6417450" lon="1.5525490">
        <ele>77.4</ele>
        <time>2020-07-01T14:21:47Z</time>
      </trkpt>
      <trkpt lat="48.6413400" lon="1.5529100">
        <ele>77.0</ele>
        <time>2020-07-01T14:21:57Z</time>
      </trkpt>
      <trkpt lat="48.6412560" lon="1.5529760">
        <ele>77.2</ele>
        <time>2020-07-01T14:21:59Z</time>
      </trkpt>
      <trkpt lat="48.6411740" lon="1.5530450">
        <ele>77.4</ele>
        <time>2020-07-01T14:22:01Z</time>
      </trkpt>
      <trkpt lat="48.6410930" lon="1.5531150">
        <ele>77.2</ele>
        <time>2020-07-01T14:22:03Z</time>
      </trkpt>
      <trkpt lat="48.6408830" lon="1.5532860">
        <ele>77.2</ele>
        <time>2020-07-01T14:22:08Z</time>
      </trkpt>
      <trkpt lat="48.6407910" lon="1.5533600">
        <ele>77.2</ele>
        <time>2020-07-01T14:22:10Z</time>
      </trkpt>
      <trkpt lat="48.6404080" lon="1.5537340">
        <ele>77.4</ele>
        <time>2020-07-01T14:22:19Z</time>
      </trkpt>
      <trkpt lat="48.6401550" lon="1.5539350">
        <ele>77.4</ele>
        <time>2020-07-01T14:22:25Z</time>
      </trkpt>
      <trkpt lat="48.6400690" lon="1.5539920">
        <ele>77.2</ele>
        <time>2020-07-01T14:22:27Z</time>
      </trkpt>
      <trkpt lat="48.6399870" lon="1.5540490">
        <ele>77.4</ele>
        <time>2020-07-01T14:22:29Z</time>
      </trkpt>
      <trkpt lat="48.6398240" lon="1.5541680">
        <ele>77.4</ele>
        <time>2020-07-01T14:22:33Z</time>
      </trkpt>
      <trkpt lat="48.6396540" lon="1.5542950">
        <ele>77.6</ele>
        <time>2020-07-01T14:22:37Z</time>
      </trkpt>
      <trkpt lat="48.6393220" lon="1.5545560">
        <ele>78.2</ele>
        <time>2020-07-01T14:22:45Z</time>
      </trkpt>
      <trkpt lat="48.6388990" lon="1.5549180">
        <ele>78.6</ele>
        <time>2020-07-01T14:22:55Z</time>
      </trkpt>
      <trkpt lat="48.6383680" lon="1.5553120">
        <ele>78.4</ele>
        <time>2020-07-01T14:23:06Z</time>
      </trkpt>
      <trkpt lat="48.6379810" lon="1.5555540">
        <ele>78.2</ele>
        <time>2020-07-01T14:23:14Z</time>
      </trkpt>
      <trkpt lat="48.6376430" lon="1.5557560">
        <ele>78.2</ele>
        <time>2020-07-01T14:23:22Z</time>
      </trkpt>
      <trkpt lat="48.6375430" lon="1.5558340">
        <ele>78.8</ele>
        <time>2020-07-01T14:23:25Z</time>
      </trkpt>
      <trkpt lat="48.6374690" lon="1.5559180">
        <ele>78.8</ele>
        <time>2020-07-01T14:23:27Z</time>
      </trkpt>
      <trkpt lat="48.6371220" lon="1.5562070">
        <ele>78.8</ele>
        <time>2020-07-01T14:23:35Z</time>
      </trkpt>
      <trkpt lat="48.6369120" lon="1.5563420">
        <ele>78.8</ele>
        <time>2020-07-01T14:23:40Z</time>
      </trkpt>
      <trkpt lat="48.6367870" lon="1.5564250">
        <ele>78.8</ele>
        <time>2020-07-01T14:23:43Z</time>
      </trkpt>
      <trkpt lat="48.6367430" lon="1.5564490">
        <ele>78.8</ele>
        <time>2020-07-01T14:23:44Z</time>
      </trkpt>
      <trkpt lat="48.6364340" lon="1.5566330">
        <ele>78.6</ele>
        <time>2020-07-01T14:23:51Z</time>
      </trkpt>
      <trkpt lat="48.6361700" lon="1.5568090">
        <ele>78.6</ele>
        <time>2020-07-01T14:23:57Z</time>
      </trkpt>
      <trkpt lat="48.6360200" lon="1.5568920">
        <ele>78.8</ele>
        <time>2020-07-01T14:24:00Z</time>
      </trkpt>
      <trkpt lat="48.6358060" lon="1.5569970">
        <ele>78.6</ele>
        <time>2020-07-01T14:24:04Z</time>
      </trkpt>
      <trkpt lat="48.6355800" lon="1.5571220">
        <ele>78.6</ele>
        <time>2020-07-01T14:24:09Z</time>
      </trkpt>
      <trkpt lat="48.6351230" lon="1.5572540">
        <ele>78.8</ele>
        <time>2020-07-01T14:24:18Z</time>
      </trkpt>
      <trkpt lat="48.6348770" lon="1.5573250">
        <ele>78.6</ele>
        <time>2020-07-01T14:24:23Z</time>
      </trkpt>
      <trkpt lat="48.6344580" lon="1.5574420">
        <ele>78.6</ele>
        <time>2020-07-01T14:24:31Z</time>
      </trkpt>
      <trkpt lat="48.6344060" lon="1.5574550">
        <ele>78.8</ele>
        <time>2020-07-01T14:24:32Z</time>
      </trkpt>
      <trkpt lat="48.6342510" lon="1.5574840">
        <ele>78.6</ele>
        <time>2020-07-01T14:24:35Z</time>
      </trkpt>
      <trkpt lat="48.6339460" lon="1.5575270">
        <ele>78.8</ele>
        <time>2020-07-01T14:24:41Z</time>
      </trkpt>
      <trkpt lat="48.6334840" lon="1.5575800">
        <ele>79.2</ele>
        <time>2020-07-01T14:24:50Z</time>
      </trkpt>
      <trkpt lat="48.6330750" lon="1.5575950">
        <ele>79.0</ele>
        <time>2020-07-01T14:24:58Z</time>
      </trkpt>
      <trkpt lat="48.6326160" lon="1.5576020">
        <ele>79.0</ele>
        <time>2020-07-01T14:25:07Z</time>
      </trkpt>
      <trkpt lat="48.6320520" lon="1.5576980">
        <ele>79.4</ele>
        <time>2020-07-01T14:25:18Z</time>
      </trkpt>
      <trkpt lat="48.6320010" lon="1.5577110">
        <ele>79.4</ele>
        <time>2020-07-01T14:25:19Z</time>
      </trkpt>
      <trkpt lat="48.6314460" lon="1.5578660">
        <ele>80.2</ele>
        <time>2020-07-01T14:25:30Z</time>
      </trkpt>
      <trkpt lat="48.6310500" lon="1.5580030">
        <ele>80.2</ele>
        <time>2020-07-01T14:25:38Z</time>
      </trkpt>
      <trkpt lat="48.6305840" lon="1.5581590">
        <ele>80.2</ele>
        <time>2020-07-01T14:25:47Z</time>
      </trkpt>
      <trkpt lat="48.6300730" lon="1.5583490">
        <ele>80.2</ele>
        <time>2020-07-01T14:25:57Z</time>
      </trkpt>
      <trkpt lat="48.6299210" lon="1.5584050">
        <ele>80.2</ele>
        <time>2020-07-01T14:26:00Z</time>
      </trkpt>
      <trkpt lat="48.6296820" lon="1.5584870">
        <ele>80.2</ele>
        <time>2020-07-01T14:26:05Z</time>
      </trkpt>
      <trkpt lat="48.6293810" lon="1.5585820">
        <ele>81.2</ele>
        <time>2020-07-01T14:26:12Z</time>
      </trkpt>
      <trkpt lat="48.6291590" lon="1.5587290">
        <ele>81.6</ele>
        <time>2020-07-01T14:26:18Z</time>
      </trkpt>
      <trkpt lat="48.6290310" lon="1.5588360">
        <ele>81.6</ele>
        <time>2020-07-01T14:26:21Z</time>
      </trkpt>
      <trkpt lat="48.6289400" lon="1.5588730">
        <ele>81.6</ele>
        <time>2020-07-01T14:26:23Z</time>
      </trkpt>
      <trkpt lat="48.6288940" lon="1.5588780">
        <ele>81.4</ele>
        <time>2020-07-01T14:26:24Z</time>
      </trkpt>
      <trkpt lat="48.6287640" lon="1.5588680">
        <ele>81.4</ele>
        <time>2020-07-01T14:26:27Z</time>
      </trkpt>
      <trkpt lat="48.6285990" lon="1.5588520">
        <ele>81.2</ele>
        <time>2020-07-01T14:26:31Z</time>
      </trkpt>
      <trkpt lat="48.6285140" lon="1.5588480">
        <ele>81.0</ele>
        <time>2020-07-01T14:26:33Z</time>
      </trkpt>
      <trkpt lat="48.6281680" lon="1.5588980">
        <ele>81.4</ele>
        <time>2020-07-01T14:26:41Z</time>
      </trkpt>
      <trkpt lat="48.6280840" lon="1.5589200">
        <ele>81.6</ele>
        <time>2020-07-01T14:26:43Z</time>
      </trkpt>
      <trkpt lat="48.6278180" lon="1.5589870">
        <ele>82.2</ele>
        <time>2020-07-01T14:26:49Z</time>
      </trkpt>
      <trkpt lat="48.6277750" lon="1.5589970">
        <ele>82.2</ele>
        <time>2020-07-01T14:26:50Z</time>
      </trkpt>
      <trkpt lat="48.6274430" lon="1.5590690">
        <ele>82.2</ele>
        <time>2020-07-01T14:26:58Z</time>
      </trkpt>
      <trkpt lat="48.6270310" lon="1.5591780">
        <ele>82.2</ele>
        <time>2020-07-01T14:27:08Z</time>
      </trkpt>
      <trkpt lat="48.6268830" lon="1.5592240">
        <ele>82.4</ele>
        <time>2020-07-01T14:27:12Z</time>
      </trkpt>
      <trkpt lat="48.6267350" lon="1.5592840">
        <ele>82.4</ele>
        <time>2020-07-01T14:27:16Z</time>
      </trkpt>
      <trkpt lat="48.6264910" lon="1.5593860">
        <ele>82.8</ele>
        <time>2020-07-01T14:27:22Z</time>
      </trkpt>
      <trkpt lat="48.6264450" lon="1.5594030">
        <ele>82.8</ele>
        <time>2020-07-01T14:27:23Z</time>
      </trkpt>
      <trkpt lat="48.6260780" lon="1.5595930">
        <ele>82.6</ele>
        <time>2020-07-01T14:27:30Z</time>
      </trkpt>
      <trkpt lat="48.6255540" lon="1.5599020">
        <ele>81.6</ele>
        <time>2020-07-01T14:27:40Z</time>
      </trkpt>
      <trkpt lat="48.6255070" lon="1.5599320">
        <ele>81.6</ele>
        <time>2020-07-01T14:27:41Z</time>
      </trkpt>
      <trkpt lat="48.6251440" lon="1.5601840">
        <ele>81.0</ele>
        <time>2020-07-01T14:27:48Z</time>
      </trkpt>
      <trkpt lat="48.6250970" lon="1.5602330">
        <ele>81.0</ele>
        <time>2020-07-01T14:27:49Z</time>
      </trkpt>
      <trkpt lat="48.6249280" lon="1.5604790">
        <ele>80.8</ele>
        <time>2020-07-01T14:27:53Z</time>
      </trkpt>
      <trkpt lat="48.6248490" lon="1.5606130">
        <ele>81.0</ele>
        <time>2020-07-01T14:27:55Z</time>
      </trkpt>
      <trkpt lat="48.6247240" lon="1.5609300">
        <ele>80.8</ele>
        <time>2020-07-01T14:27:59Z</time>
      </trkpt>
      <trkpt lat="48.6245250" lon="1.5613550">
        <ele>80.6</ele>
        <time>2020-07-01T14:28:05Z</time>
      </trkpt>
      <trkpt lat="48.6244930" lon="1.5614210">
        <ele>80.8</ele>
        <time>2020-07-01T14:28:06Z</time>
      </trkpt>
      <trkpt lat="48.6244550" lon="1.5614840">
        <ele>80.6</ele>
        <time>2020-07-01T14:28:07Z</time>
      </trkpt>
      <trkpt lat="48.6243700" lon="1.5615850">
        <ele>80.4</ele>
        <time>2020-07-01T14:28:09Z</time>
      </trkpt>
      <trkpt lat="48.6243210" lon="1.5616210">
        <ele>80.4</ele>
        <time>2020-07-01T14:28:10Z</time>
      </trkpt>
      <trkpt lat="48.6242730" lon="1.5616490">
        <ele>80.2</ele>
        <time>2020-07-01T14:28:11Z</time>
      </trkpt>
      <trkpt lat="48.6242300" lon="1.5616690">
        <ele>80.2</ele>
        <time>2020-07-01T14:28:12Z</time>
      </trkpt>
      <trkpt lat="48.6241850" lon="1.5616750">
        <ele>80.0</ele>
        <time>2020-07-01T14:28:13Z</time>
      </trkpt>
      <trkpt lat="48.6241450" lon="1.5616740">
        <ele>80.0</ele>
        <time>2020-07-01T14:28:14Z</time>
      </trkpt>
      <trkpt lat="48.6241030" lon="1.5616650">
        <ele>80.2</ele>
        <time>2020-07-01T14:28:15Z</time>
      </trkpt>
      <trkpt lat="48.6240600" lon="1.5616500">
        <ele>79.8</ele>
        <time>2020-07-01T14:28:16Z</time>
      </trkpt>
      <trkpt lat="48.6240120" lon="1.5616350">
        <ele>80.0</ele>
        <time>2020-07-01T14:28:17Z</time>
      </trkpt>
      <trkpt lat="48.6238310" lon="1.5615590">
        <ele>79.8</ele>
        <time>2020-07-01T14:28:21Z</time>
      </trkpt>
      <trkpt lat="48.6235930" lon="1.5614080">
        <ele>80.0</ele>
        <time>2020-07-01T14:28:26Z</time>
      </trkpt>
      <trkpt lat="48.6234340" lon="1.5612710">
        <ele>80.0</ele>
        <time>2020-07-01T14:28:31Z</time>
      </trkpt>
      <trkpt lat="48.6234710" lon="1.5612020">
        <ele>80.2</ele>
        <time>2020-07-01T14:28:35Z</time>
      </trkpt>
      <trkpt lat="48.6234760" lon="1.5611780">
        <ele>80.6</ele>
        <time>2020-07-01T14:28:36Z</time>
      </trkpt>
      <trkpt lat="48.6234920" lon="1.5610290">
        <ele>80.8</ele>
        <time>2020-07-01T14:28:40Z</time>
      </trkpt>
      <trkpt lat="48.6235370" lon="1.5608820">
        <ele>81.0</ele>
        <time>2020-07-01T14:28:47Z</time>
      </trkpt>
      <trkpt lat="48.6235340" lon="1.5608850">
        <ele>81.0</ele>
        <time>2020-07-01T14:29:00Z</time>
      </trkpt>
      <trkpt lat="48.6235340" lon="1.5608980">
        <ele>80.8</ele>
        <time>2020-07-01T14:29:27Z</time>
      </trkpt>
      <trkpt lat="48.6235370" lon="1.5609090">
        <ele>81.0</ele>
        <time>2020-07-01T14:29:56Z</time>
      </trkpt>
      <trkpt lat="48.6235360" lon="1.5609090">
        <ele>81.2</ele>
        <time>2020-07-01T14:30:20Z</time>
      </trkpt>
      <trkpt lat="48.6235400" lon="1.5609020">
        <ele>81.2</ele>
        <time>2020-07-01T14:30:37Z</time>
      </trkpt>
      <trkpt lat="48.6235480" lon="1.5609310">
        <ele>81.2</ele>
        <time>2020-07-01T14:30:52Z</time>
      </trkpt>
      <trkpt lat="48.6235480" lon="1.5609340">
        <ele>81.4</ele>
        <time>2020-07-01T14:31:12Z</time>
      </trkpt>
      <trkpt lat="48.6235430" lon="1.5609420">
        <ele>81.2</ele>
        <time>2020-07-01T14:31:39Z</time>
      </trkpt>
      <trkpt lat="48.6235400" lon="1.5609360">
        <ele>81.2</ele>
        <time>2020-07-01T14:32:02Z</time>
      </trkpt>
      <trkpt lat="48.6235350" lon="1.5609340">
        <ele>81.2</ele>
        <time>2020-07-01T14:32:26Z</time>
      </trkpt>
      <trkpt lat="48.6235310" lon="1.5609360">
        <ele>81.2</ele>
        <time>2020-07-01T14:32:47Z</time>
      </trkpt>
      <trkpt lat="48.6235260" lon="1.5609360">
        <ele>81.0</ele>
        <time>2020-07-01T14:33:19Z</time>
      </trkpt>
      <trkpt lat="48.6235300" lon="1.5609320">
        <ele>81.2</ele>
        <time>2020-07-01T14:33:44Z</time>
      </trkpt>
      <trkpt lat="48.6235240" lon="1.5609260">
        <ele>81.6</ele>
        <time>2020-07-01T14:34:10Z</time>
      </trkpt>
      <trkpt lat="48.6235190" lon="1.5609230">
        <ele>81.2</ele>
        <time>2020-07-01T14:34:40Z</time>
      </trkpt>
      <trkpt lat="48.6235210" lon="1.5609210">
        <ele>81.2</ele>
        <time>2020-07-01T14:35:04Z</time>
      </trkpt>
      <trkpt lat="48.6235180" lon="1.5609210">
        <ele>81.0</ele>
        <time>2020-07-01T14:35:32Z</time>
      </trkpt>
      <trkpt lat="48.6235150" lon="1.5609220">
        <ele>81.0</ele>
        <time>2020-07-01T14:35:50Z</time>
      </trkpt>
      <trkpt lat="48.6235140" lon="1.5609290">
        <ele>81.2</ele>
        <time>2020-07-01T14:36:09Z</time>
      </trkpt>
      <trkpt lat="48.6235130" lon="1.5609180">
        <ele>81.0</ele>
        <time>2020-07-01T14:36:26Z</time>
      </trkpt>
      <trkpt lat="48.6235120" lon="1.5609070">
        <ele>80.8</ele>
        <time>2020-07-01T14:36:51Z</time>
      </trkpt>
      <trkpt lat="48.6235120" lon="1.5608950">
        <ele>81.2</ele>
        <time>2020-07-01T14:37:18Z</time>
      </trkpt>
      <trkpt lat="48.6235140" lon="1.5608910">
        <ele>81.0</ele>
        <time>2020-07-01T14:37:44Z</time>
      </trkpt>
      <trkpt lat="48.6235120" lon="1.5608940">
        <ele>81.0</ele>
        <time>2020-07-01T14:38:18Z</time>
      </trkpt>
      <trkpt lat="48.6235100" lon="1.5609030">
        <ele>80.8</ele>
        <time>2020-07-01T14:38:48Z</time>
      </trkpt>
      <trkpt lat="48.6235140" lon="1.5609130">
        <ele>80.8</ele>
        <time>2020-07-01T14:39:16Z</time>
      </trkpt>
      <trkpt lat="48.6235140" lon="1.5609180">
        <ele>80.6</ele>
        <time>2020-07-01T14:39:44Z</time>
      </trkpt>
      <trkpt lat="48.6235190" lon="1.5609190">
        <ele>80.8</ele>
        <time>2020-07-01T14:40:16Z</time>
      </trkpt>
      <trkpt lat="48.6235220" lon="1.5609200">
        <ele>81.2</ele>
        <time>2020-07-01T14:40:49Z</time>
      </trkpt>
      <trkpt lat="48.6235240" lon="1.5609230">
        <ele>81.0</ele>
        <time>2020-07-01T14:41:19Z</time>
      </trkpt>
      <trkpt lat="48.6235260" lon="1.5609160">
        <ele>81.0</ele>
        <time>2020-07-01T14:41:47Z</time>
      </trkpt>
      <trkpt lat="48.6235180" lon="1.5609250">
        <ele>81.0</ele>
        <time>2020-07-01T14:42:21Z</time>
      </trkpt>
      <trkpt lat="48.6235090" lon="1.5609330">
        <ele>81.2</ele>
        <time>2020-07-01T14:42:56Z</time>
      </trkpt>
      <trkpt lat="48.6235050" lon="1.5609370">
        <ele>81.0</ele>
        <time>2020-07-01T14:43:33Z</time>
      </trkpt>
      <trkpt lat="48.6235050" lon="1.5609370">
        <ele>81.0</ele>
        <time>2020-07-01T14:43:34Z</time>
      </trkpt>
      <trkpt lat="48.6235180" lon="1.5609340">
        <ele>81.4</ele>
        <time>2020-07-01T14:43:53Z</time>
      </trkpt>
      <trkpt lat="48.6235230" lon="1.5609390">
        <ele>81.0</ele>
        <time>2020-07-01T14:44:23Z</time>
      </trkpt>
      <trkpt lat="48.6235260" lon="1.5609410">
        <ele>81.2</ele>
        <time>2020-07-01T14:44:49Z</time>
      </trkpt>
      <trkpt lat="48.6235160" lon="1.5609440">
        <ele>81.0</ele>
        <time>2020-07-01T14:45:20Z</time>
      </trkpt>
      <trkpt lat="48.6235110" lon="1.5609500">
        <ele>81.6</ele>
        <time>2020-07-01T14:45:49Z</time>
      </trkpt>
      <trkpt lat="48.6235130" lon="1.5609590">
        <ele>81.2</ele>
        <time>2020-07-01T14:46:26Z</time>
      </trkpt>
      <trkpt lat="48.6235140" lon="1.5609760">
        <ele>81.2</ele>
        <time>2020-07-01T14:47:02Z</time>
      </trkpt>
      <trkpt lat="48.6235100" lon="1.5609780">
        <ele>81.4</ele>
        <time>2020-07-01T14:47:26Z</time>
      </trkpt>
      <trkpt lat="48.6235120" lon="1.5609970">
        <ele>81.4</ele>
        <time>2020-07-01T14:47:30Z</time>
      </trkpt>
      <trkpt lat="48.6235050" lon="1.5610390">
        <ele>81.4</ele>
        <time>2020-07-01T14:47:47Z</time>
      </trkpt>
      <trkpt lat="48.6234940" lon="1.5610480">
        <ele>81.2</ele>
        <time>2020-07-01T14:48:09Z</time>
      </trkpt>
      <trkpt lat="48.6234940" lon="1.5610480">
        <ele>81.2</ele>
        <time>2020-07-01T14:48:37Z</time>
      </trkpt>
      <trkpt lat="48.6234900" lon="1.5610470">
        <ele>81.2</ele>
        <time>2020-07-01T14:49:10Z</time>
      </trkpt>
      <trkpt lat="48.6234900" lon="1.5610490">
        <ele>81.0</ele>
        <time>2020-07-01T14:49:39Z</time>
      </trkpt>
      <trkpt lat="48.6234890" lon="1.5610530">
        <ele>81.0</ele>
        <time>2020-07-01T14:50:13Z</time>
      </trkpt>
      <trkpt lat="48.6234990" lon="1.5611940">
        <ele>81.0</ele>
        <time>2020-07-01T14:50:27Z</time>
      </trkpt>
      <trkpt lat="48.6234950" lon="1.5613190">
        <ele>81.8</ele>
        <time>2020-07-01T14:50:38Z</time>
      </trkpt>
      <trkpt lat="48.6234720" lon="1.5613360">
        <ele>82.0</ele>
        <time>2020-07-01T14:50:42Z</time>
      </trkpt>
      <trkpt lat="48.6234600" lon="1.5613030">
        <ele>82.4</ele>
        <time>2020-07-01T14:50:53Z</time>
      </trkpt>
      <trkpt lat="48.6234460" lon="1.5613030">
        <ele>82.2</ele>
        <time>2020-07-01T14:51:08Z</time>
      </trkpt>
      <trkpt lat="48.6233990" lon="1.5612930">
        <ele>82.2</ele>
        <time>2020-07-01T14:51:13Z</time>
      </trkpt>
      <trkpt lat="48.6233400" lon="1.5612780">
        <ele>82.0</ele>
        <time>2020-07-01T14:51:16Z</time>
      </trkpt>
      <trkpt lat="48.6232120" lon="1.5612320">
        <ele>82.2</ele>
        <time>2020-07-01T14:51:20Z</time>
      </trkpt>
      <trkpt lat="48.6231740" lon="1.5612160">
        <ele>82.2</ele>
        <time>2020-07-01T14:51:21Z</time>
      </trkpt>
      <trkpt lat="48.6228990" lon="1.5611110">
        <ele>81.6</ele>
        <time>2020-07-01T14:51:28Z</time>
      </trkpt>
      <trkpt lat="48.6227880" lon="1.5610350">
        <ele>81.4</ele>
        <time>2020-07-01T14:51:31Z</time>
      </trkpt>
      <trkpt lat="48.6227510" lon="1.5610100">
        <ele>81.0</ele>
        <time>2020-07-01T14:51:32Z</time>
      </trkpt>
      <trkpt lat="48.6225960" lon="1.5609250">
        <ele>80.6</ele>
        <time>2020-07-01T14:51:36Z</time>
      </trkpt>
      <trkpt lat="48.6224730" lon="1.5608580">
        <ele>80.4</ele>
        <time>2020-07-01T14:51:39Z</time>
      </trkpt>
      <trkpt lat="48.6223440" lon="1.5608070">
        <ele>80.4</ele>
        <time>2020-07-01T14:51:42Z</time>
      </trkpt>
      <trkpt lat="48.6222170" lon="1.5607590">
        <ele>80.0</ele>
        <time>2020-07-01T14:51:45Z</time>
      </trkpt>
      <trkpt lat="48.6221730" lon="1.5607430">
        <ele>80.0</ele>
        <time>2020-07-01T14:51:46Z</time>
      </trkpt>
      <trkpt lat="48.6219650" lon="1.5606820">
        <ele>80.4</ele>
        <time>2020-07-01T14:51:52Z</time>
      </trkpt>
      <trkpt lat="48.6219110" lon="1.5607070">
        <ele>80.4</ele>
        <time>2020-07-01T14:51:54Z</time>
      </trkpt>
      <trkpt lat="48.6218350" lon="1.5607820">
        <ele>80.6</ele>
        <time>2020-07-01T14:51:57Z</time>
      </trkpt>
      <trkpt lat="48.6216820" lon="1.5609680">
        <ele>81.0</ele>
        <time>2020-07-01T14:52:02Z</time>
      </trkpt>
      <trkpt lat="48.6216500" lon="1.5610100">
        <ele>81.2</ele>
        <time>2020-07-01T14:52:03Z</time>
      </trkpt>
      <trkpt lat="48.6214280" lon="1.5613270">
        <ele>82.0</ele>
        <time>2020-07-01T14:52:10Z</time>
      </trkpt>
      <trkpt lat="48.6212650" lon="1.5616520">
        <ele>82.0</ele>
        <time>2020-07-01T14:52:16Z</time>
      </trkpt>
      <trkpt lat="48.6210860" lon="1.5621090">
        <ele>82.2</ele>
        <time>2020-07-01T14:52:24Z</time>
      </trkpt>
      <trkpt lat="48.6210040" lon="1.5623600">
        <ele>82.2</ele>
        <time>2020-07-01T14:52:28Z</time>
      </trkpt>
      <trkpt lat="48.6209600" lon="1.5624830">
        <ele>82.2</ele>
        <time>2020-07-01T14:52:30Z</time>
      </trkpt>
      <trkpt lat="48.6209380" lon="1.5625450">
        <ele>82.0</ele>
        <time>2020-07-01T14:52:31Z</time>
      </trkpt>
      <trkpt lat="48.6209110" lon="1.5626060">
        <ele>82.2</ele>
        <time>2020-07-01T14:52:32Z</time>
      </trkpt>
      <trkpt lat="48.6208800" lon="1.5626620">
        <ele>82.2</ele>
        <time>2020-07-01T14:52:33Z</time>
      </trkpt>
      <trkpt lat="48.6208250" lon="1.5627670">
        <ele>82.2</ele>
        <time>2020-07-01T14:52:35Z</time>
      </trkpt>
      <trkpt lat="48.6206210" lon="1.5631620">
        <ele>83.4</ele>
        <time>2020-07-01T14:52:43Z</time>
      </trkpt>
      <trkpt lat="48.6205460" lon="1.5632990">
        <ele>83.6</ele>
        <time>2020-07-01T14:52:46Z</time>
      </trkpt>
      <trkpt lat="48.6203510" lon="1.5636270">
        <ele>84.4</ele>
        <time>2020-07-01T14:52:54Z</time>
      </trkpt>
      <trkpt lat="48.6202850" lon="1.5637500">
        <ele>84.8</ele>
        <time>2020-07-01T14:52:57Z</time>
      </trkpt>
      <trkpt lat="48.6200800" lon="1.5640670">
        <ele>85.6</ele>
        <time>2020-07-01T14:53:05Z</time>
      </trkpt>
      <trkpt lat="48.6200530" lon="1.5640980">
        <ele>85.8</ele>
        <time>2020-07-01T14:53:06Z</time>
      </trkpt>
      <trkpt lat="48.6199000" lon="1.5641900">
        <ele>86.4</ele>
        <time>2020-07-01T14:53:12Z</time>
      </trkpt>
      <trkpt lat="48.6198550" lon="1.5642150">
        <ele>86.6</ele>
        <time>2020-07-01T14:53:14Z</time>
      </trkpt>
      <trkpt lat="48.6197580" lon="1.5642630">
        <ele>87.2</ele>
        <time>2020-07-01T14:53:18Z</time>
      </trkpt>
      <trkpt lat="48.6196540" lon="1.5642490">
        <ele>87.8</ele>
        <time>2020-07-01T14:53:22Z</time>
      </trkpt>
      <trkpt lat="48.6195090" lon="1.5641970">
        <ele>88.6</ele>
        <time>2020-07-01T14:53:27Z</time>
      </trkpt>
      <trkpt lat="48.6194570" lon="1.5641820">
        <ele>88.8</ele>
        <time>2020-07-01T14:53:29Z</time>
      </trkpt>
      <trkpt lat="48.6192370" lon="1.5641960">
        <ele>89.6</ele>
        <time>2020-07-01T14:53:37Z</time>
      </trkpt>
      <trkpt lat="48.6191020" lon="1.5642430">
        <ele>90.2</ele>
        <time>2020-07-01T14:53:41Z</time>
      </trkpt>
      <trkpt lat="48.6189330" lon="1.5643040">
        <ele>90.6</ele>
        <time>2020-07-01T14:53:46Z</time>
      </trkpt>
      <trkpt lat="48.6186570" lon="1.5644070">
        <ele>91.4</ele>
        <time>2020-07-01T14:53:54Z</time>
      </trkpt>
      <trkpt lat="48.6185470" lon="1.5644220">
        <ele>91.4</ele>
        <time>2020-07-01T14:53:57Z</time>
      </trkpt>
      <trkpt lat="48.6183300" lon="1.5644590">
        <ele>91.8</ele>
        <time>2020-07-01T14:54:03Z</time>
      </trkpt>
      <trkpt lat="48.6179620" lon="1.5645330">
        <ele>92.2</ele>
        <time>2020-07-01T14:54:12Z</time>
      </trkpt>
      <trkpt lat="48.6179180" lon="1.5645410">
        <ele>92.2</ele>
        <time>2020-07-01T14:54:13Z</time>
      </trkpt>
      <trkpt lat="48.6175400" lon="1.5646040">
        <ele>92.0</ele>
        <time>2020-07-01T14:54:21Z</time>
      </trkpt>
      <trkpt lat="48.6173190" lon="1.5646590">
        <ele>91.4</ele>
        <time>2020-07-01T14:54:25Z</time>
      </trkpt>
      <trkpt lat="48.6172630" lon="1.5646730">
        <ele>91.2</ele>
        <time>2020-07-01T14:54:26Z</time>
      </trkpt>
      <trkpt lat="48.6170900" lon="1.5647080">
        <ele>91.0</ele>
        <time>2020-07-01T14:54:29Z</time>
      </trkpt>
      <trkpt lat="48.6170300" lon="1.5647200">
        <ele>91.0</ele>
        <time>2020-07-01T14:54:30Z</time>
      </trkpt>
      <trkpt lat="48.6167330" lon="1.5648370">
        <ele>90.0</ele>
        <time>2020-07-01T14:54:35Z</time>
      </trkpt>
      <trkpt lat="48.6166730" lon="1.5648710">
        <ele>89.4</ele>
        <time>2020-07-01T14:54:36Z</time>
      </trkpt>
      <trkpt lat="48.6163500" lon="1.5649660">
        <ele>87.6</ele>
        <time>2020-07-01T14:54:41Z</time>
      </trkpt>
      <trkpt lat="48.6162840" lon="1.5649560">
        <ele>87.4</ele>
        <time>2020-07-01T14:54:42Z</time>
      </trkpt>
      <trkpt lat="48.6162160" lon="1.5649390">
        <ele>87.0</ele>
        <time>2020-07-01T14:54:43Z</time>
      </trkpt>
      <trkpt lat="48.6158780" lon="1.5649060">
        <ele>86.0</ele>
        <time>2020-07-01T14:54:48Z</time>
      </trkpt>
      <trkpt lat="48.6156620" lon="1.5648860">
        <ele>85.6</ele>
        <time>2020-07-01T14:54:51Z</time>
      </trkpt>
      <trkpt lat="48.6153570" lon="1.5648370">
        <ele>84.4</ele>
        <time>2020-07-01T14:54:55Z</time>
      </trkpt>
      <trkpt lat="48.6152800" lon="1.5648220">
        <ele>84.0</ele>
        <time>2020-07-01T14:54:56Z</time>
      </trkpt>
      <trkpt lat="48.6150550" lon="1.5647770">
        <ele>82.8</ele>
        <time>2020-07-01T14:54:59Z</time>
      </trkpt>
      <trkpt lat="48.6147840" lon="1.5647450">
        <ele>81.8</ele>
        <time>2020-07-01T14:55:03Z</time>
      </trkpt>
      <trkpt lat="48.6147210" lon="1.5647400">
        <ele>81.2</ele>
        <time>2020-07-01T14:55:04Z</time>
      </trkpt>
      <trkpt lat="48.6143730" lon="1.5647640">
        <ele>80.0</ele>
        <time>2020-07-01T14:55:10Z</time>
      </trkpt>
      <trkpt lat="48.6139160" lon="1.5648410">
        <ele>80.2</ele>
        <time>2020-07-01T14:55:18Z</time>
      </trkpt>
      <trkpt lat="48.6137540" lon="1.5648990">
        <ele>80.4</ele>
        <time>2020-07-01T14:55:21Z</time>
      </trkpt>
      <trkpt lat="48.6133830" lon="1.5650520">
        <ele>80.6</ele>
        <time>2020-07-01T14:55:28Z</time>
      </trkpt>
      <trkpt lat="48.6133300" lon="1.5650750">
        <ele>80.8</ele>
        <time>2020-07-01T14:55:29Z</time>
      </trkpt>
      <trkpt lat="48.6127810" lon="1.5652280">
        <ele>81.2</ele>
        <time>2020-07-01T14:55:39Z</time>
      </trkpt>
      <trkpt lat="48.6127210" lon="1.5652410">
        <ele>81.2</ele>
        <time>2020-07-01T14:55:40Z</time>
      </trkpt>
      <trkpt lat="48.6124130" lon="1.5653350">
        <ele>81.2</ele>
        <time>2020-07-01T14:55:45Z</time>
      </trkpt>
      <trkpt lat="48.6121630" lon="1.5654230">
        <ele>81.2</ele>
        <time>2020-07-01T14:55:49Z</time>
      </trkpt>
      <trkpt lat="48.6121010" lon="1.5654460">
        <ele>81.0</ele>
        <time>2020-07-01T14:55:50Z</time>
      </trkpt>
      <trkpt lat="48.6116770" lon="1.5655990">
        <ele>80.8</ele>
        <time>2020-07-01T14:55:57Z</time>
      </trkpt>
      <trkpt lat="48.6115610" lon="1.5656420">
        <ele>80.8</ele>
        <time>2020-07-01T14:55:59Z</time>
      </trkpt>
      <trkpt lat="48.6114480" lon="1.5656860">
        <ele>80.8</ele>
        <time>2020-07-01T14:56:01Z</time>
      </trkpt>
      <trkpt lat="48.6109030" lon="1.5658880">
        <ele>81.4</ele>
        <time>2020-07-01T14:56:11Z</time>
      </trkpt>
      <trkpt lat="48.6108500" lon="1.5659100">
        <ele>81.2</ele>
        <time>2020-07-01T14:56:12Z</time>
      </trkpt>
      <trkpt lat="48.6107430" lon="1.5659520">
        <ele>81.4</ele>
        <time>2020-07-01T14:56:14Z</time>
      </trkpt>
      <trkpt lat="48.6103300" lon="1.5661050">
        <ele>82.0</ele>
        <time>2020-07-01T14:56:22Z</time>
      </trkpt>
      <trkpt lat="48.6099020" lon="1.5662540">
        <ele>82.8</ele>
        <time>2020-07-01T14:56:31Z</time>
      </trkpt>
      <trkpt lat="48.6094740" lon="1.5663610">
        <ele>83.0</ele>
        <time>2020-07-01T14:56:39Z</time>
      </trkpt>
      <trkpt lat="48.6092020" lon="1.5664120">
        <ele>82.4</ele>
        <time>2020-07-01T14:56:44Z</time>
      </trkpt>
      <trkpt lat="48.6089870" lon="1.5664490">
        <ele>82.0</ele>
        <time>2020-07-01T14:56:48Z</time>
      </trkpt>
      <trkpt lat="48.6088810" lon="1.5664720">
        <ele>81.6</ele>
        <time>2020-07-01T14:56:50Z</time>
      </trkpt>
      <trkpt lat="48.6086210" lon="1.5666260">
        <ele>81.2</ele>
        <time>2020-07-01T14:56:56Z</time>
      </trkpt>
      <trkpt lat="48.6083920" lon="1.5669160">
        <ele>81.4</ele>
        <time>2020-07-01T14:57:02Z</time>
      </trkpt>
      <trkpt lat="48.6083510" lon="1.5669730">
        <ele>81.4</ele>
        <time>2020-07-01T14:57:03Z</time>
      </trkpt>
      <trkpt lat="48.6081750" lon="1.5672420">
        <ele>81.8</ele>
        <time>2020-07-01T14:57:08Z</time>
      </trkpt>
      <trkpt lat="48.6080460" lon="1.5674320">
        <ele>82.4</ele>
        <time>2020-07-01T14:57:12Z</time>
      </trkpt>
      <trkpt lat="48.6080170" lon="1.5674740">
        <ele>82.6</ele>
        <time>2020-07-01T14:57:13Z</time>
      </trkpt>
      <trkpt lat="48.6077340" lon="1.5677930">
        <ele>84.2</ele>
        <time>2020-07-01T14:57:21Z</time>
      </trkpt>
      <trkpt lat="48.6077000" lon="1.5678350">
        <ele>84.2</ele>
        <time>2020-07-01T14:57:22Z</time>
      </trkpt>
      <trkpt lat="48.6076180" lon="1.5679030">
        <ele>84.4</ele>
        <time>2020-07-01T14:57:24Z</time>
      </trkpt>
      <trkpt lat="48.6074410" lon="1.5680260">
        <ele>85.2</ele>
        <time>2020-07-01T14:57:28Z</time>
      </trkpt>
      <trkpt lat="48.6073940" lon="1.5680540">
        <ele>85.4</ele>
        <time>2020-07-01T14:57:29Z</time>
      </trkpt>
      <trkpt lat="48.6070670" lon="1.5682420">
        <ele>86.4</ele>
        <time>2020-07-01T14:57:36Z</time>
      </trkpt>
      <trkpt lat="48.6068990" lon="1.5683250">
        <ele>87.4</ele>
        <time>2020-07-01T14:57:40Z</time>
      </trkpt>
      <trkpt lat="48.6064800" lon="1.5685180">
        <ele>88.2</ele>
        <time>2020-07-01T14:57:49Z</time>
      </trkpt>
      <trkpt lat="48.6059090" lon="1.5687480">
        <ele>88.6</ele>
        <time>2020-07-01T14:58:00Z</time>
      </trkpt>
      <trkpt lat="48.6056830" lon="1.5688470">
        <ele>88.6</ele>
        <time>2020-07-01T14:58:04Z</time>
      </trkpt>
      <trkpt lat="48.6052900" lon="1.5690430">
        <ele>88.8</ele>
        <time>2020-07-01T14:58:11Z</time>
      </trkpt>
      <trkpt lat="48.6052360" lon="1.5690750">
        <ele>89.0</ele>
        <time>2020-07-01T14:58:12Z</time>
      </trkpt>
      <trkpt lat="48.6051280" lon="1.5691330">
        <ele>89.2</ele>
        <time>2020-07-01T14:58:14Z</time>
      </trkpt>
      <trkpt lat="48.6048660" lon="1.5692520">
        <ele>89.8</ele>
        <time>2020-07-01T14:58:19Z</time>
      </trkpt>
      <trkpt lat="48.6047050" lon="1.5693260">
        <ele>90.0</ele>
        <time>2020-07-01T14:58:22Z</time>
      </trkpt>
      <trkpt lat="48.6044480" lon="1.5694580">
        <ele>90.2</ele>
        <time>2020-07-01T14:58:27Z</time>
      </trkpt>
      <trkpt lat="48.6043110" lon="1.5695420">
        <ele>90.8</ele>
        <time>2020-07-01T14:58:30Z</time>
      </trkpt>
      <trkpt lat="48.6038750" lon="1.5697390">
        <ele>91.6</ele>
        <time>2020-07-01T14:58:40Z</time>
      </trkpt>
      <trkpt lat="48.6037740" lon="1.5697640">
        <ele>91.6</ele>
        <time>2020-07-01T14:58:42Z</time>
      </trkpt>
      <trkpt lat="48.6035500" lon="1.5698130">
        <ele>91.6</ele>
        <time>2020-07-01T14:58:46Z</time>
      </trkpt>
      <trkpt lat="48.6033700" lon="1.5698400">
        <ele>91.6</ele>
        <time>2020-07-01T14:58:49Z</time>
      </trkpt>
      <trkpt lat="48.6029080" lon="1.5698950">
        <ele>88.8</ele>
        <time>2020-07-01T14:58:56Z</time>
      </trkpt>
      <trkpt lat="48.6023740" lon="1.5699840">
        <ele>86.6</ele>
        <time>2020-07-01T14:59:05Z</time>
      </trkpt>
      <trkpt lat="48.6023130" lon="1.5699920">
        <ele>86.6</ele>
        <time>2020-07-01T14:59:06Z</time>
      </trkpt>
      <trkpt lat="48.6017420" lon="1.5701560">
        <ele>85.6</ele>
        <time>2020-07-01T14:59:16Z</time>
      </trkpt>
      <trkpt lat="48.6015210" lon="1.5702320">
        <ele>85.6</ele>
        <time>2020-07-01T14:59:20Z</time>
      </trkpt>
      <trkpt lat="48.6010870" lon="1.5703930">
        <ele>85.6</ele>
        <time>2020-07-01T14:59:28Z</time>
      </trkpt>
      <trkpt lat="48.6006680" lon="1.5705450">
        <ele>85.6</ele>
        <time>2020-07-01T14:59:36Z</time>
      </trkpt>
      <trkpt lat="48.6006180" lon="1.5705480">
        <ele>85.6</ele>
        <time>2020-07-01T14:59:37Z</time>
      </trkpt>
      <trkpt lat="48.6005680" lon="1.5705440">
        <ele>85.6</ele>
        <time>2020-07-01T14:59:38Z</time>
      </trkpt>
      <trkpt lat="48.6005160" lon="1.5705350">
        <ele>85.6</ele>
        <time>2020-07-01T14:59:39Z</time>
      </trkpt>
      <trkpt lat="48.6004620" lon="1.5705360">
        <ele>85.8</ele>
        <time>2020-07-01T14:59:40Z</time>
      </trkpt>
      <trkpt lat="48.6003630" lon="1.5705790">
        <ele>85.8</ele>
        <time>2020-07-01T14:59:42Z</time>
      </trkpt>
      <trkpt lat="48.6003220" lon="1.5706180">
        <ele>85.6</ele>
        <time>2020-07-01T14:59:43Z</time>
      </trkpt>
      <trkpt lat="48.6000170" lon="1.5708600">
        <ele>85.6</ele>
        <time>2020-07-01T14:59:50Z</time>
      </trkpt>
      <trkpt lat="48.5999160" lon="1.5709280">
        <ele>85.6</ele>
        <time>2020-07-01T14:59:52Z</time>
      </trkpt>
      <trkpt lat="48.5994930" lon="1.5712000">
        <ele>85.4</ele>
        <time>2020-07-01T15:00:00Z</time>
      </trkpt>
      <trkpt lat="48.5993310" lon="1.5713170">
        <ele>84.8</ele>
        <time>2020-07-01T15:00:03Z</time>
      </trkpt>
      <trkpt lat="48.5991130" lon="1.5714970">
        <ele>84.4</ele>
        <time>2020-07-01T15:00:07Z</time>
      </trkpt>
      <trkpt lat="48.5990050" lon="1.5716060">
        <ele>84.2</ele>
        <time>2020-07-01T15:00:09Z</time>
      </trkpt>
      <trkpt lat="48.5986650" lon="1.5720540">
        <ele>82.8</ele>
        <time>2020-07-01T15:00:16Z</time>
      </trkpt>
      <trkpt lat="48.5983370" lon="1.5726580">
        <ele>82.2</ele>
        <time>2020-07-01T15:00:24Z</time>
      </trkpt>
      <trkpt lat="48.5980190" lon="1.5733750">
        <ele>82.0</ele>
        <time>2020-07-01T15:00:34Z</time>
      </trkpt>
      <trkpt lat="48.5978570" lon="1.5738110">
        <ele>82.2</ele>
        <time>2020-07-01T15:00:40Z</time>
      </trkpt>
      <trkpt lat="48.5977510" lon="1.5740960">
        <ele>82.4</ele>
        <time>2020-07-01T15:00:44Z</time>
      </trkpt>
      <trkpt lat="48.5976670" lon="1.5742990">
        <ele>82.8</ele>
        <time>2020-07-01T15:00:47Z</time>
      </trkpt>
      <trkpt lat="48.5974720" lon="1.5746820">
        <ele>83.6</ele>
        <time>2020-07-01T15:00:53Z</time>
      </trkpt>
      <trkpt lat="48.5972170" lon="1.5751420">
        <ele>84.8</ele>
        <time>2020-07-01T15:01:00Z</time>
      </trkpt>
      <trkpt lat="48.5968870" lon="1.5756270">
        <ele>84.6</ele>
        <time>2020-07-01T15:01:08Z</time>
      </trkpt>
      <trkpt lat="48.5964580" lon="1.5761550">
        <ele>84.4</ele>
        <time>2020-07-01T15:01:18Z</time>
      </trkpt>
      <trkpt lat="48.5964160" lon="1.5762080">
        <ele>84.4</ele>
        <time>2020-07-01T15:01:19Z</time>
      </trkpt>
      <trkpt lat="48.5963390" lon="1.5763200">
        <ele>84.4</ele>
        <time>2020-07-01T15:01:21Z</time>
      </trkpt>
      <trkpt lat="48.5960560" lon="1.5767330">
        <ele>85.4</ele>
        <time>2020-07-01T15:01:29Z</time>
      </trkpt>
      <trkpt lat="48.5960270" lon="1.5767710">
        <ele>85.4</ele>
        <time>2020-07-01T15:01:30Z</time>
      </trkpt>
      <trkpt lat="48.5959170" lon="1.5769190">
        <ele>86.0</ele>
        <time>2020-07-01T15:01:35Z</time>
      </trkpt>
      <trkpt lat="48.5957650" lon="1.5771280">
        <ele>87.2</ele>
        <time>2020-07-01T15:01:42Z</time>
      </trkpt>
      <trkpt lat="48.5957170" lon="1.5772120">
        <ele>87.4</ele>
        <time>2020-07-01T15:01:44Z</time>
      </trkpt>
      <trkpt lat="48.5955400" lon="1.5774780">
        <ele>87.8</ele>
        <time>2020-07-01T15:01:50Z</time>
      </trkpt>
      <trkpt lat="48.5952140" lon="1.5779580">
        <ele>88.0</ele>
        <time>2020-07-01T15:02:00Z</time>
      </trkpt>
      <trkpt lat="48.5948670" lon="1.5783380">
        <ele>87.8</ele>
        <time>2020-07-01T15:02:09Z</time>
      </trkpt>
      <trkpt lat="48.5948300" lon="1.5783800">
        <ele>87.8</ele>
        <time>2020-07-01T15:02:10Z</time>
      </trkpt>
      <trkpt lat="48.5944650" lon="1.5786860">
        <ele>87.4</ele>
        <time>2020-07-01T15:02:18Z</time>
      </trkpt>
      <trkpt lat="48.5941660" lon="1.5789970">
        <ele>87.4</ele>
        <time>2020-07-01T15:02:25Z</time>
      </trkpt>
      <trkpt lat="48.5938490" lon="1.5793780">
        <ele>87.4</ele>
        <time>2020-07-01T15:02:33Z</time>
      </trkpt>
      <trkpt lat="48.5936430" lon="1.5796000">
        <ele>87.6</ele>
        <time>2020-07-01T15:02:38Z</time>
      </trkpt>
      <trkpt lat="48.5935000" lon="1.5797730">
        <ele>87.8</ele>
        <time>2020-07-01T15:02:42Z</time>
      </trkpt>
      <trkpt lat="48.5934660" lon="1.5798200">
        <ele>88.0</ele>
        <time>2020-07-01T15:02:43Z</time>
      </trkpt>
      <trkpt lat="48.5931510" lon="1.5802060">
        <ele>88.6</ele>
        <time>2020-07-01T15:02:52Z</time>
      </trkpt>
      <trkpt lat="48.5928940" lon="1.5804750">
        <ele>89.4</ele>
        <time>2020-07-01T15:02:59Z</time>
      </trkpt>
      <trkpt lat="48.5928570" lon="1.5805120">
        <ele>89.4</ele>
        <time>2020-07-01T15:03:00Z</time>
      </trkpt>
      <trkpt lat="48.5926350" lon="1.5808030">
        <ele>89.6</ele>
        <time>2020-07-01T15:03:07Z</time>
      </trkpt>
      <trkpt lat="48.5925390" lon="1.5809280">
        <ele>90.2</ele>
        <time>2020-07-01T15:03:10Z</time>
      </trkpt>
      <trkpt lat="48.5925050" lon="1.5809700">
        <ele>90.4</ele>
        <time>2020-07-01T15:03:11Z</time>
      </trkpt>
      <trkpt lat="48.5921910" lon="1.5814040">
        <ele>91.4</ele>
        <time>2020-07-01T15:03:21Z</time>
      </trkpt>
      <trkpt lat="48.5921260" lon="1.5815020">
        <ele>91.6</ele>
        <time>2020-07-01T15:03:23Z</time>
      </trkpt>
      <trkpt lat="48.5918540" lon="1.5819250">
        <ele>92.4</ele>
        <time>2020-07-01T15:03:31Z</time>
      </trkpt>
      <trkpt lat="48.5917970" lon="1.5820490">
        <ele>92.4</ele>
        <time>2020-07-01T15:03:33Z</time>
      </trkpt>
      <trkpt lat="48.5915060" lon="1.5825810">
        <ele>91.8</ele>
        <time>2020-07-01T15:03:43Z</time>
      </trkpt>
      <trkpt lat="48.5914040" lon="1.5827500">
        <ele>91.6</ele>
        <time>2020-07-01T15:03:48Z</time>
      </trkpt>
      <trkpt lat="48.5913870" lon="1.5827610">
        <ele>91.6</ele>
        <time>2020-07-01T15:03:49Z</time>
      </trkpt>
      <trkpt lat="48.5913680" lon="1.5827570">
        <ele>91.6</ele>
        <time>2020-07-01T15:03:50Z</time>
      </trkpt>
      <trkpt lat="48.5913490" lon="1.5827370">
        <ele>91.4</ele>
        <time>2020-07-01T15:03:51Z</time>
      </trkpt>
      <trkpt lat="48.5913260" lon="1.5827070">
        <ele>91.4</ele>
        <time>2020-07-01T15:03:52Z</time>
      </trkpt>
      <trkpt lat="48.5913000" lon="1.5826680">
        <ele>91.4</ele>
        <time>2020-07-01T15:03:53Z</time>
      </trkpt>
      <trkpt lat="48.5912750" lon="1.5826150">
        <ele>91.4</ele>
        <time>2020-07-01T15:03:54Z</time>
      </trkpt>
      <trkpt lat="48.5912160" lon="1.5824950">
        <ele>91.2</ele>
        <time>2020-07-01T15:03:56Z</time>
      </trkpt>
      <trkpt lat="48.5911860" lon="1.5824280">
        <ele>91.2</ele>
        <time>2020-07-01T15:03:57Z</time>
      </trkpt>
      <trkpt lat="48.5911150" lon="1.5823010">
        <ele>91.0</ele>
        <time>2020-07-01T15:03:59Z</time>
      </trkpt>
      <trkpt lat="48.5909950" lon="1.5820790">
        <ele>90.0</ele>
        <time>2020-07-01T15:04:02Z</time>
      </trkpt>
      <trkpt lat="48.5909530" lon="1.5819990">
        <ele>89.8</ele>
        <time>2020-07-01T15:04:03Z</time>
      </trkpt>
      <trkpt lat="48.5908340" lon="1.5817430">
        <ele>88.6</ele>
        <time>2020-07-01T15:04:06Z</time>
      </trkpt>
      <trkpt lat="48.5907950" lon="1.5816560">
        <ele>87.8</ele>
        <time>2020-07-01T15:04:07Z</time>
      </trkpt>
      <trkpt lat="48.5906960" lon="1.5813840">
        <ele>86.4</ele>
        <time>2020-07-01T15:04:10Z</time>
      </trkpt>
      <trkpt lat="48.5905170" lon="1.5808880">
        <ele>84.4</ele>
        <time>2020-07-01T15:04:16Z</time>
      </trkpt>
      <trkpt lat="48.5904910" lon="1.5808260">
        <ele>84.0</ele>
        <time>2020-07-01T15:04:17Z</time>
      </trkpt>
      <trkpt lat="48.5903090" lon="1.5804460">
        <ele>82.8</ele>
        <time>2020-07-01T15:04:23Z</time>
      </trkpt>
      <trkpt lat="48.5900400" lon="1.5800660">
        <ele>82.6</ele>
        <time>2020-07-01T15:04:30Z</time>
      </trkpt>
      <trkpt lat="48.5899640" lon="1.5799770">
        <ele>82.6</ele>
        <time>2020-07-01T15:04:32Z</time>
      </trkpt>
      <trkpt lat="48.5898690" lon="1.5798430">
        <ele>82.4</ele>
        <time>2020-07-01T15:04:35Z</time>
      </trkpt>
      <trkpt lat="48.5898370" lon="1.5798080">
        <ele>82.6</ele>
        <time>2020-07-01T15:04:36Z</time>
      </trkpt>
      <trkpt lat="48.5896510" lon="1.5796420">
        <ele>83.0</ele>
        <time>2020-07-01T15:04:43Z</time>
      </trkpt>
      <trkpt lat="48.5896170" lon="1.5796190">
        <ele>83.0</ele>
        <time>2020-07-01T15:04:47Z</time>
      </trkpt>
      <trkpt lat="48.5896160" lon="1.5796190">
        <ele>83.2</ele>
        <time>2020-07-01T15:04:48Z</time>
      </trkpt>
      <trkpt lat="48.5896140" lon="1.5796180">
        <ele>83.4</ele>
        <time>2020-07-01T15:04:53Z</time>
      </trkpt>
      <trkpt lat="48.5895750" lon="1.5796170">
        <ele>83.8</ele>
        <time>2020-07-01T15:04:58Z</time>
      </trkpt>
      <trkpt lat="48.5895580" lon="1.5796410">
        <ele>83.8</ele>
        <time>2020-07-01T15:05:00Z</time>
      </trkpt>
      <trkpt lat="48.5895420" lon="1.5797390">
        <ele>83.8</ele>
        <time>2020-07-01T15:05:04Z</time>
      </trkpt>
      <trkpt lat="48.5895740" lon="1.5800680">
        <ele>84.2</ele>
        <time>2020-07-01T15:05:12Z</time>
      </trkpt>
      <trkpt lat="48.5896140" lon="1.5804000">
        <ele>84.4</ele>
        <time>2020-07-01T15:05:19Z</time>
      </trkpt>
      <trkpt lat="48.5896420" lon="1.5804950">
        <ele>84.8</ele>
        <time>2020-07-01T15:05:21Z</time>
      </trkpt>
      <trkpt lat="48.5897610" lon="1.5808850">
        <ele>85.6</ele>
        <time>2020-07-01T15:05:30Z</time>
      </trkpt>
      <trkpt lat="48.5897670" lon="1.5809220">
        <ele>85.8</ele>
        <time>2020-07-01T15:05:31Z</time>
      </trkpt>
      <trkpt lat="48.5897970" lon="1.5811610">
        <ele>86.4</ele>
        <time>2020-07-01T15:05:38Z</time>
      </trkpt>
      <trkpt lat="48.5898040" lon="1.5811820">
        <ele>86.4</ele>
        <time>2020-07-01T15:05:39Z</time>
      </trkpt>
      <trkpt lat="48.5898320" lon="1.5811930">
        <ele>86.6</ele>
        <time>2020-07-01T15:05:41Z</time>
      </trkpt>
      <trkpt lat="48.5898450" lon="1.5811760">
        <ele>86.6</ele>
        <time>2020-07-01T15:05:42Z</time>
      </trkpt>
      <trkpt lat="48.5898550" lon="1.5810160">
        <ele>87.0</ele>
        <time>2020-07-01T15:05:47Z</time>
      </trkpt>
      <trkpt lat="48.5898300" lon="1.5809360">
        <ele>86.8</ele>
        <time>2020-07-01T15:05:49Z</time>
      </trkpt>
      <trkpt lat="48.5897750" lon="1.5807470">
        <ele>86.8</ele>
        <time>2020-07-01T15:05:53Z</time>
      </trkpt>
      <trkpt lat="48.5897630" lon="1.5806880">
        <ele>86.8</ele>
        <time>2020-07-01T15:05:54Z</time>
      </trkpt>
      <trkpt lat="48.5897240" lon="1.5804110">
        <ele>85.8</ele>
        <time>2020-07-01T15:05:58Z</time>
      </trkpt>
      <trkpt lat="48.5897140" lon="1.5803300">
        <ele>85.6</ele>
        <time>2020-07-01T15:05:59Z</time>
      </trkpt>
      <trkpt lat="48.5896340" lon="1.5798110">
        <ele>83.8</ele>
        <time>2020-07-01T15:06:06Z</time>
      </trkpt>
      <trkpt lat="48.5895490" lon="1.5795350">
        <ele>83.4</ele>
        <time>2020-07-01T15:06:12Z</time>
      </trkpt>
      <trkpt lat="48.5895370" lon="1.5794980">
        <ele>83.6</ele>
        <time>2020-07-01T15:06:14Z</time>
      </trkpt>
      <trkpt lat="48.5895190" lon="1.5794750">
        <ele>83.4</ele>
        <time>2020-07-01T15:06:17Z</time>
      </trkpt>
      <trkpt lat="48.5894650" lon="1.5794670">
        <ele>83.6</ele>
        <time>2020-07-01T15:06:23Z</time>
      </trkpt>
      <trkpt lat="48.5894530" lon="1.5794870">
        <ele>83.6</ele>
        <time>2020-07-01T15:06:24Z</time>
      </trkpt>
      <trkpt lat="48.5894380" lon="1.5795100">
        <ele>83.6</ele>
        <time>2020-07-01T15:06:25Z</time>
      </trkpt>
      <trkpt lat="48.5893660" lon="1.5796690">
        <ele>83.6</ele>
        <time>2020-07-01T15:06:29Z</time>
      </trkpt>
      <trkpt lat="48.5891890" lon="1.5801010">
        <ele>82.8</ele>
        <time>2020-07-01T15:06:37Z</time>
      </trkpt>
      <trkpt lat="48.5889600" lon="1.5805710">
        <ele>82.6</ele>
        <time>2020-07-01T15:06:45Z</time>
      </trkpt>
      <trkpt lat="48.5888660" lon="1.5808620">
        <ele>82.6</ele>
        <time>2020-07-01T15:06:50Z</time>
      </trkpt>
      <trkpt lat="48.5888400" lon="1.5809860">
        <ele>82.4</ele>
        <time>2020-07-01T15:06:52Z</time>
      </trkpt>
      <trkpt lat="48.5886440" lon="1.5815210">
        <ele>82.6</ele>
        <time>2020-07-01T15:07:01Z</time>
      </trkpt>
      <trkpt lat="48.5885750" lon="1.5816910">
        <ele>82.4</ele>
        <time>2020-07-01T15:07:04Z</time>
      </trkpt>
      <trkpt lat="48.5883930" lon="1.5821040">
        <ele>82.8</ele>
        <time>2020-07-01T15:07:11Z</time>
      </trkpt>
      <trkpt lat="48.5881540" lon="1.5826660">
        <ele>82.8</ele>
        <time>2020-07-01T15:07:20Z</time>
      </trkpt>
      <trkpt lat="48.5879110" lon="1.5832360">
        <ele>82.6</ele>
        <time>2020-07-01T15:07:29Z</time>
      </trkpt>
      <trkpt lat="48.5876000" lon="1.5838280">
        <ele>82.6</ele>
        <time>2020-07-01T15:07:39Z</time>
      </trkpt>
      <trkpt lat="48.5875780" lon="1.5838870">
        <ele>82.8</ele>
        <time>2020-07-01T15:07:40Z</time>
      </trkpt>
      <trkpt lat="48.5874490" lon="1.5842570">
        <ele>83.0</ele>
        <time>2020-07-01T15:07:46Z</time>
      </trkpt>
      <trkpt lat="48.5873830" lon="1.5844300">
        <ele>83.4</ele>
        <time>2020-07-01T15:07:49Z</time>
      </trkpt>
      <trkpt lat="48.5872690" lon="1.5847230">
        <ele>83.6</ele>
        <time>2020-07-01T15:07:54Z</time>
      </trkpt>
      <trkpt lat="48.5872240" lon="1.5848410">
        <ele>83.8</ele>
        <time>2020-07-01T15:07:56Z</time>
      </trkpt>
      <trkpt lat="48.5870630" lon="1.5852150">
        <ele>85.0</ele>
        <time>2020-07-01T15:08:03Z</time>
      </trkpt>
      <trkpt lat="48.5870420" lon="1.5852690">
        <ele>85.0</ele>
        <time>2020-07-01T15:08:04Z</time>
      </trkpt>
      <trkpt lat="48.5869190" lon="1.5855470">
        <ele>85.8</ele>
        <time>2020-07-01T15:08:09Z</time>
      </trkpt>
      <trkpt lat="48.5868920" lon="1.5856020">
        <ele>85.8</ele>
        <time>2020-07-01T15:08:10Z</time>
      </trkpt>
      <trkpt lat="48.5868680" lon="1.5856590">
        <ele>86.0</ele>
        <time>2020-07-01T15:08:11Z</time>
      </trkpt>
      <trkpt lat="48.5867200" lon="1.5859940">
        <ele>87.0</ele>
        <time>2020-07-01T15:08:18Z</time>
      </trkpt>
      <trkpt lat="48.5867000" lon="1.5860430">
        <ele>87.2</ele>
        <time>2020-07-01T15:08:19Z</time>
      </trkpt>
      <trkpt lat="48.5865690" lon="1.5863370">
        <ele>87.6</ele>
        <time>2020-07-01T15:08:25Z</time>
      </trkpt>
      <trkpt lat="48.5865240" lon="1.5864420">
        <ele>88.0</ele>
        <time>2020-07-01T15:08:27Z</time>
      </trkpt>
      <trkpt lat="48.5863960" lon="1.5867380">
        <ele>89.0</ele>
        <time>2020-07-01T15:08:33Z</time>
      </trkpt>
      <trkpt lat="48.5863820" lon="1.5867910">
        <ele>89.2</ele>
        <time>2020-07-01T15:08:34Z</time>
      </trkpt>
      <trkpt lat="48.5862180" lon="1.5870590">
        <ele>89.8</ele>
        <time>2020-07-01T15:08:40Z</time>
      </trkpt>
      <trkpt lat="48.5859180" lon="1.5873170">
        <ele>90.8</ele>
        <time>2020-07-01T15:08:48Z</time>
      </trkpt>
      <trkpt lat="48.5856040" lon="1.5876440">
        <ele>90.8</ele>
        <time>2020-07-01T15:08:56Z</time>
      </trkpt>
      <trkpt lat="48.5855170" lon="1.5877520">
        <ele>91.0</ele>
        <time>2020-07-01T15:08:58Z</time>
      </trkpt>
      <trkpt lat="48.5853120" lon="1.5879830">
        <ele>90.6</ele>
        <time>2020-07-01T15:09:02Z</time>
      </trkpt>
      <trkpt lat="48.5848850" lon="1.5884520">
        <ele>89.0</ele>
        <time>2020-07-01T15:09:10Z</time>
      </trkpt>
      <trkpt lat="48.5845010" lon="1.5888920">
        <ele>88.4</ele>
        <time>2020-07-01T15:09:18Z</time>
      </trkpt>
      <trkpt lat="48.5844590" lon="1.5889430">
        <ele>88.2</ele>
        <time>2020-07-01T15:09:19Z</time>
      </trkpt>
      <trkpt lat="48.5842700" lon="1.5891080">
        <ele>88.4</ele>
        <time>2020-07-01T15:09:23Z</time>
      </trkpt>
      <trkpt lat="48.5841340" lon="1.5892400">
        <ele>88.8</ele>
        <time>2020-07-01T15:09:26Z</time>
      </trkpt>
      <trkpt lat="48.5840370" lon="1.5893270">
        <ele>89.8</ele>
        <time>2020-07-01T15:09:28Z</time>
      </trkpt>
      <trkpt lat="48.5837400" lon="1.5895820">
        <ele>90.0</ele>
        <time>2020-07-01T15:09:34Z</time>
      </trkpt>
      <trkpt lat="48.5836870" lon="1.5896250">
        <ele>89.8</ele>
        <time>2020-07-01T15:09:35Z</time>
      </trkpt>
      <trkpt lat="48.5835240" lon="1.5897470">
        <ele>90.0</ele>
        <time>2020-07-01T15:09:38Z</time>
      </trkpt>
      <trkpt lat="48.5832460" lon="1.5899800">
        <ele>89.2</ele>
        <time>2020-07-01T15:09:43Z</time>
      </trkpt>
      <trkpt lat="48.5827680" lon="1.5903160">
        <ele>87.2</ele>
        <time>2020-07-01T15:09:50Z</time>
      </trkpt>
      <trkpt lat="48.5824260" lon="1.5904860">
        <ele>86.2</ele>
        <time>2020-07-01T15:09:55Z</time>
      </trkpt>
      <trkpt lat="48.5821460" lon="1.5906170">
        <ele>85.2</ele>
        <time>2020-07-01T15:09:59Z</time>
      </trkpt>
      <trkpt lat="48.5816170" lon="1.5908530">
        <ele>84.0</ele>
        <time>2020-07-01T15:10:07Z</time>
      </trkpt>
      <trkpt lat="48.5811500" lon="1.5910580">
        <ele>83.6</ele>
        <time>2020-07-01T15:10:14Z</time>
      </trkpt>
      <trkpt lat="48.5810090" lon="1.5911300">
        <ele>83.4</ele>
        <time>2020-07-01T15:10:16Z</time>
      </trkpt>
      <trkpt lat="48.5808730" lon="1.5911980">
        <ele>83.4</ele>
        <time>2020-07-01T15:10:18Z</time>
      </trkpt>
      <trkpt lat="48.5806910" lon="1.5912940">
        <ele>83.4</ele>
        <time>2020-07-01T15:10:21Z</time>
      </trkpt>
      <trkpt lat="48.5804740" lon="1.5914260">
        <ele>83.8</ele>
        <time>2020-07-01T15:10:25Z</time>
      </trkpt>
      <trkpt lat="48.5804220" lon="1.5914570">
        <ele>84.0</ele>
        <time>2020-07-01T15:10:26Z</time>
      </trkpt>
      <trkpt lat="48.5800470" lon="1.5916740">
        <ele>85.4</ele>
        <time>2020-07-01T15:10:34Z</time>
      </trkpt>
      <trkpt lat="48.5800000" lon="1.5917000">
        <ele>85.6</ele>
        <time>2020-07-01T15:10:35Z</time>
      </trkpt>
      <trkpt lat="48.5794830" lon="1.5919960">
        <ele>87.2</ele>
        <time>2020-07-01T15:10:46Z</time>
      </trkpt>
      <trkpt lat="48.5794360" lon="1.5920220">
        <ele>87.2</ele>
        <time>2020-07-01T15:10:47Z</time>
      </trkpt>
      <trkpt lat="48.5793420" lon="1.5920730">
        <ele>87.2</ele>
        <time>2020-07-01T15:10:49Z</time>
      </trkpt>
      <trkpt lat="48.5788540" lon="1.5922860">
        <ele>88.0</ele>
        <time>2020-07-01T15:10:59Z</time>
      </trkpt>
      <trkpt lat="48.5784310" lon="1.5924410">
        <ele>88.2</ele>
        <time>2020-07-01T15:11:08Z</time>
      </trkpt>
      <trkpt lat="48.5782920" lon="1.5925000">
        <ele>88.4</ele>
        <time>2020-07-01T15:11:11Z</time>
      </trkpt>
      <trkpt lat="48.5779410" lon="1.5926140">
        <ele>88.8</ele>
        <time>2020-07-01T15:11:18Z</time>
      </trkpt>
      <trkpt lat="48.5777410" lon="1.5926740">
        <ele>89.2</ele>
        <time>2020-07-01T15:11:22Z</time>
      </trkpt>
      <trkpt lat="48.5771690" lon="1.5928570">
        <ele>89.2</ele>
        <time>2020-07-01T15:11:33Z</time>
      </trkpt>
      <trkpt lat="48.5771160" lon="1.5928760">
        <ele>89.4</ele>
        <time>2020-07-01T15:11:34Z</time>
      </trkpt>
      <trkpt lat="48.5768140" lon="1.5930180">
        <ele>89.4</ele>
        <time>2020-07-01T15:11:40Z</time>
      </trkpt>
      <trkpt lat="48.5766050" lon="1.5931280">
        <ele>89.6</ele>
        <time>2020-07-01T15:11:44Z</time>
      </trkpt>
      <trkpt lat="48.5762810" lon="1.5932900">
        <ele>90.0</ele>
        <time>2020-07-01T15:11:50Z</time>
      </trkpt>
      <trkpt lat="48.5759730" lon="1.5934460">
        <ele>90.2</ele>
        <time>2020-07-01T15:11:56Z</time>
      </trkpt>
      <trkpt lat="48.5758140" lon="1.5934850">
        <ele>90.2</ele>
        <time>2020-07-01T15:11:59Z</time>
      </trkpt>
      <trkpt lat="48.5756010" lon="1.5934890">
        <ele>90.2</ele>
        <time>2020-07-01T15:12:03Z</time>
      </trkpt>
      <trkpt lat="48.5753150" lon="1.5934660">
        <ele>90.2</ele>
        <time>2020-07-01T15:12:08Z</time>
      </trkpt>
      <trkpt lat="48.5750280" lon="1.5934410">
        <ele>90.0</ele>
        <time>2020-07-01T15:12:13Z</time>
      </trkpt>
      <trkpt lat="48.5744310" lon="1.5933930">
        <ele>89.2</ele>
        <time>2020-07-01T15:12:23Z</time>
      </trkpt>
      <trkpt lat="48.5743060" lon="1.5933880">
        <ele>89.2</ele>
        <time>2020-07-01T15:12:25Z</time>
      </trkpt>
      <trkpt lat="48.5737510" lon="1.5933760">
        <ele>88.8</ele>
        <time>2020-07-01T15:12:34Z</time>
      </trkpt>
      <trkpt lat="48.5736260" lon="1.5933700">
        <ele>88.6</ele>
        <time>2020-07-01T15:12:36Z</time>
      </trkpt>
      <trkpt lat="48.5730820" lon="1.5933310">
        <ele>88.4</ele>
        <time>2020-07-01T15:12:45Z</time>
      </trkpt>
      <trkpt lat="48.5727780" lon="1.5933090">
        <ele>88.4</ele>
        <time>2020-07-01T15:12:50Z</time>
      </trkpt>
      <trkpt lat="48.5727170" lon="1.5933060">
        <ele>88.2</ele>
        <time>2020-07-01T15:12:51Z</time>
      </trkpt>
      <trkpt lat="48.5721650" lon="1.5932840">
        <ele>88.2</ele>
        <time>2020-07-01T15:13:00Z</time>
      </trkpt>
      <trkpt lat="48.5720500" lon="1.5932770">
        <ele>88.2</ele>
        <time>2020-07-01T15:13:02Z</time>
      </trkpt>
      <trkpt lat="48.5719920" lon="1.5932750">
        <ele>88.2</ele>
        <time>2020-07-01T15:13:03Z</time>
      </trkpt>
      <trkpt lat="48.5717520" lon="1.5932660">
        <ele>88.2</ele>
        <time>2020-07-01T15:13:07Z</time>
      </trkpt>
      <trkpt lat="48.5715780" lon="1.5932410">
        <ele>88.2</ele>
        <time>2020-07-01T15:13:10Z</time>
      </trkpt>
      <trkpt lat="48.5712800" lon="1.5931910">
        <ele>88.8</ele>
        <time>2020-07-01T15:13:15Z</time>
      </trkpt>
      <trkpt lat="48.5707360" lon="1.5930830">
        <ele>89.0</ele>
        <time>2020-07-01T15:13:24Z</time>
      </trkpt>
      <trkpt lat="48.5706800" lon="1.5930680">
        <ele>89.0</ele>
        <time>2020-07-01T15:13:25Z</time>
      </trkpt>
      <trkpt lat="48.5700880" lon="1.5929560">
        <ele>88.2</ele>
        <time>2020-07-01T15:13:35Z</time>
      </trkpt>
      <trkpt lat="48.5700260" lon="1.5929480">
        <ele>88.0</ele>
        <time>2020-07-01T15:13:36Z</time>
      </trkpt>
      <trkpt lat="48.5699630" lon="1.5929360">
        <ele>88.2</ele>
        <time>2020-07-01T15:13:37Z</time>
      </trkpt>
      <trkpt lat="48.5693900" lon="1.5928510">
        <ele>87.4</ele>
        <time>2020-07-01T15:13:46Z</time>
      </trkpt>
      <trkpt lat="48.5691960" lon="1.5928330">
        <ele>86.8</ele>
        <time>2020-07-01T15:13:49Z</time>
      </trkpt>
      <trkpt lat="48.5691310" lon="1.5928320">
        <ele>86.6</ele>
        <time>2020-07-01T15:13:50Z</time>
      </trkpt>
      <trkpt lat="48.5686130" lon="1.5928520">
        <ele>86.0</ele>
        <time>2020-07-01T15:13:58Z</time>
      </trkpt>
      <trkpt lat="48.5681060" lon="1.5929540">
        <ele>85.0</ele>
        <time>2020-07-01T15:14:06Z</time>
      </trkpt>
      <trkpt lat="48.5675910" lon="1.5930170">
        <ele>85.0</ele>
        <time>2020-07-01T15:14:14Z</time>
      </trkpt>
      <trkpt lat="48.5674090" lon="1.5930370">
        <ele>85.0</ele>
        <time>2020-07-01T15:14:17Z</time>
      </trkpt>
      <trkpt lat="48.5671760" lon="1.5930490">
        <ele>85.4</ele>
        <time>2020-07-01T15:14:21Z</time>
      </trkpt>
      <trkpt lat="48.5669480" lon="1.5930270">
        <ele>86.0</ele>
        <time>2020-07-01T15:14:25Z</time>
      </trkpt>
      <trkpt lat="48.5667840" lon="1.5929700">
        <ele>86.4</ele>
        <time>2020-07-01T15:14:28Z</time>
      </trkpt>
      <trkpt lat="48.5662360" lon="1.5927060">
        <ele>87.2</ele>
        <time>2020-07-01T15:14:38Z</time>
      </trkpt>
      <trkpt lat="48.5660700" lon="1.5926240">
        <ele>87.4</ele>
        <time>2020-07-01T15:14:41Z</time>
      </trkpt>
      <trkpt lat="48.5655200" lon="1.5923410">
        <ele>87.6</ele>
        <time>2020-07-01T15:14:51Z</time>
      </trkpt>
      <trkpt lat="48.5652960" lon="1.5922370">
        <ele>87.6</ele>
        <time>2020-07-01T15:14:55Z</time>
      </trkpt>
      <trkpt lat="48.5651810" lon="1.5921820">
        <ele>87.6</ele>
        <time>2020-07-01T15:14:57Z</time>
      </trkpt>
      <trkpt lat="48.5646110" lon="1.5919210">
        <ele>88.0</ele>
        <time>2020-07-01T15:15:07Z</time>
      </trkpt>
      <trkpt lat="48.5644420" lon="1.5918530">
        <ele>88.0</ele>
        <time>2020-07-01T15:15:10Z</time>
      </trkpt>
      <trkpt lat="48.5638790" lon="1.5916270">
        <ele>87.8</ele>
        <time>2020-07-01T15:15:20Z</time>
      </trkpt>
      <trkpt lat="48.5635930" lon="1.5915160">
        <ele>87.6</ele>
        <time>2020-07-01T15:15:25Z</time>
      </trkpt>
      <trkpt lat="48.5631370" lon="1.5913380">
        <ele>87.8</ele>
        <time>2020-07-01T15:15:33Z</time>
      </trkpt>
      <trkpt lat="48.5626780" lon="1.5911580">
        <ele>88.2</ele>
        <time>2020-07-01T15:15:41Z</time>
      </trkpt>
      <trkpt lat="48.5624470" lon="1.5910740">
        <ele>88.0</ele>
        <time>2020-07-01T15:15:45Z</time>
      </trkpt>
      <trkpt lat="48.5622220" lon="1.5909890">
        <ele>88.0</ele>
        <time>2020-07-01T15:15:49Z</time>
      </trkpt>
      <trkpt lat="48.5619000" lon="1.5908600">
        <ele>88.0</ele>
        <time>2020-07-01T15:15:55Z</time>
      </trkpt>
      <trkpt lat="48.5617030" lon="1.5907690">
        <ele>88.0</ele>
        <time>2020-07-01T15:16:00Z</time>
      </trkpt>
      <trkpt lat="48.5616590" lon="1.5906970">
        <ele>88.0</ele>
        <time>2020-07-01T15:16:05Z</time>
      </trkpt>
      <trkpt lat="48.5616660" lon="1.5906920">
        <ele>88.0</ele>
        <time>2020-07-01T15:16:15Z</time>
      </trkpt>
      <trkpt lat="48.5616850" lon="1.5906860">
        <ele>87.8</ele>
        <time>2020-07-01T15:16:36Z</time>
      </trkpt>
      <trkpt lat="48.5616970" lon="1.5906830">
        <ele>88.0</ele>
        <time>2020-07-01T15:17:04Z</time>
      </trkpt>
      <trkpt lat="48.5617060" lon="1.5906820">
        <ele>88.2</ele>
        <time>2020-07-01T15:17:24Z</time>
      </trkpt>
      <trkpt lat="48.5617130" lon="1.5906770">
        <ele>88.4</ele>
        <time>2020-07-01T15:17:51Z</time>
      </trkpt>
      <trkpt lat="48.5617200" lon="1.5906800">
        <ele>88.4</ele>
        <time>2020-07-01T15:18:14Z</time>
      </trkpt>
      <trkpt lat="48.5617300" lon="1.5906790">
        <ele>88.8</ele>
        <time>2020-07-01T15:18:45Z</time>
      </trkpt>
      <trkpt lat="48.5617360" lon="1.5906630">
        <ele>88.6</ele>
        <time>2020-07-01T15:19:18Z</time>
      </trkpt>
      <trkpt lat="48.5617460" lon="1.5906620">
        <ele>88.8</ele>
        <time>2020-07-01T15:19:52Z</time>
      </trkpt>
      <trkpt lat="48.5617520" lon="1.5906640">
        <ele>88.8</ele>
        <time>2020-07-01T15:20:20Z</time>
      </trkpt>
      <trkpt lat="48.5617560" lon="1.5906670">
        <ele>88.4</ele>
        <time>2020-07-01T15:20:40Z</time>
      </trkpt>
      <trkpt lat="48.5617670" lon="1.5906710">
        <ele>88.6</ele>
        <time>2020-07-01T15:21:13Z</time>
      </trkpt>
      <trkpt lat="48.5617650" lon="1.5906670">
        <ele>88.2</ele>
        <time>2020-07-01T15:21:38Z</time>
      </trkpt>
      <trkpt lat="48.5617650" lon="1.5906660">
        <ele>88.4</ele>
        <time>2020-07-01T15:21:39Z</time>
      </trkpt>
      <trkpt lat="48.5617650" lon="1.5906660">
        <ele>88.4</ele>
        <time>2020-07-01T15:21:40Z</time>
      </trkpt>
      <trkpt lat="48.5617650" lon="1.5906660">
        <ele>88.4</ele>
        <time>2020-07-01T15:21:41Z</time>
      </trkpt>
      <trkpt lat="48.5617680" lon="1.5906580">
        <ele>89.2</ele>
        <time>2020-07-01T15:22:11Z</time>
      </trkpt>
      <trkpt lat="48.5617740" lon="1.5906530">
        <ele>88.8</ele>
        <time>2020-07-01T15:22:44Z</time>
      </trkpt>
      <trkpt lat="48.5617460" lon="1.5906790">
        <ele>88.8</ele>
        <time>2020-07-01T15:23:08Z</time>
      </trkpt>
      <trkpt lat="48.5617170" lon="1.5907260">
        <ele>88.8</ele>
        <time>2020-07-01T15:23:19Z</time>
      </trkpt>
      <trkpt lat="48.5616420" lon="1.5907600">
        <ele>88.8</ele>
        <time>2020-07-01T15:23:28Z</time>
      </trkpt>
      <trkpt lat="48.5616300" lon="1.5907590">
        <ele>88.6</ele>
        <time>2020-07-01T15:23:29Z</time>
      </trkpt>
      <trkpt lat="48.5614960" lon="1.5907540">
        <ele>88.8</ele>
        <time>2020-07-01T15:23:36Z</time>
      </trkpt>
      <trkpt lat="48.5612730" lon="1.5906820">
        <ele>88.8</ele>
        <time>2020-07-01T15:23:44Z</time>
      </trkpt>
      <trkpt lat="48.5609220" lon="1.5905300">
        <ele>89.0</ele>
        <time>2020-07-01T15:23:54Z</time>
      </trkpt>
      <trkpt lat="48.5606270" lon="1.5904000">
        <ele>88.4</ele>
        <time>2020-07-01T15:24:02Z</time>
      </trkpt>
      <trkpt lat="48.5604310" lon="1.5903110">
        <ele>88.4</ele>
        <time>2020-07-01T15:24:07Z</time>
      </trkpt>
      <trkpt lat="48.5598760" lon="1.5900880">
        <ele>88.4</ele>
        <time>2020-07-01T15:24:19Z</time>
      </trkpt>
      <trkpt lat="48.5593530" lon="1.5898830">
        <ele>89.0</ele>
        <time>2020-07-01T15:24:29Z</time>
      </trkpt>
      <trkpt lat="48.5587890" lon="1.5896670">
        <ele>89.2</ele>
        <time>2020-07-01T15:24:40Z</time>
      </trkpt>
      <trkpt lat="48.5585880" lon="1.5895790">
        <ele>88.8</ele>
        <time>2020-07-01T15:24:44Z</time>
      </trkpt>
      <trkpt lat="48.5580490" lon="1.5893680">
        <ele>88.6</ele>
        <time>2020-07-01T15:24:55Z</time>
      </trkpt>
      <trkpt lat="48.5579530" lon="1.5893270">
        <ele>88.6</ele>
        <time>2020-07-01T15:24:57Z</time>
      </trkpt>
      <trkpt lat="48.5574070" lon="1.5891000">
        <ele>88.6</ele>
        <time>2020-07-01T15:25:08Z</time>
      </trkpt>
      <trkpt lat="48.5572500" lon="1.5890410">
        <ele>88.6</ele>
        <time>2020-07-01T15:25:11Z</time>
      </trkpt>
      <trkpt lat="48.5567180" lon="1.5888610">
        <ele>88.8</ele>
        <time>2020-07-01T15:25:21Z</time>
      </trkpt>
      <trkpt lat="48.5566050" lon="1.5888240">
        <ele>88.8</ele>
        <time>2020-07-01T15:25:23Z</time>
      </trkpt>
      <trkpt lat="48.5562360" lon="1.5886880">
        <ele>88.4</ele>
        <time>2020-07-01T15:25:30Z</time>
      </trkpt>
      <trkpt lat="48.5558730" lon="1.5885930">
        <ele>88.0</ele>
        <time>2020-07-01T15:25:36Z</time>
      </trkpt>
      <trkpt lat="48.5557480" lon="1.5885660">
        <ele>88.0</ele>
        <time>2020-07-01T15:25:38Z</time>
      </trkpt>
      <trkpt lat="48.5555280" lon="1.5885190">
        <ele>87.8</ele>
        <time>2020-07-01T15:25:42Z</time>
      </trkpt>
      <trkpt lat="48.5550920" lon="1.5884660">
        <ele>87.4</ele>
        <time>2020-07-01T15:25:50Z</time>
      </trkpt>
      <trkpt lat="48.5550350" lon="1.5884600">
        <ele>87.4</ele>
        <time>2020-07-01T15:25:51Z</time>
      </trkpt>
      <trkpt lat="48.5544680" lon="1.5883920">
        <ele>86.8</ele>
        <time>2020-07-01T15:26:01Z</time>
      </trkpt>
      <trkpt lat="48.5539760" lon="1.5883060">
        <ele>86.8</ele>
        <time>2020-07-01T15:26:10Z</time>
      </trkpt>
      <trkpt lat="48.5534800" lon="1.5882370">
        <ele>86.8</ele>
        <time>2020-07-01T15:26:19Z</time>
      </trkpt>
      <trkpt lat="48.5529230" lon="1.5881850">
        <ele>86.6</ele>
        <time>2020-07-01T15:26:29Z</time>
      </trkpt>
      <trkpt lat="48.5528640" lon="1.5881900">
        <ele>86.6</ele>
        <time>2020-07-01T15:26:30Z</time>
      </trkpt>
      <trkpt lat="48.5527510" lon="1.5882030">
        <ele>86.6</ele>
        <time>2020-07-01T15:26:32Z</time>
      </trkpt>
      <trkpt lat="48.5523410" lon="1.5882400">
        <ele>86.0</ele>
        <time>2020-07-01T15:26:40Z</time>
      </trkpt>
      <trkpt lat="48.5522370" lon="1.5882540">
        <ele>86.0</ele>
        <time>2020-07-01T15:26:42Z</time>
      </trkpt>
      <trkpt lat="48.5519150" lon="1.5882600">
        <ele>86.0</ele>
        <time>2020-07-01T15:26:48Z</time>
      </trkpt>
      <trkpt lat="48.5515470" lon="1.5883220">
        <ele>86.0</ele>
        <time>2020-07-01T15:26:55Z</time>
      </trkpt>
      <trkpt lat="48.5513820" lon="1.5883420">
        <ele>86.0</ele>
        <time>2020-07-01T15:26:58Z</time>
      </trkpt>
      <trkpt lat="48.5509860" lon="1.5883490">
        <ele>86.0</ele>
        <time>2020-07-01T15:27:05Z</time>
      </trkpt>
      <trkpt lat="48.5507650" lon="1.5883200">
        <ele>85.6</ele>
        <time>2020-07-01T15:27:09Z</time>
      </trkpt>
      <trkpt lat="48.5503190" lon="1.5882270">
        <ele>85.6</ele>
        <time>2020-07-01T15:27:17Z</time>
      </trkpt>
      <trkpt lat="48.5497490" lon="1.5880110">
        <ele>86.0</ele>
        <time>2020-07-01T15:27:28Z</time>
      </trkpt>
      <trkpt lat="48.5496500" lon="1.5879600">
        <ele>86.0</ele>
        <time>2020-07-01T15:27:30Z</time>
      </trkpt>
      <trkpt lat="48.5492160" lon="1.5876630">
        <ele>86.2</ele>
        <time>2020-07-01T15:27:39Z</time>
      </trkpt>
      <trkpt lat="48.5491700" lon="1.5876310">
        <ele>86.2</ele>
        <time>2020-07-01T15:27:40Z</time>
      </trkpt>
      <trkpt lat="48.5489460" lon="1.5874660">
        <ele>86.4</ele>
        <time>2020-07-01T15:27:45Z</time>
      </trkpt>
      <trkpt lat="48.5488110" lon="1.5873760">
        <ele>86.4</ele>
        <time>2020-07-01T15:27:48Z</time>
      </trkpt>
      <trkpt lat="48.5485720" lon="1.5872650">
        <ele>86.8</ele>
        <time>2020-07-01T15:27:53Z</time>
      </trkpt>
      <trkpt lat="48.5480410" lon="1.5870400">
        <ele>87.4</ele>
        <time>2020-07-01T15:28:04Z</time>
      </trkpt>
      <trkpt lat="48.5479500" lon="1.5869450">
        <ele>87.4</ele>
        <time>2020-07-01T15:28:06Z</time>
      </trkpt>
      <trkpt lat="48.5478730" lon="1.5868170">
        <ele>87.6</ele>
        <time>2020-07-01T15:28:08Z</time>
      </trkpt>
      <trkpt lat="48.5477570" lon="1.5864050">
        <ele>87.4</ele>
        <time>2020-07-01T15:28:13Z</time>
      </trkpt>
      <trkpt lat="48.5477290" lon="1.5858890">
        <ele>87.6</ele>
        <time>2020-07-01T15:28:19Z</time>
      </trkpt>
      <trkpt lat="48.5477290" lon="1.5856520">
        <ele>87.4</ele>
        <time>2020-07-01T15:28:22Z</time>
      </trkpt>
      <trkpt lat="48.5476850" lon="1.5855160">
        <ele>87.6</ele>
        <time>2020-07-01T15:28:24Z</time>
      </trkpt>
      <trkpt lat="48.5476160" lon="1.5854280">
        <ele>87.6</ele>
        <time>2020-07-01T15:28:26Z</time>
      </trkpt>
      <trkpt lat="48.5475410" lon="1.5853810">
        <ele>87.4</ele>
        <time>2020-07-01T15:28:28Z</time>
      </trkpt>
      <trkpt lat="48.5472710" lon="1.5853850">
        <ele>87.6</ele>
        <time>2020-07-01T15:28:34Z</time>
      </trkpt>
      <trkpt lat="48.5469140" lon="1.5855120">
        <ele>87.8</ele>
        <time>2020-07-01T15:28:42Z</time>
      </trkpt>
      <trkpt lat="48.5466970" lon="1.5856070">
        <ele>87.8</ele>
        <time>2020-07-01T15:28:47Z</time>
      </trkpt>
      <trkpt lat="48.5465990" lon="1.5856370">
        <ele>88.0</ele>
        <time>2020-07-01T15:28:50Z</time>
      </trkpt>
      <trkpt lat="48.5464230" lon="1.5856680">
        <ele>88.4</ele>
        <time>2020-07-01T15:28:58Z</time>
      </trkpt>
      <trkpt lat="48.5462080" lon="1.5857210">
        <ele>88.6</ele>
        <time>2020-07-01T15:29:06Z</time>
      </trkpt>
      <trkpt lat="48.5458750" lon="1.5858460">
        <ele>88.6</ele>
        <time>2020-07-01T15:29:14Z</time>
      </trkpt>
      <trkpt lat="48.5455430" lon="1.5860290">
        <ele>88.6</ele>
        <time>2020-07-01T15:29:23Z</time>
      </trkpt>
      <trkpt lat="48.5453110" lon="1.5860930">
        <ele>88.6</ele>
        <time>2020-07-01T15:29:29Z</time>
      </trkpt>
      <trkpt lat="48.5450240" lon="1.5860370">
        <ele>88.6</ele>
        <time>2020-07-01T15:29:36Z</time>
      </trkpt>
      <trkpt lat="48.5449200" lon="1.5860010">
        <ele>88.4</ele>
        <time>2020-07-01T15:29:38Z</time>
      </trkpt>
      <trkpt lat="48.5447080" lon="1.5859280">
        <ele>88.0</ele>
        <time>2020-07-01T15:29:42Z</time>
      </trkpt>
      <trkpt lat="48.5443200" lon="1.5857800">
        <ele>87.6</ele>
        <time>2020-07-01T15:29:50Z</time>
      </trkpt>
      <trkpt lat="48.5440800" lon="1.5856800">
        <ele>87.6</ele>
        <time>2020-07-01T15:29:55Z</time>
      </trkpt>
      <trkpt lat="48.5438040" lon="1.5855920">
        <ele>87.6</ele>
        <time>2020-07-01T15:30:01Z</time>
      </trkpt>
      <trkpt lat="48.5435140" lon="1.5854820">
        <ele>88.2</ele>
        <time>2020-07-01T15:30:07Z</time>
      </trkpt>
      <trkpt lat="48.5433150" lon="1.5854050">
        <ele>88.4</ele>
        <time>2020-07-01T15:30:11Z</time>
      </trkpt>
      <trkpt lat="48.5427550" lon="1.5852240">
        <ele>88.0</ele>
        <time>2020-07-01T15:30:22Z</time>
      </trkpt>
      <trkpt lat="48.5427060" lon="1.5852080">
        <ele>87.8</ele>
        <time>2020-07-01T15:30:23Z</time>
      </trkpt>
      <trkpt lat="48.5424610" lon="1.5851150">
        <ele>87.8</ele>
        <time>2020-07-01T15:30:28Z</time>
      </trkpt>
      <trkpt lat="48.5422020" lon="1.5850300">
        <ele>88.0</ele>
        <time>2020-07-01T15:30:33Z</time>
      </trkpt>
      <trkpt lat="48.5416760" lon="1.5848200">
        <ele>88.2</ele>
        <time>2020-07-01T15:30:43Z</time>
      </trkpt>
      <trkpt lat="48.5415690" lon="1.5847810">
        <ele>88.4</ele>
        <time>2020-07-01T15:30:45Z</time>
      </trkpt>
      <trkpt lat="48.5409970" lon="1.5845870">
        <ele>88.4</ele>
        <time>2020-07-01T15:30:56Z</time>
      </trkpt>
      <trkpt lat="48.5409460" lon="1.5845720">
        <ele>88.2</ele>
        <time>2020-07-01T15:30:57Z</time>
      </trkpt>
      <trkpt lat="48.5406000" lon="1.5845450">
        <ele>88.4</ele>
        <time>2020-07-01T15:31:04Z</time>
      </trkpt>
      <trkpt lat="48.5402480" lon="1.5844470">
        <ele>88.6</ele>
        <time>2020-07-01T15:31:11Z</time>
      </trkpt>
      <trkpt lat="48.5400960" lon="1.5843800">
        <ele>88.6</ele>
        <time>2020-07-01T15:31:14Z</time>
      </trkpt>
      <trkpt lat="48.5398980" lon="1.5842440">
        <ele>88.8</ele>
        <time>2020-07-01T15:31:18Z</time>
      </trkpt>
      <trkpt lat="48.5395720" lon="1.5839570">
        <ele>88.2</ele>
        <time>2020-07-01T15:31:25Z</time>
      </trkpt>
      <trkpt lat="48.5394840" lon="1.5838820">
        <ele>88.0</ele>
        <time>2020-07-01T15:31:27Z</time>
      </trkpt>
      <trkpt lat="48.5393930" lon="1.5838190">
        <ele>88.0</ele>
        <time>2020-07-01T15:31:29Z</time>
      </trkpt>
      <trkpt lat="48.5389040" lon="1.5835080">
        <ele>88.0</ele>
        <time>2020-07-01T15:31:39Z</time>
      </trkpt>
      <trkpt lat="48.5385950" lon="1.5833200">
        <ele>88.0</ele>
        <time>2020-07-01T15:31:45Z</time>
      </trkpt>
      <trkpt lat="48.5384380" lon="1.5832230">
        <ele>88.2</ele>
        <time>2020-07-01T15:31:48Z</time>
      </trkpt>
      <trkpt lat="48.5382850" lon="1.5831260">
        <ele>88.0</ele>
        <time>2020-07-01T15:31:51Z</time>
      </trkpt>
      <trkpt lat="48.5378310" lon="1.5827490">
        <ele>88.2</ele>
        <time>2020-07-01T15:32:01Z</time>
      </trkpt>
      <trkpt lat="48.5377870" lon="1.5827090">
        <ele>88.4</ele>
        <time>2020-07-01T15:32:02Z</time>
      </trkpt>
      <trkpt lat="48.5373090" lon="1.5823050">
        <ele>88.8</ele>
        <time>2020-07-01T15:32:13Z</time>
      </trkpt>
      <trkpt lat="48.5372230" lon="1.5822280">
        <ele>88.8</ele>
        <time>2020-07-01T15:32:15Z</time>
      </trkpt>
      <trkpt lat="48.5370590" lon="1.5820900">
        <ele>89.0</ele>
        <time>2020-07-01T15:32:19Z</time>
      </trkpt>
      <trkpt lat="48.5368960" lon="1.5819680">
        <ele>89.0</ele>
        <time>2020-07-01T15:32:23Z</time>
      </trkpt>
      <trkpt lat="48.5367370" lon="1.5818360">
        <ele>89.0</ele>
        <time>2020-07-01T15:32:27Z</time>
      </trkpt>
      <trkpt lat="48.5362490" lon="1.5814990">
        <ele>88.6</ele>
        <time>2020-07-01T15:32:37Z</time>
      </trkpt>
      <trkpt lat="48.5358840" lon="1.5813400">
        <ele>88.6</ele>
        <time>2020-07-01T15:32:45Z</time>
      </trkpt>
      <trkpt lat="48.5355450" lon="1.5813510">
        <ele>89.2</ele>
        <time>2020-07-01T15:32:52Z</time>
      </trkpt>
      <trkpt lat="48.5352540" lon="1.5813450">
        <ele>89.4</ele>
        <time>2020-07-01T15:32:58Z</time>
      </trkpt>
      <trkpt lat="48.5350460" lon="1.5813400">
        <ele>89.4</ele>
        <time>2020-07-01T15:33:02Z</time>
      </trkpt>
      <trkpt lat="48.5346780" lon="1.5812430">
        <ele>89.8</ele>
        <time>2020-07-01T15:33:09Z</time>
      </trkpt>
      <trkpt lat="48.5342450" lon="1.5811480">
        <ele>89.8</ele>
        <time>2020-07-01T15:33:17Z</time>
      </trkpt>
      <trkpt lat="48.5338760" lon="1.5811340">
        <ele>89.8</ele>
        <time>2020-07-01T15:33:23Z</time>
      </trkpt>
      <trkpt lat="48.5338160" lon="1.5811130">
        <ele>89.8</ele>
        <time>2020-07-01T15:33:24Z</time>
      </trkpt>
      <trkpt lat="48.5334270" lon="1.5808870">
        <ele>89.0</ele>
        <time>2020-07-01T15:33:31Z</time>
      </trkpt>
      <trkpt lat="48.5328800" lon="1.5805940">
        <ele>89.0</ele>
        <time>2020-07-01T15:33:41Z</time>
      </trkpt>
      <trkpt lat="48.5328260" lon="1.5805740">
        <ele>88.8</ele>
        <time>2020-07-01T15:33:42Z</time>
      </trkpt>
      <trkpt lat="48.5326150" lon="1.5804960">
        <ele>89.0</ele>
        <time>2020-07-01T15:33:46Z</time>
      </trkpt>
      <trkpt lat="48.5324000" lon="1.5804720">
        <ele>89.0</ele>
        <time>2020-07-01T15:33:50Z</time>
      </trkpt>
      <trkpt lat="48.5318290" lon="1.5804900">
        <ele>89.4</ele>
        <time>2020-07-01T15:34:00Z</time>
      </trkpt>
      <trkpt lat="48.5317730" lon="1.5804810">
        <ele>89.4</ele>
        <time>2020-07-01T15:34:01Z</time>
      </trkpt>
      <trkpt lat="48.5317170" lon="1.5804660">
        <ele>89.6</ele>
        <time>2020-07-01T15:34:02Z</time>
      </trkpt>
      <trkpt lat="48.5312250" lon="1.5803230">
        <ele>89.2</ele>
        <time>2020-07-01T15:34:11Z</time>
      </trkpt>
      <trkpt lat="48.5309030" lon="1.5801860">
        <ele>89.2</ele>
        <time>2020-07-01T15:34:17Z</time>
      </trkpt>
      <trkpt lat="48.5307480" lon="1.5801080">
        <ele>89.2</ele>
        <time>2020-07-01T15:34:20Z</time>
      </trkpt>
      <trkpt lat="48.5302620" lon="1.5797380">
        <ele>89.8</ele>
        <time>2020-07-01T15:34:30Z</time>
      </trkpt>
      <trkpt lat="48.5298520" lon="1.5793070">
        <ele>90.0</ele>
        <time>2020-07-01T15:34:39Z</time>
      </trkpt>
      <trkpt lat="48.5294590" lon="1.5789030">
        <ele>89.6</ele>
        <time>2020-07-01T15:34:47Z</time>
      </trkpt>
      <trkpt lat="48.5292740" lon="1.5787140">
        <ele>89.4</ele>
        <time>2020-07-01T15:34:51Z</time>
      </trkpt>
      <trkpt lat="48.5291300" lon="1.5785770">
        <ele>89.4</ele>
        <time>2020-07-01T15:34:54Z</time>
      </trkpt>
      <trkpt lat="48.5287440" lon="1.5782430">
        <ele>89.2</ele>
        <time>2020-07-01T15:35:02Z</time>
      </trkpt>
      <trkpt lat="48.5283710" lon="1.5780500">
        <ele>89.6</ele>
        <time>2020-07-01T15:35:09Z</time>
      </trkpt>
      <trkpt lat="48.5281140" lon="1.5779110">
        <ele>89.6</ele>
        <time>2020-07-01T15:35:14Z</time>
      </trkpt>
      <trkpt lat="48.5280320" lon="1.5778090">
        <ele>89.6</ele>
        <time>2020-07-01T15:35:16Z</time>
      </trkpt>
      <trkpt lat="48.5276330" lon="1.5773490">
        <ele>89.6</ele>
        <time>2020-07-01T15:35:25Z</time>
      </trkpt>
      <trkpt lat="48.5271270" lon="1.5768880">
        <ele>89.8</ele>
        <time>2020-07-01T15:35:36Z</time>
      </trkpt>
      <trkpt lat="48.5270290" lon="1.5768010">
        <ele>89.8</ele>
        <time>2020-07-01T15:35:38Z</time>
      </trkpt>
      <trkpt lat="48.5266030" lon="1.5764260">
        <ele>90.2</ele>
        <time>2020-07-01T15:35:47Z</time>
      </trkpt>
      <trkpt lat="48.5264740" lon="1.5763070">
        <ele>90.4</ele>
        <time>2020-07-01T15:35:50Z</time>
      </trkpt>
      <trkpt lat="48.5262610" lon="1.5761420">
        <ele>90.6</ele>
        <time>2020-07-01T15:35:55Z</time>
      </trkpt>
      <trkpt lat="48.5260920" lon="1.5760180">
        <ele>91.0</ele>
        <time>2020-07-01T15:35:59Z</time>
      </trkpt>
      <trkpt lat="48.5260470" lon="1.5759860">
        <ele>91.2</ele>
        <time>2020-07-01T15:36:00Z</time>
      </trkpt>
      <trkpt lat="48.5256370" lon="1.5756700">
        <ele>91.2</ele>
        <time>2020-07-01T15:36:09Z</time>
      </trkpt>
      <trkpt lat="48.5255930" lon="1.5756380">
        <ele>91.0</ele>
        <time>2020-07-01T15:36:10Z</time>
      </trkpt>
      <trkpt lat="48.5252180" lon="1.5753700">
        <ele>90.2</ele>
        <time>2020-07-01T15:36:18Z</time>
      </trkpt>
      <trkpt lat="48.5250800" lon="1.5752680">
        <ele>90.0</ele>
        <time>2020-07-01T15:36:21Z</time>
      </trkpt>
      <trkpt lat="48.5247220" lon="1.5749810">
        <ele>90.0</ele>
        <time>2020-07-01T15:36:29Z</time>
      </trkpt>
      <trkpt lat="48.5246760" lon="1.5749540">
        <ele>90.0</ele>
        <time>2020-07-01T15:36:30Z</time>
      </trkpt>
      <trkpt lat="48.5245860" lon="1.5749300">
        <ele>90.0</ele>
        <time>2020-07-01T15:36:32Z</time>
      </trkpt>
      <trkpt lat="48.5245470" lon="1.5749270">
        <ele>90.2</ele>
        <time>2020-07-01T15:36:33Z</time>
      </trkpt>
      <trkpt lat="48.5245130" lon="1.5749300">
        <ele>90.2</ele>
        <time>2020-07-01T15:36:34Z</time>
      </trkpt>
      <trkpt lat="48.5244830" lon="1.5749340">
        <ele>90.4</ele>
        <time>2020-07-01T15:36:35Z</time>
      </trkpt>
      <trkpt lat="48.5244030" lon="1.5749680">
        <ele>90.8</ele>
        <time>2020-07-01T15:36:39Z</time>
      </trkpt>
      <trkpt lat="48.5242620" lon="1.5750000">
        <ele>92.6</ele>
        <time>2020-07-01T15:36:46Z</time>
      </trkpt>
      <trkpt lat="48.5242340" lon="1.5750010">
        <ele>92.4</ele>
        <time>2020-07-01T15:36:47Z</time>
      </trkpt>
      <trkpt lat="48.5240720" lon="1.5749520">
        <ele>92.6</ele>
        <time>2020-07-01T15:36:52Z</time>
      </trkpt>
      <trkpt lat="48.5237730" lon="1.5747820">
        <ele>94.2</ele>
        <time>2020-07-01T15:37:00Z</time>
      </trkpt>
      <trkpt lat="48.5237280" lon="1.5747460">
        <ele>94.4</ele>
        <time>2020-07-01T15:37:01Z</time>
      </trkpt>
      <trkpt lat="48.5235740" lon="1.5745930">
        <ele>94.4</ele>
        <time>2020-07-01T15:37:04Z</time>
      </trkpt>
      <trkpt lat="48.5235230" lon="1.5745440">
        <ele>94.4</ele>
        <time>2020-07-01T15:37:05Z</time>
      </trkpt>
      <trkpt lat="48.5231810" lon="1.5741430">
        <ele>94.6</ele>
        <time>2020-07-01T15:37:12Z</time>
      </trkpt>
      <trkpt lat="48.5228690" lon="1.5737060">
        <ele>95.8</ele>
        <time>2020-07-01T15:37:19Z</time>
      </trkpt>
      <trkpt lat="48.5227840" lon="1.5735770">
        <ele>95.6</ele>
        <time>2020-07-01T15:37:21Z</time>
      </trkpt>
      <trkpt lat="48.5224090" lon="1.5730450">
        <ele>95.0</ele>
        <time>2020-07-01T15:37:29Z</time>
      </trkpt>
      <trkpt lat="48.5223170" lon="1.5729010">
        <ele>94.8</ele>
        <time>2020-07-01T15:37:31Z</time>
      </trkpt>
      <trkpt lat="48.5220660" lon="1.5725120">
        <ele>94.6</ele>
        <time>2020-07-01T15:37:36Z</time>
      </trkpt>
      <trkpt lat="48.5217220" lon="1.5718340">
        <ele>92.0</ele>
        <time>2020-07-01T15:37:43Z</time>
      </trkpt>
      <trkpt lat="48.5213480" lon="1.5712120">
        <ele>91.8</ele>
        <time>2020-07-01T15:37:50Z</time>
      </trkpt>
      <trkpt lat="48.5209280" lon="1.5706660">
        <ele>91.8</ele>
        <time>2020-07-01T15:37:57Z</time>
      </trkpt>
      <trkpt lat="48.5208670" lon="1.5705910">
        <ele>91.8</ele>
        <time>2020-07-01T15:37:58Z</time>
      </trkpt>
      <trkpt lat="48.5204440" lon="1.5700780">
        <ele>92.0</ele>
        <time>2020-07-01T15:38:05Z</time>
      </trkpt>
      <trkpt lat="48.5203850" lon="1.5700100">
        <ele>92.2</ele>
        <time>2020-07-01T15:38:06Z</time>
      </trkpt>
      <trkpt lat="48.5202740" lon="1.5698680">
        <ele>92.4</ele>
        <time>2020-07-01T15:38:08Z</time>
      </trkpt>
      <trkpt lat="48.5199060" lon="1.5694620">
        <ele>92.4</ele>
        <time>2020-07-01T15:38:14Z</time>
      </trkpt>
      <trkpt lat="48.5198070" lon="1.5693530">
        <ele>92.6</ele>
        <time>2020-07-01T15:38:16Z</time>
      </trkpt>
      <trkpt lat="48.5195110" lon="1.5690580">
        <ele>93.2</ele>
        <time>2020-07-01T15:38:21Z</time>
      </trkpt>
      <trkpt lat="48.5193860" lon="1.5689290">
        <ele>93.4</ele>
        <time>2020-07-01T15:38:23Z</time>
      </trkpt>
      <trkpt lat="48.5189970" lon="1.5685180">
        <ele>93.2</ele>
        <time>2020-07-01T15:38:29Z</time>
      </trkpt>
      <trkpt lat="48.5189360" lon="1.5684480">
        <ele>93.2</ele>
        <time>2020-07-01T15:38:30Z</time>
      </trkpt>
      <trkpt lat="48.5188730" lon="1.5683760">
        <ele>93.2</ele>
        <time>2020-07-01T15:38:31Z</time>
      </trkpt>
      <trkpt lat="48.5185820" lon="1.5679610">
        <ele>92.0</ele>
        <time>2020-07-01T15:38:36Z</time>
      </trkpt>
      <trkpt lat="48.5181890" lon="1.5674170">
        <ele>91.8</ele>
        <time>2020-07-01T15:38:43Z</time>
      </trkpt>
      <trkpt lat="48.5178340" lon="1.5669110">
        <ele>92.0</ele>
        <time>2020-07-01T15:38:50Z</time>
      </trkpt>
      <trkpt lat="48.5175330" lon="1.5663240">
        <ele>92.0</ele>
        <time>2020-07-01T15:38:56Z</time>
      </trkpt>
      <trkpt lat="48.5173150" lon="1.5659370">
        <ele>91.8</ele>
        <time>2020-07-01T15:39:00Z</time>
      </trkpt>
      <trkpt lat="48.5171920" lon="1.5657180">
        <ele>92.0</ele>
        <time>2020-07-01T15:39:02Z</time>
      </trkpt>
      <trkpt lat="48.5170830" lon="1.5655120">
        <ele>91.8</ele>
        <time>2020-07-01T15:39:04Z</time>
      </trkpt>
      <trkpt lat="48.5170220" lon="1.5654090">
        <ele>91.6</ele>
        <time>2020-07-01T15:39:05Z</time>
      </trkpt>
      <trkpt lat="48.5168400" lon="1.5650840">
        <ele>91.2</ele>
        <time>2020-07-01T15:39:08Z</time>
      </trkpt>
      <trkpt lat="48.5166040" lon="1.5646840">
        <ele>91.0</ele>
        <time>2020-07-01T15:39:12Z</time>
      </trkpt>
      <trkpt lat="48.5164270" lon="1.5644150">
        <ele>90.6</ele>
        <time>2020-07-01T15:39:15Z</time>
      </trkpt>
      <trkpt lat="48.5161770" lon="1.5640900">
        <ele>90.4</ele>
        <time>2020-07-01T15:39:19Z</time>
      </trkpt>
      <trkpt lat="48.5161100" lon="1.5640160">
        <ele>90.4</ele>
        <time>2020-07-01T15:39:20Z</time>
      </trkpt>
      <trkpt lat="48.5157510" lon="1.5636990">
        <ele>91.0</ele>
        <time>2020-07-01T15:39:25Z</time>
      </trkpt>
      <trkpt lat="48.5156790" lon="1.5636540">
        <ele>91.2</ele>
        <time>2020-07-01T15:39:26Z</time>
      </trkpt>
      <trkpt lat="48.5155350" lon="1.5635710">
        <ele>91.6</ele>
        <time>2020-07-01T15:39:28Z</time>
      </trkpt>
      <trkpt lat="48.5152840" lon="1.5634410">
        <ele>93.0</ele>
        <time>2020-07-01T15:39:32Z</time>
      </trkpt>
      <trkpt lat="48.5149900" lon="1.5632150">
        <ele>94.6</ele>
        <time>2020-07-01T15:39:38Z</time>
      </trkpt>
      <trkpt lat="48.5146160" lon="1.5627560">
        <ele>95.2</ele>
        <time>2020-07-01T15:39:47Z</time>
      </trkpt>
      <trkpt lat="48.5141770" lon="1.5622160">
        <ele>95.4</ele>
        <time>2020-07-01T15:39:57Z</time>
      </trkpt>
      <trkpt lat="48.5141270" lon="1.5621560">
        <ele>95.2</ele>
        <time>2020-07-01T15:39:58Z</time>
      </trkpt>
      <trkpt lat="48.5137220" lon="1.5616560">
        <ele>95.0</ele>
        <time>2020-07-01T15:40:07Z</time>
      </trkpt>
      <trkpt lat="48.5133540" lon="1.5611890">
        <ele>94.8</ele>
        <time>2020-07-01T15:40:15Z</time>
      </trkpt>
      <trkpt lat="48.5132620" lon="1.5610780">
        <ele>94.8</ele>
        <time>2020-07-01T15:40:17Z</time>
      </trkpt>
      <trkpt lat="48.5128340" lon="1.5605710">
        <ele>95.4</ele>
        <time>2020-07-01T15:40:26Z</time>
      </trkpt>
      <trkpt lat="48.5127380" lon="1.5604560">
        <ele>95.8</ele>
        <time>2020-07-01T15:40:28Z</time>
      </trkpt>
      <trkpt lat="48.5122930" lon="1.5599220">
        <ele>95.8</ele>
        <time>2020-07-01T15:40:37Z</time>
      </trkpt>
      <trkpt lat="48.5122460" lon="1.5598670">
        <ele>95.6</ele>
        <time>2020-07-01T15:40:38Z</time>
      </trkpt>
      <trkpt lat="48.5121970" lon="1.5598090">
        <ele>95.6</ele>
        <time>2020-07-01T15:40:39Z</time>
      </trkpt>
      <trkpt lat="48.5117320" lon="1.5593060">
        <ele>95.4</ele>
        <time>2020-07-01T15:40:48Z</time>
      </trkpt>
      <trkpt lat="48.5113170" lon="1.5588020">
        <ele>95.0</ele>
        <time>2020-07-01T15:40:57Z</time>
      </trkpt>
      <trkpt lat="48.5110310" lon="1.5584420">
        <ele>95.4</ele>
        <time>2020-07-01T15:41:04Z</time>
      </trkpt>
      <trkpt lat="48.5108570" lon="1.5582700">
        <ele>95.4</ele>
        <time>2020-07-01T15:41:08Z</time>
      </trkpt>
      <trkpt lat="48.5107390" lon="1.5581290">
        <ele>95.6</ele>
        <time>2020-07-01T15:41:11Z</time>
      </trkpt>
      <trkpt lat="48.5106190" lon="1.5579540">
        <ele>96.2</ele>
        <time>2020-07-01T15:41:15Z</time>
      </trkpt>
      <trkpt lat="48.5105100" lon="1.5577840">
        <ele>97.6</ele>
        <time>2020-07-01T15:41:19Z</time>
      </trkpt>
      <trkpt lat="48.5104830" lon="1.5577390">
        <ele>98.0</ele>
        <time>2020-07-01T15:41:20Z</time>
      </trkpt>
      <trkpt lat="48.5103140" lon="1.5574830">
        <ele>99.0</ele>
        <time>2020-07-01T15:41:26Z</time>
      </trkpt>
      <trkpt lat="48.5102400" lon="1.5573660">
        <ele>99.4</ele>
        <time>2020-07-01T15:41:29Z</time>
      </trkpt>
      <trkpt lat="48.5100470" lon="1.5571500">
        <ele>100.4</ele>
        <time>2020-07-01T15:41:35Z</time>
      </trkpt>
      <trkpt lat="48.5100100" lon="1.5571040">
        <ele>100.4</ele>
        <time>2020-07-01T15:41:36Z</time>
      </trkpt>
      <trkpt lat="48.5099340" lon="1.5570070">
        <ele>100.4</ele>
        <time>2020-07-01T15:41:38Z</time>
      </trkpt>
      <trkpt lat="48.5097970" lon="1.5568500">
        <ele>100.4</ele>
        <time>2020-07-01T15:41:41Z</time>
      </trkpt>
      <trkpt lat="48.5097030" lon="1.5567360">
        <ele>100.4</ele>
        <time>2020-07-01T15:41:43Z</time>
      </trkpt>
      <trkpt lat="48.5095700" lon="1.5565380">
        <ele>99.6</ele>
        <time>2020-07-01T15:41:46Z</time>
      </trkpt>
      <trkpt lat="48.5094950" lon="1.5563930">
        <ele>99.2</ele>
        <time>2020-07-01T15:41:48Z</time>
      </trkpt>
      <trkpt lat="48.5094690" lon="1.5563170">
        <ele>99.0</ele>
        <time>2020-07-01T15:41:49Z</time>
      </trkpt>
      <trkpt lat="48.5094610" lon="1.5562360">
        <ele>98.6</ele>
        <time>2020-07-01T15:41:50Z</time>
      </trkpt>
      <trkpt lat="48.5094400" lon="1.5560120">
        <ele>97.8</ele>
        <time>2020-07-01T15:41:53Z</time>
      </trkpt>
      <trkpt lat="48.5094060" lon="1.5558650">
        <ele>97.2</ele>
        <time>2020-07-01T15:41:55Z</time>
      </trkpt>
      <trkpt lat="48.5093400" lon="1.5557430">
        <ele>96.2</ele>
        <time>2020-07-01T15:41:57Z</time>
      </trkpt>
      <trkpt lat="48.5092720" lon="1.5556290">
        <ele>95.2</ele>
        <time>2020-07-01T15:41:59Z</time>
      </trkpt>
      <trkpt lat="48.5091830" lon="1.5554410">
        <ele>94.4</ele>
        <time>2020-07-01T15:42:03Z</time>
      </trkpt>
      <trkpt lat="48.5090760" lon="1.5552560">
        <ele>94.0</ele>
        <time>2020-07-01T15:42:09Z</time>
      </trkpt>
      <trkpt lat="48.5089380" lon="1.5550230">
        <ele>94.0</ele>
        <time>2020-07-01T15:42:15Z</time>
      </trkpt>
      <trkpt lat="48.5087530" lon="1.5546530">
        <ele>94.0</ele>
        <time>2020-07-01T15:42:23Z</time>
      </trkpt>
      <trkpt lat="48.5085200" lon="1.5541800">
        <ele>94.2</ele>
        <time>2020-07-01T15:42:32Z</time>
      </trkpt>
      <trkpt lat="48.5082610" lon="1.5536730">
        <ele>94.2</ele>
        <time>2020-07-01T15:42:41Z</time>
      </trkpt>
      <trkpt lat="48.5081560" lon="1.5535120">
        <ele>94.2</ele>
        <time>2020-07-01T15:42:44Z</time>
      </trkpt>
      <trkpt lat="48.5079750" lon="1.5531560">
        <ele>94.6</ele>
        <time>2020-07-01T15:42:50Z</time>
      </trkpt>
      <trkpt lat="48.5077310" lon="1.5526430">
        <ele>94.8</ele>
        <time>2020-07-01T15:42:59Z</time>
      </trkpt>
      <trkpt lat="48.5075040" lon="1.5520670">
        <ele>95.0</ele>
        <time>2020-07-01T15:43:08Z</time>
      </trkpt>
      <trkpt lat="48.5072530" lon="1.5514460">
        <ele>95.2</ele>
        <time>2020-07-01T15:43:17Z</time>
      </trkpt>
      <trkpt lat="48.5071720" lon="1.5512560">
        <ele>95.0</ele>
        <time>2020-07-01T15:43:20Z</time>
      </trkpt>
      <trkpt lat="48.5070080" lon="1.5509650">
        <ele>95.2</ele>
        <time>2020-07-01T15:43:25Z</time>
      </trkpt>
      <trkpt lat="48.5069200" lon="1.5508620">
        <ele>95.2</ele>
        <time>2020-07-01T15:43:27Z</time>
      </trkpt>
      <trkpt lat="48.5067350" lon="1.5506100">
        <ele>95.4</ele>
        <time>2020-07-01T15:43:32Z</time>
      </trkpt>
      <trkpt lat="48.5065000" lon="1.5501270">
        <ele>96.0</ele>
        <time>2020-07-01T15:43:40Z</time>
      </trkpt>
      <trkpt lat="48.5062240" lon="1.5494940">
        <ele>95.8</ele>
        <time>2020-07-01T15:43:49Z</time>
      </trkpt>
      <trkpt lat="48.5060950" lon="1.5492120">
        <ele>95.4</ele>
        <time>2020-07-01T15:43:53Z</time>
      </trkpt>
      <trkpt lat="48.5060280" lon="1.5490760">
        <ele>95.4</ele>
        <time>2020-07-01T15:43:55Z</time>
      </trkpt>
      <trkpt lat="48.5057840" lon="1.5486330">
        <ele>95.4</ele>
        <time>2020-07-01T15:44:02Z</time>
      </trkpt>
      <trkpt lat="48.5056830" lon="1.5484520">
        <ele>95.4</ele>
        <time>2020-07-01T15:44:05Z</time>
      </trkpt>
      <trkpt lat="48.5055280" lon="1.5481370">
        <ele>95.8</ele>
        <time>2020-07-01T15:44:10Z</time>
      </trkpt>
      <trkpt lat="48.5054370" lon="1.5479630">
        <ele>96.0</ele>
        <time>2020-07-01T15:44:13Z</time>
      </trkpt>
      <trkpt lat="48.5052890" lon="1.5477410">
        <ele>96.4</ele>
        <time>2020-07-01T15:44:17Z</time>
      </trkpt>
      <trkpt lat="48.5052530" lon="1.5476880">
        <ele>96.8</ele>
        <time>2020-07-01T15:44:18Z</time>
      </trkpt>
      <trkpt lat="48.5049460" lon="1.5473150">
        <ele>97.6</ele>
        <time>2020-07-01T15:44:26Z</time>
      </trkpt>
      <trkpt lat="48.5048000" lon="1.5471490">
        <ele>98.2</ele>
        <time>2020-07-01T15:44:30Z</time>
      </trkpt>
      <trkpt lat="48.5046750" lon="1.5469760">
        <ele>99.0</ele>
        <time>2020-07-01T15:44:35Z</time>
      </trkpt>
      <trkpt lat="48.5046580" lon="1.5469470">
        <ele>99.2</ele>
        <time>2020-07-01T15:44:36Z</time>
      </trkpt>
      <trkpt lat="48.5045390" lon="1.5467490">
        <ele>100.2</ele>
        <time>2020-07-01T15:44:43Z</time>
      </trkpt>
      <trkpt lat="48.5043740" lon="1.5465270">
        <ele>101.0</ele>
        <time>2020-07-01T15:44:51Z</time>
      </trkpt>
      <trkpt lat="48.5042170" lon="1.5463550">
        <ele>101.0</ele>
        <time>2020-07-01T15:44:57Z</time>
      </trkpt>
      <trkpt lat="48.5041760" lon="1.5463140">
        <ele>101.0</ele>
        <time>2020-07-01T15:44:58Z</time>
      </trkpt>
      <trkpt lat="48.5039250" lon="1.5460680">
        <ele>100.6</ele>
        <time>2020-07-01T15:45:04Z</time>
      </trkpt>
      <trkpt lat="48.5038370" lon="1.5459660">
        <ele>100.4</ele>
        <time>2020-07-01T15:45:07Z</time>
      </trkpt>
      <trkpt lat="48.5037970" lon="1.5459110">
        <ele>100.4</ele>
        <time>2020-07-01T15:45:09Z</time>
      </trkpt>
      <trkpt lat="48.5037750" lon="1.5458920">
        <ele>100.4</ele>
        <time>2020-07-01T15:45:10Z</time>
      </trkpt>
      <trkpt lat="48.5035480" lon="1.5456220">
        <ele>101.0</ele>
        <time>2020-07-01T15:45:18Z</time>
      </trkpt>
      <trkpt lat="48.5031300" lon="1.5452140">
        <ele>102.0</ele>
        <time>2020-07-01T15:45:28Z</time>
      </trkpt>
      <trkpt lat="48.5027660" lon="1.5448710">
        <ele>102.0</ele>
        <time>2020-07-01T15:45:37Z</time>
      </trkpt>
      <trkpt lat="48.5027230" lon="1.5448350">
        <ele>102.0</ele>
        <time>2020-07-01T15:45:38Z</time>
      </trkpt>
      <trkpt lat="48.5024770" lon="1.5446280">
        <ele>101.8</ele>
        <time>2020-07-01T15:45:43Z</time>
      </trkpt>
      <trkpt lat="48.5023340" lon="1.5444890">
        <ele>101.2</ele>
        <time>2020-07-01T15:45:46Z</time>
      </trkpt>
      <trkpt lat="48.5020700" lon="1.5442070">
        <ele>100.0</ele>
        <time>2020-07-01T15:45:52Z</time>
      </trkpt>
      <trkpt lat="48.5020280" lon="1.5441600">
        <ele>100.0</ele>
        <time>2020-07-01T15:45:53Z</time>
      </trkpt>
      <trkpt lat="48.5017750" lon="1.5438680">
        <ele>99.8</ele>
        <time>2020-07-01T15:45:59Z</time>
      </trkpt>
      <trkpt lat="48.5016880" lon="1.5437730">
        <ele>99.8</ele>
        <time>2020-07-01T15:46:01Z</time>
      </trkpt>
      <trkpt lat="48.5016050" lon="1.5436860">
        <ele>99.8</ele>
        <time>2020-07-01T15:46:03Z</time>
      </trkpt>
      <trkpt lat="48.5012680" lon="1.5433500">
        <ele>100.4</ele>
        <time>2020-07-01T15:46:12Z</time>
      </trkpt>
      <trkpt lat="48.5011350" lon="1.5432140">
        <ele>100.4</ele>
        <time>2020-07-01T15:46:15Z</time>
      </trkpt>
      <trkpt lat="48.5010370" lon="1.5431090">
        <ele>100.2</ele>
        <time>2020-07-01T15:46:17Z</time>
      </trkpt>
      <trkpt lat="48.5009840" lon="1.5430520">
        <ele>100.4</ele>
        <time>2020-07-01T15:46:18Z</time>
      </trkpt>
      <trkpt lat="48.5008760" lon="1.5429230">
        <ele>100.4</ele>
        <time>2020-07-01T15:46:20Z</time>
      </trkpt>
      <trkpt lat="48.5006400" lon="1.5426520">
        <ele>99.6</ele>
        <time>2020-07-01T15:46:24Z</time>
      </trkpt>
      <trkpt lat="48.5004610" lon="1.5424800">
        <ele>97.6</ele>
        <time>2020-07-01T15:46:27Z</time>
      </trkpt>
      <trkpt lat="48.5002650" lon="1.5423350">
        <ele>96.4</ele>
        <time>2020-07-01T15:46:30Z</time>
      </trkpt>
      <trkpt lat="48.4998450" lon="1.5420980">
        <ele>94.8</ele>
        <time>2020-07-01T15:46:37Z</time>
      </trkpt>
      <trkpt lat="48.4997420" lon="1.5420420">
        <ele>94.8</ele>
        <time>2020-07-01T15:46:39Z</time>
      </trkpt>
      <trkpt lat="48.4996430" lon="1.5419880">
        <ele>94.8</ele>
        <time>2020-07-01T15:46:41Z</time>
      </trkpt>
      <trkpt lat="48.4994510" lon="1.5418890">
        <ele>94.8</ele>
        <time>2020-07-01T15:46:45Z</time>
      </trkpt>
      <trkpt lat="48.4992240" lon="1.5418110">
        <ele>96.2</ele>
        <time>2020-07-01T15:46:50Z</time>
      </trkpt>
      <trkpt lat="48.4991530" lon="1.5417810">
        <ele>96.4</ele>
        <time>2020-07-01T15:46:52Z</time>
      </trkpt>
      <trkpt lat="48.4990890" lon="1.5417490">
        <ele>96.6</ele>
        <time>2020-07-01T15:46:54Z</time>
      </trkpt>
      <trkpt lat="48.4988710" lon="1.5416800">
        <ele>97.4</ele>
        <time>2020-07-01T15:47:00Z</time>
      </trkpt>
      <trkpt lat="48.4986820" lon="1.5416020">
        <ele>99.0</ele>
        <time>2020-07-01T15:47:05Z</time>
      </trkpt>
      <trkpt lat="48.4984840" lon="1.5415180">
        <ele>99.4</ele>
        <time>2020-07-01T15:47:10Z</time>
      </trkpt>
      <trkpt lat="48.4981420" lon="1.5413580">
        <ele>100.4</ele>
        <time>2020-07-01T15:47:18Z</time>
      </trkpt>
      <trkpt lat="48.4980590" lon="1.5413050">
        <ele>100.6</ele>
        <time>2020-07-01T15:47:20Z</time>
      </trkpt>
      <trkpt lat="48.4980150" lon="1.5412820">
        <ele>100.6</ele>
        <time>2020-07-01T15:47:21Z</time>
      </trkpt>
      <trkpt lat="48.4978190" lon="1.5411590">
        <ele>100.6</ele>
        <time>2020-07-01T15:47:25Z</time>
      </trkpt>
      <trkpt lat="48.4977030" lon="1.5410910">
        <ele>100.8</ele>
        <time>2020-07-01T15:47:27Z</time>
      </trkpt>
      <trkpt lat="48.4975490" lon="1.5409940">
        <ele>100.4</ele>
        <time>2020-07-01T15:47:30Z</time>
      </trkpt>
      <trkpt lat="48.4971460" lon="1.5407880">
        <ele>98.4</ele>
        <time>2020-07-01T15:47:37Z</time>
      </trkpt>
      <trkpt lat="48.4969690" lon="1.5406750">
        <ele>98.2</ele>
        <time>2020-07-01T15:47:40Z</time>
      </trkpt>
      <trkpt lat="48.4966830" lon="1.5405180">
        <ele>98.2</ele>
        <time>2020-07-01T15:47:45Z</time>
      </trkpt>
      <trkpt lat="48.4962540" lon="1.5404460">
        <ele>98.6</ele>
        <time>2020-07-01T15:47:52Z</time>
      </trkpt>
      <trkpt lat="48.4958980" lon="1.5403600">
        <ele>99.0</ele>
        <time>2020-07-01T15:47:59Z</time>
      </trkpt>
      <trkpt lat="48.4954500" lon="1.5401420">
        <ele>99.0</ele>
        <time>2020-07-01T15:48:07Z</time>
      </trkpt>
      <trkpt lat="48.4953980" lon="1.5401140">
        <ele>99.0</ele>
        <time>2020-07-01T15:48:08Z</time>
      </trkpt>
      <trkpt lat="48.4950780" lon="1.5400030">
        <ele>98.6</ele>
        <time>2020-07-01T15:48:14Z</time>
      </trkpt>
      <trkpt lat="48.4948670" lon="1.5399240">
        <ele>98.4</ele>
        <time>2020-07-01T15:48:18Z</time>
      </trkpt>
      <trkpt lat="48.4946240" lon="1.5398380">
        <ele>98.2</ele>
        <time>2020-07-01T15:48:22Z</time>
      </trkpt>
      <trkpt lat="48.4944410" lon="1.5397880">
        <ele>98.2</ele>
        <time>2020-07-01T15:48:25Z</time>
      </trkpt>
      <trkpt lat="48.4941460" lon="1.5397000">
        <ele>98.2</ele>
        <time>2020-07-01T15:48:30Z</time>
      </trkpt>
      <trkpt lat="48.4940210" lon="1.5396570">
        <ele>98.0</ele>
        <time>2020-07-01T15:48:32Z</time>
      </trkpt>
      <trkpt lat="48.4934910" lon="1.5394240">
        <ele>97.2</ele>
        <time>2020-07-01T15:48:40Z</time>
      </trkpt>
      <trkpt lat="48.4934270" lon="1.5393960">
        <ele>97.0</ele>
        <time>2020-07-01T15:48:41Z</time>
      </trkpt>
      <trkpt lat="48.4928550" lon="1.5391790">
        <ele>96.6</ele>
        <time>2020-07-01T15:48:50Z</time>
      </trkpt>
      <trkpt lat="48.4927310" lon="1.5391410">
        <ele>96.4</ele>
        <time>2020-07-01T15:48:52Z</time>
      </trkpt>
      <trkpt lat="48.4926170" lon="1.5391090">
        <ele>96.4</ele>
        <time>2020-07-01T15:48:54Z</time>
      </trkpt>
      <trkpt lat="48.4923580" lon="1.5390380">
        <ele>96.6</ele>
        <time>2020-07-01T15:48:59Z</time>
      </trkpt>
      <trkpt lat="48.4921800" lon="1.5389710">
        <ele>96.6</ele>
        <time>2020-07-01T15:49:03Z</time>
      </trkpt>
      <trkpt lat="48.4920400" lon="1.5388960">
        <ele>97.2</ele>
        <time>2020-07-01T15:49:06Z</time>
      </trkpt>
      <trkpt lat="48.4916940" lon="1.5387350">
        <ele>97.8</ele>
        <time>2020-07-01T15:49:12Z</time>
      </trkpt>
      <trkpt lat="48.4916360" lon="1.5387060">
        <ele>97.8</ele>
        <time>2020-07-01T15:49:13Z</time>
      </trkpt>
      <trkpt lat="48.4915840" lon="1.5386760">
        <ele>97.8</ele>
        <time>2020-07-01T15:49:14Z</time>
      </trkpt>
      <trkpt lat="48.4914840" lon="1.5386130">
        <ele>98.0</ele>
        <time>2020-07-01T15:49:16Z</time>
      </trkpt>
      <trkpt lat="48.4911180" lon="1.5383990">
        <ele>98.0</ele>
        <time>2020-07-01T15:49:23Z</time>
      </trkpt>
      <trkpt lat="48.4910130" lon="1.5383420">
        <ele>97.8</ele>
        <time>2020-07-01T15:49:25Z</time>
      </trkpt>
      <trkpt lat="48.4906650" lon="1.5380640">
        <ele>97.2</ele>
        <time>2020-07-01T15:49:32Z</time>
      </trkpt>
      <trkpt lat="48.4904240" lon="1.5378480">
        <ele>97.2</ele>
        <time>2020-07-01T15:49:37Z</time>
      </trkpt>
      <trkpt lat="48.4903800" lon="1.5377970">
        <ele>97.2</ele>
        <time>2020-07-01T15:49:38Z</time>
      </trkpt>
      <trkpt lat="48.4902500" lon="1.5376420">
        <ele>97.4</ele>
        <time>2020-07-01T15:49:41Z</time>
      </trkpt>
      <trkpt lat="48.4900570" lon="1.5373820">
        <ele>97.4</ele>
        <time>2020-07-01T15:49:46Z</time>
      </trkpt>
      <trkpt lat="48.4900140" lon="1.5373370">
        <ele>97.4</ele>
        <time>2020-07-01T15:49:47Z</time>
      </trkpt>
      <trkpt lat="48.4899670" lon="1.5373010">
        <ele>97.6</ele>
        <time>2020-07-01T15:49:48Z</time>
      </trkpt>
      <trkpt lat="48.4899150" lon="1.5372710">
        <ele>97.6</ele>
        <time>2020-07-01T15:49:49Z</time>
      </trkpt>
      <trkpt lat="48.4895880" lon="1.5371070">
        <ele>97.2</ele>
        <time>2020-07-01T15:49:55Z</time>
      </trkpt>
      <trkpt lat="48.4891910" lon="1.5369130">
        <ele>96.4</ele>
        <time>2020-07-01T15:50:03Z</time>
      </trkpt>
      <trkpt lat="48.4890560" lon="1.5368330">
        <ele>96.2</ele>
        <time>2020-07-01T15:50:06Z</time>
      </trkpt>
      <trkpt lat="48.4887280" lon="1.5366690">
        <ele>97.0</ele>
        <time>2020-07-01T15:50:14Z</time>
      </trkpt>
      <trkpt lat="48.4886160" lon="1.5365680">
        <ele>97.6</ele>
        <time>2020-07-01T15:50:17Z</time>
      </trkpt>
      <trkpt lat="48.4885480" lon="1.5364740">
        <ele>97.8</ele>
        <time>2020-07-01T15:50:19Z</time>
      </trkpt>
      <trkpt lat="48.4883850" lon="1.5361060">
        <ele>97.8</ele>
        <time>2020-07-01T15:50:25Z</time>
      </trkpt>
      <trkpt lat="48.4881850" lon="1.5355150">
        <ele>97.2</ele>
        <time>2020-07-01T15:50:33Z</time>
      </trkpt>
      <trkpt lat="48.4879720" lon="1.5348200">
        <ele>96.8</ele>
        <time>2020-07-01T15:50:42Z</time>
      </trkpt>
      <trkpt lat="48.4879100" lon="1.5346570">
        <ele>96.8</ele>
        <time>2020-07-01T15:50:44Z</time>
      </trkpt>
      <trkpt lat="48.4876890" lon="1.5339990">
        <ele>96.6</ele>
        <time>2020-07-01T15:50:52Z</time>
      </trkpt>
      <trkpt lat="48.4876710" lon="1.5339140">
        <ele>96.6</ele>
        <time>2020-07-01T15:50:53Z</time>
      </trkpt>
      <trkpt lat="48.4876410" lon="1.5336470">
        <ele>96.6</ele>
        <time>2020-07-01T15:50:56Z</time>
      </trkpt>
      <trkpt lat="48.4876380" lon="1.5335560">
        <ele>96.6</ele>
        <time>2020-07-01T15:50:57Z</time>
      </trkpt>
      <trkpt lat="48.4876090" lon="1.5332190">
        <ele>96.2</ele>
        <time>2020-07-01T15:51:01Z</time>
      </trkpt>
      <trkpt lat="48.4875610" lon="1.5330590">
        <ele>96.2</ele>
        <time>2020-07-01T15:51:03Z</time>
      </trkpt>
      <trkpt lat="48.4872960" lon="1.5325050">
        <ele>96.2</ele>
        <time>2020-07-01T15:51:11Z</time>
      </trkpt>
      <trkpt lat="48.4870860" lon="1.5320240">
        <ele>96.2</ele>
        <time>2020-07-01T15:51:18Z</time>
      </trkpt>
      <trkpt lat="48.4870710" lon="1.5319420">
        <ele>96.2</ele>
        <time>2020-07-01T15:51:19Z</time>
      </trkpt>
      <trkpt lat="48.4870140" lon="1.5313600">
        <ele>96.0</ele>
        <time>2020-07-01T15:51:26Z</time>
      </trkpt>
      <trkpt lat="48.4870120" lon="1.5312780">
        <ele>96.0</ele>
        <time>2020-07-01T15:51:27Z</time>
      </trkpt>
      <trkpt lat="48.4870160" lon="1.5311140">
        <ele>96.2</ele>
        <time>2020-07-01T15:51:29Z</time>
      </trkpt>
      <trkpt lat="48.4869880" lon="1.5306990">
        <ele>95.8</ele>
        <time>2020-07-01T15:51:34Z</time>
      </trkpt>
      <trkpt lat="48.4869850" lon="1.5306150">
        <ele>95.8</ele>
        <time>2020-07-01T15:51:35Z</time>
      </trkpt>
      <trkpt lat="48.4869840" lon="1.5302890">
        <ele>95.6</ele>
        <time>2020-07-01T15:51:39Z</time>
      </trkpt>
      <trkpt lat="48.4869910" lon="1.5300050">
        <ele>96.0</ele>
        <time>2020-07-01T15:51:43Z</time>
      </trkpt>
      <trkpt lat="48.4869640" lon="1.5298720">
        <ele>95.8</ele>
        <time>2020-07-01T15:51:45Z</time>
      </trkpt>
      <trkpt lat="48.4869310" lon="1.5297440">
        <ele>95.8</ele>
        <time>2020-07-01T15:51:47Z</time>
      </trkpt>
      <trkpt lat="48.4869060" lon="1.5296820">
        <ele>95.8</ele>
        <time>2020-07-01T15:51:48Z</time>
      </trkpt>
      <trkpt lat="48.4868530" lon="1.5295570">
        <ele>96.2</ele>
        <time>2020-07-01T15:51:50Z</time>
      </trkpt>
      <trkpt lat="48.4866860" lon="1.5291650">
        <ele>95.8</ele>
        <time>2020-07-01T15:51:56Z</time>
      </trkpt>
      <trkpt lat="48.4864100" lon="1.5286700">
        <ele>96.0</ele>
        <time>2020-07-01T15:52:04Z</time>
      </trkpt>
      <trkpt lat="48.4860420" lon="1.5280410">
        <ele>95.8</ele>
        <time>2020-07-01T15:52:14Z</time>
      </trkpt>
      <trkpt lat="48.4859610" lon="1.5279160">
        <ele>96.0</ele>
        <time>2020-07-01T15:52:16Z</time>
      </trkpt>
      <trkpt lat="48.4856770" lon="1.5273950">
        <ele>95.8</ele>
        <time>2020-07-01T15:52:24Z</time>
      </trkpt>
      <trkpt lat="48.4855850" lon="1.5271990">
        <ele>96.0</ele>
        <time>2020-07-01T15:52:27Z</time>
      </trkpt>
      <trkpt lat="48.4855150" lon="1.5270290">
        <ele>96.2</ele>
        <time>2020-07-01T15:52:30Z</time>
      </trkpt>
      <trkpt lat="48.4854970" lon="1.5269870">
        <ele>96.4</ele>
        <time>2020-07-01T15:52:31Z</time>
      </trkpt>
      <trkpt lat="48.4854450" lon="1.5268140">
        <ele>96.4</ele>
        <time>2020-07-01T15:52:36Z</time>
      </trkpt>
      <trkpt lat="48.4853460" lon="1.5266130">
        <ele>97.2</ele>
        <time>2020-07-01T15:52:40Z</time>
      </trkpt>
      <trkpt lat="48.4850830" lon="1.5260640">
        <ele>97.6</ele>
        <time>2020-07-01T15:52:49Z</time>
      </trkpt>
      <trkpt lat="48.4849020" lon="1.5257310">
        <ele>97.4</ele>
        <time>2020-07-01T15:52:54Z</time>
      </trkpt>
      <trkpt lat="48.4847950" lon="1.5255170">
        <ele>97.2</ele>
        <time>2020-07-01T15:52:57Z</time>
      </trkpt>
      <trkpt lat="48.4847630" lon="1.5254450">
        <ele>97.2</ele>
        <time>2020-07-01T15:52:58Z</time>
      </trkpt>
      <trkpt lat="48.4845230" lon="1.5249790">
        <ele>96.0</ele>
        <time>2020-07-01T15:53:05Z</time>
      </trkpt>
      <trkpt lat="48.4844560" lon="1.5248590">
        <ele>95.8</ele>
        <time>2020-07-01T15:53:07Z</time>
      </trkpt>
      <trkpt lat="48.4842900" lon="1.5245680">
        <ele>95.8</ele>
        <time>2020-07-01T15:53:12Z</time>
      </trkpt>
      <trkpt lat="48.4841690" lon="1.5243860">
        <ele>96.0</ele>
        <time>2020-07-01T15:53:16Z</time>
      </trkpt>
      <trkpt lat="48.4841040" lon="1.5243030">
        <ele>96.0</ele>
        <time>2020-07-01T15:53:18Z</time>
      </trkpt>
      <trkpt lat="48.4839360" lon="1.5241030">
        <ele>96.2</ele>
        <time>2020-07-01T15:53:23Z</time>
      </trkpt>
      <trkpt lat="48.4839040" lon="1.5240650">
        <ele>96.4</ele>
        <time>2020-07-01T15:53:24Z</time>
      </trkpt>
      <trkpt lat="48.4838130" lon="1.5239580">
        <ele>96.6</ele>
        <time>2020-07-01T15:53:27Z</time>
      </trkpt>
      <trkpt lat="48.4837240" lon="1.5238420">
        <ele>97.2</ele>
        <time>2020-07-01T15:53:31Z</time>
      </trkpt>
      <trkpt lat="48.4836860" lon="1.5236450">
        <ele>98.2</ele>
        <time>2020-07-01T15:53:37Z</time>
      </trkpt>
      <trkpt lat="48.4836670" lon="1.5235080">
        <ele>99.0</ele>
        <time>2020-07-01T15:53:41Z</time>
      </trkpt>
      <trkpt lat="48.4836870" lon="1.5233350">
        <ele>99.6</ele>
        <time>2020-07-01T15:53:45Z</time>
      </trkpt>
      <trkpt lat="48.4836900" lon="1.5229160">
        <ele>100.0</ele>
        <time>2020-07-01T15:53:53Z</time>
      </trkpt>
      <trkpt lat="48.4837290" lon="1.5223910">
        <ele>100.4</ele>
        <time>2020-07-01T15:54:03Z</time>
      </trkpt>
      <trkpt lat="48.4837180" lon="1.5219130">
        <ele>100.6</ele>
        <time>2020-07-01T15:54:12Z</time>
      </trkpt>
      <trkpt lat="48.4837190" lon="1.5215120">
        <ele>100.6</ele>
        <time>2020-07-01T15:54:19Z</time>
      </trkpt>
      <trkpt lat="48.4837140" lon="1.5213820">
        <ele>100.8</ele>
        <time>2020-07-01T15:54:21Z</time>
      </trkpt>
      <trkpt lat="48.4836960" lon="1.5210850">
        <ele>101.0</ele>
        <time>2020-07-01T15:54:27Z</time>
      </trkpt>
      <trkpt lat="48.4837130" lon="1.5207250">
        <ele>101.2</ele>
        <time>2020-07-01T15:54:34Z</time>
      </trkpt>
      <trkpt lat="48.4837160" lon="1.5204000">
        <ele>101.4</ele>
        <time>2020-07-01T15:54:39Z</time>
      </trkpt>
      <trkpt lat="48.4837070" lon="1.5199550">
        <ele>101.6</ele>
        <time>2020-07-01T15:54:46Z</time>
      </trkpt>
      <trkpt lat="48.4836850" lon="1.5195560">
        <ele>101.8</ele>
        <time>2020-07-01T15:54:53Z</time>
      </trkpt>
      <trkpt lat="48.4836750" lon="1.5193660">
        <ele>102.0</ele>
        <time>2020-07-01T15:54:56Z</time>
      </trkpt>
      <trkpt lat="48.4836500" lon="1.5190940">
        <ele>102.0</ele>
        <time>2020-07-01T15:55:00Z</time>
      </trkpt>
      <trkpt lat="48.4836410" lon="1.5187180">
        <ele>102.2</ele>
        <time>2020-07-01T15:55:06Z</time>
      </trkpt>
      <trkpt lat="48.4836420" lon="1.5186520">
        <ele>102.2</ele>
        <time>2020-07-01T15:55:07Z</time>
      </trkpt>
      <trkpt lat="48.4836260" lon="1.5181280">
        <ele>102.4</ele>
        <time>2020-07-01T15:55:15Z</time>
      </trkpt>
      <trkpt lat="48.4836190" lon="1.5179960">
        <ele>102.6</ele>
        <time>2020-07-01T15:55:17Z</time>
      </trkpt>
      <trkpt lat="48.4836150" lon="1.5178640">
        <ele>102.8</ele>
        <time>2020-07-01T15:55:19Z</time>
      </trkpt>
      <trkpt lat="48.4836270" lon="1.5175870">
        <ele>103.6</ele>
        <time>2020-07-01T15:55:23Z</time>
      </trkpt>
      <trkpt lat="48.4836860" lon="1.5170500">
        <ele>104.2</ele>
        <time>2020-07-01T15:55:31Z</time>
      </trkpt>
      <trkpt lat="48.4836910" lon="1.5169910">
        <ele>104.2</ele>
        <time>2020-07-01T15:55:32Z</time>
      </trkpt>
      <trkpt lat="48.4837560" lon="1.5167080">
        <ele>104.8</ele>
        <time>2020-07-01T15:55:37Z</time>
      </trkpt>
      <trkpt lat="48.4838220" lon="1.5161790">
        <ele>105.0</ele>
        <time>2020-07-01T15:55:45Z</time>
      </trkpt>
      <trkpt lat="48.4838290" lon="1.5161070">
        <ele>105.0</ele>
        <time>2020-07-01T15:55:46Z</time>
      </trkpt>
      <trkpt lat="48.4838640" lon="1.5155830">
        <ele>104.8</ele>
        <time>2020-07-01T15:55:53Z</time>
      </trkpt>
      <trkpt lat="48.4838790" lon="1.5154320">
        <ele>104.6</ele>
        <time>2020-07-01T15:55:55Z</time>
      </trkpt>
      <trkpt lat="48.4839060" lon="1.5151340">
        <ele>104.8</ele>
        <time>2020-07-01T15:55:59Z</time>
      </trkpt>
      <trkpt lat="48.4839290" lon="1.5149080">
        <ele>104.8</ele>
        <time>2020-07-01T15:56:02Z</time>
      </trkpt>
      <trkpt lat="48.4839420" lon="1.5147590">
        <ele>104.8</ele>
        <time>2020-07-01T15:56:04Z</time>
      </trkpt>
      <trkpt lat="48.4839600" lon="1.5146180">
        <ele>105.2</ele>
        <time>2020-07-01T15:56:06Z</time>
      </trkpt>
      <trkpt lat="48.4840650" lon="1.5138010">
        <ele>105.8</ele>
        <time>2020-07-01T15:56:17Z</time>
      </trkpt>
      <trkpt lat="48.4840850" lon="1.5136440">
        <ele>105.8</ele>
        <time>2020-07-01T15:56:19Z</time>
      </trkpt>
      <trkpt lat="48.4841070" lon="1.5134880">
        <ele>105.6</ele>
        <time>2020-07-01T15:56:21Z</time>
      </trkpt>
      <trkpt lat="48.4841410" lon="1.5131620">
        <ele>105.6</ele>
        <time>2020-07-01T15:56:25Z</time>
      </trkpt>
      <trkpt lat="48.4841520" lon="1.5130100">
        <ele>105.6</ele>
        <time>2020-07-01T15:56:27Z</time>
      </trkpt>
      <trkpt lat="48.4841640" lon="1.5128590">
        <ele>105.4</ele>
        <time>2020-07-01T15:56:29Z</time>
      </trkpt>
      <trkpt lat="48.4841730" lon="1.5127050">
        <ele>105.4</ele>
        <time>2020-07-01T15:56:31Z</time>
      </trkpt>
      <trkpt lat="48.4841810" lon="1.5122170">
        <ele>105.4</ele>
        <time>2020-07-01T15:56:37Z</time>
      </trkpt>
      <trkpt lat="48.4841760" lon="1.5119660">
        <ele>105.6</ele>
        <time>2020-07-01T15:56:40Z</time>
      </trkpt>
      <trkpt lat="48.4841550" lon="1.5116200">
        <ele>105.4</ele>
        <time>2020-07-01T15:56:45Z</time>
      </trkpt>
      <trkpt lat="48.4841330" lon="1.5115350">
        <ele>105.4</ele>
        <time>2020-07-01T15:56:47Z</time>
      </trkpt>
      <trkpt lat="48.4841100" lon="1.5114580">
        <ele>105.4</ele>
        <time>2020-07-01T15:56:50Z</time>
      </trkpt>
      <trkpt lat="48.4840450" lon="1.5113000">
        <ele>105.4</ele>
        <time>2020-07-01T15:56:57Z</time>
      </trkpt>
      <trkpt lat="48.4839130" lon="1.5110640">
        <ele>105.4</ele>
        <time>2020-07-01T15:57:03Z</time>
      </trkpt>
      <trkpt lat="48.4836720" lon="1.5107160">
        <ele>105.2</ele>
        <time>2020-07-01T15:57:11Z</time>
      </trkpt>
      <trkpt lat="48.4834940" lon="1.5104100">
        <ele>105.0</ele>
        <time>2020-07-01T15:57:18Z</time>
      </trkpt>
      <trkpt lat="48.4834020" lon="1.5102400">
        <ele>106.0</ele>
        <time>2020-07-01T15:57:21Z</time>
      </trkpt>
      <trkpt lat="48.4833120" lon="1.5100800">
        <ele>106.2</ele>
        <time>2020-07-01T15:57:24Z</time>
      </trkpt>
      <trkpt lat="48.4832130" lon="1.5099020">
        <ele>106.6</ele>
        <time>2020-07-01T15:57:27Z</time>
      </trkpt>
      <trkpt lat="48.4831160" lon="1.5097350">
        <ele>106.6</ele>
        <time>2020-07-01T15:57:30Z</time>
      </trkpt>
      <trkpt lat="48.4830190" lon="1.5095530">
        <ele>107.0</ele>
        <time>2020-07-01T15:57:33Z</time>
      </trkpt>
      <trkpt lat="48.4828000" lon="1.5091690">
        <ele>107.2</ele>
        <time>2020-07-01T15:57:39Z</time>
      </trkpt>
      <trkpt lat="48.4824570" lon="1.5086970">
        <ele>107.4</ele>
        <time>2020-07-01T15:57:47Z</time>
      </trkpt>
      <trkpt lat="48.4821490" lon="1.5082480">
        <ele>108.6</ele>
        <time>2020-07-01T15:57:56Z</time>
      </trkpt>
      <trkpt lat="48.4818760" lon="1.5079160">
        <ele>108.6</ele>
        <time>2020-07-01T15:58:03Z</time>
      </trkpt>
      <trkpt lat="48.4818360" lon="1.5078760">
        <ele>108.8</ele>
        <time>2020-07-01T15:58:04Z</time>
      </trkpt>
      <trkpt lat="48.4816810" lon="1.5077260">
        <ele>109.2</ele>
        <time>2020-07-01T15:58:08Z</time>
      </trkpt>
      <trkpt lat="48.4815490" lon="1.5076040">
        <ele>109.2</ele>
        <time>2020-07-01T15:58:11Z</time>
      </trkpt>
      <trkpt lat="48.4814070" lon="1.5074520">
        <ele>109.2</ele>
        <time>2020-07-01T15:58:14Z</time>
      </trkpt>
      <trkpt lat="48.4812320" lon="1.5071970">
        <ele>109.2</ele>
        <time>2020-07-01T15:58:18Z</time>
      </trkpt>
      <trkpt lat="48.4810970" lon="1.5069290">
        <ele>108.8</ele>
        <time>2020-07-01T15:58:22Z</time>
      </trkpt>
      <trkpt lat="48.4809780" lon="1.5067130">
        <ele>109.0</ele>
        <time>2020-07-01T15:58:25Z</time>
      </trkpt>
      <trkpt lat="48.4808540" lon="1.5064970">
        <ele>109.0</ele>
        <time>2020-07-01T15:58:28Z</time>
      </trkpt>
      <trkpt lat="48.4806400" lon="1.5061870">
        <ele>108.6</ele>
        <time>2020-07-01T15:58:33Z</time>
      </trkpt>
      <trkpt lat="48.4802030" lon="1.5055760">
        <ele>108.6</ele>
        <time>2020-07-01T15:58:43Z</time>
      </trkpt>
      <trkpt lat="48.4798220" lon="1.5051310">
        <ele>108.2</ele>
        <time>2020-07-01T15:58:51Z</time>
      </trkpt>
      <trkpt lat="48.4797730" lon="1.5050720">
        <ele>108.2</ele>
        <time>2020-07-01T15:58:52Z</time>
      </trkpt>
      <trkpt lat="48.4797230" lon="1.5050130">
        <ele>108.2</ele>
        <time>2020-07-01T15:58:53Z</time>
      </trkpt>
      <trkpt lat="48.4793790" lon="1.5046010">
        <ele>107.6</ele>
        <time>2020-07-01T15:59:00Z</time>
      </trkpt>
      <trkpt lat="48.4792750" lon="1.5044810">
        <ele>106.6</ele>
        <time>2020-07-01T15:59:02Z</time>
      </trkpt>
      <trkpt lat="48.4791290" lon="1.5043210">
        <ele>105.8</ele>
        <time>2020-07-01T15:59:05Z</time>
      </trkpt>
      <trkpt lat="48.4790550" lon="1.5042380">
        <ele>105.8</ele>
        <time>2020-07-01T15:59:07Z</time>
      </trkpt>
      <trkpt lat="48.4790190" lon="1.5042070">
        <ele>105.6</ele>
        <time>2020-07-01T15:59:08Z</time>
      </trkpt>
      <trkpt lat="48.4788890" lon="1.5040670">
        <ele>105.8</ele>
        <time>2020-07-01T15:59:12Z</time>
      </trkpt>
      <trkpt lat="48.4788100" lon="1.5039810">
        <ele>105.6</ele>
        <time>2020-07-01T15:59:14Z</time>
      </trkpt>
      <trkpt lat="48.4786010" lon="1.5037480">
        <ele>107.2</ele>
        <time>2020-07-01T15:59:19Z</time>
      </trkpt>
      <trkpt lat="48.4784430" lon="1.5035870">
        <ele>107.2</ele>
        <time>2020-07-01T15:59:23Z</time>
      </trkpt>
      <trkpt lat="48.4783480" lon="1.5034910">
        <ele>107.2</ele>
        <time>2020-07-01T15:59:26Z</time>
      </trkpt>
      <trkpt lat="48.4782940" lon="1.5034180">
        <ele>107.0</ele>
        <time>2020-07-01T15:59:28Z</time>
      </trkpt>
      <trkpt lat="48.4782730" lon="1.5033780">
        <ele>106.8</ele>
        <time>2020-07-01T15:59:29Z</time>
      </trkpt>
      <trkpt lat="48.4782560" lon="1.5033390">
        <ele>106.6</ele>
        <time>2020-07-01T15:59:30Z</time>
      </trkpt>
      <trkpt lat="48.4782380" lon="1.5032340">
        <ele>106.2</ele>
        <time>2020-07-01T15:59:33Z</time>
      </trkpt>
      <trkpt lat="48.4782020" lon="1.5031650">
        <ele>106.0</ele>
        <time>2020-07-01T15:59:35Z</time>
      </trkpt>
      <trkpt lat="48.4781340" lon="1.5031180">
        <ele>105.2</ele>
        <time>2020-07-01T15:59:37Z</time>
      </trkpt>
      <trkpt lat="48.4778470" lon="1.5029190">
        <ele>102.2</ele>
        <time>2020-07-01T15:59:44Z</time>
      </trkpt>
      <trkpt lat="48.4776320" lon="1.5026360">
        <ele>101.8</ele>
        <time>2020-07-01T15:59:50Z</time>
      </trkpt>
      <trkpt lat="48.4774300" lon="1.5024180">
        <ele>101.6</ele>
        <time>2020-07-01T15:59:55Z</time>
      </trkpt>
      <trkpt lat="48.4770690" lon="1.5021270">
        <ele>101.6</ele>
        <time>2020-07-01T16:00:03Z</time>
      </trkpt>
      <trkpt lat="48.4769740" lon="1.5020150">
        <ele>101.4</ele>
        <time>2020-07-01T16:00:05Z</time>
      </trkpt>
      <trkpt lat="48.4768570" lon="1.5018450">
        <ele>101.4</ele>
        <time>2020-07-01T16:00:08Z</time>
      </trkpt>
      <trkpt lat="48.4767870" lon="1.5016770">
        <ele>101.2</ele>
        <time>2020-07-01T16:00:12Z</time>
      </trkpt>
      <trkpt lat="48.4766760" lon="1.5013860">
        <ele>101.4</ele>
        <time>2020-07-01T16:00:17Z</time>
      </trkpt>
      <trkpt lat="48.4766510" lon="1.5013230">
        <ele>101.2</ele>
        <time>2020-07-01T16:00:18Z</time>
      </trkpt>
      <trkpt lat="48.4763750" lon="1.5009080">
        <ele>101.2</ele>
        <time>2020-07-01T16:00:25Z</time>
      </trkpt>
      <trkpt lat="48.4760800" lon="1.5004720">
        <ele>101.2</ele>
        <time>2020-07-01T16:00:32Z</time>
      </trkpt>
      <trkpt lat="48.4758150" lon="1.5001850">
        <ele>101.0</ele>
        <time>2020-07-01T16:00:38Z</time>
      </trkpt>
      <trkpt lat="48.4757730" lon="1.5001520">
        <ele>101.0</ele>
        <time>2020-07-01T16:00:39Z</time>
      </trkpt>
      <trkpt lat="48.4756460" lon="1.5000270">
        <ele>101.2</ele>
        <time>2020-07-01T16:00:43Z</time>
      </trkpt>
      <trkpt lat="48.4754730" lon="1.4998210">
        <ele>101.2</ele>
        <time>2020-07-01T16:00:50Z</time>
      </trkpt>
      <trkpt lat="48.4752710" lon="1.4995500">
        <ele>101.6</ele>
        <time>2020-07-01T16:00:57Z</time>
      </trkpt>
      <trkpt lat="48.4750270" lon="1.4992110">
        <ele>101.6</ele>
        <time>2020-07-01T16:01:04Z</time>
      </trkpt>
      <trkpt lat="48.4748210" lon="1.4988430">
        <ele>101.6</ele>
        <time>2020-07-01T16:01:11Z</time>
      </trkpt>
      <trkpt lat="48.4745640" lon="1.4984700">
        <ele>101.4</ele>
        <time>2020-07-01T16:01:18Z</time>
      </trkpt>
      <trkpt lat="48.4743340" lon="1.4981100">
        <ele>101.4</ele>
        <time>2020-07-01T16:01:25Z</time>
      </trkpt>
      <trkpt lat="48.4740500" lon="1.4976720">
        <ele>101.8</ele>
        <time>2020-07-01T16:01:32Z</time>
      </trkpt>
      <trkpt lat="48.4738860" lon="1.4973980">
        <ele>102.8</ele>
        <time>2020-07-01T16:01:38Z</time>
      </trkpt>
      <trkpt lat="48.4737850" lon="1.4971960">
        <ele>103.2</ele>
        <time>2020-07-01T16:01:42Z</time>
      </trkpt>
      <trkpt lat="48.4737070" lon="1.4970320">
        <ele>103.2</ele>
        <time>2020-07-01T16:01:45Z</time>
      </trkpt>
      <trkpt lat="48.4735390" lon="1.4967430">
        <ele>102.8</ele>
        <time>2020-07-01T16:01:51Z</time>
      </trkpt>
      <trkpt lat="48.4733610" lon="1.4965310">
        <ele>102.4</ele>
        <time>2020-07-01T16:01:56Z</time>
      </trkpt>
      <trkpt lat="48.4730460" lon="1.4962440">
        <ele>101.8</ele>
        <time>2020-07-01T16:02:04Z</time>
      </trkpt>
      <trkpt lat="48.4727540" lon="1.4959440">
        <ele>101.6</ele>
        <time>2020-07-01T16:02:11Z</time>
      </trkpt>
      <trkpt lat="48.4724850" lon="1.4956590">
        <ele>101.6</ele>
        <time>2020-07-01T16:02:18Z</time>
      </trkpt>
      <trkpt lat="48.4723130" lon="1.4954730">
        <ele>102.4</ele>
        <time>2020-07-01T16:02:24Z</time>
      </trkpt>
      <trkpt lat="48.4722500" lon="1.4953930">
        <ele>102.6</ele>
        <time>2020-07-01T16:02:26Z</time>
      </trkpt>
      <trkpt lat="48.4721110" lon="1.4951630">
        <ele>103.2</ele>
        <time>2020-07-01T16:02:31Z</time>
      </trkpt>
      <trkpt lat="48.4719110" lon="1.4947330">
        <ele>103.4</ele>
        <time>2020-07-01T16:02:38Z</time>
      </trkpt>
      <trkpt lat="48.4717520" lon="1.4943340">
        <ele>103.6</ele>
        <time>2020-07-01T16:02:45Z</time>
      </trkpt>
      <trkpt lat="48.4716480" lon="1.4939670">
        <ele>103.8</ele>
        <time>2020-07-01T16:02:51Z</time>
      </trkpt>
      <trkpt lat="48.4715020" lon="1.4933970">
        <ele>103.4</ele>
        <time>2020-07-01T16:02:59Z</time>
      </trkpt>
      <trkpt lat="48.4713270" lon="1.4930090">
        <ele>103.0</ele>
        <time>2020-07-01T16:03:05Z</time>
      </trkpt>
      <trkpt lat="48.4710850" lon="1.4925490">
        <ele>102.6</ele>
        <time>2020-07-01T16:03:12Z</time>
      </trkpt>
      <trkpt lat="48.4708850" lon="1.4920740">
        <ele>102.4</ele>
        <time>2020-07-01T16:03:19Z</time>
      </trkpt>
      <trkpt lat="48.4706080" lon="1.4916160">
        <ele>102.8</ele>
        <time>2020-07-01T16:03:27Z</time>
      </trkpt>
      <trkpt lat="48.4705900" lon="1.4915350">
        <ele>102.8</ele>
        <time>2020-07-01T16:03:28Z</time>
      </trkpt>
      <trkpt lat="48.4705840" lon="1.4914550">
        <ele>102.8</ele>
        <time>2020-07-01T16:03:29Z</time>
      </trkpt>
      <trkpt lat="48.4705790" lon="1.4910820">
        <ele>102.6</ele>
        <time>2020-07-01T16:03:33Z</time>
      </trkpt>
      <trkpt lat="48.4705300" lon="1.4904040">
        <ele>102.2</ele>
        <time>2020-07-01T16:03:41Z</time>
      </trkpt>
      <trkpt lat="48.4704780" lon="1.4900730">
        <ele>102.2</ele>
        <time>2020-07-01T16:03:45Z</time>
      </trkpt>
      <trkpt lat="48.4704330" lon="1.4899320">
        <ele>102.2</ele>
        <time>2020-07-01T16:03:47Z</time>
      </trkpt>
      <trkpt lat="48.4703880" lon="1.4897910">
        <ele>102.2</ele>
        <time>2020-07-01T16:03:49Z</time>
      </trkpt>
      <trkpt lat="48.4703620" lon="1.4896110">
        <ele>102.2</ele>
        <time>2020-07-01T16:03:52Z</time>
      </trkpt>
      <trkpt lat="48.4703720" lon="1.4895750">
        <ele>102.2</ele>
        <time>2020-07-01T16:03:53Z</time>
      </trkpt>
      <trkpt lat="48.4703960" lon="1.4895500">
        <ele>102.4</ele>
        <time>2020-07-01T16:03:54Z</time>
      </trkpt>
      <trkpt lat="48.4704860" lon="1.4895230">
        <ele>102.4</ele>
        <time>2020-07-01T16:03:57Z</time>
      </trkpt>
      <trkpt lat="48.4707340" lon="1.4894800">
        <ele>103.4</ele>
        <time>2020-07-01T16:04:04Z</time>
      </trkpt>
      <trkpt lat="48.4707930" lon="1.4893910">
        <ele>103.4</ele>
        <time>2020-07-01T16:04:07Z</time>
      </trkpt>
      <trkpt lat="48.4707920" lon="1.4893460">
        <ele>103.4</ele>
        <time>2020-07-01T16:04:08Z</time>
      </trkpt>
      <trkpt lat="48.4707360" lon="1.4890690">
        <ele>103.6</ele>
        <time>2020-07-01T16:04:13Z</time>
      </trkpt>
      <trkpt lat="48.4706720" lon="1.4885200">
        <ele>102.8</ele>
        <time>2020-07-01T16:04:21Z</time>
      </trkpt>
      <trkpt lat="48.4706060" lon="1.4880910">
        <ele>102.6</ele>
        <time>2020-07-01T16:04:27Z</time>
      </trkpt>
      <trkpt lat="48.4705850" lon="1.4880300">
        <ele>102.8</ele>
        <time>2020-07-01T16:04:28Z</time>
      </trkpt>
      <trkpt lat="48.4705260" lon="1.4876590">
        <ele>102.4</ele>
        <time>2020-07-01T16:04:34Z</time>
      </trkpt>
      <trkpt lat="48.4705050" lon="1.4872010">
        <ele>102.6</ele>
        <time>2020-07-01T16:04:40Z</time>
      </trkpt>
      <trkpt lat="48.4704600" lon="1.4866960">
        <ele>102.4</ele>
        <time>2020-07-01T16:04:46Z</time>
      </trkpt>
      <trkpt lat="48.4703450" lon="1.4864140">
        <ele>102.6</ele>
        <time>2020-07-01T16:04:51Z</time>
      </trkpt>
      <trkpt lat="48.4702260" lon="1.4863090">
        <ele>102.6</ele>
        <time>2020-07-01T16:04:54Z</time>
      </trkpt>
      <trkpt lat="48.4701770" lon="1.4862930">
        <ele>102.8</ele>
        <time>2020-07-01T16:04:55Z</time>
      </trkpt>
      <trkpt lat="48.4698200" lon="1.4861510">
        <ele>102.6</ele>
        <time>2020-07-01T16:05:02Z</time>
      </trkpt>
      <trkpt lat="48.4697750" lon="1.4861180">
        <ele>102.6</ele>
        <time>2020-07-01T16:05:03Z</time>
      </trkpt>
      <trkpt lat="48.4696040" lon="1.4859310">
        <ele>102.6</ele>
        <time>2020-07-01T16:05:07Z</time>
      </trkpt>
      <trkpt lat="48.4695390" lon="1.4858240">
        <ele>102.6</ele>
        <time>2020-07-01T16:05:09Z</time>
      </trkpt>
      <trkpt lat="48.4694300" lon="1.4855850">
        <ele>102.6</ele>
        <time>2020-07-01T16:05:13Z</time>
      </trkpt>
      <trkpt lat="48.4692090" lon="1.4851980">
        <ele>102.8</ele>
        <time>2020-07-01T16:05:20Z</time>
      </trkpt>
      <trkpt lat="48.4689310" lon="1.4849050">
        <ele>102.6</ele>
        <time>2020-07-01T16:05:26Z</time>
      </trkpt>
      <trkpt lat="48.4686280" lon="1.4845140">
        <ele>102.6</ele>
        <time>2020-07-01T16:05:34Z</time>
      </trkpt>
      <trkpt lat="48.4683740" lon="1.4840750">
        <ele>102.4</ele>
        <time>2020-07-01T16:05:41Z</time>
      </trkpt>
      <trkpt lat="48.4683570" lon="1.4838560">
        <ele>102.4</ele>
        <time>2020-07-01T16:05:44Z</time>
      </trkpt>
      <trkpt lat="48.4683610" lon="1.4837920">
        <ele>102.4</ele>
        <time>2020-07-01T16:05:45Z</time>
      </trkpt>
      <trkpt lat="48.4683720" lon="1.4836480">
        <ele>102.4</ele>
        <time>2020-07-01T16:05:48Z</time>
      </trkpt>
      <trkpt lat="48.4683820" lon="1.4835710">
        <ele>102.4</ele>
        <time>2020-07-01T16:05:50Z</time>
      </trkpt>
      <trkpt lat="48.4683580" lon="1.4834300">
        <ele>103.8</ele>
        <time>2020-07-01T16:05:55Z</time>
      </trkpt>
      <trkpt lat="48.4683450" lon="1.4833980">
        <ele>105.4</ele>
        <time>2020-07-01T16:06:02Z</time>
      </trkpt>
      <trkpt lat="48.4683440" lon="1.4833960">
        <ele>105.6</ele>
        <time>2020-07-01T16:06:07Z</time>
      </trkpt>
      <trkpt lat="48.4683720" lon="1.4833280">
        <ele>105.8</ele>
        <time>2020-07-01T16:06:19Z</time>
      </trkpt>
      <trkpt lat="48.4683880" lon="1.4833110">
        <ele>105.8</ele>
        <time>2020-07-01T16:06:20Z</time>
      </trkpt>
      <trkpt lat="48.4684050" lon="1.4832950">
        <ele>105.8</ele>
        <time>2020-07-01T16:06:21Z</time>
      </trkpt>
      <trkpt lat="48.4685130" lon="1.4832270">
        <ele>105.6</ele>
        <time>2020-07-01T16:06:25Z</time>
      </trkpt>
      <trkpt lat="48.4686500" lon="1.4831500">
        <ele>105.2</ele>
        <time>2020-07-01T16:06:28Z</time>
      </trkpt>
      <trkpt lat="48.4687470" lon="1.4830740">
        <ele>104.8</ele>
        <time>2020-07-01T16:06:30Z</time>
      </trkpt>
      <trkpt lat="48.4690960" lon="1.4826800">
        <ele>104.0</ele>
        <time>2020-07-01T16:06:38Z</time>
      </trkpt>
      <trkpt lat="48.4692790" lon="1.4823480">
        <ele>103.4</ele>
        <time>2020-07-01T16:06:45Z</time>
      </trkpt>
      <trkpt lat="48.4692950" lon="1.4823000">
        <ele>103.6</ele>
        <time>2020-07-01T16:06:46Z</time>
      </trkpt>
      <trkpt lat="48.4694330" lon="1.4818160">
        <ele>103.6</ele>
        <time>2020-07-01T16:06:55Z</time>
      </trkpt>
      <trkpt lat="48.4695180" lon="1.4815950">
        <ele>103.8</ele>
        <time>2020-07-01T16:07:01Z</time>
      </trkpt>
      <trkpt lat="48.4695740" lon="1.4814550">
        <ele>104.0</ele>
        <time>2020-07-01T16:07:05Z</time>
      </trkpt>
      <trkpt lat="48.4697000" lon="1.4812330">
        <ele>104.0</ele>
        <time>2020-07-01T16:07:10Z</time>
      </trkpt>
      <trkpt lat="48.4698260" lon="1.4810570">
        <ele>104.0</ele>
        <time>2020-07-01T16:07:16Z</time>
      </trkpt>
      <trkpt lat="48.4698590" lon="1.4809880">
        <ele>104.6</ele>
        <time>2020-07-01T16:07:22Z</time>
      </trkpt>
      <trkpt lat="48.4698480" lon="1.4809570">
        <ele>105.4</ele>
        <time>2020-07-01T16:07:36Z</time>
      </trkpt>
      <trkpt lat="48.4698430" lon="1.4809360">
        <ele>105.2</ele>
        <time>2020-07-01T16:07:37Z</time>
      </trkpt>
      <trkpt lat="48.4698170" lon="1.4808760">
        <ele>105.4</ele>
        <time>2020-07-01T16:07:39Z</time>
      </trkpt>
      <trkpt lat="48.4697660" lon="1.4808050">
        <ele>105.2</ele>
        <time>2020-07-01T16:07:41Z</time>
      </trkpt>
      <trkpt lat="48.4696530" lon="1.4807070">
        <ele>105.0</ele>
        <time>2020-07-01T16:07:44Z</time>
      </trkpt>
      <trkpt lat="48.4695720" lon="1.4806450">
        <ele>105.0</ele>
        <time>2020-07-01T16:07:46Z</time>
      </trkpt>
      <trkpt lat="48.4694950" lon="1.4805900">
        <ele>105.0</ele>
        <time>2020-07-01T16:07:48Z</time>
      </trkpt>
      <trkpt lat="48.4692410" lon="1.4804270">
        <ele>104.6</ele>
        <time>2020-07-01T16:07:54Z</time>
      </trkpt>
      <trkpt lat="48.4691940" lon="1.4804040">
        <ele>104.4</ele>
        <time>2020-07-01T16:07:55Z</time>
      </trkpt>
      <trkpt lat="48.4689840" lon="1.4803440">
        <ele>104.2</ele>
        <time>2020-07-01T16:07:59Z</time>
      </trkpt>
      <trkpt lat="48.4688210" lon="1.4803090">
        <ele>104.0</ele>
        <time>2020-07-01T16:08:02Z</time>
      </trkpt>
      <trkpt lat="48.4685790" lon="1.4802300">
        <ele>103.8</ele>
        <time>2020-07-01T16:08:07Z</time>
      </trkpt>
      <trkpt lat="48.4684430" lon="1.4801830">
        <ele>103.4</ele>
        <time>2020-07-01T16:08:10Z</time>
      </trkpt>
      <trkpt lat="48.4682530" lon="1.4801090">
        <ele>103.2</ele>
        <time>2020-07-01T16:08:14Z</time>
      </trkpt>
      <trkpt lat="48.4682040" lon="1.4800890">
        <ele>103.2</ele>
        <time>2020-07-01T16:08:15Z</time>
      </trkpt>
      <trkpt lat="48.4680060" lon="1.4800060">
        <ele>103.2</ele>
        <time>2020-07-01T16:08:19Z</time>
      </trkpt>
      <trkpt lat="48.4679140" lon="1.4799580">
        <ele>103.0</ele>
        <time>2020-07-01T16:08:21Z</time>
      </trkpt>
      <trkpt lat="48.4676810" lon="1.4798750">
        <ele>103.6</ele>
        <time>2020-07-01T16:08:26Z</time>
      </trkpt>
      <trkpt lat="48.4675990" lon="1.4798410">
        <ele>103.6</ele>
        <time>2020-07-01T16:08:28Z</time>
      </trkpt>
      <trkpt lat="48.4675160" lon="1.4798110">
        <ele>103.8</ele>
        <time>2020-07-01T16:08:30Z</time>
      </trkpt>
      <trkpt lat="48.4674690" lon="1.4798000">
        <ele>103.8</ele>
        <time>2020-07-01T16:08:31Z</time>
      </trkpt>
      <trkpt lat="48.4673780" lon="1.4797930">
        <ele>103.8</ele>
        <time>2020-07-01T16:08:33Z</time>
      </trkpt>
      <trkpt lat="48.4673250" lon="1.4797900">
        <ele>103.8</ele>
        <time>2020-07-01T16:08:34Z</time>
      </trkpt>
      <trkpt lat="48.4668830" lon="1.4798310">
        <ele>103.8</ele>
        <time>2020-07-01T16:08:42Z</time>
      </trkpt>
      <trkpt lat="48.4668300" lon="1.4798350">
        <ele>103.8</ele>
        <time>2020-07-01T16:08:43Z</time>
      </trkpt>
      <trkpt lat="48.4663740" lon="1.4798900">
        <ele>103.6</ele>
        <time>2020-07-01T16:08:52Z</time>
      </trkpt>
      <trkpt lat="48.4662200" lon="1.4799070">
        <ele>103.6</ele>
        <time>2020-07-01T16:08:55Z</time>
      </trkpt>
      <trkpt lat="48.4658480" lon="1.4800030">
        <ele>103.8</ele>
        <time>2020-07-01T16:09:02Z</time>
      </trkpt>
      <trkpt lat="48.4656440" lon="1.4800730">
        <ele>104.0</ele>
        <time>2020-07-01T16:09:06Z</time>
      </trkpt>
      <trkpt lat="48.4654980" lon="1.4801440">
        <ele>103.8</ele>
        <time>2020-07-01T16:09:09Z</time>
      </trkpt>
      <trkpt lat="48.4654080" lon="1.4801950">
        <ele>104.0</ele>
        <time>2020-07-01T16:09:11Z</time>
      </trkpt>
      <trkpt lat="48.4649720" lon="1.4805150">
        <ele>104.0</ele>
        <time>2020-07-01T16:09:21Z</time>
      </trkpt>
      <trkpt lat="48.4644520" lon="1.4808600">
        <ele>104.4</ele>
        <time>2020-07-01T16:09:32Z</time>
      </trkpt>
      <trkpt lat="48.4644080" lon="1.4808920">
        <ele>104.4</ele>
        <time>2020-07-01T16:09:33Z</time>
      </trkpt>
      <trkpt lat="48.4643630" lon="1.4809210">
        <ele>104.4</ele>
        <time>2020-07-01T16:09:34Z</time>
      </trkpt>
      <trkpt lat="48.4640620" lon="1.4811120">
        <ele>104.4</ele>
        <time>2020-07-01T16:09:41Z</time>
      </trkpt>
      <trkpt lat="48.4640190" lon="1.4811420">
        <ele>104.2</ele>
        <time>2020-07-01T16:09:42Z</time>
      </trkpt>
      <trkpt lat="48.4639750" lon="1.4811730">
        <ele>104.4</ele>
        <time>2020-07-01T16:09:43Z</time>
      </trkpt>
      <trkpt lat="48.4636510" lon="1.4813740">
        <ele>103.4</ele>
        <time>2020-07-01T16:09:50Z</time>
      </trkpt>
      <trkpt lat="48.4634060" lon="1.4814960">
        <ele>103.2</ele>
        <time>2020-07-01T16:09:55Z</time>
      </trkpt>
      <trkpt lat="48.4633570" lon="1.4815200">
        <ele>103.2</ele>
        <time>2020-07-01T16:09:56Z</time>
      </trkpt>
      <trkpt lat="48.4631150" lon="1.4816320">
        <ele>103.2</ele>
        <time>2020-07-01T16:10:01Z</time>
      </trkpt>
      <trkpt lat="48.4628280" lon="1.4817200">
        <ele>102.6</ele>
        <time>2020-07-01T16:10:07Z</time>
      </trkpt>
      <trkpt lat="48.4623490" lon="1.4819090">
        <ele>102.6</ele>
        <time>2020-07-01T16:10:17Z</time>
      </trkpt>
      <trkpt lat="48.4622980" lon="1.4819310">
        <ele>102.6</ele>
        <time>2020-07-01T16:10:18Z</time>
      </trkpt>
      <trkpt lat="48.4620370" lon="1.4820370">
        <ele>102.8</ele>
        <time>2020-07-01T16:10:23Z</time>
      </trkpt>
      <trkpt lat="48.4615080" lon="1.4822470">
        <ele>102.8</ele>
        <time>2020-07-01T16:10:33Z</time>
      </trkpt>
      <trkpt lat="48.4614070" lon="1.4823010">
        <ele>102.8</ele>
        <time>2020-07-01T16:10:35Z</time>
      </trkpt>
      <trkpt lat="48.4611320" lon="1.4824900">
        <ele>102.8</ele>
        <time>2020-07-01T16:10:41Z</time>
      </trkpt>
      <trkpt lat="48.4610830" lon="1.4825280">
        <ele>103.0</ele>
        <time>2020-07-01T16:10:42Z</time>
      </trkpt>
      <trkpt lat="48.4606130" lon="1.4829270">
        <ele>104.2</ele>
        <time>2020-07-01T16:10:52Z</time>
      </trkpt>
      <trkpt lat="48.4603470" lon="1.4831900">
        <ele>104.8</ele>
        <time>2020-07-01T16:10:58Z</time>
      </trkpt>
      <trkpt lat="48.4602110" lon="1.4833250">
        <ele>104.8</ele>
        <time>2020-07-01T16:11:01Z</time>
      </trkpt>
      <trkpt lat="48.4598870" lon="1.4836660">
        <ele>105.4</ele>
        <time>2020-07-01T16:11:09Z</time>
      </trkpt>
      <trkpt lat="48.4597670" lon="1.4837810">
        <ele>105.6</ele>
        <time>2020-07-01T16:11:12Z</time>
      </trkpt>
      <trkpt lat="48.4595120" lon="1.4840560">
        <ele>106.8</ele>
        <time>2020-07-01T16:11:19Z</time>
      </trkpt>
      <trkpt lat="48.4592790" lon="1.4842600">
        <ele>107.2</ele>
        <time>2020-07-01T16:11:25Z</time>
      </trkpt>
      <trkpt lat="48.4590360" lon="1.4844340">
        <ele>108.0</ele>
        <time>2020-07-01T16:11:31Z</time>
      </trkpt>
      <trkpt lat="48.4586550" lon="1.4846360">
        <ele>109.0</ele>
        <time>2020-07-01T16:11:40Z</time>
      </trkpt>
      <trkpt lat="48.4585710" lon="1.4847280">
        <ele>109.0</ele>
        <time>2020-07-01T16:11:42Z</time>
      </trkpt>
      <trkpt lat="48.4584490" lon="1.4848340">
        <ele>109.0</ele>
        <time>2020-07-01T16:11:45Z</time>
      </trkpt>
      <trkpt lat="48.4582320" lon="1.4849920">
        <ele>109.2</ele>
        <time>2020-07-01T16:11:51Z</time>
      </trkpt>
      <trkpt lat="48.4579200" lon="1.4852080">
        <ele>109.4</ele>
        <time>2020-07-01T16:12:00Z</time>
      </trkpt>
      <trkpt lat="48.4577980" lon="1.4853320">
        <ele>109.6</ele>
        <time>2020-07-01T16:12:06Z</time>
      </trkpt>
      <trkpt lat="48.4577850" lon="1.4853520">
        <ele>109.6</ele>
        <time>2020-07-01T16:12:07Z</time>
      </trkpt>
      <trkpt lat="48.4577790" lon="1.4853830">
        <ele>109.8</ele>
        <time>2020-07-01T16:12:12Z</time>
      </trkpt>
      <trkpt lat="48.4577310" lon="1.4854110">
        <ele>110.0</ele>
        <time>2020-07-01T16:12:16Z</time>
      </trkpt>
      <trkpt lat="48.4576550" lon="1.4854490">
        <ele>110.4</ele>
        <time>2020-07-01T16:12:19Z</time>
      </trkpt>
      <trkpt lat="48.4574290" lon="1.4855110">
        <ele>110.4</ele>
        <time>2020-07-01T16:12:25Z</time>
      </trkpt>
      <trkpt lat="48.4570740" lon="1.4856960">
        <ele>110.4</ele>
        <time>2020-07-01T16:12:32Z</time>
      </trkpt>
      <trkpt lat="48.4569400" lon="1.4858200">
        <ele>110.6</ele>
        <time>2020-07-01T16:12:35Z</time>
      </trkpt>
      <trkpt lat="48.4568230" lon="1.4859380">
        <ele>110.6</ele>
        <time>2020-07-01T16:12:38Z</time>
      </trkpt>
      <trkpt lat="48.4567170" lon="1.4860440">
        <ele>111.0</ele>
        <time>2020-07-01T16:12:41Z</time>
      </trkpt>
      <trkpt lat="48.4565910" lon="1.4862010">
        <ele>111.4</ele>
        <time>2020-07-01T16:12:45Z</time>
      </trkpt>
      <trkpt lat="48.4564630" lon="1.4863520">
        <ele>111.6</ele>
        <time>2020-07-01T16:12:49Z</time>
      </trkpt>
      <trkpt lat="48.4564130" lon="1.4864730">
        <ele>112.0</ele>
        <time>2020-07-01T16:12:51Z</time>
      </trkpt>
      <trkpt lat="48.4562790" lon="1.4866850">
        <ele>112.0</ele>
        <time>2020-07-01T16:12:55Z</time>
      </trkpt>
      <trkpt lat="48.4561780" lon="1.4868260">
        <ele>112.4</ele>
        <time>2020-07-01T16:12:58Z</time>
      </trkpt>
      <trkpt lat="48.4561420" lon="1.4868720">
        <ele>112.4</ele>
        <time>2020-07-01T16:12:59Z</time>
      </trkpt>
      <trkpt lat="48.4558630" lon="1.4871780">
        <ele>112.8</ele>
        <time>2020-07-01T16:13:06Z</time>
      </trkpt>
      <trkpt lat="48.4558110" lon="1.4871990">
        <ele>112.6</ele>
        <time>2020-07-01T16:13:07Z</time>
      </trkpt>
      <trkpt lat="48.4554420" lon="1.4873350">
        <ele>113.2</ele>
        <time>2020-07-01T16:13:15Z</time>
      </trkpt>
      <trkpt lat="48.4551510" lon="1.4874070">
        <ele>113.4</ele>
        <time>2020-07-01T16:13:22Z</time>
      </trkpt>
      <trkpt lat="48.4548960" lon="1.4875040">
        <ele>113.4</ele>
        <time>2020-07-01T16:13:27Z</time>
      </trkpt>
      <trkpt lat="48.4548330" lon="1.4875170">
        <ele>113.4</ele>
        <time>2020-07-01T16:13:28Z</time>
      </trkpt>
      <trkpt lat="48.4547100" lon="1.4875450">
        <ele>113.4</ele>
        <time>2020-07-01T16:13:30Z</time>
      </trkpt>
      <trkpt lat="48.4543890" lon="1.4876030">
        <ele>111.8</ele>
        <time>2020-07-01T16:13:36Z</time>
      </trkpt>
      <trkpt lat="48.4540680" lon="1.4878470">
        <ele>109.8</ele>
        <time>2020-07-01T16:13:42Z</time>
      </trkpt>
      <trkpt lat="48.4540120" lon="1.4878950">
        <ele>109.6</ele>
        <time>2020-07-01T16:13:43Z</time>
      </trkpt>
      <trkpt lat="48.4538320" lon="1.4880180">
        <ele>109.2</ele>
        <time>2020-07-01T16:13:46Z</time>
      </trkpt>
      <trkpt lat="48.4537760" lon="1.4880580">
        <ele>108.8</ele>
        <time>2020-07-01T16:13:47Z</time>
      </trkpt>
      <trkpt lat="48.4536650" lon="1.4881450">
        <ele>108.8</ele>
        <time>2020-07-01T16:13:49Z</time>
      </trkpt>
      <trkpt lat="48.4536060" lon="1.4881660">
        <ele>108.4</ele>
        <time>2020-07-01T16:13:50Z</time>
      </trkpt>
      <trkpt lat="48.4535180" lon="1.4882260">
        <ele>107.8</ele>
        <time>2020-07-01T16:13:52Z</time>
      </trkpt>
      <trkpt lat="48.4533790" lon="1.4882690">
        <ele>107.6</ele>
        <time>2020-07-01T16:13:55Z</time>
      </trkpt>
      <trkpt lat="48.4531370" lon="1.4883750">
        <ele>107.8</ele>
        <time>2020-07-01T16:14:03Z</time>
      </trkpt>
      <trkpt lat="48.4529940" lon="1.4884350">
        <ele>108.6</ele>
        <time>2020-07-01T16:14:09Z</time>
      </trkpt>
      <trkpt lat="48.4529570" lon="1.4884550">
        <ele>108.8</ele>
        <time>2020-07-01T16:14:11Z</time>
      </trkpt>
      <trkpt lat="48.4529380" lon="1.4884670">
        <ele>109.0</ele>
        <time>2020-07-01T16:14:16Z</time>
      </trkpt>
      <trkpt lat="48.4529220" lon="1.4884880">
        <ele>109.4</ele>
        <time>2020-07-01T16:14:32Z</time>
      </trkpt>
      <trkpt lat="48.4528730" lon="1.4885260">
        <ele>109.4</ele>
        <time>2020-07-01T16:14:35Z</time>
      </trkpt>
      <trkpt lat="48.4528250" lon="1.4885520">
        <ele>109.2</ele>
        <time>2020-07-01T16:14:37Z</time>
      </trkpt>
      <trkpt lat="48.4525130" lon="1.4886500">
        <ele>108.8</ele>
        <time>2020-07-01T16:14:47Z</time>
      </trkpt>
      <trkpt lat="48.4523670" lon="1.4886670">
        <ele>109.0</ele>
        <time>2020-07-01T16:14:53Z</time>
      </trkpt>
      <trkpt lat="48.4523280" lon="1.4886860">
        <ele>109.0</ele>
        <time>2020-07-01T16:14:56Z</time>
      </trkpt>
      <trkpt lat="48.4522670" lon="1.4887030">
        <ele>109.6</ele>
        <time>2020-07-01T16:14:58Z</time>
      </trkpt>
      <trkpt lat="48.4522070" lon="1.4887560">
        <ele>109.8</ele>
        <time>2020-07-01T16:15:00Z</time>
      </trkpt>
      <trkpt lat="48.4521450" lon="1.4888290">
        <ele>109.8</ele>
        <time>2020-07-01T16:15:02Z</time>
      </trkpt>
      <trkpt lat="48.4520640" lon="1.4889080">
        <ele>109.8</ele>
        <time>2020-07-01T16:15:04Z</time>
      </trkpt>
      <trkpt lat="48.4520210" lon="1.4889560">
        <ele>109.8</ele>
        <time>2020-07-01T16:15:05Z</time>
      </trkpt>
      <trkpt lat="48.4517600" lon="1.4891960">
        <ele>108.4</ele>
        <time>2020-07-01T16:15:10Z</time>
      </trkpt>
      <trkpt lat="48.4515910" lon="1.4893090">
        <ele>106.8</ele>
        <time>2020-07-01T16:15:13Z</time>
      </trkpt>
      <trkpt lat="48.4514270" lon="1.4893760">
        <ele>106.2</ele>
        <time>2020-07-01T16:15:16Z</time>
      </trkpt>
      <trkpt lat="48.4511250" lon="1.4895400">
        <ele>106.2</ele>
        <time>2020-07-01T16:15:23Z</time>
      </trkpt>
      <trkpt lat="48.4510760" lon="1.4895660">
        <ele>106.2</ele>
        <time>2020-07-01T16:15:24Z</time>
      </trkpt>
      <trkpt lat="48.4509250" lon="1.4896120">
        <ele>106.4</ele>
        <time>2020-07-01T16:15:27Z</time>
      </trkpt>
      <trkpt lat="48.4508120" lon="1.4896390">
        <ele>106.8</ele>
        <time>2020-07-01T16:15:29Z</time>
      </trkpt>
      <trkpt lat="48.4506540" lon="1.4896510">
        <ele>107.2</ele>
        <time>2020-07-01T16:15:32Z</time>
      </trkpt>
      <trkpt lat="48.4505560" lon="1.4896490">
        <ele>107.2</ele>
        <time>2020-07-01T16:15:34Z</time>
      </trkpt>
      <trkpt lat="48.4505120" lon="1.4896450">
        <ele>107.4</ele>
        <time>2020-07-01T16:15:35Z</time>
      </trkpt>
      <trkpt lat="48.4502560" lon="1.4896180">
        <ele>108.0</ele>
        <time>2020-07-01T16:15:40Z</time>
      </trkpt>
      <trkpt lat="48.4501580" lon="1.4896420">
        <ele>108.2</ele>
        <time>2020-07-01T16:15:42Z</time>
      </trkpt>
      <trkpt lat="48.4500120" lon="1.4897260">
        <ele>109.0</ele>
        <time>2020-07-01T16:15:46Z</time>
      </trkpt>
      <trkpt lat="48.4499400" lon="1.4897640">
        <ele>109.4</ele>
        <time>2020-07-01T16:15:48Z</time>
      </trkpt>
      <trkpt lat="48.4498170" lon="1.4897900">
        <ele>110.0</ele>
        <time>2020-07-01T16:15:51Z</time>
      </trkpt>
      <trkpt lat="48.4497210" lon="1.4897600">
        <ele>110.2</ele>
        <time>2020-07-01T16:15:53Z</time>
      </trkpt>
      <trkpt lat="48.4496750" lon="1.4897450">
        <ele>110.2</ele>
        <time>2020-07-01T16:15:54Z</time>
      </trkpt>
      <trkpt lat="48.4496280" lon="1.4897330">
        <ele>110.2</ele>
        <time>2020-07-01T16:15:55Z</time>
      </trkpt>
      <trkpt lat="48.4495770" lon="1.4897260">
        <ele>110.2</ele>
        <time>2020-07-01T16:15:56Z</time>
      </trkpt>
      <trkpt lat="48.4495270" lon="1.4897310">
        <ele>110.2</ele>
        <time>2020-07-01T16:15:57Z</time>
      </trkpt>
      <trkpt lat="48.4494800" lon="1.4897510">
        <ele>110.2</ele>
        <time>2020-07-01T16:15:58Z</time>
      </trkpt>
      <trkpt lat="48.4494370" lon="1.4897780">
        <ele>110.2</ele>
        <time>2020-07-01T16:15:59Z</time>
      </trkpt>
      <trkpt lat="48.4493190" lon="1.4899050">
        <ele>110.2</ele>
        <time>2020-07-01T16:16:02Z</time>
      </trkpt>
      <trkpt lat="48.4492840" lon="1.4899550">
        <ele>109.8</ele>
        <time>2020-07-01T16:16:03Z</time>
      </trkpt>
      <trkpt lat="48.4490130" lon="1.4902480">
        <ele>108.0</ele>
        <time>2020-07-01T16:16:10Z</time>
      </trkpt>
      <trkpt lat="48.4487980" lon="1.4903580">
        <ele>107.6</ele>
        <time>2020-07-01T16:16:16Z</time>
      </trkpt>
      <trkpt lat="48.4485940" lon="1.4904450">
        <ele>107.8</ele>
        <time>2020-07-01T16:16:21Z</time>
      </trkpt>
      <trkpt lat="48.4485070" lon="1.4904530">
        <ele>107.8</ele>
        <time>2020-07-01T16:16:23Z</time>
      </trkpt>
      <trkpt lat="48.4482180" lon="1.4903950">
        <ele>108.0</ele>
        <time>2020-07-01T16:16:30Z</time>
      </trkpt>
      <trkpt lat="48.4481830" lon="1.4903860">
        <ele>108.0</ele>
        <time>2020-07-01T16:16:31Z</time>
      </trkpt>
      <trkpt lat="48.4480630" lon="1.4903890">
        <ele>108.2</ele>
        <time>2020-07-01T16:16:35Z</time>
      </trkpt>
      <trkpt lat="48.4479970" lon="1.4904420">
        <ele>108.8</ele>
        <time>2020-07-01T16:16:38Z</time>
      </trkpt>
      <trkpt lat="48.4477760" lon="1.4905800">
        <ele>110.2</ele>
        <time>2020-07-01T16:16:46Z</time>
      </trkpt>
      <trkpt lat="48.4474600" lon="1.4906950">
        <ele>110.8</ele>
        <time>2020-07-01T16:16:55Z</time>
      </trkpt>
      <trkpt lat="48.4474230" lon="1.4907090">
        <ele>110.8</ele>
        <time>2020-07-01T16:16:56Z</time>
      </trkpt>
      <trkpt lat="48.4472630" lon="1.4907380">
        <ele>110.8</ele>
        <time>2020-07-01T16:17:00Z</time>
      </trkpt>
      <trkpt lat="48.4471420" lon="1.4907590">
        <ele>110.8</ele>
        <time>2020-07-01T16:17:03Z</time>
      </trkpt>
      <trkpt lat="48.4470630" lon="1.4907910">
        <ele>111.0</ele>
        <time>2020-07-01T16:17:07Z</time>
      </trkpt>
      <trkpt lat="48.4469930" lon="1.4908200">
        <ele>111.8</ele>
        <time>2020-07-01T16:17:12Z</time>
      </trkpt>
      <trkpt lat="48.4469690" lon="1.4908530">
        <ele>112.0</ele>
        <time>2020-07-01T16:17:15Z</time>
      </trkpt>
      <trkpt lat="48.4469500" lon="1.4908160">
        <ele>112.2</ele>
        <time>2020-07-01T16:17:19Z</time>
      </trkpt>
      <trkpt lat="48.4469470" lon="1.4907940">
        <ele>112.2</ele>
        <time>2020-07-01T16:17:20Z</time>
      </trkpt>
      <trkpt lat="48.4469470" lon="1.4907070">
        <ele>112.4</ele>
        <time>2020-07-01T16:17:24Z</time>
      </trkpt>
      <trkpt lat="48.4469510" lon="1.4906330">
        <ele>112.4</ele>
        <time>2020-07-01T16:17:28Z</time>
      </trkpt>
      <trkpt lat="48.4469610" lon="1.4906070">
        <ele>112.8</ele>
        <time>2020-07-01T16:17:30Z</time>
      </trkpt>
      <trkpt lat="48.4469300" lon="1.4906000">
        <ele>113.4</ele>
        <time>2020-07-01T16:17:34Z</time>
      </trkpt>
      <trkpt lat="48.4469420" lon="1.4905810">
        <ele>114.4</ele>
        <time>2020-07-01T16:17:39Z</time>
      </trkpt>
      <trkpt lat="48.4469680" lon="1.4905390">
        <ele>114.4</ele>
        <time>2020-07-01T16:17:41Z</time>
      </trkpt>
      <trkpt lat="48.4469870" lon="1.4904720">
        <ele>114.6</ele>
        <time>2020-07-01T16:17:44Z</time>
      </trkpt>
      <trkpt lat="48.4469890" lon="1.4904470">
        <ele>114.6</ele>
        <time>2020-07-01T16:17:45Z</time>
      </trkpt>
      <trkpt lat="48.4470030" lon="1.4904020">
        <ele>114.8</ele>
        <time>2020-07-01T16:17:47Z</time>
      </trkpt>
      <trkpt lat="48.4470480" lon="1.4903050">
        <ele>115.0</ele>
        <time>2020-07-01T16:17:51Z</time>
      </trkpt>
      <trkpt lat="48.4470750" lon="1.4902230">
        <ele>115.8</ele>
        <time>2020-07-01T16:17:54Z</time>
      </trkpt>
      <trkpt lat="48.4471020" lon="1.4901570">
        <ele>116.6</ele>
        <time>2020-07-01T16:17:57Z</time>
      </trkpt>
      <trkpt lat="48.4471450" lon="1.4900920">
        <ele>117.8</ele>
        <time>2020-07-01T16:18:01Z</time>
      </trkpt>
      <trkpt lat="48.4471840" lon="1.4900330">
        <ele>119.0</ele>
        <time>2020-07-01T16:18:05Z</time>
      </trkpt>
      <trkpt lat="48.4472100" lon="1.4900030">
        <ele>119.6</ele>
        <time>2020-07-01T16:18:07Z</time>
      </trkpt>
      <trkpt lat="48.4472380" lon="1.4899650">
        <ele>120.0</ele>
        <time>2020-07-01T16:18:09Z</time>
      </trkpt>
      <trkpt lat="48.4472760" lon="1.4898820">
        <ele>120.8</ele>
        <time>2020-07-01T16:18:13Z</time>
      </trkpt>
      <trkpt lat="48.4472880" lon="1.4898750">
        <ele>121.0</ele>
        <time>2020-07-01T16:18:14Z</time>
      </trkpt>
      <trkpt lat="48.4473000" lon="1.4898680">
        <ele>121.0</ele>
        <time>2020-07-01T16:18:15Z</time>
      </trkpt>
      <trkpt lat="48.4473120" lon="1.4898560">
        <ele>121.2</ele>
        <time>2020-07-01T16:18:16Z</time>
      </trkpt>
      <trkpt lat="48.4473500" lon="1.4898060">
        <ele>122.0</ele>
        <time>2020-07-01T16:18:20Z</time>
      </trkpt>
      <trkpt lat="48.4473540" lon="1.4897920">
        <ele>122.4</ele>
        <time>2020-07-01T16:18:21Z</time>
      </trkpt>
      <trkpt lat="48.4473620" lon="1.4897810">
        <ele>122.4</ele>
        <time>2020-07-01T16:18:22Z</time>
      </trkpt>
      <trkpt lat="48.4473940" lon="1.4897330">
        <ele>123.6</ele>
        <time>2020-07-01T16:18:27Z</time>
      </trkpt>
      <trkpt lat="48.4474390" lon="1.4896800">
        <ele>124.8</ele>
        <time>2020-07-01T16:18:31Z</time>
      </trkpt>
      <trkpt lat="48.4474500" lon="1.4896680">
        <ele>125.2</ele>
        <time>2020-07-01T16:18:32Z</time>
      </trkpt>
      <trkpt lat="48.4475270" lon="1.4895880">
        <ele>126.4</ele>
        <time>2020-07-01T16:18:38Z</time>
      </trkpt>
      <trkpt lat="48.4475340" lon="1.4895710">
        <ele>126.6</ele>
        <time>2020-07-01T16:18:39Z</time>
      </trkpt>
      <trkpt lat="48.4475410" lon="1.4894440">
        <ele>127.6</ele>
        <time>2020-07-01T16:18:45Z</time>
      </trkpt>
      <trkpt lat="48.4475390" lon="1.4894270">
        <ele>128.0</ele>
        <time>2020-07-01T16:18:46Z</time>
      </trkpt>
      <trkpt lat="48.4474870" lon="1.4893260">
        <ele>128.6</ele>
        <time>2020-07-01T16:18:51Z</time>
      </trkpt>
      <trkpt lat="48.4474800" lon="1.4893020">
        <ele>129.0</ele>
        <time>2020-07-01T16:18:52Z</time>
      </trkpt>
      <trkpt lat="48.4474320" lon="1.4891450">
        <ele>130.2</ele>
        <time>2020-07-01T16:18:58Z</time>
      </trkpt>
      <trkpt lat="48.4473910" lon="1.4890780">
        <ele>130.6</ele>
        <time>2020-07-01T16:19:01Z</time>
      </trkpt>
      <trkpt lat="48.4473460" lon="1.4890220">
        <ele>131.2</ele>
        <time>2020-07-01T16:19:04Z</time>
      </trkpt>
      <trkpt lat="48.4473070" lon="1.4889160">
        <ele>132.0</ele>
        <time>2020-07-01T16:19:09Z</time>
      </trkpt>
      <trkpt lat="48.4472930" lon="1.4888770">
        <ele>132.6</ele>
        <time>2020-07-01T16:19:11Z</time>
      </trkpt>
      <trkpt lat="48.4472510" lon="1.4887970">
        <ele>133.2</ele>
        <time>2020-07-01T16:19:16Z</time>
      </trkpt>
      <trkpt lat="48.4471830" lon="1.4886740">
        <ele>134.2</ele>
        <time>2020-07-01T16:19:23Z</time>
      </trkpt>
      <trkpt lat="48.4471740" lon="1.4886420">
        <ele>134.4</ele>
        <time>2020-07-01T16:19:25Z</time>
      </trkpt>
      <trkpt lat="48.4471010" lon="1.4885880">
        <ele>134.8</ele>
        <time>2020-07-01T16:19:28Z</time>
      </trkpt>
      <trkpt lat="48.4470390" lon="1.4884050">
        <ele>135.0</ele>
        <time>2020-07-01T16:19:34Z</time>
      </trkpt>
      <trkpt lat="48.4470040" lon="1.4883770">
        <ele>135.0</ele>
        <time>2020-07-01T16:19:36Z</time>
      </trkpt>
      <trkpt lat="48.4470050" lon="1.4883160">
        <ele>135.4</ele>
        <time>2020-07-01T16:19:39Z</time>
      </trkpt>
      <trkpt lat="48.4470180" lon="1.4882950">
        <ele>135.6</ele>
        <time>2020-07-01T16:19:40Z</time>
      </trkpt>
      <trkpt lat="48.4471060" lon="1.4881890">
        <ele>136.0</ele>
        <time>2020-07-01T16:19:45Z</time>
      </trkpt>
      <trkpt lat="48.4472160" lon="1.4880470">
        <ele>136.2</ele>
        <time>2020-07-01T16:19:52Z</time>
      </trkpt>
      <trkpt lat="48.4472260" lon="1.4880020">
        <ele>136.2</ele>
        <time>2020-07-01T16:19:54Z</time>
      </trkpt>
      <trkpt lat="48.4472430" lon="1.4878870">
        <ele>136.4</ele>
        <time>2020-07-01T16:19:58Z</time>
      </trkpt>
      <trkpt lat="48.4472410" lon="1.4878260">
        <ele>136.6</ele>
        <time>2020-07-01T16:20:00Z</time>
      </trkpt>
      <trkpt lat="48.4472070" lon="1.4877020">
        <ele>136.8</ele>
        <time>2020-07-01T16:20:06Z</time>
      </trkpt>
      <trkpt lat="48.4471930" lon="1.4876820">
        <ele>137.0</ele>
        <time>2020-07-01T16:20:10Z</time>
      </trkpt>
      <trkpt lat="48.4471930" lon="1.4876820">
        <ele>137.2</ele>
        <time>2020-07-01T16:20:14Z</time>
      </trkpt>
      <trkpt lat="48.4471620" lon="1.4876220">
        <ele>137.4</ele>
        <time>2020-07-01T16:20:30Z</time>
      </trkpt>
      <trkpt lat="48.4471190" lon="1.4875090">
        <ele>137.2</ele>
        <time>2020-07-01T16:20:35Z</time>
      </trkpt>
      <trkpt lat="48.4471220" lon="1.4874410">
        <ele>137.4</ele>
        <time>2020-07-01T16:20:37Z</time>
      </trkpt>
      <trkpt lat="48.4471810" lon="1.4872510">
        <ele>137.0</ele>
        <time>2020-07-01T16:20:44Z</time>
      </trkpt>
      <trkpt lat="48.4471970" lon="1.4872310">
        <ele>137.0</ele>
        <time>2020-07-01T16:20:45Z</time>
      </trkpt>
      <trkpt lat="48.4472410" lon="1.4871760">
        <ele>137.0</ele>
        <time>2020-07-01T16:20:48Z</time>
      </trkpt>
      <trkpt lat="48.4473020" lon="1.4871210">
        <ele>136.8</ele>
        <time>2020-07-01T16:20:53Z</time>
      </trkpt>
      <trkpt lat="48.4473160" lon="1.4871140">
        <ele>137.0</ele>
        <time>2020-07-01T16:20:54Z</time>
      </trkpt>
      <trkpt lat="48.4474340" lon="1.4870390">
        <ele>137.8</ele>
        <time>2020-07-01T16:21:02Z</time>
      </trkpt>
      <trkpt lat="48.4475720" lon="1.4869980">
        <ele>138.2</ele>
        <time>2020-07-01T16:21:11Z</time>
      </trkpt>
      <trkpt lat="48.4475500" lon="1.4868570">
        <ele>138.2</ele>
        <time>2020-07-01T16:21:18Z</time>
      </trkpt>
      <trkpt lat="48.4475490" lon="1.4867850">
        <ele>138.2</ele>
        <time>2020-07-01T16:21:26Z</time>
      </trkpt>
      <trkpt lat="48.4475440" lon="1.4867820">
        <ele>138.2</ele>
        <time>2020-07-01T16:21:40Z</time>
      </trkpt>
      <trkpt lat="48.4475310" lon="1.4867800">
        <ele>138.4</ele>
        <time>2020-07-01T16:21:46Z</time>
      </trkpt>
      <trkpt lat="48.4475240" lon="1.4867870">
        <ele>138.6</ele>
        <time>2020-07-01T16:21:48Z</time>
      </trkpt>
      <trkpt lat="48.4475390" lon="1.4868290">
        <ele>138.8</ele>
        <time>2020-07-01T16:21:53Z</time>
      </trkpt>
      <trkpt lat="48.4475500" lon="1.4868450">
        <ele>138.8</ele>
        <time>2020-07-01T16:21:54Z</time>
      </trkpt>
      <trkpt lat="48.4476230" lon="1.4870140">
        <ele>138.4</ele>
        <time>2020-07-01T16:22:02Z</time>
      </trkpt>
      <trkpt lat="48.4477030" lon="1.4871910">
        <ele>138.4</ele>
        <time>2020-07-01T16:22:10Z</time>
      </trkpt>
      <trkpt lat="48.4477700" lon="1.4873140">
        <ele>138.2</ele>
        <time>2020-07-01T16:22:16Z</time>
      </trkpt>
      <trkpt lat="48.4477860" lon="1.4873360">
        <ele>138.2</ele>
        <time>2020-07-01T16:22:17Z</time>
      </trkpt>
      <trkpt lat="48.4479180" lon="1.4875470">
        <ele>138.0</ele>
        <time>2020-07-01T16:22:25Z</time>
      </trkpt>
      <trkpt lat="48.4480040" lon="1.4876810">
        <ele>137.6</ele>
        <time>2020-07-01T16:22:33Z</time>
      </trkpt>
      <trkpt lat="48.4480650" lon="1.4877010">
        <ele>137.6</ele>
        <time>2020-07-01T16:22:40Z</time>
      </trkpt>
      <trkpt lat="48.4480610" lon="1.4876470">
        <ele>137.4</ele>
        <time>2020-07-01T16:22:47Z</time>
      </trkpt>
      <trkpt lat="48.4481120" lon="1.4876340">
        <ele>137.4</ele>
        <time>2020-07-01T16:22:53Z</time>
      </trkpt>
      <trkpt lat="48.4481860" lon="1.4875430">
        <ele>137.6</ele>
        <time>2020-07-01T16:23:02Z</time>
      </trkpt>
      <trkpt lat="48.4481860" lon="1.4875420">
        <ele>137.6</ele>
        <time>2020-07-01T16:23:03Z</time>
      </trkpt>
      <trkpt lat="48.4481860" lon="1.4875420">
        <ele>137.8</ele>
        <time>2020-07-01T16:23:04Z</time>
      </trkpt>
      <trkpt lat="48.4481900" lon="1.4875390">
        <ele>137.8</ele>
        <time>2020-07-01T16:23:13Z</time>
      </trkpt>
      <trkpt lat="48.4481930" lon="1.4875360">
        <ele>137.8</ele>
        <time>2020-07-01T16:23:22Z</time>
      </trkpt>
      <trkpt lat="48.4481950" lon="1.4875330">
        <ele>137.8</ele>
        <time>2020-07-01T16:23:27Z</time>
      </trkpt>
      <trkpt lat="48.4482010" lon="1.4875180">
        <ele>137.6</ele>
        <time>2020-07-01T16:23:44Z</time>
      </trkpt>
      <trkpt lat="48.4482360" lon="1.4874840">
        <ele>137.6</ele>
        <time>2020-07-01T16:24:02Z</time>
      </trkpt>
      <trkpt lat="48.4482550" lon="1.4874600">
        <ele>137.6</ele>
        <time>2020-07-01T16:24:16Z</time>
      </trkpt>
      <trkpt lat="48.4481940" lon="1.4873520">
        <ele>137.2</ele>
        <time>2020-07-01T16:24:27Z</time>
      </trkpt>
      <trkpt lat="48.4481740" lon="1.4873350">
        <ele>137.2</ele>
        <time>2020-07-01T16:24:29Z</time>
      </trkpt>
      <trkpt lat="48.4481490" lon="1.4873090">
        <ele>137.2</ele>
        <time>2020-07-01T16:24:32Z</time>
      </trkpt>
      <trkpt lat="48.4480300" lon="1.4872020">
        <ele>137.2</ele>
        <time>2020-07-01T16:24:39Z</time>
      </trkpt>
      <trkpt lat="48.4480020" lon="1.4871820">
        <ele>137.2</ele>
        <time>2020-07-01T16:24:40Z</time>
      </trkpt>
      <trkpt lat="48.4478270" lon="1.4870850">
        <ele>137.4</ele>
        <time>2020-07-01T16:24:47Z</time>
      </trkpt>
      <trkpt lat="48.4476300" lon="1.4869870">
        <ele>137.4</ele>
        <time>2020-07-01T16:24:55Z</time>
      </trkpt>
      <trkpt lat="48.4475480" lon="1.4870490">
        <ele>137.6</ele>
        <time>2020-07-01T16:24:59Z</time>
      </trkpt>
      <trkpt lat="48.4473940" lon="1.4872360">
        <ele>137.8</ele>
        <time>2020-07-01T16:25:06Z</time>
      </trkpt>
      <trkpt lat="48.4472400" lon="1.4873820">
        <ele>138.2</ele>
        <time>2020-07-01T16:25:15Z</time>
      </trkpt>
      <trkpt lat="48.4472230" lon="1.4874130">
        <ele>138.0</ele>
        <time>2020-07-01T16:25:17Z</time>
      </trkpt>
      <trkpt lat="48.4471790" lon="1.4875260">
        <ele>138.2</ele>
        <time>2020-07-01T16:25:22Z</time>
      </trkpt>
      <trkpt lat="48.4471250" lon="1.4876690">
        <ele>138.4</ele>
        <time>2020-07-01T16:25:29Z</time>
      </trkpt>
      <trkpt lat="48.4470850" lon="1.4876690">
        <ele>138.2</ele>
        <time>2020-07-01T16:25:36Z</time>
      </trkpt>
      <trkpt lat="48.4470770" lon="1.4876670">
        <ele>138.2</ele>
        <time>2020-07-01T16:25:37Z</time>
      </trkpt>
      <trkpt lat="48.4470730" lon="1.4876660">
        <ele>138.2</ele>
        <time>2020-07-01T16:25:38Z</time>
      </trkpt>
      <trkpt lat="48.4470690" lon="1.4876660">
        <ele>138.2</ele>
        <time>2020-07-01T16:25:39Z</time>
      </trkpt>
      <trkpt lat="48.4465410" lon="1.4836840">
        <ele>153.2</ele>
        <time>2020-07-02T06:50:35Z</time>
      </trkpt>
      <trkpt lat="48.4462220" lon="1.4836240">
        <ele>154.0</ele>
        <time>2020-07-02T06:50:45Z</time>
      </trkpt>
      <trkpt lat="48.4458560" lon="1.4835750">
        <ele>154.0</ele>
        <time>2020-07-02T06:50:56Z</time>
      </trkpt>
      <trkpt lat="48.4458230" lon="1.4835640">
        <ele>154.2</ele>
        <time>2020-07-02T06:50:57Z</time>
      </trkpt>
      <trkpt lat="48.4454880" lon="1.4834650">
        <ele>155.2</ele>
        <time>2020-07-02T06:51:07Z</time>
      </trkpt>
      <trkpt lat="48.4451360" lon="1.4834250">
        <ele>155.4</ele>
        <time>2020-07-02T06:51:18Z</time>
      </trkpt>
      <trkpt lat="48.4451060" lon="1.4834140">
        <ele>155.6</ele>
        <time>2020-07-02T06:51:19Z</time>
      </trkpt>
      <trkpt lat="48.4447040" lon="1.4833640">
        <ele>156.6</ele>
        <time>2020-07-02T06:51:32Z</time>
      </trkpt>
      <trkpt lat="48.4443820" lon="1.4833620">
        <ele>156.8</ele>
        <time>2020-07-02T06:51:41Z</time>
      </trkpt>
      <trkpt lat="48.4440660" lon="1.4833320">
        <ele>157.0</ele>
        <time>2020-07-02T06:51:50Z</time>
      </trkpt>
      <trkpt lat="48.4438510" lon="1.4834140">
        <ele>157.0</ele>
        <time>2020-07-02T06:51:56Z</time>
      </trkpt>
      <trkpt lat="48.4436750" lon="1.4836500">
        <ele>157.0</ele>
        <time>2020-07-02T06:52:02Z</time>
      </trkpt>
      <trkpt lat="48.4436130" lon="1.4839630">
        <ele>157.0</ele>
        <time>2020-07-02T06:52:07Z</time>
      </trkpt>
      <trkpt lat="48.4436560" lon="1.4842350">
        <ele>157.2</ele>
        <time>2020-07-02T06:52:12Z</time>
      </trkpt>
      <trkpt lat="48.4436640" lon="1.4843610">
        <ele>157.2</ele>
        <time>2020-07-02T06:52:15Z</time>
      </trkpt>
      <trkpt lat="48.4436300" lon="1.4844340">
        <ele>157.4</ele>
        <time>2020-07-02T06:52:17Z</time>
      </trkpt>
      <trkpt lat="48.4434490" lon="1.4846920">
        <ele>157.6</ele>
        <time>2020-07-02T06:52:25Z</time>
      </trkpt>
      <trkpt lat="48.4432470" lon="1.4849860">
        <ele>157.8</ele>
        <time>2020-07-02T06:52:32Z</time>
      </trkpt>
      <trkpt lat="48.4428980" lon="1.4855240">
        <ele>158.0</ele>
        <time>2020-07-02T06:52:43Z</time>
      </trkpt>
      <trkpt lat="48.4426650" lon="1.4860260">
        <ele>157.6</ele>
        <time>2020-07-02T06:52:51Z</time>
      </trkpt>
      <trkpt lat="48.4425400" lon="1.4864480">
        <ele>157.0</ele>
        <time>2020-07-02T06:52:57Z</time>
      </trkpt>
      <trkpt lat="48.4425050" lon="1.4865990">
        <ele>156.8</ele>
        <time>2020-07-02T06:52:59Z</time>
      </trkpt>
      <trkpt lat="48.4424130" lon="1.4873040">
        <ele>156.2</ele>
        <time>2020-07-02T06:53:08Z</time>
      </trkpt>
      <trkpt lat="48.4423080" lon="1.4879430">
        <ele>156.0</ele>
        <time>2020-07-02T06:53:16Z</time>
      </trkpt>
      <trkpt lat="48.4422610" lon="1.4882670">
        <ele>155.6</ele>
        <time>2020-07-02T06:53:20Z</time>
      </trkpt>
      <trkpt lat="48.4421040" lon="1.4889150">
        <ele>155.2</ele>
        <time>2020-07-02T06:53:29Z</time>
      </trkpt>
      <trkpt lat="48.4420020" lon="1.4895090">
        <ele>155.0</ele>
        <time>2020-07-02T06:53:38Z</time>
      </trkpt>
      <trkpt lat="48.4419770" lon="1.4895740">
        <ele>155.2</ele>
        <time>2020-07-02T06:53:39Z</time>
      </trkpt>
      <trkpt lat="48.4419440" lon="1.4896410">
        <ele>155.2</ele>
        <time>2020-07-02T06:53:40Z</time>
      </trkpt>
      <trkpt lat="48.4419030" lon="1.4897710">
        <ele>154.8</ele>
        <time>2020-07-02T06:53:42Z</time>
      </trkpt>
      <trkpt lat="48.4418860" lon="1.4898370">
        <ele>154.6</ele>
        <time>2020-07-02T06:53:43Z</time>
      </trkpt>
      <trkpt lat="48.4418490" lon="1.4899850">
        <ele>154.8</ele>
        <time>2020-07-02T06:53:45Z</time>
      </trkpt>
      <trkpt lat="48.4418460" lon="1.4900710">
        <ele>154.4</ele>
        <time>2020-07-02T06:53:46Z</time>
      </trkpt>
      <trkpt lat="48.4418500" lon="1.4901620">
        <ele>154.4</ele>
        <time>2020-07-02T06:53:47Z</time>
      </trkpt>
      <trkpt lat="48.4418540" lon="1.4904650">
        <ele>153.8</ele>
        <time>2020-07-02T06:53:50Z</time>
      </trkpt>
      <trkpt lat="48.4418430" lon="1.4906900">
        <ele>153.6</ele>
        <time>2020-07-02T06:53:52Z</time>
      </trkpt>
      <trkpt lat="48.4418340" lon="1.4907990">
        <ele>153.4</ele>
        <time>2020-07-02T06:53:53Z</time>
      </trkpt>
      <trkpt lat="48.4418150" lon="1.4910120">
        <ele>153.0</ele>
        <time>2020-07-02T06:53:55Z</time>
      </trkpt>
      <trkpt lat="48.4417650" lon="1.4915640">
        <ele>150.0</ele>
        <time>2020-07-02T06:54:00Z</time>
      </trkpt>
      <trkpt lat="48.4417600" lon="1.4916880">
        <ele>149.4</ele>
        <time>2020-07-02T06:54:01Z</time>
      </trkpt>
      <trkpt lat="48.4417580" lon="1.4918140">
        <ele>149.2</ele>
        <time>2020-07-02T06:54:02Z</time>
      </trkpt>
      <trkpt lat="48.4417610" lon="1.4920710">
        <ele>148.4</ele>
        <time>2020-07-02T06:54:04Z</time>
      </trkpt>
      <trkpt lat="48.4417790" lon="1.4926030">
        <ele>147.8</ele>
        <time>2020-07-02T06:54:08Z</time>
      </trkpt>
      <trkpt lat="48.4417940" lon="1.4927350">
        <ele>147.8</ele>
        <time>2020-07-02T06:54:09Z</time>
      </trkpt>
      <trkpt lat="48.4418430" lon="1.4929930">
        <ele>146.0</ele>
        <time>2020-07-02T06:54:11Z</time>
      </trkpt>
      <trkpt lat="48.4419140" lon="1.4932260">
        <ele>145.2</ele>
        <time>2020-07-02T06:54:13Z</time>
      </trkpt>
      <trkpt lat="48.4419530" lon="1.4933360">
        <ele>144.0</ele>
        <time>2020-07-02T06:54:14Z</time>
      </trkpt>
      <trkpt lat="48.4420440" lon="1.4935560">
        <ele>142.6</ele>
        <time>2020-07-02T06:54:16Z</time>
      </trkpt>
      <trkpt lat="48.4421880" lon="1.4938930">
        <ele>141.6</ele>
        <time>2020-07-02T06:54:19Z</time>
      </trkpt>
      <trkpt lat="48.4422920" lon="1.4941180">
        <ele>140.4</ele>
        <time>2020-07-02T06:54:21Z</time>
      </trkpt>
      <trkpt lat="48.4424610" lon="1.4944580">
        <ele>139.4</ele>
        <time>2020-07-02T06:54:24Z</time>
      </trkpt>
      <trkpt lat="48.4426860" lon="1.4949450">
        <ele>137.2</ele>
        <time>2020-07-02T06:54:28Z</time>
      </trkpt>
      <trkpt lat="48.4427470" lon="1.4950690">
        <ele>136.6</ele>
        <time>2020-07-02T06:54:29Z</time>
      </trkpt>
      <trkpt lat="48.4429220" lon="1.4954380">
        <ele>135.0</ele>
        <time>2020-07-02T06:54:32Z</time>
      </trkpt>
      <trkpt lat="48.4430390" lon="1.4956620">
        <ele>133.2</ele>
        <time>2020-07-02T06:54:34Z</time>
      </trkpt>
      <trkpt lat="48.4431040" lon="1.4957640">
        <ele>132.8</ele>
        <time>2020-07-02T06:54:35Z</time>
      </trkpt>
      <trkpt lat="48.4434450" lon="1.4961660">
        <ele>130.8</ele>
        <time>2020-07-02T06:54:40Z</time>
      </trkpt>
      <trkpt lat="48.4436370" lon="1.4963140">
        <ele>130.4</ele>
        <time>2020-07-02T06:54:43Z</time>
      </trkpt>
      <trkpt lat="48.4437560" lon="1.4963690">
        <ele>130.4</ele>
        <time>2020-07-02T06:54:45Z</time>
      </trkpt>
      <trkpt lat="48.4440210" lon="1.4964370">
        <ele>130.0</ele>
        <time>2020-07-02T06:54:51Z</time>
      </trkpt>
      <trkpt lat="48.4441000" lon="1.4964490">
        <ele>130.2</ele>
        <time>2020-07-02T06:54:55Z</time>
      </trkpt>
      <trkpt lat="48.4441050" lon="1.4964360">
        <ele>130.4</ele>
        <time>2020-07-02T06:55:00Z</time>
      </trkpt>
      <trkpt lat="48.4441040" lon="1.4964290">
        <ele>130.6</ele>
        <time>2020-07-02T06:55:01Z</time>
      </trkpt>
      <trkpt lat="48.4441040" lon="1.4964280">
        <ele>130.6</ele>
        <time>2020-07-02T06:55:02Z</time>
      </trkpt>
      <trkpt lat="48.4441040" lon="1.4964280">
        <ele>130.8</ele>
        <time>2020-07-02T06:55:03Z</time>
      </trkpt>
      <trkpt lat="48.4440990" lon="1.4964230">
        <ele>131.0</ele>
        <time>2020-07-02T06:55:25Z</time>
      </trkpt>
      <trkpt lat="48.4440390" lon="1.4964160">
        <ele>131.0</ele>
        <time>2020-07-02T06:55:38Z</time>
      </trkpt>
      <trkpt lat="48.4440190" lon="1.4964140">
        <ele>130.8</ele>
        <time>2020-07-02T06:55:39Z</time>
      </trkpt>
      <trkpt lat="48.4439980" lon="1.4964110">
        <ele>131.0</ele>
        <time>2020-07-02T06:55:40Z</time>
      </trkpt>
      <trkpt lat="48.4439750" lon="1.4964050">
        <ele>130.8</ele>
        <time>2020-07-02T06:55:41Z</time>
      </trkpt>
      <trkpt lat="48.4438760" lon="1.4963760">
        <ele>131.0</ele>
        <time>2020-07-02T06:55:45Z</time>
      </trkpt>
      <trkpt lat="48.4435600" lon="1.4962370">
        <ele>131.4</ele>
        <time>2020-07-02T06:55:56Z</time>
      </trkpt>
      <trkpt lat="48.4433180" lon="1.4961120">
        <ele>131.6</ele>
        <time>2020-07-02T06:56:05Z</time>
      </trkpt>
      <trkpt lat="48.4433030" lon="1.4961240">
        <ele>131.4</ele>
        <time>2020-07-02T06:56:06Z</time>
      </trkpt>
      <trkpt lat="48.4432910" lon="1.4961450">
        <ele>131.4</ele>
        <time>2020-07-02T06:56:07Z</time>
      </trkpt>
      <trkpt lat="48.4432740" lon="1.4962240">
        <ele>131.4</ele>
        <time>2020-07-02T06:56:09Z</time>
      </trkpt>
      <trkpt lat="48.4433150" lon="1.4964150">
        <ele>131.2</ele>
        <time>2020-07-02T06:56:14Z</time>
      </trkpt>
      <trkpt lat="48.4433530" lon="1.4965130">
        <ele>130.0</ele>
        <time>2020-07-02T06:56:17Z</time>
      </trkpt>
      <trkpt lat="48.4433420" lon="1.4966170">
        <ele>129.2</ele>
        <time>2020-07-02T06:56:20Z</time>
      </trkpt>
      <trkpt lat="48.4432470" lon="1.4968200">
        <ele>128.4</ele>
        <time>2020-07-02T06:56:26Z</time>
      </trkpt>
      <trkpt lat="48.4431300" lon="1.4970470">
        <ele>127.8</ele>
        <time>2020-07-02T06:56:33Z</time>
      </trkpt>
      <trkpt lat="48.4430890" lon="1.4972050">
        <ele>127.8</ele>
        <time>2020-07-02T06:56:39Z</time>
      </trkpt>
      <trkpt lat="48.4430790" lon="1.4972130">
        <ele>127.8</ele>
        <time>2020-07-02T06:56:40Z</time>
      </trkpt>
      <trkpt lat="48.4430220" lon="1.4972610">
        <ele>127.8</ele>
        <time>2020-07-02T06:56:47Z</time>
      </trkpt>
      <trkpt lat="48.4429890" lon="1.4973160">
        <ele>128.0</ele>
        <time>2020-07-02T06:56:49Z</time>
      </trkpt>
      <trkpt lat="48.4428860" lon="1.4974570">
        <ele>129.0</ele>
        <time>2020-07-02T06:56:54Z</time>
      </trkpt>
      <trkpt lat="48.4426520" lon="1.4977180">
        <ele>129.4</ele>
        <time>2020-07-02T06:57:02Z</time>
      </trkpt>
      <trkpt lat="48.4424940" lon="1.4978620">
        <ele>129.4</ele>
        <time>2020-07-02T06:57:07Z</time>
      </trkpt>
      <trkpt lat="48.4424610" lon="1.4978940">
        <ele>129.4</ele>
        <time>2020-07-02T06:57:08Z</time>
      </trkpt>
      <trkpt lat="48.4423380" lon="1.4980790">
        <ele>129.4</ele>
        <time>2020-07-02T06:57:11Z</time>
      </trkpt>
      <trkpt lat="48.4423200" lon="1.4981090">
        <ele>129.4</ele>
        <time>2020-07-02T06:57:12Z</time>
      </trkpt>
      <trkpt lat="48.4421480" lon="1.4984180">
        <ele>129.0</ele>
        <time>2020-07-02T06:57:17Z</time>
      </trkpt>
      <trkpt lat="48.4421220" lon="1.4984860">
        <ele>128.6</ele>
        <time>2020-07-02T06:57:18Z</time>
      </trkpt>
      <trkpt lat="48.4419570" lon="1.4988280">
        <ele>127.4</ele>
        <time>2020-07-02T06:57:25Z</time>
      </trkpt>
      <trkpt lat="48.4417990" lon="1.4989560">
        <ele>127.4</ele>
        <time>2020-07-02T06:57:30Z</time>
      </trkpt>
      <trkpt lat="48.4416750" lon="1.4990160">
        <ele>127.2</ele>
        <time>2020-07-02T06:57:34Z</time>
      </trkpt>
      <trkpt lat="48.4416180" lon="1.4990330">
        <ele>127.4</ele>
        <time>2020-07-02T06:57:35Z</time>
      </trkpt>
      <trkpt lat="48.4415330" lon="1.4990630">
        <ele>127.2</ele>
        <time>2020-07-02T06:57:37Z</time>
      </trkpt>
      <trkpt lat="48.4414980" lon="1.4990880">
        <ele>127.4</ele>
        <time>2020-07-02T06:57:38Z</time>
      </trkpt>
      <trkpt lat="48.4410740" lon="1.4993110">
        <ele>127.6</ele>
        <time>2020-07-02T06:57:47Z</time>
      </trkpt>
      <trkpt lat="48.4408390" lon="1.4994200">
        <ele>127.6</ele>
        <time>2020-07-02T06:57:52Z</time>
      </trkpt>
      <trkpt lat="48.4407400" lon="1.4994740">
        <ele>127.6</ele>
        <time>2020-07-02T06:57:54Z</time>
      </trkpt>
      <trkpt lat="48.4403310" lon="1.4996470">
        <ele>127.4</ele>
        <time>2020-07-02T06:58:02Z</time>
      </trkpt>
      <trkpt lat="48.4401790" lon="1.4996740">
        <ele>127.2</ele>
        <time>2020-07-02T06:58:05Z</time>
      </trkpt>
      <trkpt lat="48.4400130" lon="1.4996750">
        <ele>127.2</ele>
        <time>2020-07-02T06:58:08Z</time>
      </trkpt>
      <trkpt lat="48.4396390" lon="1.4997610">
        <ele>127.2</ele>
        <time>2020-07-02T06:58:16Z</time>
      </trkpt>
      <trkpt lat="48.4394550" lon="1.4998130">
        <ele>127.2</ele>
        <time>2020-07-02T06:58:21Z</time>
      </trkpt>
      <trkpt lat="48.4392660" lon="1.4998830">
        <ele>127.0</ele>
        <time>2020-07-02T06:58:26Z</time>
      </trkpt>
      <trkpt lat="48.4388160" lon="1.5000120">
        <ele>127.0</ele>
        <time>2020-07-02T06:58:35Z</time>
      </trkpt>
      <trkpt lat="48.4383070" lon="1.5001600">
        <ele>126.4</ele>
        <time>2020-07-02T06:58:45Z</time>
      </trkpt>
      <trkpt lat="48.4381370" lon="1.5001840">
        <ele>126.4</ele>
        <time>2020-07-02T06:58:48Z</time>
      </trkpt>
      <trkpt lat="48.4378210" lon="1.5001860">
        <ele>126.0</ele>
        <time>2020-07-02T06:58:54Z</time>
      </trkpt>
      <trkpt lat="48.4377700" lon="1.5001760">
        <ele>126.0</ele>
        <time>2020-07-02T06:58:55Z</time>
      </trkpt>
      <trkpt lat="48.4376630" lon="1.5001520">
        <ele>125.8</ele>
        <time>2020-07-02T06:58:57Z</time>
      </trkpt>
      <trkpt lat="48.4375100" lon="1.5000790">
        <ele>125.4</ele>
        <time>2020-07-02T06:59:00Z</time>
      </trkpt>
      <trkpt lat="48.4374650" lon="1.5000420">
        <ele>125.4</ele>
        <time>2020-07-02T06:59:01Z</time>
      </trkpt>
      <trkpt lat="48.4372500" lon="1.4997230">
        <ele>125.4</ele>
        <time>2020-07-02T06:59:07Z</time>
      </trkpt>
      <trkpt lat="48.4370660" lon="1.4993470">
        <ele>126.0</ele>
        <time>2020-07-02T06:59:14Z</time>
      </trkpt>
      <trkpt lat="48.4368310" lon="1.4986530">
        <ele>126.4</ele>
        <time>2020-07-02T06:59:24Z</time>
      </trkpt>
      <trkpt lat="48.4367810" lon="1.4984970">
        <ele>126.4</ele>
        <time>2020-07-02T06:59:26Z</time>
      </trkpt>
      <trkpt lat="48.4365500" lon="1.4977810">
        <ele>126.6</ele>
        <time>2020-07-02T06:59:36Z</time>
      </trkpt>
      <trkpt lat="48.4362890" lon="1.4970270">
        <ele>127.0</ele>
        <time>2020-07-02T06:59:48Z</time>
      </trkpt>
      <trkpt lat="48.4362630" lon="1.4969670">
        <ele>127.0</ele>
        <time>2020-07-02T06:59:49Z</time>
      </trkpt>
      <trkpt lat="48.4359970" lon="1.4964620">
        <ele>127.0</ele>
        <time>2020-07-02T06:59:58Z</time>
      </trkpt>
      <trkpt lat="48.4356720" lon="1.4958500">
        <ele>126.6</ele>
        <time>2020-07-02T07:00:09Z</time>
      </trkpt>
      <trkpt lat="48.4356120" lon="1.4957340">
        <ele>126.6</ele>
        <time>2020-07-02T07:00:11Z</time>
      </trkpt>
      <trkpt lat="48.4353380" lon="1.4952890">
        <ele>126.4</ele>
        <time>2020-07-02T07:00:19Z</time>
      </trkpt>
      <trkpt lat="48.4351860" lon="1.4949940">
        <ele>126.2</ele>
        <time>2020-07-02T07:00:24Z</time>
      </trkpt>
      <trkpt lat="48.4350230" lon="1.4946980">
        <ele>126.2</ele>
        <time>2020-07-02T07:00:29Z</time>
      </trkpt>
      <trkpt lat="48.4348690" lon="1.4944460">
        <ele>126.6</ele>
        <time>2020-07-02T07:00:34Z</time>
      </trkpt>
      <trkpt lat="48.4348110" lon="1.4943750">
        <ele>126.8</ele>
        <time>2020-07-02T07:00:36Z</time>
      </trkpt>
      <trkpt lat="48.4347790" lon="1.4943690">
        <ele>126.8</ele>
        <time>2020-07-02T07:00:37Z</time>
      </trkpt>
      <trkpt lat="48.4347000" lon="1.4944050">
        <ele>126.8</ele>
        <time>2020-07-02T07:00:40Z</time>
      </trkpt>
      <trkpt lat="48.4346480" lon="1.4944500">
        <ele>127.2</ele>
        <time>2020-07-02T07:00:42Z</time>
      </trkpt>
      <trkpt lat="48.4345350" lon="1.4946810">
        <ele>128.2</ele>
        <time>2020-07-02T07:00:48Z</time>
      </trkpt>
      <trkpt lat="48.4344500" lon="1.4947970">
        <ele>128.4</ele>
        <time>2020-07-02T07:00:51Z</time>
      </trkpt>
      <trkpt lat="48.4343840" lon="1.4948250">
        <ele>128.2</ele>
        <time>2020-07-02T07:00:53Z</time>
      </trkpt>
      <trkpt lat="48.4342750" lon="1.4947060">
        <ele>128.4</ele>
        <time>2020-07-02T07:00:57Z</time>
      </trkpt>
      <trkpt lat="48.4340470" lon="1.4943610">
        <ele>128.0</ele>
        <time>2020-07-02T07:01:04Z</time>
      </trkpt>
      <trkpt lat="48.4337190" lon="1.4939100">
        <ele>127.8</ele>
        <time>2020-07-02T07:01:14Z</time>
      </trkpt>
      <trkpt lat="48.4336870" lon="1.4938720">
        <ele>128.0</ele>
        <time>2020-07-02T07:01:15Z</time>
      </trkpt>
      <trkpt lat="48.4334060" lon="1.4934590">
        <ele>128.8</ele>
        <time>2020-07-02T07:01:26Z</time>
      </trkpt>
      <trkpt lat="48.4333890" lon="1.4934210">
        <ele>128.8</ele>
        <time>2020-07-02T07:01:27Z</time>
      </trkpt>
      <trkpt lat="48.4333300" lon="1.4932920">
        <ele>129.0</ele>
        <time>2020-07-02T07:01:31Z</time>
      </trkpt>
      <trkpt lat="48.4332840" lon="1.4932250">
        <ele>129.0</ele>
        <time>2020-07-02T07:01:34Z</time>
      </trkpt>
      <trkpt lat="48.4332260" lon="1.4931380">
        <ele>129.6</ele>
        <time>2020-07-02T07:01:39Z</time>
      </trkpt>
      <trkpt lat="48.4332250" lon="1.4931170">
        <ele>129.8</ele>
        <time>2020-07-02T07:01:40Z</time>
      </trkpt>
      <trkpt lat="48.4332900" lon="1.4929900">
        <ele>130.0</ele>
        <time>2020-07-02T07:01:48Z</time>
      </trkpt>
      <trkpt lat="48.4333010" lon="1.4929770">
        <ele>130.4</ele>
        <time>2020-07-02T07:01:59Z</time>
      </trkpt>
      <trkpt lat="48.4333130" lon="1.4929100">
        <ele>130.4</ele>
        <time>2020-07-02T07:02:06Z</time>
      </trkpt>
      <trkpt lat="48.4332680" lon="1.4928350">
        <ele>130.2</ele>
        <time>2020-07-02T07:02:10Z</time>
      </trkpt>
      <trkpt lat="48.4332470" lon="1.4928180">
        <ele>130.4</ele>
        <time>2020-07-02T07:02:11Z</time>
      </trkpt>
      <trkpt lat="48.4331360" lon="1.4927140">
        <ele>130.0</ele>
        <time>2020-07-02T07:02:16Z</time>
      </trkpt>
      <trkpt lat="48.4331090" lon="1.4926950">
        <ele>130.0</ele>
        <time>2020-07-02T07:02:17Z</time>
      </trkpt>
      <trkpt lat="48.4329790" lon="1.4926340">
        <ele>129.8</ele>
        <time>2020-07-02T07:02:20Z</time>
      </trkpt>
      <trkpt lat="48.4327930" lon="1.4925250">
        <ele>129.2</ele>
        <time>2020-07-02T07:02:24Z</time>
      </trkpt>
      <trkpt lat="48.4326030" lon="1.4923580">
        <ele>128.4</ele>
        <time>2020-07-02T07:02:28Z</time>
      </trkpt>
      <trkpt lat="48.4320920" lon="1.4918840">
        <ele>127.6</ele>
        <time>2020-07-02T07:02:38Z</time>
      </trkpt>
      <trkpt lat="48.4318860" lon="1.4916890">
        <ele>127.4</ele>
        <time>2020-07-02T07:02:42Z</time>
      </trkpt>
      <trkpt lat="48.4316770" lon="1.4915400">
        <ele>127.0</ele>
        <time>2020-07-02T07:02:46Z</time>
      </trkpt>
      <trkpt lat="48.4312490" lon="1.4913310">
        <ele>126.8</ele>
        <time>2020-07-02T07:02:54Z</time>
      </trkpt>
      <trkpt lat="48.4307880" lon="1.4911290">
        <ele>127.2</ele>
        <time>2020-07-02T07:03:03Z</time>
      </trkpt>
      <trkpt lat="48.4304630" lon="1.4910170">
        <ele>127.0</ele>
        <time>2020-07-02T07:03:10Z</time>
      </trkpt>
      <trkpt lat="48.4303810" lon="1.4910060">
        <ele>127.0</ele>
        <time>2020-07-02T07:03:12Z</time>
      </trkpt>
      <trkpt lat="48.4302810" lon="1.4910520">
        <ele>127.2</ele>
        <time>2020-07-02T07:03:15Z</time>
      </trkpt>
      <trkpt lat="48.4301960" lon="1.4912640">
        <ele>127.0</ele>
        <time>2020-07-02T07:03:19Z</time>
      </trkpt>
      <trkpt lat="48.4299790" lon="1.4916060">
        <ele>127.2</ele>
        <time>2020-07-02T07:03:26Z</time>
      </trkpt>
      <trkpt lat="48.4295780" lon="1.4921290">
        <ele>127.4</ele>
        <time>2020-07-02T07:03:37Z</time>
      </trkpt>
      <trkpt lat="48.4293160" lon="1.4925030">
        <ele>127.6</ele>
        <time>2020-07-02T07:03:45Z</time>
      </trkpt>
      <trkpt lat="48.4292670" lon="1.4925710">
        <ele>127.8</ele>
        <time>2020-07-02T07:03:47Z</time>
      </trkpt>
      <trkpt lat="48.4291770" lon="1.4926230">
        <ele>128.0</ele>
        <time>2020-07-02T07:03:52Z</time>
      </trkpt>
      <trkpt lat="48.4291590" lon="1.4926130">
        <ele>129.0</ele>
        <time>2020-07-02T07:04:01Z</time>
      </trkpt>
      <trkpt lat="48.4291600" lon="1.4926190">
        <ele>129.4</ele>
        <time>2020-07-02T07:04:22Z</time>
      </trkpt>
      <trkpt lat="48.4291680" lon="1.4926010">
        <ele>129.2</ele>
        <time>2020-07-02T07:04:43Z</time>
      </trkpt>
      <trkpt lat="48.4291600" lon="1.4925410">
        <ele>129.2</ele>
        <time>2020-07-02T07:04:48Z</time>
      </trkpt>
      <trkpt lat="48.4291540" lon="1.4924830">
        <ele>129.2</ele>
        <time>2020-07-02T07:04:50Z</time>
      </trkpt>
      <trkpt lat="48.4291340" lon="1.4922930">
        <ele>129.2</ele>
        <time>2020-07-02T07:04:55Z</time>
      </trkpt>
      <trkpt lat="48.4291220" lon="1.4922060">
        <ele>129.0</ele>
        <time>2020-07-02T07:04:57Z</time>
      </trkpt>
      <trkpt lat="48.4290460" lon="1.4919370">
        <ele>129.8</ele>
        <time>2020-07-02T07:05:06Z</time>
      </trkpt>
      <trkpt lat="48.4290400" lon="1.4919460">
        <ele>129.6</ele>
        <time>2020-07-02T07:05:07Z</time>
      </trkpt>
      <trkpt lat="48.4290260" lon="1.4920050">
        <ele>130.0</ele>
        <time>2020-07-02T07:05:12Z</time>
      </trkpt>
      <trkpt lat="48.4290600" lon="1.4920160">
        <ele>130.6</ele>
        <time>2020-07-02T07:05:23Z</time>
      </trkpt>
      <trkpt lat="48.4290380" lon="1.4920320">
        <ele>130.4</ele>
        <time>2020-07-02T07:05:30Z</time>
      </trkpt>
      <trkpt lat="48.4290220" lon="1.4920850">
        <ele>130.6</ele>
        <time>2020-07-02T07:05:42Z</time>
      </trkpt>
      <trkpt lat="48.4290210" lon="1.4920840">
        <ele>130.4</ele>
        <time>2020-07-02T07:05:47Z</time>
      </trkpt>
      <trkpt lat="48.4290210" lon="1.4920840">
        <ele>130.4</ele>
        <time>2020-07-02T07:05:48Z</time>
      </trkpt>
      <trkpt lat="48.4290280" lon="1.4920790">
        <ele>130.4</ele>
        <time>2020-07-02T07:06:08Z</time>
      </trkpt>
      <trkpt lat="48.4290300" lon="1.4920130">
        <ele>130.4</ele>
        <time>2020-07-02T07:06:26Z</time>
      </trkpt>
      <trkpt lat="48.4289810" lon="1.4918260">
        <ele>130.4</ele>
        <time>2020-07-02T07:06:34Z</time>
      </trkpt>
      <trkpt lat="48.4289220" lon="1.4913960">
        <ele>130.4</ele>
        <time>2020-07-02T07:06:43Z</time>
      </trkpt>
      <trkpt lat="48.4288350" lon="1.4909520">
        <ele>130.6</ele>
        <time>2020-07-02T07:06:52Z</time>
      </trkpt>
      <trkpt lat="48.4288200" lon="1.4907880">
        <ele>130.8</ele>
        <time>2020-07-02T07:06:59Z</time>
      </trkpt>
      <trkpt lat="48.4287720" lon="1.4905630">
        <ele>131.4</ele>
        <time>2020-07-02T07:07:05Z</time>
      </trkpt>
      <trkpt lat="48.4287000" lon="1.4901650">
        <ele>131.0</ele>
        <time>2020-07-02T07:07:13Z</time>
      </trkpt>
      <trkpt lat="48.4286980" lon="1.4900970">
        <ele>130.8</ele>
        <time>2020-07-02T07:07:18Z</time>
      </trkpt>
      <trkpt lat="48.4287250" lon="1.4900450">
        <ele>130.6</ele>
        <time>2020-07-02T07:07:23Z</time>
      </trkpt>
      <trkpt lat="48.4287310" lon="1.4899720">
        <ele>130.6</ele>
        <time>2020-07-02T07:07:26Z</time>
      </trkpt>
      <trkpt lat="48.4287260" lon="1.4899440">
        <ele>130.6</ele>
        <time>2020-07-02T07:07:27Z</time>
      </trkpt>
      <trkpt lat="48.4286510" lon="1.4897840">
        <ele>130.4</ele>
        <time>2020-07-02T07:07:33Z</time>
      </trkpt>
      <trkpt lat="48.4284820" lon="1.4897610">
        <ele>130.8</ele>
        <time>2020-07-02T07:07:41Z</time>
      </trkpt>
      <trkpt lat="48.4283790" lon="1.4897420">
        <ele>131.4</ele>
        <time>2020-07-02T07:07:46Z</time>
      </trkpt>
      <trkpt lat="48.4283460" lon="1.4897280">
        <ele>131.4</ele>
        <time>2020-07-02T07:07:50Z</time>
      </trkpt>
      <trkpt lat="48.4283620" lon="1.4897330">
        <ele>131.6</ele>
        <time>2020-07-02T07:07:53Z</time>
      </trkpt>
      <trkpt lat="48.4283980" lon="1.4897760">
        <ele>131.6</ele>
        <time>2020-07-02T07:07:56Z</time>
      </trkpt>
      <trkpt lat="48.4284330" lon="1.4898080">
        <ele>131.6</ele>
        <time>2020-07-02T07:07:58Z</time>
      </trkpt>
      <trkpt lat="48.4285380" lon="1.4898490">
        <ele>131.4</ele>
        <time>2020-07-02T07:08:03Z</time>
      </trkpt>
      <trkpt lat="48.4286430" lon="1.4897580">
        <ele>130.6</ele>
        <time>2020-07-02T07:08:09Z</time>
      </trkpt>
      <trkpt lat="48.4286580" lon="1.4896360">
        <ele>130.6</ele>
        <time>2020-07-02T07:08:12Z</time>
      </trkpt>
      <trkpt lat="48.4286750" lon="1.4894960">
        <ele>130.4</ele>
        <time>2020-07-02T07:08:15Z</time>
      </trkpt>
      <trkpt lat="48.4286840" lon="1.4894470">
        <ele>130.4</ele>
        <time>2020-07-02T07:08:16Z</time>
      </trkpt>
      <trkpt lat="48.4287370" lon="1.4891080">
        <ele>129.8</ele>
        <time>2020-07-02T07:08:22Z</time>
      </trkpt>
      <trkpt lat="48.4288470" lon="1.4885260">
        <ele>129.2</ele>
        <time>2020-07-02T07:08:30Z</time>
      </trkpt>
      <trkpt lat="48.4288530" lon="1.4884500">
        <ele>129.0</ele>
        <time>2020-07-02T07:08:31Z</time>
      </trkpt>
      <trkpt lat="48.4288410" lon="1.4881730">
        <ele>129.0</ele>
        <time>2020-07-02T07:08:35Z</time>
      </trkpt>
      <trkpt lat="48.4288220" lon="1.4880270">
        <ele>128.6</ele>
        <time>2020-07-02T07:08:39Z</time>
      </trkpt>
      <trkpt lat="48.4287920" lon="1.4879740">
        <ele>128.6</ele>
        <time>2020-07-02T07:08:44Z</time>
      </trkpt>
      <trkpt lat="48.4288110" lon="1.4878780">
        <ele>128.6</ele>
        <time>2020-07-02T07:08:53Z</time>
      </trkpt>
      <trkpt lat="48.4288280" lon="1.4876700">
        <ele>128.2</ele>
        <time>2020-07-02T07:08:59Z</time>
      </trkpt>
      <trkpt lat="48.4288760" lon="1.4874540">
        <ele>127.6</ele>
        <time>2020-07-02T07:09:05Z</time>
      </trkpt>
      <trkpt lat="48.4288990" lon="1.4874150">
        <ele>127.6</ele>
        <time>2020-07-02T07:09:11Z</time>
      </trkpt>
      <trkpt lat="48.4288980" lon="1.4874930">
        <ele>128.0</ele>
        <time>2020-07-02T07:09:15Z</time>
      </trkpt>
      <trkpt lat="48.4289030" lon="1.4875560">
        <ele>128.0</ele>
        <time>2020-07-02T07:09:17Z</time>
      </trkpt>
      <trkpt lat="48.4288990" lon="1.4877850">
        <ele>127.8</ele>
        <time>2020-07-02T07:09:23Z</time>
      </trkpt>
      <trkpt lat="48.4288990" lon="1.4878360">
        <ele>128.0</ele>
        <time>2020-07-02T07:09:25Z</time>
      </trkpt>
      <trkpt lat="48.4288420" lon="1.4879640">
        <ele>128.4</ele>
        <time>2020-07-02T07:09:31Z</time>
      </trkpt>
      <trkpt lat="48.4288240" lon="1.4879690">
        <ele>128.4</ele>
        <time>2020-07-02T07:09:32Z</time>
      </trkpt>
      <trkpt lat="48.4287930" lon="1.4879360">
        <ele>128.4</ele>
        <time>2020-07-02T07:09:35Z</time>
      </trkpt>
      <trkpt lat="48.4287810" lon="1.4879140">
        <ele>128.6</ele>
        <time>2020-07-02T07:09:36Z</time>
      </trkpt>
      <trkpt lat="48.4287710" lon="1.4878900">
        <ele>128.8</ele>
        <time>2020-07-02T07:09:37Z</time>
      </trkpt>
      <trkpt lat="48.4286720" lon="1.4876540">
        <ele>128.6</ele>
        <time>2020-07-02T07:09:44Z</time>
      </trkpt>
      <trkpt lat="48.4284910" lon="1.4873130">
        <ele>128.2</ele>
        <time>2020-07-02T07:09:53Z</time>
      </trkpt>
      <trkpt lat="48.4282550" lon="1.4870500">
        <ele>128.4</ele>
        <time>2020-07-02T07:10:01Z</time>
      </trkpt>
      <trkpt lat="48.4282220" lon="1.4870140">
        <ele>128.2</ele>
        <time>2020-07-02T07:10:02Z</time>
      </trkpt>
      <trkpt lat="48.4281890" lon="1.4869760">
        <ele>128.2</ele>
        <time>2020-07-02T07:10:03Z</time>
      </trkpt>
      <trkpt lat="48.4280490" lon="1.4868020">
        <ele>128.2</ele>
        <time>2020-07-02T07:10:07Z</time>
      </trkpt>
      <trkpt lat="48.4279640" lon="1.4867180">
        <ele>128.2</ele>
        <time>2020-07-02T07:10:09Z</time>
      </trkpt>
      <trkpt lat="48.4275130" lon="1.4862770">
        <ele>127.6</ele>
        <time>2020-07-02T07:10:20Z</time>
      </trkpt>
      <trkpt lat="48.4271750" lon="1.4859660">
        <ele>127.8</ele>
        <time>2020-07-02T07:10:28Z</time>
      </trkpt>
      <trkpt lat="48.4268250" lon="1.4857930">
        <ele>127.6</ele>
        <time>2020-07-02T07:10:36Z</time>
      </trkpt>
      <trkpt lat="48.4264350" lon="1.4855750">
        <ele>128.2</ele>
        <time>2020-07-02T07:10:45Z</time>
      </trkpt>
      <trkpt lat="48.4260830" lon="1.4852830">
        <ele>128.8</ele>
        <time>2020-07-02T07:10:55Z</time>
      </trkpt>
      <trkpt lat="48.4259560" lon="1.4851980">
        <ele>128.8</ele>
        <time>2020-07-02T07:11:00Z</time>
      </trkpt>
      <trkpt lat="48.4258570" lon="1.4851850">
        <ele>128.6</ele>
        <time>2020-07-02T07:11:04Z</time>
      </trkpt>
      <trkpt lat="48.4257910" lon="1.4851820">
        <ele>128.6</ele>
        <time>2020-07-02T07:11:06Z</time>
      </trkpt>
      <trkpt lat="48.4256410" lon="1.4851730">
        <ele>128.4</ele>
        <time>2020-07-02T07:11:09Z</time>
      </trkpt>
      <trkpt lat="48.4254780" lon="1.4851290">
        <ele>128.4</ele>
        <time>2020-07-02T07:11:12Z</time>
      </trkpt>
      <trkpt lat="48.4254180" lon="1.4851260">
        <ele>128.2</ele>
        <time>2020-07-02T07:11:13Z</time>
      </trkpt>
      <trkpt lat="48.4252070" lon="1.4851170">
        <ele>128.2</ele>
        <time>2020-07-02T07:11:16Z</time>
      </trkpt>
      <trkpt lat="48.4250840" lon="1.4850800">
        <ele>128.2</ele>
        <time>2020-07-02T07:11:18Z</time>
      </trkpt>
      <trkpt lat="48.4248330" lon="1.4849380">
        <ele>128.8</ele>
        <time>2020-07-02T07:11:24Z</time>
      </trkpt>
      <trkpt lat="48.4247890" lon="1.4849240">
        <ele>129.0</ele>
        <time>2020-07-02T07:11:25Z</time>
      </trkpt>
      <trkpt lat="48.4244280" lon="1.4848540">
        <ele>129.0</ele>
        <time>2020-07-02T07:11:32Z</time>
      </trkpt>
      <trkpt lat="48.4241010" lon="1.4847800">
        <ele>127.8</ele>
        <time>2020-07-02T07:11:38Z</time>
      </trkpt>
      <trkpt lat="48.4239640" lon="1.4847530">
        <ele>127.8</ele>
        <time>2020-07-02T07:11:41Z</time>
      </trkpt>
      <trkpt lat="48.4238730" lon="1.4847510">
        <ele>127.8</ele>
        <time>2020-07-02T07:11:43Z</time>
      </trkpt>
      <trkpt lat="48.4238220" lon="1.4847540">
        <ele>127.8</ele>
        <time>2020-07-02T07:11:44Z</time>
      </trkpt>
      <trkpt lat="48.4237730" lon="1.4847510">
        <ele>127.8</ele>
        <time>2020-07-02T07:11:45Z</time>
      </trkpt>
      <trkpt lat="48.4236940" lon="1.4846970">
        <ele>127.6</ele>
        <time>2020-07-02T07:11:48Z</time>
      </trkpt>
      <trkpt lat="48.4236900" lon="1.4846680">
        <ele>127.8</ele>
        <time>2020-07-02T07:11:49Z</time>
      </trkpt>
      <trkpt lat="48.4237300" lon="1.4844810">
        <ele>129.6</ele>
        <time>2020-07-02T07:11:55Z</time>
      </trkpt>
      <trkpt lat="48.4237500" lon="1.4844400">
        <ele>129.6</ele>
        <time>2020-07-02T07:11:56Z</time>
      </trkpt>
      <trkpt lat="48.4238190" lon="1.4843160">
        <ele>130.0</ele>
        <time>2020-07-02T07:11:59Z</time>
      </trkpt>
      <trkpt lat="48.4238410" lon="1.4842740">
        <ele>130.0</ele>
        <time>2020-07-02T07:12:00Z</time>
      </trkpt>
      <trkpt lat="48.4238590" lon="1.4842310">
        <ele>130.0</ele>
        <time>2020-07-02T07:12:01Z</time>
      </trkpt>
      <trkpt lat="48.4239060" lon="1.4841110">
        <ele>130.0</ele>
        <time>2020-07-02T07:12:04Z</time>
      </trkpt>
      <trkpt lat="48.4239540" lon="1.4839770">
        <ele>130.0</ele>
        <time>2020-07-02T07:12:07Z</time>
      </trkpt>
      <trkpt lat="48.4240230" lon="1.4837090">
        <ele>129.6</ele>
        <time>2020-07-02T07:12:14Z</time>
      </trkpt>
      <trkpt lat="48.4241720" lon="1.4833210">
        <ele>129.6</ele>
        <time>2020-07-02T07:12:22Z</time>
      </trkpt>
      <trkpt lat="48.4242820" lon="1.4830430">
        <ele>129.4</ele>
        <time>2020-07-02T07:12:30Z</time>
      </trkpt>
      <trkpt lat="48.4243170" lon="1.4829250">
        <ele>129.2</ele>
        <time>2020-07-02T07:12:34Z</time>
      </trkpt>
      <trkpt lat="48.4243720" lon="1.4828020">
        <ele>129.2</ele>
        <time>2020-07-02T07:12:37Z</time>
      </trkpt>
      <trkpt lat="48.4244930" lon="1.4824830">
        <ele>128.6</ele>
        <time>2020-07-02T07:12:43Z</time>
      </trkpt>
      <trkpt lat="48.4245200" lon="1.4824230">
        <ele>128.6</ele>
        <time>2020-07-02T07:12:44Z</time>
      </trkpt>
      <trkpt lat="48.4247370" lon="1.4819570">
        <ele>127.4</ele>
        <time>2020-07-02T07:12:52Z</time>
      </trkpt>
      <trkpt lat="48.4249930" lon="1.4813590">
        <ele>127.2</ele>
        <time>2020-07-02T07:13:01Z</time>
      </trkpt>
      <trkpt lat="48.4251850" lon="1.4807230">
        <ele>127.4</ele>
        <time>2020-07-02T07:13:10Z</time>
      </trkpt>
      <trkpt lat="48.4252180" lon="1.4805210">
        <ele>127.4</ele>
        <time>2020-07-02T07:13:13Z</time>
      </trkpt>
      <trkpt lat="48.4252490" lon="1.4803810">
        <ele>127.4</ele>
        <time>2020-07-02T07:13:16Z</time>
      </trkpt>
      <trkpt lat="48.4252480" lon="1.4801220">
        <ele>128.6</ele>
        <time>2020-07-02T07:13:23Z</time>
      </trkpt>
      <trkpt lat="48.4251410" lon="1.4800790">
        <ele>129.0</ele>
        <time>2020-07-02T07:13:27Z</time>
      </trkpt>
      <trkpt lat="48.4249270" lon="1.4800200">
        <ele>129.0</ele>
        <time>2020-07-02T07:13:32Z</time>
      </trkpt>
      <trkpt lat="48.4245310" lon="1.4798140">
        <ele>129.0</ele>
        <time>2020-07-02T07:13:42Z</time>
      </trkpt>
      <trkpt lat="48.4241850" lon="1.4797510">
        <ele>129.0</ele>
        <time>2020-07-02T07:13:50Z</time>
      </trkpt>
      <trkpt lat="48.4238940" lon="1.4797790">
        <ele>129.0</ele>
        <time>2020-07-02T07:13:56Z</time>
      </trkpt>
      <trkpt lat="48.4238510" lon="1.4798050">
        <ele>129.0</ele>
        <time>2020-07-02T07:13:57Z</time>
      </trkpt>
      <trkpt lat="48.4238130" lon="1.4798390">
        <ele>129.0</ele>
        <time>2020-07-02T07:13:58Z</time>
      </trkpt>
      <trkpt lat="48.4237480" lon="1.4799350">
        <ele>129.0</ele>
        <time>2020-07-02T07:14:00Z</time>
      </trkpt>
      <trkpt lat="48.4236990" lon="1.4800590">
        <ele>129.0</ele>
        <time>2020-07-02T07:14:02Z</time>
      </trkpt>
      <trkpt lat="48.4236370" lon="1.4802470">
        <ele>129.0</ele>
        <time>2020-07-02T07:14:05Z</time>
      </trkpt>
      <trkpt lat="48.4235730" lon="1.4803480">
        <ele>129.0</ele>
        <time>2020-07-02T07:14:07Z</time>
      </trkpt>
      <trkpt lat="48.4235330" lon="1.4803830">
        <ele>129.0</ele>
        <time>2020-07-02T07:14:08Z</time>
      </trkpt>
      <trkpt lat="48.4234880" lon="1.4804060">
        <ele>129.0</ele>
        <time>2020-07-02T07:14:09Z</time>
      </trkpt>
      <trkpt lat="48.4233430" lon="1.4804180">
        <ele>128.8</ele>
        <time>2020-07-02T07:14:12Z</time>
      </trkpt>
      <trkpt lat="48.4229570" lon="1.4803240">
        <ele>128.6</ele>
        <time>2020-07-02T07:14:20Z</time>
      </trkpt>
      <trkpt lat="48.4228190" lon="1.4802950">
        <ele>128.4</ele>
        <time>2020-07-02T07:14:23Z</time>
      </trkpt>
      <trkpt lat="48.4227710" lon="1.4802920">
        <ele>128.4</ele>
        <time>2020-07-02T07:14:24Z</time>
      </trkpt>
      <trkpt lat="48.4227220" lon="1.4802890">
        <ele>128.4</ele>
        <time>2020-07-02T07:14:25Z</time>
      </trkpt>
      <trkpt lat="48.4225740" lon="1.4802860">
        <ele>128.2</ele>
        <time>2020-07-02T07:14:28Z</time>
      </trkpt>
      <trkpt lat="48.4222910" lon="1.4802510">
        <ele>128.4</ele>
        <time>2020-07-02T07:14:35Z</time>
      </trkpt>
      <trkpt lat="48.4219110" lon="1.4802940">
        <ele>128.2</ele>
        <time>2020-07-02T07:14:44Z</time>
      </trkpt>
      <trkpt lat="48.4215310" lon="1.4803790">
        <ele>128.4</ele>
        <time>2020-07-02T07:14:52Z</time>
      </trkpt>
      <trkpt lat="48.4210120" lon="1.4804610">
        <ele>128.2</ele>
        <time>2020-07-02T07:15:03Z</time>
      </trkpt>
      <trkpt lat="48.4207780" lon="1.4804640">
        <ele>128.2</ele>
        <time>2020-07-02T07:15:08Z</time>
      </trkpt>
      <trkpt lat="48.4205690" lon="1.4804450">
        <ele>128.2</ele>
        <time>2020-07-02T07:15:12Z</time>
      </trkpt>
      <trkpt lat="48.4204660" lon="1.4804340">
        <ele>128.0</ele>
        <time>2020-07-02T07:15:14Z</time>
      </trkpt>
      <trkpt lat="48.4200650" lon="1.4803910">
        <ele>127.8</ele>
        <time>2020-07-02T07:15:22Z</time>
      </trkpt>
      <trkpt lat="48.4197700" lon="1.4803530">
        <ele>127.8</ele>
        <time>2020-07-02T07:15:28Z</time>
      </trkpt>
      <trkpt lat="48.4194360" lon="1.4802320">
        <ele>128.0</ele>
        <time>2020-07-02T07:15:36Z</time>
      </trkpt>
      <trkpt lat="48.4191230" lon="1.4801010">
        <ele>128.0</ele>
        <time>2020-07-02T07:15:43Z</time>
      </trkpt>
      <trkpt lat="48.4188150" lon="1.4800370">
        <ele>128.2</ele>
        <time>2020-07-02T07:15:50Z</time>
      </trkpt>
      <trkpt lat="48.4187720" lon="1.4800260">
        <ele>128.4</ele>
        <time>2020-07-02T07:15:51Z</time>
      </trkpt>
      <trkpt lat="48.4185090" lon="1.4799470">
        <ele>128.4</ele>
        <time>2020-07-02T07:15:58Z</time>
      </trkpt>
      <trkpt lat="48.4184750" lon="1.4799240">
        <ele>128.4</ele>
        <time>2020-07-02T07:16:02Z</time>
      </trkpt>
      <trkpt lat="48.4184330" lon="1.4798790">
        <ele>128.4</ele>
        <time>2020-07-02T07:16:10Z</time>
      </trkpt>
      <trkpt lat="48.4184200" lon="1.4798560">
        <ele>128.6</ele>
        <time>2020-07-02T07:16:14Z</time>
      </trkpt>
      <trkpt lat="48.4184100" lon="1.4798530">
        <ele>128.6</ele>
        <time>2020-07-02T07:16:15Z</time>
      </trkpt>
      <trkpt lat="48.4184040" lon="1.4798500">
        <ele>128.6</ele>
        <time>2020-07-02T07:16:16Z</time>
      </trkpt>
      <trkpt lat="48.4183950" lon="1.4798010">
        <ele>128.6</ele>
        <time>2020-07-02T07:16:22Z</time>
      </trkpt>
      <trkpt lat="48.4184130" lon="1.4797620">
        <ele>129.0</ele>
        <time>2020-07-02T07:16:28Z</time>
      </trkpt>
      <trkpt lat="48.4183850" lon="1.4798030">
        <ele>128.8</ele>
        <time>2020-07-02T07:16:36Z</time>
      </trkpt>
      <trkpt lat="48.4183890" lon="1.4798750">
        <ele>128.8</ele>
        <time>2020-07-02T07:16:45Z</time>
      </trkpt>
      <trkpt lat="48.4183660" lon="1.4799090">
        <ele>128.8</ele>
        <time>2020-07-02T07:16:47Z</time>
      </trkpt>
      <trkpt lat="48.4183420" lon="1.4799540">
        <ele>128.8</ele>
        <time>2020-07-02T07:16:52Z</time>
      </trkpt>
      <trkpt lat="48.4183030" lon="1.4799610">
        <ele>129.0</ele>
        <time>2020-07-02T07:16:59Z</time>
      </trkpt>
      <trkpt lat="48.4182760" lon="1.4799380">
        <ele>129.0</ele>
        <time>2020-07-02T07:17:05Z</time>
      </trkpt>
      <trkpt lat="48.4182430" lon="1.4798910">
        <ele>129.0</ele>
        <time>2020-07-02T07:17:08Z</time>
      </trkpt>
      <trkpt lat="48.4181430" lon="1.4797790">
        <ele>128.8</ele>
        <time>2020-07-02T07:17:16Z</time>
      </trkpt>
      <trkpt lat="48.4180080" lon="1.4796610">
        <ele>128.6</ele>
        <time>2020-07-02T07:17:23Z</time>
      </trkpt>
      <trkpt lat="48.4178750" lon="1.4795700">
        <ele>128.6</ele>
        <time>2020-07-02T07:17:29Z</time>
      </trkpt>
      <trkpt lat="48.4177460" lon="1.4794760">
        <ele>128.4</ele>
        <time>2020-07-02T07:17:36Z</time>
      </trkpt>
      <trkpt lat="48.4175680" lon="1.4793340">
        <ele>128.2</ele>
        <time>2020-07-02T07:17:43Z</time>
      </trkpt>
      <trkpt lat="48.4172770" lon="1.4791690">
        <ele>128.2</ele>
        <time>2020-07-02T07:17:50Z</time>
      </trkpt>
      <trkpt lat="48.4169680" lon="1.4790500">
        <ele>128.0</ele>
        <time>2020-07-02T07:17:57Z</time>
      </trkpt>
      <trkpt lat="48.4166410" lon="1.4790040">
        <ele>128.2</ele>
        <time>2020-07-02T07:18:04Z</time>
      </trkpt>
      <trkpt lat="48.4163510" lon="1.4789500">
        <ele>128.4</ele>
        <time>2020-07-02T07:18:10Z</time>
      </trkpt>
      <trkpt lat="48.4162190" lon="1.4789540">
        <ele>128.6</ele>
        <time>2020-07-02T07:18:13Z</time>
      </trkpt>
      <trkpt lat="48.4161740" lon="1.4789160">
        <ele>128.6</ele>
        <time>2020-07-02T07:18:14Z</time>
      </trkpt>
      <trkpt lat="48.4161420" lon="1.4788910">
        <ele>128.6</ele>
        <time>2020-07-02T07:18:15Z</time>
      </trkpt>
      <trkpt lat="48.4157720" lon="1.4787840">
        <ele>128.8</ele>
        <time>2020-07-02T07:18:21Z</time>
      </trkpt>
      <trkpt lat="48.4156420" lon="1.4787600">
        <ele>129.0</ele>
        <time>2020-07-02T07:18:24Z</time>
      </trkpt>
      <trkpt lat="48.4155880" lon="1.4787180">
        <ele>129.2</ele>
        <time>2020-07-02T07:18:26Z</time>
      </trkpt>
      <trkpt lat="48.4155350" lon="1.4786790">
        <ele>129.2</ele>
        <time>2020-07-02T07:18:28Z</time>
      </trkpt>
      <trkpt lat="48.4153390" lon="1.4785990">
        <ele>129.2</ele>
        <time>2020-07-02T07:18:33Z</time>
      </trkpt>
      <trkpt lat="48.4150070" lon="1.4785920">
        <ele>129.0</ele>
        <time>2020-07-02T07:18:39Z</time>
      </trkpt>
      <trkpt lat="48.4146330" lon="1.4785740">
        <ele>128.8</ele>
        <time>2020-07-02T07:18:46Z</time>
      </trkpt>
      <trkpt lat="48.4142160" lon="1.4785920">
        <ele>128.8</ele>
        <time>2020-07-02T07:18:52Z</time>
      </trkpt>
      <trkpt lat="48.4137090" lon="1.4785500">
        <ele>128.8</ele>
        <time>2020-07-02T07:19:00Z</time>
      </trkpt>
      <trkpt lat="48.4132140" lon="1.4785090">
        <ele>129.0</ele>
        <time>2020-07-02T07:19:08Z</time>
      </trkpt>
      <trkpt lat="48.4131610" lon="1.4785040">
        <ele>129.2</ele>
        <time>2020-07-02T07:19:09Z</time>
      </trkpt>
      <trkpt lat="48.4129740" lon="1.4784780">
        <ele>129.2</ele>
        <time>2020-07-02T07:19:13Z</time>
      </trkpt>
      <trkpt lat="48.4129070" lon="1.4784500">
        <ele>129.2</ele>
        <time>2020-07-02T07:19:15Z</time>
      </trkpt>
      <trkpt lat="48.4128460" lon="1.4784190">
        <ele>129.4</ele>
        <time>2020-07-02T07:19:17Z</time>
      </trkpt>
      <trkpt lat="48.4128220" lon="1.4784050">
        <ele>129.6</ele>
        <time>2020-07-02T07:19:18Z</time>
      </trkpt>
      <trkpt lat="48.4126820" lon="1.4783260">
        <ele>130.4</ele>
        <time>2020-07-02T07:19:23Z</time>
      </trkpt>
      <trkpt lat="48.4124420" lon="1.4781470">
        <ele>132.0</ele>
        <time>2020-07-02T07:19:31Z</time>
      </trkpt>
      <trkpt lat="48.4122330" lon="1.4780940">
        <ele>132.4</ele>
        <time>2020-07-02T07:19:36Z</time>
      </trkpt>
      <trkpt lat="48.4120060" lon="1.4781650">
        <ele>132.4</ele>
        <time>2020-07-02T07:19:41Z</time>
      </trkpt>
      <trkpt lat="48.4119040" lon="1.4782010">
        <ele>132.4</ele>
        <time>2020-07-02T07:19:43Z</time>
      </trkpt>
      <trkpt lat="48.4116220" lon="1.4782950">
        <ele>132.2</ele>
        <time>2020-07-02T07:19:48Z</time>
      </trkpt>
      <trkpt lat="48.4113190" lon="1.4783940">
        <ele>131.4</ele>
        <time>2020-07-02T07:19:54Z</time>
      </trkpt>
      <trkpt lat="48.4112200" lon="1.4784430">
        <ele>131.0</ele>
        <time>2020-07-02T07:19:56Z</time>
      </trkpt>
      <trkpt lat="48.4108350" lon="1.4786610">
        <ele>130.6</ele>
        <time>2020-07-02T07:20:04Z</time>
      </trkpt>
      <trkpt lat="48.4105250" lon="1.4788450">
        <ele>130.4</ele>
        <time>2020-07-02T07:20:11Z</time>
      </trkpt>
      <trkpt lat="48.4102450" lon="1.4789950">
        <ele>130.2</ele>
        <time>2020-07-02T07:20:19Z</time>
      </trkpt>
      <trkpt lat="48.4102000" lon="1.4791260">
        <ele>130.4</ele>
        <time>2020-07-02T07:20:23Z</time>
      </trkpt>
      <trkpt lat="48.4101480" lon="1.4793440">
        <ele>130.4</ele>
        <time>2020-07-02T07:20:29Z</time>
      </trkpt>
      <trkpt lat="48.4100560" lon="1.4796550">
        <ele>130.4</ele>
        <time>2020-07-02T07:20:35Z</time>
      </trkpt>
      <trkpt lat="48.4099990" lon="1.4797500">
        <ele>130.4</ele>
        <time>2020-07-02T07:20:37Z</time>
      </trkpt>
      <trkpt lat="48.4099350" lon="1.4798120">
        <ele>130.2</ele>
        <time>2020-07-02T07:20:39Z</time>
      </trkpt>
      <trkpt lat="48.4098970" lon="1.4798430">
        <ele>130.4</ele>
        <time>2020-07-02T07:20:40Z</time>
      </trkpt>
      <trkpt lat="48.4098130" lon="1.4798970">
        <ele>130.2</ele>
        <time>2020-07-02T07:20:42Z</time>
      </trkpt>
      <trkpt lat="48.4097290" lon="1.4799400">
        <ele>130.0</ele>
        <time>2020-07-02T07:20:44Z</time>
      </trkpt>
      <trkpt lat="48.4096490" lon="1.4799990">
        <ele>129.8</ele>
        <time>2020-07-02T07:20:46Z</time>
      </trkpt>
      <trkpt lat="48.4093620" lon="1.4802390">
        <ele>129.2</ele>
        <time>2020-07-02T07:20:53Z</time>
      </trkpt>
      <trkpt lat="48.4091190" lon="1.4804930">
        <ele>129.0</ele>
        <time>2020-07-02T07:20:59Z</time>
      </trkpt>
      <trkpt lat="48.4090050" lon="1.4805840">
        <ele>129.0</ele>
        <time>2020-07-02T07:21:03Z</time>
      </trkpt>
      <trkpt lat="48.4087940" lon="1.4805590">
        <ele>129.6</ele>
        <time>2020-07-02T07:21:10Z</time>
      </trkpt>
      <trkpt lat="48.4087700" lon="1.4805500">
        <ele>129.4</ele>
        <time>2020-07-02T07:21:11Z</time>
      </trkpt>
      <trkpt lat="48.4086710" lon="1.4805060">
        <ele>129.8</ele>
        <time>2020-07-02T07:21:16Z</time>
      </trkpt>
      <trkpt lat="48.4086120" lon="1.4804360">
        <ele>130.0</ele>
        <time>2020-07-02T07:21:22Z</time>
      </trkpt>
      <trkpt lat="48.4085900" lon="1.4804270">
        <ele>130.4</ele>
        <time>2020-07-02T07:21:28Z</time>
      </trkpt>
      <trkpt lat="48.4085860" lon="1.4804260">
        <ele>130.4</ele>
        <time>2020-07-02T07:21:31Z</time>
      </trkpt>
      <trkpt lat="48.4085850" lon="1.4804260">
        <ele>130.4</ele>
        <time>2020-07-02T07:21:33Z</time>
      </trkpt>
      <trkpt lat="48.4085850" lon="1.4804220">
        <ele>130.2</ele>
        <time>2020-07-02T07:21:35Z</time>
      </trkpt>
      <trkpt lat="48.4085830" lon="1.4804200">
        <ele>130.4</ele>
        <time>2020-07-02T07:21:37Z</time>
      </trkpt>
      <trkpt lat="48.4085790" lon="1.4804210">
        <ele>130.2</ele>
        <time>2020-07-02T07:21:39Z</time>
      </trkpt>
      <trkpt lat="48.4085730" lon="1.4804230">
        <ele>129.8</ele>
        <time>2020-07-02T07:21:41Z</time>
      </trkpt>
      <trkpt lat="48.4085680" lon="1.4804260">
        <ele>129.8</ele>
        <time>2020-07-02T07:21:42Z</time>
      </trkpt>
      <trkpt lat="48.4085650" lon="1.4804260">
        <ele>129.6</ele>
        <time>2020-07-02T07:21:43Z</time>
      </trkpt>
      <trkpt lat="48.4085670" lon="1.4804250">
        <ele>129.4</ele>
        <time>2020-07-02T07:21:45Z</time>
      </trkpt>
      <trkpt lat="48.4085640" lon="1.4804270">
        <ele>129.4</ele>
        <time>2020-07-02T07:21:46Z</time>
      </trkpt>
      <trkpt lat="48.4085610" lon="1.4804290">
        <ele>129.4</ele>
        <time>2020-07-02T07:21:47Z</time>
      </trkpt>
      <trkpt lat="48.4084900" lon="1.4805500">
        <ele>135.8</ele>
        <time>2020-07-02T07:21:50Z</time>
      </trkpt>
      <trkpt lat="48.4084900" lon="1.4805500">
        <ele>130.6</ele>
        <time>2020-07-02T07:21:51Z</time>
      </trkpt>
      <trkpt lat="48.4085910" lon="1.4804090">
        <ele>129.6</ele>
        <time>2020-07-02T07:21:54Z</time>
      </trkpt>
      <trkpt lat="48.4085810" lon="1.4804370">
        <ele>129.8</ele>
        <time>2020-07-02T07:21:55Z</time>
      </trkpt>
      <trkpt lat="48.4085790" lon="1.4804400">
        <ele>129.6</ele>
        <time>2020-07-02T07:22:01Z</time>
      </trkpt>
      <trkpt lat="48.4086000" lon="1.4804030">
        <ele>129.8</ele>
        <time>2020-07-02T07:22:10Z</time>
      </trkpt>
      <trkpt lat="48.4085870" lon="1.4804150">
        <ele>130.0</ele>
        <time>2020-07-02T07:22:22Z</time>
      </trkpt>
      <trkpt lat="48.4085820" lon="1.4804190">
        <ele>130.2</ele>
        <time>2020-07-02T07:22:36Z</time>
      </trkpt>
      <trkpt lat="48.4085260" lon="1.4804490">
        <ele>130.4</ele>
        <time>2020-07-02T07:22:49Z</time>
      </trkpt>
      <trkpt lat="48.4085250" lon="1.4804540">
        <ele>130.2</ele>
        <time>2020-07-02T07:23:03Z</time>
      </trkpt>
      <trkpt lat="48.4085210" lon="1.4804540">
        <ele>130.4</ele>
        <time>2020-07-02T07:23:06Z</time>
      </trkpt>
      <trkpt lat="48.4084900" lon="1.4805500">
        <ele>135.8</ele>
        <time>2020-07-02T07:23:10Z</time>
      </trkpt>
      <trkpt lat="48.4084900" lon="1.4805500">
        <ele>130.0</ele>
        <time>2020-07-02T07:23:12Z</time>
      </trkpt>
      <trkpt lat="48.4087180" lon="1.4804090">
        <ele>129.8</ele>
        <time>2020-07-02T07:23:26Z</time>
      </trkpt>
      <trkpt lat="48.4086570" lon="1.4803560">
        <ele>129.8</ele>
        <time>2020-07-02T07:23:34Z</time>
      </trkpt>
      <trkpt lat="48.4086760" lon="1.4804040">
        <ele>129.8</ele>
        <time>2020-07-02T07:23:49Z</time>
      </trkpt>
      <trkpt lat="48.4086740" lon="1.4804350">
        <ele>129.8</ele>
        <time>2020-07-02T07:23:51Z</time>
      </trkpt>
      <trkpt lat="48.4086030" lon="1.4805490">
        <ele>129.8</ele>
        <time>2020-07-02T07:23:59Z</time>
      </trkpt>
      <trkpt lat="48.4085680" lon="1.4805670">
        <ele>129.8</ele>
        <time>2020-07-02T07:24:01Z</time>
      </trkpt>
      <trkpt lat="48.4084430" lon="1.4806490">
        <ele>129.8</ele>
        <time>2020-07-02T07:24:06Z</time>
      </trkpt>
      <trkpt lat="48.4083200" lon="1.4807440">
        <ele>129.8</ele>
        <time>2020-07-02T07:24:11Z</time>
      </trkpt>
      <trkpt lat="48.4081230" lon="1.4808610">
        <ele>130.0</ele>
        <time>2020-07-02T07:24:18Z</time>
      </trkpt>
      <trkpt lat="48.4080970" lon="1.4808730">
        <ele>130.0</ele>
        <time>2020-07-02T07:24:19Z</time>
      </trkpt>
      <trkpt lat="48.4079200" lon="1.4809750">
        <ele>130.6</ele>
        <time>2020-07-02T07:24:26Z</time>
      </trkpt>
      <trkpt lat="48.4077470" lon="1.4810740">
        <ele>131.2</ele>
        <time>2020-07-02T07:24:33Z</time>
      </trkpt>
      <trkpt lat="48.4075490" lon="1.4812160">
        <ele>131.6</ele>
        <time>2020-07-02T07:24:40Z</time>
      </trkpt>
      <trkpt lat="48.4073550" lon="1.4814170">
        <ele>131.6</ele>
        <time>2020-07-02T07:24:46Z</time>
      </trkpt>
      <trkpt lat="48.4073370" lon="1.4814420">
        <ele>131.4</ele>
        <time>2020-07-02T07:24:47Z</time>
      </trkpt>
      <trkpt lat="48.4072400" lon="1.4815360">
        <ele>131.6</ele>
        <time>2020-07-02T07:24:51Z</time>
      </trkpt>
      <trkpt lat="48.4070360" lon="1.4816210">
        <ele>131.4</ele>
        <time>2020-07-02T07:24:56Z</time>
      </trkpt>
      <trkpt lat="48.4069950" lon="1.4816250">
        <ele>131.4</ele>
        <time>2020-07-02T07:24:57Z</time>
      </trkpt>
      <trkpt lat="48.4068810" lon="1.4816070">
        <ele>131.2</ele>
        <time>2020-07-02T07:25:00Z</time>
      </trkpt>
      <trkpt lat="48.4066610" lon="1.4815350">
        <ele>130.8</ele>
        <time>2020-07-02T07:25:06Z</time>
      </trkpt>
      <trkpt lat="48.4066300" lon="1.4815210">
        <ele>130.8</ele>
        <time>2020-07-02T07:25:07Z</time>
      </trkpt>
      <trkpt lat="48.4064620" lon="1.4814330">
        <ele>130.8</ele>
        <time>2020-07-02T07:25:13Z</time>
      </trkpt>
      <trkpt lat="48.4062290" lon="1.4813400">
        <ele>131.6</ele>
        <time>2020-07-02T07:25:21Z</time>
      </trkpt>
      <trkpt lat="48.4060180" lon="1.4813810">
        <ele>131.6</ele>
        <time>2020-07-02T07:25:27Z</time>
      </trkpt>
      <trkpt lat="48.4057510" lon="1.4814580">
        <ele>131.8</ele>
        <time>2020-07-02T07:25:34Z</time>
      </trkpt>
      <trkpt lat="48.4057190" lon="1.4814730">
        <ele>131.8</ele>
        <time>2020-07-02T07:25:35Z</time>
      </trkpt>
      <trkpt lat="48.4055890" lon="1.4814580">
        <ele>132.0</ele>
        <time>2020-07-02T07:25:40Z</time>
      </trkpt>
      <trkpt lat="48.4055640" lon="1.4814530">
        <ele>132.0</ele>
        <time>2020-07-02T07:25:41Z</time>
      </trkpt>
      <trkpt lat="48.4054600" lon="1.4814690">
        <ele>132.6</ele>
        <time>2020-07-02T07:25:46Z</time>
      </trkpt>
      <trkpt lat="48.4053940" lon="1.4815040">
        <ele>132.8</ele>
        <time>2020-07-02T07:25:50Z</time>
      </trkpt>
      <trkpt lat="48.4053780" lon="1.4815360">
        <ele>132.8</ele>
        <time>2020-07-02T07:25:51Z</time>
      </trkpt>
      <trkpt lat="48.4053600" lon="1.4815760">
        <ele>132.8</ele>
        <time>2020-07-02T07:25:52Z</time>
      </trkpt>
      <trkpt lat="48.4052410" lon="1.4817100">
        <ele>133.0</ele>
        <time>2020-07-02T07:25:56Z</time>
      </trkpt>
      <trkpt lat="48.4051300" lon="1.4817820">
        <ele>132.8</ele>
        <time>2020-07-02T07:25:59Z</time>
      </trkpt>
      <trkpt lat="48.4050520" lon="1.4818110">
        <ele>132.6</ele>
        <time>2020-07-02T07:26:01Z</time>
      </trkpt>
      <trkpt lat="48.4049720" lon="1.4818500">
        <ele>132.2</ele>
        <time>2020-07-02T07:26:03Z</time>
      </trkpt>
      <trkpt lat="48.4045720" lon="1.4820900">
        <ele>131.6</ele>
        <time>2020-07-02T07:26:12Z</time>
      </trkpt>
      <trkpt lat="48.4043070" lon="1.4823490">
        <ele>131.4</ele>
        <time>2020-07-02T07:26:18Z</time>
      </trkpt>
      <trkpt lat="48.4042210" lon="1.4824520">
        <ele>131.6</ele>
        <time>2020-07-02T07:26:20Z</time>
      </trkpt>
      <trkpt lat="48.4039910" lon="1.4827440">
        <ele>131.8</ele>
        <time>2020-07-02T07:26:26Z</time>
      </trkpt>
      <trkpt lat="48.4039520" lon="1.4827880">
        <ele>131.8</ele>
        <time>2020-07-02T07:26:27Z</time>
      </trkpt>
      <trkpt lat="48.4035350" lon="1.4833130">
        <ele>133.2</ele>
        <time>2020-07-02T07:26:38Z</time>
      </trkpt>
      <trkpt lat="48.4034630" lon="1.4834050">
        <ele>133.4</ele>
        <time>2020-07-02T07:26:40Z</time>
      </trkpt>
      <trkpt lat="48.4031390" lon="1.4838510">
        <ele>133.8</ele>
        <time>2020-07-02T07:26:49Z</time>
      </trkpt>
      <trkpt lat="48.4028220" lon="1.4842770">
        <ele>134.0</ele>
        <time>2020-07-02T07:26:58Z</time>
      </trkpt>
      <trkpt lat="48.4024370" lon="1.4848360">
        <ele>134.8</ele>
        <time>2020-07-02T07:27:09Z</time>
      </trkpt>
      <trkpt lat="48.4023700" lon="1.4849130">
        <ele>134.8</ele>
        <time>2020-07-02T07:27:11Z</time>
      </trkpt>
      <trkpt lat="48.4022930" lon="1.4849610">
        <ele>134.8</ele>
        <time>2020-07-02T07:27:13Z</time>
      </trkpt>
      <trkpt lat="48.4022030" lon="1.4849940">
        <ele>134.8</ele>
        <time>2020-07-02T07:27:15Z</time>
      </trkpt>
      <trkpt lat="48.4018720" lon="1.4850440">
        <ele>134.6</ele>
        <time>2020-07-02T07:27:22Z</time>
      </trkpt>
      <trkpt lat="48.4015070" lon="1.4850410">
        <ele>134.6</ele>
        <time>2020-07-02T07:27:30Z</time>
      </trkpt>
      <trkpt lat="48.4012000" lon="1.4850170">
        <ele>134.6</ele>
        <time>2020-07-02T07:27:36Z</time>
      </trkpt>
      <trkpt lat="48.4010460" lon="1.4850690">
        <ele>134.6</ele>
        <time>2020-07-02T07:27:39Z</time>
      </trkpt>
      <trkpt lat="48.4008530" lon="1.4851320">
        <ele>134.8</ele>
        <time>2020-07-02T07:27:43Z</time>
      </trkpt>
      <trkpt lat="48.4005150" lon="1.4851740">
        <ele>135.4</ele>
        <time>2020-07-02T07:27:50Z</time>
      </trkpt>
      <trkpt lat="48.4003750" lon="1.4851750">
        <ele>135.6</ele>
        <time>2020-07-02T07:27:53Z</time>
      </trkpt>
      <trkpt lat="48.4001960" lon="1.4851510">
        <ele>135.8</ele>
        <time>2020-07-02T07:27:57Z</time>
      </trkpt>
      <trkpt lat="48.3997050" lon="1.4850910">
        <ele>136.2</ele>
        <time>2020-07-02T07:28:08Z</time>
      </trkpt>
      <trkpt lat="48.3992940" lon="1.4849840">
        <ele>136.4</ele>
        <time>2020-07-02T07:28:17Z</time>
      </trkpt>
      <trkpt lat="48.3990510" lon="1.4849350">
        <ele>136.4</ele>
        <time>2020-07-02T07:28:22Z</time>
      </trkpt>
      <trkpt lat="48.3990170" lon="1.4849080">
        <ele>136.4</ele>
        <time>2020-07-02T07:28:23Z</time>
      </trkpt>
      <trkpt lat="48.3989670" lon="1.4848210">
        <ele>136.4</ele>
        <time>2020-07-02T07:28:25Z</time>
      </trkpt>
      <trkpt lat="48.3989530" lon="1.4846920">
        <ele>136.2</ele>
        <time>2020-07-02T07:28:27Z</time>
      </trkpt>
      <trkpt lat="48.3989630" lon="1.4843270">
        <ele>136.2</ele>
        <time>2020-07-02T07:28:33Z</time>
      </trkpt>
      <trkpt lat="48.3989640" lon="1.4842710">
        <ele>136.2</ele>
        <time>2020-07-02T07:28:34Z</time>
      </trkpt>
      <trkpt lat="48.3989700" lon="1.4838860">
        <ele>136.6</ele>
        <time>2020-07-02T07:28:41Z</time>
      </trkpt>
      <trkpt lat="48.3989870" lon="1.4837160">
        <ele>137.2</ele>
        <time>2020-07-02T07:28:44Z</time>
      </trkpt>
      <trkpt lat="48.3990170" lon="1.4830910">
        <ele>138.2</ele>
        <time>2020-07-02T07:28:56Z</time>
      </trkpt>
      <trkpt lat="48.3990060" lon="1.4828230">
        <ele>138.8</ele>
        <time>2020-07-02T07:29:01Z</time>
      </trkpt>
      <trkpt lat="48.3989790" lon="1.4826700">
        <ele>138.8</ele>
        <time>2020-07-02T07:29:04Z</time>
      </trkpt>
      <trkpt lat="48.3988550" lon="1.4822280">
        <ele>139.2</ele>
        <time>2020-07-02T07:29:13Z</time>
      </trkpt>
      <trkpt lat="48.3986680" lon="1.4819380">
        <ele>140.0</ele>
        <time>2020-07-02T07:29:20Z</time>
      </trkpt>
      <trkpt lat="48.3985480" lon="1.4817960">
        <ele>140.4</ele>
        <time>2020-07-02T07:29:24Z</time>
      </trkpt>
      <trkpt lat="48.3984870" lon="1.4817370">
        <ele>140.6</ele>
        <time>2020-07-02T07:29:26Z</time>
      </trkpt>
      <trkpt lat="48.3983290" lon="1.4816100">
        <ele>141.2</ele>
        <time>2020-07-02T07:29:31Z</time>
      </trkpt>
      <trkpt lat="48.3980540" lon="1.4815420">
        <ele>141.4</ele>
        <time>2020-07-02T07:29:38Z</time>
      </trkpt>
      <trkpt lat="48.3978330" lon="1.4814930">
        <ele>141.4</ele>
        <time>2020-07-02T07:29:43Z</time>
      </trkpt>
      <trkpt lat="48.3977380" lon="1.4814680">
        <ele>141.2</ele>
        <time>2020-07-02T07:29:45Z</time>
      </trkpt>
      <trkpt lat="48.3976360" lon="1.4814410">
        <ele>141.0</ele>
        <time>2020-07-02T07:29:47Z</time>
      </trkpt>
      <trkpt lat="48.3973580" lon="1.4813570">
        <ele>140.6</ele>
        <time>2020-07-02T07:29:52Z</time>
      </trkpt>
      <trkpt lat="48.3971870" lon="1.4813080">
        <ele>140.2</ele>
        <time>2020-07-02T07:29:55Z</time>
      </trkpt>
      <trkpt lat="48.3968790" lon="1.4812210">
        <ele>139.0</ele>
        <time>2020-07-02T07:30:00Z</time>
      </trkpt>
      <trkpt lat="48.3967490" lon="1.4811840">
        <ele>138.8</ele>
        <time>2020-07-02T07:30:02Z</time>
      </trkpt>
      <trkpt lat="48.3962070" lon="1.4810000">
        <ele>137.0</ele>
        <time>2020-07-02T07:30:11Z</time>
      </trkpt>
      <trkpt lat="48.3961470" lon="1.4809820">
        <ele>136.8</ele>
        <time>2020-07-02T07:30:12Z</time>
      </trkpt>
      <trkpt lat="48.3958290" lon="1.4808800">
        <ele>136.2</ele>
        <time>2020-07-02T07:30:18Z</time>
      </trkpt>
      <trkpt lat="48.3953950" lon="1.4807900">
        <ele>135.6</ele>
        <time>2020-07-02T07:30:26Z</time>
      </trkpt>
      <trkpt lat="48.3952880" lon="1.4808100">
        <ele>135.8</ele>
        <time>2020-07-02T07:30:28Z</time>
      </trkpt>
      <trkpt lat="48.3951390" lon="1.4808820">
        <ele>135.6</ele>
        <time>2020-07-02T07:30:31Z</time>
      </trkpt>
      <trkpt lat="48.3947240" lon="1.4811770">
        <ele>135.0</ele>
        <time>2020-07-02T07:30:40Z</time>
      </trkpt>
      <trkpt lat="48.3943070" lon="1.4814320">
        <ele>135.0</ele>
        <time>2020-07-02T07:30:50Z</time>
      </trkpt>
      <trkpt lat="48.3939160" lon="1.4815360">
        <ele>135.0</ele>
        <time>2020-07-02T07:30:58Z</time>
      </trkpt>
      <trkpt lat="48.3935600" lon="1.4815830">
        <ele>134.8</ele>
        <time>2020-07-02T07:31:04Z</time>
      </trkpt>
      <trkpt lat="48.3934920" lon="1.4815980">
        <ele>134.8</ele>
        <time>2020-07-02T07:31:05Z</time>
      </trkpt>
      <trkpt lat="48.3932950" lon="1.4816170">
        <ele>134.8</ele>
        <time>2020-07-02T07:31:08Z</time>
      </trkpt>
      <trkpt lat="48.3931570" lon="1.4815900">
        <ele>134.4</ele>
        <time>2020-07-02T07:31:10Z</time>
      </trkpt>
      <trkpt lat="48.3930910" lon="1.4815600">
        <ele>134.2</ele>
        <time>2020-07-02T07:31:11Z</time>
      </trkpt>
      <trkpt lat="48.3930480" lon="1.4815120">
        <ele>134.0</ele>
        <time>2020-07-02T07:31:12Z</time>
      </trkpt>
      <trkpt lat="48.3929610" lon="1.4814010">
        <ele>133.2</ele>
        <time>2020-07-02T07:31:14Z</time>
      </trkpt>
      <trkpt lat="48.3928320" lon="1.4811460">
        <ele>131.6</ele>
        <time>2020-07-02T07:31:18Z</time>
      </trkpt>
      <trkpt lat="48.3928120" lon="1.4810660">
        <ele>131.4</ele>
        <time>2020-07-02T07:31:19Z</time>
      </trkpt>
      <trkpt lat="48.3927830" lon="1.4809050">
        <ele>131.4</ele>
        <time>2020-07-02T07:31:21Z</time>
      </trkpt>
      <trkpt lat="48.3927470" lon="1.4807150">
        <ele>131.2</ele>
        <time>2020-07-02T07:31:24Z</time>
      </trkpt>
      <trkpt lat="48.3926800" lon="1.4804580">
        <ele>131.6</ele>
        <time>2020-07-02T07:31:29Z</time>
      </trkpt>
      <trkpt lat="48.3926560" lon="1.4803630">
        <ele>132.0</ele>
        <time>2020-07-02T07:31:31Z</time>
      </trkpt>
      <trkpt lat="48.3926160" lon="1.4801510">
        <ele>132.8</ele>
        <time>2020-07-02T07:31:35Z</time>
      </trkpt>
      <trkpt lat="48.3925470" lon="1.4798730">
        <ele>133.6</ele>
        <time>2020-07-02T07:31:40Z</time>
      </trkpt>
      <trkpt lat="48.3924300" lon="1.4793210">
        <ele>134.6</ele>
        <time>2020-07-02T07:31:49Z</time>
      </trkpt>
      <trkpt lat="48.3922830" lon="1.4786540">
        <ele>134.8</ele>
        <time>2020-07-02T07:32:00Z</time>
      </trkpt>
      <trkpt lat="48.3921490" lon="1.4782180">
        <ele>135.0</ele>
        <time>2020-07-02T07:32:07Z</time>
      </trkpt>
      <trkpt lat="48.3919790" lon="1.4776380">
        <ele>134.8</ele>
        <time>2020-07-02T07:32:16Z</time>
      </trkpt>
      <trkpt lat="48.3919360" lon="1.4771840">
        <ele>135.0</ele>
        <time>2020-07-02T07:32:23Z</time>
      </trkpt>
      <trkpt lat="48.3918990" lon="1.4769900">
        <ele>135.0</ele>
        <time>2020-07-02T07:32:26Z</time>
      </trkpt>
      <trkpt lat="48.3918510" lon="1.4768870">
        <ele>135.0</ele>
        <time>2020-07-02T07:32:28Z</time>
      </trkpt>
      <trkpt lat="48.3918270" lon="1.4768420">
        <ele>135.2</ele>
        <time>2020-07-02T07:32:29Z</time>
      </trkpt>
      <trkpt lat="48.3915590" lon="1.4765900">
        <ele>135.4</ele>
        <time>2020-07-02T07:32:36Z</time>
      </trkpt>
      <trkpt lat="48.3915260" lon="1.4765450">
        <ele>135.4</ele>
        <time>2020-07-02T07:32:37Z</time>
      </trkpt>
      <trkpt lat="48.3914400" lon="1.4763840">
        <ele>135.4</ele>
        <time>2020-07-02T07:32:40Z</time>
      </trkpt>
      <trkpt lat="48.3914100" lon="1.4763260">
        <ele>135.6</ele>
        <time>2020-07-02T07:32:41Z</time>
      </trkpt>
      <trkpt lat="48.3913920" lon="1.4762630">
        <ele>135.4</ele>
        <time>2020-07-02T07:32:42Z</time>
      </trkpt>
      <trkpt lat="48.3912930" lon="1.4759120">
        <ele>135.8</ele>
        <time>2020-07-02T07:32:48Z</time>
      </trkpt>
      <trkpt lat="48.3912310" lon="1.4754550">
        <ele>136.2</ele>
        <time>2020-07-02T07:32:55Z</time>
      </trkpt>
      <trkpt lat="48.3912410" lon="1.4750700">
        <ele>136.2</ele>
        <time>2020-07-02T07:33:02Z</time>
      </trkpt>
      <trkpt lat="48.3912090" lon="1.4749670">
        <ele>136.0</ele>
        <time>2020-07-02T07:33:07Z</time>
      </trkpt>
      <trkpt lat="48.3911170" lon="1.4749260">
        <ele>136.0</ele>
        <time>2020-07-02T07:33:11Z</time>
      </trkpt>
      <trkpt lat="48.3910370" lon="1.4749360">
        <ele>136.0</ele>
        <time>2020-07-02T07:33:13Z</time>
      </trkpt>
      <trkpt lat="48.3909090" lon="1.4749360">
        <ele>135.6</ele>
        <time>2020-07-02T07:33:16Z</time>
      </trkpt>
      <trkpt lat="48.3907470" lon="1.4749940">
        <ele>135.2</ele>
        <time>2020-07-02T07:33:19Z</time>
      </trkpt>
      <trkpt lat="48.3906870" lon="1.4750330">
        <ele>135.2</ele>
        <time>2020-07-02T07:33:20Z</time>
      </trkpt>
      <trkpt lat="48.3906320" lon="1.4750660">
        <ele>135.0</ele>
        <time>2020-07-02T07:33:21Z</time>
      </trkpt>
      <trkpt lat="48.3904130" lon="1.4752300">
        <ele>133.0</ele>
        <time>2020-07-02T07:33:26Z</time>
      </trkpt>
      <trkpt lat="48.3900620" lon="1.4754670">
        <ele>131.8</ele>
        <time>2020-07-02T07:33:32Z</time>
      </trkpt>
      <trkpt lat="48.3899620" lon="1.4755250">
        <ele>131.4</ele>
        <time>2020-07-02T07:33:34Z</time>
      </trkpt>
      <trkpt lat="48.3899150" lon="1.4755460">
        <ele>131.4</ele>
        <time>2020-07-02T07:33:35Z</time>
      </trkpt>
      <trkpt lat="48.3896820" lon="1.4756700">
        <ele>131.2</ele>
        <time>2020-07-02T07:33:39Z</time>
      </trkpt>
      <trkpt lat="48.3895670" lon="1.4757170">
        <ele>131.2</ele>
        <time>2020-07-02T07:33:41Z</time>
      </trkpt>
      <trkpt lat="48.3893350" lon="1.4758240">
        <ele>131.0</ele>
        <time>2020-07-02T07:33:46Z</time>
      </trkpt>
      <trkpt lat="48.3893010" lon="1.4758350">
        <ele>131.0</ele>
        <time>2020-07-02T07:33:47Z</time>
      </trkpt>
      <trkpt lat="48.3892700" lon="1.4758470">
        <ele>130.8</ele>
        <time>2020-07-02T07:33:48Z</time>
      </trkpt>
      <trkpt lat="48.3892360" lon="1.4758670">
        <ele>130.8</ele>
        <time>2020-07-02T07:33:49Z</time>
      </trkpt>
      <trkpt lat="48.3890460" lon="1.4759590">
        <ele>130.4</ele>
        <time>2020-07-02T07:33:54Z</time>
      </trkpt>
      <trkpt lat="48.3887670" lon="1.4760500">
        <ele>130.2</ele>
        <time>2020-07-02T07:33:59Z</time>
      </trkpt>
      <trkpt lat="48.3884070" lon="1.4762820">
        <ele>130.2</ele>
        <time>2020-07-02T07:34:06Z</time>
      </trkpt>
      <trkpt lat="48.3878780" lon="1.4766190">
        <ele>130.2</ele>
        <time>2020-07-02T07:34:16Z</time>
      </trkpt>
      <trkpt lat="48.3878260" lon="1.4766590">
        <ele>130.2</ele>
        <time>2020-07-02T07:34:17Z</time>
      </trkpt>
      <trkpt lat="48.3875730" lon="1.4768410">
        <ele>130.2</ele>
        <time>2020-07-02T07:34:22Z</time>
      </trkpt>
      <trkpt lat="48.3873860" lon="1.4769530">
        <ele>130.4</ele>
        <time>2020-07-02T07:34:26Z</time>
      </trkpt>
      <trkpt lat="48.3871320" lon="1.4770750">
        <ele>130.2</ele>
        <time>2020-07-02T07:34:31Z</time>
      </trkpt>
      <trkpt lat="48.3867660" lon="1.4773010">
        <ele>130.4</ele>
        <time>2020-07-02T07:34:38Z</time>
      </trkpt>
      <trkpt lat="48.3866610" lon="1.4773560">
        <ele>130.6</ele>
        <time>2020-07-02T07:34:40Z</time>
      </trkpt>
      <trkpt lat="48.3862430" lon="1.4775800">
        <ele>131.6</ele>
        <time>2020-07-02T07:34:48Z</time>
      </trkpt>
      <trkpt lat="48.3861210" lon="1.4776420">
        <ele>131.6</ele>
        <time>2020-07-02T07:34:50Z</time>
      </trkpt>
      <trkpt lat="48.3858340" lon="1.4776960">
        <ele>131.6</ele>
        <time>2020-07-02T07:34:55Z</time>
      </trkpt>
      <trkpt lat="48.3855210" lon="1.4776230">
        <ele>131.0</ele>
        <time>2020-07-02T07:35:02Z</time>
      </trkpt>
      <trkpt lat="48.3854980" lon="1.4775910">
        <ele>131.0</ele>
        <time>2020-07-02T07:35:03Z</time>
      </trkpt>
      <trkpt lat="48.3854870" lon="1.4775490">
        <ele>131.0</ele>
        <time>2020-07-02T07:35:04Z</time>
      </trkpt>
      <trkpt lat="48.3854790" lon="1.4775020">
        <ele>131.2</ele>
        <time>2020-07-02T07:35:05Z</time>
      </trkpt>
      <trkpt lat="48.3854720" lon="1.4772120">
        <ele>131.2</ele>
        <time>2020-07-02T07:35:10Z</time>
      </trkpt>
      <trkpt lat="48.3854780" lon="1.4771480">
        <ele>131.2</ele>
        <time>2020-07-02T07:35:11Z</time>
      </trkpt>
      <trkpt lat="48.3854810" lon="1.4770880">
        <ele>131.4</ele>
        <time>2020-07-02T07:35:12Z</time>
      </trkpt>
      <trkpt lat="48.3854830" lon="1.4770260">
        <ele>131.6</ele>
        <time>2020-07-02T07:35:13Z</time>
      </trkpt>
      <trkpt lat="48.3854360" lon="1.4767080">
        <ele>131.8</ele>
        <time>2020-07-02T07:35:19Z</time>
      </trkpt>
      <trkpt lat="48.3854250" lon="1.4766300">
        <ele>132.2</ele>
        <time>2020-07-02T07:35:21Z</time>
      </trkpt>
      <trkpt lat="48.3853630" lon="1.4764640">
        <ele>133.0</ele>
        <time>2020-07-02T07:35:25Z</time>
      </trkpt>
      <trkpt lat="48.3853100" lon="1.4761660">
        <ele>133.4</ele>
        <time>2020-07-02T07:35:30Z</time>
      </trkpt>
      <trkpt lat="48.3852910" lon="1.4759300">
        <ele>133.8</ele>
        <time>2020-07-02T07:35:34Z</time>
      </trkpt>
      <trkpt lat="48.3852230" lon="1.4757340">
        <ele>134.0</ele>
        <time>2020-07-02T07:35:38Z</time>
      </trkpt>
      <trkpt lat="48.3851690" lon="1.4755930">
        <ele>134.4</ele>
        <time>2020-07-02T07:35:41Z</time>
      </trkpt>
      <trkpt lat="48.3851600" lon="1.4755390">
        <ele>134.4</ele>
        <time>2020-07-02T07:35:42Z</time>
      </trkpt>
      <trkpt lat="48.3851070" lon="1.4753030">
        <ele>134.8</ele>
        <time>2020-07-02T07:35:47Z</time>
      </trkpt>
      <trkpt lat="48.3850920" lon="1.4752150">
        <ele>135.0</ele>
        <time>2020-07-02T07:35:49Z</time>
      </trkpt>
      <trkpt lat="48.3850640" lon="1.4751430">
        <ele>135.2</ele>
        <time>2020-07-02T07:35:51Z</time>
      </trkpt>
      <trkpt lat="48.3850360" lon="1.4750510">
        <ele>135.0</ele>
        <time>2020-07-02T07:35:54Z</time>
      </trkpt>
      <trkpt lat="48.3850260" lon="1.4749400">
        <ele>135.4</ele>
        <time>2020-07-02T07:35:58Z</time>
      </trkpt>
      <trkpt lat="48.3850230" lon="1.4748550">
        <ele>135.6</ele>
        <time>2020-07-02T07:36:02Z</time>
      </trkpt>
      <trkpt lat="48.3850120" lon="1.4747360">
        <ele>136.0</ele>
        <time>2020-07-02T07:36:07Z</time>
      </trkpt>
      <trkpt lat="48.3850150" lon="1.4747070">
        <ele>135.8</ele>
        <time>2020-07-02T07:36:08Z</time>
      </trkpt>
      <trkpt lat="48.3850130" lon="1.4746820">
        <ele>136.0</ele>
        <time>2020-07-02T07:36:09Z</time>
      </trkpt>
      <trkpt lat="48.3850120" lon="1.4746360">
        <ele>136.2</ele>
        <time>2020-07-02T07:36:11Z</time>
      </trkpt>
      <trkpt lat="48.3850330" lon="1.4744390">
        <ele>136.2</ele>
        <time>2020-07-02T07:36:17Z</time>
      </trkpt>
      <trkpt lat="48.3850540" lon="1.4740710">
        <ele>136.4</ele>
        <time>2020-07-02T07:36:24Z</time>
      </trkpt>
      <trkpt lat="48.3850930" lon="1.4735210">
        <ele>136.2</ele>
        <time>2020-07-02T07:36:34Z</time>
      </trkpt>
      <trkpt lat="48.3851590" lon="1.4729960">
        <ele>136.0</ele>
        <time>2020-07-02T07:36:43Z</time>
      </trkpt>
      <trkpt lat="48.3851110" lon="1.4727900">
        <ele>136.4</ele>
        <time>2020-07-02T07:36:48Z</time>
      </trkpt>
      <trkpt lat="48.3850930" lon="1.4725970">
        <ele>136.8</ele>
        <time>2020-07-02T07:36:54Z</time>
      </trkpt>
      <trkpt lat="48.3850860" lon="1.4725610">
        <ele>136.8</ele>
        <time>2020-07-02T07:36:55Z</time>
      </trkpt>
      <trkpt lat="48.3849770" lon="1.4723760">
        <ele>137.4</ele>
        <time>2020-07-02T07:37:01Z</time>
      </trkpt>
      <trkpt lat="48.3849190" lon="1.4722710">
        <ele>137.6</ele>
        <time>2020-07-02T07:37:04Z</time>
      </trkpt>
      <trkpt lat="48.3848980" lon="1.4722320">
        <ele>137.6</ele>
        <time>2020-07-02T07:37:05Z</time>
      </trkpt>
      <trkpt lat="48.3848770" lon="1.4721930">
        <ele>137.8</ele>
        <time>2020-07-02T07:37:06Z</time>
      </trkpt>
      <trkpt lat="48.3847860" lon="1.4719980">
        <ele>138.2</ele>
        <time>2020-07-02T07:37:11Z</time>
      </trkpt>
      <trkpt lat="48.3846080" lon="1.4716740">
        <ele>138.8</ele>
        <time>2020-07-02T07:37:20Z</time>
      </trkpt>
      <trkpt lat="48.3845840" lon="1.4716370">
        <ele>138.8</ele>
        <time>2020-07-02T07:37:21Z</time>
      </trkpt>
      <trkpt lat="48.3845580" lon="1.4716010">
        <ele>139.0</ele>
        <time>2020-07-02T07:37:22Z</time>
      </trkpt>
      <trkpt lat="48.3844200" lon="1.4713570">
        <ele>139.4</ele>
        <time>2020-07-02T07:37:28Z</time>
      </trkpt>
      <trkpt lat="48.3843770" lon="1.4712770">
        <ele>139.2</ele>
        <time>2020-07-02T07:37:30Z</time>
      </trkpt>
      <trkpt lat="48.3842910" lon="1.4710700">
        <ele>139.6</ele>
        <time>2020-07-02T07:37:35Z</time>
      </trkpt>
      <trkpt lat="48.3842060" lon="1.4709070">
        <ele>140.0</ele>
        <time>2020-07-02T07:37:39Z</time>
      </trkpt>
      <trkpt lat="48.3841430" lon="1.4707790">
        <ele>140.0</ele>
        <time>2020-07-02T07:37:42Z</time>
      </trkpt>
      <trkpt lat="48.3839790" lon="1.4704320">
        <ele>139.8</ele>
        <time>2020-07-02T07:37:50Z</time>
      </trkpt>
      <trkpt lat="48.3839600" lon="1.4703870">
        <ele>139.8</ele>
        <time>2020-07-02T07:37:51Z</time>
      </trkpt>
      <trkpt lat="48.3839490" lon="1.4703380">
        <ele>139.8</ele>
        <time>2020-07-02T07:37:52Z</time>
      </trkpt>
      <trkpt lat="48.3838580" lon="1.4701120">
        <ele>139.6</ele>
        <time>2020-07-02T07:37:57Z</time>
      </trkpt>
      <trkpt lat="48.3838370" lon="1.4700860">
        <ele>139.6</ele>
        <time>2020-07-02T07:37:58Z</time>
      </trkpt>
      <trkpt lat="48.3837030" lon="1.4699570">
        <ele>139.4</ele>
        <time>2020-07-02T07:38:05Z</time>
      </trkpt>
      <trkpt lat="48.3836930" lon="1.4697720">
        <ele>139.6</ele>
        <time>2020-07-02T07:38:10Z</time>
      </trkpt>
      <trkpt lat="48.3837270" lon="1.4696440">
        <ele>139.6</ele>
        <time>2020-07-02T07:38:13Z</time>
      </trkpt>
      <trkpt lat="48.3837520" lon="1.4695380">
        <ele>139.8</ele>
        <time>2020-07-02T07:38:17Z</time>
      </trkpt>
      <trkpt lat="48.3837750" lon="1.4695050">
        <ele>140.0</ele>
        <time>2020-07-02T07:38:23Z</time>
      </trkpt>
      <trkpt lat="48.3837940" lon="1.4694880">
        <ele>140.6</ele>
        <time>2020-07-02T07:38:41Z</time>
      </trkpt>
      <trkpt lat="48.3838110" lon="1.4694760">
        <ele>140.2</ele>
        <time>2020-07-02T07:39:02Z</time>
      </trkpt>
      <trkpt lat="48.3838280" lon="1.4694250">
        <ele>140.0</ele>
        <time>2020-07-02T07:39:12Z</time>
      </trkpt>
      <trkpt lat="48.3838320" lon="1.4694170">
        <ele>140.0</ele>
        <time>2020-07-02T07:39:28Z</time>
      </trkpt>
      <trkpt lat="48.3838420" lon="1.4694230">
        <ele>140.4</ele>
        <time>2020-07-02T07:39:58Z</time>
      </trkpt>
      <trkpt lat="48.3838420" lon="1.4694230">
        <ele>140.4</ele>
        <time>2020-07-02T07:40:01Z</time>
      </trkpt>
      <trkpt lat="48.3838420" lon="1.4694230">
        <ele>140.4</ele>
        <time>2020-07-02T07:40:05Z</time>
      </trkpt>
      <trkpt lat="48.3838570" lon="1.4694190">
        <ele>140.6</ele>
        <time>2020-07-02T07:40:21Z</time>
      </trkpt>
      <trkpt lat="48.3838830" lon="1.4694150">
        <ele>140.4</ele>
        <time>2020-07-02T07:40:39Z</time>
      </trkpt>
      <trkpt lat="48.3838870" lon="1.4694140">
        <ele>140.4</ele>
        <time>2020-07-02T07:40:41Z</time>
      </trkpt>
      <trkpt lat="48.3838900" lon="1.4694120">
        <ele>140.4</ele>
        <time>2020-07-02T07:40:42Z</time>
      </trkpt>
      <trkpt lat="48.3838920" lon="1.4694060">
        <ele>140.6</ele>
        <time>2020-07-02T07:40:44Z</time>
      </trkpt>
      <trkpt lat="48.3838970" lon="1.4693790">
        <ele>140.6</ele>
        <time>2020-07-02T07:40:53Z</time>
      </trkpt>
      <trkpt lat="48.3839130" lon="1.4693890">
        <ele>140.8</ele>
        <time>2020-07-02T07:41:13Z</time>
      </trkpt>
      <trkpt lat="48.3839150" lon="1.4693870">
        <ele>140.6</ele>
        <time>2020-07-02T07:41:24Z</time>
      </trkpt>
      <trkpt lat="48.3839060" lon="1.4693970">
        <ele>140.6</ele>
        <time>2020-07-02T07:41:29Z</time>
      </trkpt>
      <trkpt lat="48.3839070" lon="1.4693970">
        <ele>140.6</ele>
        <time>2020-07-02T07:41:30Z</time>
      </trkpt>
      <trkpt lat="48.3839070" lon="1.4693990">
        <ele>140.6</ele>
        <time>2020-07-02T07:41:31Z</time>
      </trkpt>
      <trkpt lat="48.3839070" lon="1.4694010">
        <ele>140.6</ele>
        <time>2020-07-02T07:41:32Z</time>
      </trkpt>
      <trkpt lat="48.3839070" lon="1.4694020">
        <ele>140.6</ele>
        <time>2020-07-02T07:41:33Z</time>
      </trkpt>
      <trkpt lat="48.3839060" lon="1.4694050">
        <ele>140.6</ele>
        <time>2020-07-02T07:41:34Z</time>
      </trkpt>
      <trkpt lat="48.3838970" lon="1.4694030">
        <ele>140.4</ele>
        <time>2020-07-02T07:41:38Z</time>
      </trkpt>
      <trkpt lat="48.3838680" lon="1.4694290">
        <ele>140.0</ele>
        <time>2020-07-02T07:41:44Z</time>
      </trkpt>
      <trkpt lat="48.3838510" lon="1.4694820">
        <ele>139.8</ele>
        <time>2020-07-02T07:41:47Z</time>
      </trkpt>
      <trkpt lat="48.3838070" lon="1.4695820">
        <ele>139.8</ele>
        <time>2020-07-02T07:41:51Z</time>
      </trkpt>
      <trkpt lat="48.3837240" lon="1.4698590">
        <ele>139.8</ele>
        <time>2020-07-02T07:41:59Z</time>
      </trkpt>
      <trkpt lat="48.3836330" lon="1.4703030">
        <ele>139.4</ele>
        <time>2020-07-02T07:42:11Z</time>
      </trkpt>
      <trkpt lat="48.3836000" lon="1.4704990">
        <ele>139.6</ele>
        <time>2020-07-02T07:42:16Z</time>
      </trkpt>
      <trkpt lat="48.3835980" lon="1.4705370">
        <ele>139.4</ele>
        <time>2020-07-02T07:42:17Z</time>
      </trkpt>
      <trkpt lat="48.3835970" lon="1.4706430">
        <ele>139.4</ele>
        <time>2020-07-02T07:42:20Z</time>
      </trkpt>
      <trkpt lat="48.3835700" lon="1.4709950">
        <ele>139.4</ele>
        <time>2020-07-02T07:42:29Z</time>
      </trkpt>
      <trkpt lat="48.3835540" lon="1.4711930">
        <ele>139.2</ele>
        <time>2020-07-02T07:42:34Z</time>
      </trkpt>
      <trkpt lat="48.3835310" lon="1.4713340">
        <ele>139.2</ele>
        <time>2020-07-02T07:42:37Z</time>
      </trkpt>
      <trkpt lat="48.3834440" lon="1.4717900">
        <ele>138.8</ele>
        <time>2020-07-02T07:42:47Z</time>
      </trkpt>
      <trkpt lat="48.3833540" lon="1.4722040">
        <ele>138.6</ele>
        <time>2020-07-02T07:42:55Z</time>
      </trkpt>
      <trkpt lat="48.3832720" lon="1.4726560">
        <ele>138.8</ele>
        <time>2020-07-02T07:43:03Z</time>
      </trkpt>
      <trkpt lat="48.3831950" lon="1.4732260">
        <ele>138.6</ele>
        <time>2020-07-02T07:43:12Z</time>
      </trkpt>
      <trkpt lat="48.3831460" lon="1.4735700">
        <ele>138.4</ele>
        <time>2020-07-02T07:43:18Z</time>
      </trkpt>
      <trkpt lat="48.3830940" lon="1.4738660">
        <ele>138.4</ele>
        <time>2020-07-02T07:43:23Z</time>
      </trkpt>
      <trkpt lat="48.3830110" lon="1.4745610">
        <ele>138.2</ele>
        <time>2020-07-02T07:43:34Z</time>
      </trkpt>
      <trkpt lat="48.3829770" lon="1.4748940">
        <ele>138.2</ele>
        <time>2020-07-02T07:43:39Z</time>
      </trkpt>
      <trkpt lat="48.3829680" lon="1.4749620">
        <ele>138.0</ele>
        <time>2020-07-02T07:43:40Z</time>
      </trkpt>
      <trkpt lat="48.3829530" lon="1.4750970">
        <ele>138.2</ele>
        <time>2020-07-02T07:43:42Z</time>
      </trkpt>
      <trkpt lat="48.3829470" lon="1.4751630">
        <ele>138.0</ele>
        <time>2020-07-02T07:43:43Z</time>
      </trkpt>
      <trkpt lat="48.3829460" lon="1.4752270">
        <ele>138.0</ele>
        <time>2020-07-02T07:43:44Z</time>
      </trkpt>
      <trkpt lat="48.3829410" lon="1.4752880">
        <ele>137.8</ele>
        <time>2020-07-02T07:43:45Z</time>
      </trkpt>
      <trkpt lat="48.3828000" lon="1.4759380">
        <ele>137.8</ele>
        <time>2020-07-02T07:43:56Z</time>
      </trkpt>
      <trkpt lat="48.3826710" lon="1.4765910">
        <ele>138.0</ele>
        <time>2020-07-02T07:44:08Z</time>
      </trkpt>
      <trkpt lat="48.3826550" lon="1.4766920">
        <ele>138.2</ele>
        <time>2020-07-02T07:44:10Z</time>
      </trkpt>
      <trkpt lat="48.3826070" lon="1.4768490">
        <ele>138.4</ele>
        <time>2020-07-02T07:44:14Z</time>
      </trkpt>
      <trkpt lat="48.3824590" lon="1.4769650">
        <ele>138.6</ele>
        <time>2020-07-02T07:44:19Z</time>
      </trkpt>
      <trkpt lat="48.3822580" lon="1.4768800">
        <ele>139.2</ele>
        <time>2020-07-02T07:44:27Z</time>
      </trkpt>
      <trkpt lat="48.3821940" lon="1.4768510">
        <ele>139.2</ele>
        <time>2020-07-02T07:44:29Z</time>
      </trkpt>
      <trkpt lat="48.3820930" lon="1.4768830">
        <ele>139.4</ele>
        <time>2020-07-02T07:44:32Z</time>
      </trkpt>
      <trkpt lat="48.3820560" lon="1.4769490">
        <ele>139.6</ele>
        <time>2020-07-02T07:44:34Z</time>
      </trkpt>
      <trkpt lat="48.3820470" lon="1.4770310">
        <ele>140.0</ele>
        <time>2020-07-02T07:44:36Z</time>
      </trkpt>
      <trkpt lat="48.3819990" lon="1.4771730">
        <ele>140.4</ele>
        <time>2020-07-02T07:44:40Z</time>
      </trkpt>
      <trkpt lat="48.3819730" lon="1.4772140">
        <ele>140.6</ele>
        <time>2020-07-02T07:44:42Z</time>
      </trkpt>
      <trkpt lat="48.3819600" lon="1.4772360">
        <ele>140.8</ele>
        <time>2020-07-02T07:44:45Z</time>
      </trkpt>
      <trkpt lat="48.3819600" lon="1.4772330">
        <ele>141.6</ele>
        <time>2020-07-02T07:44:59Z</time>
      </trkpt>
      <trkpt lat="48.3819730" lon="1.4772230">
        <ele>142.0</ele>
        <time>2020-07-02T07:45:17Z</time>
      </trkpt>
      <trkpt lat="48.3820070" lon="1.4771910">
        <ele>141.6</ele>
        <time>2020-07-02T07:45:37Z</time>
      </trkpt>
      <trkpt lat="48.3820240" lon="1.4771660">
        <ele>141.8</ele>
        <time>2020-07-02T07:45:54Z</time>
      </trkpt>
      <trkpt lat="48.3820300" lon="1.4771620">
        <ele>142.0</ele>
        <time>2020-07-02T07:46:08Z</time>
      </trkpt>
      <trkpt lat="48.3820330" lon="1.4771760">
        <ele>142.0</ele>
        <time>2020-07-02T07:46:23Z</time>
      </trkpt>
      <trkpt lat="48.3820350" lon="1.4771830">
        <ele>142.0</ele>
        <time>2020-07-02T07:46:53Z</time>
      </trkpt>
      <trkpt lat="48.3820320" lon="1.4771860">
        <ele>141.8</ele>
        <time>2020-07-02T07:47:17Z</time>
      </trkpt>
      <trkpt lat="48.3820290" lon="1.4772570">
        <ele>141.6</ele>
        <time>2020-07-02T07:47:33Z</time>
      </trkpt>
      <trkpt lat="48.3820130" lon="1.4773150">
        <ele>141.6</ele>
        <time>2020-07-02T07:47:36Z</time>
      </trkpt>
      <trkpt lat="48.3819510" lon="1.4774540">
        <ele>141.6</ele>
        <time>2020-07-02T07:47:41Z</time>
      </trkpt>
      <trkpt lat="48.3818560" lon="1.4776720">
        <ele>141.8</ele>
        <time>2020-07-02T07:47:47Z</time>
      </trkpt>
      <trkpt lat="48.3818460" lon="1.4777060">
        <ele>141.6</ele>
        <time>2020-07-02T07:47:48Z</time>
      </trkpt>
      <trkpt lat="48.3817260" lon="1.4780180">
        <ele>142.6</ele>
        <time>2020-07-02T07:47:56Z</time>
      </trkpt>
      <trkpt lat="48.3816450" lon="1.4781980">
        <ele>142.8</ele>
        <time>2020-07-02T07:48:00Z</time>
      </trkpt>
      <trkpt lat="48.3815270" lon="1.4784440">
        <ele>143.2</ele>
        <time>2020-07-02T07:48:06Z</time>
      </trkpt>
      <trkpt lat="48.3813120" lon="1.4787950">
        <ele>143.2</ele>
        <time>2020-07-02T07:48:13Z</time>
      </trkpt>
      <trkpt lat="48.3812340" lon="1.4788890">
        <ele>143.0</ele>
        <time>2020-07-02T07:48:15Z</time>
      </trkpt>
      <trkpt lat="48.3809450" lon="1.4792250">
        <ele>142.8</ele>
        <time>2020-07-02T07:48:22Z</time>
      </trkpt>
      <trkpt lat="48.3808650" lon="1.4793270">
        <ele>142.8</ele>
        <time>2020-07-02T07:48:24Z</time>
      </trkpt>
      <trkpt lat="48.3805330" lon="1.4797360">
        <ele>141.8</ele>
        <time>2020-07-02T07:48:32Z</time>
      </trkpt>
      <trkpt lat="48.3803420" lon="1.4799680">
        <ele>141.2</ele>
        <time>2020-07-02T07:48:36Z</time>
      </trkpt>
      <trkpt lat="48.3801410" lon="1.4802120">
        <ele>141.2</ele>
        <time>2020-07-02T07:48:40Z</time>
      </trkpt>
      <trkpt lat="48.3799810" lon="1.4804080">
        <ele>140.4</ele>
        <time>2020-07-02T07:48:43Z</time>
      </trkpt>
      <trkpt lat="48.3798130" lon="1.4806180">
        <ele>140.0</ele>
        <time>2020-07-02T07:48:46Z</time>
      </trkpt>
      <trkpt lat="48.3796970" lon="1.4807620">
        <ele>139.8</ele>
        <time>2020-07-02T07:48:48Z</time>
      </trkpt>
      <trkpt lat="48.3796370" lon="1.4808370">
        <ele>139.6</ele>
        <time>2020-07-02T07:48:49Z</time>
      </trkpt>
      <trkpt lat="48.3795180" lon="1.4809910">
        <ele>139.2</ele>
        <time>2020-07-02T07:48:51Z</time>
      </trkpt>
      <trkpt lat="48.3792130" lon="1.4814120">
        <ele>138.2</ele>
        <time>2020-07-02T07:48:56Z</time>
      </trkpt>
      <trkpt lat="48.3789950" lon="1.4818130">
        <ele>136.2</ele>
        <time>2020-07-02T07:49:00Z</time>
      </trkpt>
      <trkpt lat="48.3788970" lon="1.4820300">
        <ele>135.2</ele>
        <time>2020-07-02T07:49:02Z</time>
      </trkpt>
      <trkpt lat="48.3786510" lon="1.4827370">
        <ele>133.0</ele>
        <time>2020-07-02T07:49:08Z</time>
      </trkpt>
      <trkpt lat="48.3784770" lon="1.4833120">
        <ele>131.8</ele>
        <time>2020-07-02T07:49:13Z</time>
      </trkpt>
      <trkpt lat="48.3784080" lon="1.4835300">
        <ele>131.6</ele>
        <time>2020-07-02T07:49:15Z</time>
      </trkpt>
      <trkpt lat="48.3782550" lon="1.4841210">
        <ele>131.0</ele>
        <time>2020-07-02T07:49:21Z</time>
      </trkpt>
      <trkpt lat="48.3781020" lon="1.4848420">
        <ele>130.6</ele>
        <time>2020-07-02T07:49:29Z</time>
      </trkpt>
      <trkpt lat="48.3779990" lon="1.4856160">
        <ele>130.8</ele>
        <time>2020-07-02T07:49:37Z</time>
      </trkpt>
      <trkpt lat="48.3778980" lon="1.4865020">
        <ele>130.8</ele>
        <time>2020-07-02T07:49:46Z</time>
      </trkpt>
      <trkpt lat="48.3778760" lon="1.4866990">
        <ele>130.8</ele>
        <time>2020-07-02T07:49:48Z</time>
      </trkpt>
      <trkpt lat="48.3777630" lon="1.4874640">
        <ele>130.2</ele>
        <time>2020-07-02T07:49:56Z</time>
      </trkpt>
      <trkpt lat="48.3777220" lon="1.4876490">
        <ele>130.2</ele>
        <time>2020-07-02T07:49:58Z</time>
      </trkpt>
      <trkpt lat="48.3776430" lon="1.4879200">
        <ele>130.0</ele>
        <time>2020-07-02T07:50:01Z</time>
      </trkpt>
      <trkpt lat="48.3774550" lon="1.4885330">
        <ele>129.8</ele>
        <time>2020-07-02T07:50:08Z</time>
      </trkpt>
      <trkpt lat="48.3772660" lon="1.4890800">
        <ele>129.8</ele>
        <time>2020-07-02T07:50:15Z</time>
      </trkpt>
      <trkpt lat="48.3772400" lon="1.4891530">
        <ele>129.8</ele>
        <time>2020-07-02T07:50:16Z</time>
      </trkpt>
      <trkpt lat="48.3770370" lon="1.4897610">
        <ele>131.0</ele>
        <time>2020-07-02T07:50:25Z</time>
      </trkpt>
      <trkpt lat="48.3769380" lon="1.4900480">
        <ele>131.4</ele>
        <time>2020-07-02T07:50:30Z</time>
      </trkpt>
      <trkpt lat="48.3768620" lon="1.4903320">
        <ele>132.0</ele>
        <time>2020-07-02T07:50:35Z</time>
      </trkpt>
      <trkpt lat="48.3767110" lon="1.4908720">
        <ele>133.6</ele>
        <time>2020-07-02T07:50:44Z</time>
      </trkpt>
      <trkpt lat="48.3764970" lon="1.4914830">
        <ele>134.2</ele>
        <time>2020-07-02T07:50:54Z</time>
      </trkpt>
      <trkpt lat="48.3764470" lon="1.4916020">
        <ele>134.2</ele>
        <time>2020-07-02T07:50:56Z</time>
      </trkpt>
      <trkpt lat="48.3762600" lon="1.4921430">
        <ele>134.4</ele>
        <time>2020-07-02T07:51:05Z</time>
      </trkpt>
      <trkpt lat="48.3761530" lon="1.4924940">
        <ele>134.8</ele>
        <time>2020-07-02T07:51:11Z</time>
      </trkpt>
      <trkpt lat="48.3760600" lon="1.4928250">
        <ele>135.2</ele>
        <time>2020-07-02T07:51:17Z</time>
      </trkpt>
      <trkpt lat="48.3760340" lon="1.4929320">
        <ele>135.4</ele>
        <time>2020-07-02T07:51:19Z</time>
      </trkpt>
      <trkpt lat="48.3759080" lon="1.4934320">
        <ele>136.8</ele>
        <time>2020-07-02T07:51:28Z</time>
      </trkpt>
      <trkpt lat="48.3758400" lon="1.4936620">
        <ele>137.4</ele>
        <time>2020-07-02T07:51:32Z</time>
      </trkpt>
      <trkpt lat="48.3757040" lon="1.4941720">
        <ele>137.8</ele>
        <time>2020-07-02T07:51:41Z</time>
      </trkpt>
      <trkpt lat="48.3756880" lon="1.4942250">
        <ele>137.8</ele>
        <time>2020-07-02T07:51:42Z</time>
      </trkpt>
      <trkpt lat="48.3755800" lon="1.4945150">
        <ele>138.2</ele>
        <time>2020-07-02T07:51:48Z</time>
      </trkpt>
      <trkpt lat="48.3755360" lon="1.4946040">
        <ele>138.2</ele>
        <time>2020-07-02T07:51:50Z</time>
      </trkpt>
      <trkpt lat="48.3754350" lon="1.4948530">
        <ele>139.6</ele>
        <time>2020-07-02T07:51:57Z</time>
      </trkpt>
      <trkpt lat="48.3753860" lon="1.4951820">
        <ele>139.4</ele>
        <time>2020-07-02T07:52:04Z</time>
      </trkpt>
      <trkpt lat="48.3752960" lon="1.4955880">
        <ele>139.4</ele>
        <time>2020-07-02T07:52:10Z</time>
      </trkpt>
      <trkpt lat="48.3752740" lon="1.4956580">
        <ele>139.4</ele>
        <time>2020-07-02T07:52:11Z</time>
      </trkpt>
      <trkpt lat="48.3750240" lon="1.4964380">
        <ele>138.8</ele>
        <time>2020-07-02T07:52:22Z</time>
      </trkpt>
      <trkpt lat="48.3747720" lon="1.4972150">
        <ele>138.6</ele>
        <time>2020-07-02T07:52:33Z</time>
      </trkpt>
      <trkpt lat="48.3747500" lon="1.4972830">
        <ele>138.6</ele>
        <time>2020-07-02T07:52:34Z</time>
      </trkpt>
      <trkpt lat="48.3745250" lon="1.4980210">
        <ele>138.8</ele>
        <time>2020-07-02T07:52:45Z</time>
      </trkpt>
      <trkpt lat="48.3743440" lon="1.4985950">
        <ele>138.8</ele>
        <time>2020-07-02T07:52:54Z</time>
      </trkpt>
      <trkpt lat="48.3743020" lon="1.4987310">
        <ele>138.8</ele>
        <time>2020-07-02T07:52:56Z</time>
      </trkpt>
      <trkpt lat="48.3741900" lon="1.4990760">
        <ele>138.4</ele>
        <time>2020-07-02T07:53:01Z</time>
      </trkpt>
      <trkpt lat="48.3741670" lon="1.4991490">
        <ele>138.4</ele>
        <time>2020-07-02T07:53:02Z</time>
      </trkpt>
      <trkpt lat="48.3741430" lon="1.4992230">
        <ele>138.4</ele>
        <time>2020-07-02T07:53:03Z</time>
      </trkpt>
      <trkpt lat="48.3740960" lon="1.4993690">
        <ele>138.2</ele>
        <time>2020-07-02T07:53:05Z</time>
      </trkpt>
      <trkpt lat="48.3740720" lon="1.4994460">
        <ele>138.2</ele>
        <time>2020-07-02T07:53:06Z</time>
      </trkpt>
      <trkpt lat="48.3740500" lon="1.4995220">
        <ele>138.2</ele>
        <time>2020-07-02T07:53:07Z</time>
      </trkpt>
      <trkpt lat="48.3739850" lon="1.4997590">
        <ele>137.8</ele>
        <time>2020-07-02T07:53:10Z</time>
      </trkpt>
      <trkpt lat="48.3738100" lon="1.5003900">
        <ele>136.0</ele>
        <time>2020-07-02T07:53:18Z</time>
      </trkpt>
      <trkpt lat="48.3737540" lon="1.5006630">
        <ele>135.8</ele>
        <time>2020-07-02T07:53:21Z</time>
      </trkpt>
      <trkpt lat="48.3736980" lon="1.5009800">
        <ele>135.6</ele>
        <time>2020-07-02T07:53:24Z</time>
      </trkpt>
      <trkpt lat="48.3736760" lon="1.5010910">
        <ele>135.6</ele>
        <time>2020-07-02T07:53:25Z</time>
      </trkpt>
      <trkpt lat="48.3736320" lon="1.5013180">
        <ele>135.4</ele>
        <time>2020-07-02T07:53:27Z</time>
      </trkpt>
      <trkpt lat="48.3736090" lon="1.5014350">
        <ele>134.8</ele>
        <time>2020-07-02T07:53:28Z</time>
      </trkpt>
      <trkpt lat="48.3735880" lon="1.5015520">
        <ele>134.4</ele>
        <time>2020-07-02T07:53:29Z</time>
      </trkpt>
      <trkpt lat="48.3735670" lon="1.5016660">
        <ele>134.0</ele>
        <time>2020-07-02T07:53:30Z</time>
      </trkpt>
      <trkpt lat="48.3735430" lon="1.5017830">
        <ele>133.8</ele>
        <time>2020-07-02T07:53:31Z</time>
      </trkpt>
      <trkpt lat="48.3735040" lon="1.5020020">
        <ele>133.2</ele>
        <time>2020-07-02T07:53:33Z</time>
      </trkpt>
      <trkpt lat="48.3734860" lon="1.5021040">
        <ele>133.0</ele>
        <time>2020-07-02T07:53:34Z</time>
      </trkpt>
      <trkpt lat="48.3734020" lon="1.5024630">
        <ele>132.4</ele>
        <time>2020-07-02T07:53:38Z</time>
      </trkpt>
      <trkpt lat="48.3733790" lon="1.5025450">
        <ele>132.4</ele>
        <time>2020-07-02T07:53:39Z</time>
      </trkpt>
      <trkpt lat="48.3732390" lon="1.5029790">
        <ele>132.2</ele>
        <time>2020-07-02T07:53:45Z</time>
      </trkpt>
      <trkpt lat="48.3731020" lon="1.5034290">
        <ele>132.4</ele>
        <time>2020-07-02T07:53:51Z</time>
      </trkpt>
      <trkpt lat="48.3730860" lon="1.5035030">
        <ele>132.4</ele>
        <time>2020-07-02T07:53:52Z</time>
      </trkpt>
      <trkpt lat="48.3729650" lon="1.5039150">
        <ele>132.6</ele>
        <time>2020-07-02T07:53:58Z</time>
      </trkpt>
      <trkpt lat="48.3728910" lon="1.5041650">
        <ele>133.2</ele>
        <time>2020-07-02T07:54:02Z</time>
      </trkpt>
      <trkpt lat="48.3727100" lon="1.5049310">
        <ele>134.6</ele>
        <time>2020-07-02T07:54:14Z</time>
      </trkpt>
      <trkpt lat="48.3726950" lon="1.5050000">
        <ele>134.8</ele>
        <time>2020-07-02T07:54:15Z</time>
      </trkpt>
      <trkpt lat="48.3725210" lon="1.5057280">
        <ele>135.8</ele>
        <time>2020-07-02T07:54:26Z</time>
      </trkpt>
      <trkpt lat="48.3724660" lon="1.5059940">
        <ele>135.8</ele>
        <time>2020-07-02T07:54:30Z</time>
      </trkpt>
      <trkpt lat="48.3723550" lon="1.5065100">
        <ele>136.2</ele>
        <time>2020-07-02T07:54:37Z</time>
      </trkpt>
      <trkpt lat="48.3722030" lon="1.5073320">
        <ele>136.6</ele>
        <time>2020-07-02T07:54:48Z</time>
      </trkpt>
      <trkpt lat="48.3721890" lon="1.5074080">
        <ele>136.6</ele>
        <time>2020-07-02T07:54:49Z</time>
      </trkpt>
      <trkpt lat="48.3720140" lon="1.5081490">
        <ele>137.6</ele>
        <time>2020-07-02T07:54:59Z</time>
      </trkpt>
      <trkpt lat="48.3719110" lon="1.5086300">
        <ele>137.8</ele>
        <time>2020-07-02T07:55:06Z</time>
      </trkpt>
      <trkpt lat="48.3718360" lon="1.5089740">
        <ele>138.4</ele>
        <time>2020-07-02T07:55:11Z</time>
      </trkpt>
      <trkpt lat="48.3716700" lon="1.5097400">
        <ele>138.8</ele>
        <time>2020-07-02T07:55:21Z</time>
      </trkpt>
      <trkpt lat="48.3715150" lon="1.5104830">
        <ele>139.2</ele>
        <time>2020-07-02T07:55:31Z</time>
      </trkpt>
      <trkpt lat="48.3714640" lon="1.5107080">
        <ele>139.4</ele>
        <time>2020-07-02T07:55:34Z</time>
      </trkpt>
      <trkpt lat="48.3712660" lon="1.5115250">
        <ele>139.8</ele>
        <time>2020-07-02T07:55:45Z</time>
      </trkpt>
      <trkpt lat="48.3712400" lon="1.5115940">
        <ele>139.6</ele>
        <time>2020-07-02T07:55:46Z</time>
      </trkpt>
      <trkpt lat="48.3712080" lon="1.5116610">
        <ele>139.6</ele>
        <time>2020-07-02T07:55:47Z</time>
      </trkpt>
      <trkpt lat="48.3711700" lon="1.5117250">
        <ele>139.6</ele>
        <time>2020-07-02T07:55:48Z</time>
      </trkpt>
      <trkpt lat="48.3710750" lon="1.5118440">
        <ele>139.6</ele>
        <time>2020-07-02T07:55:50Z</time>
      </trkpt>
      <trkpt lat="48.3710210" lon="1.5118910">
        <ele>139.6</ele>
        <time>2020-07-02T07:55:51Z</time>
      </trkpt>
      <trkpt lat="48.3705470" lon="1.5122470">
        <ele>137.8</ele>
        <time>2020-07-02T07:56:00Z</time>
      </trkpt>
      <trkpt lat="48.3703920" lon="1.5123650">
        <ele>137.6</ele>
        <time>2020-07-02T07:56:03Z</time>
      </trkpt>
      <trkpt lat="48.3699220" lon="1.5127500">
        <ele>137.4</ele>
        <time>2020-07-02T07:56:12Z</time>
      </trkpt>
      <trkpt lat="48.3698220" lon="1.5128400">
        <ele>137.4</ele>
        <time>2020-07-02T07:56:14Z</time>
      </trkpt>
      <trkpt lat="48.3697720" lon="1.5128810">
        <ele>137.4</ele>
        <time>2020-07-02T07:56:15Z</time>
      </trkpt>
      <trkpt lat="48.3697230" lon="1.5129200">
        <ele>137.6</ele>
        <time>2020-07-02T07:56:16Z</time>
      </trkpt>
      <trkpt lat="48.3696750" lon="1.5129590">
        <ele>137.4</ele>
        <time>2020-07-02T07:56:17Z</time>
      </trkpt>
      <trkpt lat="48.3695820" lon="1.5130330">
        <ele>137.4</ele>
        <time>2020-07-02T07:56:19Z</time>
      </trkpt>
      <trkpt lat="48.3693970" lon="1.5131800">
        <ele>137.4</ele>
        <time>2020-07-02T07:56:23Z</time>
      </trkpt>
      <trkpt lat="48.3693530" lon="1.5132160">
        <ele>137.4</ele>
        <time>2020-07-02T07:56:24Z</time>
      </trkpt>
      <trkpt lat="48.3693080" lon="1.5132510">
        <ele>137.6</ele>
        <time>2020-07-02T07:56:25Z</time>
      </trkpt>
      <trkpt lat="48.3690840" lon="1.5134460">
        <ele>137.8</ele>
        <time>2020-07-02T07:56:30Z</time>
      </trkpt>
      <trkpt lat="48.3688050" lon="1.5136940">
        <ele>137.8</ele>
        <time>2020-07-02T07:56:36Z</time>
      </trkpt>
      <trkpt lat="48.3685800" lon="1.5138750">
        <ele>137.2</ele>
        <time>2020-07-02T07:56:41Z</time>
      </trkpt>
      <trkpt lat="48.3685330" lon="1.5139120">
        <ele>137.2</ele>
        <time>2020-07-02T07:56:42Z</time>
      </trkpt>
      <trkpt lat="48.3684840" lon="1.5139510">
        <ele>137.2</ele>
        <time>2020-07-02T07:56:43Z</time>
      </trkpt>
      <trkpt lat="48.3684370" lon="1.5139950">
        <ele>137.0</ele>
        <time>2020-07-02T07:56:44Z</time>
      </trkpt>
      <trkpt lat="48.3681510" lon="1.5143270">
        <ele>136.6</ele>
        <time>2020-07-02T07:56:51Z</time>
      </trkpt>
      <trkpt lat="48.3679200" lon="1.5147380">
        <ele>136.4</ele>
        <time>2020-07-02T07:56:58Z</time>
      </trkpt>
      <trkpt lat="48.3678900" lon="1.5148090">
        <ele>136.4</ele>
        <time>2020-07-02T07:56:59Z</time>
      </trkpt>
      <trkpt lat="48.3677040" lon="1.5152880">
        <ele>136.0</ele>
        <time>2020-07-02T07:57:06Z</time>
      </trkpt>
      <trkpt lat="48.3676540" lon="1.5153980">
        <ele>135.8</ele>
        <time>2020-07-02T07:57:08Z</time>
      </trkpt>
      <trkpt lat="48.3675840" lon="1.5154580">
        <ele>135.4</ele>
        <time>2020-07-02T07:57:10Z</time>
      </trkpt>
      <trkpt lat="48.3675070" lon="1.5154470">
        <ele>135.2</ele>
        <time>2020-07-02T07:57:12Z</time>
      </trkpt>
      <trkpt lat="48.3674170" lon="1.5154100">
        <ele>135.2</ele>
        <time>2020-07-02T07:57:14Z</time>
      </trkpt>
      <trkpt lat="48.3673190" lon="1.5153730">
        <ele>135.0</ele>
        <time>2020-07-02T07:57:16Z</time>
      </trkpt>
      <trkpt lat="48.3671230" lon="1.5152820">
        <ele>134.8</ele>
        <time>2020-07-02T07:57:20Z</time>
      </trkpt>
      <trkpt lat="48.3670740" lon="1.5152560">
        <ele>134.8</ele>
        <time>2020-07-02T07:57:21Z</time>
      </trkpt>
      <trkpt lat="48.3665940" lon="1.5150320">
        <ele>133.2</ele>
        <time>2020-07-02T07:57:30Z</time>
      </trkpt>
      <trkpt lat="48.3663100" lon="1.5147740">
        <ele>132.6</ele>
        <time>2020-07-02T07:57:36Z</time>
      </trkpt>
      <trkpt lat="48.3662630" lon="1.5147270">
        <ele>132.4</ele>
        <time>2020-07-02T07:57:37Z</time>
      </trkpt>
      <trkpt lat="48.3658650" lon="1.5142940">
        <ele>131.6</ele>
        <time>2020-07-02T07:57:46Z</time>
      </trkpt>
      <trkpt lat="48.3654430" lon="1.5139230">
        <ele>131.0</ele>
        <time>2020-07-02T07:57:55Z</time>
      </trkpt>
      <trkpt lat="48.3649630" lon="1.5134510">
        <ele>131.2</ele>
        <time>2020-07-02T07:58:05Z</time>
      </trkpt>
      <trkpt lat="48.3649160" lon="1.5134070">
        <ele>131.4</ele>
        <time>2020-07-02T07:58:06Z</time>
      </trkpt>
      <trkpt lat="48.3648320" lon="1.5133200">
        <ele>131.4</ele>
        <time>2020-07-02T07:58:08Z</time>
      </trkpt>
      <trkpt lat="48.3644820" lon="1.5130080">
        <ele>132.0</ele>
        <time>2020-07-02T07:58:16Z</time>
      </trkpt>
      <trkpt lat="48.3643640" lon="1.5129730">
        <ele>132.0</ele>
        <time>2020-07-02T07:58:18Z</time>
      </trkpt>
      <trkpt lat="48.3641350" lon="1.5129490">
        <ele>132.6</ele>
        <time>2020-07-02T07:58:22Z</time>
      </trkpt>
      <trkpt lat="48.3640780" lon="1.5129520">
        <ele>132.6</ele>
        <time>2020-07-02T07:58:23Z</time>
      </trkpt>
      <trkpt lat="48.3636980" lon="1.5130290">
        <ele>133.2</ele>
        <time>2020-07-02T07:58:30Z</time>
      </trkpt>
      <trkpt lat="48.3636470" lon="1.5130440">
        <ele>133.4</ele>
        <time>2020-07-02T07:58:31Z</time>
      </trkpt>
      <trkpt lat="48.3631920" lon="1.5130600">
        <ele>134.8</ele>
        <time>2020-07-02T07:58:40Z</time>
      </trkpt>
      <trkpt lat="48.3628870" lon="1.5129850">
        <ele>135.0</ele>
        <time>2020-07-02T07:58:46Z</time>
      </trkpt>
      <trkpt lat="48.3627410" lon="1.5129210">
        <ele>134.8</ele>
        <time>2020-07-02T07:58:49Z</time>
      </trkpt>
      <trkpt lat="48.3622840" lon="1.5126680">
        <ele>134.8</ele>
        <time>2020-07-02T07:58:58Z</time>
      </trkpt>
      <trkpt lat="48.3618380" lon="1.5122800">
        <ele>134.8</ele>
        <time>2020-07-02T07:59:07Z</time>
      </trkpt>
      <trkpt lat="48.3617460" lon="1.5121730">
        <ele>134.6</ele>
        <time>2020-07-02T07:59:09Z</time>
      </trkpt>
      <trkpt lat="48.3614820" lon="1.5117890">
        <ele>134.0</ele>
        <time>2020-07-02T07:59:15Z</time>
      </trkpt>
      <trkpt lat="48.3614410" lon="1.5117190">
        <ele>134.0</ele>
        <time>2020-07-02T07:59:16Z</time>
      </trkpt>
      <trkpt lat="48.3611120" lon="1.5110890">
        <ele>132.4</ele>
        <time>2020-07-02T07:59:25Z</time>
      </trkpt>
      <trkpt lat="48.3607750" lon="1.5104070">
        <ele>132.2</ele>
        <time>2020-07-02T07:59:35Z</time>
      </trkpt>
      <trkpt lat="48.3607070" lon="1.5102850">
        <ele>132.4</ele>
        <time>2020-07-02T07:59:37Z</time>
      </trkpt>
      <trkpt lat="48.3606730" lon="1.5102250">
        <ele>132.4</ele>
        <time>2020-07-02T07:59:38Z</time>
      </trkpt>
      <trkpt lat="48.3603370" lon="1.5095860">
        <ele>132.6</ele>
        <time>2020-07-02T07:59:49Z</time>
      </trkpt>
      <trkpt lat="48.3601890" lon="1.5093310">
        <ele>133.0</ele>
        <time>2020-07-02T07:59:54Z</time>
      </trkpt>
      <trkpt lat="48.3599640" lon="1.5089760">
        <ele>133.6</ele>
        <time>2020-07-02T08:00:01Z</time>
      </trkpt>
      <trkpt lat="48.3599280" lon="1.5089270">
        <ele>133.8</ele>
        <time>2020-07-02T08:00:02Z</time>
      </trkpt>
      <trkpt lat="48.3596620" lon="1.5086340">
        <ele>134.8</ele>
        <time>2020-07-02T08:00:09Z</time>
      </trkpt>
      <trkpt lat="48.3593130" lon="1.5085210">
        <ele>135.2</ele>
        <time>2020-07-02T08:00:16Z</time>
      </trkpt>
      <trkpt lat="48.3592570" lon="1.5085270">
        <ele>135.4</ele>
        <time>2020-07-02T08:00:17Z</time>
      </trkpt>
      <trkpt lat="48.3589010" lon="1.5085810">
        <ele>135.4</ele>
        <time>2020-07-02T08:00:23Z</time>
      </trkpt>
      <trkpt lat="48.3583400" lon="1.5085690">
        <ele>135.0</ele>
        <time>2020-07-02T08:00:33Z</time>
      </trkpt>
      <trkpt lat="48.3582870" lon="1.5085630">
        <ele>134.8</ele>
        <time>2020-07-02T08:00:34Z</time>
      </trkpt>
      <trkpt lat="48.3579250" lon="1.5084220">
        <ele>134.4</ele>
        <time>2020-07-02T08:00:41Z</time>
      </trkpt>
      <trkpt lat="48.3575330" lon="1.5081280">
        <ele>133.8</ele>
        <time>2020-07-02T08:00:49Z</time>
      </trkpt>
      <trkpt lat="48.3570490" lon="1.5077140">
        <ele>133.6</ele>
        <time>2020-07-02T08:00:59Z</time>
      </trkpt>
      <trkpt lat="48.3567040" lon="1.5074090">
        <ele>133.6</ele>
        <time>2020-07-02T08:01:06Z</time>
      </trkpt>
      <trkpt lat="48.3563810" lon="1.5070850">
        <ele>133.4</ele>
        <time>2020-07-02T08:01:13Z</time>
      </trkpt>
      <trkpt lat="48.3562130" lon="1.5068820">
        <ele>133.4</ele>
        <time>2020-07-02T08:01:17Z</time>
      </trkpt>
      <trkpt lat="48.3560130" lon="1.5066280">
        <ele>133.4</ele>
        <time>2020-07-02T08:01:22Z</time>
      </trkpt>
      <trkpt lat="48.3557030" lon="1.5062130">
        <ele>133.4</ele>
        <time>2020-07-02T08:01:30Z</time>
      </trkpt>
      <trkpt lat="48.3552720" lon="1.5056380">
        <ele>134.0</ele>
        <time>2020-07-02T08:01:42Z</time>
      </trkpt>
      <trkpt lat="48.3552390" lon="1.5055890">
        <ele>134.0</ele>
        <time>2020-07-02T08:01:43Z</time>
      </trkpt>
      <trkpt lat="48.3552060" lon="1.5055400">
        <ele>134.0</ele>
        <time>2020-07-02T08:01:44Z</time>
      </trkpt>
      <trkpt lat="48.3548360" lon="1.5049070">
        <ele>134.6</ele>
        <time>2020-07-02T08:01:56Z</time>
      </trkpt>
      <trkpt lat="48.3547800" lon="1.5047990">
        <ele>134.8</ele>
        <time>2020-07-02T08:01:58Z</time>
      </trkpt>
      <trkpt lat="48.3547500" lon="1.5047450">
        <ele>135.0</ele>
        <time>2020-07-02T08:01:59Z</time>
      </trkpt>
      <trkpt lat="48.3544060" lon="1.5041600">
        <ele>135.8</ele>
        <time>2020-07-02T08:02:10Z</time>
      </trkpt>
      <trkpt lat="48.3543100" lon="1.5040090">
        <ele>136.0</ele>
        <time>2020-07-02T08:02:13Z</time>
      </trkpt>
      <trkpt lat="48.3538960" lon="1.5034120">
        <ele>137.0</ele>
        <time>2020-07-02T08:02:25Z</time>
      </trkpt>
      <trkpt lat="48.3537870" lon="1.5032590">
        <ele>136.8</ele>
        <time>2020-07-02T08:02:28Z</time>
      </trkpt>
      <trkpt lat="48.3535970" lon="1.5030050">
        <ele>136.8</ele>
        <time>2020-07-02T08:02:33Z</time>
      </trkpt>
      <trkpt lat="48.3534120" lon="1.5027570">
        <ele>136.6</ele>
        <time>2020-07-02T08:02:38Z</time>
      </trkpt>
      <trkpt lat="48.3533000" lon="1.5026030">
        <ele>136.6</ele>
        <time>2020-07-02T08:02:41Z</time>
      </trkpt>
      <trkpt lat="48.3528810" lon="1.5020180">
        <ele>136.6</ele>
        <time>2020-07-02T08:02:52Z</time>
      </trkpt>
      <trkpt lat="48.3527350" lon="1.5018100">
        <ele>136.6</ele>
        <time>2020-07-02T08:02:56Z</time>
      </trkpt>
      <trkpt lat="48.3526250" lon="1.5016580">
        <ele>136.6</ele>
        <time>2020-07-02T08:02:59Z</time>
      </trkpt>
      <trkpt lat="48.3522030" lon="1.5010780">
        <ele>136.2</ele>
        <time>2020-07-02T08:03:11Z</time>
      </trkpt>
      <trkpt lat="48.3517680" lon="1.5005030">
        <ele>136.4</ele>
        <time>2020-07-02T08:03:23Z</time>
      </trkpt>
      <trkpt lat="48.3516990" lon="1.5004000">
        <ele>136.8</ele>
        <time>2020-07-02T08:03:25Z</time>
      </trkpt>
      <trkpt lat="48.3515940" lon="1.5002500">
        <ele>136.8</ele>
        <time>2020-07-02T08:03:28Z</time>
      </trkpt>
      <trkpt lat="48.3512500" lon="1.4997650">
        <ele>137.2</ele>
        <time>2020-07-02T08:03:38Z</time>
      </trkpt>
      <trkpt lat="48.3508410" lon="1.4992000">
        <ele>137.4</ele>
        <time>2020-07-02T08:03:50Z</time>
      </trkpt>
      <trkpt lat="48.3507310" lon="1.4990550">
        <ele>137.4</ele>
        <time>2020-07-02T08:03:53Z</time>
      </trkpt>
      <trkpt lat="48.3503090" lon="1.4984940">
        <ele>138.0</ele>
        <time>2020-07-02T08:04:05Z</time>
      </trkpt>
      <trkpt lat="48.3502110" lon="1.4983560">
        <ele>138.0</ele>
        <time>2020-07-02T08:04:08Z</time>
      </trkpt>
      <trkpt lat="48.3501150" lon="1.4982280">
        <ele>138.2</ele>
        <time>2020-07-02T08:04:11Z</time>
      </trkpt>
      <trkpt lat="48.3500850" lon="1.4981910">
        <ele>138.2</ele>
        <time>2020-07-02T08:04:12Z</time>
      </trkpt>
      <trkpt lat="48.3500560" lon="1.4981540">
        <ele>138.2</ele>
        <time>2020-07-02T08:04:13Z</time>
      </trkpt>
      <trkpt lat="48.3500240" lon="1.4981150">
        <ele>138.2</ele>
        <time>2020-07-02T08:04:14Z</time>
      </trkpt>
      <trkpt lat="48.3499360" lon="1.4979870">
        <ele>138.4</ele>
        <time>2020-07-02T08:04:17Z</time>
      </trkpt>
      <trkpt lat="48.3499060" lon="1.4979460">
        <ele>138.6</ele>
        <time>2020-07-02T08:04:18Z</time>
      </trkpt>
      <trkpt lat="48.3498500" lon="1.4978590">
        <ele>138.6</ele>
        <time>2020-07-02T08:04:20Z</time>
      </trkpt>
      <trkpt lat="48.3497940" lon="1.4977700">
        <ele>138.8</ele>
        <time>2020-07-02T08:04:22Z</time>
      </trkpt>
      <trkpt lat="48.3497670" lon="1.4977250">
        <ele>139.2</ele>
        <time>2020-07-02T08:04:23Z</time>
      </trkpt>
      <trkpt lat="48.3497400" lon="1.4976790">
        <ele>139.2</ele>
        <time>2020-07-02T08:04:24Z</time>
      </trkpt>
      <trkpt lat="48.3496610" lon="1.4975320">
        <ele>139.6</ele>
        <time>2020-07-02T08:04:27Z</time>
      </trkpt>
      <trkpt lat="48.3494710" lon="1.4970380">
        <ele>140.0</ele>
        <time>2020-07-02T08:04:36Z</time>
      </trkpt>
      <trkpt lat="48.3494350" lon="1.4969270">
        <ele>139.8</ele>
        <time>2020-07-02T08:04:38Z</time>
      </trkpt>
      <trkpt lat="48.3494220" lon="1.4968080">
        <ele>139.8</ele>
        <time>2020-07-02T08:04:40Z</time>
      </trkpt>
      <trkpt lat="48.3494140" lon="1.4966900">
        <ele>140.0</ele>
        <time>2020-07-02T08:04:42Z</time>
      </trkpt>
      <trkpt lat="48.3494080" lon="1.4966270">
        <ele>139.8</ele>
        <time>2020-07-02T08:04:43Z</time>
      </trkpt>
      <trkpt lat="48.3493530" lon="1.4964630">
        <ele>139.8</ele>
        <time>2020-07-02T08:04:46Z</time>
      </trkpt>
      <trkpt lat="48.3493230" lon="1.4964210">
        <ele>140.0</ele>
        <time>2020-07-02T08:04:47Z</time>
      </trkpt>
      <trkpt lat="48.3491680" lon="1.4963010">
        <ele>140.2</ele>
        <time>2020-07-02T08:04:51Z</time>
      </trkpt>
      <trkpt lat="48.3490920" lon="1.4962370">
        <ele>140.2</ele>
        <time>2020-07-02T08:04:53Z</time>
      </trkpt>
      <trkpt lat="48.3489600" lon="1.4960470">
        <ele>140.2</ele>
        <time>2020-07-02T08:04:57Z</time>
      </trkpt>
      <trkpt lat="48.3486860" lon="1.4954790">
        <ele>140.6</ele>
        <time>2020-07-02T08:05:07Z</time>
      </trkpt>
      <trkpt lat="48.3484450" lon="1.4949370">
        <ele>140.6</ele>
        <time>2020-07-02T08:05:17Z</time>
      </trkpt>
      <trkpt lat="48.3483440" lon="1.4947960">
        <ele>140.6</ele>
        <time>2020-07-02T08:05:20Z</time>
      </trkpt>
      <trkpt lat="48.3482510" lon="1.4947360">
        <ele>140.6</ele>
        <time>2020-07-02T08:05:22Z</time>
      </trkpt>
      <trkpt lat="48.3479140" lon="1.4946670">
        <ele>140.8</ele>
        <time>2020-07-02T08:05:28Z</time>
      </trkpt>
      <trkpt lat="48.3473600" lon="1.4946030">
        <ele>140.8</ele>
        <time>2020-07-02T08:05:38Z</time>
      </trkpt>
      <trkpt lat="48.3472490" lon="1.4945920">
        <ele>140.8</ele>
        <time>2020-07-02T08:05:40Z</time>
      </trkpt>
      <trkpt lat="48.3467490" lon="1.4945220">
        <ele>140.4</ele>
        <time>2020-07-02T08:05:49Z</time>
      </trkpt>
      <trkpt lat="48.3461710" lon="1.4944140">
        <ele>140.4</ele>
        <time>2020-07-02T08:05:59Z</time>
      </trkpt>
      <trkpt lat="48.3459540" lon="1.4943800">
        <ele>140.2</ele>
        <time>2020-07-02T08:06:03Z</time>
      </trkpt>
      <trkpt lat="48.3457960" lon="1.4943600">
        <ele>140.2</ele>
        <time>2020-07-02T08:06:06Z</time>
      </trkpt>
      <trkpt lat="48.3456400" lon="1.4943430">
        <ele>140.0</ele>
        <time>2020-07-02T08:06:09Z</time>
      </trkpt>
      <trkpt lat="48.3454940" lon="1.4943320">
        <ele>140.2</ele>
        <time>2020-07-02T08:06:12Z</time>
      </trkpt>
      <trkpt lat="48.3452670" lon="1.4943120">
        <ele>140.0</ele>
        <time>2020-07-02T08:06:17Z</time>
      </trkpt>
      <trkpt lat="48.3449450" lon="1.4942420">
        <ele>140.4</ele>
        <time>2020-07-02T08:06:25Z</time>
      </trkpt>
      <trkpt lat="48.3446980" lon="1.4941880">
        <ele>141.0</ele>
        <time>2020-07-02T08:06:31Z</time>
      </trkpt>
      <trkpt lat="48.3446110" lon="1.4941800">
        <ele>141.0</ele>
        <time>2020-07-02T08:06:33Z</time>
      </trkpt>
      <trkpt lat="48.3443290" lon="1.4941320">
        <ele>141.2</ele>
        <time>2020-07-02T08:06:40Z</time>
      </trkpt>
      <trkpt lat="48.3442860" lon="1.4941190">
        <ele>141.4</ele>
        <time>2020-07-02T08:06:41Z</time>
      </trkpt>
      <trkpt lat="48.3439760" lon="1.4940580">
        <ele>141.6</ele>
        <time>2020-07-02T08:06:48Z</time>
      </trkpt>
      <trkpt lat="48.3438850" lon="1.4940070">
        <ele>141.6</ele>
        <time>2020-07-02T08:06:50Z</time>
      </trkpt>
      <trkpt lat="48.3438420" lon="1.4939920">
        <ele>141.8</ele>
        <time>2020-07-02T08:06:51Z</time>
      </trkpt>
      <trkpt lat="48.3437980" lon="1.4939880">
        <ele>141.8</ele>
        <time>2020-07-02T08:06:52Z</time>
      </trkpt>
      <trkpt lat="48.3436330" lon="1.4939590">
        <ele>142.0</ele>
        <time>2020-07-02T08:06:56Z</time>
      </trkpt>
      <trkpt lat="48.3435090" lon="1.4939690">
        <ele>142.2</ele>
        <time>2020-07-02T08:06:59Z</time>
      </trkpt>
      <trkpt lat="48.3434230" lon="1.4939590">
        <ele>142.2</ele>
        <time>2020-07-02T08:07:01Z</time>
      </trkpt>
      <trkpt lat="48.3433400" lon="1.4939590">
        <ele>142.2</ele>
        <time>2020-07-02T08:07:03Z</time>
      </trkpt>
      <trkpt lat="48.3430140" lon="1.4938520">
        <ele>142.6</ele>
        <time>2020-07-02T08:07:10Z</time>
      </trkpt>
      <trkpt lat="48.3425850" lon="1.4937440">
        <ele>143.2</ele>
        <time>2020-07-02T08:07:19Z</time>
      </trkpt>
      <trkpt lat="48.3423920" lon="1.4937270">
        <ele>143.2</ele>
        <time>2020-07-02T08:07:23Z</time>
      </trkpt>
      <trkpt lat="48.3422660" lon="1.4937040">
        <ele>143.2</ele>
        <time>2020-07-02T08:07:26Z</time>
      </trkpt>
      <trkpt lat="48.3419520" lon="1.4936500">
        <ele>143.8</ele>
        <time>2020-07-02T08:07:34Z</time>
      </trkpt>
      <trkpt lat="48.3419150" lon="1.4936420">
        <ele>144.0</ele>
        <time>2020-07-02T08:07:35Z</time>
      </trkpt>
      <trkpt lat="48.3416080" lon="1.4936080">
        <ele>145.2</ele>
        <time>2020-07-02T08:07:43Z</time>
      </trkpt>
      <trkpt lat="48.3414840" lon="1.4935990">
        <ele>145.6</ele>
        <time>2020-07-02T08:07:46Z</time>
      </trkpt>
      <trkpt lat="48.3413600" lon="1.4935760">
        <ele>146.0</ele>
        <time>2020-07-02T08:07:49Z</time>
      </trkpt>
      <trkpt lat="48.3413160" lon="1.4935590">
        <ele>146.0</ele>
        <time>2020-07-02T08:07:50Z</time>
      </trkpt>
      <trkpt lat="48.3411200" lon="1.4934970">
        <ele>146.4</ele>
        <time>2020-07-02T08:07:55Z</time>
      </trkpt>
      <trkpt lat="48.3410800" lon="1.4934880">
        <ele>146.6</ele>
        <time>2020-07-02T08:07:56Z</time>
      </trkpt>
      <trkpt lat="48.3406690" lon="1.4933140">
        <ele>147.6</ele>
        <time>2020-07-02T08:08:06Z</time>
      </trkpt>
      <trkpt lat="48.3405900" lon="1.4932790">
        <ele>147.8</ele>
        <time>2020-07-02T08:08:08Z</time>
      </trkpt>
      <trkpt lat="48.3402440" lon="1.4932090">
        <ele>148.8</ele>
        <time>2020-07-02T08:08:17Z</time>
      </trkpt>
      <trkpt lat="48.3399350" lon="1.4932950">
        <ele>149.8</ele>
        <time>2020-07-02T08:08:25Z</time>
      </trkpt>
      <trkpt lat="48.3394990" lon="1.4935610">
        <ele>151.0</ele>
        <time>2020-07-02T08:08:36Z</time>
      </trkpt>
      <trkpt lat="48.3391880" lon="1.4937720">
        <ele>151.2</ele>
        <time>2020-07-02T08:08:43Z</time>
      </trkpt>
      <trkpt lat="48.3390530" lon="1.4938500">
        <ele>151.0</ele>
        <time>2020-07-02T08:08:46Z</time>
      </trkpt>
      <trkpt lat="48.3385100" lon="1.4941640">
        <ele>150.4</ele>
        <time>2020-07-02T08:08:58Z</time>
      </trkpt>
      <trkpt lat="48.3384590" lon="1.4941890">
        <ele>150.4</ele>
        <time>2020-07-02T08:08:59Z</time>
      </trkpt>
      <trkpt lat="48.3384080" lon="1.4942150">
        <ele>150.4</ele>
        <time>2020-07-02T08:09:00Z</time>
      </trkpt>
      <trkpt lat="48.3383530" lon="1.4942430">
        <ele>150.4</ele>
        <time>2020-07-02T08:09:01Z</time>
      </trkpt>
      <trkpt lat="48.3383020" lon="1.4942740">
        <ele>150.2</ele>
        <time>2020-07-02T08:09:02Z</time>
      </trkpt>
      <trkpt lat="48.3382500" lon="1.4943040">
        <ele>150.2</ele>
        <time>2020-07-02T08:09:03Z</time>
      </trkpt>
      <trkpt lat="48.3379420" lon="1.4944980">
        <ele>150.2</ele>
        <time>2020-07-02T08:09:09Z</time>
      </trkpt>
      <trkpt lat="48.3377340" lon="1.4946260">
        <ele>149.8</ele>
        <time>2020-07-02T08:09:13Z</time>
      </trkpt>
      <trkpt lat="48.3373510" lon="1.4948600">
        <ele>149.4</ele>
        <time>2020-07-02T08:09:20Z</time>
      </trkpt>
      <trkpt lat="48.3370250" lon="1.4950500">
        <ele>149.2</ele>
        <time>2020-07-02T08:09:26Z</time>
      </trkpt>
      <trkpt lat="48.3368500" lon="1.4951550">
        <ele>149.0</ele>
        <time>2020-07-02T08:09:29Z</time>
      </trkpt>
      <trkpt lat="48.3367900" lon="1.4951900">
        <ele>149.0</ele>
        <time>2020-07-02T08:09:30Z</time>
      </trkpt>
      <trkpt lat="48.3367310" lon="1.4952260">
        <ele>149.0</ele>
        <time>2020-07-02T08:09:31Z</time>
      </trkpt>
      <trkpt lat="48.3362140" lon="1.4955460">
        <ele>148.2</ele>
        <time>2020-07-02T08:09:40Z</time>
      </trkpt>
      <trkpt lat="48.3360980" lon="1.4956160">
        <ele>147.8</ele>
        <time>2020-07-02T08:09:42Z</time>
      </trkpt>
      <trkpt lat="48.3360420" lon="1.4956510">
        <ele>147.6</ele>
        <time>2020-07-02T08:09:43Z</time>
      </trkpt>
      <trkpt lat="48.3359890" lon="1.4956860">
        <ele>147.4</ele>
        <time>2020-07-02T08:09:44Z</time>
      </trkpt>
      <trkpt lat="48.3358840" lon="1.4957540">
        <ele>147.4</ele>
        <time>2020-07-02T08:09:46Z</time>
      </trkpt>
      <trkpt lat="48.3357770" lon="1.4958200">
        <ele>147.2</ele>
        <time>2020-07-02T08:09:48Z</time>
      </trkpt>
      <trkpt lat="48.3356140" lon="1.4959190">
        <ele>147.4</ele>
        <time>2020-07-02T08:09:51Z</time>
      </trkpt>
      <trkpt lat="48.3355050" lon="1.4959880">
        <ele>147.0</ele>
        <time>2020-07-02T08:09:53Z</time>
      </trkpt>
      <trkpt lat="48.3354490" lon="1.4960220">
        <ele>147.0</ele>
        <time>2020-07-02T08:09:54Z</time>
      </trkpt>
      <trkpt lat="48.3351070" lon="1.4962300">
        <ele>146.6</ele>
        <time>2020-07-02T08:10:00Z</time>
      </trkpt>
      <trkpt lat="48.3348780" lon="1.4963810">
        <ele>146.4</ele>
        <time>2020-07-02T08:10:04Z</time>
      </trkpt>
      <trkpt lat="48.3345220" lon="1.4966060">
        <ele>146.2</ele>
        <time>2020-07-02T08:10:10Z</time>
      </trkpt>
      <trkpt lat="48.3343020" lon="1.4967460">
        <ele>146.2</ele>
        <time>2020-07-02T08:10:14Z</time>
      </trkpt>
      <trkpt lat="48.3337980" lon="1.4970550">
        <ele>146.4</ele>
        <time>2020-07-02T08:10:23Z</time>
      </trkpt>
      <trkpt lat="48.3335240" lon="1.4972270">
        <ele>146.8</ele>
        <time>2020-07-02T08:10:28Z</time>
      </trkpt>
      <trkpt lat="48.3329750" lon="1.4975580">
        <ele>146.8</ele>
        <time>2020-07-02T08:10:38Z</time>
      </trkpt>
      <trkpt lat="48.3327550" lon="1.4977020">
        <ele>147.0</ele>
        <time>2020-07-02T08:10:42Z</time>
      </trkpt>
      <trkpt lat="48.3324770" lon="1.4978810">
        <ele>146.8</ele>
        <time>2020-07-02T08:10:47Z</time>
      </trkpt>
      <trkpt lat="48.3319770" lon="1.4981870">
        <ele>146.2</ele>
        <time>2020-07-02T08:10:56Z</time>
      </trkpt>
      <trkpt lat="48.3319230" lon="1.4982210">
        <ele>146.2</ele>
        <time>2020-07-02T08:10:57Z</time>
      </trkpt>
      <trkpt lat="48.3316510" lon="1.4983870">
        <ele>145.8</ele>
        <time>2020-07-02T08:11:02Z</time>
      </trkpt>
      <trkpt lat="48.3314880" lon="1.4984920">
        <ele>145.8</ele>
        <time>2020-07-02T08:11:05Z</time>
      </trkpt>
      <trkpt lat="48.3310510" lon="1.4987760">
        <ele>146.2</ele>
        <time>2020-07-02T08:11:13Z</time>
      </trkpt>
      <trkpt lat="48.3309410" lon="1.4988430">
        <ele>146.2</ele>
        <time>2020-07-02T08:11:15Z</time>
      </trkpt>
      <trkpt lat="48.3304240" lon="1.4990890">
        <ele>146.6</ele>
        <time>2020-07-02T08:11:24Z</time>
      </trkpt>
      <trkpt lat="48.3303650" lon="1.4991050">
        <ele>146.6</ele>
        <time>2020-07-02T08:11:25Z</time>
      </trkpt>
      <trkpt lat="48.3298880" lon="1.4991990">
        <ele>147.0</ele>
        <time>2020-07-02T08:11:33Z</time>
      </trkpt>
      <trkpt lat="48.3297160" lon="1.4992220">
        <ele>147.2</ele>
        <time>2020-07-02T08:11:36Z</time>
      </trkpt>
      <trkpt lat="48.3291300" lon="1.4993190">
        <ele>146.2</ele>
        <time>2020-07-02T08:11:46Z</time>
      </trkpt>
      <trkpt lat="48.3289550" lon="1.4993680">
        <ele>146.0</ele>
        <time>2020-07-02T08:11:49Z</time>
      </trkpt>
      <trkpt lat="48.3285030" lon="1.4994570">
        <ele>145.8</ele>
        <time>2020-07-02T08:11:57Z</time>
      </trkpt>
      <trkpt lat="48.3281150" lon="1.4995180">
        <ele>146.0</ele>
        <time>2020-07-02T08:12:04Z</time>
      </trkpt>
      <trkpt lat="48.3275510" lon="1.4996260">
        <ele>147.2</ele>
        <time>2020-07-02T08:12:14Z</time>
      </trkpt>
      <trkpt lat="48.3271940" lon="1.4997000">
        <ele>147.0</ele>
        <time>2020-07-02T08:12:20Z</time>
      </trkpt>
      <trkpt lat="48.3270760" lon="1.4997250">
        <ele>147.0</ele>
        <time>2020-07-02T08:12:22Z</time>
      </trkpt>
      <trkpt lat="48.3264810" lon="1.4998330">
        <ele>146.4</ele>
        <time>2020-07-02T08:12:32Z</time>
      </trkpt>
      <trkpt lat="48.3262970" lon="1.4998670">
        <ele>146.2</ele>
        <time>2020-07-02T08:12:35Z</time>
      </trkpt>
      <trkpt lat="48.3257420" lon="1.4999640">
        <ele>145.2</ele>
        <time>2020-07-02T08:12:44Z</time>
      </trkpt>
      <trkpt lat="48.3255000" lon="1.5000090">
        <ele>145.2</ele>
        <time>2020-07-02T08:12:48Z</time>
      </trkpt>
      <trkpt lat="48.3251970" lon="1.5000660">
        <ele>145.4</ele>
        <time>2020-07-02T08:12:53Z</time>
      </trkpt>
      <trkpt lat="48.3246480" lon="1.5001710">
        <ele>145.8</ele>
        <time>2020-07-02T08:13:02Z</time>
      </trkpt>
      <trkpt lat="48.3245280" lon="1.5001970">
        <ele>146.2</ele>
        <time>2020-07-02T08:13:04Z</time>
      </trkpt>
      <trkpt lat="48.3241010" lon="1.5002850">
        <ele>145.6</ele>
        <time>2020-07-02T08:13:11Z</time>
      </trkpt>
      <trkpt lat="48.3238570" lon="1.5003340">
        <ele>145.6</ele>
        <time>2020-07-02T08:13:15Z</time>
      </trkpt>
      <trkpt lat="48.3236810" lon="1.5003770">
        <ele>145.4</ele>
        <time>2020-07-02T08:13:18Z</time>
      </trkpt>
      <trkpt lat="48.3232150" lon="1.5004810">
        <ele>145.2</ele>
        <time>2020-07-02T08:13:26Z</time>
      </trkpt>
      <trkpt lat="48.3226360" lon="1.5005960">
        <ele>145.0</ele>
        <time>2020-07-02T08:13:36Z</time>
      </trkpt>
      <trkpt lat="48.3222270" lon="1.5006660">
        <ele>145.0</ele>
        <time>2020-07-02T08:13:43Z</time>
      </trkpt>
      <trkpt lat="48.3220010" lon="1.5007080">
        <ele>145.0</ele>
        <time>2020-07-02T08:13:47Z</time>
      </trkpt>
      <trkpt lat="48.3214450" lon="1.5008190">
        <ele>145.4</ele>
        <time>2020-07-02T08:13:57Z</time>
      </trkpt>
      <trkpt lat="48.3213320" lon="1.5008470">
        <ele>145.4</ele>
        <time>2020-07-02T08:13:59Z</time>
      </trkpt>
      <trkpt lat="48.3211640" lon="1.5008790">
        <ele>145.6</ele>
        <time>2020-07-02T08:14:02Z</time>
      </trkpt>
      <trkpt lat="48.3206670" lon="1.5009780">
        <ele>146.6</ele>
        <time>2020-07-02T08:14:11Z</time>
      </trkpt>
      <trkpt lat="48.3203450" lon="1.5010430">
        <ele>147.2</ele>
        <time>2020-07-02T08:14:17Z</time>
      </trkpt>
      <trkpt lat="48.3198730" lon="1.5011230">
        <ele>147.4</ele>
        <time>2020-07-02T08:14:26Z</time>
      </trkpt>
      <trkpt lat="48.3193000" lon="1.5012570">
        <ele>148.0</ele>
        <time>2020-07-02T08:14:37Z</time>
      </trkpt>
      <trkpt lat="48.3191450" lon="1.5012890">
        <ele>148.2</ele>
        <time>2020-07-02T08:14:40Z</time>
      </trkpt>
      <trkpt lat="48.3185780" lon="1.5014130">
        <ele>148.2</ele>
        <time>2020-07-02T08:14:51Z</time>
      </trkpt>
      <trkpt lat="48.3184790" lon="1.5014330">
        <ele>148.4</ele>
        <time>2020-07-02T08:14:53Z</time>
      </trkpt>
      <trkpt lat="48.3178910" lon="1.5015730">
        <ele>148.8</ele>
        <time>2020-07-02T08:15:04Z</time>
      </trkpt>
      <trkpt lat="48.3178350" lon="1.5015880">
        <ele>148.8</ele>
        <time>2020-07-02T08:15:05Z</time>
      </trkpt>
      <trkpt lat="48.3172760" lon="1.5017320">
        <ele>149.2</ele>
        <time>2020-07-02T08:15:15Z</time>
      </trkpt>
      <trkpt lat="48.3169970" lon="1.5018030">
        <ele>149.0</ele>
        <time>2020-07-02T08:15:20Z</time>
      </trkpt>
      <trkpt lat="48.3164270" lon="1.5019460">
        <ele>148.8</ele>
        <time>2020-07-02T08:15:30Z</time>
      </trkpt>
      <trkpt lat="48.3160400" lon="1.5020370">
        <ele>148.8</ele>
        <time>2020-07-02T08:15:37Z</time>
      </trkpt>
      <trkpt lat="48.3154800" lon="1.5022390">
        <ele>148.6</ele>
        <time>2020-07-02T08:15:47Z</time>
      </trkpt>
      <trkpt lat="48.3153710" lon="1.5022940">
        <ele>148.8</ele>
        <time>2020-07-02T08:15:49Z</time>
      </trkpt>
      <trkpt lat="48.3148380" lon="1.5026490">
        <ele>148.6</ele>
        <time>2020-07-02T08:15:59Z</time>
      </trkpt>
      <trkpt lat="48.3143570" lon="1.5029720">
        <ele>148.6</ele>
        <time>2020-07-02T08:16:08Z</time>
      </trkpt>
      <trkpt lat="48.3142450" lon="1.5030560">
        <ele>148.8</ele>
        <time>2020-07-02T08:16:10Z</time>
      </trkpt>
      <trkpt lat="48.3137350" lon="1.5034220">
        <ele>147.8</ele>
        <time>2020-07-02T08:16:19Z</time>
      </trkpt>
      <trkpt lat="48.3132970" lon="1.5037140">
        <ele>147.4</ele>
        <time>2020-07-02T08:16:27Z</time>
      </trkpt>
      <trkpt lat="48.3127370" lon="1.5040170">
        <ele>147.2</ele>
        <time>2020-07-02T08:16:37Z</time>
      </trkpt>
      <trkpt lat="48.3126220" lon="1.5040720">
        <ele>147.4</ele>
        <time>2020-07-02T08:16:39Z</time>
      </trkpt>
      <trkpt lat="48.3120600" lon="1.5043430">
        <ele>147.6</ele>
        <time>2020-07-02T08:16:49Z</time>
      </trkpt>
      <trkpt lat="48.3118860" lon="1.5044300">
        <ele>147.6</ele>
        <time>2020-07-02T08:16:52Z</time>
      </trkpt>
      <trkpt lat="48.3116500" lon="1.5045490">
        <ele>147.6</ele>
        <time>2020-07-02T08:16:56Z</time>
      </trkpt>
      <trkpt lat="48.3111130" lon="1.5048200">
        <ele>146.6</ele>
        <time>2020-07-02T08:17:05Z</time>
      </trkpt>
      <trkpt lat="48.3110540" lon="1.5048460">
        <ele>146.6</ele>
        <time>2020-07-02T08:17:06Z</time>
      </trkpt>
      <trkpt lat="48.3105340" lon="1.5050950">
        <ele>146.2</ele>
        <time>2020-07-02T08:17:15Z</time>
      </trkpt>
      <trkpt lat="48.3103580" lon="1.5051620">
        <ele>146.0</ele>
        <time>2020-07-02T08:17:18Z</time>
      </trkpt>
      <trkpt lat="48.3102980" lon="1.5051770">
        <ele>146.2</ele>
        <time>2020-07-02T08:17:19Z</time>
      </trkpt>
      <trkpt lat="48.3097190" lon="1.5053330">
        <ele>146.0</ele>
        <time>2020-07-02T08:17:29Z</time>
      </trkpt>
      <trkpt lat="48.3096660" lon="1.5053480">
        <ele>146.0</ele>
        <time>2020-07-02T08:17:30Z</time>
      </trkpt>
      <trkpt lat="48.3092170" lon="1.5055260">
        <ele>146.2</ele>
        <time>2020-07-02T08:17:39Z</time>
      </trkpt>
      <trkpt lat="48.3091690" lon="1.5055490">
        <ele>146.4</ele>
        <time>2020-07-02T08:17:40Z</time>
      </trkpt>
      <trkpt lat="48.3089010" lon="1.5056880">
        <ele>147.0</ele>
        <time>2020-07-02T08:17:46Z</time>
      </trkpt>
      <trkpt lat="48.3088180" lon="1.5057290">
        <ele>147.0</ele>
        <time>2020-07-02T08:17:48Z</time>
      </trkpt>
      <trkpt lat="48.3087310" lon="1.5057590">
        <ele>147.2</ele>
        <time>2020-07-02T08:17:50Z</time>
      </trkpt>
      <trkpt lat="48.3085530" lon="1.5057910">
        <ele>147.6</ele>
        <time>2020-07-02T08:17:54Z</time>
      </trkpt>
      <trkpt lat="48.3085050" lon="1.5057950">
        <ele>147.6</ele>
        <time>2020-07-02T08:17:55Z</time>
      </trkpt>
      <trkpt lat="48.3080800" lon="1.5058660">
        <ele>148.8</ele>
        <time>2020-07-02T08:18:04Z</time>
      </trkpt>
      <trkpt lat="48.3077430" lon="1.5059170">
        <ele>149.4</ele>
        <time>2020-07-02T08:18:11Z</time>
      </trkpt>
      <trkpt lat="48.3071820" lon="1.5060170">
        <ele>149.8</ele>
        <time>2020-07-02T08:18:22Z</time>
      </trkpt>
      <trkpt lat="48.3066710" lon="1.5062080">
        <ele>149.8</ele>
        <time>2020-07-02T08:18:32Z</time>
      </trkpt>
      <trkpt lat="48.3062330" lon="1.5065500">
        <ele>150.0</ele>
        <time>2020-07-02T08:18:41Z</time>
      </trkpt>
      <trkpt lat="48.3061870" lon="1.5065980">
        <ele>150.0</ele>
        <time>2020-07-02T08:18:42Z</time>
      </trkpt>
      <trkpt lat="48.3057650" lon="1.5070900">
        <ele>150.0</ele>
        <time>2020-07-02T08:18:52Z</time>
      </trkpt>
      <trkpt lat="48.3053960" lon="1.5075940">
        <ele>150.4</ele>
        <time>2020-07-02T08:19:01Z</time>
      </trkpt>
      <trkpt lat="48.3049710" lon="1.5082140">
        <ele>150.6</ele>
        <time>2020-07-02T08:19:12Z</time>
      </trkpt>
      <trkpt lat="48.3049310" lon="1.5082750">
        <ele>150.6</ele>
        <time>2020-07-02T08:19:13Z</time>
      </trkpt>
      <trkpt lat="48.3045210" lon="1.5088550">
        <ele>151.2</ele>
        <time>2020-07-02T08:19:23Z</time>
      </trkpt>
      <trkpt lat="48.3043560" lon="1.5090810">
        <ele>151.0</ele>
        <time>2020-07-02T08:19:27Z</time>
      </trkpt>
      <trkpt lat="48.3039480" lon="1.5096510">
        <ele>151.0</ele>
        <time>2020-07-02T08:19:36Z</time>
      </trkpt>
      <trkpt lat="48.3035280" lon="1.5102260">
        <ele>150.4</ele>
        <time>2020-07-02T08:19:44Z</time>
      </trkpt>
      <trkpt lat="48.3032500" lon="1.5106040">
        <ele>150.0</ele>
        <time>2020-07-02T08:19:49Z</time>
      </trkpt>
      <trkpt lat="48.3030640" lon="1.5108240">
        <ele>149.8</ele>
        <time>2020-07-02T08:19:52Z</time>
      </trkpt>
      <trkpt lat="48.3027440" lon="1.5111410">
        <ele>149.6</ele>
        <time>2020-07-02T08:19:57Z</time>
      </trkpt>
      <trkpt lat="48.3024120" lon="1.5114040">
        <ele>148.4</ele>
        <time>2020-07-02T08:20:02Z</time>
      </trkpt>
      <trkpt lat="48.3019520" lon="1.5117620">
        <ele>147.6</ele>
        <time>2020-07-02T08:20:09Z</time>
      </trkpt>
      <trkpt lat="48.3014360" lon="1.5121440">
        <ele>147.0</ele>
        <time>2020-07-02T08:20:17Z</time>
      </trkpt>
      <trkpt lat="48.3010010" lon="1.5124760">
        <ele>146.8</ele>
        <time>2020-07-02T08:20:24Z</time>
      </trkpt>
      <trkpt lat="48.3004600" lon="1.5128780">
        <ele>147.0</ele>
        <time>2020-07-02T08:20:33Z</time>
      </trkpt>
      <trkpt lat="48.3002290" lon="1.5130460">
        <ele>147.0</ele>
        <time>2020-07-02T08:20:37Z</time>
      </trkpt>
      <trkpt lat="48.2997230" lon="1.5134240">
        <ele>147.6</ele>
        <time>2020-07-02T08:20:46Z</time>
      </trkpt>
      <trkpt lat="48.2993210" lon="1.5137250">
        <ele>147.8</ele>
        <time>2020-07-02T08:20:53Z</time>
      </trkpt>
      <trkpt lat="48.2987990" lon="1.5141290">
        <ele>148.0</ele>
        <time>2020-07-02T08:21:02Z</time>
      </trkpt>
      <trkpt lat="48.2986970" lon="1.5142200">
        <ele>148.0</ele>
        <time>2020-07-02T08:21:04Z</time>
      </trkpt>
      <trkpt lat="48.2986490" lon="1.5142670">
        <ele>148.0</ele>
        <time>2020-07-02T08:21:05Z</time>
      </trkpt>
      <trkpt lat="48.2982320" lon="1.5147830">
        <ele>148.6</ele>
        <time>2020-07-02T08:21:14Z</time>
      </trkpt>
      <trkpt lat="48.2979110" lon="1.5153360">
        <ele>148.8</ele>
        <time>2020-07-02T08:21:22Z</time>
      </trkpt>
      <trkpt lat="48.2978240" lon="1.5154890">
        <ele>148.8</ele>
        <time>2020-07-02T08:21:24Z</time>
      </trkpt>
      <trkpt lat="48.2974720" lon="1.5161360">
        <ele>148.2</ele>
        <time>2020-07-02T08:21:32Z</time>
      </trkpt>
      <trkpt lat="48.2973330" lon="1.5163690">
        <ele>148.0</ele>
        <time>2020-07-02T08:21:35Z</time>
      </trkpt>
      <trkpt lat="48.2969640" lon="1.5169990">
        <ele>147.4</ele>
        <time>2020-07-02T08:21:44Z</time>
      </trkpt>
      <trkpt lat="48.2968870" lon="1.5171410">
        <ele>147.4</ele>
        <time>2020-07-02T08:21:46Z</time>
      </trkpt>
      <trkpt lat="48.2966830" lon="1.5174970">
        <ele>147.2</ele>
        <time>2020-07-02T08:21:51Z</time>
      </trkpt>
      <trkpt lat="48.2963840" lon="1.5179490">
        <ele>148.2</ele>
        <time>2020-07-02T08:21:58Z</time>
      </trkpt>
      <trkpt lat="48.2961370" lon="1.5183080">
        <ele>148.6</ele>
        <time>2020-07-02T08:22:04Z</time>
      </trkpt>
      <trkpt lat="48.2960110" lon="1.5184770">
        <ele>149.0</ele>
        <time>2020-07-02T08:22:07Z</time>
      </trkpt>
      <trkpt lat="48.2958840" lon="1.5186420">
        <ele>149.4</ele>
        <time>2020-07-02T08:22:10Z</time>
      </trkpt>
      <trkpt lat="48.2956290" lon="1.5190030">
        <ele>150.0</ele>
        <time>2020-07-02T08:22:16Z</time>
      </trkpt>
      <trkpt lat="48.2952190" lon="1.5195860">
        <ele>150.8</ele>
        <time>2020-07-02T08:22:26Z</time>
      </trkpt>
      <trkpt lat="48.2951780" lon="1.5196440">
        <ele>150.8</ele>
        <time>2020-07-02T08:22:27Z</time>
      </trkpt>
      <trkpt lat="48.2947500" lon="1.5202110">
        <ele>151.2</ele>
        <time>2020-07-02T08:22:37Z</time>
      </trkpt>
      <trkpt lat="48.2945340" lon="1.5205180">
        <ele>151.4</ele>
        <time>2020-07-02T08:22:42Z</time>
      </trkpt>
      <trkpt lat="48.2941080" lon="1.5211090">
        <ele>151.6</ele>
        <time>2020-07-02T08:22:52Z</time>
      </trkpt>
      <trkpt lat="48.2940650" lon="1.5211640">
        <ele>151.4</ele>
        <time>2020-07-02T08:22:53Z</time>
      </trkpt>
      <trkpt lat="48.2938990" lon="1.5213900">
        <ele>151.6</ele>
        <time>2020-07-02T08:22:57Z</time>
      </trkpt>
      <trkpt lat="48.2935890" lon="1.5218060">
        <ele>151.8</ele>
        <time>2020-07-02T08:23:04Z</time>
      </trkpt>
      <trkpt lat="48.2934120" lon="1.5220370">
        <ele>151.8</ele>
        <time>2020-07-02T08:23:08Z</time>
      </trkpt>
      <trkpt lat="48.2929770" lon="1.5226460">
        <ele>151.4</ele>
        <time>2020-07-02T08:23:18Z</time>
      </trkpt>
      <trkpt lat="48.2929280" lon="1.5227120">
        <ele>151.4</ele>
        <time>2020-07-02T08:23:19Z</time>
      </trkpt>
      <trkpt lat="48.2925010" lon="1.5232920">
        <ele>151.2</ele>
        <time>2020-07-02T08:23:28Z</time>
      </trkpt>
      <trkpt lat="48.2924490" lon="1.5233540">
        <ele>151.2</ele>
        <time>2020-07-02T08:23:29Z</time>
      </trkpt>
      <trkpt lat="48.2922360" lon="1.5235740">
        <ele>151.4</ele>
        <time>2020-07-02T08:23:33Z</time>
      </trkpt>
      <trkpt lat="48.2918440" lon="1.5239290">
        <ele>151.0</ele>
        <time>2020-07-02T08:23:40Z</time>
      </trkpt>
      <trkpt lat="48.2913690" lon="1.5243200">
        <ele>149.6</ele>
        <time>2020-07-02T08:23:48Z</time>
      </trkpt>
      <trkpt lat="48.2911940" lon="1.5244690">
        <ele>149.4</ele>
        <time>2020-07-02T08:23:51Z</time>
      </trkpt>
      <trkpt lat="48.2910100" lon="1.5246170">
        <ele>149.2</ele>
        <time>2020-07-02T08:23:54Z</time>
      </trkpt>
      <trkpt lat="48.2908830" lon="1.5247260">
        <ele>149.0</ele>
        <time>2020-07-02T08:23:56Z</time>
      </trkpt>
      <trkpt lat="48.2905750" lon="1.5249810">
        <ele>148.4</ele>
        <time>2020-07-02T08:24:01Z</time>
      </trkpt>
      <trkpt lat="48.2903100" lon="1.5252040">
        <ele>147.6</ele>
        <time>2020-07-02T08:24:05Z</time>
      </trkpt>
      <trkpt lat="48.2901740" lon="1.5253180">
        <ele>147.2</ele>
        <time>2020-07-02T08:24:07Z</time>
      </trkpt>
      <trkpt lat="48.2897030" lon="1.5257160">
        <ele>145.2</ele>
        <time>2020-07-02T08:24:14Z</time>
      </trkpt>
      <trkpt lat="48.2891710" lon="1.5261490">
        <ele>144.2</ele>
        <time>2020-07-02T08:24:22Z</time>
      </trkpt>
      <trkpt lat="48.2886760" lon="1.5265620">
        <ele>143.8</ele>
        <time>2020-07-02T08:24:30Z</time>
      </trkpt>
      <trkpt lat="48.2885000" lon="1.5267180">
        <ele>143.6</ele>
        <time>2020-07-02T08:24:33Z</time>
      </trkpt>
      <trkpt lat="48.2884410" lon="1.5267670">
        <ele>143.8</ele>
        <time>2020-07-02T08:24:34Z</time>
      </trkpt>
      <trkpt lat="48.2879510" lon="1.5271880">
        <ele>144.0</ele>
        <time>2020-07-02T08:24:43Z</time>
      </trkpt>
      <trkpt lat="48.2877990" lon="1.5273250">
        <ele>144.4</ele>
        <time>2020-07-02T08:24:46Z</time>
      </trkpt>
      <trkpt lat="48.2874930" lon="1.5275880">
        <ele>144.6</ele>
        <time>2020-07-02T08:24:52Z</time>
      </trkpt>
      <trkpt lat="48.2869850" lon="1.5280240">
        <ele>145.2</ele>
        <time>2020-07-02T08:25:02Z</time>
      </trkpt>
      <trkpt lat="48.2869340" lon="1.5280670">
        <ele>145.2</ele>
        <time>2020-07-02T08:25:03Z</time>
      </trkpt>
      <trkpt lat="48.2864300" lon="1.5284880">
        <ele>145.2</ele>
        <time>2020-07-02T08:25:13Z</time>
      </trkpt>
      <trkpt lat="48.2861380" lon="1.5287360">
        <ele>145.2</ele>
        <time>2020-07-02T08:25:19Z</time>
      </trkpt>
      <trkpt lat="48.2857180" lon="1.5290800">
        <ele>145.4</ele>
        <time>2020-07-02T08:25:28Z</time>
      </trkpt>
      <trkpt lat="48.2855360" lon="1.5292300">
        <ele>145.6</ele>
        <time>2020-07-02T08:25:32Z</time>
      </trkpt>
      <trkpt lat="48.2853180" lon="1.5294200">
        <ele>146.4</ele>
        <time>2020-07-02T08:25:37Z</time>
      </trkpt>
      <trkpt lat="48.2850990" lon="1.5296200">
        <ele>147.0</ele>
        <time>2020-07-02T08:25:42Z</time>
      </trkpt>
      <trkpt lat="48.2846110" lon="1.5300130">
        <ele>148.2</ele>
        <time>2020-07-02T08:25:53Z</time>
      </trkpt>
      <trkpt lat="48.2845680" lon="1.5300470">
        <ele>148.2</ele>
        <time>2020-07-02T08:25:54Z</time>
      </trkpt>
      <trkpt lat="48.2840780" lon="1.5304610">
        <ele>148.4</ele>
        <time>2020-07-02T08:26:05Z</time>
      </trkpt>
      <trkpt lat="48.2839880" lon="1.5305360">
        <ele>148.4</ele>
        <time>2020-07-02T08:26:07Z</time>
      </trkpt>
      <trkpt lat="48.2834910" lon="1.5309690">
        <ele>148.4</ele>
        <time>2020-07-02T08:26:18Z</time>
      </trkpt>
      <trkpt lat="48.2834450" lon="1.5310070">
        <ele>148.4</ele>
        <time>2020-07-02T08:26:19Z</time>
      </trkpt>
      <trkpt lat="48.2829340" lon="1.5314420">
        <ele>148.4</ele>
        <time>2020-07-02T08:26:30Z</time>
      </trkpt>
      <trkpt lat="48.2827910" lon="1.5315530">
        <ele>148.2</ele>
        <time>2020-07-02T08:26:33Z</time>
      </trkpt>
      <trkpt lat="48.2822850" lon="1.5319900">
        <ele>148.2</ele>
        <time>2020-07-02T08:26:44Z</time>
      </trkpt>
      <trkpt lat="48.2821010" lon="1.5321430">
        <ele>148.2</ele>
        <time>2020-07-02T08:26:48Z</time>
      </trkpt>
      <trkpt lat="48.2818690" lon="1.5323380">
        <ele>148.4</ele>
        <time>2020-07-02T08:26:53Z</time>
      </trkpt>
      <trkpt lat="48.2815070" lon="1.5326400">
        <ele>148.6</ele>
        <time>2020-07-02T08:27:01Z</time>
      </trkpt>
      <trkpt lat="48.2809980" lon="1.5330500">
        <ele>148.8</ele>
        <time>2020-07-02T08:27:12Z</time>
      </trkpt>
      <trkpt lat="48.2809080" lon="1.5331170">
        <ele>149.0</ele>
        <time>2020-07-02T08:27:14Z</time>
      </trkpt>
      <trkpt lat="48.2804470" lon="1.5335060">
        <ele>150.2</ele>
        <time>2020-07-02T08:27:24Z</time>
      </trkpt>
      <trkpt lat="48.2799760" lon="1.5339170">
        <ele>150.4</ele>
        <time>2020-07-02T08:27:34Z</time>
      </trkpt>
      <trkpt lat="48.2797050" lon="1.5341520">
        <ele>150.2</ele>
        <time>2020-07-02T08:27:40Z</time>
      </trkpt>
      <trkpt lat="48.2792150" lon="1.5345630">
        <ele>150.4</ele>
        <time>2020-07-02T08:27:51Z</time>
      </trkpt>
      <trkpt lat="48.2790760" lon="1.5346750">
        <ele>150.6</ele>
        <time>2020-07-02T08:27:54Z</time>
      </trkpt>
      <trkpt lat="48.2788440" lon="1.5348740">
        <ele>150.8</ele>
        <time>2020-07-02T08:27:59Z</time>
      </trkpt>
      <trkpt lat="48.2784700" lon="1.5351900">
        <ele>151.2</ele>
        <time>2020-07-02T08:28:07Z</time>
      </trkpt>
      <trkpt lat="48.2779940" lon="1.5355900">
        <ele>151.8</ele>
        <time>2020-07-02T08:28:17Z</time>
      </trkpt>
      <trkpt lat="48.2777950" lon="1.5357580">
        <ele>151.6</ele>
        <time>2020-07-02T08:28:21Z</time>
      </trkpt>
      <trkpt lat="48.2772830" lon="1.5361820">
        <ele>151.2</ele>
        <time>2020-07-02T08:28:31Z</time>
      </trkpt>
      <trkpt lat="48.2769760" lon="1.5364440">
        <ele>151.0</ele>
        <time>2020-07-02T08:28:37Z</time>
      </trkpt>
      <trkpt lat="48.2764700" lon="1.5368750">
        <ele>150.8</ele>
        <time>2020-07-02T08:28:47Z</time>
      </trkpt>
      <trkpt lat="48.2762700" lon="1.5370430">
        <ele>150.6</ele>
        <time>2020-07-02T08:28:51Z</time>
      </trkpt>
      <trkpt lat="48.2761190" lon="1.5371690">
        <ele>150.6</ele>
        <time>2020-07-02T08:28:54Z</time>
      </trkpt>
      <trkpt lat="48.2755960" lon="1.5376020">
        <ele>150.2</ele>
        <time>2020-07-02T08:29:04Z</time>
      </trkpt>
      <trkpt lat="48.2752840" lon="1.5378680">
        <ele>150.2</ele>
        <time>2020-07-02T08:29:10Z</time>
      </trkpt>
      <trkpt lat="48.2747680" lon="1.5383070">
        <ele>149.8</ele>
        <time>2020-07-02T08:29:20Z</time>
      </trkpt>
      <trkpt lat="48.2745650" lon="1.5384760">
        <ele>150.0</ele>
        <time>2020-07-02T08:29:24Z</time>
      </trkpt>
      <trkpt lat="48.2745150" lon="1.5385190">
        <ele>150.0</ele>
        <time>2020-07-02T08:29:25Z</time>
      </trkpt>
      <trkpt lat="48.2740110" lon="1.5389490">
        <ele>149.8</ele>
        <time>2020-07-02T08:29:35Z</time>
      </trkpt>
      <trkpt lat="48.2738610" lon="1.5390770">
        <ele>149.8</ele>
        <time>2020-07-02T08:29:38Z</time>
      </trkpt>
      <trkpt lat="48.2734520" lon="1.5394190">
        <ele>149.8</ele>
        <time>2020-07-02T08:29:46Z</time>
      </trkpt>
      <trkpt lat="48.2730920" lon="1.5397290">
        <ele>149.6</ele>
        <time>2020-07-02T08:29:53Z</time>
      </trkpt>
      <trkpt lat="48.2727340" lon="1.5400310">
        <ele>149.0</ele>
        <time>2020-07-02T08:30:00Z</time>
      </trkpt>
      <trkpt lat="48.2724990" lon="1.5402250">
        <ele>149.0</ele>
        <time>2020-07-02T08:30:05Z</time>
      </trkpt>
      <trkpt lat="48.2721660" lon="1.5404730">
        <ele>149.6</ele>
        <time>2020-07-02T08:30:13Z</time>
      </trkpt>
      <trkpt lat="48.2720090" lon="1.5406180">
        <ele>149.8</ele>
        <time>2020-07-02T08:30:18Z</time>
      </trkpt>
      <trkpt lat="48.2719330" lon="1.5407410">
        <ele>149.8</ele>
        <time>2020-07-02T08:30:21Z</time>
      </trkpt>
      <trkpt lat="48.2719140" lon="1.5407880">
        <ele>149.8</ele>
        <time>2020-07-02T08:30:22Z</time>
      </trkpt>
      <trkpt lat="48.2718920" lon="1.5408350">
        <ele>149.8</ele>
        <time>2020-07-02T08:30:23Z</time>
      </trkpt>
      <trkpt lat="48.2717590" lon="1.5410470">
        <ele>149.8</ele>
        <time>2020-07-02T08:30:28Z</time>
      </trkpt>
      <trkpt lat="48.2716930" lon="1.5411250">
        <ele>149.8</ele>
        <time>2020-07-02T08:30:30Z</time>
      </trkpt>
      <trkpt lat="48.2716270" lon="1.5412060">
        <ele>149.6</ele>
        <time>2020-07-02T08:30:32Z</time>
      </trkpt>
      <trkpt lat="48.2714560" lon="1.5414160">
        <ele>149.6</ele>
        <time>2020-07-02T08:30:37Z</time>
      </trkpt>
      <trkpt lat="48.2713910" lon="1.5415040">
        <ele>149.4</ele>
        <time>2020-07-02T08:30:39Z</time>
      </trkpt>
      <trkpt lat="48.2713260" lon="1.5415900">
        <ele>149.4</ele>
        <time>2020-07-02T08:30:41Z</time>
      </trkpt>
      <trkpt lat="48.2711040" lon="1.5418730">
        <ele>149.2</ele>
        <time>2020-07-02T08:30:48Z</time>
      </trkpt>
      <trkpt lat="48.2709380" lon="1.5422120">
        <ele>148.8</ele>
        <time>2020-07-02T08:30:54Z</time>
      </trkpt>
      <trkpt lat="48.2708950" lon="1.5423370">
        <ele>148.8</ele>
        <time>2020-07-02T08:30:56Z</time>
      </trkpt>
      <trkpt lat="48.2708420" lon="1.5425470">
        <ele>148.4</ele>
        <time>2020-07-02T08:30:59Z</time>
      </trkpt>
      <trkpt lat="48.2708230" lon="1.5426200">
        <ele>148.4</ele>
        <time>2020-07-02T08:31:00Z</time>
      </trkpt>
      <trkpt lat="48.2707840" lon="1.5427640">
        <ele>148.2</ele>
        <time>2020-07-02T08:31:02Z</time>
      </trkpt>
      <trkpt lat="48.2707620" lon="1.5428380">
        <ele>148.0</ele>
        <time>2020-07-02T08:31:03Z</time>
      </trkpt>
      <trkpt lat="48.2707190" lon="1.5429880">
        <ele>147.8</ele>
        <time>2020-07-02T08:31:05Z</time>
      </trkpt>
      <trkpt lat="48.2706540" lon="1.5432070">
        <ele>147.4</ele>
        <time>2020-07-02T08:31:08Z</time>
      </trkpt>
      <trkpt lat="48.2705940" lon="1.5434040">
        <ele>147.4</ele>
        <time>2020-07-02T08:31:11Z</time>
      </trkpt>
      <trkpt lat="48.2705360" lon="1.5436510">
        <ele>146.8</ele>
        <time>2020-07-02T08:31:15Z</time>
      </trkpt>
      <trkpt lat="48.2705210" lon="1.5439480">
        <ele>146.4</ele>
        <time>2020-07-02T08:31:20Z</time>
      </trkpt>
      <trkpt lat="48.2705100" lon="1.5440060">
        <ele>146.6</ele>
        <time>2020-07-02T08:31:21Z</time>
      </trkpt>
      <trkpt lat="48.2704620" lon="1.5441890">
        <ele>146.4</ele>
        <time>2020-07-02T08:31:24Z</time>
      </trkpt>
      <trkpt lat="48.2704420" lon="1.5442520">
        <ele>146.4</ele>
        <time>2020-07-02T08:31:25Z</time>
      </trkpt>
      <trkpt lat="48.2704150" lon="1.5443080">
        <ele>146.4</ele>
        <time>2020-07-02T08:31:26Z</time>
      </trkpt>
      <trkpt lat="48.2703820" lon="1.5443580">
        <ele>146.4</ele>
        <time>2020-07-02T08:31:27Z</time>
      </trkpt>
      <trkpt lat="48.2703070" lon="1.5444370">
        <ele>146.2</ele>
        <time>2020-07-02T08:31:29Z</time>
      </trkpt>
      <trkpt lat="48.2702230" lon="1.5444990">
        <ele>146.2</ele>
        <time>2020-07-02T08:31:31Z</time>
      </trkpt>
      <trkpt lat="48.2699660" lon="1.5447730">
        <ele>145.4</ele>
        <time>2020-07-02T08:31:38Z</time>
      </trkpt>
      <trkpt lat="48.2697600" lon="1.5452010">
        <ele>145.0</ele>
        <time>2020-07-02T08:31:45Z</time>
      </trkpt>
      <trkpt lat="48.2697290" lon="1.5452570">
        <ele>145.0</ele>
        <time>2020-07-02T08:31:46Z</time>
      </trkpt>
      <trkpt lat="48.2694220" lon="1.5457850">
        <ele>145.0</ele>
        <time>2020-07-02T08:31:56Z</time>
      </trkpt>
      <trkpt lat="48.2693930" lon="1.5458390">
        <ele>145.0</ele>
        <time>2020-07-02T08:31:57Z</time>
      </trkpt>
      <trkpt lat="48.2691580" lon="1.5462580">
        <ele>144.8</ele>
        <time>2020-07-02T08:32:04Z</time>
      </trkpt>
      <trkpt lat="48.2690130" lon="1.5465080">
        <ele>144.8</ele>
        <time>2020-07-02T08:32:08Z</time>
      </trkpt>
      <trkpt lat="48.2688360" lon="1.5468080">
        <ele>144.8</ele>
        <time>2020-07-02T08:32:13Z</time>
      </trkpt>
      <trkpt lat="48.2686670" lon="1.5470490">
        <ele>144.6</ele>
        <time>2020-07-02T08:32:19Z</time>
      </trkpt>
      <trkpt lat="48.2685860" lon="1.5471920">
        <ele>144.6</ele>
        <time>2020-07-02T08:32:22Z</time>
      </trkpt>
      <trkpt lat="48.2684580" lon="1.5474000">
        <ele>144.4</ele>
        <time>2020-07-02T08:32:26Z</time>
      </trkpt>
      <trkpt lat="48.2683870" lon="1.5475200">
        <ele>144.4</ele>
        <time>2020-07-02T08:32:28Z</time>
      </trkpt>
      <trkpt lat="48.2681520" lon="1.5479200">
        <ele>143.4</ele>
        <time>2020-07-02T08:32:34Z</time>
      </trkpt>
      <trkpt lat="48.2677840" lon="1.5485400">
        <ele>142.6</ele>
        <time>2020-07-02T08:32:43Z</time>
      </trkpt>
      <trkpt lat="48.2677420" lon="1.5486110">
        <ele>142.4</ele>
        <time>2020-07-02T08:32:44Z</time>
      </trkpt>
      <trkpt lat="48.2673610" lon="1.5492610">
        <ele>142.4</ele>
        <time>2020-07-02T08:32:53Z</time>
      </trkpt>
      <trkpt lat="48.2672370" lon="1.5494730">
        <ele>142.6</ele>
        <time>2020-07-02T08:32:56Z</time>
      </trkpt>
      <trkpt lat="48.2670040" lon="1.5498820">
        <ele>142.6</ele>
        <time>2020-07-02T08:33:02Z</time>
      </trkpt>
      <trkpt lat="48.2668130" lon="1.5501960">
        <ele>143.0</ele>
        <time>2020-07-02T08:33:07Z</time>
      </trkpt>
      <trkpt lat="48.2665160" lon="1.5507510">
        <ele>143.6</ele>
        <time>2020-07-02T08:33:16Z</time>
      </trkpt>
      <trkpt lat="48.2664450" lon="1.5508630">
        <ele>143.8</ele>
        <time>2020-07-02T08:33:18Z</time>
      </trkpt>
      <trkpt lat="48.2661400" lon="1.5512560">
        <ele>144.2</ele>
        <time>2020-07-02T08:33:26Z</time>
      </trkpt>
      <trkpt lat="48.2658140" lon="1.5517980">
        <ele>144.4</ele>
        <time>2020-07-02T08:33:35Z</time>
      </trkpt>
      <trkpt lat="48.2654400" lon="1.5524600">
        <ele>144.2</ele>
        <time>2020-07-02T08:33:45Z</time>
      </trkpt>
      <trkpt lat="48.2650660" lon="1.5531110">
        <ele>143.8</ele>
        <time>2020-07-02T08:33:55Z</time>
      </trkpt>
      <trkpt lat="48.2649490" lon="1.5533010">
        <ele>143.8</ele>
        <time>2020-07-02T08:33:58Z</time>
      </trkpt>
      <trkpt lat="48.2649110" lon="1.5533660">
        <ele>143.8</ele>
        <time>2020-07-02T08:33:59Z</time>
      </trkpt>
      <trkpt lat="48.2645640" lon="1.5539570">
        <ele>143.4</ele>
        <time>2020-07-02T08:34:08Z</time>
      </trkpt>
      <trkpt lat="48.2644080" lon="1.5542210">
        <ele>143.2</ele>
        <time>2020-07-02T08:34:12Z</time>
      </trkpt>
      <trkpt lat="48.2642070" lon="1.5545620">
        <ele>142.8</ele>
        <time>2020-07-02T08:34:17Z</time>
      </trkpt>
      <trkpt lat="48.2639170" lon="1.5550420">
        <ele>142.0</ele>
        <time>2020-07-02T08:34:24Z</time>
      </trkpt>
      <trkpt lat="48.2636680" lon="1.5554690">
        <ele>141.6</ele>
        <time>2020-07-02T08:34:30Z</time>
      </trkpt>
      <trkpt lat="48.2634590" lon="1.5558170">
        <ele>141.2</ele>
        <time>2020-07-02T08:34:35Z</time>
      </trkpt>
      <trkpt lat="48.2631120" lon="1.5563910">
        <ele>140.2</ele>
        <time>2020-07-02T08:34:44Z</time>
      </trkpt>
      <trkpt lat="48.2629710" lon="1.5566140">
        <ele>140.2</ele>
        <time>2020-07-02T08:34:48Z</time>
      </trkpt>
      <trkpt lat="48.2628710" lon="1.5567540">
        <ele>140.2</ele>
        <time>2020-07-02T08:34:51Z</time>
      </trkpt>
      <trkpt lat="48.2627860" lon="1.5568890">
        <ele>140.4</ele>
        <time>2020-07-02T08:34:54Z</time>
      </trkpt>
      <trkpt lat="48.2626690" lon="1.5570600">
        <ele>141.2</ele>
        <time>2020-07-02T08:34:58Z</time>
      </trkpt>
      <trkpt lat="48.2624200" lon="1.5574490">
        <ele>141.8</ele>
        <time>2020-07-02T08:35:05Z</time>
      </trkpt>
      <trkpt lat="48.2620340" lon="1.5580820">
        <ele>142.4</ele>
        <time>2020-07-02T08:35:15Z</time>
      </trkpt>
      <trkpt lat="48.2619950" lon="1.5581480">
        <ele>142.6</ele>
        <time>2020-07-02T08:35:16Z</time>
      </trkpt>
      <trkpt lat="48.2618170" lon="1.5584880">
        <ele>142.6</ele>
        <time>2020-07-02T08:35:21Z</time>
      </trkpt>
      <trkpt lat="48.2617780" lon="1.5585560">
        <ele>142.6</ele>
        <time>2020-07-02T08:35:22Z</time>
      </trkpt>
      <trkpt lat="48.2615290" lon="1.5589730">
        <ele>142.4</ele>
        <time>2020-07-02T08:35:29Z</time>
      </trkpt>
      <trkpt lat="48.2612390" lon="1.5594420">
        <ele>141.6</ele>
        <time>2020-07-02T08:35:37Z</time>
      </trkpt>
      <trkpt lat="48.2609180" lon="1.5599450">
        <ele>141.2</ele>
        <time>2020-07-02T08:35:45Z</time>
      </trkpt>
      <trkpt lat="48.2607430" lon="1.5602030">
        <ele>140.6</ele>
        <time>2020-07-02T08:35:49Z</time>
      </trkpt>
      <trkpt lat="48.2606120" lon="1.5604400">
        <ele>140.4</ele>
        <time>2020-07-02T08:35:52Z</time>
      </trkpt>
      <trkpt lat="48.2605290" lon="1.5605810">
        <ele>140.2</ele>
        <time>2020-07-02T08:35:54Z</time>
      </trkpt>
      <trkpt lat="48.2602130" lon="1.5611200">
        <ele>140.0</ele>
        <time>2020-07-02T08:36:02Z</time>
      </trkpt>
      <trkpt lat="48.2600580" lon="1.5614000">
        <ele>139.6</ele>
        <time>2020-07-02T08:36:06Z</time>
      </trkpt>
      <trkpt lat="48.2598550" lon="1.5617410">
        <ele>139.4</ele>
        <time>2020-07-02T08:36:11Z</time>
      </trkpt>
      <trkpt lat="48.2597670" lon="1.5618850">
        <ele>139.2</ele>
        <time>2020-07-02T08:36:13Z</time>
      </trkpt>
      <trkpt lat="48.2595700" lon="1.5622620">
        <ele>137.6</ele>
        <time>2020-07-02T08:36:18Z</time>
      </trkpt>
      <trkpt lat="48.2594540" lon="1.5624350">
        <ele>137.0</ele>
        <time>2020-07-02T08:36:22Z</time>
      </trkpt>
      <trkpt lat="48.2593170" lon="1.5626550">
        <ele>136.8</ele>
        <time>2020-07-02T08:36:29Z</time>
      </trkpt>
      <trkpt lat="48.2592960" lon="1.5626660">
        <ele>136.8</ele>
        <time>2020-07-02T08:36:30Z</time>
      </trkpt>
      <trkpt lat="48.2592200" lon="1.5626770">
        <ele>136.4</ele>
        <time>2020-07-02T08:36:35Z</time>
      </trkpt>
      <trkpt lat="48.2591820" lon="1.5626970">
        <ele>135.6</ele>
        <time>2020-07-02T08:36:44Z</time>
      </trkpt>
      <trkpt lat="48.2591800" lon="1.5626980">
        <ele>135.4</ele>
        <time>2020-07-02T08:36:45Z</time>
      </trkpt>
      <trkpt lat="48.2591780" lon="1.5626940">
        <ele>135.6</ele>
        <time>2020-07-02T08:36:48Z</time>
      </trkpt>
      <trkpt lat="48.2591700" lon="1.5626590">
        <ele>135.6</ele>
        <time>2020-07-02T08:37:02Z</time>
      </trkpt>
      <trkpt lat="48.2590910" lon="1.5625640">
        <ele>135.2</ele>
        <time>2020-07-02T08:37:17Z</time>
      </trkpt>
      <trkpt lat="48.2590550" lon="1.5625260">
        <ele>134.4</ele>
        <time>2020-07-02T08:37:29Z</time>
      </trkpt>
      <trkpt lat="48.2590560" lon="1.5625270">
        <ele>134.4</ele>
        <time>2020-07-02T08:37:34Z</time>
      </trkpt>
      <trkpt lat="48.2590560" lon="1.5625280">
        <ele>134.4</ele>
        <time>2020-07-02T08:37:35Z</time>
      </trkpt>
      <trkpt lat="48.2590560" lon="1.5625280">
        <ele>134.4</ele>
        <time>2020-07-02T08:37:36Z</time>
      </trkpt>
      <trkpt lat="48.2590570" lon="1.5625290">
        <ele>134.4</ele>
        <time>2020-07-02T08:37:37Z</time>
      </trkpt>
      <trkpt lat="48.2590580" lon="1.5625350">
        <ele>134.2</ele>
        <time>2020-07-02T08:37:51Z</time>
      </trkpt>
      <trkpt lat="48.2590590" lon="1.5625380">
        <ele>134.4</ele>
        <time>2020-07-02T08:38:21Z</time>
      </trkpt>
      <trkpt lat="48.2590570" lon="1.5625390">
        <ele>134.6</ele>
        <time>2020-07-02T08:38:37Z</time>
      </trkpt>
      <trkpt lat="48.2589990" lon="1.5625300">
        <ele>134.6</ele>
        <time>2020-07-02T08:38:49Z</time>
      </trkpt>
      <trkpt lat="48.2589420" lon="1.5625460">
        <ele>134.2</ele>
        <time>2020-07-02T08:39:01Z</time>
      </trkpt>
      <trkpt lat="48.2589450" lon="1.5625490">
        <ele>134.2</ele>
        <time>2020-07-02T08:39:13Z</time>
      </trkpt>
      <trkpt lat="48.2589490" lon="1.5625620">
        <ele>134.0</ele>
        <time>2020-07-02T08:39:37Z</time>
      </trkpt>
      <trkpt lat="48.2589520" lon="1.5625640">
        <ele>134.2</ele>
        <time>2020-07-02T08:39:47Z</time>
      </trkpt>
      <trkpt lat="48.2589550" lon="1.5625660">
        <ele>134.4</ele>
        <time>2020-07-02T08:40:08Z</time>
      </trkpt>
      <trkpt lat="48.2589620" lon="1.5625620">
        <ele>134.2</ele>
        <time>2020-07-02T08:40:25Z</time>
      </trkpt>
      <trkpt lat="48.2589670" lon="1.5625580">
        <ele>134.2</ele>
        <time>2020-07-02T08:40:46Z</time>
      </trkpt>
      <trkpt lat="48.2589690" lon="1.5625620">
        <ele>134.0</ele>
        <time>2020-07-02T08:41:06Z</time>
      </trkpt>
      <trkpt lat="48.2589720" lon="1.5625660">
        <ele>134.0</ele>
        <time>2020-07-02T08:41:26Z</time>
      </trkpt>
      <trkpt lat="48.2589740" lon="1.5625670">
        <ele>134.0</ele>
        <time>2020-07-02T08:41:43Z</time>
      </trkpt>
      <trkpt lat="48.2589740" lon="1.5625680">
        <ele>133.8</ele>
        <time>2020-07-02T08:42:15Z</time>
      </trkpt>
      <trkpt lat="48.2589770" lon="1.5625630">
        <ele>133.8</ele>
        <time>2020-07-02T08:42:40Z</time>
      </trkpt>
      <trkpt lat="48.2589730" lon="1.5625670">
        <ele>133.8</ele>
        <time>2020-07-02T08:43:02Z</time>
      </trkpt>
      <trkpt lat="48.2589710" lon="1.5625780">
        <ele>133.8</ele>
        <time>2020-07-02T08:43:28Z</time>
      </trkpt>
      <trkpt lat="48.2589730" lon="1.5625760">
        <ele>133.8</ele>
        <time>2020-07-02T08:43:52Z</time>
      </trkpt>
      <trkpt lat="48.2589750" lon="1.5625820">
        <ele>134.2</ele>
        <time>2020-07-02T08:44:09Z</time>
      </trkpt>
      <trkpt lat="48.2589770" lon="1.5625860">
        <ele>134.2</ele>
        <time>2020-07-02T08:44:29Z</time>
      </trkpt>
      <trkpt lat="48.2589820" lon="1.5625870">
        <ele>134.2</ele>
        <time>2020-07-02T08:44:49Z</time>
      </trkpt>
      <trkpt lat="48.2589890" lon="1.5625960">
        <ele>134.2</ele>
        <time>2020-07-02T08:45:02Z</time>
      </trkpt>
      <trkpt lat="48.2589920" lon="1.5626040">
        <ele>134.2</ele>
        <time>2020-07-02T08:45:20Z</time>
      </trkpt>
      <trkpt lat="48.2590070" lon="1.5626240">
        <ele>134.0</ele>
        <time>2020-07-02T08:45:32Z</time>
      </trkpt>
      <trkpt lat="48.2590140" lon="1.5626270">
        <ele>134.0</ele>
        <time>2020-07-02T08:45:52Z</time>
      </trkpt>
      <trkpt lat="48.2590190" lon="1.5626120">
        <ele>134.0</ele>
        <time>2020-07-02T08:46:16Z</time>
      </trkpt>
      <trkpt lat="48.2590170" lon="1.5626090">
        <ele>134.0</ele>
        <time>2020-07-02T08:46:32Z</time>
      </trkpt>
      <trkpt lat="48.2590140" lon="1.5626060">
        <ele>134.0</ele>
        <time>2020-07-02T08:46:59Z</time>
      </trkpt>
      <trkpt lat="48.2590110" lon="1.5625890">
        <ele>133.8</ele>
        <time>2020-07-02T08:47:16Z</time>
      </trkpt>
      <trkpt lat="48.2590010" lon="1.5625430">
        <ele>133.8</ele>
        <time>2020-07-02T08:47:27Z</time>
      </trkpt>
      <trkpt lat="48.2590110" lon="1.5625400">
        <ele>133.8</ele>
        <time>2020-07-02T08:47:47Z</time>
      </trkpt>
      <trkpt lat="48.2590210" lon="1.5625310">
        <ele>134.0</ele>
        <time>2020-07-02T08:48:07Z</time>
      </trkpt>
      <trkpt lat="48.2590300" lon="1.5625320">
        <ele>134.0</ele>
        <time>2020-07-02T08:48:22Z</time>
      </trkpt>
      <trkpt lat="48.2590230" lon="1.5625380">
        <ele>134.0</ele>
        <time>2020-07-02T08:48:33Z</time>
      </trkpt>
      <trkpt lat="48.2590350" lon="1.5625450">
        <ele>134.2</ele>
        <time>2020-07-02T08:48:51Z</time>
      </trkpt>
      <trkpt lat="48.2590370" lon="1.5625370">
        <ele>133.8</ele>
        <time>2020-07-02T08:49:12Z</time>
      </trkpt>
      <trkpt lat="48.2590640" lon="1.5625130">
        <ele>134.0</ele>
        <time>2020-07-02T08:49:23Z</time>
      </trkpt>
      <trkpt lat="48.2590770" lon="1.5625430">
        <ele>134.2</ele>
        <time>2020-07-02T08:49:31Z</time>
      </trkpt>
      <trkpt lat="48.2591140" lon="1.5625590">
        <ele>134.6</ele>
        <time>2020-07-02T08:49:41Z</time>
      </trkpt>
      <trkpt lat="48.2592210" lon="1.5626280">
        <ele>135.0</ele>
        <time>2020-07-02T08:49:57Z</time>
      </trkpt>
      <trkpt lat="48.2592390" lon="1.5626420">
        <ele>135.2</ele>
        <time>2020-07-02T08:50:00Z</time>
      </trkpt>
      <trkpt lat="48.2592610" lon="1.5627330">
        <ele>135.8</ele>
        <time>2020-07-02T08:50:11Z</time>
      </trkpt>
      <trkpt lat="48.2592600" lon="1.5627360">
        <ele>135.8</ele>
        <time>2020-07-02T08:50:21Z</time>
      </trkpt>
      <trkpt lat="48.2592620" lon="1.5627470">
        <ele>135.8</ele>
        <time>2020-07-02T08:50:42Z</time>
      </trkpt>
      <trkpt lat="48.2592560" lon="1.5628270">
        <ele>135.8</ele>
        <time>2020-07-02T08:50:54Z</time>
      </trkpt>
      <trkpt lat="48.2592500" lon="1.5628480">
        <ele>135.6</ele>
        <time>2020-07-02T08:50:55Z</time>
      </trkpt>
      <trkpt lat="48.2591880" lon="1.5630500">
        <ele>135.6</ele>
        <time>2020-07-02T08:51:02Z</time>
      </trkpt>
      <trkpt lat="48.2590590" lon="1.5633570">
        <ele>135.4</ele>
        <time>2020-07-02T08:51:09Z</time>
      </trkpt>
      <trkpt lat="48.2589260" lon="1.5636600">
        <ele>135.0</ele>
        <time>2020-07-02T08:51:15Z</time>
      </trkpt>
      <trkpt lat="48.2588300" lon="1.5639790">
        <ele>134.4</ele>
        <time>2020-07-02T08:51:21Z</time>
      </trkpt>
      <trkpt lat="48.2587650" lon="1.5642420">
        <ele>134.6</ele>
        <time>2020-07-02T08:51:26Z</time>
      </trkpt>
      <trkpt lat="48.2587100" lon="1.5643980">
        <ele>135.0</ele>
        <time>2020-07-02T08:51:29Z</time>
      </trkpt>
      <trkpt lat="48.2586190" lon="1.5647940">
        <ele>135.2</ele>
        <time>2020-07-02T08:51:36Z</time>
      </trkpt>
      <trkpt lat="48.2585160" lon="1.5652610">
        <ele>135.2</ele>
        <time>2020-07-02T08:51:44Z</time>
      </trkpt>
      <trkpt lat="48.2584570" lon="1.5656430">
        <ele>135.4</ele>
        <time>2020-07-02T08:51:51Z</time>
      </trkpt>
      <trkpt lat="48.2583890" lon="1.5658780">
        <ele>135.6</ele>
        <time>2020-07-02T08:51:58Z</time>
      </trkpt>
      <trkpt lat="48.2584390" lon="1.5661820">
        <ele>135.6</ele>
        <time>2020-07-02T08:52:05Z</time>
      </trkpt>
      <trkpt lat="48.2584260" lon="1.5664790">
        <ele>135.8</ele>
        <time>2020-07-02T08:52:12Z</time>
      </trkpt>
      <trkpt lat="48.2584280" lon="1.5669070">
        <ele>135.8</ele>
        <time>2020-07-02T08:52:20Z</time>
      </trkpt>
      <trkpt lat="48.2583510" lon="1.5672540">
        <ele>136.0</ele>
        <time>2020-07-02T08:52:26Z</time>
      </trkpt>
      <trkpt lat="48.2581850" lon="1.5675180">
        <ele>136.0</ele>
        <time>2020-07-02T08:52:32Z</time>
      </trkpt>
      <trkpt lat="48.2580120" lon="1.5677270">
        <ele>135.6</ele>
        <time>2020-07-02T08:52:37Z</time>
      </trkpt>
      <trkpt lat="48.2579780" lon="1.5677660">
        <ele>135.6</ele>
        <time>2020-07-02T08:52:38Z</time>
      </trkpt>
      <trkpt lat="48.2579440" lon="1.5678020">
        <ele>135.8</ele>
        <time>2020-07-02T08:52:39Z</time>
      </trkpt>
      <trkpt lat="48.2577820" lon="1.5679970">
        <ele>135.4</ele>
        <time>2020-07-02T08:52:44Z</time>
      </trkpt>
      <trkpt lat="48.2576720" lon="1.5680710">
        <ele>134.6</ele>
        <time>2020-07-02T08:52:47Z</time>
      </trkpt>
      <trkpt lat="48.2574210" lon="1.5682470">
        <ele>133.8</ele>
        <time>2020-07-02T08:52:53Z</time>
      </trkpt>
      <trkpt lat="48.2573730" lon="1.5682830">
        <ele>133.8</ele>
        <time>2020-07-02T08:52:54Z</time>
      </trkpt>
      <trkpt lat="48.2570670" lon="1.5685520">
        <ele>133.4</ele>
        <time>2020-07-02T08:53:00Z</time>
      </trkpt>
      <trkpt lat="48.2569700" lon="1.5686440">
        <ele>133.4</ele>
        <time>2020-07-02T08:53:02Z</time>
      </trkpt>
      <trkpt lat="48.2569240" lon="1.5686980">
        <ele>133.4</ele>
        <time>2020-07-02T08:53:03Z</time>
      </trkpt>
      <trkpt lat="48.2567970" lon="1.5688260">
        <ele>132.6</ele>
        <time>2020-07-02T08:53:06Z</time>
      </trkpt>
      <trkpt lat="48.2567500" lon="1.5688700">
        <ele>132.6</ele>
        <time>2020-07-02T08:53:07Z</time>
      </trkpt>
      <trkpt lat="48.2566030" lon="1.5690800">
        <ele>132.0</ele>
        <time>2020-07-02T08:53:11Z</time>
      </trkpt>
      <trkpt lat="48.2563660" lon="1.5694270">
        <ele>131.8</ele>
        <time>2020-07-02T08:53:17Z</time>
      </trkpt>
      <trkpt lat="48.2560780" lon="1.5699120">
        <ele>131.6</ele>
        <time>2020-07-02T08:53:25Z</time>
      </trkpt>
      <trkpt lat="48.2560380" lon="1.5699620">
        <ele>131.6</ele>
        <time>2020-07-02T08:53:26Z</time>
      </trkpt>
      <trkpt lat="48.2559480" lon="1.5700440">
        <ele>131.6</ele>
        <time>2020-07-02T08:53:28Z</time>
      </trkpt>
      <trkpt lat="48.2558960" lon="1.5700750">
        <ele>131.6</ele>
        <time>2020-07-02T08:53:29Z</time>
      </trkpt>
      <trkpt lat="48.2557380" lon="1.5701370">
        <ele>131.6</ele>
        <time>2020-07-02T08:53:32Z</time>
      </trkpt>
      <trkpt lat="48.2555830" lon="1.5701890">
        <ele>131.4</ele>
        <time>2020-07-02T08:53:35Z</time>
      </trkpt>
      <trkpt lat="48.2551030" lon="1.5703100">
        <ele>130.8</ele>
        <time>2020-07-02T08:53:45Z</time>
      </trkpt>
      <trkpt lat="48.2548450" lon="1.5703900">
        <ele>130.6</ele>
        <time>2020-07-02T08:53:50Z</time>
      </trkpt>
      <trkpt lat="48.2545740" lon="1.5704750">
        <ele>130.8</ele>
        <time>2020-07-02T08:53:55Z</time>
      </trkpt>
      <trkpt lat="48.2544240" lon="1.5705270">
        <ele>130.8</ele>
        <time>2020-07-02T08:53:58Z</time>
      </trkpt>
      <trkpt lat="48.2543730" lon="1.5705470">
        <ele>130.8</ele>
        <time>2020-07-02T08:53:59Z</time>
      </trkpt>
      <trkpt lat="48.2543170" lon="1.5705560">
        <ele>131.2</ele>
        <time>2020-07-02T08:54:00Z</time>
      </trkpt>
      <trkpt lat="48.2542670" lon="1.5705570">
        <ele>131.4</ele>
        <time>2020-07-02T08:54:01Z</time>
      </trkpt>
      <trkpt lat="48.2541220" lon="1.5705660">
        <ele>131.6</ele>
        <time>2020-07-02T08:54:04Z</time>
      </trkpt>
      <trkpt lat="48.2539770" lon="1.5705950">
        <ele>131.6</ele>
        <time>2020-07-02T08:54:07Z</time>
      </trkpt>
      <trkpt lat="48.2538370" lon="1.5706510">
        <ele>131.8</ele>
        <time>2020-07-02T08:54:10Z</time>
      </trkpt>
      <trkpt lat="48.2537530" lon="1.5706990">
        <ele>132.0</ele>
        <time>2020-07-02T08:54:12Z</time>
      </trkpt>
      <trkpt lat="48.2537170" lon="1.5707340">
        <ele>132.2</ele>
        <time>2020-07-02T08:54:13Z</time>
      </trkpt>
      <trkpt lat="48.2536870" lon="1.5707780">
        <ele>132.4</ele>
        <time>2020-07-02T08:54:14Z</time>
      </trkpt>
      <trkpt lat="48.2536620" lon="1.5708290">
        <ele>132.6</ele>
        <time>2020-07-02T08:54:15Z</time>
      </trkpt>
      <trkpt lat="48.2536320" lon="1.5710450">
        <ele>133.0</ele>
        <time>2020-07-02T08:54:19Z</time>
      </trkpt>
      <trkpt lat="48.2536480" lon="1.5711080">
        <ele>133.2</ele>
        <time>2020-07-02T08:54:20Z</time>
      </trkpt>
      <trkpt lat="48.2537170" lon="1.5713080">
        <ele>133.2</ele>
        <time>2020-07-02T08:54:23Z</time>
      </trkpt>
      <trkpt lat="48.2539260" lon="1.5716870">
        <ele>134.0</ele>
        <time>2020-07-02T08:54:29Z</time>
      </trkpt>
      <trkpt lat="48.2541390" lon="1.5719490">
        <ele>134.2</ele>
        <time>2020-07-02T08:54:35Z</time>
      </trkpt>
      <trkpt lat="48.2542230" lon="1.5720420">
        <ele>134.2</ele>
        <time>2020-07-02T08:54:39Z</time>
      </trkpt>
      <trkpt lat="48.2542620" lon="1.5720730">
        <ele>134.2</ele>
        <time>2020-07-02T08:54:42Z</time>
      </trkpt>
      <trkpt lat="48.2542800" lon="1.5720470">
        <ele>134.0</ele>
        <time>2020-07-02T08:54:44Z</time>
      </trkpt>
      <trkpt lat="48.2542770" lon="1.5720280">
        <ele>134.0</ele>
        <time>2020-07-02T08:54:45Z</time>
      </trkpt>
      <trkpt lat="48.2542670" lon="1.5720100">
        <ele>134.2</ele>
        <time>2020-07-02T08:54:46Z</time>
      </trkpt>
      <trkpt lat="48.2542330" lon="1.5719780">
        <ele>134.0</ele>
        <time>2020-07-02T08:54:48Z</time>
      </trkpt>
      <trkpt lat="48.2541220" lon="1.5718880">
        <ele>134.0</ele>
        <time>2020-07-02T08:54:53Z</time>
      </trkpt>
      <trkpt lat="48.2540700" lon="1.5718400">
        <ele>133.6</ele>
        <time>2020-07-02T08:54:55Z</time>
      </trkpt>
      <trkpt lat="48.2538840" lon="1.5715700">
        <ele>133.0</ele>
        <time>2020-07-02T08:55:02Z</time>
      </trkpt>
      <trkpt lat="48.2537140" lon="1.5711840">
        <ele>132.4</ele>
        <time>2020-07-02T08:55:10Z</time>
      </trkpt>
      <trkpt lat="48.2535880" lon="1.5708370">
        <ele>132.2</ele>
        <time>2020-07-02T08:55:17Z</time>
      </trkpt>
      <trkpt lat="48.2535260" lon="1.5708040">
        <ele>132.2</ele>
        <time>2020-07-02T08:55:19Z</time>
      </trkpt>
      <trkpt lat="48.2534620" lon="1.5708170">
        <ele>132.4</ele>
        <time>2020-07-02T08:55:21Z</time>
      </trkpt>
      <trkpt lat="48.2534020" lon="1.5708350">
        <ele>132.6</ele>
        <time>2020-07-02T08:55:23Z</time>
      </trkpt>
      <trkpt lat="48.2532030" lon="1.5709030">
        <ele>133.2</ele>
        <time>2020-07-02T08:55:29Z</time>
      </trkpt>
      <trkpt lat="48.2530540" lon="1.5709460">
        <ele>134.4</ele>
        <time>2020-07-02T08:55:33Z</time>
      </trkpt>
      <trkpt lat="48.2527960" lon="1.5710350">
        <ele>135.0</ele>
        <time>2020-07-02T08:55:40Z</time>
      </trkpt>
      <trkpt lat="48.2524630" lon="1.5711420">
        <ele>136.4</ele>
        <time>2020-07-02T08:55:49Z</time>
      </trkpt>
      <trkpt lat="48.2523570" lon="1.5711910">
        <ele>136.8</ele>
        <time>2020-07-02T08:55:52Z</time>
      </trkpt>
      <trkpt lat="48.2519790" lon="1.5714540">
        <ele>138.0</ele>
        <time>2020-07-02T08:56:02Z</time>
      </trkpt>
      <trkpt lat="48.2515480" lon="1.5717780">
        <ele>138.2</ele>
        <time>2020-07-02T08:56:12Z</time>
      </trkpt>
      <trkpt lat="48.2510370" lon="1.5721460">
        <ele>137.2</ele>
        <time>2020-07-02T08:56:22Z</time>
      </trkpt>
      <trkpt lat="48.2509330" lon="1.5722200">
        <ele>136.6</ele>
        <time>2020-07-02T08:56:24Z</time>
      </trkpt>
      <trkpt lat="48.2507300" lon="1.5723600">
        <ele>136.4</ele>
        <time>2020-07-02T08:56:28Z</time>
      </trkpt>
      <trkpt lat="48.2504350" lon="1.5725650">
        <ele>136.0</ele>
        <time>2020-07-02T08:56:34Z</time>
      </trkpt>
      <trkpt lat="48.2498910" lon="1.5729120">
        <ele>135.8</ele>
        <time>2020-07-02T08:56:45Z</time>
      </trkpt>
      <trkpt lat="48.2498390" lon="1.5729330">
        <ele>135.8</ele>
        <time>2020-07-02T08:56:46Z</time>
      </trkpt>
      <trkpt lat="48.2495090" lon="1.5730260">
        <ele>135.8</ele>
        <time>2020-07-02T08:56:52Z</time>
      </trkpt>
      <trkpt lat="48.2494530" lon="1.5730410">
        <ele>135.8</ele>
        <time>2020-07-02T08:56:53Z</time>
      </trkpt>
      <trkpt lat="48.2492850" lon="1.5730810">
        <ele>135.6</ele>
        <time>2020-07-02T08:56:56Z</time>
      </trkpt>
      <trkpt lat="48.2487450" lon="1.5732200">
        <ele>135.6</ele>
        <time>2020-07-02T08:57:06Z</time>
      </trkpt>
      <trkpt lat="48.2485370" lon="1.5732760">
        <ele>135.6</ele>
        <time>2020-07-02T08:57:10Z</time>
      </trkpt>
      <trkpt lat="48.2479930" lon="1.5734160">
        <ele>135.8</ele>
        <time>2020-07-02T08:57:20Z</time>
      </trkpt>
      <trkpt lat="48.2478820" lon="1.5734440">
        <ele>136.0</ele>
        <time>2020-07-02T08:57:22Z</time>
      </trkpt>
      <trkpt lat="48.2473310" lon="1.5735770">
        <ele>136.0</ele>
        <time>2020-07-02T08:57:32Z</time>
      </trkpt>
      <trkpt lat="48.2471560" lon="1.5736140">
        <ele>136.0</ele>
        <time>2020-07-02T08:57:35Z</time>
      </trkpt>
      <trkpt lat="48.2465690" lon="1.5737320">
        <ele>135.6</ele>
        <time>2020-07-02T08:57:45Z</time>
      </trkpt>
      <trkpt lat="48.2465100" lon="1.5737430">
        <ele>135.4</ele>
        <time>2020-07-02T08:57:46Z</time>
      </trkpt>
      <trkpt lat="48.2464500" lon="1.5737540">
        <ele>135.2</ele>
        <time>2020-07-02T08:57:47Z</time>
      </trkpt>
      <trkpt lat="48.2460260" lon="1.5738330">
        <ele>135.0</ele>
        <time>2020-07-02T08:57:54Z</time>
      </trkpt>
      <trkpt lat="48.2456550" lon="1.5739020">
        <ele>134.0</ele>
        <time>2020-07-02T08:58:00Z</time>
      </trkpt>
      <trkpt lat="48.2450650" lon="1.5740150">
        <ele>133.0</ele>
        <time>2020-07-02T08:58:10Z</time>
      </trkpt>
      <trkpt lat="48.2447080" lon="1.5740910">
        <ele>132.6</ele>
        <time>2020-07-02T08:58:16Z</time>
      </trkpt>
      <trkpt lat="48.2443640" lon="1.5741580">
        <ele>132.8</ele>
        <time>2020-07-02T08:58:22Z</time>
      </trkpt>
      <trkpt lat="48.2439170" lon="1.5742230">
        <ele>133.2</ele>
        <time>2020-07-02T08:58:30Z</time>
      </trkpt>
      <trkpt lat="48.2434430" lon="1.5741920">
        <ele>133.8</ele>
        <time>2020-07-02T08:58:39Z</time>
      </trkpt>
      <trkpt lat="48.2430380" lon="1.5740900">
        <ele>134.0</ele>
        <time>2020-07-02T08:58:47Z</time>
      </trkpt>
      <trkpt lat="48.2427490" lon="1.5739990">
        <ele>134.4</ele>
        <time>2020-07-02T08:58:53Z</time>
      </trkpt>
      <trkpt lat="48.2421770" lon="1.5738390">
        <ele>135.4</ele>
        <time>2020-07-02T08:59:05Z</time>
      </trkpt>
      <trkpt lat="48.2420390" lon="1.5738080">
        <ele>135.4</ele>
        <time>2020-07-02T08:59:08Z</time>
      </trkpt>
      <trkpt lat="48.2417170" lon="1.5737440">
        <ele>135.4</ele>
        <time>2020-07-02T08:59:15Z</time>
      </trkpt>
      <trkpt lat="48.2413870" lon="1.5737100">
        <ele>135.6</ele>
        <time>2020-07-02T08:59:22Z</time>
      </trkpt>
      <trkpt lat="48.2411960" lon="1.5736980">
        <ele>136.0</ele>
        <time>2020-07-02T08:59:26Z</time>
      </trkpt>
      <trkpt lat="48.2408890" lon="1.5736790">
        <ele>137.0</ele>
        <time>2020-07-02T08:59:33Z</time>
      </trkpt>
      <trkpt lat="48.2403010" lon="1.5736750">
        <ele>137.4</ele>
        <time>2020-07-02T08:59:45Z</time>
      </trkpt>
      <trkpt lat="48.2398400" lon="1.5737610">
        <ele>137.6</ele>
        <time>2020-07-02T08:59:54Z</time>
      </trkpt>
      <trkpt lat="48.2395240" lon="1.5740090">
        <ele>137.6</ele>
        <time>2020-07-02T09:00:01Z</time>
      </trkpt>
      <trkpt lat="48.2391570" lon="1.5743480">
        <ele>137.4</ele>
        <time>2020-07-02T09:00:10Z</time>
      </trkpt>
      <trkpt lat="48.2387890" lon="1.5746830">
        <ele>137.2</ele>
        <time>2020-07-02T09:00:19Z</time>
      </trkpt>
      <trkpt lat="48.2387450" lon="1.5747250">
        <ele>137.0</ele>
        <time>2020-07-02T09:00:20Z</time>
      </trkpt>
      <trkpt lat="48.2383760" lon="1.5750590">
        <ele>136.4</ele>
        <time>2020-07-02T09:00:28Z</time>
      </trkpt>
      <trkpt lat="48.2381820" lon="1.5751750">
        <ele>136.2</ele>
        <time>2020-07-02T09:00:32Z</time>
      </trkpt>
      <trkpt lat="48.2380240" lon="1.5752010">
        <ele>136.0</ele>
        <time>2020-07-02T09:00:35Z</time>
      </trkpt>
      <trkpt lat="48.2379150" lon="1.5751870">
        <ele>136.0</ele>
        <time>2020-07-02T09:00:37Z</time>
      </trkpt>
      <trkpt lat="48.2377050" lon="1.5751010">
        <ele>135.8</ele>
        <time>2020-07-02T09:00:41Z</time>
      </trkpt>
      <trkpt lat="48.2372280" lon="1.5748310">
        <ele>135.0</ele>
        <time>2020-07-02T09:00:50Z</time>
      </trkpt>
      <trkpt lat="48.2371200" lon="1.5747700">
        <ele>134.8</ele>
        <time>2020-07-02T09:00:52Z</time>
      </trkpt>
      <trkpt lat="48.2367970" lon="1.5745530">
        <ele>134.4</ele>
        <time>2020-07-02T09:00:58Z</time>
      </trkpt>
      <trkpt lat="48.2366950" lon="1.5744780">
        <ele>134.2</ele>
        <time>2020-07-02T09:01:00Z</time>
      </trkpt>
      <trkpt lat="48.2364220" lon="1.5743430">
        <ele>134.6</ele>
        <time>2020-07-02T09:01:06Z</time>
      </trkpt>
      <trkpt lat="48.2363790" lon="1.5743450">
        <ele>134.4</ele>
        <time>2020-07-02T09:01:07Z</time>
      </trkpt>
      <trkpt lat="48.2363340" lon="1.5743570">
        <ele>134.4</ele>
        <time>2020-07-02T09:01:08Z</time>
      </trkpt>
      <trkpt lat="48.2362500" lon="1.5744010">
        <ele>134.6</ele>
        <time>2020-07-02T09:01:10Z</time>
      </trkpt>
      <trkpt lat="48.2361680" lon="1.5744490">
        <ele>134.8</ele>
        <time>2020-07-02T09:01:12Z</time>
      </trkpt>
      <trkpt lat="48.2358820" lon="1.5745900">
        <ele>135.0</ele>
        <time>2020-07-02T09:01:18Z</time>
      </trkpt>
      <trkpt lat="48.2354700" lon="1.5748220">
        <ele>135.4</ele>
        <time>2020-07-02T09:01:27Z</time>
      </trkpt>
      <trkpt lat="48.2352840" lon="1.5749020">
        <ele>135.4</ele>
        <time>2020-07-02T09:01:31Z</time>
      </trkpt>
      <trkpt lat="48.2352010" lon="1.5749360">
        <ele>135.6</ele>
        <time>2020-07-02T09:01:33Z</time>
      </trkpt>
      <trkpt lat="48.2350810" lon="1.5749910">
        <ele>135.6</ele>
        <time>2020-07-02T09:01:36Z</time>
      </trkpt>
      <trkpt lat="48.2349250" lon="1.5750900">
        <ele>135.6</ele>
        <time>2020-07-02T09:01:40Z</time>
      </trkpt>
      <trkpt lat="48.2348820" lon="1.5751140">
        <ele>135.8</ele>
        <time>2020-07-02T09:01:41Z</time>
      </trkpt>
      <trkpt lat="48.2346750" lon="1.5752560">
        <ele>136.2</ele>
        <time>2020-07-02T09:01:46Z</time>
      </trkpt>
      <trkpt lat="48.2344220" lon="1.5754900">
        <ele>137.2</ele>
        <time>2020-07-02T09:01:53Z</time>
      </trkpt>
      <trkpt lat="48.2343890" lon="1.5755260">
        <ele>137.6</ele>
        <time>2020-07-02T09:01:54Z</time>
      </trkpt>
      <trkpt lat="48.2343570" lon="1.5755630">
        <ele>137.6</ele>
        <time>2020-07-02T09:01:55Z</time>
      </trkpt>
      <trkpt lat="48.2340700" lon="1.5758750">
        <ele>138.2</ele>
        <time>2020-07-02T09:02:03Z</time>
      </trkpt>
      <trkpt lat="48.2337670" lon="1.5762230">
        <ele>138.0</ele>
        <time>2020-07-02T09:02:11Z</time>
      </trkpt>
      <trkpt lat="48.2335740" lon="1.5764580">
        <ele>138.0</ele>
        <time>2020-07-02T09:02:16Z</time>
      </trkpt>
      <trkpt lat="48.2334110" lon="1.5766490">
        <ele>137.6</ele>
        <time>2020-07-02T09:02:20Z</time>
      </trkpt>
      <trkpt lat="48.2331130" lon="1.5770350">
        <ele>137.6</ele>
        <time>2020-07-02T09:02:28Z</time>
      </trkpt>
      <trkpt lat="48.2327430" lon="1.5775440">
        <ele>137.6</ele>
        <time>2020-07-02T09:02:37Z</time>
      </trkpt>
      <trkpt lat="48.2323030" lon="1.5780790">
        <ele>137.2</ele>
        <time>2020-07-02T09:02:46Z</time>
      </trkpt>
      <trkpt lat="48.2322560" lon="1.5781350">
        <ele>137.2</ele>
        <time>2020-07-02T09:02:47Z</time>
      </trkpt>
      <trkpt lat="48.2318920" lon="1.5785690">
        <ele>137.0</ele>
        <time>2020-07-02T09:02:55Z</time>
      </trkpt>
      <trkpt lat="48.2315950" lon="1.5789400">
        <ele>137.2</ele>
        <time>2020-07-02T09:03:02Z</time>
      </trkpt>
      <trkpt lat="48.2312970" lon="1.5793170">
        <ele>138.0</ele>
        <time>2020-07-02T09:03:09Z</time>
      </trkpt>
      <trkpt lat="48.2308810" lon="1.5798340">
        <ele>138.0</ele>
        <time>2020-07-02T09:03:19Z</time>
      </trkpt>
      <trkpt lat="48.2308360" lon="1.5798890">
        <ele>138.0</ele>
        <time>2020-07-02T09:03:20Z</time>
      </trkpt>
      <trkpt lat="48.2304820" lon="1.5803080">
        <ele>137.8</ele>
        <time>2020-07-02T09:03:28Z</time>
      </trkpt>
      <trkpt lat="48.2303030" lon="1.5805310">
        <ele>137.4</ele>
        <time>2020-07-02T09:03:32Z</time>
      </trkpt>
      <trkpt lat="48.2302110" lon="1.5806410">
        <ele>137.2</ele>
        <time>2020-07-02T09:03:34Z</time>
      </trkpt>
      <trkpt lat="48.2299410" lon="1.5809600">
        <ele>136.2</ele>
        <time>2020-07-02T09:03:40Z</time>
      </trkpt>
      <trkpt lat="48.2297290" lon="1.5812090">
        <ele>135.8</ele>
        <time>2020-07-02T09:03:45Z</time>
      </trkpt>
      <trkpt lat="48.2293170" lon="1.5817150">
        <ele>135.8</ele>
        <time>2020-07-02T09:03:55Z</time>
      </trkpt>
      <trkpt lat="48.2288690" lon="1.5822480">
        <ele>135.6</ele>
        <time>2020-07-02T09:04:05Z</time>
      </trkpt>
      <trkpt lat="48.2287810" lon="1.5823530">
        <ele>135.6</ele>
        <time>2020-07-02T09:04:07Z</time>
      </trkpt>
      <trkpt lat="48.2283290" lon="1.5828780">
        <ele>135.8</ele>
        <time>2020-07-02T09:04:17Z</time>
      </trkpt>
      <trkpt lat="48.2281980" lon="1.5830270">
        <ele>135.8</ele>
        <time>2020-07-02T09:04:20Z</time>
      </trkpt>
      <trkpt lat="48.2277340" lon="1.5835590">
        <ele>135.8</ele>
        <time>2020-07-02T09:04:30Z</time>
      </trkpt>
      <trkpt lat="48.2276400" lon="1.5836680">
        <ele>135.8</ele>
        <time>2020-07-02T09:04:32Z</time>
      </trkpt>
      <trkpt lat="48.2272020" lon="1.5841770">
        <ele>135.6</ele>
        <time>2020-07-02T09:04:41Z</time>
      </trkpt>
      <trkpt lat="48.2270980" lon="1.5842900">
        <ele>135.2</ele>
        <time>2020-07-02T09:04:43Z</time>
      </trkpt>
      <trkpt lat="48.2269900" lon="1.5844090">
        <ele>135.2</ele>
        <time>2020-07-02T09:04:45Z</time>
      </trkpt>
      <trkpt lat="48.2268270" lon="1.5845960">
        <ele>135.0</ele>
        <time>2020-07-02T09:04:48Z</time>
      </trkpt>
      <trkpt lat="48.2263580" lon="1.5851560">
        <ele>133.4</ele>
        <time>2020-07-02T09:04:57Z</time>
      </trkpt>
      <trkpt lat="48.2263030" lon="1.5852130">
        <ele>133.2</ele>
        <time>2020-07-02T09:04:58Z</time>
      </trkpt>
      <trkpt lat="48.2258360" lon="1.5857670">
        <ele>131.8</ele>
        <time>2020-07-02T09:05:07Z</time>
      </trkpt>
      <trkpt lat="48.2256900" lon="1.5859540">
        <ele>131.6</ele>
        <time>2020-07-02T09:05:10Z</time>
      </trkpt>
      <trkpt lat="48.2255490" lon="1.5861370">
        <ele>131.4</ele>
        <time>2020-07-02T09:05:13Z</time>
      </trkpt>
      <trkpt lat="48.2254170" lon="1.5863150">
        <ele>131.4</ele>
        <time>2020-07-02T09:05:16Z</time>
      </trkpt>
      <trkpt lat="48.2253340" lon="1.5864260">
        <ele>131.4</ele>
        <time>2020-07-02T09:05:18Z</time>
      </trkpt>
      <trkpt lat="48.2248710" lon="1.5869730">
        <ele>133.0</ele>
        <time>2020-07-02T09:05:29Z</time>
      </trkpt>
      <trkpt lat="48.2248270" lon="1.5870210">
        <ele>133.0</ele>
        <time>2020-07-02T09:05:30Z</time>
      </trkpt>
      <trkpt lat="48.2244090" lon="1.5873980">
        <ele>133.2</ele>
        <time>2020-07-02T09:05:39Z</time>
      </trkpt>
      <trkpt lat="48.2239340" lon="1.5877350">
        <ele>133.4</ele>
        <time>2020-07-02T09:05:49Z</time>
      </trkpt>
      <trkpt lat="48.2237350" lon="1.5878980">
        <ele>133.2</ele>
        <time>2020-07-02T09:05:53Z</time>
      </trkpt>
      <trkpt lat="48.2235190" lon="1.5880350">
        <ele>133.2</ele>
        <time>2020-07-02T09:05:57Z</time>
      </trkpt>
      <trkpt lat="48.2229990" lon="1.5883430">
        <ele>132.0</ele>
        <time>2020-07-02T09:06:07Z</time>
      </trkpt>
      <trkpt lat="48.2228510" lon="1.5884120">
        <ele>131.0</ele>
        <time>2020-07-02T09:06:10Z</time>
      </trkpt>
      <trkpt lat="48.2224520" lon="1.5885840">
        <ele>130.8</ele>
        <time>2020-07-02T09:06:18Z</time>
      </trkpt>
      <trkpt lat="48.2221990" lon="1.5886580">
        <ele>130.8</ele>
        <time>2020-07-02T09:06:23Z</time>
      </trkpt>
      <trkpt lat="48.2216770" lon="1.5887090">
        <ele>131.8</ele>
        <time>2020-07-02T09:06:33Z</time>
      </trkpt>
      <trkpt lat="48.2216230" lon="1.5887140">
        <ele>131.8</ele>
        <time>2020-07-02T09:06:34Z</time>
      </trkpt>
      <trkpt lat="48.2213690" lon="1.5887750">
        <ele>132.0</ele>
        <time>2020-07-02T09:06:39Z</time>
      </trkpt>
      <trkpt lat="48.2210770" lon="1.5888590">
        <ele>132.2</ele>
        <time>2020-07-02T09:06:45Z</time>
      </trkpt>
      <trkpt lat="48.2205390" lon="1.5890030">
        <ele>132.2</ele>
        <time>2020-07-02T09:06:56Z</time>
      </trkpt>
      <trkpt lat="48.2204350" lon="1.5890440">
        <ele>132.2</ele>
        <time>2020-07-02T09:06:58Z</time>
      </trkpt>
      <trkpt lat="48.2201340" lon="1.5892560">
        <ele>131.8</ele>
        <time>2020-07-02T09:07:04Z</time>
      </trkpt>
      <trkpt lat="48.2198410" lon="1.5896670">
        <ele>131.2</ele>
        <time>2020-07-02T09:07:11Z</time>
      </trkpt>
      <trkpt lat="48.2194660" lon="1.5902520">
        <ele>130.4</ele>
        <time>2020-07-02T09:07:21Z</time>
      </trkpt>
      <trkpt lat="48.2194280" lon="1.5903140">
        <ele>130.4</ele>
        <time>2020-07-02T09:07:22Z</time>
      </trkpt>
      <trkpt lat="48.2193890" lon="1.5903750">
        <ele>130.4</ele>
        <time>2020-07-02T09:07:23Z</time>
      </trkpt>
      <trkpt lat="48.2189890" lon="1.5909740">
        <ele>129.6</ele>
        <time>2020-07-02T09:07:33Z</time>
      </trkpt>
      <trkpt lat="48.2188240" lon="1.5911990">
        <ele>129.4</ele>
        <time>2020-07-02T09:07:37Z</time>
      </trkpt>
      <trkpt lat="48.2184150" lon="1.5917650">
        <ele>129.4</ele>
        <time>2020-07-02T09:07:47Z</time>
      </trkpt>
      <trkpt lat="48.2183730" lon="1.5918190">
        <ele>129.4</ele>
        <time>2020-07-02T09:07:48Z</time>
      </trkpt>
      <trkpt lat="48.2179840" lon="1.5923040">
        <ele>129.6</ele>
        <time>2020-07-02T09:07:57Z</time>
      </trkpt>
      <trkpt lat="48.2175790" lon="1.5927960">
        <ele>129.4</ele>
        <time>2020-07-02T09:08:06Z</time>
      </trkpt>
      <trkpt lat="48.2173570" lon="1.5930550">
        <ele>129.2</ele>
        <time>2020-07-02T09:08:11Z</time>
      </trkpt>
      <trkpt lat="48.2172200" lon="1.5932130">
        <ele>129.2</ele>
        <time>2020-07-02T09:08:14Z</time>
      </trkpt>
      <trkpt lat="48.2169120" lon="1.5934500">
        <ele>128.8</ele>
        <time>2020-07-02T09:08:20Z</time>
      </trkpt>
      <trkpt lat="48.2165740" lon="1.5937840">
        <ele>128.4</ele>
        <time>2020-07-02T09:08:27Z</time>
      </trkpt>
      <trkpt lat="48.2162030" lon="1.5941400">
        <ele>128.0</ele>
        <time>2020-07-02T09:08:35Z</time>
      </trkpt>
      <trkpt lat="48.2157490" lon="1.5945020">
        <ele>129.0</ele>
        <time>2020-07-02T09:08:46Z</time>
      </trkpt>
      <trkpt lat="48.2156630" lon="1.5945630">
        <ele>129.2</ele>
        <time>2020-07-02T09:08:48Z</time>
      </trkpt>
      <trkpt lat="48.2152440" lon="1.5948910">
        <ele>129.8</ele>
        <time>2020-07-02T09:08:58Z</time>
      </trkpt>
      <trkpt lat="48.2150560" lon="1.5950360">
        <ele>130.4</ele>
        <time>2020-07-02T09:09:03Z</time>
      </trkpt>
      <trkpt lat="48.2148710" lon="1.5951780">
        <ele>130.6</ele>
        <time>2020-07-02T09:09:08Z</time>
      </trkpt>
      <trkpt lat="48.2144210" lon="1.5954730">
        <ele>132.0</ele>
        <time>2020-07-02T09:09:20Z</time>
      </trkpt>
      <trkpt lat="48.2143780" lon="1.5954810">
        <ele>132.0</ele>
        <time>2020-07-02T09:09:21Z</time>
      </trkpt>
      <trkpt lat="48.2143340" lon="1.5954780">
        <ele>132.0</ele>
        <time>2020-07-02T09:09:22Z</time>
      </trkpt>
      <trkpt lat="48.2142500" lon="1.5954490">
        <ele>132.0</ele>
        <time>2020-07-02T09:09:24Z</time>
      </trkpt>
      <trkpt lat="48.2142090" lon="1.5954170">
        <ele>132.0</ele>
        <time>2020-07-02T09:09:25Z</time>
      </trkpt>
      <trkpt lat="48.2140790" lon="1.5953070">
        <ele>131.8</ele>
        <time>2020-07-02T09:09:28Z</time>
      </trkpt>
      <trkpt lat="48.2138510" lon="1.5950990">
        <ele>131.2</ele>
        <time>2020-07-02T09:09:33Z</time>
      </trkpt>
      <trkpt lat="48.2135130" lon="1.5947860">
        <ele>130.2</ele>
        <time>2020-07-02T09:09:40Z</time>
      </trkpt>
      <trkpt lat="48.2134160" lon="1.5947050">
        <ele>130.0</ele>
        <time>2020-07-02T09:09:42Z</time>
      </trkpt>
      <trkpt lat="48.2133200" lon="1.5946640">
        <ele>130.2</ele>
        <time>2020-07-02T09:09:44Z</time>
      </trkpt>
      <trkpt lat="48.2132710" lon="1.5946550">
        <ele>130.0</ele>
        <time>2020-07-02T09:09:45Z</time>
      </trkpt>
      <trkpt lat="48.2132240" lon="1.5946650">
        <ele>130.0</ele>
        <time>2020-07-02T09:09:46Z</time>
      </trkpt>
      <trkpt lat="48.2130860" lon="1.5947310">
        <ele>130.0</ele>
        <time>2020-07-02T09:09:49Z</time>
      </trkpt>
      <trkpt lat="48.2130050" lon="1.5947990">
        <ele>130.0</ele>
        <time>2020-07-02T09:09:51Z</time>
      </trkpt>
      <trkpt lat="48.2129200" lon="1.5949370">
        <ele>130.2</ele>
        <time>2020-07-02T09:09:54Z</time>
      </trkpt>
      <trkpt lat="48.2128650" lon="1.5950290">
        <ele>130.4</ele>
        <time>2020-07-02T09:09:56Z</time>
      </trkpt>
      <trkpt lat="48.2127820" lon="1.5951940">
        <ele>130.6</ele>
        <time>2020-07-02T09:10:00Z</time>
      </trkpt>
      <trkpt lat="48.2127090" lon="1.5954330">
        <ele>131.2</ele>
        <time>2020-07-02T09:10:06Z</time>
      </trkpt>
      <trkpt lat="48.2126060" lon="1.5957120">
        <ele>132.0</ele>
        <time>2020-07-02T09:10:13Z</time>
      </trkpt>
      <trkpt lat="48.2124910" lon="1.5960020">
        <ele>132.2</ele>
        <time>2020-07-02T09:10:20Z</time>
      </trkpt>
      <trkpt lat="48.2124190" lon="1.5962290">
        <ele>132.4</ele>
        <time>2020-07-02T09:10:25Z</time>
      </trkpt>
      <trkpt lat="48.2123750" lon="1.5964170">
        <ele>132.6</ele>
        <time>2020-07-02T09:10:29Z</time>
      </trkpt>
      <trkpt lat="48.2124030" lon="1.5967070">
        <ele>133.0</ele>
        <time>2020-07-02T09:10:34Z</time>
      </trkpt>
      <trkpt lat="48.2124630" lon="1.5972760">
        <ele>133.8</ele>
        <time>2020-07-02T09:10:43Z</time>
      </trkpt>
      <trkpt lat="48.2124380" lon="1.5973940">
        <ele>133.6</ele>
        <time>2020-07-02T09:10:45Z</time>
      </trkpt>
      <trkpt lat="48.2123990" lon="1.5975080">
        <ele>133.8</ele>
        <time>2020-07-02T09:10:47Z</time>
      </trkpt>
      <trkpt lat="48.2123750" lon="1.5975660">
        <ele>133.6</ele>
        <time>2020-07-02T09:10:48Z</time>
      </trkpt>
      <trkpt lat="48.2122050" lon="1.5980470">
        <ele>133.8</ele>
        <time>2020-07-02T09:10:56Z</time>
      </trkpt>
      <trkpt lat="48.2120910" lon="1.5983290">
        <ele>133.8</ele>
        <time>2020-07-02T09:11:01Z</time>
      </trkpt>
      <trkpt lat="48.2120330" lon="1.5984940">
        <ele>134.0</ele>
        <time>2020-07-02T09:11:04Z</time>
      </trkpt>
      <trkpt lat="48.2120110" lon="1.5985460">
        <ele>134.0</ele>
        <time>2020-07-02T09:11:05Z</time>
      </trkpt>
      <trkpt lat="48.2119340" lon="1.5986970">
        <ele>134.0</ele>
        <time>2020-07-02T09:11:08Z</time>
      </trkpt>
      <trkpt lat="48.2118950" lon="1.5988150">
        <ele>134.2</ele>
        <time>2020-07-02T09:11:10Z</time>
      </trkpt>
      <trkpt lat="48.2118620" lon="1.5989470">
        <ele>134.0</ele>
        <time>2020-07-02T09:11:12Z</time>
      </trkpt>
      <trkpt lat="48.2118580" lon="1.5990290">
        <ele>134.2</ele>
        <time>2020-07-02T09:11:13Z</time>
      </trkpt>
      <trkpt lat="48.2117650" lon="1.5995090">
        <ele>133.4</ele>
        <time>2020-07-02T09:11:20Z</time>
      </trkpt>
      <trkpt lat="48.2117130" lon="1.5997690">
        <ele>133.0</ele>
        <time>2020-07-02T09:11:24Z</time>
      </trkpt>
      <trkpt lat="48.2116410" lon="1.6000280">
        <ele>133.0</ele>
        <time>2020-07-02T09:11:28Z</time>
      </trkpt>
      <trkpt lat="48.2115270" lon="1.6005770">
        <ele>132.8</ele>
        <time>2020-07-02T09:11:36Z</time>
      </trkpt>
      <trkpt lat="48.2114090" lon="1.6009250">
        <ele>132.6</ele>
        <time>2020-07-02T09:11:42Z</time>
      </trkpt>
      <trkpt lat="48.2113690" lon="1.6009690">
        <ele>132.6</ele>
        <time>2020-07-02T09:11:43Z</time>
      </trkpt>
      <trkpt lat="48.2110770" lon="1.6012620">
        <ele>132.4</ele>
        <time>2020-07-02T09:11:50Z</time>
      </trkpt>
      <trkpt lat="48.2108020" lon="1.6015440">
        <ele>132.2</ele>
        <time>2020-07-02T09:11:56Z</time>
      </trkpt>
      <trkpt lat="48.2107550" lon="1.6015930">
        <ele>132.0</ele>
        <time>2020-07-02T09:11:57Z</time>
      </trkpt>
      <trkpt lat="48.2105690" lon="1.6017860">
        <ele>131.8</ele>
        <time>2020-07-02T09:12:01Z</time>
      </trkpt>
      <trkpt lat="48.2103320" lon="1.6020230">
        <ele>131.4</ele>
        <time>2020-07-02T09:12:06Z</time>
      </trkpt>
      <trkpt lat="48.2101910" lon="1.6021550">
        <ele>131.0</ele>
        <time>2020-07-02T09:12:09Z</time>
      </trkpt>
      <trkpt lat="48.2100510" lon="1.6022880">
        <ele>130.4</ele>
        <time>2020-07-02T09:12:12Z</time>
      </trkpt>
      <trkpt lat="48.2099030" lon="1.6024220">
        <ele>130.2</ele>
        <time>2020-07-02T09:12:15Z</time>
      </trkpt>
      <trkpt lat="48.2098010" lon="1.6025110">
        <ele>130.2</ele>
        <time>2020-07-02T09:12:17Z</time>
      </trkpt>
      <trkpt lat="48.2093190" lon="1.6029010">
        <ele>129.2</ele>
        <time>2020-07-02T09:12:26Z</time>
      </trkpt>
      <trkpt lat="48.2092040" lon="1.6029730">
        <ele>128.8</ele>
        <time>2020-07-02T09:12:28Z</time>
      </trkpt>
      <trkpt lat="48.2091480" lon="1.6030030">
        <ele>129.0</ele>
        <time>2020-07-02T09:12:29Z</time>
      </trkpt>
      <trkpt lat="48.2087380" lon="1.6031730">
        <ele>128.4</ele>
        <time>2020-07-02T09:12:36Z</time>
      </trkpt>
      <trkpt lat="48.2084380" lon="1.6033850">
        <ele>128.2</ele>
        <time>2020-07-02T09:12:42Z</time>
      </trkpt>
      <trkpt lat="48.2082990" lon="1.6035240">
        <ele>128.2</ele>
        <time>2020-07-02T09:12:45Z</time>
      </trkpt>
      <trkpt lat="48.2079760" lon="1.6038010">
        <ele>128.2</ele>
        <time>2020-07-02T09:12:52Z</time>
      </trkpt>
      <trkpt lat="48.2075940" lon="1.6039720">
        <ele>129.0</ele>
        <time>2020-07-02T09:13:00Z</time>
      </trkpt>
      <trkpt lat="48.2072940" lon="1.6040590">
        <ele>129.2</ele>
        <time>2020-07-02T09:13:06Z</time>
      </trkpt>
      <trkpt lat="48.2070340" lon="1.6041130">
        <ele>129.4</ele>
        <time>2020-07-02T09:13:11Z</time>
      </trkpt>
      <trkpt lat="48.2069260" lon="1.6041360">
        <ele>129.4</ele>
        <time>2020-07-02T09:13:13Z</time>
      </trkpt>
      <trkpt lat="48.2064500" lon="1.6042450">
        <ele>129.6</ele>
        <time>2020-07-02T09:13:22Z</time>
      </trkpt>
      <trkpt lat="48.2063950" lon="1.6042580">
        <ele>129.6</ele>
        <time>2020-07-02T09:13:23Z</time>
      </trkpt>
      <trkpt lat="48.2061740" lon="1.6043160">
        <ele>129.4</ele>
        <time>2020-07-02T09:13:27Z</time>
      </trkpt>
      <trkpt lat="48.2057270" lon="1.6044370">
        <ele>128.4</ele>
        <time>2020-07-02T09:13:35Z</time>
      </trkpt>
      <trkpt lat="48.2054480" lon="1.6045340">
        <ele>127.8</ele>
        <time>2020-07-02T09:13:40Z</time>
      </trkpt>
      <trkpt lat="48.2050220" lon="1.6047030">
        <ele>127.0</ele>
        <time>2020-07-02T09:13:47Z</time>
      </trkpt>
      <trkpt lat="48.2044690" lon="1.6049130">
        <ele>126.2</ele>
        <time>2020-07-02T09:13:56Z</time>
      </trkpt>
      <trkpt lat="48.2042280" lon="1.6049730">
        <ele>126.0</ele>
        <time>2020-07-02T09:14:00Z</time>
      </trkpt>
      <trkpt lat="48.2036540" lon="1.6050280">
        <ele>125.8</ele>
        <time>2020-07-02T09:14:10Z</time>
      </trkpt>
      <trkpt lat="48.2035950" lon="1.6050290">
        <ele>126.0</ele>
        <time>2020-07-02T09:14:11Z</time>
      </trkpt>
      <trkpt lat="48.2035350" lon="1.6050320">
        <ele>125.8</ele>
        <time>2020-07-02T09:14:12Z</time>
      </trkpt>
      <trkpt lat="48.2031130" lon="1.6050250">
        <ele>125.6</ele>
        <time>2020-07-02T09:14:19Z</time>
      </trkpt>
      <trkpt lat="48.2028790" lon="1.6050010">
        <ele>125.8</ele>
        <time>2020-07-02T09:14:23Z</time>
      </trkpt>
      <trkpt lat="48.2023210" lon="1.6049200">
        <ele>126.2</ele>
        <time>2020-07-02T09:14:33Z</time>
      </trkpt>
      <trkpt lat="48.2022270" lon="1.6048870">
        <ele>126.4</ele>
        <time>2020-07-02T09:14:35Z</time>
      </trkpt>
      <trkpt lat="48.2021830" lon="1.6048600">
        <ele>126.4</ele>
        <time>2020-07-02T09:14:36Z</time>
      </trkpt>
      <trkpt lat="48.2021020" lon="1.6047760">
        <ele>126.4</ele>
        <time>2020-07-02T09:14:38Z</time>
      </trkpt>
      <trkpt lat="48.2020650" lon="1.6047160">
        <ele>126.4</ele>
        <time>2020-07-02T09:14:39Z</time>
      </trkpt>
      <trkpt lat="48.2020270" lon="1.6046450">
        <ele>126.4</ele>
        <time>2020-07-02T09:14:40Z</time>
      </trkpt>
      <trkpt lat="48.2019560" lon="1.6044790">
        <ele>126.4</ele>
        <time>2020-07-02T09:14:42Z</time>
      </trkpt>
      <trkpt lat="48.2019020" lon="1.6043030">
        <ele>126.4</ele>
        <time>2020-07-02T09:14:44Z</time>
      </trkpt>
      <trkpt lat="48.2018100" lon="1.6039580">
        <ele>126.4</ele>
        <time>2020-07-02T09:14:48Z</time>
      </trkpt>
      <trkpt lat="48.2017580" lon="1.6036140">
        <ele>124.8</ele>
        <time>2020-07-02T09:14:52Z</time>
      </trkpt>
      <trkpt lat="48.2017400" lon="1.6033730">
        <ele>124.0</ele>
        <time>2020-07-02T09:14:55Z</time>
      </trkpt>
      <trkpt lat="48.2017050" lon="1.6030150">
        <ele>124.0</ele>
        <time>2020-07-02T09:15:00Z</time>
      </trkpt>
      <trkpt lat="48.2016980" lon="1.6029460">
        <ele>124.0</ele>
        <time>2020-07-02T09:15:01Z</time>
      </trkpt>
      <trkpt lat="48.2016720" lon="1.6025150">
        <ele>124.6</ele>
        <time>2020-07-02T09:15:07Z</time>
      </trkpt>
      <trkpt lat="48.2016640" lon="1.6022910">
        <ele>125.2</ele>
        <time>2020-07-02T09:15:10Z</time>
      </trkpt>
      <trkpt lat="48.2016930" lon="1.6016820">
        <ele>126.2</ele>
        <time>2020-07-02T09:15:19Z</time>
      </trkpt>
      <trkpt lat="48.2017050" lon="1.6015490">
        <ele>126.4</ele>
        <time>2020-07-02T09:15:21Z</time>
      </trkpt>
      <trkpt lat="48.2017120" lon="1.6012030">
        <ele>127.0</ele>
        <time>2020-07-02T09:15:26Z</time>
      </trkpt>
      <trkpt lat="48.2016870" lon="1.6010680">
        <ele>127.0</ele>
        <time>2020-07-02T09:15:28Z</time>
      </trkpt>
      <trkpt lat="48.2015280" lon="1.6006290">
        <ele>127.6</ele>
        <time>2020-07-02T09:15:35Z</time>
      </trkpt>
      <trkpt lat="48.2014950" lon="1.6005680">
        <ele>127.6</ele>
        <time>2020-07-02T09:15:36Z</time>
      </trkpt>
      <trkpt lat="48.2014180" lon="1.6004800">
        <ele>127.6</ele>
        <time>2020-07-02T09:15:38Z</time>
      </trkpt>
      <trkpt lat="48.2013700" lon="1.6004580">
        <ele>127.6</ele>
        <time>2020-07-02T09:15:39Z</time>
      </trkpt>
      <trkpt lat="48.2013210" lon="1.6004440">
        <ele>127.8</ele>
        <time>2020-07-02T09:15:40Z</time>
      </trkpt>
      <trkpt lat="48.2010650" lon="1.6004230">
        <ele>127.8</ele>
        <time>2020-07-02T09:15:45Z</time>
      </trkpt>
      <trkpt lat="48.2006800" lon="1.6003790">
        <ele>127.8</ele>
        <time>2020-07-02T09:15:52Z</time>
      </trkpt>
      <trkpt lat="48.2006250" lon="1.6003760">
        <ele>127.6</ele>
        <time>2020-07-02T09:15:53Z</time>
      </trkpt>
      <trkpt lat="48.2002490" lon="1.6003550">
        <ele>126.6</ele>
        <time>2020-07-02T09:16:00Z</time>
      </trkpt>
      <trkpt lat="48.2001390" lon="1.6003840">
        <ele>126.4</ele>
        <time>2020-07-02T09:16:02Z</time>
      </trkpt>
      <trkpt lat="48.1998340" lon="1.6006000">
        <ele>125.8</ele>
        <time>2020-07-02T09:16:08Z</time>
      </trkpt>
      <trkpt lat="48.1993670" lon="1.6010010">
        <ele>125.0</ele>
        <time>2020-07-02T09:16:18Z</time>
      </trkpt>
      <trkpt lat="48.1992740" lon="1.6010770">
        <ele>125.2</ele>
        <time>2020-07-02T09:16:20Z</time>
      </trkpt>
      <trkpt lat="48.1990340" lon="1.6012790">
        <ele>125.4</ele>
        <time>2020-07-02T09:16:25Z</time>
      </trkpt>
      <trkpt lat="48.1987640" lon="1.6014880">
        <ele>125.2</ele>
        <time>2020-07-02T09:16:30Z</time>
      </trkpt>
      <trkpt lat="48.1985920" lon="1.6016180">
        <ele>125.4</ele>
        <time>2020-07-02T09:16:33Z</time>
      </trkpt>
      <trkpt lat="48.1980700" lon="1.6020270">
        <ele>124.0</ele>
        <time>2020-07-02T09:16:43Z</time>
      </trkpt>
      <trkpt lat="48.1978250" lon="1.6022370">
        <ele>124.2</ele>
        <time>2020-07-02T09:16:48Z</time>
      </trkpt>
      <trkpt lat="48.1976150" lon="1.6024230">
        <ele>124.2</ele>
        <time>2020-07-02T09:16:53Z</time>
      </trkpt>
      <trkpt lat="48.1971370" lon="1.6028220">
        <ele>125.4</ele>
        <time>2020-07-02T09:17:04Z</time>
      </trkpt>
      <trkpt lat="48.1970890" lon="1.6028580">
        <ele>125.4</ele>
        <time>2020-07-02T09:17:05Z</time>
      </trkpt>
      <trkpt lat="48.1966480" lon="1.6031710">
        <ele>125.4</ele>
        <time>2020-07-02T09:17:14Z</time>
      </trkpt>
      <trkpt lat="48.1964890" lon="1.6032820">
        <ele>125.4</ele>
        <time>2020-07-02T09:17:17Z</time>
      </trkpt>
      <trkpt lat="48.1959660" lon="1.6036520">
        <ele>124.2</ele>
        <time>2020-07-02T09:17:27Z</time>
      </trkpt>
      <trkpt lat="48.1958680" lon="1.6037170">
        <ele>124.2</ele>
        <time>2020-07-02T09:17:29Z</time>
      </trkpt>
      <trkpt lat="48.1955490" lon="1.6039140">
        <ele>124.2</ele>
        <time>2020-07-02T09:17:36Z</time>
      </trkpt>
      <trkpt lat="48.1953640" lon="1.6040210">
        <ele>125.0</ele>
        <time>2020-07-02T09:17:40Z</time>
      </trkpt>
      <trkpt lat="48.1949280" lon="1.6042210">
        <ele>126.0</ele>
        <time>2020-07-02T09:17:49Z</time>
      </trkpt>
      <trkpt lat="48.1943750" lon="1.6044790">
        <ele>126.4</ele>
        <time>2020-07-02T09:18:00Z</time>
      </trkpt>
      <trkpt lat="48.1942780" lon="1.6045200">
        <ele>126.0</ele>
        <time>2020-07-02T09:18:02Z</time>
      </trkpt>
      <trkpt lat="48.1939880" lon="1.6046150">
        <ele>125.8</ele>
        <time>2020-07-02T09:18:08Z</time>
      </trkpt>
      <trkpt lat="48.1938360" lon="1.6046570">
        <ele>125.8</ele>
        <time>2020-07-02T09:18:11Z</time>
      </trkpt>
      <trkpt lat="48.1937840" lon="1.6046670">
        <ele>125.6</ele>
        <time>2020-07-02T09:18:12Z</time>
      </trkpt>
      <trkpt lat="48.1937300" lon="1.6046780">
        <ele>125.4</ele>
        <time>2020-07-02T09:18:13Z</time>
      </trkpt>
      <trkpt lat="48.1936740" lon="1.6046890">
        <ele>125.4</ele>
        <time>2020-07-02T09:18:14Z</time>
      </trkpt>
      <trkpt lat="48.1933590" lon="1.6047660">
        <ele>124.8</ele>
        <time>2020-07-02T09:18:19Z</time>
      </trkpt>
      <trkpt lat="48.1932280" lon="1.6048130">
        <ele>124.6</ele>
        <time>2020-07-02T09:18:21Z</time>
      </trkpt>
      <trkpt lat="48.1928000" lon="1.6049690">
        <ele>122.6</ele>
        <time>2020-07-02T09:18:28Z</time>
      </trkpt>
      <trkpt lat="48.1924990" lon="1.6050630">
        <ele>122.2</ele>
        <time>2020-07-02T09:18:34Z</time>
      </trkpt>
      <trkpt lat="48.1923560" lon="1.6050990">
        <ele>122.0</ele>
        <time>2020-07-02T09:18:37Z</time>
      </trkpt>
      <trkpt lat="48.1922670" lon="1.6051260">
        <ele>122.0</ele>
        <time>2020-07-02T09:18:39Z</time>
      </trkpt>
      <trkpt lat="48.1920360" lon="1.6051750">
        <ele>123.0</ele>
        <time>2020-07-02T09:18:45Z</time>
      </trkpt>
      <trkpt lat="48.1918250" lon="1.6052140">
        <ele>125.0</ele>
        <time>2020-07-02T09:18:51Z</time>
      </trkpt>
      <trkpt lat="48.1915810" lon="1.6052670">
        <ele>126.0</ele>
        <time>2020-07-02T09:18:58Z</time>
      </trkpt>
      <trkpt lat="48.1914760" lon="1.6052860">
        <ele>126.6</ele>
        <time>2020-07-02T09:19:01Z</time>
      </trkpt>
      <trkpt lat="48.1909700" lon="1.6053940">
        <ele>127.6</ele>
        <time>2020-07-02T09:19:14Z</time>
      </trkpt>
      <trkpt lat="48.1908370" lon="1.6054240">
        <ele>127.6</ele>
        <time>2020-07-02T09:19:17Z</time>
      </trkpt>
      <trkpt lat="48.1907040" lon="1.6054560">
        <ele>127.6</ele>
        <time>2020-07-02T09:19:20Z</time>
      </trkpt>
      <trkpt lat="48.1903390" lon="1.6055520">
        <ele>127.6</ele>
        <time>2020-07-02T09:19:28Z</time>
      </trkpt>
      <trkpt lat="48.1902910" lon="1.6055680">
        <ele>127.6</ele>
        <time>2020-07-02T09:19:29Z</time>
      </trkpt>
      <trkpt lat="48.1897990" lon="1.6057640">
        <ele>127.2</ele>
        <time>2020-07-02T09:19:39Z</time>
      </trkpt>
      <trkpt lat="48.1892790" lon="1.6060040">
        <ele>126.6</ele>
        <time>2020-07-02T09:19:49Z</time>
      </trkpt>
      <trkpt lat="48.1891730" lon="1.6060540">
        <ele>126.6</ele>
        <time>2020-07-02T09:19:51Z</time>
      </trkpt>
      <trkpt lat="48.1888890" lon="1.6061680">
        <ele>126.4</ele>
        <time>2020-07-02T09:19:56Z</time>
      </trkpt>
      <trkpt lat="48.1885440" lon="1.6062910">
        <ele>125.8</ele>
        <time>2020-07-02T09:20:02Z</time>
      </trkpt>
      <trkpt lat="48.1882640" lon="1.6063860">
        <ele>124.8</ele>
        <time>2020-07-02T09:20:07Z</time>
      </trkpt>
      <trkpt lat="48.1877040" lon="1.6065710">
        <ele>123.8</ele>
        <time>2020-07-02T09:20:17Z</time>
      </trkpt>
      <trkpt lat="48.1875890" lon="1.6066090">
        <ele>123.8</ele>
        <time>2020-07-02T09:20:19Z</time>
      </trkpt>
      <trkpt lat="48.1870380" lon="1.6067950">
        <ele>123.4</ele>
        <time>2020-07-02T09:20:29Z</time>
      </trkpt>
      <trkpt lat="48.1868790" lon="1.6068520">
        <ele>123.4</ele>
        <time>2020-07-02T09:20:32Z</time>
      </trkpt>
      <trkpt lat="48.1866660" lon="1.6069240">
        <ele>123.6</ele>
        <time>2020-07-02T09:20:36Z</time>
      </trkpt>
      <trkpt lat="48.1862690" lon="1.6070970">
        <ele>124.4</ele>
        <time>2020-07-02T09:20:44Z</time>
      </trkpt>
      <trkpt lat="48.1857700" lon="1.6074500">
        <ele>124.8</ele>
        <time>2020-07-02T09:20:55Z</time>
      </trkpt>
      <trkpt lat="48.1854240" lon="1.6078150">
        <ele>125.2</ele>
        <time>2020-07-02T09:21:03Z</time>
      </trkpt>
      <trkpt lat="48.1849430" lon="1.6082660">
        <ele>124.6</ele>
        <time>2020-07-02T09:21:13Z</time>
      </trkpt>
      <trkpt lat="48.1848000" lon="1.6083950">
        <ele>124.6</ele>
        <time>2020-07-02T09:21:16Z</time>
      </trkpt>
      <trkpt lat="48.1845090" lon="1.6086580">
        <ele>124.4</ele>
        <time>2020-07-02T09:21:22Z</time>
      </trkpt>
      <trkpt lat="48.1844100" lon="1.6087450">
        <ele>124.6</ele>
        <time>2020-07-02T09:21:24Z</time>
      </trkpt>
      <trkpt lat="48.1841680" lon="1.6089570">
        <ele>124.8</ele>
        <time>2020-07-02T09:21:29Z</time>
      </trkpt>
      <trkpt lat="48.1840290" lon="1.6090830">
        <ele>125.0</ele>
        <time>2020-07-02T09:21:32Z</time>
      </trkpt>
      <trkpt lat="48.1835940" lon="1.6094590">
        <ele>125.8</ele>
        <time>2020-07-02T09:21:41Z</time>
      </trkpt>
      <trkpt lat="48.1831050" lon="1.6098740">
        <ele>126.0</ele>
        <time>2020-07-02T09:21:51Z</time>
      </trkpt>
      <trkpt lat="48.1829120" lon="1.6100520">
        <ele>125.8</ele>
        <time>2020-07-02T09:21:55Z</time>
      </trkpt>
      <trkpt lat="48.1828610" lon="1.6100980">
        <ele>125.8</ele>
        <time>2020-07-02T09:21:56Z</time>
      </trkpt>
      <trkpt lat="48.1826500" lon="1.6103150">
        <ele>125.6</ele>
        <time>2020-07-02T09:22:00Z</time>
      </trkpt>
      <trkpt lat="48.1825970" lon="1.6103740">
        <ele>125.4</ele>
        <time>2020-07-02T09:22:01Z</time>
      </trkpt>
      <trkpt lat="48.1821620" lon="1.6108740">
        <ele>123.2</ele>
        <time>2020-07-02T09:22:09Z</time>
      </trkpt>
      <trkpt lat="48.1820100" lon="1.6110520">
        <ele>122.8</ele>
        <time>2020-07-02T09:22:12Z</time>
      </trkpt>
      <trkpt lat="48.1818260" lon="1.6112720">
        <ele>122.8</ele>
        <time>2020-07-02T09:22:16Z</time>
      </trkpt>
      <trkpt lat="48.1816600" lon="1.6114580">
        <ele>122.8</ele>
        <time>2020-07-02T09:22:20Z</time>
      </trkpt>
      <trkpt lat="48.1815020" lon="1.6116520">
        <ele>123.6</ele>
        <time>2020-07-02T09:22:24Z</time>
      </trkpt>
      <trkpt lat="48.1813060" lon="1.6118860">
        <ele>124.8</ele>
        <time>2020-07-02T09:22:29Z</time>
      </trkpt>
      <trkpt lat="48.1812690" lon="1.6119280">
        <ele>125.2</ele>
        <time>2020-07-02T09:22:30Z</time>
      </trkpt>
      <trkpt lat="48.1808060" lon="1.6124530">
        <ele>127.2</ele>
        <time>2020-07-02T09:22:42Z</time>
      </trkpt>
      <trkpt lat="48.1807660" lon="1.6125010">
        <ele>127.2</ele>
        <time>2020-07-02T09:22:43Z</time>
      </trkpt>
      <trkpt lat="48.1804210" lon="1.6129030">
        <ele>127.4</ele>
        <time>2020-07-02T09:22:51Z</time>
      </trkpt>
      <trkpt lat="48.1802320" lon="1.6131220">
        <ele>127.2</ele>
        <time>2020-07-02T09:22:55Z</time>
      </trkpt>
      <trkpt lat="48.1798610" lon="1.6136620">
        <ele>126.4</ele>
        <time>2020-07-02T09:23:04Z</time>
      </trkpt>
      <trkpt lat="48.1795840" lon="1.6143550">
        <ele>126.4</ele>
        <time>2020-07-02T09:23:13Z</time>
      </trkpt>
      <trkpt lat="48.1795530" lon="1.6144310">
        <ele>126.6</ele>
        <time>2020-07-02T09:23:14Z</time>
      </trkpt>
      <trkpt lat="48.1792710" lon="1.6151710">
        <ele>127.4</ele>
        <time>2020-07-02T09:23:24Z</time>
      </trkpt>
      <trkpt lat="48.1791540" lon="1.6154550">
        <ele>127.4</ele>
        <time>2020-07-02T09:23:28Z</time>
      </trkpt>
      <trkpt lat="48.1788260" lon="1.6161430">
        <ele>127.8</ele>
        <time>2020-07-02T09:23:38Z</time>
      </trkpt>
      <trkpt lat="48.1787580" lon="1.6162860">
        <ele>127.8</ele>
        <time>2020-07-02T09:23:40Z</time>
      </trkpt>
      <trkpt lat="48.1784260" lon="1.6169390">
        <ele>128.0</ele>
        <time>2020-07-02T09:23:49Z</time>
      </trkpt>
      <trkpt lat="48.1783460" lon="1.6170780">
        <ele>127.8</ele>
        <time>2020-07-02T09:23:51Z</time>
      </trkpt>
      <trkpt lat="48.1782590" lon="1.6172150">
        <ele>127.6</ele>
        <time>2020-07-02T09:23:53Z</time>
      </trkpt>
      <trkpt lat="48.1779630" lon="1.6175730">
        <ele>127.0</ele>
        <time>2020-07-02T09:23:59Z</time>
      </trkpt>
      <trkpt lat="48.1778590" lon="1.6176760">
        <ele>126.4</ele>
        <time>2020-07-02T09:24:01Z</time>
      </trkpt>
      <trkpt lat="48.1774600" lon="1.6179900">
        <ele>125.6</ele>
        <time>2020-07-02T09:24:08Z</time>
      </trkpt>
      <trkpt lat="48.1773390" lon="1.6180840">
        <ele>125.2</ele>
        <time>2020-07-02T09:24:10Z</time>
      </trkpt>
      <trkpt lat="48.1768100" lon="1.6184900">
        <ele>124.4</ele>
        <time>2020-07-02T09:24:19Z</time>
      </trkpt>
      <trkpt lat="48.1767580" lon="1.6185360">
        <ele>124.4</ele>
        <time>2020-07-02T09:24:20Z</time>
      </trkpt>
      <trkpt lat="48.1766090" lon="1.6186800">
        <ele>124.4</ele>
        <time>2020-07-02T09:24:23Z</time>
      </trkpt>
      <trkpt lat="48.1762420" lon="1.6190540">
        <ele>125.0</ele>
        <time>2020-07-02T09:24:31Z</time>
      </trkpt>
      <trkpt lat="48.1761120" lon="1.6191830">
        <ele>125.2</ele>
        <time>2020-07-02T09:24:34Z</time>
      </trkpt>
      <trkpt lat="48.1758130" lon="1.6194860">
        <ele>126.0</ele>
        <time>2020-07-02T09:24:41Z</time>
      </trkpt>
      <trkpt lat="48.1754460" lon="1.6198510">
        <ele>126.0</ele>
        <time>2020-07-02T09:24:49Z</time>
      </trkpt>
      <trkpt lat="48.1753990" lon="1.6198950">
        <ele>126.0</ele>
        <time>2020-07-02T09:24:50Z</time>
      </trkpt>
      <trkpt lat="48.1752550" lon="1.6200240">
        <ele>125.8</ele>
        <time>2020-07-02T09:24:53Z</time>
      </trkpt>
      <trkpt lat="48.1747980" lon="1.6203690">
        <ele>125.0</ele>
        <time>2020-07-02T09:25:02Z</time>
      </trkpt>
      <trkpt lat="48.1745440" lon="1.6205720">
        <ele>124.8</ele>
        <time>2020-07-02T09:25:07Z</time>
      </trkpt>
      <trkpt lat="48.1743120" lon="1.6207940">
        <ele>124.8</ele>
        <time>2020-07-02T09:25:12Z</time>
      </trkpt>
      <trkpt lat="48.1739280" lon="1.6212080">
        <ele>125.6</ele>
        <time>2020-07-02T09:25:21Z</time>
      </trkpt>
      <trkpt lat="48.1738040" lon="1.6213430">
        <ele>125.6</ele>
        <time>2020-07-02T09:25:24Z</time>
      </trkpt>
      <trkpt lat="48.1733470" lon="1.6217960">
        <ele>126.6</ele>
        <time>2020-07-02T09:25:35Z</time>
      </trkpt>
      <trkpt lat="48.1730810" lon="1.6220690">
        <ele>126.8</ele>
        <time>2020-07-02T09:25:43Z</time>
      </trkpt>
      <trkpt lat="48.1730560" lon="1.6221390">
        <ele>126.8</ele>
        <time>2020-07-02T09:25:45Z</time>
      </trkpt>
      <trkpt lat="48.1730590" lon="1.6221730">
        <ele>127.0</ele>
        <time>2020-07-02T09:25:46Z</time>
      </trkpt>
      <trkpt lat="48.1731370" lon="1.6222890">
        <ele>127.0</ele>
        <time>2020-07-02T09:25:51Z</time>
      </trkpt>
      <trkpt lat="48.1733400" lon="1.6224430">
        <ele>127.0</ele>
        <time>2020-07-02T09:25:57Z</time>
      </trkpt>
      <trkpt lat="48.1735040" lon="1.6225800">
        <ele>127.0</ele>
        <time>2020-07-02T09:26:01Z</time>
      </trkpt>
      <trkpt lat="48.1736400" lon="1.6226730">
        <ele>127.0</ele>
        <time>2020-07-02T09:26:04Z</time>
      </trkpt>
      <trkpt lat="48.1740390" lon="1.6229450">
        <ele>126.2</ele>
        <time>2020-07-02T09:26:13Z</time>
      </trkpt>
      <trkpt lat="48.1742240" lon="1.6230400">
        <ele>126.2</ele>
        <time>2020-07-02T09:26:17Z</time>
      </trkpt>
      <trkpt lat="48.1744600" lon="1.6231190">
        <ele>125.8</ele>
        <time>2020-07-02T09:26:22Z</time>
      </trkpt>
      <trkpt lat="48.1747880" lon="1.6231760">
        <ele>125.2</ele>
        <time>2020-07-02T09:26:30Z</time>
      </trkpt>
      <trkpt lat="48.1749430" lon="1.6233050">
        <ele>125.4</ele>
        <time>2020-07-02T09:26:36Z</time>
      </trkpt>
      <trkpt lat="48.1749240" lon="1.6233650">
        <ele>125.4</ele>
        <time>2020-07-02T09:26:41Z</time>
      </trkpt>
      <trkpt lat="48.1749110" lon="1.6234230">
        <ele>125.6</ele>
        <time>2020-07-02T09:26:54Z</time>
      </trkpt>
      <trkpt lat="48.1749170" lon="1.6234460">
        <ele>125.6</ele>
        <time>2020-07-02T09:27:20Z</time>
      </trkpt>
      <trkpt lat="48.1749250" lon="1.6234660">
        <ele>125.4</ele>
        <time>2020-07-02T09:27:47Z</time>
      </trkpt>
      <trkpt lat="48.1749320" lon="1.6234840">
        <ele>125.6</ele>
        <time>2020-07-02T09:28:10Z</time>
      </trkpt>
      <trkpt lat="48.1749400" lon="1.6235060">
        <ele>125.0</ele>
        <time>2020-07-02T09:28:35Z</time>
      </trkpt>
      <trkpt lat="48.1749440" lon="1.6235110">
        <ele>125.0</ele>
        <time>2020-07-02T09:28:53Z</time>
      </trkpt>
      <trkpt lat="48.1749530" lon="1.6235210">
        <ele>125.2</ele>
        <time>2020-07-02T09:29:14Z</time>
      </trkpt>
      <trkpt lat="48.1749600" lon="1.6235260">
        <ele>125.4</ele>
        <time>2020-07-02T09:29:37Z</time>
      </trkpt>
      <trkpt lat="48.1749680" lon="1.6235210">
        <ele>125.4</ele>
        <time>2020-07-02T09:30:03Z</time>
      </trkpt>
      <trkpt lat="48.1749850" lon="1.6235530">
        <ele>125.6</ele>
        <time>2020-07-02T09:30:23Z</time>
      </trkpt>
      <trkpt lat="48.1749800" lon="1.6235700">
        <ele>125.4</ele>
        <time>2020-07-02T09:30:43Z</time>
      </trkpt>
      <trkpt lat="48.1749740" lon="1.6235770">
        <ele>125.6</ele>
        <time>2020-07-02T09:31:05Z</time>
      </trkpt>
      <trkpt lat="48.1749790" lon="1.6235850">
        <ele>125.6</ele>
        <time>2020-07-02T09:31:27Z</time>
      </trkpt>
      <trkpt lat="48.1749820" lon="1.6236040">
        <ele>125.6</ele>
        <time>2020-07-02T09:31:51Z</time>
      </trkpt>
      <trkpt lat="48.1749840" lon="1.6236000">
        <ele>125.6</ele>
        <time>2020-07-02T09:32:13Z</time>
      </trkpt>
      <trkpt lat="48.1749920" lon="1.6235580">
        <ele>125.0</ele>
        <time>2020-07-02T09:32:30Z</time>
      </trkpt>
      <trkpt lat="48.1750140" lon="1.6234470">
        <ele>125.0</ele>
        <time>2020-07-02T09:32:43Z</time>
      </trkpt>
      <trkpt lat="48.1749810" lon="1.6233350">
        <ele>125.0</ele>
        <time>2020-07-02T09:32:59Z</time>
      </trkpt>
      <trkpt lat="48.1749840" lon="1.6233040">
        <ele>124.8</ele>
        <time>2020-07-02T09:33:30Z</time>
      </trkpt>
      <trkpt lat="48.1749860" lon="1.6232780">
        <ele>125.2</ele>
        <time>2020-07-02T09:33:57Z</time>
      </trkpt>
      <trkpt lat="48.1749870" lon="1.6232620">
        <ele>125.6</ele>
        <time>2020-07-02T09:34:23Z</time>
      </trkpt>
      <trkpt lat="48.1749940" lon="1.6232580">
        <ele>125.2</ele>
        <time>2020-07-02T09:34:44Z</time>
      </trkpt>
      <trkpt lat="48.1749990" lon="1.6232480">
        <ele>125.4</ele>
        <time>2020-07-02T09:34:59Z</time>
      </trkpt>
      <trkpt lat="48.1750080" lon="1.6232350">
        <ele>125.6</ele>
        <time>2020-07-02T09:35:25Z</time>
      </trkpt>
      <trkpt lat="48.1749770" lon="1.6232160">
        <ele>125.6</ele>
        <time>2020-07-02T09:35:44Z</time>
      </trkpt>
      <trkpt lat="48.1749640" lon="1.6232090">
        <ele>125.4</ele>
        <time>2020-07-02T09:35:46Z</time>
      </trkpt>
      <trkpt lat="48.1748900" lon="1.6231610">
        <ele>124.8</ele>
        <time>2020-07-02T09:35:53Z</time>
      </trkpt>
      <trkpt lat="48.1748350" lon="1.6231280">
        <ele>124.8</ele>
        <time>2020-07-02T09:35:56Z</time>
      </trkpt>
      <trkpt lat="48.1748150" lon="1.6231170">
        <ele>124.8</ele>
        <time>2020-07-02T09:35:57Z</time>
      </trkpt>
      <trkpt lat="48.1746570" lon="1.6230670">
        <ele>124.8</ele>
        <time>2020-07-02T09:36:03Z</time>
      </trkpt>
      <trkpt lat="48.1743260" lon="1.6229980">
        <ele>125.0</ele>
        <time>2020-07-02T09:36:13Z</time>
      </trkpt>
      <trkpt lat="48.1739770" lon="1.6228100">
        <ele>125.2</ele>
        <time>2020-07-02T09:36:23Z</time>
      </trkpt>
      <trkpt lat="48.1735860" lon="1.6225230">
        <ele>125.6</ele>
        <time>2020-07-02T09:36:34Z</time>
      </trkpt>
      <trkpt lat="48.1735520" lon="1.6224960">
        <ele>125.4</ele>
        <time>2020-07-02T09:36:35Z</time>
      </trkpt>
      <trkpt lat="48.1732590" lon="1.6222040">
        <ele>125.8</ele>
        <time>2020-07-02T09:36:45Z</time>
      </trkpt>
      <trkpt lat="48.1731520" lon="1.6221300">
        <ele>126.0</ele>
        <time>2020-07-02T09:36:49Z</time>
      </trkpt>
      <trkpt lat="48.1730660" lon="1.6220940">
        <ele>126.2</ele>
        <time>2020-07-02T09:36:53Z</time>
      </trkpt>
      <trkpt lat="48.1729410" lon="1.6222040">
        <ele>126.4</ele>
        <time>2020-07-02T09:36:59Z</time>
      </trkpt>
      <trkpt lat="48.1728450" lon="1.6224310">
        <ele>126.6</ele>
        <time>2020-07-02T09:37:04Z</time>
      </trkpt>
      <trkpt lat="48.1727870" lon="1.6228610">
        <ele>126.8</ele>
        <time>2020-07-02T09:37:11Z</time>
      </trkpt>
      <trkpt lat="48.1728090" lon="1.6230880">
        <ele>126.6</ele>
        <time>2020-07-02T09:37:15Z</time>
      </trkpt>
      <trkpt lat="48.1728280" lon="1.6231350">
        <ele>126.6</ele>
        <time>2020-07-02T09:37:16Z</time>
      </trkpt>
      <trkpt lat="48.1728530" lon="1.6231790">
        <ele>126.6</ele>
        <time>2020-07-02T09:37:17Z</time>
      </trkpt>
      <trkpt lat="48.1729250" lon="1.6232980">
        <ele>126.6</ele>
        <time>2020-07-02T09:37:20Z</time>
      </trkpt>
      <trkpt lat="48.1729930" lon="1.6234160">
        <ele>126.6</ele>
        <time>2020-07-02T09:37:23Z</time>
      </trkpt>
      <trkpt lat="48.1730470" lon="1.6235230">
        <ele>126.6</ele>
        <time>2020-07-02T09:37:27Z</time>
      </trkpt>
      <trkpt lat="48.1730560" lon="1.6234620">
        <ele>126.6</ele>
        <time>2020-07-02T09:37:31Z</time>
      </trkpt>
      <trkpt lat="48.1729190" lon="1.6232800">
        <ele>126.4</ele>
        <time>2020-07-02T09:37:38Z</time>
      </trkpt>
      <trkpt lat="48.1728180" lon="1.6232230">
        <ele>126.4</ele>
        <time>2020-07-02T09:37:42Z</time>
      </trkpt>
      <trkpt lat="48.1727410" lon="1.6233260">
        <ele>126.6</ele>
        <time>2020-07-02T09:37:46Z</time>
      </trkpt>
      <trkpt lat="48.1725760" lon="1.6236290">
        <ele>126.8</ele>
        <time>2020-07-02T09:37:53Z</time>
      </trkpt>
      <trkpt lat="48.1723400" lon="1.6242560">
        <ele>126.8</ele>
        <time>2020-07-02T09:38:04Z</time>
      </trkpt>
      <trkpt lat="48.1722480" lon="1.6245730">
        <ele>127.0</ele>
        <time>2020-07-02T09:38:10Z</time>
      </trkpt>
      <trkpt lat="48.1722420" lon="1.6246060">
        <ele>126.8</ele>
        <time>2020-07-02T09:38:11Z</time>
      </trkpt>
      <trkpt lat="48.1722480" lon="1.6246710">
        <ele>127.2</ele>
        <time>2020-07-02T09:38:16Z</time>
      </trkpt>
      <trkpt lat="48.1722590" lon="1.6246630">
        <ele>126.8</ele>
        <time>2020-07-02T09:38:31Z</time>
      </trkpt>
      <trkpt lat="48.1722740" lon="1.6246360">
        <ele>126.8</ele>
        <time>2020-07-02T09:39:01Z</time>
      </trkpt>
      <trkpt lat="48.1722780" lon="1.6246290">
        <ele>126.6</ele>
        <time>2020-07-02T09:39:15Z</time>
      </trkpt>
      <trkpt lat="48.1722840" lon="1.6246270">
        <ele>126.6</ele>
        <time>2020-07-02T09:39:30Z</time>
      </trkpt>
      <trkpt lat="48.1722870" lon="1.6246220">
        <ele>126.8</ele>
        <time>2020-07-02T09:39:41Z</time>
      </trkpt>
      <trkpt lat="48.1722930" lon="1.6246150">
        <ele>126.8</ele>
        <time>2020-07-02T09:39:56Z</time>
      </trkpt>
      <trkpt lat="48.1722910" lon="1.6246170">
        <ele>126.8</ele>
        <time>2020-07-02T09:40:19Z</time>
      </trkpt>
      <trkpt lat="48.1722600" lon="1.6246690">
        <ele>126.8</ele>
        <time>2020-07-02T09:40:23Z</time>
      </trkpt>
      <trkpt lat="48.1722170" lon="1.6247690">
        <ele>126.6</ele>
        <time>2020-07-02T09:40:27Z</time>
      </trkpt>
      <trkpt lat="48.1721250" lon="1.6250720">
        <ele>126.6</ele>
        <time>2020-07-02T09:40:35Z</time>
      </trkpt>
      <trkpt lat="48.1719950" lon="1.6255880">
        <ele>126.6</ele>
        <time>2020-07-02T09:40:44Z</time>
      </trkpt>
      <trkpt lat="48.1717990" lon="1.6263180">
        <ele>126.6</ele>
        <time>2020-07-02T09:40:55Z</time>
      </trkpt>
      <trkpt lat="48.1715330" lon="1.6270230">
        <ele>126.4</ele>
        <time>2020-07-02T09:41:05Z</time>
      </trkpt>
      <trkpt lat="48.1712220" lon="1.6276950">
        <ele>126.8</ele>
        <time>2020-07-02T09:41:15Z</time>
      </trkpt>
      <trkpt lat="48.1711300" lon="1.6279000">
        <ele>126.8</ele>
        <time>2020-07-02T09:41:18Z</time>
      </trkpt>
      <trkpt lat="48.1707960" lon="1.6286280">
        <ele>126.8</ele>
        <time>2020-07-02T09:41:28Z</time>
      </trkpt>
      <trkpt lat="48.1707630" lon="1.6287030">
        <ele>126.8</ele>
        <time>2020-07-02T09:41:29Z</time>
      </trkpt>
      <trkpt lat="48.1704480" lon="1.6293910">
        <ele>126.6</ele>
        <time>2020-07-02T09:41:38Z</time>
      </trkpt>
      <trkpt lat="48.1702780" lon="1.6297600">
        <ele>126.6</ele>
        <time>2020-07-02T09:41:43Z</time>
      </trkpt>
      <trkpt lat="48.1699900" lon="1.6305040">
        <ele>126.4</ele>
        <time>2020-07-02T09:41:53Z</time>
      </trkpt>
      <trkpt lat="48.1697610" lon="1.6312700">
        <ele>126.2</ele>
        <time>2020-07-02T09:42:02Z</time>
      </trkpt>
      <trkpt lat="48.1696020" lon="1.6321270">
        <ele>126.4</ele>
        <time>2020-07-02T09:42:12Z</time>
      </trkpt>
      <trkpt lat="48.1694680" lon="1.6329760">
        <ele>126.6</ele>
        <time>2020-07-02T09:42:22Z</time>
      </trkpt>
      <trkpt lat="48.1694540" lon="1.6331360">
        <ele>126.6</ele>
        <time>2020-07-02T09:42:24Z</time>
      </trkpt>
      <trkpt lat="48.1693970" lon="1.6340250">
        <ele>126.4</ele>
        <time>2020-07-02T09:42:34Z</time>
      </trkpt>
      <trkpt lat="48.1693410" lon="1.6348750">
        <ele>126.2</ele>
        <time>2020-07-02T09:42:43Z</time>
      </trkpt>
      <trkpt lat="48.1693200" lon="1.6351630">
        <ele>126.2</ele>
        <time>2020-07-02T09:42:46Z</time>
      </trkpt>
      <trkpt lat="48.1692670" lon="1.6356660">
        <ele>125.6</ele>
        <time>2020-07-02T09:42:51Z</time>
      </trkpt>
      <trkpt lat="48.1692230" lon="1.6359840">
        <ele>125.4</ele>
        <time>2020-07-02T09:42:54Z</time>
      </trkpt>
      <trkpt lat="48.1690870" lon="1.6368480">
        <ele>123.0</ele>
        <time>2020-07-02T09:43:02Z</time>
      </trkpt>
      <trkpt lat="48.1690320" lon="1.6371870">
        <ele>122.8</ele>
        <time>2020-07-02T09:43:05Z</time>
      </trkpt>
      <trkpt lat="48.1689860" lon="1.6374230">
        <ele>122.6</ele>
        <time>2020-07-02T09:43:07Z</time>
      </trkpt>
      <trkpt lat="48.1688960" lon="1.6377760">
        <ele>122.2</ele>
        <time>2020-07-02T09:43:10Z</time>
      </trkpt>
      <trkpt lat="48.1688200" lon="1.6380000">
        <ele>121.4</ele>
        <time>2020-07-02T09:43:12Z</time>
      </trkpt>
      <trkpt lat="48.1685980" lon="1.6385900">
        <ele>120.2</ele>
        <time>2020-07-02T09:43:17Z</time>
      </trkpt>
      <trkpt lat="48.1685030" lon="1.6388440">
        <ele>119.6</ele>
        <time>2020-07-02T09:43:19Z</time>
      </trkpt>
      <trkpt lat="48.1684580" lon="1.6389800">
        <ele>119.2</ele>
        <time>2020-07-02T09:43:20Z</time>
      </trkpt>
      <trkpt lat="48.1683780" lon="1.6392640">
        <ele>118.0</ele>
        <time>2020-07-02T09:43:22Z</time>
      </trkpt>
      <trkpt lat="48.1683100" lon="1.6395550">
        <ele>117.2</ele>
        <time>2020-07-02T09:43:24Z</time>
      </trkpt>
      <trkpt lat="48.1682480" lon="1.6398560">
        <ele>116.2</ele>
        <time>2020-07-02T09:43:26Z</time>
      </trkpt>
      <trkpt lat="48.1680750" lon="1.6407270">
        <ele>112.0</ele>
        <time>2020-07-02T09:43:32Z</time>
      </trkpt>
      <trkpt lat="48.1680180" lon="1.6409890">
        <ele>110.8</ele>
        <time>2020-07-02T09:43:34Z</time>
      </trkpt>
      <trkpt lat="48.1679470" lon="1.6413570">
        <ele>110.0</ele>
        <time>2020-07-02T09:43:37Z</time>
      </trkpt>
      <trkpt lat="48.1679050" lon="1.6415820">
        <ele>110.0</ele>
        <time>2020-07-02T09:43:39Z</time>
      </trkpt>
      <trkpt lat="48.1678720" lon="1.6417860">
        <ele>110.0</ele>
        <time>2020-07-02T09:43:41Z</time>
      </trkpt>
      <trkpt lat="48.1678220" lon="1.6420540">
        <ele>110.2</ele>
        <time>2020-07-02T09:43:44Z</time>
      </trkpt>
      <trkpt lat="48.1678090" lon="1.6421330">
        <ele>110.0</ele>
        <time>2020-07-02T09:43:45Z</time>
      </trkpt>
      <trkpt lat="48.1677870" lon="1.6422860">
        <ele>110.8</ele>
        <time>2020-07-02T09:43:47Z</time>
      </trkpt>
      <trkpt lat="48.1677660" lon="1.6424970">
        <ele>111.8</ele>
        <time>2020-07-02T09:43:50Z</time>
      </trkpt>
      <trkpt lat="48.1677600" lon="1.6426230">
        <ele>112.8</ele>
        <time>2020-07-02T09:43:52Z</time>
      </trkpt>
      <trkpt lat="48.1677540" lon="1.6429260">
        <ele>115.4</ele>
        <time>2020-07-02T09:43:57Z</time>
      </trkpt>
      <trkpt lat="48.1677510" lon="1.6431000">
        <ele>116.2</ele>
        <time>2020-07-02T09:44:00Z</time>
      </trkpt>
      <trkpt lat="48.1677580" lon="1.6435010">
        <ele>117.0</ele>
        <time>2020-07-02T09:44:07Z</time>
      </trkpt>
      <trkpt lat="48.1677640" lon="1.6435550">
        <ele>117.2</ele>
        <time>2020-07-02T09:44:08Z</time>
      </trkpt>
      <trkpt lat="48.1678190" lon="1.6440430">
        <ele>118.4</ele>
        <time>2020-07-02T09:44:17Z</time>
      </trkpt>
      <trkpt lat="48.1678160" lon="1.6442680">
        <ele>119.0</ele>
        <time>2020-07-02T09:44:21Z</time>
      </trkpt>
      <trkpt lat="48.1677850" lon="1.6446950">
        <ele>119.8</ele>
        <time>2020-07-02T09:44:28Z</time>
      </trkpt>
      <trkpt lat="48.1677380" lon="1.6451810">
        <ele>120.0</ele>
        <time>2020-07-02T09:44:36Z</time>
      </trkpt>
      <trkpt lat="48.1677270" lon="1.6452930">
        <ele>120.0</ele>
        <time>2020-07-02T09:44:38Z</time>
      </trkpt>
      <trkpt lat="48.1676240" lon="1.6460230">
        <ele>120.8</ele>
        <time>2020-07-02T09:44:50Z</time>
      </trkpt>
      <trkpt lat="48.1674750" lon="1.6466460">
        <ele>121.4</ele>
        <time>2020-07-02T09:45:01Z</time>
      </trkpt>
      <trkpt lat="48.1673250" lon="1.6470180">
        <ele>121.8</ele>
        <time>2020-07-02T09:45:09Z</time>
      </trkpt>
      <trkpt lat="48.1672740" lon="1.6471480">
        <ele>122.0</ele>
        <time>2020-07-02T09:45:12Z</time>
      </trkpt>
      <trkpt lat="48.1672280" lon="1.6472700">
        <ele>122.4</ele>
        <time>2020-07-02T09:45:15Z</time>
      </trkpt>
      <trkpt lat="48.1671470" lon="1.6474700">
        <ele>123.2</ele>
        <time>2020-07-02T09:45:20Z</time>
      </trkpt>
      <trkpt lat="48.1671010" lon="1.6475930">
        <ele>124.0</ele>
        <time>2020-07-02T09:45:23Z</time>
      </trkpt>
      <trkpt lat="48.1669530" lon="1.6480090">
        <ele>126.2</ele>
        <time>2020-07-02T09:45:33Z</time>
      </trkpt>
      <trkpt lat="48.1668870" lon="1.6481650">
        <ele>126.8</ele>
        <time>2020-07-02T09:45:37Z</time>
      </trkpt>
      <trkpt lat="48.1668440" lon="1.6482890">
        <ele>127.4</ele>
        <time>2020-07-02T09:45:40Z</time>
      </trkpt>
      <trkpt lat="48.1666840" lon="1.6487190">
        <ele>128.6</ele>
        <time>2020-07-02T09:45:50Z</time>
      </trkpt>
      <trkpt lat="48.1666680" lon="1.6487610">
        <ele>128.8</ele>
        <time>2020-07-02T09:45:51Z</time>
      </trkpt>
      <trkpt lat="48.1665130" lon="1.6491490">
        <ele>129.8</ele>
        <time>2020-07-02T09:46:00Z</time>
      </trkpt>
      <trkpt lat="48.1664610" lon="1.6492870">
        <ele>130.2</ele>
        <time>2020-07-02T09:46:03Z</time>
      </trkpt>
      <trkpt lat="48.1663160" lon="1.6496840">
        <ele>131.0</ele>
        <time>2020-07-02T09:46:11Z</time>
      </trkpt>
      <trkpt lat="48.1662370" lon="1.6498960">
        <ele>131.6</ele>
        <time>2020-07-02T09:46:15Z</time>
      </trkpt>
      <trkpt lat="48.1661080" lon="1.6502540">
        <ele>131.6</ele>
        <time>2020-07-02T09:46:21Z</time>
      </trkpt>
      <trkpt lat="48.1660370" lon="1.6504520">
        <ele>131.6</ele>
        <time>2020-07-02T09:46:24Z</time>
      </trkpt>
      <trkpt lat="48.1657790" lon="1.6512300">
        <ele>131.2</ele>
        <time>2020-07-02T09:46:35Z</time>
      </trkpt>
      <trkpt lat="48.1657180" lon="1.6514720">
        <ele>131.0</ele>
        <time>2020-07-02T09:46:38Z</time>
      </trkpt>
      <trkpt lat="48.1656560" lon="1.6520140">
        <ele>130.6</ele>
        <time>2020-07-02T09:46:44Z</time>
      </trkpt>
      <trkpt lat="48.1656770" lon="1.6526900">
        <ele>130.0</ele>
        <time>2020-07-02T09:46:51Z</time>
      </trkpt>
      <trkpt lat="48.1657560" lon="1.6535400">
        <ele>129.6</ele>
        <time>2020-07-02T09:47:00Z</time>
      </trkpt>
      <trkpt lat="48.1657830" lon="1.6540060">
        <ele>129.8</ele>
        <time>2020-07-02T09:47:05Z</time>
      </trkpt>
      <trkpt lat="48.1657280" lon="1.6545760">
        <ele>129.6</ele>
        <time>2020-07-02T09:47:11Z</time>
      </trkpt>
      <trkpt lat="48.1655710" lon="1.6554230">
        <ele>129.4</ele>
        <time>2020-07-02T09:47:20Z</time>
      </trkpt>
      <trkpt lat="48.1655140" lon="1.6557090">
        <ele>129.4</ele>
        <time>2020-07-02T09:47:23Z</time>
      </trkpt>
      <trkpt lat="48.1653390" lon="1.6565620">
        <ele>128.6</ele>
        <time>2020-07-02T09:47:32Z</time>
      </trkpt>
      <trkpt lat="48.1653210" lon="1.6566590">
        <ele>128.4</ele>
        <time>2020-07-02T09:47:33Z</time>
      </trkpt>
      <trkpt lat="48.1652750" lon="1.6569510">
        <ele>128.2</ele>
        <time>2020-07-02T09:47:36Z</time>
      </trkpt>
      <trkpt lat="48.1652240" lon="1.6573450">
        <ele>127.8</ele>
        <time>2020-07-02T09:47:40Z</time>
      </trkpt>
      <trkpt lat="48.1651570" lon="1.6579390">
        <ele>127.0</ele>
        <time>2020-07-02T09:47:46Z</time>
      </trkpt>
      <trkpt lat="48.1651070" lon="1.6584360">
        <ele>126.4</ele>
        <time>2020-07-02T09:47:51Z</time>
      </trkpt>
      <trkpt lat="48.1650510" lon="1.6589700">
        <ele>126.0</ele>
        <time>2020-07-02T09:47:56Z</time>
      </trkpt>
      <trkpt lat="48.1650380" lon="1.6590810">
        <ele>125.8</ele>
        <time>2020-07-02T09:47:57Z</time>
      </trkpt>
      <trkpt lat="48.1649060" lon="1.6598870">
        <ele>124.6</ele>
        <time>2020-07-02T09:48:04Z</time>
      </trkpt>
      <trkpt lat="48.1648070" lon="1.6603280">
        <ele>124.4</ele>
        <time>2020-07-02T09:48:08Z</time>
      </trkpt>
      <trkpt lat="48.1646260" lon="1.6611800">
        <ele>123.8</ele>
        <time>2020-07-02T09:48:16Z</time>
      </trkpt>
      <trkpt lat="48.1644900" lon="1.6618010">
        <ele>123.6</ele>
        <time>2020-07-02T09:48:22Z</time>
      </trkpt>
      <trkpt lat="48.1643860" lon="1.6622840">
        <ele>123.6</ele>
        <time>2020-07-02T09:48:27Z</time>
      </trkpt>
      <trkpt lat="48.1643540" lon="1.6624560">
        <ele>123.8</ele>
        <time>2020-07-02T09:48:29Z</time>
      </trkpt>
      <trkpt lat="48.1643210" lon="1.6626350">
        <ele>123.8</ele>
        <time>2020-07-02T09:48:31Z</time>
      </trkpt>
      <trkpt lat="48.1642080" lon="1.6632530">
        <ele>124.4</ele>
        <time>2020-07-02T09:48:38Z</time>
      </trkpt>
      <trkpt lat="48.1640890" lon="1.6640570">
        <ele>124.6</ele>
        <time>2020-07-02T09:48:48Z</time>
      </trkpt>
      <trkpt lat="48.1640890" lon="1.6641440">
        <ele>124.6</ele>
        <time>2020-07-02T09:48:49Z</time>
      </trkpt>
      <trkpt lat="48.1641180" lon="1.6644120">
        <ele>124.4</ele>
        <time>2020-07-02T09:48:52Z</time>
      </trkpt>
      <trkpt lat="48.1641560" lon="1.6646030">
        <ele>124.2</ele>
        <time>2020-07-02T09:48:54Z</time>
      </trkpt>
      <trkpt lat="48.1643550" lon="1.6654250">
        <ele>123.2</ele>
        <time>2020-07-02T09:49:03Z</time>
      </trkpt>
      <trkpt lat="48.1643980" lon="1.6656060">
        <ele>123.2</ele>
        <time>2020-07-02T09:49:05Z</time>
      </trkpt>
      <trkpt lat="48.1644190" lon="1.6656960">
        <ele>122.8</ele>
        <time>2020-07-02T09:49:06Z</time>
      </trkpt>
      <trkpt lat="48.1645020" lon="1.6662810">
        <ele>122.4</ele>
        <time>2020-07-02T09:49:12Z</time>
      </trkpt>
      <trkpt lat="48.1645010" lon="1.6664860">
        <ele>122.4</ele>
        <time>2020-07-02T09:49:14Z</time>
      </trkpt>
      <trkpt lat="48.1644730" lon="1.6668870">
        <ele>121.8</ele>
        <time>2020-07-02T09:49:18Z</time>
      </trkpt>
      <trkpt lat="48.1644790" lon="1.6669820">
        <ele>121.6</ele>
        <time>2020-07-02T09:49:19Z</time>
      </trkpt>
      <trkpt lat="48.1644900" lon="1.6670750">
        <ele>121.6</ele>
        <time>2020-07-02T09:49:20Z</time>
      </trkpt>
      <trkpt lat="48.1645250" lon="1.6672610">
        <ele>120.8</ele>
        <time>2020-07-02T09:49:22Z</time>
      </trkpt>
      <trkpt lat="48.1646870" lon="1.6679240">
        <ele>119.8</ele>
        <time>2020-07-02T09:49:29Z</time>
      </trkpt>
      <trkpt lat="48.1647310" lon="1.6680570">
        <ele>118.8</ele>
        <time>2020-07-02T09:49:31Z</time>
      </trkpt>
      <trkpt lat="48.1647930" lon="1.6681210">
        <ele>118.4</ele>
        <time>2020-07-02T09:49:33Z</time>
      </trkpt>
      <trkpt lat="48.1649680" lon="1.6681890">
        <ele>118.2</ele>
        <time>2020-07-02T09:49:38Z</time>
      </trkpt>
      <trkpt lat="48.1650030" lon="1.6682130">
        <ele>118.0</ele>
        <time>2020-07-02T09:49:39Z</time>
      </trkpt>
      <trkpt lat="48.1650780" lon="1.6682730">
        <ele>117.8</ele>
        <time>2020-07-02T09:49:41Z</time>
      </trkpt>
      <trkpt lat="48.1651750" lon="1.6683820">
        <ele>117.8</ele>
        <time>2020-07-02T09:49:44Z</time>
      </trkpt>
      <trkpt lat="48.1651910" lon="1.6684390">
        <ele>117.8</ele>
        <time>2020-07-02T09:49:45Z</time>
      </trkpt>
      <trkpt lat="48.1651970" lon="1.6685060">
        <ele>117.8</ele>
        <time>2020-07-02T09:49:46Z</time>
      </trkpt>
      <trkpt lat="48.1651980" lon="1.6686560">
        <ele>117.2</ele>
        <time>2020-07-02T09:49:48Z</time>
      </trkpt>
      <trkpt lat="48.1651970" lon="1.6687320">
        <ele>116.8</ele>
        <time>2020-07-02T09:49:49Z</time>
      </trkpt>
      <trkpt lat="48.1652060" lon="1.6689440">
        <ele>115.6</ele>
        <time>2020-07-02T09:49:52Z</time>
      </trkpt>
      <trkpt lat="48.1652130" lon="1.6690110">
        <ele>115.4</ele>
        <time>2020-07-02T09:49:53Z</time>
      </trkpt>
      <trkpt lat="48.1652260" lon="1.6690790">
        <ele>115.4</ele>
        <time>2020-07-02T09:49:54Z</time>
      </trkpt>
      <trkpt lat="48.1652480" lon="1.6691450">
        <ele>115.2</ele>
        <time>2020-07-02T09:49:55Z</time>
      </trkpt>
      <trkpt lat="48.1653140" lon="1.6692800">
        <ele>114.2</ele>
        <time>2020-07-02T09:49:57Z</time>
      </trkpt>
      <trkpt lat="48.1653970" lon="1.6694210">
        <ele>113.4</ele>
        <time>2020-07-02T09:49:59Z</time>
      </trkpt>
      <trkpt lat="48.1654350" lon="1.6695040">
        <ele>113.2</ele>
        <time>2020-07-02T09:50:00Z</time>
      </trkpt>
      <trkpt lat="48.1654710" lon="1.6695960">
        <ele>113.0</ele>
        <time>2020-07-02T09:50:01Z</time>
      </trkpt>
      <trkpt lat="48.1655010" lon="1.6696960">
        <ele>113.0</ele>
        <time>2020-07-02T09:50:02Z</time>
      </trkpt>
      <trkpt lat="48.1655260" lon="1.6698020">
        <ele>112.8</ele>
        <time>2020-07-02T09:50:03Z</time>
      </trkpt>
      <trkpt lat="48.1656180" lon="1.6702200">
        <ele>110.0</ele>
        <time>2020-07-02T09:50:07Z</time>
      </trkpt>
      <trkpt lat="48.1656910" lon="1.6705090">
        <ele>109.2</ele>
        <time>2020-07-02T09:50:10Z</time>
      </trkpt>
      <trkpt lat="48.1657550" lon="1.6706890">
        <ele>109.0</ele>
        <time>2020-07-02T09:50:12Z</time>
      </trkpt>
      <trkpt lat="48.1658650" lon="1.6709320">
        <ele>108.6</ele>
        <time>2020-07-02T09:50:15Z</time>
      </trkpt>
      <trkpt lat="48.1659000" lon="1.6710080">
        <ele>108.8</ele>
        <time>2020-07-02T09:50:16Z</time>
      </trkpt>
      <trkpt lat="48.1660900" lon="1.6714330">
        <ele>109.0</ele>
        <time>2020-07-02T09:50:22Z</time>
      </trkpt>
      <trkpt lat="48.1661150" lon="1.6715040">
        <ele>109.0</ele>
        <time>2020-07-02T09:50:23Z</time>
      </trkpt>
      <trkpt lat="48.1661820" lon="1.6717010">
        <ele>109.4</ele>
        <time>2020-07-02T09:50:26Z</time>
      </trkpt>
      <trkpt lat="48.1662310" lon="1.6719230">
        <ele>109.8</ele>
        <time>2020-07-02T09:50:30Z</time>
      </trkpt>
      <trkpt lat="48.1662370" lon="1.6721450">
        <ele>111.0</ele>
        <time>2020-07-02T09:50:36Z</time>
      </trkpt>
      <trkpt lat="48.1662550" lon="1.6722930">
        <ele>112.2</ele>
        <time>2020-07-02T09:50:40Z</time>
      </trkpt>
      <trkpt lat="48.1662610" lon="1.6723330">
        <ele>112.4</ele>
        <time>2020-07-02T09:50:41Z</time>
      </trkpt>
      <trkpt lat="48.1662830" lon="1.6724250">
        <ele>112.8</ele>
        <time>2020-07-02T09:50:44Z</time>
      </trkpt>
      <trkpt lat="48.1662980" lon="1.6725250">
        <ele>113.2</ele>
        <time>2020-07-02T09:50:47Z</time>
      </trkpt>
      <trkpt lat="48.1662960" lon="1.6725630">
        <ele>113.2</ele>
        <time>2020-07-02T09:50:48Z</time>
      </trkpt>
      <trkpt lat="48.1662740" lon="1.6726360">
        <ele>114.0</ele>
        <time>2020-07-02T09:50:50Z</time>
      </trkpt>
      <trkpt lat="48.1661730" lon="1.6727280">
        <ele>114.4</ele>
        <time>2020-07-02T09:50:54Z</time>
      </trkpt>
      <trkpt lat="48.1661380" lon="1.6727530">
        <ele>114.6</ele>
        <time>2020-07-02T09:50:55Z</time>
      </trkpt>
      <trkpt lat="48.1659590" lon="1.6729030">
        <ele>114.6</ele>
        <time>2020-07-02T09:51:00Z</time>
      </trkpt>
      <trkpt lat="48.1658600" lon="1.6730210">
        <ele>114.8</ele>
        <time>2020-07-02T09:51:03Z</time>
      </trkpt>
      <trkpt lat="48.1656010" lon="1.6734210">
        <ele>114.6</ele>
        <time>2020-07-02T09:51:12Z</time>
      </trkpt>
      <trkpt lat="48.1654750" lon="1.6736200">
        <ele>114.8</ele>
        <time>2020-07-02T09:51:16Z</time>
      </trkpt>
      <trkpt lat="48.1653120" lon="1.6738890">
        <ele>115.4</ele>
        <time>2020-07-02T09:51:22Z</time>
      </trkpt>
      <trkpt lat="48.1649820" lon="1.6744690">
        <ele>117.0</ele>
        <time>2020-07-02T09:51:34Z</time>
      </trkpt>
      <trkpt lat="48.1647440" lon="1.6750300">
        <ele>117.4</ele>
        <time>2020-07-02T09:51:44Z</time>
      </trkpt>
      <trkpt lat="48.1647200" lon="1.6750950">
        <ele>117.2</ele>
        <time>2020-07-02T09:51:45Z</time>
      </trkpt>
      <trkpt lat="48.1644920" lon="1.6758410">
        <ele>118.2</ele>
        <time>2020-07-02T09:51:56Z</time>
      </trkpt>
      <trkpt lat="48.1643350" lon="1.6764350">
        <ele>118.2</ele>
        <time>2020-07-02T09:52:04Z</time>
      </trkpt>
      <trkpt lat="48.1642980" lon="1.6765990">
        <ele>118.2</ele>
        <time>2020-07-02T09:52:06Z</time>
      </trkpt>
      <trkpt lat="48.1642400" lon="1.6768590">
        <ele>118.2</ele>
        <time>2020-07-02T09:52:09Z</time>
      </trkpt>
      <trkpt lat="48.1641320" lon="1.6773090">
        <ele>117.6</ele>
        <time>2020-07-02T09:52:14Z</time>
      </trkpt>
      <trkpt lat="48.1641120" lon="1.6774040">
        <ele>117.4</ele>
        <time>2020-07-02T09:52:15Z</time>
      </trkpt>
      <trkpt lat="48.1640180" lon="1.6778420">
        <ele>116.6</ele>
        <time>2020-07-02T09:52:19Z</time>
      </trkpt>
      <trkpt lat="48.1639920" lon="1.6779650">
        <ele>116.4</ele>
        <time>2020-07-02T09:52:20Z</time>
      </trkpt>
      <trkpt lat="48.1639300" lon="1.6782180">
        <ele>116.0</ele>
        <time>2020-07-02T09:52:22Z</time>
      </trkpt>
      <trkpt lat="48.1638340" lon="1.6787220">
        <ele>113.0</ele>
        <time>2020-07-02T09:52:26Z</time>
      </trkpt>
      <trkpt lat="48.1637360" lon="1.6790440">
        <ele>110.6</ele>
        <time>2020-07-02T09:52:29Z</time>
      </trkpt>
      <trkpt lat="48.1636930" lon="1.6791370">
        <ele>110.0</ele>
        <time>2020-07-02T09:52:30Z</time>
      </trkpt>
      <trkpt lat="48.1636490" lon="1.6792210">
        <ele>109.6</ele>
        <time>2020-07-02T09:52:31Z</time>
      </trkpt>
      <trkpt lat="48.1635400" lon="1.6793560">
        <ele>109.0</ele>
        <time>2020-07-02T09:52:33Z</time>
      </trkpt>
      <trkpt lat="48.1634800" lon="1.6794030">
        <ele>108.6</ele>
        <time>2020-07-02T09:52:34Z</time>
      </trkpt>
      <trkpt lat="48.1632150" lon="1.6795420">
        <ele>108.2</ele>
        <time>2020-07-02T09:52:38Z</time>
      </trkpt>
      <trkpt lat="48.1630770" lon="1.6795920">
        <ele>108.2</ele>
        <time>2020-07-02T09:52:40Z</time>
      </trkpt>
      <trkpt lat="48.1630080" lon="1.6796230">
        <ele>108.0</ele>
        <time>2020-07-02T09:52:41Z</time>
      </trkpt>
      <trkpt lat="48.1628100" lon="1.6797110">
        <ele>108.0</ele>
        <time>2020-07-02T09:52:44Z</time>
      </trkpt>
      <trkpt lat="48.1626950" lon="1.6797740">
        <ele>108.0</ele>
        <time>2020-07-02T09:52:46Z</time>
      </trkpt>
      <trkpt lat="48.1626020" lon="1.6798300">
        <ele>108.2</ele>
        <time>2020-07-02T09:52:48Z</time>
      </trkpt>
      <trkpt lat="48.1624170" lon="1.6799290">
        <ele>108.0</ele>
        <time>2020-07-02T09:52:52Z</time>
      </trkpt>
      <trkpt lat="48.1622070" lon="1.6800280">
        <ele>109.8</ele>
        <time>2020-07-02T09:52:57Z</time>
      </trkpt>
      <trkpt lat="48.1620970" lon="1.6800800">
        <ele>110.6</ele>
        <time>2020-07-02T09:53:00Z</time>
      </trkpt>
      <trkpt lat="48.1620620" lon="1.6800980">
        <ele>111.2</ele>
        <time>2020-07-02T09:53:01Z</time>
      </trkpt>
      <trkpt lat="48.1618020" lon="1.6802400">
        <ele>113.6</ele>
        <time>2020-07-02T09:53:09Z</time>
      </trkpt>
      <trkpt lat="48.1617680" lon="1.6802560">
        <ele>113.8</ele>
        <time>2020-07-02T09:53:10Z</time>
      </trkpt>
      <trkpt lat="48.1613720" lon="1.6804380">
        <ele>115.4</ele>
        <time>2020-07-02T09:53:22Z</time>
      </trkpt>
      <trkpt lat="48.1611980" lon="1.6805120">
        <ele>115.6</ele>
        <time>2020-07-02T09:53:27Z</time>
      </trkpt>
      <trkpt lat="48.1610300" lon="1.6805860">
        <ele>116.0</ele>
        <time>2020-07-02T09:53:32Z</time>
      </trkpt>
      <trkpt lat="48.1609960" lon="1.6806070">
        <ele>116.2</ele>
        <time>2020-07-02T09:53:33Z</time>
      </trkpt>
      <trkpt lat="48.1607860" lon="1.6808350">
        <ele>116.8</ele>
        <time>2020-07-02T09:53:40Z</time>
      </trkpt>
      <trkpt lat="48.1605820" lon="1.6813550">
        <ele>117.6</ele>
        <time>2020-07-02T09:53:49Z</time>
      </trkpt>
      <trkpt lat="48.1603210" lon="1.6820630">
        <ele>118.0</ele>
        <time>2020-07-02T09:54:01Z</time>
      </trkpt>
      <trkpt lat="48.1602760" lon="1.6821780">
        <ele>118.2</ele>
        <time>2020-07-02T09:54:03Z</time>
      </trkpt>
      <trkpt lat="48.1602310" lon="1.6822930">
        <ele>118.2</ele>
        <time>2020-07-02T09:54:05Z</time>
      </trkpt>
      <trkpt lat="48.1600140" lon="1.6828860">
        <ele>118.4</ele>
        <time>2020-07-02T09:54:15Z</time>
      </trkpt>
      <trkpt lat="48.1599230" lon="1.6831450">
        <ele>118.4</ele>
        <time>2020-07-02T09:54:19Z</time>
      </trkpt>
      <trkpt lat="48.1598980" lon="1.6832090">
        <ele>118.4</ele>
        <time>2020-07-02T09:54:20Z</time>
      </trkpt>
      <trkpt lat="48.1597930" lon="1.6834660">
        <ele>118.6</ele>
        <time>2020-07-02T09:54:24Z</time>
      </trkpt>
      <trkpt lat="48.1597050" lon="1.6836530">
        <ele>118.4</ele>
        <time>2020-07-02T09:54:27Z</time>
      </trkpt>
      <trkpt lat="48.1595700" lon="1.6839190">
        <ele>118.4</ele>
        <time>2020-07-02T09:54:31Z</time>
      </trkpt>
      <trkpt lat="48.1595350" lon="1.6839850">
        <ele>118.4</ele>
        <time>2020-07-02T09:54:32Z</time>
      </trkpt>
      <trkpt lat="48.1594600" lon="1.6841140">
        <ele>118.2</ele>
        <time>2020-07-02T09:54:34Z</time>
      </trkpt>
      <trkpt lat="48.1591640" lon="1.6845970">
        <ele>116.6</ele>
        <time>2020-07-02T09:54:41Z</time>
      </trkpt>
      <trkpt lat="48.1589090" lon="1.6850400">
        <ele>115.2</ele>
        <time>2020-07-02T09:54:47Z</time>
      </trkpt>
      <trkpt lat="48.1587410" lon="1.6853290">
        <ele>115.0</ele>
        <time>2020-07-02T09:54:51Z</time>
      </trkpt>
      <trkpt lat="48.1585330" lon="1.6856850">
        <ele>115.0</ele>
        <time>2020-07-02T09:54:56Z</time>
      </trkpt>
      <trkpt lat="48.1583580" lon="1.6859760">
        <ele>115.0</ele>
        <time>2020-07-02T09:55:00Z</time>
      </trkpt>
      <trkpt lat="48.1580410" lon="1.6865130">
        <ele>114.8</ele>
        <time>2020-07-02T09:55:07Z</time>
      </trkpt>
      <trkpt lat="48.1577930" lon="1.6870430">
        <ele>114.2</ele>
        <time>2020-07-02T09:55:13Z</time>
      </trkpt>
      <trkpt lat="48.1577480" lon="1.6871350">
        <ele>114.0</ele>
        <time>2020-07-02T09:55:14Z</time>
      </trkpt>
      <trkpt lat="48.1576210" lon="1.6874220">
        <ele>113.8</ele>
        <time>2020-07-02T09:55:17Z</time>
      </trkpt>
      <trkpt lat="48.1574140" lon="1.6880000">
        <ele>112.6</ele>
        <time>2020-07-02T09:55:23Z</time>
      </trkpt>
      <trkpt lat="48.1571490" lon="1.6886470">
        <ele>111.2</ele>
        <time>2020-07-02T09:55:31Z</time>
      </trkpt>
      <trkpt lat="48.1570340" lon="1.6888850">
        <ele>111.4</ele>
        <time>2020-07-02T09:55:34Z</time>
      </trkpt>
      <trkpt lat="48.1567220" lon="1.6895990">
        <ele>112.0</ele>
        <time>2020-07-02T09:55:43Z</time>
      </trkpt>
      <trkpt lat="48.1565920" lon="1.6899210">
        <ele>112.2</ele>
        <time>2020-07-02T09:55:47Z</time>
      </trkpt>
      <trkpt lat="48.1564690" lon="1.6902320">
        <ele>112.4</ele>
        <time>2020-07-02T09:55:51Z</time>
      </trkpt>
      <trkpt lat="48.1562630" lon="1.6907780">
        <ele>112.8</ele>
        <time>2020-07-02T09:55:58Z</time>
      </trkpt>
      <trkpt lat="48.1561160" lon="1.6911620">
        <ele>113.2</ele>
        <time>2020-07-02T09:56:03Z</time>
      </trkpt>
      <trkpt lat="48.1560030" lon="1.6914520">
        <ele>113.8</ele>
        <time>2020-07-02T09:56:07Z</time>
      </trkpt>
      <trkpt lat="48.1558950" lon="1.6918100">
        <ele>114.2</ele>
        <time>2020-07-02T09:56:12Z</time>
      </trkpt>
      <trkpt lat="48.1558250" lon="1.6920910">
        <ele>114.8</ele>
        <time>2020-07-02T09:56:16Z</time>
      </trkpt>
      <trkpt lat="48.1557150" lon="1.6926030">
        <ele>115.4</ele>
        <time>2020-07-02T09:56:24Z</time>
      </trkpt>
      <trkpt lat="48.1555830" lon="1.6930740">
        <ele>115.6</ele>
        <time>2020-07-02T09:56:31Z</time>
      </trkpt>
      <trkpt lat="48.1554450" lon="1.6934070">
        <ele>116.0</ele>
        <time>2020-07-02T09:56:36Z</time>
      </trkpt>
      <trkpt lat="48.1553540" lon="1.6936290">
        <ele>116.0</ele>
        <time>2020-07-02T09:56:39Z</time>
      </trkpt>
      <trkpt lat="48.1551240" lon="1.6942580">
        <ele>116.2</ele>
        <time>2020-07-02T09:56:47Z</time>
      </trkpt>
      <trkpt lat="48.1550610" lon="1.6944210">
        <ele>116.0</ele>
        <time>2020-07-02T09:56:49Z</time>
      </trkpt>
      <trkpt lat="48.1548540" lon="1.6949700">
        <ele>116.2</ele>
        <time>2020-07-02T09:56:56Z</time>
      </trkpt>
      <trkpt lat="48.1548250" lon="1.6950390">
        <ele>116.0</ele>
        <time>2020-07-02T09:56:57Z</time>
      </trkpt>
      <trkpt lat="48.1547280" lon="1.6952990">
        <ele>116.2</ele>
        <time>2020-07-02T09:57:01Z</time>
      </trkpt>
      <trkpt lat="48.1546650" lon="1.6954650">
        <ele>116.2</ele>
        <time>2020-07-02T09:57:04Z</time>
      </trkpt>
      <trkpt lat="48.1546480" lon="1.6955160">
        <ele>116.2</ele>
        <time>2020-07-02T09:57:05Z</time>
      </trkpt>
      <trkpt lat="48.1544570" lon="1.6959990">
        <ele>117.8</ele>
        <time>2020-07-02T09:57:14Z</time>
      </trkpt>
      <trkpt lat="48.1543980" lon="1.6961600">
        <ele>119.0</ele>
        <time>2020-07-02T09:57:17Z</time>
      </trkpt>
      <trkpt lat="48.1542370" lon="1.6965480">
        <ele>119.6</ele>
        <time>2020-07-02T09:57:24Z</time>
      </trkpt>
      <trkpt lat="48.1538990" lon="1.6972460">
        <ele>120.4</ele>
        <time>2020-07-02T09:57:36Z</time>
      </trkpt>
      <trkpt lat="48.1535980" lon="1.6979450">
        <ele>120.4</ele>
        <time>2020-07-02T09:57:46Z</time>
      </trkpt>
      <trkpt lat="48.1533850" lon="1.6985400">
        <ele>120.6</ele>
        <time>2020-07-02T09:57:54Z</time>
      </trkpt>
      <trkpt lat="48.1533310" lon="1.6986970">
        <ele>120.4</ele>
        <time>2020-07-02T09:57:56Z</time>
      </trkpt>
      <trkpt lat="48.1530870" lon="1.6994580">
        <ele>119.2</ele>
        <time>2020-07-02T09:58:05Z</time>
      </trkpt>
      <trkpt lat="48.1530280" lon="1.6996380">
        <ele>118.8</ele>
        <time>2020-07-02T09:58:07Z</time>
      </trkpt>
      <trkpt lat="48.1529380" lon="1.6999150">
        <ele>118.8</ele>
        <time>2020-07-02T09:58:10Z</time>
      </trkpt>
      <trkpt lat="48.1527540" lon="1.7004750">
        <ele>118.2</ele>
        <time>2020-07-02T09:58:16Z</time>
      </trkpt>
      <trkpt lat="48.1526130" lon="1.7008990">
        <ele>118.0</ele>
        <time>2020-07-02T09:58:21Z</time>
      </trkpt>
      <trkpt lat="48.1525620" lon="1.7010520">
        <ele>117.8</ele>
        <time>2020-07-02T09:58:23Z</time>
      </trkpt>
      <trkpt lat="48.1524910" lon="1.7012730">
        <ele>117.8</ele>
        <time>2020-07-02T09:58:26Z</time>
      </trkpt>
      <trkpt lat="48.1522850" lon="1.7018850">
        <ele>119.8</ele>
        <time>2020-07-02T09:58:35Z</time>
      </trkpt>
      <trkpt lat="48.1520290" lon="1.7026530">
        <ele>120.8</ele>
        <time>2020-07-02T09:58:46Z</time>
      </trkpt>
      <trkpt lat="48.1517620" lon="1.7034000">
        <ele>120.8</ele>
        <time>2020-07-02T09:58:56Z</time>
      </trkpt>
      <trkpt lat="48.1516870" lon="1.7036220">
        <ele>120.8</ele>
        <time>2020-07-02T09:58:59Z</time>
      </trkpt>
      <trkpt lat="48.1514440" lon="1.7043240">
        <ele>122.0</ele>
        <time>2020-07-02T09:59:09Z</time>
      </trkpt>
      <trkpt lat="48.1511670" lon="1.7051060">
        <ele>122.8</ele>
        <time>2020-07-02T09:59:20Z</time>
      </trkpt>
      <trkpt lat="48.1510820" lon="1.7053280">
        <ele>123.0</ele>
        <time>2020-07-02T09:59:23Z</time>
      </trkpt>
      <trkpt lat="48.1510510" lon="1.7054030">
        <ele>123.0</ele>
        <time>2020-07-02T09:59:24Z</time>
      </trkpt>
      <trkpt lat="48.1508150" lon="1.7057950">
        <ele>123.0</ele>
        <time>2020-07-02T09:59:30Z</time>
      </trkpt>
      <trkpt lat="48.1506700" lon="1.7059300">
        <ele>122.8</ele>
        <time>2020-07-02T09:59:33Z</time>
      </trkpt>
      <trkpt lat="48.1505130" lon="1.7060650">
        <ele>122.2</ele>
        <time>2020-07-02T09:59:36Z</time>
      </trkpt>
      <trkpt lat="48.1504570" lon="1.7061110">
        <ele>122.0</ele>
        <time>2020-07-02T09:59:37Z</time>
      </trkpt>
      <trkpt lat="48.1500590" lon="1.7064670">
        <ele>121.2</ele>
        <time>2020-07-02T09:59:44Z</time>
      </trkpt>
      <trkpt lat="48.1498390" lon="1.7066850">
        <ele>120.0</ele>
        <time>2020-07-02T09:59:48Z</time>
      </trkpt>
      <trkpt lat="48.1497860" lon="1.7067370">
        <ele>120.0</ele>
        <time>2020-07-02T09:59:49Z</time>
      </trkpt>
      <trkpt lat="48.1493580" lon="1.7071450">
        <ele>119.6</ele>
        <time>2020-07-02T09:59:58Z</time>
      </trkpt>
      <trkpt lat="48.1491590" lon="1.7073290">
        <ele>119.8</ele>
        <time>2020-07-02T10:00:04Z</time>
      </trkpt>
      <trkpt lat="48.1489810" lon="1.7074950">
        <ele>121.0</ele>
        <time>2020-07-02T10:00:11Z</time>
      </trkpt>
      <trkpt lat="48.1489250" lon="1.7075450">
        <ele>121.2</ele>
        <time>2020-07-02T10:00:13Z</time>
      </trkpt>
      <trkpt lat="48.1487480" lon="1.7076820">
        <ele>121.6</ele>
        <time>2020-07-02T10:00:18Z</time>
      </trkpt>
      <trkpt lat="48.1483820" lon="1.7079680">
        <ele>122.0</ele>
        <time>2020-07-02T10:00:27Z</time>
      </trkpt>
      <trkpt lat="48.1480960" lon="1.7082030">
        <ele>122.0</ele>
        <time>2020-07-02T10:00:33Z</time>
      </trkpt>
      <trkpt lat="48.1478460" lon="1.7084280">
        <ele>122.0</ele>
        <time>2020-07-02T10:00:38Z</time>
      </trkpt>
      <trkpt lat="48.1473860" lon="1.7088180">
        <ele>121.2</ele>
        <time>2020-07-02T10:00:47Z</time>
      </trkpt>
      <trkpt lat="48.1469960" lon="1.7091740">
        <ele>120.2</ele>
        <time>2020-07-02T10:00:54Z</time>
      </trkpt>
      <trkpt lat="48.1467620" lon="1.7093920">
        <ele>119.6</ele>
        <time>2020-07-02T10:00:58Z</time>
      </trkpt>
      <trkpt lat="48.1465800" lon="1.7095600">
        <ele>119.6</ele>
        <time>2020-07-02T10:01:00Z</time>
      </trkpt>
      <trkpt lat="48.1460980" lon="1.7100080">
        <ele>117.8</ele>
        <time>2020-07-02T10:01:09Z</time>
      </trkpt>
      <trkpt lat="48.1456980" lon="1.7103680">
        <ele>117.6</ele>
        <time>2020-07-02T10:01:16Z</time>
      </trkpt>
      <trkpt lat="48.1454920" lon="1.7105570">
        <ele>117.6</ele>
        <time>2020-07-02T10:01:20Z</time>
      </trkpt>
      <trkpt lat="48.1450490" lon="1.7109580">
        <ele>118.6</ele>
        <time>2020-07-02T10:01:29Z</time>
      </trkpt>
      <trkpt lat="48.1447970" lon="1.7111870">
        <ele>119.0</ele>
        <time>2020-07-02T10:01:34Z</time>
      </trkpt>
      <trkpt lat="48.1444340" lon="1.7115230">
        <ele>119.4</ele>
        <time>2020-07-02T10:01:41Z</time>
      </trkpt>
      <trkpt lat="48.1441640" lon="1.7117660">
        <ele>119.4</ele>
        <time>2020-07-02T10:01:46Z</time>
      </trkpt>
      <trkpt lat="48.1436790" lon="1.7121950">
        <ele>118.8</ele>
        <time>2020-07-02T10:01:55Z</time>
      </trkpt>
      <trkpt lat="48.1432390" lon="1.7125810">
        <ele>118.2</ele>
        <time>2020-07-02T10:02:03Z</time>
      </trkpt>
      <trkpt lat="48.1427190" lon="1.7130040">
        <ele>118.0</ele>
        <time>2020-07-02T10:02:12Z</time>
      </trkpt>
      <trkpt lat="48.1422570" lon="1.7133890">
        <ele>119.8</ele>
        <time>2020-07-02T10:02:23Z</time>
      </trkpt>
      <trkpt lat="48.1419900" lon="1.7136240">
        <ele>120.4</ele>
        <time>2020-07-02T10:02:29Z</time>
      </trkpt>
      <trkpt lat="48.1416180" lon="1.7139370">
        <ele>120.8</ele>
        <time>2020-07-02T10:02:37Z</time>
      </trkpt>
      <trkpt lat="48.1411240" lon="1.7143550">
        <ele>120.8</ele>
        <time>2020-07-02T10:02:47Z</time>
      </trkpt>
      <trkpt lat="48.1409710" lon="1.7144840">
        <ele>120.6</ele>
        <time>2020-07-02T10:02:50Z</time>
      </trkpt>
      <trkpt lat="48.1409210" lon="1.7145250">
        <ele>120.6</ele>
        <time>2020-07-02T10:02:51Z</time>
      </trkpt>
      <trkpt lat="48.1405450" lon="1.7148360">
        <ele>120.6</ele>
        <time>2020-07-02T10:02:58Z</time>
      </trkpt>
      <trkpt lat="48.1402710" lon="1.7150750">
        <ele>120.0</ele>
        <time>2020-07-02T10:03:03Z</time>
      </trkpt>
      <trkpt lat="48.1397580" lon="1.7154980">
        <ele>118.8</ele>
        <time>2020-07-02T10:03:12Z</time>
      </trkpt>
      <trkpt lat="48.1394730" lon="1.7157320">
        <ele>118.8</ele>
        <time>2020-07-02T10:03:17Z</time>
      </trkpt>
      <trkpt lat="48.1389890" lon="1.7161490">
        <ele>118.8</ele>
        <time>2020-07-02T10:03:26Z</time>
      </trkpt>
      <trkpt lat="48.1388290" lon="1.7162860">
        <ele>118.6</ele>
        <time>2020-07-02T10:03:29Z</time>
      </trkpt>
      <trkpt lat="48.1387230" lon="1.7163700">
        <ele>118.8</ele>
        <time>2020-07-02T10:03:31Z</time>
      </trkpt>
      <trkpt lat="48.1384550" lon="1.7165870">
        <ele>119.2</ele>
        <time>2020-07-02T10:03:36Z</time>
      </trkpt>
      <trkpt lat="48.1380620" lon="1.7169370">
        <ele>120.8</ele>
        <time>2020-07-02T10:03:44Z</time>
      </trkpt>
      <trkpt lat="48.1376350" lon="1.7173420">
        <ele>121.4</ele>
        <time>2020-07-02T10:03:53Z</time>
      </trkpt>
      <trkpt lat="48.1373030" lon="1.7176600">
        <ele>122.2</ele>
        <time>2020-07-02T10:04:00Z</time>
      </trkpt>
      <trkpt lat="48.1368470" lon="1.7180930">
        <ele>123.0</ele>
        <time>2020-07-02T10:04:10Z</time>
      </trkpt>
      <trkpt lat="48.1366640" lon="1.7182700">
        <ele>123.4</ele>
        <time>2020-07-02T10:04:14Z</time>
      </trkpt>
      <trkpt lat="48.1361890" lon="1.7187230">
        <ele>123.6</ele>
        <time>2020-07-02T10:04:24Z</time>
      </trkpt>
      <trkpt lat="48.1360440" lon="1.7188600">
        <ele>123.6</ele>
        <time>2020-07-02T10:04:27Z</time>
      </trkpt>
      <trkpt lat="48.1358060" lon="1.7190860">
        <ele>123.8</ele>
        <time>2020-07-02T10:04:32Z</time>
      </trkpt>
      <trkpt lat="48.1353590" lon="1.7195150">
        <ele>123.4</ele>
        <time>2020-07-02T10:04:41Z</time>
      </trkpt>
      <trkpt lat="48.1353100" lon="1.7195630">
        <ele>123.4</ele>
        <time>2020-07-02T10:04:42Z</time>
      </trkpt>
      <trkpt lat="48.1348470" lon="1.7200210">
        <ele>122.2</ele>
        <time>2020-07-02T10:04:51Z</time>
      </trkpt>
      <trkpt lat="48.1347930" lon="1.7200710">
        <ele>122.2</ele>
        <time>2020-07-02T10:04:52Z</time>
      </trkpt>
      <trkpt lat="48.1346850" lon="1.7201740">
        <ele>121.8</ele>
        <time>2020-07-02T10:04:54Z</time>
      </trkpt>
      <trkpt lat="48.1341870" lon="1.7206500">
        <ele>121.0</ele>
        <time>2020-07-02T10:05:03Z</time>
      </trkpt>
      <trkpt lat="48.1341300" lon="1.7207030">
        <ele>120.8</ele>
        <time>2020-07-02T10:05:04Z</time>
      </trkpt>
      <trkpt lat="48.1340140" lon="1.7208110">
        <ele>120.6</ele>
        <time>2020-07-02T10:05:06Z</time>
      </trkpt>
      <trkpt lat="48.1335680" lon="1.7212480">
        <ele>120.2</ele>
        <time>2020-07-02T10:05:14Z</time>
      </trkpt>
      <trkpt lat="48.1334640" lon="1.7213570">
        <ele>120.0</ele>
        <time>2020-07-02T10:05:16Z</time>
      </trkpt>
      <trkpt lat="48.1332670" lon="1.7215500">
        <ele>120.2</ele>
        <time>2020-07-02T10:05:20Z</time>
      </trkpt>
      <trkpt lat="48.1330320" lon="1.7217830">
        <ele>120.6</ele>
        <time>2020-07-02T10:05:25Z</time>
      </trkpt>
      <trkpt lat="48.1328060" lon="1.7220100">
        <ele>121.4</ele>
        <time>2020-07-02T10:05:30Z</time>
      </trkpt>
      <trkpt lat="48.1325540" lon="1.7222650">
        <ele>122.2</ele>
        <time>2020-07-02T10:05:36Z</time>
      </trkpt>
      <trkpt lat="48.1320850" lon="1.7227650">
        <ele>123.6</ele>
        <time>2020-07-02T10:05:47Z</time>
      </trkpt>
      <trkpt lat="48.1319940" lon="1.7228630">
        <ele>123.8</ele>
        <time>2020-07-02T10:05:49Z</time>
      </trkpt>
      <trkpt lat="48.1315250" lon="1.7233740">
        <ele>124.0</ele>
        <time>2020-07-02T10:05:59Z</time>
      </trkpt>
      <trkpt lat="48.1314280" lon="1.7234760">
        <ele>124.2</ele>
        <time>2020-07-02T10:06:01Z</time>
      </trkpt>
      <trkpt lat="48.1309790" lon="1.7239650">
        <ele>124.2</ele>
        <time>2020-07-02T10:06:10Z</time>
      </trkpt>
      <trkpt lat="48.1307680" lon="1.7241910">
        <ele>123.8</ele>
        <time>2020-07-02T10:06:14Z</time>
      </trkpt>
      <trkpt lat="48.1305040" lon="1.7244710">
        <ele>123.2</ele>
        <time>2020-07-02T10:06:19Z</time>
      </trkpt>
      <trkpt lat="48.1300230" lon="1.7249780">
        <ele>122.4</ele>
        <time>2020-07-02T10:06:28Z</time>
      </trkpt>
      <trkpt lat="48.1299680" lon="1.7250370">
        <ele>122.4</ele>
        <time>2020-07-02T10:06:29Z</time>
      </trkpt>
      <trkpt lat="48.1297490" lon="1.7252770">
        <ele>122.2</ele>
        <time>2020-07-02T10:06:33Z</time>
      </trkpt>
      <trkpt lat="48.1292540" lon="1.7257920">
        <ele>121.6</ele>
        <time>2020-07-02T10:06:42Z</time>
      </trkpt>
      <trkpt lat="48.1290900" lon="1.7259590">
        <ele>121.6</ele>
        <time>2020-07-02T10:06:45Z</time>
      </trkpt>
      <trkpt lat="48.1288240" lon="1.7262490">
        <ele>121.6</ele>
        <time>2020-07-02T10:06:50Z</time>
      </trkpt>
      <trkpt lat="48.1284110" lon="1.7266870">
        <ele>121.8</ele>
        <time>2020-07-02T10:06:58Z</time>
      </trkpt>
      <trkpt lat="48.1279370" lon="1.7271380">
        <ele>122.8</ele>
        <time>2020-07-02T10:07:08Z</time>
      </trkpt>
      <trkpt lat="48.1274640" lon="1.7276150">
        <ele>123.4</ele>
        <time>2020-07-02T10:07:18Z</time>
      </trkpt>
      <trkpt lat="48.1274220" lon="1.7276610">
        <ele>123.4</ele>
        <time>2020-07-02T10:07:19Z</time>
      </trkpt>
      <trkpt lat="48.1271330" lon="1.7279540">
        <ele>123.2</ele>
        <time>2020-07-02T10:07:26Z</time>
      </trkpt>
      <trkpt lat="48.1270900" lon="1.7279990">
        <ele>123.4</ele>
        <time>2020-07-02T10:07:27Z</time>
      </trkpt>
      <trkpt lat="48.1268650" lon="1.7282390">
        <ele>123.2</ele>
        <time>2020-07-02T10:07:32Z</time>
      </trkpt>
      <trkpt lat="48.1266780" lon="1.7284300">
        <ele>122.6</ele>
        <time>2020-07-02T10:07:36Z</time>
      </trkpt>
      <trkpt lat="48.1263230" lon="1.7288340">
        <ele>121.6</ele>
        <time>2020-07-02T10:07:44Z</time>
      </trkpt>
      <trkpt lat="48.1260570" lon="1.7292160">
        <ele>121.0</ele>
        <time>2020-07-02T10:07:53Z</time>
      </trkpt>
      <trkpt lat="48.1259270" lon="1.7293360">
        <ele>121.0</ele>
        <time>2020-07-02T10:07:56Z</time>
      </trkpt>
      <trkpt lat="48.1258260" lon="1.7294250">
        <ele>121.0</ele>
        <time>2020-07-02T10:07:58Z</time>
      </trkpt>
      <trkpt lat="48.1257770" lon="1.7294700">
        <ele>120.8</ele>
        <time>2020-07-02T10:07:59Z</time>
      </trkpt>
      <trkpt lat="48.1256200" lon="1.7296280">
        <ele>121.0</ele>
        <time>2020-07-02T10:08:01Z</time>
      </trkpt>
      <trkpt lat="48.1253980" lon="1.7298470">
        <ele>120.4</ele>
        <time>2020-07-02T10:08:06Z</time>
      </trkpt>
      <trkpt lat="48.1252330" lon="1.7300150">
        <ele>119.4</ele>
        <time>2020-07-02T10:08:09Z</time>
      </trkpt>
      <trkpt lat="48.1247610" lon="1.7305250">
        <ele>118.4</ele>
        <time>2020-07-02T10:08:18Z</time>
      </trkpt>
      <trkpt lat="48.1243080" lon="1.7310300">
        <ele>118.0</ele>
        <time>2020-07-02T10:08:27Z</time>
      </trkpt>
      <trkpt lat="48.1241250" lon="1.7312480">
        <ele>118.0</ele>
        <time>2020-07-02T10:08:31Z</time>
      </trkpt>
      <trkpt lat="48.1239620" lon="1.7314340">
        <ele>118.0</ele>
        <time>2020-07-02T10:08:35Z</time>
      </trkpt>
      <trkpt lat="48.1238170" lon="1.7315730">
        <ele>118.6</ele>
        <time>2020-07-02T10:08:39Z</time>
      </trkpt>
      <trkpt lat="48.1235140" lon="1.7318890">
        <ele>119.4</ele>
        <time>2020-07-02T10:08:47Z</time>
      </trkpt>
      <trkpt lat="48.1234450" lon="1.7319840">
        <ele>119.4</ele>
        <time>2020-07-02T10:08:49Z</time>
      </trkpt>
      <trkpt lat="48.1233760" lon="1.7320790">
        <ele>119.4</ele>
        <time>2020-07-02T10:08:51Z</time>
      </trkpt>
      <trkpt lat="48.1232930" lon="1.7321410">
        <ele>119.4</ele>
        <time>2020-07-02T10:08:53Z</time>
      </trkpt>
      <trkpt lat="48.1232420" lon="1.7321060">
        <ele>119.4</ele>
        <time>2020-07-02T10:08:55Z</time>
      </trkpt>
      <trkpt lat="48.1232100" lon="1.7320780">
        <ele>119.4</ele>
        <time>2020-07-02T10:08:56Z</time>
      </trkpt>
      <trkpt lat="48.1231380" lon="1.7320120">
        <ele>119.4</ele>
        <time>2020-07-02T10:08:58Z</time>
      </trkpt>
      <trkpt lat="48.1229070" lon="1.7317990">
        <ele>118.8</ele>
        <time>2020-07-02T10:09:03Z</time>
      </trkpt>
      <trkpt lat="48.1229070" lon="1.7317990">
        <ele>118.8</ele>
        <time>2020-07-02T10:09:04Z</time>
      </trkpt>
      <trkpt lat="48.1227790" lon="1.7317640">
        <ele>118.6</ele>
        <time>2020-07-02T10:09:08Z</time>
      </trkpt>
      <trkpt lat="48.1226730" lon="1.7318370">
        <ele>118.8</ele>
        <time>2020-07-02T10:09:13Z</time>
      </trkpt>
      <trkpt lat="48.1226370" lon="1.7318730">
        <ele>118.8</ele>
        <time>2020-07-02T10:09:15Z</time>
      </trkpt>
      <trkpt lat="48.1225250" lon="1.7320360">
        <ele>118.8</ele>
        <time>2020-07-02T10:09:21Z</time>
      </trkpt>
      <trkpt lat="48.1223040" lon="1.7322330">
        <ele>118.6</ele>
        <time>2020-07-02T10:09:27Z</time>
      </trkpt>
      <trkpt lat="48.1220950" lon="1.7323720">
        <ele>118.6</ele>
        <time>2020-07-02T10:09:33Z</time>
      </trkpt>
      <trkpt lat="48.1218930" lon="1.7325110">
        <ele>118.4</ele>
        <time>2020-07-02T10:09:40Z</time>
      </trkpt>
      <trkpt lat="48.1216380" lon="1.7327160">
        <ele>118.0</ele>
        <time>2020-07-02T10:09:49Z</time>
      </trkpt>
      <trkpt lat="48.1213680" lon="1.7328950">
        <ele>118.2</ele>
        <time>2020-07-02T10:09:56Z</time>
      </trkpt>
      <trkpt lat="48.1213280" lon="1.7329220">
        <ele>118.0</ele>
        <time>2020-07-02T10:09:57Z</time>
      </trkpt>
      <trkpt lat="48.1210200" lon="1.7331210">
        <ele>118.0</ele>
        <time>2020-07-02T10:10:04Z</time>
      </trkpt>
      <trkpt lat="48.1209220" lon="1.7331710">
        <ele>117.8</ele>
        <time>2020-07-02T10:10:06Z</time>
      </trkpt>
      <trkpt lat="48.1205140" lon="1.7333140">
        <ele>117.6</ele>
        <time>2020-07-02T10:10:13Z</time>
      </trkpt>
      <trkpt lat="48.1203620" lon="1.7333690">
        <ele>117.4</ele>
        <time>2020-07-02T10:10:17Z</time>
      </trkpt>
      <trkpt lat="48.1201680" lon="1.7335150">
        <ele>117.2</ele>
        <time>2020-07-02T10:10:20Z</time>
      </trkpt>
      <trkpt lat="48.1196900" lon="1.7339620">
        <ele>117.2</ele>
        <time>2020-07-02T10:10:30Z</time>
      </trkpt>
      <trkpt lat="48.1196430" lon="1.7340020">
        <ele>117.2</ele>
        <time>2020-07-02T10:10:31Z</time>
      </trkpt>
      <trkpt lat="48.1195100" lon="1.7341190">
        <ele>117.2</ele>
        <time>2020-07-02T10:10:35Z</time>
      </trkpt>
      <trkpt lat="48.1193400" lon="1.7342770">
        <ele>117.0</ele>
        <time>2020-07-02T10:10:39Z</time>
      </trkpt>
      <trkpt lat="48.1192930" lon="1.7342980">
        <ele>116.6</ele>
        <time>2020-07-02T10:10:40Z</time>
      </trkpt>
      <trkpt lat="48.1192430" lon="1.7343040">
        <ele>116.8</ele>
        <time>2020-07-02T10:10:41Z</time>
      </trkpt>
      <trkpt lat="48.1190240" lon="1.7342370">
        <ele>116.6</ele>
        <time>2020-07-02T10:10:44Z</time>
      </trkpt>
      <trkpt lat="48.1184970" lon="1.7340100">
        <ele>114.8</ele>
        <time>2020-07-02T10:10:54Z</time>
      </trkpt>
      <trkpt lat="48.1179660" lon="1.7338190">
        <ele>114.0</ele>
        <time>2020-07-02T10:11:03Z</time>
      </trkpt>
      <trkpt lat="48.1178550" lon="1.7337790">
        <ele>114.0</ele>
        <time>2020-07-02T10:11:05Z</time>
      </trkpt>
      <trkpt lat="48.1174390" lon="1.7336330">
        <ele>114.2</ele>
        <time>2020-07-02T10:11:13Z</time>
      </trkpt>
      <trkpt lat="48.1172840" lon="1.7335800">
        <ele>114.8</ele>
        <time>2020-07-02T10:11:16Z</time>
      </trkpt>
      <trkpt lat="48.1168820" lon="1.7334500">
        <ele>116.0</ele>
        <time>2020-07-02T10:11:24Z</time>
      </trkpt>
      <trkpt lat="48.1166890" lon="1.7333880">
        <ele>116.0</ele>
        <time>2020-07-02T10:11:28Z</time>
      </trkpt>
      <trkpt lat="48.1161630" lon="1.7332440">
        <ele>116.6</ele>
        <time>2020-07-02T10:11:38Z</time>
      </trkpt>
      <trkpt lat="48.1159820" lon="1.7331870">
        <ele>116.8</ele>
        <time>2020-07-02T10:11:43Z</time>
      </trkpt>
      <trkpt lat="48.1157030" lon="1.7331320">
        <ele>117.8</ele>
        <time>2020-07-02T10:11:49Z</time>
      </trkpt>
      <trkpt lat="48.1154640" lon="1.7331260">
        <ele>118.6</ele>
        <time>2020-07-02T10:11:54Z</time>
      </trkpt>
      <trkpt lat="48.1148750" lon="1.7331520">
        <ele>119.2</ele>
        <time>2020-07-02T10:12:06Z</time>
      </trkpt>
      <trkpt lat="48.1147220" lon="1.7331570">
        <ele>119.0</ele>
        <time>2020-07-02T10:12:09Z</time>
      </trkpt>
      <trkpt lat="48.1141500" lon="1.7331840">
        <ele>118.8</ele>
        <time>2020-07-02T10:12:20Z</time>
      </trkpt>
      <trkpt lat="48.1139920" lon="1.7331900">
        <ele>118.8</ele>
        <time>2020-07-02T10:12:23Z</time>
      </trkpt>
      <trkpt lat="48.1136300" lon="1.7331790">
        <ele>119.2</ele>
        <time>2020-07-02T10:12:30Z</time>
      </trkpt>
      <trkpt lat="48.1135180" lon="1.7331880">
        <ele>119.4</ele>
        <time>2020-07-02T10:12:32Z</time>
      </trkpt>
      <trkpt lat="48.1134610" lon="1.7331890">
        <ele>119.2</ele>
        <time>2020-07-02T10:12:33Z</time>
      </trkpt>
      <trkpt lat="48.1131400" lon="1.7331440">
        <ele>119.2</ele>
        <time>2020-07-02T10:12:39Z</time>
      </trkpt>
      <trkpt lat="48.1130900" lon="1.7331280">
        <ele>119.2</ele>
        <time>2020-07-02T10:12:40Z</time>
      </trkpt>
      <trkpt lat="48.1130410" lon="1.7331090">
        <ele>119.0</ele>
        <time>2020-07-02T10:12:41Z</time>
      </trkpt>
      <trkpt lat="48.1127520" lon="1.7329540">
        <ele>118.8</ele>
        <time>2020-07-02T10:12:47Z</time>
      </trkpt>
      <trkpt lat="48.1126520" lon="1.7328860">
        <ele>118.8</ele>
        <time>2020-07-02T10:12:48Z</time>
      </trkpt>
      <trkpt lat="48.1123100" lon="1.7326270">
        <ele>119.4</ele>
        <time>2020-07-02T10:12:56Z</time>
      </trkpt>
      <trkpt lat="48.1121330" lon="1.7324730">
        <ele>119.6</ele>
        <time>2020-07-02T10:12:59Z</time>
      </trkpt>
      <trkpt lat="48.1120470" lon="1.7324060">
        <ele>119.6</ele>
        <time>2020-07-02T10:13:01Z</time>
      </trkpt>
      <trkpt lat="48.1117990" lon="1.7322180">
        <ele>119.6</ele>
        <time>2020-07-02T10:13:07Z</time>
      </trkpt>
      <trkpt lat="48.1115340" lon="1.7320320">
        <ele>119.4</ele>
        <time>2020-07-02T10:13:13Z</time>
      </trkpt>
      <trkpt lat="48.1114870" lon="1.7320000">
        <ele>119.4</ele>
        <time>2020-07-02T10:13:14Z</time>
      </trkpt>
      <trkpt lat="48.1114390" lon="1.7319690">
        <ele>119.6</ele>
        <time>2020-07-02T10:13:16Z</time>
      </trkpt>
      <trkpt lat="48.1109510" lon="1.7316520">
        <ele>119.8</ele>
        <time>2020-07-02T10:13:27Z</time>
      </trkpt>
      <trkpt lat="48.1105770" lon="1.7313920">
        <ele>119.6</ele>
        <time>2020-07-02T10:13:35Z</time>
      </trkpt>
      <trkpt lat="48.1105360" lon="1.7313620">
        <ele>119.4</ele>
        <time>2020-07-02T10:13:37Z</time>
      </trkpt>
      <trkpt lat="48.1103640" lon="1.7312480">
        <ele>119.2</ele>
        <time>2020-07-02T10:13:40Z</time>
      </trkpt>
      <trkpt lat="48.1100560" lon="1.7310310">
        <ele>118.8</ele>
        <time>2020-07-02T10:13:48Z</time>
      </trkpt>
      <trkpt lat="48.1098810" lon="1.7309130">
        <ele>118.6</ele>
        <time>2020-07-02T10:13:52Z</time>
      </trkpt>
      <trkpt lat="48.1094410" lon="1.7306470">
        <ele>118.2</ele>
        <time>2020-07-02T10:14:01Z</time>
      </trkpt>
      <trkpt lat="48.1093510" lon="1.7305980">
        <ele>117.8</ele>
        <time>2020-07-02T10:14:03Z</time>
      </trkpt>
      <trkpt lat="48.1093080" lon="1.7305710">
        <ele>117.8</ele>
        <time>2020-07-02T10:14:04Z</time>
      </trkpt>
      <trkpt lat="48.1087580" lon="1.7302510">
        <ele>117.4</ele>
        <time>2020-07-02T10:14:16Z</time>
      </trkpt>
      <trkpt lat="48.1087580" lon="1.7302510">
        <ele>117.2</ele>
        <time>2020-07-02T10:14:17Z</time>
      </trkpt>
      <trkpt lat="48.1086650" lon="1.7301930">
        <ele>117.2</ele>
        <time>2020-07-02T10:14:19Z</time>
      </trkpt>
      <trkpt lat="48.1081130" lon="1.7298850">
        <ele>117.0</ele>
        <time>2020-07-02T10:14:29Z</time>
      </trkpt>
      <trkpt lat="48.1080650" lon="1.7298570">
        <ele>116.8</ele>
        <time>2020-07-02T10:14:30Z</time>
      </trkpt>
      <trkpt lat="48.1080150" lon="1.7298320">
        <ele>116.6</ele>
        <time>2020-07-02T10:14:31Z</time>
      </trkpt>
      <trkpt lat="48.1077260" lon="1.7296710">
        <ele>116.2</ele>
        <time>2020-07-02T10:14:37Z</time>
      </trkpt>
      <trkpt lat="48.1074880" lon="1.7295330">
        <ele>116.0</ele>
        <time>2020-07-02T10:14:42Z</time>
      </trkpt>
      <trkpt lat="48.1074410" lon="1.7295050">
        <ele>116.0</ele>
        <time>2020-07-02T10:14:43Z</time>
      </trkpt>
      <trkpt lat="48.1071180" lon="1.7293120">
        <ele>116.0</ele>
        <time>2020-07-02T10:14:50Z</time>
      </trkpt>
      <trkpt lat="48.1069370" lon="1.7292020">
        <ele>116.0</ele>
        <time>2020-07-02T10:14:55Z</time>
      </trkpt>
      <trkpt lat="48.1065970" lon="1.7289950">
        <ele>116.0</ele>
        <time>2020-07-02T10:15:02Z</time>
      </trkpt>
      <trkpt lat="48.1064420" lon="1.7288930">
        <ele>116.4</ele>
        <time>2020-07-02T10:15:06Z</time>
      </trkpt>
      <trkpt lat="48.1059230" lon="1.7285080">
        <ele>117.8</ele>
        <time>2020-07-02T10:15:19Z</time>
      </trkpt>
      <trkpt lat="48.1054700" lon="1.7280620">
        <ele>117.8</ele>
        <time>2020-07-02T10:15:31Z</time>
      </trkpt>
      <trkpt lat="48.1053960" lon="1.7279820">
        <ele>117.8</ele>
        <time>2020-07-02T10:15:33Z</time>
      </trkpt>
      <trkpt lat="48.1049450" lon="1.7275320">
        <ele>118.0</ele>
        <time>2020-07-02T10:15:45Z</time>
      </trkpt>
      <trkpt lat="48.1048230" lon="1.7274270">
        <ele>117.8</ele>
        <time>2020-07-02T10:15:48Z</time>
      </trkpt>
      <trkpt lat="48.1043050" lon="1.7270600">
        <ele>117.8</ele>
        <time>2020-07-02T10:16:01Z</time>
      </trkpt>
      <trkpt lat="48.1038240" lon="1.7268060">
        <ele>117.4</ele>
        <time>2020-07-02T10:16:11Z</time>
      </trkpt>
      <trkpt lat="48.1037780" lon="1.7267810">
        <ele>117.2</ele>
        <time>2020-07-02T10:16:12Z</time>
      </trkpt>
      <trkpt lat="48.1033070" lon="1.7265230">
        <ele>117.2</ele>
        <time>2020-07-02T10:16:21Z</time>
      </trkpt>
      <trkpt lat="48.1030330" lon="1.7263700">
        <ele>117.2</ele>
        <time>2020-07-02T10:16:28Z</time>
      </trkpt>
      <trkpt lat="48.1024600" lon="1.7260520">
        <ele>118.0</ele>
        <time>2020-07-02T10:16:40Z</time>
      </trkpt>
      <trkpt lat="48.1023720" lon="1.7260020">
        <ele>118.2</ele>
        <time>2020-07-02T10:16:43Z</time>
      </trkpt>
      <trkpt lat="48.1022830" lon="1.7259520">
        <ele>118.0</ele>
        <time>2020-07-02T10:16:44Z</time>
      </trkpt>
      <trkpt lat="48.1022370" lon="1.7259260">
        <ele>118.0</ele>
        <time>2020-07-02T10:16:46Z</time>
      </trkpt>
      <trkpt lat="48.1021410" lon="1.7258780">
        <ele>118.2</ele>
        <time>2020-07-02T10:16:48Z</time>
      </trkpt>
      <trkpt lat="48.1018840" lon="1.7257650">
        <ele>118.2</ele>
        <time>2020-07-02T10:16:53Z</time>
      </trkpt>
      <trkpt lat="48.1018370" lon="1.7257420">
        <ele>118.2</ele>
        <time>2020-07-02T10:16:54Z</time>
      </trkpt>
      <trkpt lat="48.1014490" lon="1.7255840">
        <ele>118.8</ele>
        <time>2020-07-02T10:17:02Z</time>
      </trkpt>
      <trkpt lat="48.1009230" lon="1.7253980">
        <ele>118.6</ele>
        <time>2020-07-02T10:17:11Z</time>
      </trkpt>
      <trkpt lat="48.1006630" lon="1.7253020">
        <ele>118.6</ele>
        <time>2020-07-02T10:17:16Z</time>
      </trkpt>
      <trkpt lat="48.1005200" lon="1.7252500">
        <ele>118.6</ele>
        <time>2020-07-02T10:17:19Z</time>
      </trkpt>
      <trkpt lat="48.1002990" lon="1.7251680">
        <ele>119.0</ele>
        <time>2020-07-02T10:17:25Z</time>
      </trkpt>
      <trkpt lat="48.0997850" lon="1.7249640">
        <ele>119.4</ele>
        <time>2020-07-02T10:17:35Z</time>
      </trkpt>
      <trkpt lat="48.0997450" lon="1.7249490">
        <ele>119.4</ele>
        <time>2020-07-02T10:17:36Z</time>
      </trkpt>
      <trkpt lat="48.0997060" lon="1.7249340">
        <ele>119.4</ele>
        <time>2020-07-02T10:17:37Z</time>
      </trkpt>
      <trkpt lat="48.0994240" lon="1.7248420">
        <ele>119.6</ele>
        <time>2020-07-02T10:17:44Z</time>
      </trkpt>
      <trkpt lat="48.0990320" lon="1.7247530">
        <ele>119.6</ele>
        <time>2020-07-02T10:17:53Z</time>
      </trkpt>
      <trkpt lat="48.0985880" lon="1.7247860">
        <ele>119.8</ele>
        <time>2020-07-02T10:18:01Z</time>
      </trkpt>
      <trkpt lat="48.0984760" lon="1.7249280">
        <ele>120.0</ele>
        <time>2020-07-02T10:18:04Z</time>
      </trkpt>
      <trkpt lat="48.0984490" lon="1.7249930">
        <ele>120.0</ele>
        <time>2020-07-02T10:18:05Z</time>
      </trkpt>
      <trkpt lat="48.0983000" lon="1.7254960">
        <ele>120.4</ele>
        <time>2020-07-02T10:18:12Z</time>
      </trkpt>
      <trkpt lat="48.0981800" lon="1.7259970">
        <ele>120.4</ele>
        <time>2020-07-02T10:18:19Z</time>
      </trkpt>
      <trkpt lat="48.0980090" lon="1.7267800">
        <ele>120.8</ele>
        <time>2020-07-02T10:18:30Z</time>
      </trkpt>
      <trkpt lat="48.0978540" lon="1.7271690">
        <ele>120.8</ele>
        <time>2020-07-02T10:18:36Z</time>
      </trkpt>
      <trkpt lat="48.0975960" lon="1.7274630">
        <ele>120.8</ele>
        <time>2020-07-02T10:18:43Z</time>
      </trkpt>
      <trkpt lat="48.0972740" lon="1.7276260">
        <ele>120.6</ele>
        <time>2020-07-02T10:18:49Z</time>
      </trkpt>
      <trkpt lat="48.0968570" lon="1.7277220">
        <ele>120.6</ele>
        <time>2020-07-02T10:18:55Z</time>
      </trkpt>
      <trkpt lat="48.0966940" lon="1.7277710">
        <ele>120.6</ele>
        <time>2020-07-02T10:18:58Z</time>
      </trkpt>
      <trkpt lat="48.0965930" lon="1.7278380">
        <ele>120.4</ele>
        <time>2020-07-02T10:19:00Z</time>
      </trkpt>
      <trkpt lat="48.0965710" lon="1.7278640">
        <ele>120.4</ele>
        <time>2020-07-02T10:19:01Z</time>
      </trkpt>
      <trkpt lat="48.0965480" lon="1.7278900">
        <ele>120.4</ele>
        <time>2020-07-02T10:19:02Z</time>
      </trkpt>
      <trkpt lat="48.0963220" lon="1.7281500">
        <ele>120.4</ele>
        <time>2020-07-02T10:19:07Z</time>
      </trkpt>
      <trkpt lat="48.0959730" lon="1.7286490">
        <ele>120.4</ele>
        <time>2020-07-02T10:19:14Z</time>
      </trkpt>
      <trkpt lat="48.0959350" lon="1.7287060">
        <ele>120.0</ele>
        <time>2020-07-02T10:19:16Z</time>
      </trkpt>
      <trkpt lat="48.0955130" lon="1.7293060">
        <ele>119.8</ele>
        <time>2020-07-02T10:19:26Z</time>
      </trkpt>
      <trkpt lat="48.0951150" lon="1.7298910">
        <ele>119.8</ele>
        <time>2020-07-02T10:19:36Z</time>
      </trkpt>
      <trkpt lat="48.0948530" lon="1.7303910">
        <ele>120.0</ele>
        <time>2020-07-02T10:19:44Z</time>
      </trkpt>
      <trkpt lat="48.0946960" lon="1.7307180">
        <ele>120.0</ele>
        <time>2020-07-02T10:19:48Z</time>
      </trkpt>
      <trkpt lat="48.0943310" lon="1.7313880">
        <ele>120.8</ele>
        <time>2020-07-02T10:20:00Z</time>
      </trkpt>
      <trkpt lat="48.0942600" lon="1.7314950">
        <ele>121.0</ele>
        <time>2020-07-02T10:20:02Z</time>
      </trkpt>
      <trkpt lat="48.0939660" lon="1.7317900">
        <ele>121.2</ele>
        <time>2020-07-02T10:20:09Z</time>
      </trkpt>
      <trkpt lat="48.0934850" lon="1.7321100">
        <ele>121.4</ele>
        <time>2020-07-02T10:20:19Z</time>
      </trkpt>
      <trkpt lat="48.0931500" lon="1.7323340">
        <ele>121.4</ele>
        <time>2020-07-02T10:20:25Z</time>
      </trkpt>
      <trkpt lat="48.0929000" lon="1.7324890">
        <ele>122.0</ele>
        <time>2020-07-02T10:20:31Z</time>
      </trkpt>
      <trkpt lat="48.0924070" lon="1.7328270">
        <ele>122.2</ele>
        <time>2020-07-02T10:20:41Z</time>
      </trkpt>
      <trkpt lat="48.0923580" lon="1.7328580">
        <ele>122.2</ele>
        <time>2020-07-02T10:20:42Z</time>
      </trkpt>
      <trkpt lat="48.0918620" lon="1.7331830">
        <ele>122.4</ele>
        <time>2020-07-02T10:20:52Z</time>
      </trkpt>
      <trkpt lat="48.0917130" lon="1.7332840">
        <ele>122.4</ele>
        <time>2020-07-02T10:20:54Z</time>
      </trkpt>
      <trkpt lat="48.0913680" lon="1.7335290">
        <ele>122.4</ele>
        <time>2020-07-02T10:21:01Z</time>
      </trkpt>
      <trkpt lat="48.0910330" lon="1.7337930">
        <ele>123.0</ele>
        <time>2020-07-02T10:21:09Z</time>
      </trkpt>
      <trkpt lat="48.0905170" lon="1.7342640">
        <ele>123.4</ele>
        <time>2020-07-02T10:21:19Z</time>
      </trkpt>
      <trkpt lat="48.0902800" lon="1.7344700">
        <ele>123.4</ele>
        <time>2020-07-02T10:21:24Z</time>
      </trkpt>
      <trkpt lat="48.0900960" lon="1.7346360">
        <ele>123.8</ele>
        <time>2020-07-02T10:21:29Z</time>
      </trkpt>
      <trkpt lat="48.0898540" lon="1.7348390">
        <ele>124.0</ele>
        <time>2020-07-02T10:21:33Z</time>
      </trkpt>
      <trkpt lat="48.0897010" lon="1.7349680">
        <ele>123.8</ele>
        <time>2020-07-02T10:21:37Z</time>
      </trkpt>
      <trkpt lat="48.0893030" lon="1.7353120">
        <ele>123.6</ele>
        <time>2020-07-02T10:21:44Z</time>
      </trkpt>
      <trkpt lat="48.0890380" lon="1.7355100">
        <ele>123.4</ele>
        <time>2020-07-02T10:21:50Z</time>
      </trkpt>
      <trkpt lat="48.0888680" lon="1.7356020">
        <ele>122.8</ele>
        <time>2020-07-02T10:21:53Z</time>
      </trkpt>
      <trkpt lat="48.0885070" lon="1.7357730">
        <ele>122.2</ele>
        <time>2020-07-02T10:21:58Z</time>
      </trkpt>
      <trkpt lat="48.0882780" lon="1.7358660">
        <ele>121.4</ele>
        <time>2020-07-02T10:22:02Z</time>
      </trkpt>
      <trkpt lat="48.0880470" lon="1.7359320">
        <ele>121.0</ele>
        <time>2020-07-02T10:22:06Z</time>
      </trkpt>
      <trkpt lat="48.0875020" lon="1.7361830">
        <ele>120.6</ele>
        <time>2020-07-02T10:22:15Z</time>
      </trkpt>
      <trkpt lat="48.0873200" lon="1.7362660">
        <ele>120.2</ele>
        <time>2020-07-02T10:22:18Z</time>
      </trkpt>
      <trkpt lat="48.0866860" lon="1.7365530">
        <ele>120.2</ele>
        <time>2020-07-02T10:22:29Z</time>
      </trkpt>
      <trkpt lat="48.0866270" lon="1.7365780">
        <ele>120.2</ele>
        <time>2020-07-02T10:22:30Z</time>
      </trkpt>
      <trkpt lat="48.0861030" lon="1.7368120">
        <ele>120.4</ele>
        <time>2020-07-02T10:22:39Z</time>
      </trkpt>
      <trkpt lat="48.0859900" lon="1.7368660">
        <ele>120.2</ele>
        <time>2020-07-02T10:22:41Z</time>
      </trkpt>
      <trkpt lat="48.0859320" lon="1.7368910">
        <ele>120.4</ele>
        <time>2020-07-02T10:22:42Z</time>
      </trkpt>
      <trkpt lat="48.0853970" lon="1.7371570">
        <ele>119.4</ele>
        <time>2020-07-02T10:22:51Z</time>
      </trkpt>
      <trkpt lat="48.0851430" lon="1.7374300">
        <ele>119.2</ele>
        <time>2020-07-02T10:22:57Z</time>
      </trkpt>
      <trkpt lat="48.0850550" lon="1.7375500">
        <ele>119.2</ele>
        <time>2020-07-02T10:22:58Z</time>
      </trkpt>
      <trkpt lat="48.0847060" lon="1.7380350">
        <ele>118.6</ele>
        <time>2020-07-02T10:23:06Z</time>
      </trkpt>
      <trkpt lat="48.0843390" lon="1.7384760">
        <ele>118.2</ele>
        <time>2020-07-02T10:23:14Z</time>
      </trkpt>
      <trkpt lat="48.0840990" lon="1.7387580">
        <ele>118.2</ele>
        <time>2020-07-02T10:23:19Z</time>
      </trkpt>
      <trkpt lat="48.0840010" lon="1.7388830">
        <ele>118.6</ele>
        <time>2020-07-02T10:23:21Z</time>
      </trkpt>
      <trkpt lat="48.0838940" lon="1.7389900">
        <ele>118.6</ele>
        <time>2020-07-02T10:23:23Z</time>
      </trkpt>
      <trkpt lat="48.0837540" lon="1.7391380">
        <ele>118.6</ele>
        <time>2020-07-02T10:23:26Z</time>
      </trkpt>
      <trkpt lat="48.0836440" lon="1.7392880">
        <ele>118.8</ele>
        <time>2020-07-02T10:23:29Z</time>
      </trkpt>
      <trkpt lat="48.0835390" lon="1.7394100">
        <ele>118.8</ele>
        <time>2020-07-02T10:23:32Z</time>
      </trkpt>
      <trkpt lat="48.0834120" lon="1.7395290">
        <ele>119.6</ele>
        <time>2020-07-02T10:23:35Z</time>
      </trkpt>
      <trkpt lat="48.0833310" lon="1.7396160">
        <ele>119.6</ele>
        <time>2020-07-02T10:23:37Z</time>
      </trkpt>
      <trkpt lat="48.0832080" lon="1.7397380">
        <ele>119.8</ele>
        <time>2020-07-02T10:23:40Z</time>
      </trkpt>
      <trkpt lat="48.0831250" lon="1.7398230">
        <ele>119.8</ele>
        <time>2020-07-02T10:23:42Z</time>
      </trkpt>
      <trkpt lat="48.0829170" lon="1.7400440">
        <ele>120.0</ele>
        <time>2020-07-02T10:23:47Z</time>
      </trkpt>
      <trkpt lat="48.0826330" lon="1.7403660">
        <ele>120.2</ele>
        <time>2020-07-02T10:23:54Z</time>
      </trkpt>
      <trkpt lat="48.0824140" lon="1.7405840">
        <ele>120.4</ele>
        <time>2020-07-02T10:23:59Z</time>
      </trkpt>
      <trkpt lat="48.0823670" lon="1.7406210">
        <ele>120.4</ele>
        <time>2020-07-02T10:24:00Z</time>
      </trkpt>
      <trkpt lat="48.0823260" lon="1.7406380">
        <ele>120.4</ele>
        <time>2020-07-02T10:24:01Z</time>
      </trkpt>
      <trkpt lat="48.0822550" lon="1.7406090">
        <ele>120.4</ele>
        <time>2020-07-02T10:24:03Z</time>
      </trkpt>
      <trkpt lat="48.0819900" lon="1.7404350">
        <ele>120.4</ele>
        <time>2020-07-02T10:24:10Z</time>
      </trkpt>
      <trkpt lat="48.0817470" lon="1.7404350">
        <ele>120.2</ele>
        <time>2020-07-02T10:24:16Z</time>
      </trkpt>
      <trkpt lat="48.0816420" lon="1.7405210">
        <ele>120.2</ele>
        <time>2020-07-02T10:24:20Z</time>
      </trkpt>
      <trkpt lat="48.0815080" lon="1.7408080">
        <ele>120.4</ele>
        <time>2020-07-02T10:24:27Z</time>
      </trkpt>
      <trkpt lat="48.0814790" lon="1.7409020">
        <ele>120.4</ele>
        <time>2020-07-02T10:24:32Z</time>
      </trkpt>
      <trkpt lat="48.0814310" lon="1.7411080">
        <ele>120.2</ele>
        <time>2020-07-02T10:24:37Z</time>
      </trkpt>
      <trkpt lat="48.0812820" lon="1.7414030">
        <ele>120.2</ele>
        <time>2020-07-02T10:24:42Z</time>
      </trkpt>
      <trkpt lat="48.0812550" lon="1.7414670">
        <ele>120.0</ele>
        <time>2020-07-02T10:24:43Z</time>
      </trkpt>
      <trkpt lat="48.0810760" lon="1.7419220">
        <ele>119.6</ele>
        <time>2020-07-02T10:24:50Z</time>
      </trkpt>
      <trkpt lat="48.0809930" lon="1.7421170">
        <ele>119.2</ele>
        <time>2020-07-02T10:24:53Z</time>
      </trkpt>
      <trkpt lat="48.0809040" lon="1.7423180">
        <ele>118.8</ele>
        <time>2020-07-02T10:24:56Z</time>
      </trkpt>
      <trkpt lat="48.0808650" lon="1.7423810">
        <ele>118.6</ele>
        <time>2020-07-02T10:24:58Z</time>
      </trkpt>
      <trkpt lat="48.0807000" lon="1.7426270">
        <ele>118.6</ele>
        <time>2020-07-02T10:25:01Z</time>
      </trkpt>
      <trkpt lat="48.0806150" lon="1.7427410">
        <ele>118.4</ele>
        <time>2020-07-02T10:25:03Z</time>
      </trkpt>
      <trkpt lat="48.0805190" lon="1.7428330">
        <ele>118.2</ele>
        <time>2020-07-02T10:25:05Z</time>
      </trkpt>
      <trkpt lat="48.0803280" lon="1.7429420">
        <ele>117.6</ele>
        <time>2020-07-02T10:25:08Z</time>
      </trkpt>
      <trkpt lat="48.0799510" lon="1.7432740">
        <ele>116.4</ele>
        <time>2020-07-02T10:25:15Z</time>
      </trkpt>
      <trkpt lat="48.0796470" lon="1.7435860">
        <ele>115.8</ele>
        <time>2020-07-02T10:25:21Z</time>
      </trkpt>
      <trkpt lat="48.0794940" lon="1.7437550">
        <ele>115.6</ele>
        <time>2020-07-02T10:25:25Z</time>
      </trkpt>
      <trkpt lat="48.0791300" lon="1.7442680">
        <ele>115.0</ele>
        <time>2020-07-02T10:25:32Z</time>
      </trkpt>
      <trkpt lat="48.0787110" lon="1.7448850">
        <ele>114.6</ele>
        <time>2020-07-02T10:25:41Z</time>
      </trkpt>
      <trkpt lat="48.0785290" lon="1.7451580">
        <ele>114.0</ele>
        <time>2020-07-02T10:25:45Z</time>
      </trkpt>
      <trkpt lat="48.0781020" lon="1.7457760">
        <ele>113.6</ele>
        <time>2020-07-02T10:25:55Z</time>
      </trkpt>
      <trkpt lat="48.0779660" lon="1.7459660">
        <ele>113.6</ele>
        <time>2020-07-02T10:25:58Z</time>
      </trkpt>
      <trkpt lat="48.0775070" lon="1.7465010">
        <ele>113.8</ele>
        <time>2020-07-02T10:26:07Z</time>
      </trkpt>
      <trkpt lat="48.0774520" lon="1.7465610">
        <ele>113.8</ele>
        <time>2020-07-02T10:26:08Z</time>
      </trkpt>
      <trkpt lat="48.0770700" lon="1.7469640">
        <ele>113.8</ele>
        <time>2020-07-02T10:26:15Z</time>
      </trkpt>
      <trkpt lat="48.0768610" lon="1.7471850">
        <ele>113.6</ele>
        <time>2020-07-02T10:26:19Z</time>
      </trkpt>
      <trkpt lat="48.0763780" lon="1.7477030">
        <ele>113.0</ele>
        <time>2020-07-02T10:26:28Z</time>
      </trkpt>
      <trkpt lat="48.0761030" lon="1.7480200">
        <ele>113.0</ele>
        <time>2020-07-02T10:26:33Z</time>
      </trkpt>
      <trkpt lat="48.0756370" lon="1.7485850">
        <ele>112.8</ele>
        <time>2020-07-02T10:26:42Z</time>
      </trkpt>
      <trkpt lat="48.0755420" lon="1.7487120">
        <ele>112.6</ele>
        <time>2020-07-02T10:26:44Z</time>
      </trkpt>
      <trkpt lat="48.0751210" lon="1.7493160">
        <ele>112.8</ele>
        <time>2020-07-02T10:26:53Z</time>
      </trkpt>
      <trkpt lat="48.0750380" lon="1.7494640">
        <ele>112.8</ele>
        <time>2020-07-02T10:26:55Z</time>
      </trkpt>
      <trkpt lat="48.0748140" lon="1.7500500">
        <ele>113.0</ele>
        <time>2020-07-02T10:27:01Z</time>
      </trkpt>
      <trkpt lat="48.0746790" lon="1.7504950">
        <ele>113.2</ele>
        <time>2020-07-02T10:27:06Z</time>
      </trkpt>
      <trkpt lat="48.0745790" lon="1.7508410">
        <ele>113.2</ele>
        <time>2020-07-02T10:27:10Z</time>
      </trkpt>
      <trkpt lat="48.0745540" lon="1.7509250">
        <ele>113.2</ele>
        <time>2020-07-02T10:27:11Z</time>
      </trkpt>
      <trkpt lat="48.0744320" lon="1.7513280">
        <ele>113.4</ele>
        <time>2020-07-02T10:27:17Z</time>
      </trkpt>
      <trkpt lat="48.0744070" lon="1.7514050">
        <ele>113.4</ele>
        <time>2020-07-02T10:27:18Z</time>
      </trkpt>
      <trkpt lat="48.0741620" lon="1.7519690">
        <ele>114.4</ele>
        <time>2020-07-02T10:27:26Z</time>
      </trkpt>
      <trkpt lat="48.0738680" lon="1.7525310">
        <ele>114.8</ele>
        <time>2020-07-02T10:27:35Z</time>
      </trkpt>
      <trkpt lat="48.0737680" lon="1.7527120">
        <ele>115.0</ele>
        <time>2020-07-02T10:27:37Z</time>
      </trkpt>
      <trkpt lat="48.0735350" lon="1.7533230">
        <ele>115.8</ele>
        <time>2020-07-02T10:27:47Z</time>
      </trkpt>
      <trkpt lat="48.0732460" lon="1.7540780">
        <ele>116.2</ele>
        <time>2020-07-02T10:27:58Z</time>
      </trkpt>
      <trkpt lat="48.0731930" lon="1.7542210">
        <ele>116.4</ele>
        <time>2020-07-02T10:28:00Z</time>
      </trkpt>
      <trkpt lat="48.0728950" lon="1.7549750">
        <ele>116.8</ele>
        <time>2020-07-02T10:28:11Z</time>
      </trkpt>
      <trkpt lat="48.0728460" lon="1.7551130">
        <ele>116.8</ele>
        <time>2020-07-02T10:28:13Z</time>
      </trkpt>
      <trkpt lat="48.0725560" lon="1.7558690">
        <ele>117.2</ele>
        <time>2020-07-02T10:28:24Z</time>
      </trkpt>
      <trkpt lat="48.0724230" lon="1.7561990">
        <ele>117.4</ele>
        <time>2020-07-02T10:28:29Z</time>
      </trkpt>
      <trkpt lat="48.0721200" lon="1.7569180">
        <ele>117.8</ele>
        <time>2020-07-02T10:28:40Z</time>
      </trkpt>
      <trkpt lat="48.0719470" lon="1.7573100">
        <ele>118.0</ele>
        <time>2020-07-02T10:28:46Z</time>
      </trkpt>
      <trkpt lat="48.0716490" lon="1.7579850">
        <ele>118.2</ele>
        <time>2020-07-02T10:28:56Z</time>
      </trkpt>
      <trkpt lat="48.0716190" lon="1.7580480">
        <ele>118.2</ele>
        <time>2020-07-02T10:28:57Z</time>
      </trkpt>
      <trkpt lat="48.0712430" lon="1.7587280">
        <ele>118.6</ele>
        <time>2020-07-02T10:29:08Z</time>
      </trkpt>
      <trkpt lat="48.0711740" lon="1.7588500">
        <ele>118.4</ele>
        <time>2020-07-02T10:29:09Z</time>
      </trkpt>
      <trkpt lat="48.0711740" lon="1.7588500">
        <ele>118.6</ele>
        <time>2020-07-02T10:29:10Z</time>
      </trkpt>
      <trkpt lat="48.0708040" lon="1.7595320">
        <ele>118.8</ele>
        <time>2020-07-02T10:29:21Z</time>
      </trkpt>
      <trkpt lat="48.0707390" lon="1.7596570">
        <ele>119.0</ele>
        <time>2020-07-02T10:29:23Z</time>
      </trkpt>
      <trkpt lat="48.0703810" lon="1.7603010">
        <ele>119.2</ele>
        <time>2020-07-02T10:29:34Z</time>
      </trkpt>
      <trkpt lat="48.0702830" lon="1.7604710">
        <ele>119.2</ele>
        <time>2020-07-02T10:29:37Z</time>
      </trkpt>
      <trkpt lat="48.0702450" lon="1.7605290">
        <ele>119.0</ele>
        <time>2020-07-02T10:29:38Z</time>
      </trkpt>
      <trkpt lat="48.0699310" lon="1.7609960">
        <ele>118.4</ele>
        <time>2020-07-02T10:29:46Z</time>
      </trkpt>
      <trkpt lat="48.0695180" lon="1.7615960">
        <ele>117.8</ele>
        <time>2020-07-02T10:29:55Z</time>
      </trkpt>
      <trkpt lat="48.0693090" lon="1.7619050">
        <ele>117.4</ele>
        <time>2020-07-02T10:30:00Z</time>
      </trkpt>
      <trkpt lat="48.0689080" lon="1.7625160">
        <ele>117.2</ele>
        <time>2020-07-02T10:30:10Z</time>
      </trkpt>
      <trkpt lat="48.0688260" lon="1.7626370">
        <ele>117.2</ele>
        <time>2020-07-02T10:30:13Z</time>
      </trkpt>
      <trkpt lat="48.0684260" lon="1.7632150">
        <ele>117.2</ele>
        <time>2020-07-02T10:30:23Z</time>
      </trkpt>
      <trkpt lat="48.0682320" lon="1.7634880">
        <ele>117.4</ele>
        <time>2020-07-02T10:30:27Z</time>
      </trkpt>
      <trkpt lat="48.0682320" lon="1.7634880">
        <ele>117.4</ele>
        <time>2020-07-02T10:30:28Z</time>
      </trkpt>
      <trkpt lat="48.0679720" lon="1.7638780">
        <ele>117.6</ele>
        <time>2020-07-02T10:30:35Z</time>
      </trkpt>
      <trkpt lat="48.0676090" lon="1.7644450">
        <ele>118.2</ele>
        <time>2020-07-02T10:30:45Z</time>
      </trkpt>
      <trkpt lat="48.0672180" lon="1.7650390">
        <ele>118.6</ele>
        <time>2020-07-02T10:30:55Z</time>
      </trkpt>
      <trkpt lat="48.0670900" lon="1.7652340">
        <ele>118.6</ele>
        <time>2020-07-02T10:30:58Z</time>
      </trkpt>
      <trkpt lat="48.0669560" lon="1.7654480">
        <ele>118.4</ele>
        <time>2020-07-02T10:31:01Z</time>
      </trkpt>
      <trkpt lat="48.0667060" lon="1.7658360">
        <ele>118.4</ele>
        <time>2020-07-02T10:31:06Z</time>
      </trkpt>
      <trkpt lat="48.0663290" lon="1.7663450">
        <ele>117.8</ele>
        <time>2020-07-02T10:31:13Z</time>
      </trkpt>
      <trkpt lat="48.0661590" lon="1.7666050">
        <ele>118.0</ele>
        <time>2020-07-02T10:31:16Z</time>
      </trkpt>
      <trkpt lat="48.0660550" lon="1.7667740">
        <ele>117.8</ele>
        <time>2020-07-02T10:31:19Z</time>
      </trkpt>
      <trkpt lat="48.0658550" lon="1.7670510">
        <ele>118.4</ele>
        <time>2020-07-02T10:31:25Z</time>
      </trkpt>
      <trkpt lat="48.0657790" lon="1.7671410">
        <ele>119.0</ele>
        <time>2020-07-02T10:31:27Z</time>
      </trkpt>
      <trkpt lat="48.0653930" lon="1.7676340">
        <ele>119.6</ele>
        <time>2020-07-02T10:31:36Z</time>
      </trkpt>
      <trkpt lat="48.0652980" lon="1.7677440">
        <ele>119.6</ele>
        <time>2020-07-02T10:31:38Z</time>
      </trkpt>
      <trkpt lat="48.0648760" lon="1.7682430">
        <ele>119.2</ele>
        <time>2020-07-02T10:31:47Z</time>
      </trkpt>
      <trkpt lat="48.0644510" lon="1.7687240">
        <ele>118.8</ele>
        <time>2020-07-02T10:31:56Z</time>
      </trkpt>
      <trkpt lat="48.0639760" lon="1.7692220">
        <ele>118.8</ele>
        <time>2020-07-02T10:32:06Z</time>
      </trkpt>
      <trkpt lat="48.0636540" lon="1.7695560">
        <ele>118.6</ele>
        <time>2020-07-02T10:32:11Z</time>
      </trkpt>
      <trkpt lat="48.0631940" lon="1.7700760">
        <ele>118.6</ele>
        <time>2020-07-02T10:32:20Z</time>
      </trkpt>
      <trkpt lat="48.0631020" lon="1.7702000">
        <ele>118.4</ele>
        <time>2020-07-02T10:32:23Z</time>
      </trkpt>
      <trkpt lat="48.0627240" lon="1.7707270">
        <ele>118.6</ele>
        <time>2020-07-02T10:32:31Z</time>
      </trkpt>
      <trkpt lat="48.0625770" lon="1.7709370">
        <ele>118.4</ele>
        <time>2020-07-02T10:32:34Z</time>
      </trkpt>
      <trkpt lat="48.0621700" lon="1.7715150">
        <ele>117.8</ele>
        <time>2020-07-02T10:32:42Z</time>
      </trkpt>
      <trkpt lat="48.0620380" lon="1.7717370">
        <ele>117.4</ele>
        <time>2020-07-02T10:32:44Z</time>
      </trkpt>
      <trkpt lat="48.0616870" lon="1.7723910">
        <ele>117.4</ele>
        <time>2020-07-02T10:32:53Z</time>
      </trkpt>
      <trkpt lat="48.0613360" lon="1.7730620">
        <ele>117.8</ele>
        <time>2020-07-02T10:33:02Z</time>
      </trkpt>
      <trkpt lat="48.0611520" lon="1.7734260">
        <ele>117.8</ele>
        <time>2020-07-02T10:33:07Z</time>
      </trkpt>
      <trkpt lat="48.0607570" lon="1.7742020">
        <ele>118.6</ele>
        <time>2020-07-02T10:33:18Z</time>
      </trkpt>
      <trkpt lat="48.0605410" lon="1.7746410">
        <ele>119.0</ele>
        <time>2020-07-02T10:33:24Z</time>
      </trkpt>
      <trkpt lat="48.0604330" lon="1.7748720">
        <ele>119.4</ele>
        <time>2020-07-02T10:33:27Z</time>
      </trkpt>
      <trkpt lat="48.0601330" lon="1.7756330">
        <ele>119.6</ele>
        <time>2020-07-02T10:33:36Z</time>
      </trkpt>
      <trkpt lat="48.0598340" lon="1.7765290">
        <ele>119.6</ele>
        <time>2020-07-02T10:33:46Z</time>
      </trkpt>
      <trkpt lat="48.0598020" lon="1.7766200">
        <ele>119.6</ele>
        <time>2020-07-02T10:33:47Z</time>
      </trkpt>
      <trkpt lat="48.0595540" lon="1.7773550">
        <ele>119.4</ele>
        <time>2020-07-02T10:33:56Z</time>
      </trkpt>
      <trkpt lat="48.0592870" lon="1.7781490">
        <ele>119.6</ele>
        <time>2020-07-02T10:34:04Z</time>
      </trkpt>
      <trkpt lat="48.0590300" lon="1.7789320">
        <ele>119.8</ele>
        <time>2020-07-02T10:34:13Z</time>
      </trkpt>
      <trkpt lat="48.0589340" lon="1.7792000">
        <ele>119.8</ele>
        <time>2020-07-02T10:34:16Z</time>
      </trkpt>
      <trkpt lat="48.0586070" lon="1.7799570">
        <ele>119.8</ele>
        <time>2020-07-02T10:34:25Z</time>
      </trkpt>
      <trkpt lat="48.0584600" lon="1.7803000">
        <ele>119.8</ele>
        <time>2020-07-02T10:34:29Z</time>
      </trkpt>
      <trkpt lat="48.0581360" lon="1.7810540">
        <ele>119.6</ele>
        <time>2020-07-02T10:34:38Z</time>
      </trkpt>
      <trkpt lat="48.0580190" lon="1.7812920">
        <ele>119.4</ele>
        <time>2020-07-02T10:34:41Z</time>
      </trkpt>
      <trkpt lat="48.0578350" lon="1.7816640">
        <ele>119.2</ele>
        <time>2020-07-02T10:34:46Z</time>
      </trkpt>
      <trkpt lat="48.0575220" lon="1.7822430">
        <ele>119.2</ele>
        <time>2020-07-02T10:34:54Z</time>
      </trkpt>
      <trkpt lat="48.0571770" lon="1.7829140">
        <ele>119.8</ele>
        <time>2020-07-02T10:35:03Z</time>
      </trkpt>
      <trkpt lat="48.0570250" lon="1.7832090">
        <ele>119.8</ele>
        <time>2020-07-02T10:35:07Z</time>
      </trkpt>
      <trkpt lat="48.0569840" lon="1.7832840">
        <ele>119.8</ele>
        <time>2020-07-02T10:35:08Z</time>
      </trkpt>
      <trkpt lat="48.0566500" lon="1.7839490">
        <ele>120.2</ele>
        <time>2020-07-02T10:35:17Z</time>
      </trkpt>
      <trkpt lat="48.0566130" lon="1.7840220">
        <ele>120.4</ele>
        <time>2020-07-02T10:35:19Z</time>
      </trkpt>
      <trkpt lat="48.0562910" lon="1.7847150">
        <ele>120.8</ele>
        <time>2020-07-02T10:35:28Z</time>
      </trkpt>
      <trkpt lat="48.0562650" lon="1.7847810">
        <ele>120.8</ele>
        <time>2020-07-02T10:35:29Z</time>
      </trkpt>
      <trkpt lat="48.0560880" lon="1.7851750">
        <ele>121.4</ele>
        <time>2020-07-02T10:35:37Z</time>
      </trkpt>
      <trkpt lat="48.0559370" lon="1.7855910">
        <ele>121.6</ele>
        <time>2020-07-02T10:35:45Z</time>
      </trkpt>
      <trkpt lat="48.0559940" lon="1.7857140">
        <ele>121.6</ele>
        <time>2020-07-02T10:35:50Z</time>
      </trkpt>
      <trkpt lat="48.0560550" lon="1.7857480">
        <ele>121.6</ele>
        <time>2020-07-02T10:35:55Z</time>
      </trkpt>
      <trkpt lat="48.0560620" lon="1.7857380">
        <ele>121.4</ele>
        <time>2020-07-02T10:36:10Z</time>
      </trkpt>
      <trkpt lat="48.0560770" lon="1.7857410">
        <ele>121.4</ele>
        <time>2020-07-02T10:36:45Z</time>
      </trkpt>
      <trkpt lat="48.0560840" lon="1.7857440">
        <ele>121.2</ele>
        <time>2020-07-02T10:37:04Z</time>
      </trkpt>
      <trkpt lat="48.0560860" lon="1.7857440">
        <ele>121.4</ele>
        <time>2020-07-02T10:37:08Z</time>
      </trkpt>
      <trkpt lat="48.0560880" lon="1.7857440">
        <ele>121.4</ele>
        <time>2020-07-02T10:37:17Z</time>
      </trkpt>
      <trkpt lat="48.0560860" lon="1.7857510">
        <ele>121.4</ele>
        <time>2020-07-02T10:37:36Z</time>
      </trkpt>
      <trkpt lat="48.0560790" lon="1.7857580">
        <ele>121.2</ele>
        <time>2020-07-02T10:37:40Z</time>
      </trkpt>
      <trkpt lat="48.0560080" lon="1.7857020">
        <ele>121.2</ele>
        <time>2020-07-02T10:37:47Z</time>
      </trkpt>
      <trkpt lat="48.0559720" lon="1.7856810">
        <ele>121.4</ele>
        <time>2020-07-02T10:37:49Z</time>
      </trkpt>
      <trkpt lat="48.0558280" lon="1.7856600">
        <ele>121.4</ele>
        <time>2020-07-02T10:38:00Z</time>
      </trkpt>
      <trkpt lat="48.0558380" lon="1.7856400">
        <ele>121.6</ele>
        <time>2020-07-02T10:38:10Z</time>
      </trkpt>
      <trkpt lat="48.0558470" lon="1.7856350">
        <ele>121.6</ele>
        <time>2020-07-02T10:38:32Z</time>
      </trkpt>
      <trkpt lat="48.0558530" lon="1.7856600">
        <ele>121.4</ele>
        <time>2020-07-02T10:38:50Z</time>
      </trkpt>
      <trkpt lat="48.0558210" lon="1.7857330">
        <ele>121.4</ele>
        <time>2020-07-02T10:39:04Z</time>
      </trkpt>
      <trkpt lat="48.0556980" lon="1.7859570">
        <ele>121.4</ele>
        <time>2020-07-02T10:39:22Z</time>
      </trkpt>
      <trkpt lat="48.0556090" lon="1.7861070">
        <ele>121.4</ele>
        <time>2020-07-02T10:39:36Z</time>
      </trkpt>
      <trkpt lat="48.0555420" lon="1.7860830">
        <ele>121.4</ele>
        <time>2020-07-02T10:39:44Z</time>
      </trkpt>
      <trkpt lat="48.0554930" lon="1.7860910">
        <ele>121.2</ele>
        <time>2020-07-02T10:39:55Z</time>
      </trkpt>
      <trkpt lat="48.0554930" lon="1.7860980">
        <ele>121.2</ele>
        <time>2020-07-02T10:40:10Z</time>
      </trkpt>
      <trkpt lat="48.0554930" lon="1.7861150">
        <ele>121.2</ele>
        <time>2020-07-02T10:40:24Z</time>
      </trkpt>
      <trkpt lat="48.0555020" lon="1.7861300">
        <ele>121.2</ele>
        <time>2020-07-02T10:40:40Z</time>
      </trkpt>
      <trkpt lat="48.0555160" lon="1.7861250">
        <ele>121.2</ele>
        <time>2020-07-02T10:40:45Z</time>
      </trkpt>
      <trkpt lat="48.0555240" lon="1.7861330">
        <ele>121.2</ele>
        <time>2020-07-02T10:41:02Z</time>
      </trkpt>
      <trkpt lat="48.0555200" lon="1.7861440">
        <ele>121.0</ele>
        <time>2020-07-02T10:41:31Z</time>
      </trkpt>
      <trkpt lat="48.0555130" lon="1.7861770">
        <ele>121.0</ele>
        <time>2020-07-02T10:41:46Z</time>
      </trkpt>
      <trkpt lat="48.0555650" lon="1.7862490">
        <ele>121.0</ele>
        <time>2020-07-02T10:41:55Z</time>
      </trkpt>
      <trkpt lat="48.0555630" lon="1.7863060">
        <ele>121.4</ele>
        <time>2020-07-02T10:42:07Z</time>
      </trkpt>
      <trkpt lat="48.0555700" lon="1.7863100">
        <ele>121.4</ele>
        <time>2020-07-02T10:42:27Z</time>
      </trkpt>
      <trkpt lat="48.0555780" lon="1.7863080">
        <ele>121.4</ele>
        <time>2020-07-02T10:42:57Z</time>
      </trkpt>
      <trkpt lat="48.0555790" lon="1.7863090">
        <ele>121.2</ele>
        <time>2020-07-02T10:43:01Z</time>
      </trkpt>
      <trkpt lat="48.0555790" lon="1.7863090">
        <ele>121.4</ele>
        <time>2020-07-02T10:43:02Z</time>
      </trkpt>
      <trkpt lat="48.0555790" lon="1.7863090">
        <ele>121.2</ele>
        <time>2020-07-02T10:43:03Z</time>
      </trkpt>
      <trkpt lat="48.0555790" lon="1.7863090">
        <ele>121.2</ele>
        <time>2020-07-02T10:43:04Z</time>
      </trkpt>
      <trkpt lat="48.0555800" lon="1.7863110">
        <ele>121.2</ele>
        <time>2020-07-02T10:43:06Z</time>
      </trkpt>
      <trkpt lat="48.0555790" lon="1.7863090">
        <ele>121.2</ele>
        <time>2020-07-02T10:43:08Z</time>
      </trkpt>
      <trkpt lat="48.0555780" lon="1.7863060">
        <ele>121.2</ele>
        <time>2020-07-02T10:43:16Z</time>
      </trkpt>
      <trkpt lat="48.0555840" lon="1.7863060">
        <ele>121.4</ele>
        <time>2020-07-02T10:43:41Z</time>
      </trkpt>
      <trkpt lat="48.0555840" lon="1.7863060">
        <ele>121.4</ele>
        <time>2020-07-02T10:43:43Z</time>
      </trkpt>
      <trkpt lat="48.0555840" lon="1.7863050">
        <ele>121.4</ele>
        <time>2020-07-02T10:43:45Z</time>
      </trkpt>
      <trkpt lat="48.0555840" lon="1.7863010">
        <ele>121.6</ele>
        <time>2020-07-02T10:44:02Z</time>
      </trkpt>
      <trkpt lat="48.0555840" lon="1.7862990">
        <ele>121.8</ele>
        <time>2020-07-02T10:44:12Z</time>
      </trkpt>
      <trkpt lat="48.0555830" lon="1.7862960">
        <ele>121.8</ele>
        <time>2020-07-02T10:44:28Z</time>
      </trkpt>
      <trkpt lat="48.0555840" lon="1.7862960">
        <ele>121.8</ele>
        <time>2020-07-02T10:44:31Z</time>
      </trkpt>
      <trkpt lat="48.0555840" lon="1.7862960">
        <ele>121.8</ele>
        <time>2020-07-02T10:44:33Z</time>
      </trkpt>
      <trkpt lat="48.0555830" lon="1.7862950">
        <ele>122.0</ele>
        <time>2020-07-02T10:44:40Z</time>
      </trkpt>
      <trkpt lat="48.0555830" lon="1.7862950">
        <ele>121.8</ele>
        <time>2020-07-02T10:44:41Z</time>
      </trkpt>
      <trkpt lat="48.0555780" lon="1.7863120">
        <ele>121.6</ele>
        <time>2020-07-02T10:44:56Z</time>
      </trkpt>
      <trkpt lat="48.0555680" lon="1.7863430">
        <ele>121.6</ele>
        <time>2020-07-02T10:44:58Z</time>
      </trkpt>
      <trkpt lat="48.0555220" lon="1.7864540">
        <ele>121.4</ele>
        <time>2020-07-02T10:45:04Z</time>
      </trkpt>
      <trkpt lat="48.0554250" lon="1.7866690">
        <ele>121.4</ele>
        <time>2020-07-02T10:45:13Z</time>
      </trkpt>
      <trkpt lat="48.0553340" lon="1.7867820">
        <ele>121.4</ele>
        <time>2020-07-02T10:45:20Z</time>
      </trkpt>
      <trkpt lat="48.0552860" lon="1.7869840">
        <ele>121.2</ele>
        <time>2020-07-02T10:45:26Z</time>
      </trkpt>
      <trkpt lat="48.0551930" lon="1.7873740">
        <ele>121.2</ele>
        <time>2020-07-02T10:45:33Z</time>
      </trkpt>
      <trkpt lat="48.0551280" lon="1.7875540">
        <ele>121.0</ele>
        <time>2020-07-02T10:45:36Z</time>
      </trkpt>
      <trkpt lat="48.0550600" lon="1.7877190">
        <ele>121.0</ele>
        <time>2020-07-02T10:45:39Z</time>
      </trkpt>
      <trkpt lat="48.0550390" lon="1.7877730">
        <ele>121.0</ele>
        <time>2020-07-02T10:45:40Z</time>
      </trkpt>
      <trkpt lat="48.0548390" lon="1.7881470">
        <ele>120.8</ele>
        <time>2020-07-02T10:45:48Z</time>
      </trkpt>
      <trkpt lat="48.0546210" lon="1.7884040">
        <ele>120.6</ele>
        <time>2020-07-02T10:45:56Z</time>
      </trkpt>
      <trkpt lat="48.0543610" lon="1.7886970">
        <ele>120.6</ele>
        <time>2020-07-02T10:46:04Z</time>
      </trkpt>
      <trkpt lat="48.0543280" lon="1.7887350">
        <ele>120.6</ele>
        <time>2020-07-02T10:46:05Z</time>
      </trkpt>
      <trkpt lat="48.0541870" lon="1.7890190">
        <ele>120.6</ele>
        <time>2020-07-02T10:46:11Z</time>
      </trkpt>
      <trkpt lat="48.0540580" lon="1.7894160">
        <ele>121.0</ele>
        <time>2020-07-02T10:46:18Z</time>
      </trkpt>
      <trkpt lat="48.0539790" lon="1.7895940">
        <ele>121.0</ele>
        <time>2020-07-02T10:46:21Z</time>
      </trkpt>
      <trkpt lat="48.0538790" lon="1.7898470">
        <ele>120.8</ele>
        <time>2020-07-02T10:46:25Z</time>
      </trkpt>
      <trkpt lat="48.0538460" lon="1.7899100">
        <ele>120.8</ele>
        <time>2020-07-02T10:46:26Z</time>
      </trkpt>
      <trkpt lat="48.0536980" lon="1.7902660">
        <ele>120.6</ele>
        <time>2020-07-02T10:46:31Z</time>
      </trkpt>
      <trkpt lat="48.0536390" lon="1.7903940">
        <ele>120.6</ele>
        <time>2020-07-02T10:46:33Z</time>
      </trkpt>
      <trkpt lat="48.0534560" lon="1.7908140">
        <ele>120.2</ele>
        <time>2020-07-02T10:46:41Z</time>
      </trkpt>
      <trkpt lat="48.0532250" lon="1.7911590">
        <ele>120.4</ele>
        <time>2020-07-02T10:46:48Z</time>
      </trkpt>
      <trkpt lat="48.0531080" lon="1.7913110">
        <ele>120.4</ele>
        <time>2020-07-02T10:46:51Z</time>
      </trkpt>
      <trkpt lat="48.0529880" lon="1.7915190">
        <ele>120.4</ele>
        <time>2020-07-02T10:46:55Z</time>
      </trkpt>
      <trkpt lat="48.0527920" lon="1.7918210">
        <ele>120.2</ele>
        <time>2020-07-02T10:47:02Z</time>
      </trkpt>
      <trkpt lat="48.0527550" lon="1.7918500">
        <ele>120.0</ele>
        <time>2020-07-02T10:47:04Z</time>
      </trkpt>
      <trkpt lat="48.0527290" lon="1.7918300">
        <ele>120.0</ele>
        <time>2020-07-02T10:47:05Z</time>
      </trkpt>
      <trkpt lat="48.0525570" lon="1.7916340">
        <ele>120.0</ele>
        <time>2020-07-02T10:47:11Z</time>
      </trkpt>
      <trkpt lat="48.0523810" lon="1.7914880">
        <ele>120.0</ele>
        <time>2020-07-02T10:47:16Z</time>
      </trkpt>
      <trkpt lat="48.0522900" lon="1.7914490">
        <ele>120.2</ele>
        <time>2020-07-02T10:47:18Z</time>
      </trkpt>
      <trkpt lat="48.0519470" lon="1.7914510">
        <ele>120.2</ele>
        <time>2020-07-02T10:47:25Z</time>
      </trkpt>
      <trkpt lat="48.0515480" lon="1.7914940">
        <ele>119.8</ele>
        <time>2020-07-02T10:47:33Z</time>
      </trkpt>
      <trkpt lat="48.0514380" lon="1.7915280">
        <ele>119.8</ele>
        <time>2020-07-02T10:47:35Z</time>
      </trkpt>
      <trkpt lat="48.0513840" lon="1.7915480">
        <ele>119.6</ele>
        <time>2020-07-02T10:47:36Z</time>
      </trkpt>
      <trkpt lat="48.0512310" lon="1.7916460">
        <ele>119.4</ele>
        <time>2020-07-02T10:47:39Z</time>
      </trkpt>
      <trkpt lat="48.0510060" lon="1.7918810">
        <ele>118.4</ele>
        <time>2020-07-02T10:47:44Z</time>
      </trkpt>
      <trkpt lat="48.0509220" lon="1.7919860">
        <ele>118.0</ele>
        <time>2020-07-02T10:47:46Z</time>
      </trkpt>
      <trkpt lat="48.0507620" lon="1.7922360">
        <ele>117.6</ele>
        <time>2020-07-02T10:47:50Z</time>
      </trkpt>
      <trkpt lat="48.0506720" lon="1.7923610">
        <ele>117.4</ele>
        <time>2020-07-02T10:47:52Z</time>
      </trkpt>
      <trkpt lat="48.0506300" lon="1.7924260">
        <ele>117.4</ele>
        <time>2020-07-02T10:47:53Z</time>
      </trkpt>
      <trkpt lat="48.0502440" lon="1.7930250">
        <ele>117.4</ele>
        <time>2020-07-02T10:48:02Z</time>
      </trkpt>
      <trkpt lat="48.0501130" lon="1.7932260">
        <ele>117.2</ele>
        <time>2020-07-02T10:48:05Z</time>
      </trkpt>
      <trkpt lat="48.0499380" lon="1.7934860">
        <ele>117.0</ele>
        <time>2020-07-02T10:48:09Z</time>
      </trkpt>
      <trkpt lat="48.0497660" lon="1.7937440">
        <ele>117.0</ele>
        <time>2020-07-02T10:48:13Z</time>
      </trkpt>
      <trkpt lat="48.0493790" lon="1.7943220">
        <ele>117.2</ele>
        <time>2020-07-02T10:48:22Z</time>
      </trkpt>
      <trkpt lat="48.0492130" lon="1.7945780">
        <ele>117.2</ele>
        <time>2020-07-02T10:48:26Z</time>
      </trkpt>
      <trkpt lat="48.0487810" lon="1.7951490">
        <ele>117.4</ele>
        <time>2020-07-02T10:48:36Z</time>
      </trkpt>
      <trkpt lat="48.0486960" lon="1.7952660">
        <ele>117.4</ele>
        <time>2020-07-02T10:48:38Z</time>
      </trkpt>
      <trkpt lat="48.0482310" lon="1.7958080">
        <ele>117.4</ele>
        <time>2020-07-02T10:48:48Z</time>
      </trkpt>
      <trkpt lat="48.0478520" lon="1.7962420">
        <ele>117.2</ele>
        <time>2020-07-02T10:48:56Z</time>
      </trkpt>
      <trkpt lat="48.0478070" lon="1.7962910">
        <ele>117.4</ele>
        <time>2020-07-02T10:48:57Z</time>
      </trkpt>
      <trkpt lat="48.0475070" lon="1.7966020">
        <ele>118.4</ele>
        <time>2020-07-02T10:49:04Z</time>
      </trkpt>
      <trkpt lat="48.0473730" lon="1.7967340">
        <ele>118.8</ele>
        <time>2020-07-02T10:49:07Z</time>
      </trkpt>
      <trkpt lat="48.0469360" lon="1.7972150">
        <ele>120.0</ele>
        <time>2020-07-02T10:49:18Z</time>
      </trkpt>
      <trkpt lat="48.0468600" lon="1.7972960">
        <ele>120.0</ele>
        <time>2020-07-02T10:49:20Z</time>
      </trkpt>
      <trkpt lat="48.0467480" lon="1.7974240">
        <ele>120.2</ele>
        <time>2020-07-02T10:49:23Z</time>
      </trkpt>
      <trkpt lat="48.0464070" lon="1.7977930">
        <ele>121.0</ele>
        <time>2020-07-02T10:49:31Z</time>
      </trkpt>
      <trkpt lat="48.0461800" lon="1.7980530">
        <ele>121.0</ele>
        <time>2020-07-02T10:49:36Z</time>
      </trkpt>
      <trkpt lat="48.0458990" lon="1.7983870">
        <ele>120.6</ele>
        <time>2020-07-02T10:49:42Z</time>
      </trkpt>
      <trkpt lat="48.0454590" lon="1.7988630">
        <ele>120.6</ele>
        <time>2020-07-02T10:49:51Z</time>
      </trkpt>
      <trkpt lat="48.0453620" lon="1.7989740">
        <ele>120.6</ele>
        <time>2020-07-02T10:49:53Z</time>
      </trkpt>
      <trkpt lat="48.0448900" lon="1.7994390">
        <ele>119.0</ele>
        <time>2020-07-02T10:50:02Z</time>
      </trkpt>
      <trkpt lat="48.0446710" lon="1.7996440">
        <ele>118.6</ele>
        <time>2020-07-02T10:50:06Z</time>
      </trkpt>
      <trkpt lat="48.0444460" lon="1.7998500">
        <ele>118.4</ele>
        <time>2020-07-02T10:50:10Z</time>
      </trkpt>
      <trkpt lat="48.0439530" lon="1.8003220">
        <ele>117.6</ele>
        <time>2020-07-02T10:50:19Z</time>
      </trkpt>
      <trkpt lat="48.0438420" lon="1.8004240">
        <ele>117.4</ele>
        <time>2020-07-02T10:50:21Z</time>
      </trkpt>
      <trkpt lat="48.0435470" lon="1.8007050">
        <ele>117.0</ele>
        <time>2020-07-02T10:50:26Z</time>
      </trkpt>
      <trkpt lat="48.0434260" lon="1.8008210">
        <ele>117.0</ele>
        <time>2020-07-02T10:50:28Z</time>
      </trkpt>
      <trkpt lat="48.0429380" lon="1.8012920">
        <ele>116.8</ele>
        <time>2020-07-02T10:50:37Z</time>
      </trkpt>
      <trkpt lat="48.0428830" lon="1.8013420">
        <ele>116.6</ele>
        <time>2020-07-02T10:50:38Z</time>
      </trkpt>
      <trkpt lat="48.0426100" lon="1.8015930">
        <ele>116.2</ele>
        <time>2020-07-02T10:50:43Z</time>
      </trkpt>
      <trkpt lat="48.0424510" lon="1.8017430">
        <ele>116.2</ele>
        <time>2020-07-02T10:50:46Z</time>
      </trkpt>
      <trkpt lat="48.0419790" lon="1.8021910">
        <ele>116.0</ele>
        <time>2020-07-02T10:50:55Z</time>
      </trkpt>
      <trkpt lat="48.0419260" lon="1.8022420">
        <ele>116.0</ele>
        <time>2020-07-02T10:50:56Z</time>
      </trkpt>
      <trkpt lat="48.0416120" lon="1.8025390">
        <ele>116.0</ele>
        <time>2020-07-02T10:51:02Z</time>
      </trkpt>
      <trkpt lat="48.0413040" lon="1.8028420">
        <ele>115.8</ele>
        <time>2020-07-02T10:51:08Z</time>
      </trkpt>
      <trkpt lat="48.0408350" lon="1.8032900">
        <ele>115.4</ele>
        <time>2020-07-02T10:51:17Z</time>
      </trkpt>
      <trkpt lat="48.0405820" lon="1.8035280">
        <ele>115.4</ele>
        <time>2020-07-02T10:51:22Z</time>
      </trkpt>
      <trkpt lat="48.0401960" lon="1.8038630">
        <ele>115.4</ele>
        <time>2020-07-02T10:51:30Z</time>
      </trkpt>
      <trkpt lat="48.0400960" lon="1.8039240">
        <ele>115.4</ele>
        <time>2020-07-02T10:51:32Z</time>
      </trkpt>
      <trkpt lat="48.0400450" lon="1.8039500">
        <ele>115.4</ele>
        <time>2020-07-02T10:51:33Z</time>
      </trkpt>
      <trkpt lat="48.0399370" lon="1.8039860">
        <ele>115.4</ele>
        <time>2020-07-02T10:51:35Z</time>
      </trkpt>
      <trkpt lat="48.0396620" lon="1.8040340">
        <ele>115.6</ele>
        <time>2020-07-02T10:51:40Z</time>
      </trkpt>
      <trkpt lat="48.0391130" lon="1.8040420">
        <ele>115.8</ele>
        <time>2020-07-02T10:51:50Z</time>
      </trkpt>
      <trkpt lat="48.0389540" lon="1.8040110">
        <ele>115.8</ele>
        <time>2020-07-02T10:51:53Z</time>
      </trkpt>
      <trkpt lat="48.0387980" lon="1.8039630">
        <ele>116.0</ele>
        <time>2020-07-02T10:51:56Z</time>
      </trkpt>
      <trkpt lat="48.0386380" lon="1.8038980">
        <ele>116.0</ele>
        <time>2020-07-02T10:51:59Z</time>
      </trkpt>
      <trkpt lat="48.0381490" lon="1.8036670">
        <ele>115.6</ele>
        <time>2020-07-02T10:52:08Z</time>
      </trkpt>
      <trkpt lat="48.0377830" lon="1.8035000">
        <ele>116.0</ele>
        <time>2020-07-02T10:52:15Z</time>
      </trkpt>
      <trkpt lat="48.0376700" lon="1.8034640">
        <ele>116.0</ele>
        <time>2020-07-02T10:52:17Z</time>
      </trkpt>
      <trkpt lat="48.0375020" lon="1.8034090">
        <ele>115.6</ele>
        <time>2020-07-02T10:52:20Z</time>
      </trkpt>
      <trkpt lat="48.0371570" lon="1.8032550">
        <ele>115.6</ele>
        <time>2020-07-02T10:52:26Z</time>
      </trkpt>
      <trkpt lat="48.0370040" lon="1.8031440">
        <ele>115.2</ele>
        <time>2020-07-02T10:52:29Z</time>
      </trkpt>
      <trkpt lat="48.0367660" lon="1.8029270">
        <ele>114.8</ele>
        <time>2020-07-02T10:52:34Z</time>
      </trkpt>
      <trkpt lat="48.0362700" lon="1.8025670">
        <ele>115.0</ele>
        <time>2020-07-02T10:52:44Z</time>
      </trkpt>
      <trkpt lat="48.0362210" lon="1.8025380">
        <ele>115.2</ele>
        <time>2020-07-02T10:52:45Z</time>
      </trkpt>
      <trkpt lat="48.0357910" lon="1.8023150">
        <ele>115.2</ele>
        <time>2020-07-02T10:52:53Z</time>
      </trkpt>
      <trkpt lat="48.0354500" lon="1.8021080">
        <ele>115.0</ele>
        <time>2020-07-02T10:53:00Z</time>
      </trkpt>
      <trkpt lat="48.0351910" lon="1.8018400">
        <ele>113.8</ele>
        <time>2020-07-02T10:53:07Z</time>
      </trkpt>
      <trkpt lat="48.0348750" lon="1.8016080">
        <ele>113.8</ele>
        <time>2020-07-02T10:53:14Z</time>
      </trkpt>
      <trkpt lat="48.0348210" lon="1.8015840">
        <ele>114.0</ele>
        <time>2020-07-02T10:53:15Z</time>
      </trkpt>
      <trkpt lat="48.0344350" lon="1.8014890">
        <ele>115.4</ele>
        <time>2020-07-02T10:53:22Z</time>
      </trkpt>
      <trkpt lat="48.0338890" lon="1.8013710">
        <ele>116.0</ele>
        <time>2020-07-02T10:53:31Z</time>
      </trkpt>
      <trkpt lat="48.0334840" lon="1.8012870">
        <ele>116.0</ele>
        <time>2020-07-02T10:53:38Z</time>
      </trkpt>
      <trkpt lat="48.0330890" lon="1.8012000">
        <ele>115.8</ele>
        <time>2020-07-02T10:53:45Z</time>
      </trkpt>
      <trkpt lat="48.0328540" lon="1.8011520">
        <ele>115.4</ele>
        <time>2020-07-02T10:53:49Z</time>
      </trkpt>
      <trkpt lat="48.0327950" lon="1.8011400">
        <ele>115.4</ele>
        <time>2020-07-02T10:53:50Z</time>
      </trkpt>
      <trkpt lat="48.0325660" lon="1.8010950">
        <ele>115.0</ele>
        <time>2020-07-02T10:53:54Z</time>
      </trkpt>
      <trkpt lat="48.0324510" lon="1.8010700">
        <ele>114.6</ele>
        <time>2020-07-02T10:53:56Z</time>
      </trkpt>
      <trkpt lat="48.0320030" lon="1.8009910">
        <ele>113.8</ele>
        <time>2020-07-02T10:54:04Z</time>
      </trkpt>
      <trkpt lat="48.0318880" lon="1.8009680">
        <ele>114.0</ele>
        <time>2020-07-02T10:54:06Z</time>
      </trkpt>
      <trkpt lat="48.0313000" lon="1.8008680">
        <ele>115.0</ele>
        <time>2020-07-02T10:54:16Z</time>
      </trkpt>
      <trkpt lat="48.0308840" lon="1.8007880">
        <ele>115.2</ele>
        <time>2020-07-02T10:54:23Z</time>
      </trkpt>
      <trkpt lat="48.0305890" lon="1.8007290">
        <ele>115.4</ele>
        <time>2020-07-02T10:54:28Z</time>
      </trkpt>
      <trkpt lat="48.0302420" lon="1.8006570">
        <ele>115.2</ele>
        <time>2020-07-02T10:54:34Z</time>
      </trkpt>
      <trkpt lat="48.0300110" lon="1.8006120">
        <ele>115.2</ele>
        <time>2020-07-02T10:54:38Z</time>
      </trkpt>
      <trkpt lat="48.0299550" lon="1.8006020">
        <ele>115.2</ele>
        <time>2020-07-02T10:54:39Z</time>
      </trkpt>
      <trkpt lat="48.0298990" lon="1.8005900">
        <ele>115.2</ele>
        <time>2020-07-02T10:54:40Z</time>
      </trkpt>
      <trkpt lat="48.0295540" lon="1.8005230">
        <ele>115.4</ele>
        <time>2020-07-02T10:54:46Z</time>
      </trkpt>
      <trkpt lat="48.0291530" lon="1.8004450">
        <ele>115.4</ele>
        <time>2020-07-02T10:54:53Z</time>
      </trkpt>
      <trkpt lat="48.0285920" lon="1.8003380">
        <ele>116.0</ele>
        <time>2020-07-02T10:55:03Z</time>
      </trkpt>
      <trkpt lat="48.0282160" lon="1.8002560">
        <ele>116.6</ele>
        <time>2020-07-02T10:55:10Z</time>
      </trkpt>
      <trkpt lat="48.0276730" lon="1.8000970">
        <ele>116.6</ele>
        <time>2020-07-02T10:55:20Z</time>
      </trkpt>
      <trkpt lat="48.0274490" lon="1.8000310">
        <ele>116.6</ele>
        <time>2020-07-02T10:55:24Z</time>
      </trkpt>
      <trkpt lat="48.0273900" lon="1.8000160">
        <ele>116.4</ele>
        <time>2020-07-02T10:55:25Z</time>
      </trkpt>
      <trkpt lat="48.0268980" lon="1.7998790">
        <ele>115.8</ele>
        <time>2020-07-02T10:55:33Z</time>
      </trkpt>
      <trkpt lat="48.0267030" lon="1.7998250">
        <ele>115.2</ele>
        <time>2020-07-02T10:55:36Z</time>
      </trkpt>
      <trkpt lat="48.0265070" lon="1.7997720">
        <ele>114.8</ele>
        <time>2020-07-02T10:55:39Z</time>
      </trkpt>
      <trkpt lat="48.0264420" lon="1.7997550">
        <ele>114.6</ele>
        <time>2020-07-02T10:55:40Z</time>
      </trkpt>
      <trkpt lat="48.0258920" lon="1.7995970">
        <ele>112.8</ele>
        <time>2020-07-02T10:55:49Z</time>
      </trkpt>
      <trkpt lat="48.0258280" lon="1.7995800">
        <ele>112.6</ele>
        <time>2020-07-02T10:55:50Z</time>
      </trkpt>
      <trkpt lat="48.0257620" lon="1.7995630">
        <ele>112.4</ele>
        <time>2020-07-02T10:55:51Z</time>
      </trkpt>
      <trkpt lat="48.0256960" lon="1.7995460">
        <ele>112.4</ele>
        <time>2020-07-02T10:55:52Z</time>
      </trkpt>
      <trkpt lat="48.0252990" lon="1.7994310">
        <ele>111.6</ele>
        <time>2020-07-02T10:55:58Z</time>
      </trkpt>
      <trkpt lat="48.0250430" lon="1.7993580">
        <ele>111.4</ele>
        <time>2020-07-02T10:56:02Z</time>
      </trkpt>
      <trkpt lat="48.0249820" lon="1.7993390">
        <ele>111.2</ele>
        <time>2020-07-02T10:56:03Z</time>
      </trkpt>
      <trkpt lat="48.0249220" lon="1.7993200">
        <ele>111.2</ele>
        <time>2020-07-02T10:56:04Z</time>
      </trkpt>
      <trkpt lat="48.0246240" lon="1.7992300">
        <ele>111.0</ele>
        <time>2020-07-02T10:56:09Z</time>
      </trkpt>
      <trkpt lat="48.0245070" lon="1.7991940">
        <ele>110.8</ele>
        <time>2020-07-02T10:56:11Z</time>
      </trkpt>
      <trkpt lat="48.0244470" lon="1.7991770">
        <ele>110.8</ele>
        <time>2020-07-02T10:56:12Z</time>
      </trkpt>
      <trkpt lat="48.0241500" lon="1.7990980">
        <ele>110.8</ele>
        <time>2020-07-02T10:56:17Z</time>
      </trkpt>
      <trkpt lat="48.0240910" lon="1.7990810">
        <ele>110.8</ele>
        <time>2020-07-02T10:56:18Z</time>
      </trkpt>
      <trkpt lat="48.0235360" lon="1.7989210">
        <ele>112.0</ele>
        <time>2020-07-02T10:56:27Z</time>
      </trkpt>
      <trkpt lat="48.0232130" lon="1.7988310">
        <ele>112.0</ele>
        <time>2020-07-02T10:56:32Z</time>
      </trkpt>
      <trkpt lat="48.0230850" lon="1.7987960">
        <ele>111.8</ele>
        <time>2020-07-02T10:56:34Z</time>
      </trkpt>
      <trkpt lat="48.0227740" lon="1.7987110">
        <ele>111.8</ele>
        <time>2020-07-02T10:56:39Z</time>
      </trkpt>
      <trkpt lat="48.0222290" lon="1.7985480">
        <ele>110.6</ele>
        <time>2020-07-02T10:56:48Z</time>
      </trkpt>
      <trkpt lat="48.0218680" lon="1.7984530">
        <ele>110.0</ele>
        <time>2020-07-02T10:56:54Z</time>
      </trkpt>
      <trkpt lat="48.0212830" lon="1.7982900">
        <ele>110.2</ele>
        <time>2020-07-02T10:57:04Z</time>
      </trkpt>
      <trkpt lat="48.0212260" lon="1.7982740">
        <ele>110.2</ele>
        <time>2020-07-02T10:57:05Z</time>
      </trkpt>
      <trkpt lat="48.0211130" lon="1.7982410">
        <ele>110.4</ele>
        <time>2020-07-02T10:57:07Z</time>
      </trkpt>
      <trkpt lat="48.0206510" lon="1.7981140">
        <ele>110.4</ele>
        <time>2020-07-02T10:57:15Z</time>
      </trkpt>
      <trkpt lat="48.0204770" lon="1.7980640">
        <ele>110.4</ele>
        <time>2020-07-02T10:57:18Z</time>
      </trkpt>
      <trkpt lat="48.0203640" lon="1.7980290">
        <ele>110.4</ele>
        <time>2020-07-02T10:57:20Z</time>
      </trkpt>
      <trkpt lat="48.0200330" lon="1.7979430">
        <ele>111.0</ele>
        <time>2020-07-02T10:57:26Z</time>
      </trkpt>
      <trkpt lat="48.0198350" lon="1.7978890">
        <ele>111.4</ele>
        <time>2020-07-02T10:57:30Z</time>
      </trkpt>
      <trkpt lat="48.0196700" lon="1.7978270">
        <ele>112.0</ele>
        <time>2020-07-02T10:57:34Z</time>
      </trkpt>
      <trkpt lat="48.0196290" lon="1.7978000">
        <ele>112.0</ele>
        <time>2020-07-02T10:57:35Z</time>
      </trkpt>
      <trkpt lat="48.0195910" lon="1.7977640">
        <ele>112.2</ele>
        <time>2020-07-02T10:57:36Z</time>
      </trkpt>
      <trkpt lat="48.0195560" lon="1.7977190">
        <ele>112.2</ele>
        <time>2020-07-02T10:57:37Z</time>
      </trkpt>
      <trkpt lat="48.0194470" lon="1.7975160">
        <ele>112.4</ele>
        <time>2020-07-02T10:57:41Z</time>
      </trkpt>
      <trkpt lat="48.0192630" lon="1.7971160">
        <ele>113.2</ele>
        <time>2020-07-02T10:57:49Z</time>
      </trkpt>
      <trkpt lat="48.0189160" lon="1.7964740">
        <ele>113.6</ele>
        <time>2020-07-02T10:58:02Z</time>
      </trkpt>
      <trkpt lat="48.0188960" lon="1.7964310">
        <ele>113.8</ele>
        <time>2020-07-02T10:58:03Z</time>
      </trkpt>
      <trkpt lat="48.0188020" lon="1.7963330">
        <ele>114.0</ele>
        <time>2020-07-02T10:58:07Z</time>
      </trkpt>
      <trkpt lat="48.0187070" lon="1.7963480">
        <ele>114.2</ele>
        <time>2020-07-02T10:58:10Z</time>
      </trkpt>
      <trkpt lat="48.0186300" lon="1.7963830">
        <ele>114.2</ele>
        <time>2020-07-02T10:58:12Z</time>
      </trkpt>
      <trkpt lat="48.0183530" lon="1.7965580">
        <ele>115.6</ele>
        <time>2020-07-02T10:58:18Z</time>
      </trkpt>
      <trkpt lat="48.0180770" lon="1.7968150">
        <ele>115.6</ele>
        <time>2020-07-02T10:58:24Z</time>
      </trkpt>
      <trkpt lat="48.0180300" lon="1.7968650">
        <ele>115.6</ele>
        <time>2020-07-02T10:58:25Z</time>
      </trkpt>
      <trkpt lat="48.0178040" lon="1.7971030">
        <ele>115.6</ele>
        <time>2020-07-02T10:58:30Z</time>
      </trkpt>
      <trkpt lat="48.0177580" lon="1.7971470">
        <ele>115.4</ele>
        <time>2020-07-02T10:58:31Z</time>
      </trkpt>
      <trkpt lat="48.0176680" lon="1.7972460">
        <ele>115.4</ele>
        <time>2020-07-02T10:58:33Z</time>
      </trkpt>
      <trkpt lat="48.0175840" lon="1.7973630">
        <ele>115.4</ele>
        <time>2020-07-02T10:58:35Z</time>
      </trkpt>
      <trkpt lat="48.0174450" lon="1.7975160">
        <ele>114.6</ele>
        <time>2020-07-02T10:58:38Z</time>
      </trkpt>
      <trkpt lat="48.0171970" lon="1.7977680">
        <ele>114.4</ele>
        <time>2020-07-02T10:58:43Z</time>
      </trkpt>
      <trkpt lat="48.0170980" lon="1.7978720">
        <ele>114.2</ele>
        <time>2020-07-02T10:58:45Z</time>
      </trkpt>
      <trkpt lat="48.0170480" lon="1.7979210">
        <ele>113.8</ele>
        <time>2020-07-02T10:58:46Z</time>
      </trkpt>
      <trkpt lat="48.0167590" lon="1.7982120">
        <ele>113.2</ele>
        <time>2020-07-02T10:58:52Z</time>
      </trkpt>
      <trkpt lat="48.0166700" lon="1.7983090">
        <ele>113.4</ele>
        <time>2020-07-02T10:58:54Z</time>
      </trkpt>
      <trkpt lat="48.0165010" lon="1.7984920">
        <ele>113.4</ele>
        <time>2020-07-02T10:58:58Z</time>
      </trkpt>
      <trkpt lat="48.0162940" lon="1.7987140">
        <ele>114.0</ele>
        <time>2020-07-02T10:59:03Z</time>
      </trkpt>
      <trkpt lat="48.0159060" lon="1.7991630">
        <ele>115.8</ele>
        <time>2020-07-02T10:59:13Z</time>
      </trkpt>
      <trkpt lat="48.0158330" lon="1.7992460">
        <ele>116.0</ele>
        <time>2020-07-02T10:59:15Z</time>
      </trkpt>
      <trkpt lat="48.0155570" lon="1.7995680">
        <ele>116.8</ele>
        <time>2020-07-02T10:59:23Z</time>
      </trkpt>
      <trkpt lat="48.0155260" lon="1.7996070">
        <ele>117.0</ele>
        <time>2020-07-02T10:59:24Z</time>
      </trkpt>
      <trkpt lat="48.0153900" lon="1.7997640">
        <ele>117.6</ele>
        <time>2020-07-02T10:59:28Z</time>
      </trkpt>
      <trkpt lat="48.0149740" lon="1.8002390">
        <ele>117.8</ele>
        <time>2020-07-02T10:59:39Z</time>
      </trkpt>
      <trkpt lat="48.0147990" lon="1.8004360">
        <ele>117.8</ele>
        <time>2020-07-02T10:59:43Z</time>
      </trkpt>
      <trkpt lat="48.0145810" lon="1.8007310">
        <ele>117.8</ele>
        <time>2020-07-02T10:59:48Z</time>
      </trkpt>
      <trkpt lat="48.0144940" lon="1.8008710">
        <ele>117.4</ele>
        <time>2020-07-02T10:59:50Z</time>
      </trkpt>
      <trkpt lat="48.0142750" lon="1.8012640">
        <ele>116.8</ele>
        <time>2020-07-02T10:59:55Z</time>
      </trkpt>
      <trkpt lat="48.0139200" lon="1.8019600">
        <ele>115.8</ele>
        <time>2020-07-02T11:00:03Z</time>
      </trkpt>
      <trkpt lat="48.0137340" lon="1.8023130">
        <ele>115.4</ele>
        <time>2020-07-02T11:00:07Z</time>
      </trkpt>
      <trkpt lat="48.0133610" lon="1.8030360">
        <ele>115.0</ele>
        <time>2020-07-02T11:00:15Z</time>
      </trkpt>
      <trkpt lat="48.0133150" lon="1.8031250">
        <ele>115.0</ele>
        <time>2020-07-02T11:00:16Z</time>
      </trkpt>
      <trkpt lat="48.0129990" lon="1.8037390">
        <ele>114.4</ele>
        <time>2020-07-02T11:00:23Z</time>
      </trkpt>
      <trkpt lat="48.0127740" lon="1.8041640">
        <ele>114.2</ele>
        <time>2020-07-02T11:00:28Z</time>
      </trkpt>
      <trkpt lat="48.0124810" lon="1.8047270">
        <ele>114.4</ele>
        <time>2020-07-02T11:00:35Z</time>
      </trkpt>
      <trkpt lat="48.0121460" lon="1.8053620">
        <ele>114.4</ele>
        <time>2020-07-02T11:00:43Z</time>
      </trkpt>
      <trkpt lat="48.0120620" lon="1.8055240">
        <ele>114.4</ele>
        <time>2020-07-02T11:00:45Z</time>
      </trkpt>
      <trkpt lat="48.0118970" lon="1.8058450">
        <ele>114.2</ele>
        <time>2020-07-02T11:00:49Z</time>
      </trkpt>
      <trkpt lat="48.0115890" lon="1.8064110">
        <ele>113.8</ele>
        <time>2020-07-02T11:00:56Z</time>
      </trkpt>
      <trkpt lat="48.0113650" lon="1.8068400">
        <ele>113.8</ele>
        <time>2020-07-02T11:01:01Z</time>
      </trkpt>
      <trkpt lat="48.0113200" lon="1.8069250">
        <ele>113.6</ele>
        <time>2020-07-02T11:01:02Z</time>
      </trkpt>
      <trkpt lat="48.0109600" lon="1.8076030">
        <ele>111.8</ele>
        <time>2020-07-02T11:01:10Z</time>
      </trkpt>
      <trkpt lat="48.0107410" lon="1.8080230">
        <ele>111.2</ele>
        <time>2020-07-02T11:01:15Z</time>
      </trkpt>
      <trkpt lat="48.0106110" lon="1.8082710">
        <ele>111.0</ele>
        <time>2020-07-02T11:01:18Z</time>
      </trkpt>
      <trkpt lat="48.0105320" lon="1.8084350">
        <ele>111.0</ele>
        <time>2020-07-02T11:01:20Z</time>
      </trkpt>
      <trkpt lat="48.0104090" lon="1.8086790">
        <ele>111.0</ele>
        <time>2020-07-02T11:01:23Z</time>
      </trkpt>
      <trkpt lat="48.0102830" lon="1.8089160">
        <ele>111.0</ele>
        <time>2020-07-02T11:01:26Z</time>
      </trkpt>
      <trkpt lat="48.0101940" lon="1.8090710">
        <ele>110.8</ele>
        <time>2020-07-02T11:01:28Z</time>
      </trkpt>
      <trkpt lat="48.0099420" lon="1.8095430">
        <ele>110.4</ele>
        <time>2020-07-02T11:01:34Z</time>
      </trkpt>
      <trkpt lat="48.0096990" lon="1.8100210">
        <ele>109.4</ele>
        <time>2020-07-02T11:01:40Z</time>
      </trkpt>
      <trkpt lat="48.0096570" lon="1.8101010">
        <ele>109.4</ele>
        <time>2020-07-02T11:01:41Z</time>
      </trkpt>
      <trkpt lat="48.0096150" lon="1.8101830">
        <ele>109.4</ele>
        <time>2020-07-02T11:01:42Z</time>
      </trkpt>
      <trkpt lat="48.0092700" lon="1.8108340">
        <ele>107.4</ele>
        <time>2020-07-02T11:01:50Z</time>
      </trkpt>
      <trkpt lat="48.0092280" lon="1.8109090">
        <ele>106.4</ele>
        <time>2020-07-02T11:01:51Z</time>
      </trkpt>
      <trkpt lat="48.0090640" lon="1.8112110">
        <ele>105.4</ele>
        <time>2020-07-02T11:01:55Z</time>
      </trkpt>
      <trkpt lat="48.0089820" lon="1.8113620">
        <ele>105.4</ele>
        <time>2020-07-02T11:01:57Z</time>
      </trkpt>
      <trkpt lat="48.0089040" lon="1.8115130">
        <ele>105.4</ele>
        <time>2020-07-02T11:01:59Z</time>
      </trkpt>
      <trkpt lat="48.0085490" lon="1.8121860">
        <ele>105.8</ele>
        <time>2020-07-02T11:02:08Z</time>
      </trkpt>
      <trkpt lat="48.0085120" lon="1.8122600">
        <ele>105.8</ele>
        <time>2020-07-02T11:02:09Z</time>
      </trkpt>
      <trkpt lat="48.0082220" lon="1.8128380">
        <ele>107.0</ele>
        <time>2020-07-02T11:02:17Z</time>
      </trkpt>
      <trkpt lat="48.0080380" lon="1.8131830">
        <ele>107.0</ele>
        <time>2020-07-02T11:02:22Z</time>
      </trkpt>
      <trkpt lat="48.0078540" lon="1.8135170">
        <ele>107.6</ele>
        <time>2020-07-02T11:02:27Z</time>
      </trkpt>
      <trkpt lat="48.0076270" lon="1.8139410">
        <ele>107.6</ele>
        <time>2020-07-02T11:02:33Z</time>
      </trkpt>
      <trkpt lat="48.0073570" lon="1.8144420">
        <ele>107.2</ele>
        <time>2020-07-02T11:02:40Z</time>
      </trkpt>
      <trkpt lat="48.0070740" lon="1.8149430">
        <ele>107.0</ele>
        <time>2020-07-02T11:02:47Z</time>
      </trkpt>
      <trkpt lat="48.0069530" lon="1.8151550">
        <ele>107.2</ele>
        <time>2020-07-02T11:02:50Z</time>
      </trkpt>
      <trkpt lat="48.0066730" lon="1.8156590">
        <ele>107.0</ele>
        <time>2020-07-02T11:02:57Z</time>
      </trkpt>
      <trkpt lat="48.0063350" lon="1.8163490">
        <ele>107.0</ele>
        <time>2020-07-02T11:03:06Z</time>
      </trkpt>
      <trkpt lat="48.0062200" lon="1.8165720">
        <ele>107.2</ele>
        <time>2020-07-02T11:03:09Z</time>
      </trkpt>
      <trkpt lat="48.0058810" lon="1.8172380">
        <ele>107.4</ele>
        <time>2020-07-02T11:03:18Z</time>
      </trkpt>
      <trkpt lat="48.0057660" lon="1.8174630">
        <ele>107.2</ele>
        <time>2020-07-02T11:03:21Z</time>
      </trkpt>
      <trkpt lat="48.0053990" lon="1.8181740">
        <ele>106.8</ele>
        <time>2020-07-02T11:03:30Z</time>
      </trkpt>
      <trkpt lat="48.0051600" lon="1.8186200">
        <ele>106.4</ele>
        <time>2020-07-02T11:03:36Z</time>
      </trkpt>
      <trkpt lat="48.0048130" lon="1.8192940">
        <ele>106.4</ele>
        <time>2020-07-02T11:03:45Z</time>
      </trkpt>
      <trkpt lat="48.0046150" lon="1.8196720">
        <ele>106.6</ele>
        <time>2020-07-02T11:03:50Z</time>
      </trkpt>
      <trkpt lat="48.0042570" lon="1.8203570">
        <ele>107.2</ele>
        <time>2020-07-02T11:03:59Z</time>
      </trkpt>
      <trkpt lat="48.0040200" lon="1.8208000">
        <ele>107.2</ele>
        <time>2020-07-02T11:04:05Z</time>
      </trkpt>
      <trkpt lat="48.0039440" lon="1.8209450">
        <ele>107.2</ele>
        <time>2020-07-02T11:04:07Z</time>
      </trkpt>
      <trkpt lat="48.0036290" lon="1.8216210">
        <ele>107.2</ele>
        <time>2020-07-02T11:04:16Z</time>
      </trkpt>
      <trkpt lat="48.0034110" lon="1.8222890">
        <ele>107.4</ele>
        <time>2020-07-02T11:04:24Z</time>
      </trkpt>
      <trkpt lat="48.0031820" lon="1.8230570">
        <ele>107.4</ele>
        <time>2020-07-02T11:04:33Z</time>
      </trkpt>
      <trkpt lat="48.0030550" lon="1.8234860">
        <ele>107.6</ele>
        <time>2020-07-02T11:04:38Z</time>
      </trkpt>
      <trkpt lat="48.0028800" lon="1.8240930">
        <ele>107.4</ele>
        <time>2020-07-02T11:04:45Z</time>
      </trkpt>
      <trkpt lat="48.0027850" lon="1.8244480">
        <ele>107.6</ele>
        <time>2020-07-02T11:04:49Z</time>
      </trkpt>
      <trkpt lat="48.0025540" lon="1.8252150">
        <ele>108.4</ele>
        <time>2020-07-02T11:04:58Z</time>
      </trkpt>
      <trkpt lat="48.0025050" lon="1.8253770">
        <ele>108.4</ele>
        <time>2020-07-02T11:05:00Z</time>
      </trkpt>
      <trkpt lat="48.0024580" lon="1.8255370">
        <ele>108.6</ele>
        <time>2020-07-02T11:05:02Z</time>
      </trkpt>
      <trkpt lat="48.0022270" lon="1.8263170">
        <ele>109.8</ele>
        <time>2020-07-02T11:05:12Z</time>
      </trkpt>
      <trkpt lat="48.0021810" lon="1.8264640">
        <ele>109.8</ele>
        <time>2020-07-02T11:05:14Z</time>
      </trkpt>
      <trkpt lat="48.0021360" lon="1.8266130">
        <ele>110.0</ele>
        <time>2020-07-02T11:05:16Z</time>
      </trkpt>
      <trkpt lat="48.0020030" lon="1.8270380">
        <ele>110.4</ele>
        <time>2020-07-02T11:05:22Z</time>
      </trkpt>
      <trkpt lat="48.0019400" lon="1.8272490">
        <ele>110.6</ele>
        <time>2020-07-02T11:05:25Z</time>
      </trkpt>
      <trkpt lat="48.0019000" lon="1.8273870">
        <ele>111.0</ele>
        <time>2020-07-02T11:05:27Z</time>
      </trkpt>
      <trkpt lat="48.0017130" lon="1.8279620">
        <ele>112.6</ele>
        <time>2020-07-02T11:05:36Z</time>
      </trkpt>
      <trkpt lat="48.0015370" lon="1.8285300">
        <ele>112.8</ele>
        <time>2020-07-02T11:05:44Z</time>
      </trkpt>
      <trkpt lat="48.0015130" lon="1.8286010">
        <ele>112.8</ele>
        <time>2020-07-02T11:05:45Z</time>
      </trkpt>
      <trkpt lat="48.0013650" lon="1.8289650">
        <ele>112.8</ele>
        <time>2020-07-02T11:05:50Z</time>
      </trkpt>
      <trkpt lat="48.0012550" lon="1.8291770">
        <ele>112.2</ele>
        <time>2020-07-02T11:05:53Z</time>
      </trkpt>
      <trkpt lat="48.0010290" lon="1.8294850">
        <ele>111.2</ele>
        <time>2020-07-02T11:05:58Z</time>
      </trkpt>
      <trkpt lat="48.0009800" lon="1.8295430">
        <ele>111.4</ele>
        <time>2020-07-02T11:05:59Z</time>
      </trkpt>
      <trkpt lat="48.0005180" lon="1.8300220">
        <ele>109.8</ele>
        <time>2020-07-02T11:06:08Z</time>
      </trkpt>
      <trkpt lat="48.0004660" lon="1.8300720">
        <ele>109.6</ele>
        <time>2020-07-02T11:06:09Z</time>
      </trkpt>
      <trkpt lat="48.0000000" lon="1.8305300">
        <ele>108.8</ele>
        <time>2020-07-02T11:06:18Z</time>
      </trkpt>
      <trkpt lat="47.9999000" lon="1.8306270">
        <ele>108.6</ele>
        <time>2020-07-02T11:06:20Z</time>
      </trkpt>
      <trkpt lat="47.9994240" lon="1.8311140">
        <ele>108.6</ele>
        <time>2020-07-02T11:06:30Z</time>
      </trkpt>
      <trkpt lat="47.9992310" lon="1.8313070">
        <ele>108.8</ele>
        <time>2020-07-02T11:06:34Z</time>
      </trkpt>
      <trkpt lat="47.9987530" lon="1.8317920">
        <ele>109.8</ele>
        <time>2020-07-02T11:06:44Z</time>
      </trkpt>
      <trkpt lat="47.9986130" lon="1.8319340">
        <ele>110.0</ele>
        <time>2020-07-02T11:06:47Z</time>
      </trkpt>
      <trkpt lat="47.9981380" lon="1.8324550">
        <ele>110.4</ele>
        <time>2020-07-02T11:06:58Z</time>
      </trkpt>
      <trkpt lat="47.9980950" lon="1.8325020">
        <ele>110.4</ele>
        <time>2020-07-02T11:06:59Z</time>
      </trkpt>
      <trkpt lat="47.9980080" lon="1.8325960">
        <ele>110.6</ele>
        <time>2020-07-02T11:07:01Z</time>
      </trkpt>
      <trkpt lat="47.9978820" lon="1.8327370">
        <ele>110.6</ele>
        <time>2020-07-02T11:07:04Z</time>
      </trkpt>
      <trkpt lat="47.9976440" lon="1.8330030">
        <ele>110.6</ele>
        <time>2020-07-02T11:07:10Z</time>
      </trkpt>
      <trkpt lat="47.9976060" lon="1.8330460">
        <ele>110.6</ele>
        <time>2020-07-02T11:07:11Z</time>
      </trkpt>
      <trkpt lat="47.9971520" lon="1.8335680">
        <ele>111.4</ele>
        <time>2020-07-02T11:07:23Z</time>
      </trkpt>
      <trkpt lat="47.9971150" lon="1.8336090">
        <ele>111.4</ele>
        <time>2020-07-02T11:07:24Z</time>
      </trkpt>
      <trkpt lat="47.9970040" lon="1.8337290">
        <ele>111.8</ele>
        <time>2020-07-02T11:07:27Z</time>
      </trkpt>
      <trkpt lat="47.9968160" lon="1.8339370">
        <ele>111.8</ele>
        <time>2020-07-02T11:07:32Z</time>
      </trkpt>
      <trkpt lat="47.9965880" lon="1.8341940">
        <ele>112.2</ele>
        <time>2020-07-02T11:07:38Z</time>
      </trkpt>
      <trkpt lat="47.9963960" lon="1.8344020">
        <ele>112.8</ele>
        <time>2020-07-02T11:07:43Z</time>
      </trkpt>
      <trkpt lat="47.9962760" lon="1.8345250">
        <ele>113.0</ele>
        <time>2020-07-02T11:07:46Z</time>
      </trkpt>
      <trkpt lat="47.9960220" lon="1.8347810">
        <ele>113.4</ele>
        <time>2020-07-02T11:07:52Z</time>
      </trkpt>
      <trkpt lat="47.9959370" lon="1.8348670">
        <ele>113.4</ele>
        <time>2020-07-02T11:07:54Z</time>
      </trkpt>
      <trkpt lat="47.9958460" lon="1.8349530">
        <ele>113.4</ele>
        <time>2020-07-02T11:07:56Z</time>
      </trkpt>
      <trkpt lat="47.9957550" lon="1.8350420">
        <ele>113.2</ele>
        <time>2020-07-02T11:07:58Z</time>
      </trkpt>
      <trkpt lat="47.9955770" lon="1.8352230">
        <ele>113.0</ele>
        <time>2020-07-02T11:08:02Z</time>
      </trkpt>
      <trkpt lat="47.9953920" lon="1.8354000">
        <ele>113.0</ele>
        <time>2020-07-02T11:08:06Z</time>
      </trkpt>
      <trkpt lat="47.9949820" lon="1.8358190">
        <ele>112.6</ele>
        <time>2020-07-02T11:08:15Z</time>
      </trkpt>
      <trkpt lat="47.9947510" lon="1.8360480">
        <ele>112.6</ele>
        <time>2020-07-02T11:08:20Z</time>
      </trkpt>
      <trkpt lat="47.9946530" lon="1.8361280">
        <ele>112.6</ele>
        <time>2020-07-02T11:08:22Z</time>
      </trkpt>
      <trkpt lat="47.9943740" lon="1.8363030">
        <ele>112.6</ele>
        <time>2020-07-02T11:08:28Z</time>
      </trkpt>
      <trkpt lat="47.9941290" lon="1.8364080">
        <ele>112.8</ele>
        <time>2020-07-02T11:08:33Z</time>
      </trkpt>
      <trkpt lat="47.9938760" lon="1.8365400">
        <ele>112.8</ele>
        <time>2020-07-02T11:08:38Z</time>
      </trkpt>
      <trkpt lat="47.9938240" lon="1.8365700">
        <ele>112.8</ele>
        <time>2020-07-02T11:08:39Z</time>
      </trkpt>
      <trkpt lat="47.9933110" lon="1.8368390">
        <ele>113.0</ele>
        <time>2020-07-02T11:08:49Z</time>
      </trkpt>
      <trkpt lat="47.9932590" lon="1.8368660">
        <ele>113.0</ele>
        <time>2020-07-02T11:08:50Z</time>
      </trkpt>
      <trkpt lat="47.9931010" lon="1.8369590">
        <ele>112.8</ele>
        <time>2020-07-02T11:08:53Z</time>
      </trkpt>
      <trkpt lat="47.9929340" lon="1.8370460">
        <ele>112.8</ele>
        <time>2020-07-02T11:08:56Z</time>
      </trkpt>
      <trkpt lat="47.9928340" lon="1.8371000">
        <ele>112.8</ele>
        <time>2020-07-02T11:08:58Z</time>
      </trkpt>
      <trkpt lat="47.9927270" lon="1.8371330">
        <ele>112.6</ele>
        <time>2020-07-02T11:09:00Z</time>
      </trkpt>
      <trkpt lat="47.9926740" lon="1.8371410">
        <ele>112.6</ele>
        <time>2020-07-02T11:09:01Z</time>
      </trkpt>
      <trkpt lat="47.9924590" lon="1.8371220">
        <ele>112.2</ele>
        <time>2020-07-02T11:09:05Z</time>
      </trkpt>
      <trkpt lat="47.9924080" lon="1.8371150">
        <ele>112.4</ele>
        <time>2020-07-02T11:09:06Z</time>
      </trkpt>
      <trkpt lat="47.9918800" lon="1.8370600">
        <ele>112.2</ele>
        <time>2020-07-02T11:09:16Z</time>
      </trkpt>
      <trkpt lat="47.9914010" lon="1.8370230">
        <ele>112.6</ele>
        <time>2020-07-02T11:09:25Z</time>
      </trkpt>
      <trkpt lat="47.9908970" lon="1.8369640">
        <ele>112.2</ele>
        <time>2020-07-02T11:09:35Z</time>
      </trkpt>
      <trkpt lat="47.9906020" lon="1.8369570">
        <ele>112.4</ele>
        <time>2020-07-02T11:09:42Z</time>
      </trkpt>
      <trkpt lat="47.9905630" lon="1.8369590">
        <ele>112.6</ele>
        <time>2020-07-02T11:09:43Z</time>
      </trkpt>
      <trkpt lat="47.9904540" lon="1.8369170">
        <ele>112.6</ele>
        <time>2020-07-02T11:09:46Z</time>
      </trkpt>
      <trkpt lat="47.9904290" lon="1.8368790">
        <ele>112.6</ele>
        <time>2020-07-02T11:09:47Z</time>
      </trkpt>
      <trkpt lat="47.9904130" lon="1.8368270">
        <ele>112.6</ele>
        <time>2020-07-02T11:09:48Z</time>
      </trkpt>
      <trkpt lat="47.9903780" lon="1.8366300">
        <ele>112.6</ele>
        <time>2020-07-02T11:09:51Z</time>
      </trkpt>
      <trkpt lat="47.9903480" lon="1.8365040">
        <ele>112.4</ele>
        <time>2020-07-02T11:09:53Z</time>
      </trkpt>
      <trkpt lat="47.9902730" lon="1.8363750">
        <ele>112.0</ele>
        <time>2020-07-02T11:09:56Z</time>
      </trkpt>
      <trkpt lat="47.9901730" lon="1.8363590">
        <ele>111.6</ele>
        <time>2020-07-02T11:09:58Z</time>
      </trkpt>
      <trkpt lat="47.9900680" lon="1.8363870">
        <ele>111.6</ele>
        <time>2020-07-02T11:10:00Z</time>
      </trkpt>
      <trkpt lat="47.9897590" lon="1.8365860">
        <ele>111.2</ele>
        <time>2020-07-02T11:10:06Z</time>
      </trkpt>
      <trkpt lat="47.9896580" lon="1.8367070">
        <ele>111.2</ele>
        <time>2020-07-02T11:10:09Z</time>
      </trkpt>
      <trkpt lat="47.9896000" lon="1.8368000">
        <ele>111.2</ele>
        <time>2020-07-02T11:10:11Z</time>
      </trkpt>
      <trkpt lat="47.9894070" lon="1.8369600">
        <ele>110.6</ele>
        <time>2020-07-02T11:10:17Z</time>
      </trkpt>
      <trkpt lat="47.9892390" lon="1.8370040">
        <ele>110.0</ele>
        <time>2020-07-02T11:10:22Z</time>
      </trkpt>
      <trkpt lat="47.9891690" lon="1.8370220">
        <ele>109.8</ele>
        <time>2020-07-02T11:10:24Z</time>
      </trkpt>
      <trkpt lat="47.9888830" lon="1.8370450">
        <ele>109.4</ele>
        <time>2020-07-02T11:10:32Z</time>
      </trkpt>
      <trkpt lat="47.9887690" lon="1.8370610">
        <ele>109.4</ele>
        <time>2020-07-02T11:10:38Z</time>
      </trkpt>
      <trkpt lat="47.9887790" lon="1.8370660">
        <ele>109.2</ele>
        <time>2020-07-02T11:10:41Z</time>
      </trkpt>
      <trkpt lat="47.9887980" lon="1.8370550">
        <ele>109.2</ele>
        <time>2020-07-02T11:10:42Z</time>
      </trkpt>
      <trkpt lat="47.9889390" lon="1.8370020">
        <ele>109.4</ele>
        <time>2020-07-02T11:10:48Z</time>
      </trkpt>
      <trkpt lat="47.9891440" lon="1.8369670">
        <ele>109.6</ele>
        <time>2020-07-02T11:10:54Z</time>
      </trkpt>
      <trkpt lat="47.9893230" lon="1.8369420">
        <ele>110.0</ele>
        <time>2020-07-02T11:11:01Z</time>
      </trkpt>
      <trkpt lat="47.9894330" lon="1.8369340">
        <ele>109.8</ele>
        <time>2020-07-02T11:11:04Z</time>
      </trkpt>
      <trkpt lat="47.9895570" lon="1.8369300">
        <ele>110.4</ele>
        <time>2020-07-02T11:11:08Z</time>
      </trkpt>
      <trkpt lat="47.9896340" lon="1.8369630">
        <ele>110.6</ele>
        <time>2020-07-02T11:11:13Z</time>
      </trkpt>
      <trkpt lat="47.9896790" lon="1.8370300">
        <ele>111.2</ele>
        <time>2020-07-02T11:11:24Z</time>
      </trkpt>
      <trkpt lat="47.9896860" lon="1.8370490">
        <ele>111.2</ele>
        <time>2020-07-02T11:11:25Z</time>
      </trkpt>
      <trkpt lat="47.9897220" lon="1.8371430">
        <ele>111.2</ele>
        <time>2020-07-02T11:11:29Z</time>
      </trkpt>
      <trkpt lat="47.9897520" lon="1.8372450">
        <ele>111.4</ele>
        <time>2020-07-02T11:11:32Z</time>
      </trkpt>
      <trkpt lat="47.9897650" lon="1.8375610">
        <ele>111.6</ele>
        <time>2020-07-02T11:11:39Z</time>
      </trkpt>
      <trkpt lat="47.9897370" lon="1.8379950">
        <ele>112.4</ele>
        <time>2020-07-02T11:11:49Z</time>
      </trkpt>
      <trkpt lat="47.9897230" lon="1.8383830">
        <ele>112.2</ele>
        <time>2020-07-02T11:11:58Z</time>
      </trkpt>
      <trkpt lat="47.9897390" lon="1.8387420">
        <ele>112.2</ele>
        <time>2020-07-02T11:12:04Z</time>
      </trkpt>
      <trkpt lat="47.9897430" lon="1.8388070">
        <ele>112.0</ele>
        <time>2020-07-02T11:12:05Z</time>
      </trkpt>
      <trkpt lat="47.9897770" lon="1.8393990">
        <ele>111.0</ele>
        <time>2020-07-02T11:12:14Z</time>
      </trkpt>
      <trkpt lat="47.9898010" lon="1.8397620">
        <ele>110.6</ele>
        <time>2020-07-02T11:12:22Z</time>
      </trkpt>
      <trkpt lat="47.9898180" lon="1.8399350">
        <ele>110.6</ele>
        <time>2020-07-02T11:12:27Z</time>
      </trkpt>
      <trkpt lat="47.9898230" lon="1.8399370">
        <ele>110.4</ele>
        <time>2020-07-02T11:12:28Z</time>
      </trkpt>
      <trkpt lat="47.9898300" lon="1.8399170">
        <ele>110.4</ele>
        <time>2020-07-02T11:12:35Z</time>
      </trkpt>
      <trkpt lat="47.9898210" lon="1.8399600">
        <ele>110.2</ele>
        <time>2020-07-02T11:13:04Z</time>
      </trkpt>
      <trkpt lat="47.9898120" lon="1.8399750">
        <ele>110.4</ele>
        <time>2020-07-02T11:13:05Z</time>
      </trkpt>
      <trkpt lat="47.9897230" lon="1.8400820">
        <ele>110.2</ele>
        <time>2020-07-02T11:13:11Z</time>
      </trkpt>
      <trkpt lat="47.9895440" lon="1.8401810">
        <ele>110.2</ele>
        <time>2020-07-02T11:13:18Z</time>
      </trkpt>
      <trkpt lat="47.9894900" lon="1.8402180">
        <ele>110.2</ele>
        <time>2020-07-02T11:13:20Z</time>
      </trkpt>
      <trkpt lat="47.9891740" lon="1.8403930">
        <ele>109.4</ele>
        <time>2020-07-02T11:13:29Z</time>
      </trkpt>
      <trkpt lat="47.9891380" lon="1.8404200">
        <ele>109.0</ele>
        <time>2020-07-02T11:13:30Z</time>
      </trkpt>
      <trkpt lat="47.9889610" lon="1.8404900">
        <ele>108.8</ele>
        <time>2020-07-02T11:13:34Z</time>
      </trkpt>
      <trkpt lat="47.9888580" lon="1.8404790">
        <ele>108.8</ele>
        <time>2020-07-02T11:13:36Z</time>
      </trkpt>
      <trkpt lat="47.9888130" lon="1.8404650">
        <ele>108.6</ele>
        <time>2020-07-02T11:13:37Z</time>
      </trkpt>
      <trkpt lat="47.9887030" lon="1.8403650">
        <ele>107.8</ele>
        <time>2020-07-02T11:13:40Z</time>
      </trkpt>
      <trkpt lat="47.9886420" lon="1.8402950">
        <ele>107.4</ele>
        <time>2020-07-02T11:13:42Z</time>
      </trkpt>
      <trkpt lat="47.9885680" lon="1.8402370">
        <ele>107.2</ele>
        <time>2020-07-02T11:13:44Z</time>
      </trkpt>
      <trkpt lat="47.9885370" lon="1.8402310">
        <ele>107.4</ele>
        <time>2020-07-02T11:13:45Z</time>
      </trkpt>
      <trkpt lat="47.9884680" lon="1.8403060">
        <ele>107.4</ele>
        <time>2020-07-02T11:13:49Z</time>
      </trkpt>
      <trkpt lat="47.9883570" lon="1.8406600">
        <ele>108.2</ele>
        <time>2020-07-02T11:13:57Z</time>
      </trkpt>
      <trkpt lat="47.9882180" lon="1.8411310">
        <ele>108.2</ele>
        <time>2020-07-02T11:14:06Z</time>
      </trkpt>
      <trkpt lat="47.9880660" lon="1.8416710">
        <ele>107.6</ele>
        <time>2020-07-02T11:14:15Z</time>
      </trkpt>
      <trkpt lat="47.9879090" lon="1.8421850">
        <ele>107.6</ele>
        <time>2020-07-02T11:14:23Z</time>
      </trkpt>
      <trkpt lat="47.9878570" lon="1.8423040">
        <ele>107.6</ele>
        <time>2020-07-02T11:14:25Z</time>
      </trkpt>
      <trkpt lat="47.9877780" lon="1.8423970">
        <ele>107.6</ele>
        <time>2020-07-02T11:14:27Z</time>
      </trkpt>
      <trkpt lat="47.9877310" lon="1.8424320">
        <ele>107.6</ele>
        <time>2020-07-02T11:14:28Z</time>
      </trkpt>
      <trkpt lat="47.9875540" lon="1.8425650">
        <ele>107.6</ele>
        <time>2020-07-02T11:14:32Z</time>
      </trkpt>
      <trkpt lat="47.9873580" lon="1.8427300">
        <ele>107.4</ele>
        <time>2020-07-02T11:14:37Z</time>
      </trkpt>
      <trkpt lat="47.9870850" lon="1.8429680">
        <ele>107.0</ele>
        <time>2020-07-02T11:14:44Z</time>
      </trkpt>
      <trkpt lat="47.9865540" lon="1.8433040">
        <ele>106.8</ele>
        <time>2020-07-02T11:14:56Z</time>
      </trkpt>
      <trkpt lat="47.9862430" lon="1.8435330">
        <ele>106.8</ele>
        <time>2020-07-02T11:15:04Z</time>
      </trkpt>
      <trkpt lat="47.9861970" lon="1.8435640">
        <ele>106.8</ele>
        <time>2020-07-02T11:15:05Z</time>
      </trkpt>
      <trkpt lat="47.9861090" lon="1.8436260">
        <ele>106.8</ele>
        <time>2020-07-02T11:15:07Z</time>
      </trkpt>
      <trkpt lat="47.9857730" lon="1.8438850">
        <ele>107.0</ele>
        <time>2020-07-02T11:15:15Z</time>
      </trkpt>
      <trkpt lat="47.9856400" lon="1.8439820">
        <ele>107.0</ele>
        <time>2020-07-02T11:15:18Z</time>
      </trkpt>
      <trkpt lat="47.9853810" lon="1.8442330">
        <ele>107.2</ele>
        <time>2020-07-02T11:15:24Z</time>
      </trkpt>
      <trkpt lat="47.9853060" lon="1.8443210">
        <ele>107.0</ele>
        <time>2020-07-02T11:15:26Z</time>
      </trkpt>
      <trkpt lat="47.9852320" lon="1.8444140">
        <ele>106.8</ele>
        <time>2020-07-02T11:15:28Z</time>
      </trkpt>
      <trkpt lat="47.9850520" lon="1.8446410">
        <ele>106.8</ele>
        <time>2020-07-02T11:15:33Z</time>
      </trkpt>
      <trkpt lat="47.9848370" lon="1.8448750">
        <ele>106.8</ele>
        <time>2020-07-02T11:15:39Z</time>
      </trkpt>
      <trkpt lat="47.9847720" lon="1.8449400">
        <ele>106.8</ele>
        <time>2020-07-02T11:15:41Z</time>
      </trkpt>
      <trkpt lat="47.9847240" lon="1.8449940">
        <ele>106.8</ele>
        <time>2020-07-02T11:15:43Z</time>
      </trkpt>
      <trkpt lat="47.9846730" lon="1.8450620">
        <ele>107.2</ele>
        <time>2020-07-02T11:15:46Z</time>
      </trkpt>
      <trkpt lat="47.9846600" lon="1.8450900">
        <ele>107.2</ele>
        <time>2020-07-02T11:15:47Z</time>
      </trkpt>
      <trkpt lat="47.9846080" lon="1.8451900">
        <ele>107.8</ele>
        <time>2020-07-02T11:15:50Z</time>
      </trkpt>
      <trkpt lat="47.9845300" lon="1.8453120">
        <ele>108.2</ele>
        <time>2020-07-02T11:15:53Z</time>
      </trkpt>
      <trkpt lat="47.9842940" lon="1.8456280">
        <ele>108.4</ele>
        <time>2020-07-02T11:16:00Z</time>
      </trkpt>
      <trkpt lat="47.9839700" lon="1.8460630">
        <ele>108.4</ele>
        <time>2020-07-02T11:16:09Z</time>
      </trkpt>
      <trkpt lat="47.9838570" lon="1.8462190">
        <ele>108.4</ele>
        <time>2020-07-02T11:16:12Z</time>
      </trkpt>
      <trkpt lat="47.9836260" lon="1.8465900">
        <ele>108.6</ele>
        <time>2020-07-02T11:16:18Z</time>
      </trkpt>
      <trkpt lat="47.9832710" lon="1.8472730">
        <ele>108.6</ele>
        <time>2020-07-02T11:16:28Z</time>
      </trkpt>
      <trkpt lat="47.9832030" lon="1.8474140">
        <ele>108.8</ele>
        <time>2020-07-02T11:16:30Z</time>
      </trkpt>
      <trkpt lat="47.9828420" lon="1.8481100">
        <ele>108.8</ele>
        <time>2020-07-02T11:16:40Z</time>
      </trkpt>
      <trkpt lat="47.9824740" lon="1.8487560">
        <ele>108.6</ele>
        <time>2020-07-02T11:16:50Z</time>
      </trkpt>
      <trkpt lat="47.9821130" lon="1.8493270">
        <ele>107.6</ele>
        <time>2020-07-02T11:16:59Z</time>
      </trkpt>
      <trkpt lat="47.9820570" lon="1.8493740">
        <ele>107.6</ele>
        <time>2020-07-02T11:17:00Z</time>
      </trkpt>
      <trkpt lat="47.9819980" lon="1.8494110">
        <ele>107.6</ele>
        <time>2020-07-02T11:17:01Z</time>
      </trkpt>
      <trkpt lat="47.9817580" lon="1.8495010">
        <ele>107.4</ele>
        <time>2020-07-02T11:17:05Z</time>
      </trkpt>
      <trkpt lat="47.9813070" lon="1.8497150">
        <ele>107.0</ele>
        <time>2020-07-02T11:17:13Z</time>
      </trkpt>
      <trkpt lat="47.9812580" lon="1.8497560">
        <ele>107.0</ele>
        <time>2020-07-02T11:17:14Z</time>
      </trkpt>
      <trkpt lat="47.9810640" lon="1.8499160">
        <ele>107.0</ele>
        <time>2020-07-02T11:17:18Z</time>
      </trkpt>
      <trkpt lat="47.9808690" lon="1.8500610">
        <ele>107.0</ele>
        <time>2020-07-02T11:17:22Z</time>
      </trkpt>
      <trkpt lat="47.9803700" lon="1.8504350">
        <ele>108.2</ele>
        <time>2020-07-02T11:17:32Z</time>
      </trkpt>
      <trkpt lat="47.9801090" lon="1.8506360">
        <ele>108.6</ele>
        <time>2020-07-02T11:17:37Z</time>
      </trkpt>
      <trkpt lat="47.9795960" lon="1.8509870">
        <ele>109.0</ele>
        <time>2020-07-02T11:17:47Z</time>
      </trkpt>
      <trkpt lat="47.9794950" lon="1.8510540">
        <ele>109.2</ele>
        <time>2020-07-02T11:17:49Z</time>
      </trkpt>
      <trkpt lat="47.9791970" lon="1.8512660">
        <ele>109.2</ele>
        <time>2020-07-02T11:17:55Z</time>
      </trkpt>
      <trkpt lat="47.9789930" lon="1.8514130">
        <ele>109.0</ele>
        <time>2020-07-02T11:17:59Z</time>
      </trkpt>
      <trkpt lat="47.9788390" lon="1.8515210">
        <ele>109.0</ele>
        <time>2020-07-02T11:18:02Z</time>
      </trkpt>
      <trkpt lat="47.9786840" lon="1.8516140">
        <ele>109.2</ele>
        <time>2020-07-02T11:18:05Z</time>
      </trkpt>
      <trkpt lat="47.9784850" lon="1.8516740">
        <ele>109.0</ele>
        <time>2020-07-02T11:18:09Z</time>
      </trkpt>
      <trkpt lat="47.9783450" lon="1.8516700">
        <ele>109.2</ele>
        <time>2020-07-02T11:18:12Z</time>
      </trkpt>
      <trkpt lat="47.9782980" lon="1.8516570">
        <ele>109.0</ele>
        <time>2020-07-02T11:18:13Z</time>
      </trkpt>
      <trkpt lat="47.9782090" lon="1.8516120">
        <ele>109.0</ele>
        <time>2020-07-02T11:18:15Z</time>
      </trkpt>
      <trkpt lat="47.9781620" lon="1.8515840">
        <ele>109.0</ele>
        <time>2020-07-02T11:18:16Z</time>
      </trkpt>
      <trkpt lat="47.9780270" lon="1.8515120">
        <ele>109.0</ele>
        <time>2020-07-02T11:18:19Z</time>
      </trkpt>
      <trkpt lat="47.9779860" lon="1.8515150">
        <ele>109.2</ele>
        <time>2020-07-02T11:18:20Z</time>
      </trkpt>
      <trkpt lat="47.9779480" lon="1.8515330">
        <ele>109.6</ele>
        <time>2020-07-02T11:18:21Z</time>
      </trkpt>
      <trkpt lat="47.9778710" lon="1.8516540">
        <ele>110.0</ele>
        <time>2020-07-02T11:18:24Z</time>
      </trkpt>
      <trkpt lat="47.9777360" lon="1.8519420">
        <ele>110.6</ele>
        <time>2020-07-02T11:18:29Z</time>
      </trkpt>
      <trkpt lat="47.9776980" lon="1.8519900">
        <ele>110.8</ele>
        <time>2020-07-02T11:18:30Z</time>
      </trkpt>
      <trkpt lat="47.9773610" lon="1.8523390">
        <ele>111.0</ele>
        <time>2020-07-02T11:18:37Z</time>
      </trkpt>
      <trkpt lat="47.9772540" lon="1.8524440">
        <ele>111.2</ele>
        <time>2020-07-02T11:18:39Z</time>
      </trkpt>
      <trkpt lat="47.9770460" lon="1.8526590">
        <ele>111.0</ele>
        <time>2020-07-02T11:18:43Z</time>
      </trkpt>
      <trkpt lat="47.9767730" lon="1.8529000">
        <ele>111.0</ele>
        <time>2020-07-02T11:18:48Z</time>
      </trkpt>
      <trkpt lat="47.9762690" lon="1.8532500">
        <ele>111.0</ele>
        <time>2020-07-02T11:18:57Z</time>
      </trkpt>
      <trkpt lat="47.9762120" lon="1.8532840">
        <ele>110.8</ele>
        <time>2020-07-02T11:18:58Z</time>
      </trkpt>
      <trkpt lat="47.9757040" lon="1.8536210">
        <ele>110.8</ele>
        <time>2020-07-02T11:19:07Z</time>
      </trkpt>
      <trkpt lat="47.9754290" lon="1.8538070">
        <ele>110.8</ele>
        <time>2020-07-02T11:19:12Z</time>
      </trkpt>
      <trkpt lat="47.9751030" lon="1.8540180">
        <ele>110.6</ele>
        <time>2020-07-02T11:19:18Z</time>
      </trkpt>
      <trkpt lat="47.9745610" lon="1.8543570">
        <ele>111.0</ele>
        <time>2020-07-02T11:19:28Z</time>
      </trkpt>
      <trkpt lat="47.9743920" lon="1.8544710">
        <ele>110.8</ele>
        <time>2020-07-02T11:19:31Z</time>
      </trkpt>
      <trkpt lat="47.9740050" lon="1.8547100">
        <ele>111.0</ele>
        <time>2020-07-02T11:19:38Z</time>
      </trkpt>
      <trkpt lat="47.9738890" lon="1.8547830">
        <ele>110.4</ele>
        <time>2020-07-02T11:19:40Z</time>
      </trkpt>
      <trkpt lat="47.9735940" lon="1.8549890">
        <ele>110.0</ele>
        <time>2020-07-02T11:19:45Z</time>
      </trkpt>
      <trkpt lat="47.9731530" lon="1.8551050">
        <ele>110.0</ele>
        <time>2020-07-02T11:19:52Z</time>
      </trkpt>
      <trkpt lat="47.9727540" lon="1.8551390">
        <ele>110.2</ele>
        <time>2020-07-02T11:19:59Z</time>
      </trkpt>
      <trkpt lat="47.9726630" lon="1.8550980">
        <ele>110.2</ele>
        <time>2020-07-02T11:20:01Z</time>
      </trkpt>
      <trkpt lat="47.9725800" lon="1.8550330">
        <ele>110.4</ele>
        <time>2020-07-02T11:20:03Z</time>
      </trkpt>
      <trkpt lat="47.9725400" lon="1.8550000">
        <ele>110.4</ele>
        <time>2020-07-02T11:20:04Z</time>
      </trkpt>
      <trkpt lat="47.9724980" lon="1.8549720">
        <ele>110.4</ele>
        <time>2020-07-02T11:20:05Z</time>
      </trkpt>
      <trkpt lat="47.9724080" lon="1.8549630">
        <ele>110.6</ele>
        <time>2020-07-02T11:20:07Z</time>
      </trkpt>
      <trkpt lat="47.9723660" lon="1.8549830">
        <ele>110.4</ele>
        <time>2020-07-02T11:20:08Z</time>
      </trkpt>
      <trkpt lat="47.9723340" lon="1.8550180">
        <ele>110.8</ele>
        <time>2020-07-02T11:20:09Z</time>
      </trkpt>
      <trkpt lat="47.9722940" lon="1.8551140">
        <ele>110.8</ele>
        <time>2020-07-02T11:20:11Z</time>
      </trkpt>
      <trkpt lat="47.9722790" lon="1.8552410">
        <ele>110.8</ele>
        <time>2020-07-02T11:20:13Z</time>
      </trkpt>
      <trkpt lat="47.9722780" lon="1.8553810">
        <ele>110.8</ele>
        <time>2020-07-02T11:20:15Z</time>
      </trkpt>
      <trkpt lat="47.9722650" lon="1.8555310">
        <ele>111.0</ele>
        <time>2020-07-02T11:20:17Z</time>
      </trkpt>
      <trkpt lat="47.9722090" lon="1.8557480">
        <ele>110.8</ele>
        <time>2020-07-02T11:20:20Z</time>
      </trkpt>
      <trkpt lat="47.9720140" lon="1.8563200">
        <ele>111.0</ele>
        <time>2020-07-02T11:20:28Z</time>
      </trkpt>
      <trkpt lat="47.9719580" lon="1.8564770">
        <ele>110.8</ele>
        <time>2020-07-02T11:20:30Z</time>
      </trkpt>
      <trkpt lat="47.9718510" lon="1.8568260">
        <ele>111.2</ele>
        <time>2020-07-02T11:20:35Z</time>
      </trkpt>
      <trkpt lat="47.9718340" lon="1.8568960">
        <ele>111.2</ele>
        <time>2020-07-02T11:20:36Z</time>
      </trkpt>
      <trkpt lat="47.9717600" lon="1.8572250">
        <ele>112.6</ele>
        <time>2020-07-02T11:20:41Z</time>
      </trkpt>
      <trkpt lat="47.9716810" lon="1.8575590">
        <ele>114.0</ele>
        <time>2020-07-02T11:20:46Z</time>
      </trkpt>
      <trkpt lat="47.9715390" lon="1.8582580">
        <ele>115.4</ele>
        <time>2020-07-02T11:20:56Z</time>
      </trkpt>
      <trkpt lat="47.9713780" lon="1.8590010">
        <ele>116.0</ele>
        <time>2020-07-02T11:21:05Z</time>
      </trkpt>
      <trkpt lat="47.9712650" lon="1.8594920">
        <ele>116.0</ele>
        <time>2020-07-02T11:21:10Z</time>
      </trkpt>
      <trkpt lat="47.9711900" lon="1.8598170">
        <ele>115.8</ele>
        <time>2020-07-02T11:21:13Z</time>
      </trkpt>
      <trkpt lat="47.9711390" lon="1.8600530">
        <ele>115.6</ele>
        <time>2020-07-02T11:21:15Z</time>
      </trkpt>
      <trkpt lat="47.9711130" lon="1.8601760">
        <ele>115.4</ele>
        <time>2020-07-02T11:21:16Z</time>
      </trkpt>
      <trkpt lat="47.9710140" lon="1.8605480">
        <ele>114.4</ele>
        <time>2020-07-02T11:21:19Z</time>
      </trkpt>
      <trkpt lat="47.9708910" lon="1.8609130">
        <ele>113.6</ele>
        <time>2020-07-02T11:21:22Z</time>
      </trkpt>
      <trkpt lat="47.9707190" lon="1.8613780">
        <ele>111.2</ele>
        <time>2020-07-02T11:21:26Z</time>
      </trkpt>
      <trkpt lat="47.9706320" lon="1.8616000">
        <ele>110.4</ele>
        <time>2020-07-02T11:21:28Z</time>
      </trkpt>
      <trkpt lat="47.9703020" lon="1.8623370">
        <ele>109.4</ele>
        <time>2020-07-02T11:21:35Z</time>
      </trkpt>
      <trkpt lat="47.9700760" lon="1.8628700">
        <ele>109.2</ele>
        <time>2020-07-02T11:21:40Z</time>
      </trkpt>
      <trkpt lat="47.9697600" lon="1.8635880">
        <ele>108.8</ele>
        <time>2020-07-02T11:21:47Z</time>
      </trkpt>
      <trkpt lat="47.9697160" lon="1.8636890">
        <ele>108.6</ele>
        <time>2020-07-02T11:21:48Z</time>
      </trkpt>
      <trkpt lat="47.9694130" lon="1.8644140">
        <ele>108.2</ele>
        <time>2020-07-02T11:21:55Z</time>
      </trkpt>
      <trkpt lat="47.9691520" lon="1.8650320">
        <ele>108.2</ele>
        <time>2020-07-02T11:22:01Z</time>
      </trkpt>
      <trkpt lat="47.9689390" lon="1.8655450">
        <ele>108.4</ele>
        <time>2020-07-02T11:22:06Z</time>
      </trkpt>
      <trkpt lat="47.9687310" lon="1.8660400">
        <ele>108.8</ele>
        <time>2020-07-02T11:22:11Z</time>
      </trkpt>
      <trkpt lat="47.9686200" lon="1.8663190">
        <ele>109.0</ele>
        <time>2020-07-02T11:22:14Z</time>
      </trkpt>
      <trkpt lat="47.9684570" lon="1.8667540">
        <ele>110.2</ele>
        <time>2020-07-02T11:22:19Z</time>
      </trkpt>
      <trkpt lat="47.9684270" lon="1.8668340">
        <ele>110.2</ele>
        <time>2020-07-02T11:22:20Z</time>
      </trkpt>
      <trkpt lat="47.9683520" lon="1.8669790">
        <ele>110.4</ele>
        <time>2020-07-02T11:22:22Z</time>
      </trkpt>
      <trkpt lat="47.9682500" lon="1.8671160">
        <ele>110.6</ele>
        <time>2020-07-02T11:22:24Z</time>
      </trkpt>
      <trkpt lat="47.9679280" lon="1.8674020">
        <ele>110.2</ele>
        <time>2020-07-02T11:22:29Z</time>
      </trkpt>
      <trkpt lat="47.9676370" lon="1.8675760">
        <ele>110.0</ele>
        <time>2020-07-02T11:22:33Z</time>
      </trkpt>
      <trkpt lat="47.9673600" lon="1.8677560">
        <ele>110.0</ele>
        <time>2020-07-02T11:22:37Z</time>
      </trkpt>
      <trkpt lat="47.9668960" lon="1.8680280">
        <ele>109.4</ele>
        <time>2020-07-02T11:22:44Z</time>
      </trkpt>
      <trkpt lat="47.9664440" lon="1.8683050">
        <ele>109.4</ele>
        <time>2020-07-02T11:22:52Z</time>
      </trkpt>
      <trkpt lat="47.9662210" lon="1.8684380">
        <ele>109.4</ele>
        <time>2020-07-02T11:22:56Z</time>
      </trkpt>
      <trkpt lat="47.9659150" lon="1.8686440">
        <ele>109.4</ele>
        <time>2020-07-02T11:23:01Z</time>
      </trkpt>
      <trkpt lat="47.9656790" lon="1.8687960">
        <ele>110.0</ele>
        <time>2020-07-02T11:23:05Z</time>
      </trkpt>
      <trkpt lat="47.9651370" lon="1.8691490">
        <ele>111.0</ele>
        <time>2020-07-02T11:23:14Z</time>
      </trkpt>
      <trkpt lat="47.9649500" lon="1.8692700">
        <ele>111.0</ele>
        <time>2020-07-02T11:23:17Z</time>
      </trkpt>
      <trkpt lat="47.9643970" lon="1.8696160">
        <ele>110.6</ele>
        <time>2020-07-02T11:23:26Z</time>
      </trkpt>
      <trkpt lat="47.9643400" lon="1.8696530">
        <ele>110.4</ele>
        <time>2020-07-02T11:23:27Z</time>
      </trkpt>
      <trkpt lat="47.9638480" lon="1.8699740">
        <ele>110.2</ele>
        <time>2020-07-02T11:23:36Z</time>
      </trkpt>
      <trkpt lat="47.9637970" lon="1.8700090">
        <ele>110.2</ele>
        <time>2020-07-02T11:23:37Z</time>
      </trkpt>
      <trkpt lat="47.9636080" lon="1.8701500">
        <ele>110.4</ele>
        <time>2020-07-02T11:23:41Z</time>
      </trkpt>
      <trkpt lat="47.9633280" lon="1.8703540">
        <ele>111.6</ele>
        <time>2020-07-02T11:23:47Z</time>
      </trkpt>
      <trkpt lat="47.9631420" lon="1.8705780">
        <ele>112.6</ele>
        <time>2020-07-02T11:23:52Z</time>
      </trkpt>
      <trkpt lat="47.9631040" lon="1.8706120">
        <ele>112.6</ele>
        <time>2020-07-02T11:23:53Z</time>
      </trkpt>
      <trkpt lat="47.9629190" lon="1.8707650">
        <ele>113.6</ele>
        <time>2020-07-02T11:23:58Z</time>
      </trkpt>
      <trkpt lat="47.9628380" lon="1.8707900">
        <ele>113.4</ele>
        <time>2020-07-02T11:24:00Z</time>
      </trkpt>
      <trkpt lat="47.9627070" lon="1.8708340">
        <ele>113.4</ele>
        <time>2020-07-02T11:24:03Z</time>
      </trkpt>
      <trkpt lat="47.9625210" lon="1.8709450">
        <ele>113.6</ele>
        <time>2020-07-02T11:24:07Z</time>
      </trkpt>
      <trkpt lat="47.9623770" lon="1.8710540">
        <ele>113.6</ele>
        <time>2020-07-02T11:24:10Z</time>
      </trkpt>
      <trkpt lat="47.9622770" lon="1.8711330">
        <ele>113.6</ele>
        <time>2020-07-02T11:24:12Z</time>
      </trkpt>
      <trkpt lat="47.9619680" lon="1.8713630">
        <ele>113.4</ele>
        <time>2020-07-02T11:24:18Z</time>
      </trkpt>
      <trkpt lat="47.9617530" lon="1.8715190">
        <ele>113.4</ele>
        <time>2020-07-02T11:24:22Z</time>
      </trkpt>
      <trkpt lat="47.9612990" lon="1.8718540">
        <ele>113.0</ele>
        <time>2020-07-02T11:24:30Z</time>
      </trkpt>
      <trkpt lat="47.9610250" lon="1.8720630">
        <ele>112.4</ele>
        <time>2020-07-02T11:24:35Z</time>
      </trkpt>
      <trkpt lat="47.9608160" lon="1.8722290">
        <ele>112.2</ele>
        <time>2020-07-02T11:24:39Z</time>
      </trkpt>
      <trkpt lat="47.9605180" lon="1.8725840">
        <ele>111.8</ele>
        <time>2020-07-02T11:24:46Z</time>
      </trkpt>
      <trkpt lat="47.9602570" lon="1.8730050">
        <ele>111.4</ele>
        <time>2020-07-02T11:24:53Z</time>
      </trkpt>
      <trkpt lat="47.9602210" lon="1.8730640">
        <ele>111.6</ele>
        <time>2020-07-02T11:24:54Z</time>
      </trkpt>
      <trkpt lat="47.9599410" lon="1.8734660">
        <ele>112.0</ele>
        <time>2020-07-02T11:25:01Z</time>
      </trkpt>
      <trkpt lat="47.9597490" lon="1.8737270">
        <ele>112.4</ele>
        <time>2020-07-02T11:25:06Z</time>
      </trkpt>
      <trkpt lat="47.9597120" lon="1.8737700">
        <ele>112.6</ele>
        <time>2020-07-02T11:25:07Z</time>
      </trkpt>
      <trkpt lat="47.9596430" lon="1.8738610">
        <ele>112.8</ele>
        <time>2020-07-02T11:25:09Z</time>
      </trkpt>
      <trkpt lat="47.9594600" lon="1.8740580">
        <ele>114.4</ele>
        <time>2020-07-02T11:25:15Z</time>
      </trkpt>
      <trkpt lat="47.9592820" lon="1.8741190">
        <ele>115.8</ele>
        <time>2020-07-02T11:25:20Z</time>
      </trkpt>
      <trkpt lat="47.9592080" lon="1.8741980">
        <ele>116.2</ele>
        <time>2020-07-02T11:25:22Z</time>
      </trkpt>
      <trkpt lat="47.9591820" lon="1.8742510">
        <ele>116.2</ele>
        <time>2020-07-02T11:25:23Z</time>
      </trkpt>
      <trkpt lat="47.9591680" lon="1.8743130">
        <ele>116.2</ele>
        <time>2020-07-02T11:25:24Z</time>
      </trkpt>
      <trkpt lat="47.9591790" lon="1.8744550">
        <ele>116.4</ele>
        <time>2020-07-02T11:25:26Z</time>
      </trkpt>
      <trkpt lat="47.9592050" lon="1.8745220">
        <ele>116.4</ele>
        <time>2020-07-02T11:25:27Z</time>
      </trkpt>
      <trkpt lat="47.9592440" lon="1.8745820">
        <ele>116.4</ele>
        <time>2020-07-02T11:25:28Z</time>
      </trkpt>
      <trkpt lat="47.9593200" lon="1.8746990">
        <ele>116.6</ele>
        <time>2020-07-02T11:25:30Z</time>
      </trkpt>
      <trkpt lat="47.9593500" lon="1.8747590">
        <ele>116.6</ele>
        <time>2020-07-02T11:25:31Z</time>
      </trkpt>
      <trkpt lat="47.9593770" lon="1.8748230">
        <ele>116.6</ele>
        <time>2020-07-02T11:25:32Z</time>
      </trkpt>
      <trkpt lat="47.9594710" lon="1.8751640">
        <ele>116.6</ele>
        <time>2020-07-02T11:25:37Z</time>
      </trkpt>
      <trkpt lat="47.9594940" lon="1.8752330">
        <ele>116.6</ele>
        <time>2020-07-02T11:25:38Z</time>
      </trkpt>
      <trkpt lat="47.9596610" lon="1.8757620">
        <ele>116.2</ele>
        <time>2020-07-02T11:25:45Z</time>
      </trkpt>
      <trkpt lat="47.9596790" lon="1.8758450">
        <ele>116.0</ele>
        <time>2020-07-02T11:25:46Z</time>
      </trkpt>
      <trkpt lat="47.9598160" lon="1.8765800">
        <ele>115.0</ele>
        <time>2020-07-02T11:25:55Z</time>
      </trkpt>
      <trkpt lat="47.9599040" lon="1.8771160">
        <ele>114.8</ele>
        <time>2020-07-02T11:26:03Z</time>
      </trkpt>
      <trkpt lat="47.9599730" lon="1.8774770">
        <ele>114.8</ele>
        <time>2020-07-02T11:26:10Z</time>
      </trkpt>
      <trkpt lat="47.9600210" lon="1.8777880">
        <ele>115.0</ele>
        <time>2020-07-02T11:26:17Z</time>
      </trkpt>
      <trkpt lat="47.9601090" lon="1.8782920">
        <ele>115.2</ele>
        <time>2020-07-02T11:26:25Z</time>
      </trkpt>
      <trkpt lat="47.9601780" lon="1.8786500">
        <ele>115.6</ele>
        <time>2020-07-02T11:26:30Z</time>
      </trkpt>
      <trkpt lat="47.9602320" lon="1.8790150">
        <ele>115.6</ele>
        <time>2020-07-02T11:26:35Z</time>
      </trkpt>
      <trkpt lat="47.9602990" lon="1.8798560">
        <ele>116.4</ele>
        <time>2020-07-02T11:26:46Z</time>
      </trkpt>
      <trkpt lat="47.9602930" lon="1.8799280">
        <ele>116.4</ele>
        <time>2020-07-02T11:26:47Z</time>
      </trkpt>
      <trkpt lat="47.9602830" lon="1.8799960">
        <ele>116.4</ele>
        <time>2020-07-02T11:26:48Z</time>
      </trkpt>
      <trkpt lat="47.9602210" lon="1.8801550">
        <ele>116.6</ele>
        <time>2020-07-02T11:26:51Z</time>
      </trkpt>
      <trkpt lat="47.9601020" lon="1.8803380">
        <ele>116.6</ele>
        <time>2020-07-02T11:26:57Z</time>
      </trkpt>
      <trkpt lat="47.9600600" lon="1.8805630">
        <ele>116.8</ele>
        <time>2020-07-02T11:27:04Z</time>
      </trkpt>
      <trkpt lat="47.9600610" lon="1.8806740">
        <ele>117.0</ele>
        <time>2020-07-02T11:27:08Z</time>
      </trkpt>
      <trkpt lat="47.9600350" lon="1.8807440">
        <ele>117.0</ele>
        <time>2020-07-02T11:27:11Z</time>
      </trkpt>
      <trkpt lat="47.9600210" lon="1.8807660">
        <ele>117.2</ele>
        <time>2020-07-02T11:27:12Z</time>
      </trkpt>
      <trkpt lat="47.9599130" lon="1.8809140">
        <ele>117.4</ele>
        <time>2020-07-02T11:27:19Z</time>
      </trkpt>
      <trkpt lat="47.9597910" lon="1.8810620">
        <ele>117.2</ele>
        <time>2020-07-02T11:27:24Z</time>
      </trkpt>
      <trkpt lat="47.9597320" lon="1.8811490">
        <ele>117.0</ele>
        <time>2020-07-02T11:27:26Z</time>
      </trkpt>
      <trkpt lat="47.9594630" lon="1.8815520">
        <ele>116.2</ele>
        <time>2020-07-02T11:27:35Z</time>
      </trkpt>
      <trkpt lat="47.9592170" lon="1.8820120">
        <ele>115.6</ele>
        <time>2020-07-02T11:27:44Z</time>
      </trkpt>
      <trkpt lat="47.9590990" lon="1.8823290">
        <ele>115.4</ele>
        <time>2020-07-02T11:27:51Z</time>
      </trkpt>
      <trkpt lat="47.9590800" lon="1.8824100">
        <ele>115.4</ele>
        <time>2020-07-02T11:27:53Z</time>
      </trkpt>
      <trkpt lat="47.9590260" lon="1.8826280">
        <ele>115.8</ele>
        <time>2020-07-02T11:27:59Z</time>
      </trkpt>
      <trkpt lat="47.9589870" lon="1.8827770">
        <ele>116.0</ele>
        <time>2020-07-02T11:28:05Z</time>
      </trkpt>
      <trkpt lat="47.9589580" lon="1.8828170">
        <ele>116.4</ele>
        <time>2020-07-02T11:28:12Z</time>
      </trkpt>
      <trkpt lat="47.9589460" lon="1.8828040">
        <ele>116.4</ele>
        <time>2020-07-02T11:28:35Z</time>
      </trkpt>
      <trkpt lat="47.9589440" lon="1.8828060">
        <ele>116.4</ele>
        <time>2020-07-02T11:28:52Z</time>
      </trkpt>
      <trkpt lat="47.9589400" lon="1.8828080">
        <ele>116.4</ele>
        <time>2020-07-02T11:29:07Z</time>
      </trkpt>
      <trkpt lat="47.9589360" lon="1.8828370">
        <ele>116.0</ele>
        <time>2020-07-02T11:29:28Z</time>
      </trkpt>
      <trkpt lat="47.9589270" lon="1.8828540">
        <ele>115.8</ele>
        <time>2020-07-02T11:29:37Z</time>
      </trkpt>
      <trkpt lat="47.9589140" lon="1.8829460">
        <ele>115.8</ele>
        <time>2020-07-02T11:29:45Z</time>
      </trkpt>
      <trkpt lat="47.9588810" lon="1.8831320">
        <ele>115.8</ele>
        <time>2020-07-02T11:29:51Z</time>
      </trkpt>
      <trkpt lat="47.9587840" lon="1.8836340">
        <ele>116.0</ele>
        <time>2020-07-02T11:30:01Z</time>
      </trkpt>
      <trkpt lat="47.9587040" lon="1.8841340">
        <ele>116.0</ele>
        <time>2020-07-02T11:30:09Z</time>
      </trkpt>
      <trkpt lat="47.9586420" lon="1.8847570">
        <ele>115.6</ele>
        <time>2020-07-02T11:30:18Z</time>
      </trkpt>
      <trkpt lat="47.9586440" lon="1.8855160">
        <ele>115.4</ele>
        <time>2020-07-02T11:30:29Z</time>
      </trkpt>
      <trkpt lat="47.9587050" lon="1.8863090">
        <ele>116.0</ele>
        <time>2020-07-02T11:30:42Z</time>
      </trkpt>
      <trkpt lat="47.9587230" lon="1.8866790">
        <ele>116.0</ele>
        <time>2020-07-02T11:30:48Z</time>
      </trkpt>
      <trkpt lat="47.9587020" lon="1.8868640">
        <ele>116.0</ele>
        <time>2020-07-02T11:30:51Z</time>
      </trkpt>
      <trkpt lat="47.9585980" lon="1.8873590">
        <ele>115.6</ele>
        <time>2020-07-02T11:30:59Z</time>
      </trkpt>
      <trkpt lat="47.9583840" lon="1.8877620">
        <ele>115.4</ele>
        <time>2020-07-02T11:31:06Z</time>
      </trkpt>
      <trkpt lat="47.9583350" lon="1.8878000">
        <ele>115.4</ele>
        <time>2020-07-02T11:31:07Z</time>
      </trkpt>
      <trkpt lat="47.9581470" lon="1.8879460">
        <ele>115.4</ele>
        <time>2020-07-02T11:31:11Z</time>
      </trkpt>
      <trkpt lat="47.9577710" lon="1.8882400">
        <ele>115.4</ele>
        <time>2020-07-02T11:31:19Z</time>
      </trkpt>
      <trkpt lat="47.9576040" lon="1.8883780">
        <ele>115.6</ele>
        <time>2020-07-02T11:31:23Z</time>
      </trkpt>
      <trkpt lat="47.9574980" lon="1.8885320">
        <ele>115.8</ele>
        <time>2020-07-02T11:31:26Z</time>
      </trkpt>
      <trkpt lat="47.9574640" lon="1.8885860">
        <ele>115.8</ele>
        <time>2020-07-02T11:31:27Z</time>
      </trkpt>
      <trkpt lat="47.9572370" lon="1.8890190">
        <ele>116.2</ele>
        <time>2020-07-02T11:31:35Z</time>
      </trkpt>
      <trkpt lat="47.9571600" lon="1.8893850">
        <ele>116.6</ele>
        <time>2020-07-02T11:31:41Z</time>
      </trkpt>
      <trkpt lat="47.9571210" lon="1.8897580">
        <ele>117.0</ele>
        <time>2020-07-02T11:31:48Z</time>
      </trkpt>
      <trkpt lat="47.9570070" lon="1.8901790">
        <ele>117.4</ele>
        <time>2020-07-02T11:31:57Z</time>
      </trkpt>
      <trkpt lat="47.9568640" lon="1.8904030">
        <ele>117.4</ele>
        <time>2020-07-02T11:32:02Z</time>
      </trkpt>
      <trkpt lat="47.9568220" lon="1.8904400">
        <ele>117.4</ele>
        <time>2020-07-02T11:32:03Z</time>
      </trkpt>
      <trkpt lat="47.9567790" lon="1.8904730">
        <ele>117.4</ele>
        <time>2020-07-02T11:32:04Z</time>
      </trkpt>
      <trkpt lat="47.9566020" lon="1.8905610">
        <ele>117.2</ele>
        <time>2020-07-02T11:32:08Z</time>
      </trkpt>
      <trkpt lat="47.9565100" lon="1.8905940">
        <ele>117.2</ele>
        <time>2020-07-02T11:32:10Z</time>
      </trkpt>
      <trkpt lat="47.9559340" lon="1.8907520">
        <ele>117.8</ele>
        <time>2020-07-02T11:32:22Z</time>
      </trkpt>
      <trkpt lat="47.9553950" lon="1.8908570">
        <ele>117.8</ele>
        <time>2020-07-02T11:32:32Z</time>
      </trkpt>
      <trkpt lat="47.9553420" lon="1.8908700">
        <ele>117.8</ele>
        <time>2020-07-02T11:32:33Z</time>
      </trkpt>
      <trkpt lat="47.9549850" lon="1.8909710">
        <ele>117.2</ele>
        <time>2020-07-02T11:32:40Z</time>
      </trkpt>
      <trkpt lat="47.9547860" lon="1.8910210">
        <ele>116.8</ele>
        <time>2020-07-02T11:32:44Z</time>
      </trkpt>
      <trkpt lat="47.9546210" lon="1.8910490">
        <ele>116.0</ele>
        <time>2020-07-02T11:32:49Z</time>
      </trkpt>
      <trkpt lat="47.9545970" lon="1.8910570">
        <ele>115.8</ele>
        <time>2020-07-02T11:32:50Z</time>
      </trkpt>
      <trkpt lat="47.9543570" lon="1.8911760">
        <ele>115.0</ele>
        <time>2020-07-02T11:32:58Z</time>
      </trkpt>
      <trkpt lat="47.9542320" lon="1.8912160">
        <ele>114.6</ele>
        <time>2020-07-02T11:33:01Z</time>
      </trkpt>
      <trkpt lat="47.9539440" lon="1.8913010">
        <ele>114.2</ele>
        <time>2020-07-02T11:33:08Z</time>
      </trkpt>
      <trkpt lat="47.9537280" lon="1.8913290">
        <ele>113.6</ele>
        <time>2020-07-02T11:33:15Z</time>
      </trkpt>
      <trkpt lat="47.9537240" lon="1.8913370">
        <ele>113.8</ele>
        <time>2020-07-02T11:33:20Z</time>
      </trkpt>
      <trkpt lat="47.9536590" lon="1.8913420">
        <ele>113.8</ele>
        <time>2020-07-02T11:33:27Z</time>
      </trkpt>
      <trkpt lat="47.9535140" lon="1.8913700">
        <ele>113.6</ele>
        <time>2020-07-02T11:33:31Z</time>
      </trkpt>
      <trkpt lat="47.9534660" lon="1.8913760">
        <ele>113.8</ele>
        <time>2020-07-02T11:33:32Z</time>
      </trkpt>
      <trkpt lat="47.9531940" lon="1.8914290">
        <ele>113.4</ele>
        <time>2020-07-02T11:33:37Z</time>
      </trkpt>
      <trkpt lat="47.9527040" lon="1.8915110">
        <ele>112.0</ele>
        <time>2020-07-02T11:33:46Z</time>
      </trkpt>
      <trkpt lat="47.9525000" lon="1.8915530">
        <ele>112.0</ele>
        <time>2020-07-02T11:33:50Z</time>
      </trkpt>
      <trkpt lat="47.9523560" lon="1.8915710">
        <ele>111.8</ele>
        <time>2020-07-02T11:33:53Z</time>
      </trkpt>
      <trkpt lat="47.9523090" lon="1.8915740">
        <ele>111.8</ele>
        <time>2020-07-02T11:33:54Z</time>
      </trkpt>
      <trkpt lat="47.9519930" lon="1.8915720">
        <ele>111.4</ele>
        <time>2020-07-02T11:34:00Z</time>
      </trkpt>
      <trkpt lat="47.9519330" lon="1.8915730">
        <ele>111.2</ele>
        <time>2020-07-02T11:34:01Z</time>
      </trkpt>
      <trkpt lat="47.9514780" lon="1.8916200">
        <ele>110.2</ele>
        <time>2020-07-02T11:34:09Z</time>
      </trkpt>
      <trkpt lat="47.9509340" lon="1.8916670">
        <ele>109.4</ele>
        <time>2020-07-02T11:34:18Z</time>
      </trkpt>
      <trkpt lat="47.9508730" lon="1.8916720">
        <ele>109.6</ele>
        <time>2020-07-02T11:34:19Z</time>
      </trkpt>
      <trkpt lat="47.9504010" lon="1.8917480">
        <ele>109.4</ele>
        <time>2020-07-02T11:34:27Z</time>
      </trkpt>
      <trkpt lat="47.9503130" lon="1.8917700">
        <ele>109.4</ele>
        <time>2020-07-02T11:34:29Z</time>
      </trkpt>
      <trkpt lat="47.9502510" lon="1.8918020">
        <ele>109.4</ele>
        <time>2020-07-02T11:34:31Z</time>
      </trkpt>
      <trkpt lat="47.9501400" lon="1.8918320">
        <ele>109.4</ele>
        <time>2020-07-02T11:34:37Z</time>
      </trkpt>
      <trkpt lat="47.9500930" lon="1.8918960">
        <ele>110.2</ele>
        <time>2020-07-02T11:34:43Z</time>
      </trkpt>
      <trkpt lat="47.9500920" lon="1.8919180">
        <ele>110.2</ele>
        <time>2020-07-02T11:34:44Z</time>
      </trkpt>
      <trkpt lat="47.9501330" lon="1.8920070">
        <ele>110.4</ele>
        <time>2020-07-02T11:34:47Z</time>
      </trkpt>
      <trkpt lat="47.9502160" lon="1.8922250">
        <ele>110.4</ele>
        <time>2020-07-02T11:34:52Z</time>
      </trkpt>
      <trkpt lat="47.9502260" lon="1.8922850">
        <ele>110.2</ele>
        <time>2020-07-02T11:34:53Z</time>
      </trkpt>
      <trkpt lat="47.9502730" lon="1.8925740">
        <ele>110.0</ele>
        <time>2020-07-02T11:34:57Z</time>
      </trkpt>
      <trkpt lat="47.9503110" lon="1.8931860">
        <ele>109.6</ele>
        <time>2020-07-02T11:35:05Z</time>
      </trkpt>
      <trkpt lat="47.9503150" lon="1.8936570">
        <ele>109.4</ele>
        <time>2020-07-02T11:35:12Z</time>
      </trkpt>
      <trkpt lat="47.9502850" lon="1.8941730">
        <ele>109.6</ele>
        <time>2020-07-02T11:35:19Z</time>
      </trkpt>
      <trkpt lat="47.9502170" lon="1.8946580">
        <ele>110.4</ele>
        <time>2020-07-02T11:35:27Z</time>
      </trkpt>
      <trkpt lat="47.9501220" lon="1.8951570">
        <ele>110.6</ele>
        <time>2020-07-02T11:35:37Z</time>
      </trkpt>
      <trkpt lat="47.9501230" lon="1.8952310">
        <ele>110.6</ele>
        <time>2020-07-02T11:35:39Z</time>
      </trkpt>
      <trkpt lat="47.9501210" lon="1.8953160">
        <ele>110.8</ele>
        <time>2020-07-02T11:35:42Z</time>
      </trkpt>
      <trkpt lat="47.9500070" lon="1.8953750">
        <ele>111.4</ele>
        <time>2020-07-02T11:35:47Z</time>
      </trkpt>
      <trkpt lat="47.9499760" lon="1.8953820">
        <ele>111.2</ele>
        <time>2020-07-02T11:35:48Z</time>
      </trkpt>
      <trkpt lat="47.9497640" lon="1.8954580">
        <ele>111.4</ele>
        <time>2020-07-02T11:35:54Z</time>
      </trkpt>
      <trkpt lat="47.9497230" lon="1.8954750">
        <ele>111.4</ele>
        <time>2020-07-02T11:35:55Z</time>
      </trkpt>
      <trkpt lat="47.9495140" lon="1.8955540">
        <ele>111.0</ele>
        <time>2020-07-02T11:36:00Z</time>
      </trkpt>
      <trkpt lat="47.9494300" lon="1.8955830">
        <ele>110.8</ele>
        <time>2020-07-02T11:36:02Z</time>
      </trkpt>
      <trkpt lat="47.9492620" lon="1.8956440">
        <ele>110.6</ele>
        <time>2020-07-02T11:36:06Z</time>
      </trkpt>
      <trkpt lat="47.9491770" lon="1.8956720">
        <ele>110.4</ele>
        <time>2020-07-02T11:36:08Z</time>
      </trkpt>
      <trkpt lat="47.9489100" lon="1.8957830">
        <ele>109.8</ele>
        <time>2020-07-02T11:36:15Z</time>
      </trkpt>
      <trkpt lat="47.9483800" lon="1.8960030">
        <ele>109.8</ele>
        <time>2020-07-02T11:36:28Z</time>
      </trkpt>
      <trkpt lat="47.9479800" lon="1.8961690">
        <ele>110.2</ele>
        <time>2020-07-02T11:36:37Z</time>
      </trkpt>
      <trkpt lat="47.9478920" lon="1.8962140">
        <ele>110.2</ele>
        <time>2020-07-02T11:36:39Z</time>
      </trkpt>
      <trkpt lat="47.9477990" lon="1.8962450">
        <ele>110.2</ele>
        <time>2020-07-02T11:36:41Z</time>
      </trkpt>
      <trkpt lat="47.9473520" lon="1.8963890">
        <ele>109.6</ele>
        <time>2020-07-02T11:36:51Z</time>
      </trkpt>
      <trkpt lat="47.9472580" lon="1.8964110">
        <ele>109.8</ele>
        <time>2020-07-02T11:36:53Z</time>
      </trkpt>
      <trkpt lat="47.9470320" lon="1.8964840">
        <ele>109.6</ele>
        <time>2020-07-02T11:36:58Z</time>
      </trkpt>
      <trkpt lat="47.9469880" lon="1.8964980">
        <ele>110.0</ele>
        <time>2020-07-02T11:36:59Z</time>
      </trkpt>
      <trkpt lat="47.9468520" lon="1.8965400">
        <ele>110.0</ele>
        <time>2020-07-02T11:37:02Z</time>
      </trkpt>
      <trkpt lat="47.9466100" lon="1.8965730">
        <ele>110.8</ele>
        <time>2020-07-02T11:37:07Z</time>
      </trkpt>
      <trkpt lat="47.9463310" lon="1.8966420">
        <ele>112.0</ele>
        <time>2020-07-02T11:37:13Z</time>
      </trkpt>
      <trkpt lat="47.9459540" lon="1.8967620">
        <ele>112.6</ele>
        <time>2020-07-02T11:37:22Z</time>
      </trkpt>
      <trkpt lat="47.9457190" lon="1.8968170">
        <ele>112.6</ele>
        <time>2020-07-02T11:37:28Z</time>
      </trkpt>
      <trkpt lat="47.9456100" lon="1.8968290">
        <ele>113.0</ele>
        <time>2020-07-02T11:37:31Z</time>
      </trkpt>
      <trkpt lat="47.9452850" lon="1.8968730">
        <ele>113.6</ele>
        <time>2020-07-02T11:37:40Z</time>
      </trkpt>
      <trkpt lat="47.9451780" lon="1.8968630">
        <ele>114.0</ele>
        <time>2020-07-02T11:37:43Z</time>
      </trkpt>
      <trkpt lat="47.9451330" lon="1.8968340">
        <ele>114.0</ele>
        <time>2020-07-02T11:37:45Z</time>
      </trkpt>
      <trkpt lat="47.9451220" lon="1.8968330">
        <ele>114.0</ele>
        <time>2020-07-02T11:37:46Z</time>
      </trkpt>
      <trkpt lat="47.9450960" lon="1.8968510">
        <ele>114.4</ele>
        <time>2020-07-02T11:37:48Z</time>
      </trkpt>
      <trkpt lat="47.9450870" lon="1.8968820">
        <ele>114.4</ele>
        <time>2020-07-02T11:37:49Z</time>
      </trkpt>
      <trkpt lat="47.9450810" lon="1.8970940">
        <ele>114.8</ele>
        <time>2020-07-02T11:37:53Z</time>
      </trkpt>
      <trkpt lat="47.9451770" lon="1.8976170">
        <ele>116.6</ele>
        <time>2020-07-02T11:38:02Z</time>
      </trkpt>
      <trkpt lat="47.9452790" lon="1.8981830">
        <ele>116.6</ele>
        <time>2020-07-02T11:38:10Z</time>
      </trkpt>
      <trkpt lat="47.9452880" lon="1.8983460">
        <ele>116.8</ele>
        <time>2020-07-02T11:38:12Z</time>
      </trkpt>
      <trkpt lat="47.9452910" lon="1.8985430">
        <ele>116.6</ele>
        <time>2020-07-02T11:38:14Z</time>
      </trkpt>
      <trkpt lat="47.9452940" lon="1.8986460">
        <ele>116.4</ele>
        <time>2020-07-02T11:38:15Z</time>
      </trkpt>
      <trkpt lat="47.9453220" lon="1.8989860">
        <ele>116.2</ele>
        <time>2020-07-02T11:38:18Z</time>
      </trkpt>
      <trkpt lat="47.9453480" lon="1.8991030">
        <ele>115.8</ele>
        <time>2020-07-02T11:38:19Z</time>
      </trkpt>
      <trkpt lat="47.9453750" lon="1.8992150">
        <ele>115.4</ele>
        <time>2020-07-02T11:38:20Z</time>
      </trkpt>
      <trkpt lat="47.9454490" lon="1.8994190">
        <ele>114.6</ele>
        <time>2020-07-02T11:38:22Z</time>
      </trkpt>
      <trkpt lat="47.9455670" lon="1.8996980">
        <ele>113.6</ele>
        <time>2020-07-02T11:38:25Z</time>
      </trkpt>
      <trkpt lat="47.9458340" lon="1.9002300">
        <ele>111.8</ele>
        <time>2020-07-02T11:38:31Z</time>
      </trkpt>
      <trkpt lat="47.9461190" lon="1.9008850">
        <ele>110.6</ele>
        <time>2020-07-02T11:38:39Z</time>
      </trkpt>
      <trkpt lat="47.9461500" lon="1.9009610">
        <ele>110.8</ele>
        <time>2020-07-02T11:38:40Z</time>
      </trkpt>
      <trkpt lat="47.9461860" lon="1.9010370">
        <ele>110.6</ele>
        <time>2020-07-02T11:38:41Z</time>
      </trkpt>
      <trkpt lat="47.9464310" lon="1.9016100">
        <ele>111.0</ele>
        <time>2020-07-02T11:38:49Z</time>
      </trkpt>
      <trkpt lat="47.9464810" lon="1.9017300">
        <ele>111.0</ele>
        <time>2020-07-02T11:38:51Z</time>
      </trkpt>
      <trkpt lat="47.9465600" lon="1.9019440">
        <ele>111.2</ele>
        <time>2020-07-02T11:38:55Z</time>
      </trkpt>
      <trkpt lat="47.9465730" lon="1.9019970">
        <ele>111.4</ele>
        <time>2020-07-02T11:38:56Z</time>
      </trkpt>
      <trkpt lat="47.9465800" lon="1.9020530">
        <ele>111.2</ele>
        <time>2020-07-02T11:38:57Z</time>
      </trkpt>
      <trkpt lat="47.9465890" lon="1.9023810">
        <ele>111.4</ele>
        <time>2020-07-02T11:39:03Z</time>
      </trkpt>
      <trkpt lat="47.9465770" lon="1.9026480">
        <ele>111.8</ele>
        <time>2020-07-02T11:39:09Z</time>
      </trkpt>
      <trkpt lat="47.9465840" lon="1.9027340">
        <ele>111.8</ele>
        <time>2020-07-02T11:39:14Z</time>
      </trkpt>
      <trkpt lat="47.9465860" lon="1.9027360">
        <ele>112.2</ele>
        <time>2020-07-02T11:39:28Z</time>
      </trkpt>
      <trkpt lat="47.9465840" lon="1.9027580">
        <ele>112.2</ele>
        <time>2020-07-02T11:39:45Z</time>
      </trkpt>
      <trkpt lat="47.9465690" lon="1.9027470">
        <ele>112.4</ele>
        <time>2020-07-02T11:40:12Z</time>
      </trkpt>
      <trkpt lat="47.9465260" lon="1.9027460">
        <ele>112.4</ele>
        <time>2020-07-02T11:40:16Z</time>
      </trkpt>
      <trkpt lat="47.9464880" lon="1.9027840">
        <ele>112.4</ele>
        <time>2020-07-02T11:40:19Z</time>
      </trkpt>
      <trkpt lat="47.9463950" lon="1.9028940">
        <ele>112.4</ele>
        <time>2020-07-02T11:40:27Z</time>
      </trkpt>
      <trkpt lat="47.9462080" lon="1.9029320">
        <ele>112.2</ele>
        <time>2020-07-02T11:40:34Z</time>
      </trkpt>
      <trkpt lat="47.9459630" lon="1.9028380">
        <ele>111.4</ele>
        <time>2020-07-02T11:40:41Z</time>
      </trkpt>
      <trkpt lat="47.9456310" lon="1.9026820">
        <ele>111.4</ele>
        <time>2020-07-02T11:40:49Z</time>
      </trkpt>
      <trkpt lat="47.9453600" lon="1.9025520">
        <ele>111.2</ele>
        <time>2020-07-02T11:40:55Z</time>
      </trkpt>
      <trkpt lat="47.9452700" lon="1.9025090">
        <ele>111.2</ele>
        <time>2020-07-02T11:40:57Z</time>
      </trkpt>
      <trkpt lat="47.9450330" lon="1.9024800">
        <ele>111.2</ele>
        <time>2020-07-02T11:41:02Z</time>
      </trkpt>
      <trkpt lat="47.9447400" lon="1.9023640">
        <ele>111.2</ele>
        <time>2020-07-02T11:41:09Z</time>
      </trkpt>
      <trkpt lat="47.9446970" lon="1.9023470">
        <ele>111.4</ele>
        <time>2020-07-02T11:41:10Z</time>
      </trkpt>
      <trkpt lat="47.9446080" lon="1.9023200">
        <ele>111.2</ele>
        <time>2020-07-02T11:41:12Z</time>
      </trkpt>
      <trkpt lat="47.9445240" lon="1.9022910">
        <ele>111.4</ele>
        <time>2020-07-02T11:41:14Z</time>
      </trkpt>
      <trkpt lat="47.9443160" lon="1.9022120">
        <ele>112.0</ele>
        <time>2020-07-02T11:41:19Z</time>
      </trkpt>
      <trkpt lat="47.9437730" lon="1.9020180">
        <ele>112.4</ele>
        <time>2020-07-02T11:41:31Z</time>
      </trkpt>
      <trkpt lat="47.9436750" lon="1.9019920">
        <ele>112.6</ele>
        <time>2020-07-02T11:41:33Z</time>
      </trkpt>
      <trkpt lat="47.9432310" lon="1.9018530">
        <ele>112.6</ele>
        <time>2020-07-02T11:41:42Z</time>
      </trkpt>
      <trkpt lat="47.9431280" lon="1.9018240">
        <ele>112.4</ele>
        <time>2020-07-02T11:41:44Z</time>
      </trkpt>
      <trkpt lat="47.9426130" lon="1.9017010">
        <ele>111.2</ele>
        <time>2020-07-02T11:41:54Z</time>
      </trkpt>
      <trkpt lat="47.9424560" lon="1.9016810">
        <ele>111.0</ele>
        <time>2020-07-02T11:41:57Z</time>
      </trkpt>
      <trkpt lat="47.9424030" lon="1.9016800">
        <ele>111.0</ele>
        <time>2020-07-02T11:41:58Z</time>
      </trkpt>
      <trkpt lat="47.9422960" lon="1.9016780">
        <ele>110.8</ele>
        <time>2020-07-02T11:42:00Z</time>
      </trkpt>
      <trkpt lat="47.9422370" lon="1.9016660">
        <ele>110.8</ele>
        <time>2020-07-02T11:42:01Z</time>
      </trkpt>
      <trkpt lat="47.9421210" lon="1.9016380">
        <ele>110.6</ele>
        <time>2020-07-02T11:42:03Z</time>
      </trkpt>
      <trkpt lat="47.9419520" lon="1.9015930">
        <ele>110.4</ele>
        <time>2020-07-02T11:42:06Z</time>
      </trkpt>
      <trkpt lat="47.9418950" lon="1.9015890">
        <ele>110.4</ele>
        <time>2020-07-02T11:42:07Z</time>
      </trkpt>
      <trkpt lat="47.9418370" lon="1.9015850">
        <ele>109.8</ele>
        <time>2020-07-02T11:42:08Z</time>
      </trkpt>
      <trkpt lat="47.9415460" lon="1.9015630">
        <ele>109.0</ele>
        <time>2020-07-02T11:42:13Z</time>
      </trkpt>
      <trkpt lat="47.9414850" lon="1.9015600">
        <ele>109.0</ele>
        <time>2020-07-02T11:42:14Z</time>
      </trkpt>
      <trkpt lat="47.9411990" lon="1.9015550">
        <ele>108.2</ele>
        <time>2020-07-02T11:42:19Z</time>
      </trkpt>
      <trkpt lat="47.9410310" lon="1.9015470">
        <ele>108.0</ele>
        <time>2020-07-02T11:42:22Z</time>
      </trkpt>
      <trkpt lat="47.9406620" lon="1.9015460">
        <ele>107.4</ele>
        <time>2020-07-02T11:42:29Z</time>
      </trkpt>
      <trkpt lat="47.9405070" lon="1.9015540">
        <ele>107.2</ele>
        <time>2020-07-02T11:42:32Z</time>
      </trkpt>
      <trkpt lat="47.9402600" lon="1.9015720">
        <ele>106.8</ele>
        <time>2020-07-02T11:42:37Z</time>
      </trkpt>
      <trkpt lat="47.9400390" lon="1.9016100">
        <ele>106.6</ele>
        <time>2020-07-02T11:42:42Z</time>
      </trkpt>
      <trkpt lat="47.9397540" lon="1.9016750">
        <ele>106.8</ele>
        <time>2020-07-02T11:42:49Z</time>
      </trkpt>
      <trkpt lat="47.9396430" lon="1.9017040">
        <ele>107.0</ele>
        <time>2020-07-02T11:42:52Z</time>
      </trkpt>
      <trkpt lat="47.9395140" lon="1.9017240">
        <ele>107.2</ele>
        <time>2020-07-02T11:42:55Z</time>
      </trkpt>
      <trkpt lat="47.9394680" lon="1.9017230">
        <ele>107.0</ele>
        <time>2020-07-02T11:42:56Z</time>
      </trkpt>
      <trkpt lat="47.9393750" lon="1.9017180">
        <ele>107.0</ele>
        <time>2020-07-02T11:42:58Z</time>
      </trkpt>
      <trkpt lat="47.9392230" lon="1.9017540">
        <ele>107.2</ele>
        <time>2020-07-02T11:43:02Z</time>
      </trkpt>
      <trkpt lat="47.9391940" lon="1.9017830">
        <ele>107.2</ele>
        <time>2020-07-02T11:43:03Z</time>
      </trkpt>
      <trkpt lat="47.9391360" lon="1.9019650">
        <ele>107.4</ele>
        <time>2020-07-02T11:43:07Z</time>
      </trkpt>
      <trkpt lat="47.9390630" lon="1.9023820">
        <ele>108.4</ele>
        <time>2020-07-02T11:43:14Z</time>
      </trkpt>
      <trkpt lat="47.9390520" lon="1.9024470">
        <ele>108.6</ele>
        <time>2020-07-02T11:43:15Z</time>
      </trkpt>
      <trkpt lat="47.9390360" lon="1.9025080">
        <ele>108.6</ele>
        <time>2020-07-02T11:43:16Z</time>
      </trkpt>
      <trkpt lat="47.9389180" lon="1.9028040">
        <ele>109.0</ele>
        <time>2020-07-02T11:43:21Z</time>
      </trkpt>
      <trkpt lat="47.9386250" lon="1.9032570">
        <ele>109.4</ele>
        <time>2020-07-02T11:43:30Z</time>
      </trkpt>
      <trkpt lat="47.9385170" lon="1.9034020">
        <ele>109.4</ele>
        <time>2020-07-02T11:43:33Z</time>
      </trkpt>
      <trkpt lat="47.9383080" lon="1.9037180">
        <ele>109.4</ele>
        <time>2020-07-02T11:43:39Z</time>
      </trkpt>
      <trkpt lat="47.9382130" lon="1.9038820">
        <ele>109.4</ele>
        <time>2020-07-02T11:43:42Z</time>
      </trkpt>
      <trkpt lat="47.9380390" lon="1.9042650">
        <ele>109.4</ele>
        <time>2020-07-02T11:43:48Z</time>
      </trkpt>
      <trkpt lat="47.9379260" lon="1.9045110">
        <ele>109.0</ele>
        <time>2020-07-02T11:43:52Z</time>
      </trkpt>
      <trkpt lat="47.9378460" lon="1.9045620">
        <ele>109.0</ele>
        <time>2020-07-02T11:43:54Z</time>
      </trkpt>
      <trkpt lat="47.9378020" lon="1.9045490">
        <ele>109.0</ele>
        <time>2020-07-02T11:43:55Z</time>
      </trkpt>
      <trkpt lat="47.9377570" lon="1.9045220">
        <ele>108.8</ele>
        <time>2020-07-02T11:43:56Z</time>
      </trkpt>
      <trkpt lat="47.9377090" lon="1.9044870">
        <ele>108.6</ele>
        <time>2020-07-02T11:43:57Z</time>
      </trkpt>
      <trkpt lat="47.9375670" lon="1.9043510">
        <ele>108.4</ele>
        <time>2020-07-02T11:44:00Z</time>
      </trkpt>
      <trkpt lat="47.9373850" lon="1.9041510">
        <ele>107.2</ele>
        <time>2020-07-02T11:44:04Z</time>
      </trkpt>
      <trkpt lat="47.9372030" lon="1.9039500">
        <ele>106.2</ele>
        <time>2020-07-02T11:44:08Z</time>
      </trkpt>
      <trkpt lat="47.9371090" lon="1.9038510">
        <ele>106.0</ele>
        <time>2020-07-02T11:44:10Z</time>
      </trkpt>
      <trkpt lat="47.9370070" lon="1.9037900">
        <ele>105.8</ele>
        <time>2020-07-02T11:44:12Z</time>
      </trkpt>
      <trkpt lat="47.9366720" lon="1.9037050">
        <ele>105.6</ele>
        <time>2020-07-02T11:44:18Z</time>
      </trkpt>
      <trkpt lat="47.9365560" lon="1.9036990">
        <ele>105.4</ele>
        <time>2020-07-02T11:44:20Z</time>
      </trkpt>
      <trkpt lat="47.9360010" lon="1.9036620">
        <ele>104.4</ele>
        <time>2020-07-02T11:44:30Z</time>
      </trkpt>
      <trkpt lat="47.9355010" lon="1.9036990">
        <ele>104.2</ele>
        <time>2020-07-02T11:44:39Z</time>
      </trkpt>
      <trkpt lat="47.9351800" lon="1.9037850">
        <ele>104.0</ele>
        <time>2020-07-02T11:44:45Z</time>
      </trkpt>
      <trkpt lat="47.9350040" lon="1.9038250">
        <ele>103.6</ele>
        <time>2020-07-02T11:44:48Z</time>
      </trkpt>
      <trkpt lat="47.9348720" lon="1.9038500">
        <ele>103.0</ele>
        <time>2020-07-02T11:44:50Z</time>
      </trkpt>
      <trkpt lat="47.9346440" lon="1.9038990">
        <ele>102.4</ele>
        <time>2020-07-02T11:44:54Z</time>
      </trkpt>
      <trkpt lat="47.9345220" lon="1.9039220">
        <ele>102.0</ele>
        <time>2020-07-02T11:44:57Z</time>
      </trkpt>
      <trkpt lat="47.9344590" lon="1.9039120">
        <ele>101.8</ele>
        <time>2020-07-02T11:44:59Z</time>
      </trkpt>
      <trkpt lat="47.9343940" lon="1.9038310">
        <ele>101.6</ele>
        <time>2020-07-02T11:45:02Z</time>
      </trkpt>
      <trkpt lat="47.9343870" lon="1.9037840">
        <ele>101.4</ele>
        <time>2020-07-02T11:45:03Z</time>
      </trkpt>
      <trkpt lat="47.9343510" lon="1.9034720">
        <ele>101.4</ele>
        <time>2020-07-02T11:45:09Z</time>
      </trkpt>
      <trkpt lat="47.9343480" lon="1.9033930">
        <ele>101.2</ele>
        <time>2020-07-02T11:45:13Z</time>
      </trkpt>
      <trkpt lat="47.9343520" lon="1.9033900">
        <ele>101.8</ele>
        <time>2020-07-02T11:45:24Z</time>
      </trkpt>
      <trkpt lat="47.9343220" lon="1.9033600">
        <ele>101.8</ele>
        <time>2020-07-02T11:45:28Z</time>
      </trkpt>
      <trkpt lat="47.9342840" lon="1.9033520">
        <ele>101.8</ele>
        <time>2020-07-02T11:45:30Z</time>
      </trkpt>
      <trkpt lat="47.9342340" lon="1.9033590">
        <ele>101.8</ele>
        <time>2020-07-02T11:45:32Z</time>
      </trkpt>
      <trkpt lat="47.9341690" lon="1.9033830">
        <ele>101.8</ele>
        <time>2020-07-02T11:45:34Z</time>
      </trkpt>
      <trkpt lat="47.9339790" lon="1.9034530">
        <ele>102.0</ele>
        <time>2020-07-02T11:45:39Z</time>
      </trkpt>
      <trkpt lat="47.9338600" lon="1.9034880">
        <ele>102.4</ele>
        <time>2020-07-02T11:45:42Z</time>
      </trkpt>
      <trkpt lat="47.9333960" lon="1.9036850">
        <ele>102.6</ele>
        <time>2020-07-02T11:45:53Z</time>
      </trkpt>
      <trkpt lat="47.9328630" lon="1.9039310">
        <ele>103.2</ele>
        <time>2020-07-02T11:46:05Z</time>
      </trkpt>
      <trkpt lat="47.9323740" lon="1.9041660">
        <ele>103.6</ele>
        <time>2020-07-02T11:46:15Z</time>
      </trkpt>
      <trkpt lat="47.9318580" lon="1.9043850">
        <ele>104.4</ele>
        <time>2020-07-02T11:46:25Z</time>
      </trkpt>
      <trkpt lat="47.9318110" lon="1.9044060">
        <ele>104.4</ele>
        <time>2020-07-02T11:46:26Z</time>
      </trkpt>
      <trkpt lat="47.9313210" lon="1.9046000">
        <ele>104.8</ele>
        <time>2020-07-02T11:46:36Z</time>
      </trkpt>
      <trkpt lat="47.9310850" lon="1.9046960">
        <ele>105.4</ele>
        <time>2020-07-02T11:46:41Z</time>
      </trkpt>
      <trkpt lat="47.9308780" lon="1.9047840">
        <ele>105.4</ele>
        <time>2020-07-02T11:46:45Z</time>
      </trkpt>
      <trkpt lat="47.9306060" lon="1.9049100">
        <ele>105.0</ele>
        <time>2020-07-02T11:46:50Z</time>
      </trkpt>
      <trkpt lat="47.9302860" lon="1.9050630">
        <ele>103.8</ele>
        <time>2020-07-02T11:46:56Z</time>
      </trkpt>
      <trkpt lat="47.9302310" lon="1.9050850">
        <ele>103.6</ele>
        <time>2020-07-02T11:46:57Z</time>
      </trkpt>
      <trkpt lat="47.9298650" lon="1.9052610">
        <ele>102.6</ele>
        <time>2020-07-02T11:47:04Z</time>
      </trkpt>
      <trkpt lat="47.9297100" lon="1.9053530">
        <ele>102.6</ele>
        <time>2020-07-02T11:47:07Z</time>
      </trkpt>
      <trkpt lat="47.9294940" lon="1.9054840">
        <ele>102.6</ele>
        <time>2020-07-02T11:47:11Z</time>
      </trkpt>
      <trkpt lat="47.9293220" lon="1.9055910">
        <ele>102.4</ele>
        <time>2020-07-02T11:47:14Z</time>
      </trkpt>
      <trkpt lat="47.9292670" lon="1.9056310">
        <ele>102.2</ele>
        <time>2020-07-02T11:47:15Z</time>
      </trkpt>
      <trkpt lat="47.9289860" lon="1.9058310">
        <ele>102.2</ele>
        <time>2020-07-02T11:47:21Z</time>
      </trkpt>
      <trkpt lat="47.9288530" lon="1.9059310">
        <ele>101.4</ele>
        <time>2020-07-02T11:47:26Z</time>
      </trkpt>
      <trkpt lat="47.9287460" lon="1.9060570">
        <ele>101.2</ele>
        <time>2020-07-02T11:47:31Z</time>
      </trkpt>
      <trkpt lat="47.9287290" lon="1.9063210">
        <ele>101.2</ele>
        <time>2020-07-02T11:47:36Z</time>
      </trkpt>
      <trkpt lat="47.9287690" lon="1.9068730">
        <ele>100.8</ele>
        <time>2020-07-02T11:47:44Z</time>
      </trkpt>
      <trkpt lat="47.9287450" lon="1.9070410">
        <ele>100.8</ele>
        <time>2020-07-02T11:47:47Z</time>
      </trkpt>
      <trkpt lat="47.9287170" lon="1.9070740">
        <ele>100.6</ele>
        <time>2020-07-02T11:47:48Z</time>
      </trkpt>
      <trkpt lat="47.9286400" lon="1.9071180">
        <ele>100.6</ele>
        <time>2020-07-02T11:47:50Z</time>
      </trkpt>
      <trkpt lat="47.9285500" lon="1.9071460">
        <ele>100.6</ele>
        <time>2020-07-02T11:47:52Z</time>
      </trkpt>
      <trkpt lat="47.9281360" lon="1.9072530">
        <ele>100.4</ele>
        <time>2020-07-02T11:48:00Z</time>
      </trkpt>
      <trkpt lat="47.9277740" lon="1.9073620">
        <ele>100.2</ele>
        <time>2020-07-02T11:48:07Z</time>
      </trkpt>
      <trkpt lat="47.9273750" lon="1.9074730">
        <ele>100.8</ele>
        <time>2020-07-02T11:48:15Z</time>
      </trkpt>
      <trkpt lat="47.9272910" lon="1.9075100">
        <ele>101.0</ele>
        <time>2020-07-02T11:48:17Z</time>
      </trkpt>
      <trkpt lat="47.9271280" lon="1.9076110">
        <ele>101.4</ele>
        <time>2020-07-02T11:48:22Z</time>
      </trkpt>
      <trkpt lat="47.9270990" lon="1.9076830">
        <ele>102.2</ele>
        <time>2020-07-02T11:48:25Z</time>
      </trkpt>
      <trkpt lat="47.9271020" lon="1.9077490">
        <ele>102.6</ele>
        <time>2020-07-02T11:48:27Z</time>
      </trkpt>
      <trkpt lat="47.9271470" lon="1.9079920">
        <ele>103.0</ele>
        <time>2020-07-02T11:48:32Z</time>
      </trkpt>
      <trkpt lat="47.9272330" lon="1.9085020">
        <ele>103.2</ele>
        <time>2020-07-02T11:48:39Z</time>
      </trkpt>
      <trkpt lat="47.9273550" lon="1.9093450">
        <ele>103.4</ele>
        <time>2020-07-02T11:48:50Z</time>
      </trkpt>
      <trkpt lat="47.9273780" lon="1.9095020">
        <ele>103.4</ele>
        <time>2020-07-02T11:48:52Z</time>
      </trkpt>
      <trkpt lat="47.9274630" lon="1.9100940">
        <ele>103.6</ele>
        <time>2020-07-02T11:49:00Z</time>
      </trkpt>
      <trkpt lat="47.9274900" lon="1.9103100">
        <ele>103.8</ele>
        <time>2020-07-02T11:49:03Z</time>
      </trkpt>
      <trkpt lat="47.9275480" lon="1.9107360">
        <ele>104.0</ele>
        <time>2020-07-02T11:49:09Z</time>
      </trkpt>
      <trkpt lat="47.9275760" lon="1.9110170">
        <ele>103.8</ele>
        <time>2020-07-02T11:49:13Z</time>
      </trkpt>
      <trkpt lat="47.9276270" lon="1.9115860">
        <ele>104.0</ele>
        <time>2020-07-02T11:49:22Z</time>
      </trkpt>
      <trkpt lat="47.9276370" lon="1.9117060">
        <ele>104.0</ele>
        <time>2020-07-02T11:49:24Z</time>
      </trkpt>
      <trkpt lat="47.9276460" lon="1.9118240">
        <ele>103.8</ele>
        <time>2020-07-02T11:49:26Z</time>
      </trkpt>
      <trkpt lat="47.9276530" lon="1.9121430">
        <ele>104.0</ele>
        <time>2020-07-02T11:49:31Z</time>
      </trkpt>
      <trkpt lat="47.9276860" lon="1.9128540">
        <ele>104.2</ele>
        <time>2020-07-02T11:49:41Z</time>
      </trkpt>
      <trkpt lat="47.9276900" lon="1.9129220">
        <ele>104.2</ele>
        <time>2020-07-02T11:49:42Z</time>
      </trkpt>
      <trkpt lat="47.9277790" lon="1.9135650">
        <ele>104.2</ele>
        <time>2020-07-02T11:49:52Z</time>
      </trkpt>
      <trkpt lat="47.9278420" lon="1.9136840">
        <ele>104.4</ele>
        <time>2020-07-02T11:49:54Z</time>
      </trkpt>
      <trkpt lat="47.9279470" lon="1.9138590">
        <ele>104.4</ele>
        <time>2020-07-02T11:49:57Z</time>
      </trkpt>
      <trkpt lat="47.9282370" lon="1.9144550">
        <ele>103.6</ele>
        <time>2020-07-02T11:50:06Z</time>
      </trkpt>
      <trkpt lat="47.9282610" lon="1.9145300">
        <ele>103.4</ele>
        <time>2020-07-02T11:50:07Z</time>
      </trkpt>
      <trkpt lat="47.9283470" lon="1.9149140">
        <ele>103.0</ele>
        <time>2020-07-02T11:50:12Z</time>
      </trkpt>
      <trkpt lat="47.9283600" lon="1.9153920">
        <ele>103.0</ele>
        <time>2020-07-02T11:50:19Z</time>
      </trkpt>
      <trkpt lat="47.9283430" lon="1.9157560">
        <ele>103.0</ele>
        <time>2020-07-02T11:50:26Z</time>
      </trkpt>
      <trkpt lat="47.9283420" lon="1.9158020">
        <ele>103.2</ele>
        <time>2020-07-02T11:50:27Z</time>
      </trkpt>
      <trkpt lat="47.9283470" lon="1.9160870">
        <ele>103.8</ele>
        <time>2020-07-02T11:50:35Z</time>
      </trkpt>
      <trkpt lat="47.9283530" lon="1.9161160">
        <ele>104.0</ele>
        <time>2020-07-02T11:50:41Z</time>
      </trkpt>
      <trkpt lat="47.9283370" lon="1.9162470">
        <ele>104.0</ele>
        <time>2020-07-02T11:50:50Z</time>
      </trkpt>
      <trkpt lat="47.9283300" lon="1.9162670">
        <ele>104.2</ele>
        <time>2020-07-02T11:50:54Z</time>
      </trkpt>
      <trkpt lat="47.9283270" lon="1.9162720">
        <ele>104.4</ele>
        <time>2020-07-02T11:50:59Z</time>
      </trkpt>
      <trkpt lat="47.9283270" lon="1.9162730">
        <ele>104.4</ele>
        <time>2020-07-02T11:51:02Z</time>
      </trkpt>
      <trkpt lat="47.9283270" lon="1.9162740">
        <ele>104.6</ele>
        <time>2020-07-02T11:51:03Z</time>
      </trkpt>
      <trkpt lat="47.9283150" lon="1.9162660">
        <ele>104.6</ele>
        <time>2020-07-02T11:51:13Z</time>
      </trkpt>
      <trkpt lat="47.9283120" lon="1.9162680">
        <ele>104.4</ele>
        <time>2020-07-02T11:51:29Z</time>
      </trkpt>
      <trkpt lat="47.9283140" lon="1.9162680">
        <ele>104.6</ele>
        <time>2020-07-02T11:51:45Z</time>
      </trkpt>
      <trkpt lat="47.9283140" lon="1.9162680">
        <ele>104.6</ele>
        <time>2020-07-02T11:51:46Z</time>
      </trkpt>
      <trkpt lat="47.9283140" lon="1.9162680">
        <ele>104.6</ele>
        <time>2020-07-02T11:51:47Z</time>
      </trkpt>
      <trkpt lat="47.9283150" lon="1.9162590">
        <ele>104.6</ele>
        <time>2020-07-02T11:52:00Z</time>
      </trkpt>
      <trkpt lat="47.9283150" lon="1.9162580">
        <ele>104.6</ele>
        <time>2020-07-02T11:52:01Z</time>
      </trkpt>
      <trkpt lat="47.9283140" lon="1.9162580">
        <ele>104.6</ele>
        <time>2020-07-02T11:52:02Z</time>
      </trkpt>
      <trkpt lat="47.9283140" lon="1.9162550">
        <ele>104.4</ele>
        <time>2020-07-02T11:52:10Z</time>
      </trkpt>
      <trkpt lat="47.9282870" lon="1.9162270">
        <ele>104.0</ele>
        <time>2020-07-02T11:52:30Z</time>
      </trkpt>
      <trkpt lat="47.9282590" lon="1.9162010">
        <ele>104.2</ele>
        <time>2020-07-02T11:52:32Z</time>
      </trkpt>
      <trkpt lat="47.9281300" lon="1.9161710">
        <ele>104.0</ele>
        <time>2020-07-02T11:52:38Z</time>
      </trkpt>
      <trkpt lat="47.9278660" lon="1.9161600">
        <ele>104.0</ele>
        <time>2020-07-02T11:52:45Z</time>
      </trkpt>
      <trkpt lat="47.9277380" lon="1.9161510">
        <ele>103.8</ele>
        <time>2020-07-02T11:52:48Z</time>
      </trkpt>
      <trkpt lat="47.9276950" lon="1.9161500">
        <ele>103.8</ele>
        <time>2020-07-02T11:52:49Z</time>
      </trkpt>
      <trkpt lat="47.9274710" lon="1.9161200">
        <ele>104.0</ele>
        <time>2020-07-02T11:52:54Z</time>
      </trkpt>
      <trkpt lat="47.9270190" lon="1.9159990">
        <ele>105.2</ele>
        <time>2020-07-02T11:53:04Z</time>
      </trkpt>
      <trkpt lat="47.9269300" lon="1.9159620">
        <ele>105.4</ele>
        <time>2020-07-02T11:53:06Z</time>
      </trkpt>
      <trkpt lat="47.9268370" lon="1.9159270">
        <ele>105.4</ele>
        <time>2020-07-02T11:53:08Z</time>
      </trkpt>
      <trkpt lat="47.9265580" lon="1.9158050">
        <ele>105.6</ele>
        <time>2020-07-02T11:53:14Z</time>
      </trkpt>
      <trkpt lat="47.9260540" lon="1.9155550">
        <ele>106.0</ele>
        <time>2020-07-02T11:53:25Z</time>
      </trkpt>
      <trkpt lat="47.9258290" lon="1.9154340">
        <ele>106.0</ele>
        <time>2020-07-02T11:53:30Z</time>
      </trkpt>
      <trkpt lat="47.9257450" lon="1.9153840">
        <ele>106.2</ele>
        <time>2020-07-02T11:53:32Z</time>
      </trkpt>
      <trkpt lat="47.9256150" lon="1.9152970">
        <ele>106.2</ele>
        <time>2020-07-02T11:53:35Z</time>
      </trkpt>
      <trkpt lat="47.9251680" lon="1.9150220">
        <ele>106.6</ele>
        <time>2020-07-02T11:53:45Z</time>
      </trkpt>
      <trkpt lat="47.9247580" lon="1.9147610">
        <ele>106.6</ele>
        <time>2020-07-02T11:53:54Z</time>
      </trkpt>
      <trkpt lat="47.9244400" lon="1.9146100">
        <ele>106.4</ele>
        <time>2020-07-02T11:54:01Z</time>
      </trkpt>
      <trkpt lat="47.9243060" lon="1.9145640">
        <ele>106.6</ele>
        <time>2020-07-02T11:54:04Z</time>
      </trkpt>
      <trkpt lat="47.9238940" lon="1.9144740">
        <ele>107.4</ele>
        <time>2020-07-02T11:54:13Z</time>
      </trkpt>
      <trkpt lat="47.9234430" lon="1.9144020">
        <ele>107.8</ele>
        <time>2020-07-02T11:54:22Z</time>
      </trkpt>
      <trkpt lat="47.9228990" lon="1.9143370">
        <ele>107.8</ele>
        <time>2020-07-02T11:54:32Z</time>
      </trkpt>
      <trkpt lat="47.9223570" lon="1.9143470">
        <ele>107.6</ele>
        <time>2020-07-02T11:54:42Z</time>
      </trkpt>
      <trkpt lat="47.9223010" lon="1.9143550">
        <ele>107.8</ele>
        <time>2020-07-02T11:54:43Z</time>
      </trkpt>
      <trkpt lat="47.9219470" lon="1.9144220">
        <ele>108.0</ele>
        <time>2020-07-02T11:54:50Z</time>
      </trkpt>
      <trkpt lat="47.9216560" lon="1.9144610">
        <ele>108.4</ele>
        <time>2020-07-02T11:54:57Z</time>
      </trkpt>
      <trkpt lat="47.9212360" lon="1.9145250">
        <ele>108.6</ele>
        <time>2020-07-02T11:55:07Z</time>
      </trkpt>
      <trkpt lat="47.9208620" lon="1.9146010">
        <ele>108.8</ele>
        <time>2020-07-02T11:55:15Z</time>
      </trkpt>
      <trkpt lat="47.9206230" lon="1.9146380">
        <ele>108.8</ele>
        <time>2020-07-02T11:55:21Z</time>
      </trkpt>
      <trkpt lat="47.9205070" lon="1.9146580">
        <ele>108.8</ele>
        <time>2020-07-02T11:55:24Z</time>
      </trkpt>
      <trkpt lat="47.9200980" lon="1.9147360">
        <ele>109.6</ele>
        <time>2020-07-02T11:55:35Z</time>
      </trkpt>
      <trkpt lat="47.9200320" lon="1.9147590">
        <ele>109.8</ele>
        <time>2020-07-02T11:55:38Z</time>
      </trkpt>
      <trkpt lat="47.9200240" lon="1.9147630">
        <ele>110.0</ele>
        <time>2020-07-02T11:55:39Z</time>
      </trkpt>
      <trkpt lat="47.9200350" lon="1.9147640">
        <ele>110.2</ele>
        <time>2020-07-02T11:55:46Z</time>
      </trkpt>
      <trkpt lat="47.9200090" lon="1.9147740">
        <ele>110.6</ele>
        <time>2020-07-02T11:56:02Z</time>
      </trkpt>
      <trkpt lat="47.9199350" lon="1.9148640">
        <ele>110.2</ele>
        <time>2020-07-02T11:56:12Z</time>
      </trkpt>
      <trkpt lat="47.9198960" lon="1.9150970">
        <ele>110.4</ele>
        <time>2020-07-02T11:56:17Z</time>
      </trkpt>
      <trkpt lat="47.9198570" lon="1.9156460">
        <ele>110.4</ele>
        <time>2020-07-02T11:56:25Z</time>
      </trkpt>
      <trkpt lat="47.9198430" lon="1.9159740">
        <ele>110.6</ele>
        <time>2020-07-02T11:56:29Z</time>
      </trkpt>
      <trkpt lat="47.9198250" lon="1.9163830">
        <ele>111.2</ele>
        <time>2020-07-02T11:56:34Z</time>
      </trkpt>
      <trkpt lat="47.9197990" lon="1.9168860">
        <ele>111.4</ele>
        <time>2020-07-02T11:56:40Z</time>
      </trkpt>
      <trkpt lat="47.9198030" lon="1.9172300">
        <ele>111.4</ele>
        <time>2020-07-02T11:56:44Z</time>
      </trkpt>
      <trkpt lat="47.9198080" lon="1.9173130">
        <ele>111.4</ele>
        <time>2020-07-02T11:56:45Z</time>
      </trkpt>
      <trkpt lat="47.9198040" lon="1.9178530">
        <ele>111.6</ele>
        <time>2020-07-02T11:56:52Z</time>
      </trkpt>
      <trkpt lat="47.9197920" lon="1.9179130">
        <ele>111.6</ele>
        <time>2020-07-02T11:56:53Z</time>
      </trkpt>
      <trkpt lat="47.9197040" lon="1.9180340">
        <ele>111.8</ele>
        <time>2020-07-02T11:56:56Z</time>
      </trkpt>
      <trkpt lat="47.9195810" lon="1.9180640">
        <ele>112.0</ele>
        <time>2020-07-02T11:56:59Z</time>
      </trkpt>
      <trkpt lat="47.9195360" lon="1.9180530">
        <ele>112.0</ele>
        <time>2020-07-02T11:57:00Z</time>
      </trkpt>
      <trkpt lat="47.9191980" lon="1.9179160">
        <ele>112.0</ele>
        <time>2020-07-02T11:57:07Z</time>
      </trkpt>
      <trkpt lat="47.9186330" lon="1.9177060">
        <ele>111.6</ele>
        <time>2020-07-02T11:57:18Z</time>
      </trkpt>
      <trkpt lat="47.9185810" lon="1.9176810">
        <ele>111.6</ele>
        <time>2020-07-02T11:57:19Z</time>
      </trkpt>
      <trkpt lat="47.9185290" lon="1.9176620">
        <ele>111.6</ele>
        <time>2020-07-02T11:57:20Z</time>
      </trkpt>
      <trkpt lat="47.9182570" lon="1.9175640">
        <ele>111.8</ele>
        <time>2020-07-02T11:57:25Z</time>
      </trkpt>
      <trkpt lat="47.9180490" lon="1.9174950">
        <ele>111.8</ele>
        <time>2020-07-02T11:57:29Z</time>
      </trkpt>
      <trkpt lat="47.9177210" lon="1.9173800">
        <ele>111.6</ele>
        <time>2020-07-02T11:57:35Z</time>
      </trkpt>
      <trkpt lat="47.9176170" lon="1.9173540">
        <ele>111.6</ele>
        <time>2020-07-02T11:57:37Z</time>
      </trkpt>
      <trkpt lat="47.9175150" lon="1.9173270">
        <ele>111.6</ele>
        <time>2020-07-02T11:57:39Z</time>
      </trkpt>
      <trkpt lat="47.9173190" lon="1.9172750">
        <ele>111.4</ele>
        <time>2020-07-02T11:57:43Z</time>
      </trkpt>
      <trkpt lat="47.9168800" lon="1.9171720">
        <ele>111.0</ele>
        <time>2020-07-02T11:57:51Z</time>
      </trkpt>
      <trkpt lat="47.9168270" lon="1.9171620">
        <ele>111.0</ele>
        <time>2020-07-02T11:57:52Z</time>
      </trkpt>
      <trkpt lat="47.9167730" lon="1.9171530">
        <ele>111.0</ele>
        <time>2020-07-02T11:57:53Z</time>
      </trkpt>
      <trkpt lat="47.9165760" lon="1.9171370">
        <ele>110.8</ele>
        <time>2020-07-02T11:57:57Z</time>
      </trkpt>
      <trkpt lat="47.9165280" lon="1.9171390">
        <ele>110.8</ele>
        <time>2020-07-02T11:57:58Z</time>
      </trkpt>
      <trkpt lat="47.9161630" lon="1.9171010">
        <ele>110.6</ele>
        <time>2020-07-02T11:58:05Z</time>
      </trkpt>
      <trkpt lat="47.9157090" lon="1.9169680">
        <ele>109.8</ele>
        <time>2020-07-02T11:58:13Z</time>
      </trkpt>
      <trkpt lat="47.9156020" lon="1.9169490">
        <ele>109.8</ele>
        <time>2020-07-02T11:58:15Z</time>
      </trkpt>
      <trkpt lat="47.9153000" lon="1.9168850">
        <ele>109.4</ele>
        <time>2020-07-02T11:58:20Z</time>
      </trkpt>
      <trkpt lat="47.9152400" lon="1.9168630">
        <ele>109.4</ele>
        <time>2020-07-02T11:58:21Z</time>
      </trkpt>
      <trkpt lat="47.9151170" lon="1.9168190">
        <ele>109.2</ele>
        <time>2020-07-02T11:58:23Z</time>
      </trkpt>
      <trkpt lat="47.9148800" lon="1.9167370">
        <ele>108.0</ele>
        <time>2020-07-02T11:58:27Z</time>
      </trkpt>
      <trkpt lat="47.9147040" lon="1.9166710">
        <ele>107.4</ele>
        <time>2020-07-02T11:58:30Z</time>
      </trkpt>
      <trkpt lat="47.9144670" lon="1.9165700">
        <ele>107.0</ele>
        <time>2020-07-02T11:58:34Z</time>
      </trkpt>
      <trkpt lat="47.9141840" lon="1.9164250">
        <ele>106.6</ele>
        <time>2020-07-02T11:58:39Z</time>
      </trkpt>
      <trkpt lat="47.9137170" lon="1.9162700">
        <ele>105.8</ele>
        <time>2020-07-02T11:58:47Z</time>
      </trkpt>
      <trkpt lat="47.9134880" lon="1.9161700">
        <ele>105.6</ele>
        <time>2020-07-02T11:58:51Z</time>
      </trkpt>
      <trkpt lat="47.9133300" lon="1.9160900">
        <ele>105.0</ele>
        <time>2020-07-02T11:58:54Z</time>
      </trkpt>
      <trkpt lat="47.9128950" lon="1.9158760">
        <ele>104.2</ele>
        <time>2020-07-02T11:59:02Z</time>
      </trkpt>
      <trkpt lat="47.9128460" lon="1.9158570">
        <ele>104.2</ele>
        <time>2020-07-02T11:59:03Z</time>
      </trkpt>
      <trkpt lat="47.9126760" lon="1.9157980">
        <ele>104.0</ele>
        <time>2020-07-02T11:59:07Z</time>
      </trkpt>
      <trkpt lat="47.9126520" lon="1.9157720">
        <ele>104.0</ele>
        <time>2020-07-02T11:59:08Z</time>
      </trkpt>
      <trkpt lat="47.9126290" lon="1.9157630">
        <ele>103.8</ele>
        <time>2020-07-02T11:59:09Z</time>
      </trkpt>
      <trkpt lat="47.9125990" lon="1.9157300">
        <ele>103.8</ele>
        <time>2020-07-02T11:59:12Z</time>
      </trkpt>
      <trkpt lat="47.9124920" lon="1.9156800">
        <ele>104.4</ele>
        <time>2020-07-02T11:59:18Z</time>
      </trkpt>
      <trkpt lat="47.9122120" lon="1.9155210">
        <ele>104.4</ele>
        <time>2020-07-02T11:59:26Z</time>
      </trkpt>
      <trkpt lat="47.9119340" lon="1.9153830">
        <ele>104.2</ele>
        <time>2020-07-02T11:59:33Z</time>
      </trkpt>
      <trkpt lat="47.9118320" lon="1.9153470">
        <ele>104.0</ele>
        <time>2020-07-02T11:59:35Z</time>
      </trkpt>
      <trkpt lat="47.9117760" lon="1.9153340">
        <ele>104.0</ele>
        <time>2020-07-02T11:59:36Z</time>
      </trkpt>
      <trkpt lat="47.9114800" lon="1.9152910">
        <ele>103.6</ele>
        <time>2020-07-02T11:59:41Z</time>
      </trkpt>
      <trkpt lat="47.9114200" lon="1.9152860">
        <ele>103.2</ele>
        <time>2020-07-02T11:59:42Z</time>
      </trkpt>
      <trkpt lat="47.9109210" lon="1.9152080">
        <ele>100.8</ele>
        <time>2020-07-02T11:59:51Z</time>
      </trkpt>
      <trkpt lat="47.9108670" lon="1.9152000">
        <ele>100.8</ele>
        <time>2020-07-02T11:59:52Z</time>
      </trkpt>
      <trkpt lat="47.9103040" lon="1.9150210">
        <ele>100.2</ele>
        <time>2020-07-02T12:00:02Z</time>
      </trkpt>
      <trkpt lat="47.9102450" lon="1.9150010">
        <ele>100.4</ele>
        <time>2020-07-02T12:00:03Z</time>
      </trkpt>
      <trkpt lat="47.9097180" lon="1.9147970">
        <ele>99.6</ele>
        <time>2020-07-02T12:00:12Z</time>
      </trkpt>
      <trkpt lat="47.9096600" lon="1.9147690">
        <ele>99.6</ele>
        <time>2020-07-02T12:00:13Z</time>
      </trkpt>
      <trkpt lat="47.9093120" lon="1.9146290">
        <ele>99.4</ele>
        <time>2020-07-02T12:00:19Z</time>
      </trkpt>
      <trkpt lat="47.9091920" lon="1.9145800">
        <ele>99.4</ele>
        <time>2020-07-02T12:00:21Z</time>
      </trkpt>
      <trkpt lat="47.9089170" lon="1.9144580">
        <ele>99.0</ele>
        <time>2020-07-02T12:00:26Z</time>
      </trkpt>
      <trkpt lat="47.9086890" lon="1.9143560">
        <ele>98.2</ele>
        <time>2020-07-02T12:00:30Z</time>
      </trkpt>
      <trkpt lat="47.9081500" lon="1.9141460">
        <ele>97.6</ele>
        <time>2020-07-02T12:00:39Z</time>
      </trkpt>
      <trkpt lat="47.9080360" lon="1.9141280">
        <ele>97.4</ele>
        <time>2020-07-02T12:00:41Z</time>
      </trkpt>
      <trkpt lat="47.9078710" lon="1.9141400">
        <ele>97.4</ele>
        <time>2020-07-02T12:00:44Z</time>
      </trkpt>
      <trkpt lat="47.9077080" lon="1.9141850">
        <ele>97.2</ele>
        <time>2020-07-02T12:00:47Z</time>
      </trkpt>
      <trkpt lat="47.9074830" lon="1.9142780">
        <ele>97.2</ele>
        <time>2020-07-02T12:00:51Z</time>
      </trkpt>
      <trkpt lat="47.9073730" lon="1.9143080">
        <ele>97.0</ele>
        <time>2020-07-02T12:00:53Z</time>
      </trkpt>
      <trkpt lat="47.9072040" lon="1.9143350">
        <ele>96.6</ele>
        <time>2020-07-02T12:00:56Z</time>
      </trkpt>
      <trkpt lat="47.9071450" lon="1.9143400">
        <ele>96.6</ele>
        <time>2020-07-02T12:00:57Z</time>
      </trkpt>
      <trkpt lat="47.9070300" lon="1.9143460">
        <ele>96.0</ele>
        <time>2020-07-02T12:00:59Z</time>
      </trkpt>
      <trkpt lat="47.9064930" lon="1.9143290">
        <ele>95.0</ele>
        <time>2020-07-02T12:01:08Z</time>
      </trkpt>
      <trkpt lat="47.9063810" lon="1.9143250">
        <ele>95.0</ele>
        <time>2020-07-02T12:01:10Z</time>
      </trkpt>
      <trkpt lat="47.9062680" lon="1.9143270">
        <ele>94.8</ele>
        <time>2020-07-02T12:01:12Z</time>
      </trkpt>
      <trkpt lat="47.9062100" lon="1.9143140">
        <ele>94.8</ele>
        <time>2020-07-02T12:01:13Z</time>
      </trkpt>
      <trkpt lat="47.9058100" lon="1.9141290">
        <ele>94.4</ele>
        <time>2020-07-02T12:01:20Z</time>
      </trkpt>
      <trkpt lat="47.9053740" lon="1.9138710">
        <ele>94.0</ele>
        <time>2020-07-02T12:01:28Z</time>
      </trkpt>
      <trkpt lat="47.9052240" lon="1.9137780">
        <ele>93.8</ele>
        <time>2020-07-02T12:01:31Z</time>
      </trkpt>
      <trkpt lat="47.9049880" lon="1.9135910">
        <ele>93.6</ele>
        <time>2020-07-02T12:01:36Z</time>
      </trkpt>
      <trkpt lat="47.9049000" lon="1.9135300">
        <ele>93.6</ele>
        <time>2020-07-02T12:01:38Z</time>
      </trkpt>
      <trkpt lat="47.9046620" lon="1.9133400">
        <ele>93.8</ele>
        <time>2020-07-02T12:01:45Z</time>
      </trkpt>
      <trkpt lat="47.9043630" lon="1.9131910">
        <ele>94.4</ele>
        <time>2020-07-02T12:01:53Z</time>
      </trkpt>
      <trkpt lat="47.9041480" lon="1.9130300">
        <ele>94.4</ele>
        <time>2020-07-02T12:01:59Z</time>
      </trkpt>
      <trkpt lat="47.9040990" lon="1.9129790">
        <ele>94.6</ele>
        <time>2020-07-02T12:02:01Z</time>
      </trkpt>
      <trkpt lat="47.9039570" lon="1.9128800">
        <ele>94.8</ele>
        <time>2020-07-02T12:02:06Z</time>
      </trkpt>
      <trkpt lat="47.9038860" lon="1.9127500">
        <ele>95.0</ele>
        <time>2020-07-02T12:02:10Z</time>
      </trkpt>
      <trkpt lat="47.9038740" lon="1.9127100">
        <ele>95.0</ele>
        <time>2020-07-02T12:02:11Z</time>
      </trkpt>
      <trkpt lat="47.9038500" lon="1.9126720">
        <ele>95.0</ele>
        <time>2020-07-02T12:02:12Z</time>
      </trkpt>
      <trkpt lat="47.9037830" lon="1.9126390">
        <ele>95.2</ele>
        <time>2020-07-02T12:02:14Z</time>
      </trkpt>
      <trkpt lat="47.9035540" lon="1.9126780">
        <ele>95.8</ele>
        <time>2020-07-02T12:02:20Z</time>
      </trkpt>
      <trkpt lat="47.9033900" lon="1.9126850">
        <ele>96.2</ele>
        <time>2020-07-02T12:02:24Z</time>
      </trkpt>
      <trkpt lat="47.9033100" lon="1.9126800">
        <ele>96.4</ele>
        <time>2020-07-02T12:02:26Z</time>
      </trkpt>
      <trkpt lat="47.9032340" lon="1.9127010">
        <ele>96.4</ele>
        <time>2020-07-02T12:02:28Z</time>
      </trkpt>
      <trkpt lat="47.9031960" lon="1.9127270">
        <ele>96.4</ele>
        <time>2020-07-02T12:02:29Z</time>
      </trkpt>
      <trkpt lat="47.9031540" lon="1.9127420">
        <ele>96.2</ele>
        <time>2020-07-02T12:02:30Z</time>
      </trkpt>
      <trkpt lat="47.9029880" lon="1.9127990">
        <ele>96.2</ele>
        <time>2020-07-02T12:02:34Z</time>
      </trkpt>
      <trkpt lat="47.9028910" lon="1.9128420">
        <ele>96.4</ele>
        <time>2020-07-02T12:02:37Z</time>
      </trkpt>
      <trkpt lat="47.9027480" lon="1.9129250">
        <ele>96.4</ele>
        <time>2020-07-02T12:02:41Z</time>
      </trkpt>
      <trkpt lat="47.9025450" lon="1.9130680">
        <ele>96.6</ele>
        <time>2020-07-02T12:02:47Z</time>
      </trkpt>
      <trkpt lat="47.9024150" lon="1.9131760">
        <ele>96.8</ele>
        <time>2020-07-02T12:02:51Z</time>
      </trkpt>
      <trkpt lat="47.9023770" lon="1.9132010">
        <ele>96.8</ele>
        <time>2020-07-02T12:02:52Z</time>
      </trkpt>
      <trkpt lat="47.9023370" lon="1.9132220">
        <ele>96.8</ele>
        <time>2020-07-02T12:02:53Z</time>
      </trkpt>
      <trkpt lat="47.9021310" lon="1.9133130">
        <ele>96.8</ele>
        <time>2020-07-02T12:02:58Z</time>
      </trkpt>
      <trkpt lat="47.9020860" lon="1.9133230">
        <ele>96.6</ele>
        <time>2020-07-02T12:02:59Z</time>
      </trkpt>
      <trkpt lat="47.9020440" lon="1.9133400">
        <ele>96.6</ele>
        <time>2020-07-02T12:03:00Z</time>
      </trkpt>
      <trkpt lat="47.9020010" lon="1.9133480">
        <ele>96.6</ele>
        <time>2020-07-02T12:03:01Z</time>
      </trkpt>
      <trkpt lat="47.9018790" lon="1.9133720">
        <ele>95.8</ele>
        <time>2020-07-02T12:03:04Z</time>
      </trkpt>
      <trkpt lat="47.9017440" lon="1.9133910">
        <ele>95.6</ele>
        <time>2020-07-02T12:03:07Z</time>
      </trkpt>
      <trkpt lat="47.9016600" lon="1.9134140">
        <ele>95.6</ele>
        <time>2020-07-02T12:03:09Z</time>
      </trkpt>
      <trkpt lat="47.9013540" lon="1.9134550">
        <ele>94.2</ele>
        <time>2020-07-02T12:03:16Z</time>
      </trkpt>
      <trkpt lat="47.9009670" lon="1.9134210">
        <ele>93.4</ele>
        <time>2020-07-02T12:03:24Z</time>
      </trkpt>
      <trkpt lat="47.9008210" lon="1.9135380">
        <ele>93.2</ele>
        <time>2020-07-02T12:03:28Z</time>
      </trkpt>
      <trkpt lat="47.9005790" lon="1.9135640">
        <ele>93.2</ele>
        <time>2020-07-02T12:03:34Z</time>
      </trkpt>
      <trkpt lat="47.9004380" lon="1.9135820">
        <ele>92.8</ele>
        <time>2020-07-02T12:03:39Z</time>
      </trkpt>
      <trkpt lat="47.9004000" lon="1.9135780">
        <ele>92.8</ele>
        <time>2020-07-02T12:03:40Z</time>
      </trkpt>
      <trkpt lat="47.9002690" lon="1.9135470">
        <ele>92.8</ele>
        <time>2020-07-02T12:03:43Z</time>
      </trkpt>
      <trkpt lat="47.9002210" lon="1.9135420">
        <ele>93.0</ele>
        <time>2020-07-02T12:03:44Z</time>
      </trkpt>
      <trkpt lat="47.8999640" lon="1.9135310">
        <ele>92.2</ele>
        <time>2020-07-02T12:03:49Z</time>
      </trkpt>
      <trkpt lat="47.8999130" lon="1.9135330">
        <ele>91.8</ele>
        <time>2020-07-02T12:03:50Z</time>
      </trkpt>
      <trkpt lat="47.8998640" lon="1.9135390">
        <ele>91.4</ele>
        <time>2020-07-02T12:03:51Z</time>
      </trkpt>
      <trkpt lat="47.8997630" lon="1.9135670">
        <ele>91.4</ele>
        <time>2020-07-02T12:03:53Z</time>
      </trkpt>
      <trkpt lat="47.8994900" lon="1.9136140">
        <ele>90.6</ele>
        <time>2020-07-02T12:03:59Z</time>
      </trkpt>
      <trkpt lat="47.8992180" lon="1.9136330">
        <ele>89.4</ele>
        <time>2020-07-02T12:04:04Z</time>
      </trkpt>
      <trkpt lat="47.8991000" lon="1.9136320">
        <ele>89.0</ele>
        <time>2020-07-02T12:04:06Z</time>
      </trkpt>
      <trkpt lat="47.8988780" lon="1.9136400">
        <ele>87.4</ele>
        <time>2020-07-02T12:04:10Z</time>
      </trkpt>
      <trkpt lat="47.8986400" lon="1.9136720">
        <ele>86.4</ele>
        <time>2020-07-02T12:04:14Z</time>
      </trkpt>
      <trkpt lat="47.8985770" lon="1.9136810">
        <ele>86.2</ele>
        <time>2020-07-02T12:04:15Z</time>
      </trkpt>
      <trkpt lat="47.8983850" lon="1.9137020">
        <ele>85.8</ele>
        <time>2020-07-02T12:04:18Z</time>
      </trkpt>
      <trkpt lat="47.8982760" lon="1.9137120">
        <ele>85.4</ele>
        <time>2020-07-02T12:04:20Z</time>
      </trkpt>
      <trkpt lat="47.8982270" lon="1.9137120">
        <ele>85.0</ele>
        <time>2020-07-02T12:04:21Z</time>
      </trkpt>
      <trkpt lat="47.8981090" lon="1.9136830">
        <ele>83.8</ele>
        <time>2020-07-02T12:04:25Z</time>
      </trkpt>
      <trkpt lat="47.8980300" lon="1.9137640">
        <ele>83.4</ele>
        <time>2020-07-02T12:04:30Z</time>
      </trkpt>
      <trkpt lat="47.8980030" lon="1.9139570">
        <ele>83.4</ele>
        <time>2020-07-02T12:04:35Z</time>
      </trkpt>
      <trkpt lat="47.8980210" lon="1.9141860">
        <ele>83.6</ele>
        <time>2020-07-02T12:04:43Z</time>
      </trkpt>
      <trkpt lat="47.8980250" lon="1.9142320">
        <ele>84.0</ele>
        <time>2020-07-02T12:04:53Z</time>
      </trkpt>
      <trkpt lat="47.8980240" lon="1.9142330">
        <ele>84.0</ele>
        <time>2020-07-02T12:04:54Z</time>
      </trkpt>
      <trkpt lat="47.8980220" lon="1.9142420">
        <ele>84.0</ele>
        <time>2020-07-02T12:05:05Z</time>
      </trkpt>
      <trkpt lat="47.8980220" lon="1.9142430">
        <ele>84.0</ele>
        <time>2020-07-02T12:05:07Z</time>
      </trkpt>
      <trkpt lat="47.8980220" lon="1.9142440">
        <ele>84.0</ele>
        <time>2020-07-02T12:05:08Z</time>
      </trkpt>
      <trkpt lat="47.8980210" lon="1.9142440">
        <ele>84.0</ele>
        <time>2020-07-02T12:05:09Z</time>
      </trkpt>
      <trkpt lat="47.8980200" lon="1.9142460">
        <ele>84.0</ele>
        <time>2020-07-02T12:05:12Z</time>
      </trkpt>
      <trkpt lat="47.8980190" lon="1.9142490">
        <ele>83.8</ele>
        <time>2020-07-02T12:05:16Z</time>
      </trkpt>
      <trkpt lat="47.8980140" lon="1.9142630">
        <ele>83.2</ele>
        <time>2020-07-02T12:05:39Z</time>
      </trkpt>
      <trkpt lat="47.8980110" lon="1.9142770">
        <ele>83.4</ele>
        <time>2020-07-02T12:06:03Z</time>
      </trkpt>
      <trkpt lat="47.8980070" lon="1.9142980">
        <ele>83.6</ele>
        <time>2020-07-02T12:06:33Z</time>
      </trkpt>
      <trkpt lat="47.8979970" lon="1.9143160">
        <ele>83.6</ele>
        <time>2020-07-02T12:07:00Z</time>
      </trkpt>
      <trkpt lat="47.8979870" lon="1.9143280">
        <ele>83.4</ele>
        <time>2020-07-02T12:07:15Z</time>
      </trkpt>
      <trkpt lat="47.8979920" lon="1.9143440">
        <ele>83.8</ele>
        <time>2020-07-02T12:07:43Z</time>
      </trkpt>
      <trkpt lat="47.8979880" lon="1.9143670">
        <ele>83.6</ele>
        <time>2020-07-02T12:08:09Z</time>
      </trkpt>
      <trkpt lat="47.8979880" lon="1.9143810">
        <ele>83.8</ele>
        <time>2020-07-02T12:08:30Z</time>
      </trkpt>
      <trkpt lat="47.8979930" lon="1.9143840">
        <ele>83.6</ele>
        <time>2020-07-02T12:08:54Z</time>
      </trkpt>
      <trkpt lat="47.8979930" lon="1.9143890">
        <ele>83.6</ele>
        <time>2020-07-02T12:09:13Z</time>
      </trkpt>
      <trkpt lat="47.8979960" lon="1.9144090">
        <ele>83.6</ele>
        <time>2020-07-02T12:09:27Z</time>
      </trkpt>
      <trkpt lat="47.8980230" lon="1.9145040">
        <ele>83.6</ele>
        <time>2020-07-02T12:09:37Z</time>
      </trkpt>
      <trkpt lat="47.8980620" lon="1.9146920">
        <ele>83.8</ele>
        <time>2020-07-02T12:09:44Z</time>
      </trkpt>
      <trkpt lat="47.8980710" lon="1.9149850">
        <ele>84.0</ele>
        <time>2020-07-02T12:09:54Z</time>
      </trkpt>
      <trkpt lat="47.8980810" lon="1.9151050">
        <ele>84.0</ele>
        <time>2020-07-02T12:09:59Z</time>
      </trkpt>
      <trkpt lat="47.8980660" lon="1.9151010">
        <ele>83.8</ele>
        <time>2020-07-02T12:10:00Z</time>
      </trkpt>
      <trkpt lat="47.8980140" lon="1.9150550">
        <ele>83.8</ele>
        <time>2020-07-02T12:10:03Z</time>
      </trkpt>
      <trkpt lat="47.8979790" lon="1.9149850">
        <ele>83.8</ele>
        <time>2020-07-02T12:10:06Z</time>
      </trkpt>
      <trkpt lat="47.8979820" lon="1.9148750">
        <ele>83.0</ele>
        <time>2020-07-02T12:10:10Z</time>
      </trkpt>
      <trkpt lat="47.8979790" lon="1.9148110">
        <ele>82.8</ele>
        <time>2020-07-02T12:10:12Z</time>
      </trkpt>
      <trkpt lat="47.8979620" lon="1.9146890">
        <ele>81.6</ele>
        <time>2020-07-02T12:10:15Z</time>
      </trkpt>
      <trkpt lat="47.8979430" lon="1.9145710">
        <ele>81.0</ele>
        <time>2020-07-02T12:10:18Z</time>
      </trkpt>
      <trkpt lat="47.8979370" lon="1.9145410">
        <ele>80.8</ele>
        <time>2020-07-02T12:10:19Z</time>
      </trkpt>
      <trkpt lat="47.8979240" lon="1.9145000">
        <ele>79.6</ele>
        <time>2020-07-02T12:10:23Z</time>
      </trkpt>
      <trkpt lat="47.8979230" lon="1.9144990">
        <ele>79.4</ele>
        <time>2020-07-02T12:10:24Z</time>
      </trkpt>
      <trkpt lat="47.8979190" lon="1.9144300">
        <ele>79.0</ele>
        <time>2020-07-02T12:10:32Z</time>
      </trkpt>
      <trkpt lat="47.8979400" lon="1.9144170">
        <ele>79.4</ele>
        <time>2020-07-02T12:10:44Z</time>
      </trkpt>
      <trkpt lat="47.8979330" lon="1.9144260">
        <ele>79.4</ele>
        <time>2020-07-02T12:11:02Z</time>
      </trkpt>
      <trkpt lat="47.8979040" lon="1.9144520">
        <ele>79.0</ele>
        <time>2020-07-02T12:11:14Z</time>
      </trkpt>
      <trkpt lat="47.8978970" lon="1.9144600">
        <ele>79.0</ele>
        <time>2020-07-02T12:11:15Z</time>
      </trkpt>
      <trkpt lat="47.8978820" lon="1.9144940">
        <ele>79.0</ele>
        <time>2020-07-02T12:11:22Z</time>
      </trkpt>
      <trkpt lat="47.8979110" lon="1.9145060">
        <ele>79.2</ele>
        <time>2020-07-02T12:11:30Z</time>
      </trkpt>
      <trkpt lat="47.8979640" lon="1.9145660">
        <ele>79.2</ele>
        <time>2020-07-02T12:11:40Z</time>
      </trkpt>
      <trkpt lat="47.8979410" lon="1.9145920">
        <ele>79.0</ele>
        <time>2020-07-02T12:11:50Z</time>
      </trkpt>
      <trkpt lat="47.8979350" lon="1.9146010">
        <ele>78.8</ele>
        <time>2020-07-02T12:12:14Z</time>
      </trkpt>
      <trkpt lat="47.8979310" lon="1.9146210">
        <ele>79.2</ele>
        <time>2020-07-02T12:12:37Z</time>
      </trkpt>
      <trkpt lat="47.8979310" lon="1.9146310">
        <ele>79.0</ele>
        <time>2020-07-02T12:12:58Z</time>
      </trkpt>
      <trkpt lat="47.8979210" lon="1.9146420">
        <ele>78.8</ele>
        <time>2020-07-02T12:13:17Z</time>
      </trkpt>
      <trkpt lat="47.8979180" lon="1.9146450">
        <ele>78.8</ele>
        <time>2020-07-02T12:13:32Z</time>
      </trkpt>
      <trkpt lat="47.8979210" lon="1.9146530">
        <ele>78.8</ele>
        <time>2020-07-02T12:13:42Z</time>
      </trkpt>
      <trkpt lat="47.8979210" lon="1.9146550">
        <ele>79.0</ele>
        <time>2020-07-02T12:13:43Z</time>
      </trkpt>
      <trkpt lat="47.8979220" lon="1.9146680">
        <ele>78.8</ele>
        <time>2020-07-02T12:13:53Z</time>
      </trkpt>
      <trkpt lat="47.8979100" lon="1.9146810">
        <ele>78.6</ele>
        <time>2020-07-02T12:14:09Z</time>
      </trkpt>
      <trkpt lat="47.8979050" lon="1.9146860">
        <ele>78.2</ele>
        <time>2020-07-02T12:14:27Z</time>
      </trkpt>
      <trkpt lat="47.8978950" lon="1.9146920">
        <ele>78.0</ele>
        <time>2020-07-02T12:14:40Z</time>
      </trkpt>
      <trkpt lat="47.8978890" lon="1.9146760">
        <ele>78.0</ele>
        <time>2020-07-02T12:14:53Z</time>
      </trkpt>
      <trkpt lat="47.8978890" lon="1.9146750">
        <ele>77.8</ele>
        <time>2020-07-02T12:14:55Z</time>
      </trkpt>
      <trkpt lat="47.8978980" lon="1.9146750">
        <ele>77.6</ele>
        <time>2020-07-02T12:15:08Z</time>
      </trkpt>
      <trkpt lat="47.8979010" lon="1.9146950">
        <ele>77.2</ele>
        <time>2020-07-02T12:15:30Z</time>
      </trkpt>
      <trkpt lat="47.8979010" lon="1.9147030">
        <ele>77.4</ele>
        <time>2020-07-02T12:15:45Z</time>
      </trkpt>
      <trkpt lat="47.8978950" lon="1.9146950">
        <ele>76.6</ele>
        <time>2020-07-02T12:16:10Z</time>
      </trkpt>
      <trkpt lat="47.8978930" lon="1.9146870">
        <ele>76.8</ele>
        <time>2020-07-02T12:16:23Z</time>
      </trkpt>
      <trkpt lat="47.8978930" lon="1.9146810">
        <ele>76.2</ele>
        <time>2020-07-02T12:16:38Z</time>
      </trkpt>
      <trkpt lat="47.8978940" lon="1.9146790">
        <ele>76.4</ele>
        <time>2020-07-02T12:16:43Z</time>
      </trkpt>
      <trkpt lat="47.8978940" lon="1.9146730">
        <ele>76.8</ele>
        <time>2020-07-02T12:16:50Z</time>
      </trkpt>
      <trkpt lat="47.8978930" lon="1.9146600">
        <ele>77.6</ele>
        <time>2020-07-02T12:17:10Z</time>
      </trkpt>
      <trkpt lat="47.8978880" lon="1.9146500">
        <ele>77.6</ele>
        <time>2020-07-02T12:17:39Z</time>
      </trkpt>
      <trkpt lat="47.8978880" lon="1.9146490">
        <ele>77.6</ele>
        <time>2020-07-02T12:17:40Z</time>
      </trkpt>
      <trkpt lat="47.8978880" lon="1.9146480">
        <ele>77.2</ele>
        <time>2020-07-02T12:17:43Z</time>
      </trkpt>
      <trkpt lat="47.8978750" lon="1.9145570">
        <ele>76.8</ele>
        <time>2020-07-02T12:17:54Z</time>
      </trkpt>
      <trkpt lat="47.8978700" lon="1.9145300">
        <ele>76.8</ele>
        <time>2020-07-02T12:17:55Z</time>
      </trkpt>
      <trkpt lat="47.8978660" lon="1.9143660">
        <ele>76.8</ele>
        <time>2020-07-02T12:18:06Z</time>
      </trkpt>
      <trkpt lat="47.8978550" lon="1.9143490">
        <ele>76.8</ele>
        <time>2020-07-02T12:18:11Z</time>
      </trkpt>
      <trkpt lat="47.8978300" lon="1.9143120">
        <ele>76.8</ele>
        <time>2020-07-02T12:18:17Z</time>
      </trkpt>
      <trkpt lat="47.8978160" lon="1.9142780">
        <ele>76.6</ele>
        <time>2020-07-02T12:18:20Z</time>
      </trkpt>
      <trkpt lat="47.8978180" lon="1.9141770">
        <ele>76.4</ele>
        <time>2020-07-02T12:18:26Z</time>
      </trkpt>
      <trkpt lat="47.8978060" lon="1.9139000">
        <ele>75.8</ele>
        <time>2020-07-02T12:18:43Z</time>
      </trkpt>
      <trkpt lat="47.8978010" lon="1.9138830">
        <ele>75.8</ele>
        <time>2020-07-02T12:18:53Z</time>
      </trkpt>
      <trkpt lat="47.8978020" lon="1.9139210">
        <ele>76.0</ele>
        <time>2020-07-02T12:19:27Z</time>
      </trkpt>
      <trkpt lat="47.8977990" lon="1.9139290">
        <ele>75.8</ele>
        <time>2020-07-02T12:19:57Z</time>
      </trkpt>
      <trkpt lat="47.8977990" lon="1.9139290">
        <ele>76.0</ele>
        <time>2020-07-02T12:19:58Z</time>
      </trkpt>
      <trkpt lat="47.8977980" lon="1.9139570">
        <ele>76.0</ele>
        <time>2020-07-02T12:20:28Z</time>
      </trkpt>
      <trkpt lat="47.8977980" lon="1.9139720">
        <ele>76.2</ele>
        <time>2020-07-02T12:21:32Z</time>
      </trkpt>
      <trkpt lat="47.8978090" lon="1.9139800">
        <ele>76.0</ele>
        <time>2020-07-02T12:23:42Z</time>
      </trkpt>
      <trkpt lat="47.8978150" lon="1.9139820">
        <ele>75.8</ele>
        <time>2020-07-02T12:24:36Z</time>
      </trkpt>
      <trkpt lat="47.8978050" lon="1.9139700">
        <ele>75.4</ele>
        <time>2020-07-02T12:25:23Z</time>
      </trkpt>
      <trkpt lat="47.8978080" lon="1.9139780">
        <ele>75.2</ele>
        <time>2020-07-02T12:25:44Z</time>
      </trkpt>
      <trkpt lat="47.8978140" lon="1.9139910">
        <ele>75.4</ele>
        <time>2020-07-02T12:26:17Z</time>
      </trkpt>
      <trkpt lat="47.8978170" lon="1.9140040">
        <ele>75.4</ele>
        <time>2020-07-02T12:26:44Z</time>
      </trkpt>
      <trkpt lat="47.8978190" lon="1.9140110">
        <ele>75.2</ele>
        <time>2020-07-02T12:27:17Z</time>
      </trkpt>
      <trkpt lat="47.8978170" lon="1.9140130">
        <ele>75.4</ele>
        <time>2020-07-02T12:27:50Z</time>
      </trkpt>
      <trkpt lat="47.8978140" lon="1.9140150">
        <ele>75.2</ele>
        <time>2020-07-02T12:28:14Z</time>
      </trkpt>
      <trkpt lat="47.8978100" lon="1.9140150">
        <ele>75.2</ele>
        <time>2020-07-02T12:28:40Z</time>
      </trkpt>
      <trkpt lat="47.8978010" lon="1.9140140">
        <ele>75.2</ele>
        <time>2020-07-02T12:29:01Z</time>
      </trkpt>
      <trkpt lat="47.8977990" lon="1.9140180">
        <ele>75.2</ele>
        <time>2020-07-02T12:29:39Z</time>
      </trkpt>
      <trkpt lat="47.8977960" lon="1.9140230">
        <ele>74.8</ele>
        <time>2020-07-02T12:30:09Z</time>
      </trkpt>
      <trkpt lat="47.8977860" lon="1.9140200">
        <ele>75.0</ele>
        <time>2020-07-02T12:30:32Z</time>
      </trkpt>
      <trkpt lat="47.8977710" lon="1.9140240">
        <ele>74.8</ele>
        <time>2020-07-02T12:31:02Z</time>
      </trkpt>
      <trkpt lat="47.8977770" lon="1.9140200">
        <ele>75.0</ele>
        <time>2020-07-02T12:31:22Z</time>
      </trkpt>
      <trkpt lat="47.8977760" lon="1.9140180">
        <ele>74.8</ele>
        <time>2020-07-02T12:32:00Z</time>
      </trkpt>
      <trkpt lat="47.8977740" lon="1.9140070">
        <ele>74.6</ele>
        <time>2020-07-02T12:32:32Z</time>
      </trkpt>
      <trkpt lat="47.8977710" lon="1.9139980">
        <ele>75.2</ele>
        <time>2020-07-02T12:33:52Z</time>
      </trkpt>
      <trkpt lat="47.8977730" lon="1.9139880">
        <ele>75.6</ele>
        <time>2020-07-02T12:34:45Z</time>
      </trkpt>
      <trkpt lat="47.8977740" lon="1.9139850">
        <ele>75.6</ele>
        <time>2020-07-02T12:34:53Z</time>
      </trkpt>
      <trkpt lat="47.8977740" lon="1.9139730">
        <ele>75.0</ele>
        <time>2020-07-02T12:36:03Z</time>
      </trkpt>
      <trkpt lat="47.8977730" lon="1.9139700">
        <ele>75.2</ele>
        <time>2020-07-02T12:36:38Z</time>
      </trkpt>
      <trkpt lat="47.8977730" lon="1.9139580">
        <ele>75.2</ele>
        <time>2020-07-02T12:38:30Z</time>
      </trkpt>
      <trkpt lat="47.8977740" lon="1.9139470">
        <ele>75.6</ele>
        <time>2020-07-02T12:39:52Z</time>
      </trkpt>
      <trkpt lat="47.8977740" lon="1.9139460">
        <ele>75.4</ele>
        <time>2020-07-02T12:40:04Z</time>
      </trkpt>
      <trkpt lat="47.8977790" lon="1.9139430">
        <ele>74.8</ele>
        <time>2020-07-02T12:42:41Z</time>
      </trkpt>
      <trkpt lat="47.8977780" lon="1.9139370">
        <ele>75.0</ele>
        <time>2020-07-02T12:44:27Z</time>
      </trkpt>
      <trkpt lat="47.8977800" lon="1.9139340">
        <ele>75.6</ele>
        <time>2020-07-02T12:45:23Z</time>
      </trkpt>
      <trkpt lat="47.8977820" lon="1.9139330">
        <ele>75.6</ele>
        <time>2020-07-02T12:46:23Z</time>
      </trkpt>
      <trkpt lat="47.8977830" lon="1.9139340">
        <ele>75.8</ele>
        <time>2020-07-02T12:46:32Z</time>
      </trkpt>
      <trkpt lat="47.8977730" lon="1.9139410">
        <ele>75.4</ele>
        <time>2020-07-02T12:47:39Z</time>
      </trkpt>
      <trkpt lat="47.8977740" lon="1.9139250">
        <ele>75.2</ele>
        <time>2020-07-02T12:49:17Z</time>
      </trkpt>
      <trkpt lat="47.8977740" lon="1.9139250">
        <ele>75.2</ele>
        <time>2020-07-02T12:49:25Z</time>
      </trkpt>
      <trkpt lat="47.8977730" lon="1.9139350">
        <ele>75.2</ele>
        <time>2020-07-02T12:50:22Z</time>
      </trkpt>
      <trkpt lat="47.8977690" lon="1.9139340">
        <ele>75.4</ele>
        <time>2020-07-02T12:51:49Z</time>
      </trkpt>
      <trkpt lat="47.8977630" lon="1.9139320">
        <ele>76.0</ele>
        <time>2020-07-02T12:52:55Z</time>
      </trkpt>
      <trkpt lat="47.8977610" lon="1.9139280">
        <ele>75.8</ele>
        <time>2020-07-02T12:54:29Z</time>
      </trkpt>
      <trkpt lat="47.8977550" lon="1.9139640">
        <ele>76.0</ele>
        <time>2020-07-02T12:56:21Z</time>
      </trkpt>
      <trkpt lat="47.8977600" lon="1.9139820">
        <ele>76.0</ele>
        <time>2020-07-02T12:56:51Z</time>
      </trkpt>
      <trkpt lat="47.8977580" lon="1.9139870">
        <ele>75.8</ele>
        <time>2020-07-02T12:57:17Z</time>
      </trkpt>
      <trkpt lat="47.8977600" lon="1.9139900">
        <ele>76.0</ele>
        <time>2020-07-02T12:57:23Z</time>
      </trkpt>
      <trkpt lat="47.8977610" lon="1.9139910">
        <ele>75.6</ele>
        <time>2020-07-02T12:57:50Z</time>
      </trkpt>
      <trkpt lat="47.8977590" lon="1.9139970">
        <ele>76.0</ele>
        <time>2020-07-02T12:58:04Z</time>
      </trkpt>
      <trkpt lat="47.8977550" lon="1.9140010">
        <ele>76.2</ele>
        <time>2020-07-02T12:58:24Z</time>
      </trkpt>
      <trkpt lat="47.8977530" lon="1.9140080">
        <ele>76.2</ele>
        <time>2020-07-02T12:58:38Z</time>
      </trkpt>
      <trkpt lat="47.8977530" lon="1.9140080">
        <ele>76.2</ele>
        <time>2020-07-02T12:58:39Z</time>
      </trkpt>
      <trkpt lat="47.8977530" lon="1.9140080">
        <ele>76.2</ele>
        <time>2020-07-02T12:58:43Z</time>
      </trkpt>
      <trkpt lat="47.8977520" lon="1.9140080">
        <ele>76.2</ele>
        <time>2020-07-02T12:58:44Z</time>
      </trkpt>
      <trkpt lat="47.8977530" lon="1.9140080">
        <ele>76.2</ele>
        <time>2020-07-02T12:58:46Z</time>
      </trkpt>
      <trkpt lat="47.8977530" lon="1.9140080">
        <ele>76.2</ele>
        <time>2020-07-02T12:58:47Z</time>
      </trkpt>
      <trkpt lat="47.8977530" lon="1.9140080">
        <ele>76.2</ele>
        <time>2020-07-02T12:58:49Z</time>
      </trkpt>
      <trkpt lat="47.8977530" lon="1.9140080">
        <ele>76.4</ele>
        <time>2020-07-02T12:58:51Z</time>
      </trkpt>
      <trkpt lat="47.8977520" lon="1.9140080">
        <ele>76.2</ele>
        <time>2020-07-02T12:58:53Z</time>
      </trkpt>
      <trkpt lat="47.8977530" lon="1.9140080">
        <ele>76.4</ele>
        <time>2020-07-02T12:58:54Z</time>
      </trkpt>
      <trkpt lat="47.8977530" lon="1.9140080">
        <ele>76.4</ele>
        <time>2020-07-02T12:58:55Z</time>
      </trkpt>
      <trkpt lat="47.8977470" lon="1.9140090">
        <ele>76.4</ele>
        <time>2020-07-02T12:59:19Z</time>
      </trkpt>
      <trkpt lat="47.8977390" lon="1.9140700">
        <ele>76.0</ele>
        <time>2020-07-02T12:59:38Z</time>
      </trkpt>
      <trkpt lat="47.8977400" lon="1.9141080">
        <ele>75.8</ele>
        <time>2020-07-02T12:59:41Z</time>
      </trkpt>
      <trkpt lat="47.8977430" lon="1.9142530">
        <ele>76.4</ele>
        <time>2020-07-02T12:59:52Z</time>
      </trkpt>
      <trkpt lat="47.8977510" lon="1.9142750">
        <ele>76.4</ele>
        <time>2020-07-02T12:59:54Z</time>
      </trkpt>
      <trkpt lat="47.8978170" lon="1.9144180">
        <ele>77.4</ele>
        <time>2020-07-02T13:00:06Z</time>
      </trkpt>
      <trkpt lat="47.8979190" lon="1.9145740">
        <ele>77.6</ele>
        <time>2020-07-02T13:00:20Z</time>
      </trkpt>
      <trkpt lat="47.8979230" lon="1.9145860">
        <ele>77.6</ele>
        <time>2020-07-02T13:00:21Z</time>
      </trkpt>
      <trkpt lat="47.8979600" lon="1.9147360">
        <ele>78.4</ele>
        <time>2020-07-02T13:00:34Z</time>
      </trkpt>
      <trkpt lat="47.8979740" lon="1.9148350">
        <ele>78.8</ele>
        <time>2020-07-02T13:00:41Z</time>
      </trkpt>
      <trkpt lat="47.8979870" lon="1.9148920">
        <ele>79.4</ele>
        <time>2020-07-02T13:00:45Z</time>
      </trkpt>
      <trkpt lat="47.8979830" lon="1.9149610">
        <ele>80.2</ele>
        <time>2020-07-02T13:00:55Z</time>
      </trkpt>
      <trkpt lat="47.8979680" lon="1.9150150">
        <ele>80.6</ele>
        <time>2020-07-02T13:01:08Z</time>
      </trkpt>
      <trkpt lat="47.8979740" lon="1.9150380">
        <ele>80.6</ele>
        <time>2020-07-02T13:01:10Z</time>
      </trkpt>
      <trkpt lat="47.8979970" lon="1.9151570">
        <ele>81.2</ele>
        <time>2020-07-02T13:01:21Z</time>
      </trkpt>
      <trkpt lat="47.8980360" lon="1.9153540">
        <ele>81.4</ele>
        <time>2020-07-02T13:01:31Z</time>
      </trkpt>
      <trkpt lat="47.8980660" lon="1.9155230">
        <ele>81.4</ele>
        <time>2020-07-02T13:01:38Z</time>
      </trkpt>
      <trkpt lat="47.8981280" lon="1.9157320">
        <ele>82.2</ele>
        <time>2020-07-02T13:01:47Z</time>
      </trkpt>
      <trkpt lat="47.8981320" lon="1.9157920">
        <ele>82.2</ele>
        <time>2020-07-02T13:01:49Z</time>
      </trkpt>
      <trkpt lat="47.8981300" lon="1.9158160">
        <ele>82.4</ele>
        <time>2020-07-02T13:01:55Z</time>
      </trkpt>
      <trkpt lat="47.8981180" lon="1.9158410">
        <ele>82.6</ele>
        <time>2020-07-02T13:02:10Z</time>
      </trkpt>
      <trkpt lat="47.8981380" lon="1.9159330">
        <ele>82.4</ele>
        <time>2020-07-02T13:02:24Z</time>
      </trkpt>
      <trkpt lat="47.8981900" lon="1.9161210">
        <ele>82.4</ele>
        <time>2020-07-02T13:02:30Z</time>
      </trkpt>
      <trkpt lat="47.8982160" lon="1.9164350">
        <ele>82.2</ele>
        <time>2020-07-02T13:02:39Z</time>
      </trkpt>
      <trkpt lat="47.8982040" lon="1.9168170">
        <ele>82.2</ele>
        <time>2020-07-02T13:02:47Z</time>
      </trkpt>
      <trkpt lat="47.8982110" lon="1.9169340">
        <ele>82.2</ele>
        <time>2020-07-02T13:02:50Z</time>
      </trkpt>
      <trkpt lat="47.8982410" lon="1.9171480">
        <ele>82.2</ele>
        <time>2020-07-02T13:02:55Z</time>
      </trkpt>
      <trkpt lat="47.8982470" lon="1.9171880">
        <ele>82.0</ele>
        <time>2020-07-02T13:02:56Z</time>
      </trkpt>
      <trkpt lat="47.8982960" lon="1.9175890">
        <ele>82.0</ele>
        <time>2020-07-02T13:03:05Z</time>
      </trkpt>
      <trkpt lat="47.8983270" lon="1.9180780">
        <ele>81.8</ele>
        <time>2020-07-02T13:03:15Z</time>
      </trkpt>
      <trkpt lat="47.8984380" lon="1.9186140">
        <ele>82.0</ele>
        <time>2020-07-02T13:03:26Z</time>
      </trkpt>
      <trkpt lat="47.8985600" lon="1.9192600">
        <ele>82.0</ele>
        <time>2020-07-02T13:03:39Z</time>
      </trkpt>
      <trkpt lat="47.8986830" lon="1.9197580">
        <ele>81.8</ele>
        <time>2020-07-02T13:03:51Z</time>
      </trkpt>
      <trkpt lat="47.8987100" lon="1.9200420">
        <ele>82.0</ele>
        <time>2020-07-02T13:03:59Z</time>
      </trkpt>
      <trkpt lat="47.8987330" lon="1.9201270">
        <ele>82.0</ele>
        <time>2020-07-02T13:04:02Z</time>
      </trkpt>
      <trkpt lat="47.8987620" lon="1.9201700">
        <ele>82.0</ele>
        <time>2020-07-02T13:04:04Z</time>
      </trkpt>
      <trkpt lat="47.8988110" lon="1.9203540">
        <ele>82.0</ele>
        <time>2020-07-02T13:04:11Z</time>
      </trkpt>
      <trkpt lat="47.8988340" lon="1.9204260">
        <ele>82.0</ele>
        <time>2020-07-02T13:04:15Z</time>
      </trkpt>
      <trkpt lat="47.8989560" lon="1.9204720">
        <ele>81.8</ele>
        <time>2020-07-02T13:04:22Z</time>
      </trkpt>
      <trkpt lat="47.8990480" lon="1.9204590">
        <ele>82.0</ele>
        <time>2020-07-02T13:04:29Z</time>
      </trkpt>
      <trkpt lat="47.8990690" lon="1.9204600">
        <ele>82.2</ele>
        <time>2020-07-02T13:04:31Z</time>
      </trkpt>
      <trkpt lat="47.8991690" lon="1.9204530">
        <ele>82.6</ele>
        <time>2020-07-02T13:04:38Z</time>
      </trkpt>
      <trkpt lat="47.8993060" lon="1.9204180">
        <ele>83.2</ele>
        <time>2020-07-02T13:04:43Z</time>
      </trkpt>
      <trkpt lat="47.8993950" lon="1.9204000">
        <ele>83.6</ele>
        <time>2020-07-02T13:04:47Z</time>
      </trkpt>
      <trkpt lat="47.8994480" lon="1.9204040">
        <ele>83.8</ele>
        <time>2020-07-02T13:04:50Z</time>
      </trkpt>
      <trkpt lat="47.8994600" lon="1.9204430">
        <ele>84.0</ele>
        <time>2020-07-02T13:04:52Z</time>
      </trkpt>
      <trkpt lat="47.8994470" lon="1.9204850">
        <ele>84.6</ele>
        <time>2020-07-02T13:04:54Z</time>
      </trkpt>
      <trkpt lat="47.8993940" lon="1.9205290">
        <ele>85.4</ele>
        <time>2020-07-02T13:04:57Z</time>
      </trkpt>
      <trkpt lat="47.8992730" lon="1.9205670">
        <ele>86.0</ele>
        <time>2020-07-02T13:05:03Z</time>
      </trkpt>
      <trkpt lat="47.8992590" lon="1.9205540">
        <ele>86.0</ele>
        <time>2020-07-02T13:05:04Z</time>
      </trkpt>
      <trkpt lat="47.8992190" lon="1.9205010">
        <ele>86.2</ele>
        <time>2020-07-02T13:05:08Z</time>
      </trkpt>
      <trkpt lat="47.8991880" lon="1.9204530">
        <ele>86.4</ele>
        <time>2020-07-02T13:05:11Z</time>
      </trkpt>
      <trkpt lat="47.8991580" lon="1.9204040">
        <ele>87.0</ele>
        <time>2020-07-02T13:05:14Z</time>
      </trkpt>
      <trkpt lat="47.8990600" lon="1.9203280">
        <ele>88.6</ele>
        <time>2020-07-02T13:05:22Z</time>
      </trkpt>
      <trkpt lat="47.8990420" lon="1.9203280">
        <ele>88.6</ele>
        <time>2020-07-02T13:05:23Z</time>
      </trkpt>
      <trkpt lat="47.8988580" lon="1.9203870">
        <ele>89.4</ele>
        <time>2020-07-02T13:05:30Z</time>
      </trkpt>
      <trkpt lat="47.8985490" lon="1.9204800">
        <ele>89.6</ele>
        <time>2020-07-02T13:05:39Z</time>
      </trkpt>
      <trkpt lat="47.8981860" lon="1.9206030">
        <ele>90.0</ele>
        <time>2020-07-02T13:05:48Z</time>
      </trkpt>
      <trkpt lat="47.8981430" lon="1.9206150">
        <ele>90.0</ele>
        <time>2020-07-02T13:05:49Z</time>
      </trkpt>
      <trkpt lat="47.8977330" lon="1.9207400">
        <ele>89.8</ele>
        <time>2020-07-02T13:05:59Z</time>
      </trkpt>
      <trkpt lat="47.8976100" lon="1.9207770">
        <ele>89.6</ele>
        <time>2020-07-02T13:06:02Z</time>
      </trkpt>
      <trkpt lat="47.8975690" lon="1.9207890">
        <ele>89.8</ele>
        <time>2020-07-02T13:06:03Z</time>
      </trkpt>
      <trkpt lat="47.8974480" lon="1.9208220">
        <ele>89.6</ele>
        <time>2020-07-02T13:06:06Z</time>
      </trkpt>
      <trkpt lat="47.8973340" lon="1.9208590">
        <ele>89.8</ele>
        <time>2020-07-02T13:06:09Z</time>
      </trkpt>
      <trkpt lat="47.8971050" lon="1.9209330">
        <ele>90.2</ele>
        <time>2020-07-02T13:06:15Z</time>
      </trkpt>
      <trkpt lat="47.8965550" lon="1.9211100">
        <ele>90.4</ele>
        <time>2020-07-02T13:06:29Z</time>
      </trkpt>
      <trkpt lat="47.8964790" lon="1.9211320">
        <ele>90.4</ele>
        <time>2020-07-02T13:06:31Z</time>
      </trkpt>
      <trkpt lat="47.8962650" lon="1.9211960">
        <ele>90.6</ele>
        <time>2020-07-02T13:06:37Z</time>
      </trkpt>
      <trkpt lat="47.8962280" lon="1.9212090">
        <ele>90.6</ele>
        <time>2020-07-02T13:06:38Z</time>
      </trkpt>
      <trkpt lat="47.8960770" lon="1.9212540">
        <ele>90.6</ele>
        <time>2020-07-02T13:06:42Z</time>
      </trkpt>
      <trkpt lat="47.8958380" lon="1.9213260">
        <ele>90.4</ele>
        <time>2020-07-02T13:06:48Z</time>
      </trkpt>
      <trkpt lat="47.8955490" lon="1.9214050">
        <ele>90.2</ele>
        <time>2020-07-02T13:06:55Z</time>
      </trkpt>
      <trkpt lat="47.8955090" lon="1.9214170">
        <ele>90.2</ele>
        <time>2020-07-02T13:06:56Z</time>
      </trkpt>
      <trkpt lat="47.8951240" lon="1.9215260">
        <ele>90.4</ele>
        <time>2020-07-02T13:07:06Z</time>
      </trkpt>
      <trkpt lat="47.8948590" lon="1.9216180">
        <ele>90.4</ele>
        <time>2020-07-02T13:07:14Z</time>
      </trkpt>
      <trkpt lat="47.8947210" lon="1.9216610">
        <ele>90.4</ele>
        <time>2020-07-02T13:07:18Z</time>
      </trkpt>
      <trkpt lat="47.8945000" lon="1.9217510">
        <ele>90.0</ele>
        <time>2020-07-02T13:07:24Z</time>
      </trkpt>
      <trkpt lat="47.8940920" lon="1.9218740">
        <ele>89.2</ele>
        <time>2020-07-02T13:07:35Z</time>
      </trkpt>
      <trkpt lat="47.8939720" lon="1.9219160">
        <ele>89.2</ele>
        <time>2020-07-02T13:07:38Z</time>
      </trkpt>
      <trkpt lat="47.8937740" lon="1.9219860">
        <ele>88.8</ele>
        <time>2020-07-02T13:07:43Z</time>
      </trkpt>
      <trkpt lat="47.8935350" lon="1.9221210">
        <ele>88.4</ele>
        <time>2020-07-02T13:07:50Z</time>
      </trkpt>
      <trkpt lat="47.8934040" lon="1.9222220">
        <ele>87.6</ele>
        <time>2020-07-02T13:07:54Z</time>
      </trkpt>
      <trkpt lat="47.8933680" lon="1.9223000">
        <ele>87.4</ele>
        <time>2020-07-02T13:07:56Z</time>
      </trkpt>
      <trkpt lat="47.8933280" lon="1.9224350">
        <ele>86.8</ele>
        <time>2020-07-02T13:08:01Z</time>
      </trkpt>
      <trkpt lat="47.8933110" lon="1.9224640">
        <ele>86.6</ele>
        <time>2020-07-02T13:08:02Z</time>
      </trkpt>
      <trkpt lat="47.8932390" lon="1.9225410">
        <ele>85.0</ele>
        <time>2020-07-02T13:08:07Z</time>
      </trkpt>
      <trkpt lat="47.8932300" lon="1.9226390">
        <ele>84.6</ele>
        <time>2020-07-02T13:08:10Z</time>
      </trkpt>
      <trkpt lat="47.8932180" lon="1.9227370">
        <ele>84.2</ele>
        <time>2020-07-02T13:08:12Z</time>
      </trkpt>
      <trkpt lat="47.8932170" lon="1.9230340">
        <ele>83.6</ele>
        <time>2020-07-02T13:08:18Z</time>
      </trkpt>
      <trkpt lat="47.8933080" lon="1.9231280">
        <ele>82.6</ele>
        <time>2020-07-02T13:08:22Z</time>
      </trkpt>
      <trkpt lat="47.8935040" lon="1.9230990">
        <ele>82.6</ele>
        <time>2020-07-02T13:08:28Z</time>
      </trkpt>
      <trkpt lat="47.8938630" lon="1.9229850">
        <ele>82.6</ele>
        <time>2020-07-02T13:08:37Z</time>
      </trkpt>
      <trkpt lat="47.8942160" lon="1.9228420">
        <ele>82.8</ele>
        <time>2020-07-02T13:08:46Z</time>
      </trkpt>
      <trkpt lat="47.8945990" lon="1.9227140">
        <ele>83.0</ele>
        <time>2020-07-02T13:08:56Z</time>
      </trkpt>
      <trkpt lat="47.8950000" lon="1.9225610">
        <ele>83.0</ele>
        <time>2020-07-02T13:09:06Z</time>
      </trkpt>
      <trkpt lat="47.8950390" lon="1.9225530">
        <ele>83.0</ele>
        <time>2020-07-02T13:09:07Z</time>
      </trkpt>
      <trkpt lat="47.8951230" lon="1.9225800">
        <ele>83.0</ele>
        <time>2020-07-02T13:09:10Z</time>
      </trkpt>
      <trkpt lat="47.8951600" lon="1.9226700">
        <ele>83.0</ele>
        <time>2020-07-02T13:09:13Z</time>
      </trkpt>
      <trkpt lat="47.8951670" lon="1.9227640">
        <ele>83.2</ele>
        <time>2020-07-02T13:09:15Z</time>
      </trkpt>
      <trkpt lat="47.8951860" lon="1.9231960">
        <ele>85.2</ele>
        <time>2020-07-02T13:09:23Z</time>
      </trkpt>
      <trkpt lat="47.8951890" lon="1.9233110">
        <ele>85.2</ele>
        <time>2020-07-02T13:09:25Z</time>
      </trkpt>
      <trkpt lat="47.8951830" lon="1.9239250">
        <ele>84.8</ele>
        <time>2020-07-02T13:09:35Z</time>
      </trkpt>
      <trkpt lat="47.8951460" lon="1.9243880">
        <ele>84.4</ele>
        <time>2020-07-02T13:09:43Z</time>
      </trkpt>
      <trkpt lat="47.8951150" lon="1.9246540">
        <ele>84.6</ele>
        <time>2020-07-02T13:09:48Z</time>
      </trkpt>
      <trkpt lat="47.8951020" lon="1.9247530">
        <ele>84.6</ele>
        <time>2020-07-02T13:09:50Z</time>
      </trkpt>
      <trkpt lat="47.8950950" lon="1.9248020">
        <ele>84.6</ele>
        <time>2020-07-02T13:09:51Z</time>
      </trkpt>
      <trkpt lat="47.8950880" lon="1.9248490">
        <ele>84.4</ele>
        <time>2020-07-02T13:09:52Z</time>
      </trkpt>
      <trkpt lat="47.8950610" lon="1.9249920">
        <ele>84.4</ele>
        <time>2020-07-02T13:09:55Z</time>
      </trkpt>
      <trkpt lat="47.8950300" lon="1.9252620">
        <ele>84.6</ele>
        <time>2020-07-02T13:10:00Z</time>
      </trkpt>
      <trkpt lat="47.8949720" lon="1.9258470">
        <ele>84.6</ele>
        <time>2020-07-02T13:10:10Z</time>
      </trkpt>
      <trkpt lat="47.8949080" lon="1.9264640">
        <ele>84.4</ele>
        <time>2020-07-02T13:10:21Z</time>
      </trkpt>
      <trkpt lat="47.8948440" lon="1.9270040">
        <ele>84.4</ele>
        <time>2020-07-02T13:10:29Z</time>
      </trkpt>
      <trkpt lat="47.8947920" lon="1.9275080">
        <ele>84.4</ele>
        <time>2020-07-02T13:10:36Z</time>
      </trkpt>
      <trkpt lat="47.8947680" lon="1.9276560">
        <ele>84.2</ele>
        <time>2020-07-02T13:10:38Z</time>
      </trkpt>
      <trkpt lat="47.8947550" lon="1.9277290">
        <ele>84.4</ele>
        <time>2020-07-02T13:10:39Z</time>
      </trkpt>
      <trkpt lat="47.8947430" lon="1.9277980">
        <ele>84.4</ele>
        <time>2020-07-02T13:10:40Z</time>
      </trkpt>
      <trkpt lat="47.8947030" lon="1.9280770">
        <ele>84.2</ele>
        <time>2020-07-02T13:10:44Z</time>
      </trkpt>
      <trkpt lat="47.8946360" lon="1.9286440">
        <ele>84.4</ele>
        <time>2020-07-02T13:10:52Z</time>
      </trkpt>
      <trkpt lat="47.8945570" lon="1.9293950">
        <ele>84.6</ele>
        <time>2020-07-02T13:11:02Z</time>
      </trkpt>
      <trkpt lat="47.8944430" lon="1.9301300">
        <ele>84.4</ele>
        <time>2020-07-02T13:11:12Z</time>
      </trkpt>
      <trkpt lat="47.8944090" lon="1.9305950">
        <ele>84.4</ele>
        <time>2020-07-02T13:11:19Z</time>
      </trkpt>
      <trkpt lat="47.8944240" lon="1.9306500">
        <ele>84.4</ele>
        <time>2020-07-02T13:11:20Z</time>
      </trkpt>
      <trkpt lat="47.8944510" lon="1.9306920">
        <ele>84.6</ele>
        <time>2020-07-02T13:11:21Z</time>
      </trkpt>
      <trkpt lat="47.8945160" lon="1.9307680">
        <ele>84.6</ele>
        <time>2020-07-02T13:11:23Z</time>
      </trkpt>
      <trkpt lat="47.8946050" lon="1.9308510">
        <ele>84.6</ele>
        <time>2020-07-02T13:11:25Z</time>
      </trkpt>
      <trkpt lat="47.8947120" lon="1.9309430">
        <ele>84.6</ele>
        <time>2020-07-02T13:11:27Z</time>
      </trkpt>
      <trkpt lat="47.8947680" lon="1.9309940">
        <ele>84.4</ele>
        <time>2020-07-02T13:11:28Z</time>
      </trkpt>
      <trkpt lat="47.8948840" lon="1.9311040">
        <ele>84.6</ele>
        <time>2020-07-02T13:11:30Z</time>
      </trkpt>
      <trkpt lat="47.8951110" lon="1.9313070">
        <ele>84.4</ele>
        <time>2020-07-02T13:11:34Z</time>
      </trkpt>
      <trkpt lat="47.8952400" lon="1.9314070">
        <ele>82.6</ele>
        <time>2020-07-02T13:11:38Z</time>
      </trkpt>
      <trkpt lat="47.8953510" lon="1.9313360">
        <ele>81.4</ele>
        <time>2020-07-02T13:11:43Z</time>
      </trkpt>
      <trkpt lat="47.8955300" lon="1.9311010">
        <ele>81.0</ele>
        <time>2020-07-02T13:11:51Z</time>
      </trkpt>
      <trkpt lat="47.8955840" lon="1.9309920">
        <ele>81.0</ele>
        <time>2020-07-02T13:11:57Z</time>
      </trkpt>
      <trkpt lat="47.8955620" lon="1.9309370">
        <ele>81.2</ele>
        <time>2020-07-02T13:12:00Z</time>
      </trkpt>
      <trkpt lat="47.8955500" lon="1.9309070">
        <ele>81.0</ele>
        <time>2020-07-02T13:12:01Z</time>
      </trkpt>
      <trkpt lat="47.8955250" lon="1.9308670">
        <ele>81.2</ele>
        <time>2020-07-02T13:12:02Z</time>
      </trkpt>
      <trkpt lat="47.8954980" lon="1.9308240">
        <ele>81.2</ele>
        <time>2020-07-02T13:12:03Z</time>
      </trkpt>
      <trkpt lat="47.8954790" lon="1.9307840">
        <ele>81.0</ele>
        <time>2020-07-02T13:12:04Z</time>
      </trkpt>
      <trkpt lat="47.8954600" lon="1.9306410">
        <ele>81.0</ele>
        <time>2020-07-02T13:12:08Z</time>
      </trkpt>
      <trkpt lat="47.8955330" lon="1.9305340">
        <ele>80.6</ele>
        <time>2020-07-02T13:12:12Z</time>
      </trkpt>
      <trkpt lat="47.8955520" lon="1.9305180">
        <ele>80.8</ele>
        <time>2020-07-02T13:12:13Z</time>
      </trkpt>
      <trkpt lat="47.8955640" lon="1.9305020">
        <ele>80.8</ele>
        <time>2020-07-02T13:12:14Z</time>
      </trkpt>
      <trkpt lat="47.8956820" lon="1.9304620">
        <ele>80.6</ele>
        <time>2020-07-02T13:12:21Z</time>
      </trkpt>
      <trkpt lat="47.8957580" lon="1.9304090">
        <ele>80.4</ele>
        <time>2020-07-02T13:12:25Z</time>
      </trkpt>
      <trkpt lat="47.8959120" lon="1.9302530">
        <ele>80.4</ele>
        <time>2020-07-02T13:12:33Z</time>
      </trkpt>
      <trkpt lat="47.8960270" lon="1.9300770">
        <ele>80.2</ele>
        <time>2020-07-02T13:12:40Z</time>
      </trkpt>
      <trkpt lat="47.8960300" lon="1.9301020">
        <ele>80.4</ele>
        <time>2020-07-02T13:12:45Z</time>
      </trkpt>
      <trkpt lat="47.8960240" lon="1.9301450">
        <ele>80.4</ele>
        <time>2020-07-02T13:12:47Z</time>
      </trkpt>
      <trkpt lat="47.8959690" lon="1.9302270">
        <ele>80.6</ele>
        <time>2020-07-02T13:12:50Z</time>
      </trkpt>
      <trkpt lat="47.8959440" lon="1.9302500">
        <ele>80.6</ele>
        <time>2020-07-02T13:12:51Z</time>
      </trkpt>
      <trkpt lat="47.8959180" lon="1.9302690">
        <ele>80.6</ele>
        <time>2020-07-02T13:12:52Z</time>
      </trkpt>
      <trkpt lat="47.8958940" lon="1.9302910">
        <ele>80.6</ele>
        <time>2020-07-02T13:12:53Z</time>
      </trkpt>
      <trkpt lat="47.8957990" lon="1.9303730">
        <ele>80.6</ele>
        <time>2020-07-02T13:12:57Z</time>
      </trkpt>
      <trkpt lat="47.8956290" lon="1.9305130">
        <ele>80.8</ele>
        <time>2020-07-02T13:13:04Z</time>
      </trkpt>
      <trkpt lat="47.8955310" lon="1.9306650">
        <ele>80.6</ele>
        <time>2020-07-02T13:13:09Z</time>
      </trkpt>
      <trkpt lat="47.8955510" lon="1.9308020">
        <ele>80.6</ele>
        <time>2020-07-02T13:13:13Z</time>
      </trkpt>
      <trkpt lat="47.8956010" lon="1.9309140">
        <ele>80.8</ele>
        <time>2020-07-02T13:13:17Z</time>
      </trkpt>
      <trkpt lat="47.8956220" lon="1.9309540">
        <ele>80.8</ele>
        <time>2020-07-02T13:13:19Z</time>
      </trkpt>
      <trkpt lat="47.8957190" lon="1.9311630">
        <ele>81.0</ele>
        <time>2020-07-02T13:13:26Z</time>
      </trkpt>
      <trkpt lat="47.8957490" lon="1.9312510">
        <ele>81.2</ele>
        <time>2020-07-02T13:13:28Z</time>
      </trkpt>
      <trkpt lat="47.8958380" lon="1.9315620">
        <ele>81.0</ele>
        <time>2020-07-02T13:13:34Z</time>
      </trkpt>
      <trkpt lat="47.8959460" lon="1.9320140">
        <ele>80.2</ele>
        <time>2020-07-02T13:13:43Z</time>
      </trkpt>
      <trkpt lat="47.8959820" lon="1.9321180">
        <ele>80.0</ele>
        <time>2020-07-02T13:13:45Z</time>
      </trkpt>
      <trkpt lat="47.8961040" lon="1.9323920">
        <ele>80.0</ele>
        <time>2020-07-02T13:13:51Z</time>
      </trkpt>
      <trkpt lat="47.8962830" lon="1.9327440">
        <ele>80.4</ele>
        <time>2020-07-02T13:13:59Z</time>
      </trkpt>
      <trkpt lat="47.8963190" lon="1.9328380">
        <ele>80.4</ele>
        <time>2020-07-02T13:14:01Z</time>
      </trkpt>
      <trkpt lat="47.8963340" lon="1.9328900">
        <ele>80.6</ele>
        <time>2020-07-02T13:14:02Z</time>
      </trkpt>
      <trkpt lat="47.8963460" lon="1.9329440">
        <ele>80.4</ele>
        <time>2020-07-02T13:14:03Z</time>
      </trkpt>
      <trkpt lat="47.8963490" lon="1.9329990">
        <ele>80.6</ele>
        <time>2020-07-02T13:14:04Z</time>
      </trkpt>
      <trkpt lat="47.8963560" lon="1.9330550">
        <ele>80.6</ele>
        <time>2020-07-02T13:14:05Z</time>
      </trkpt>
      <trkpt lat="47.8963380" lon="1.9334480">
        <ele>81.0</ele>
        <time>2020-07-02T13:14:12Z</time>
      </trkpt>
      <trkpt lat="47.8963130" lon="1.9337120">
        <ele>81.0</ele>
        <time>2020-07-02T13:14:16Z</time>
      </trkpt>
      <trkpt lat="47.8963170" lon="1.9340070">
        <ele>81.0</ele>
        <time>2020-07-02T13:14:20Z</time>
      </trkpt>
      <trkpt lat="47.8963360" lon="1.9343170">
        <ele>80.8</ele>
        <time>2020-07-02T13:14:25Z</time>
      </trkpt>
      <trkpt lat="47.8963400" lon="1.9343700">
        <ele>80.8</ele>
        <time>2020-07-02T13:14:26Z</time>
      </trkpt>
      <trkpt lat="47.8963450" lon="1.9344190">
        <ele>80.6</ele>
        <time>2020-07-02T13:14:27Z</time>
      </trkpt>
      <trkpt lat="47.8963480" lon="1.9344670">
        <ele>80.6</ele>
        <time>2020-07-02T13:14:28Z</time>
      </trkpt>
      <trkpt lat="47.8963480" lon="1.9346420">
        <ele>80.6</ele>
        <time>2020-07-02T13:14:32Z</time>
      </trkpt>
      <trkpt lat="47.8963370" lon="1.9347690">
        <ele>80.2</ele>
        <time>2020-07-02T13:14:35Z</time>
      </trkpt>
      <trkpt lat="47.8963420" lon="1.9348650">
        <ele>80.4</ele>
        <time>2020-07-02T13:14:37Z</time>
      </trkpt>
      <trkpt lat="47.8963610" lon="1.9351550">
        <ele>80.8</ele>
        <time>2020-07-02T13:14:42Z</time>
      </trkpt>
      <trkpt lat="47.8963650" lon="1.9352130">
        <ele>80.8</ele>
        <time>2020-07-02T13:14:43Z</time>
      </trkpt>
      <trkpt lat="47.8963760" lon="1.9353330">
        <ele>80.8</ele>
        <time>2020-07-02T13:14:45Z</time>
      </trkpt>
      <trkpt lat="47.8963860" lon="1.9355070">
        <ele>80.8</ele>
        <time>2020-07-02T13:14:48Z</time>
      </trkpt>
      <trkpt lat="47.8963850" lon="1.9355590">
        <ele>80.8</ele>
        <time>2020-07-02T13:14:49Z</time>
      </trkpt>
      <trkpt lat="47.8963760" lon="1.9357040">
        <ele>80.8</ele>
        <time>2020-07-02T13:14:52Z</time>
      </trkpt>
      <trkpt lat="47.8963510" lon="1.9359810">
        <ele>80.8</ele>
        <time>2020-07-02T13:15:00Z</time>
      </trkpt>
      <trkpt lat="47.8963550" lon="1.9361690">
        <ele>81.0</ele>
        <time>2020-07-02T13:15:07Z</time>
      </trkpt>
      <trkpt lat="47.8963540" lon="1.9361890">
        <ele>81.0</ele>
        <time>2020-07-02T13:15:08Z</time>
      </trkpt>
      <trkpt lat="47.8963400" lon="1.9363130">
        <ele>81.8</ele>
        <time>2020-07-02T13:15:16Z</time>
      </trkpt>
      <trkpt lat="47.8963350" lon="1.9363200">
        <ele>82.2</ele>
        <time>2020-07-02T13:15:20Z</time>
      </trkpt>
      <trkpt lat="47.8963350" lon="1.9363190">
        <ele>82.2</ele>
        <time>2020-07-02T13:15:21Z</time>
      </trkpt>
      <trkpt lat="47.8963350" lon="1.9363190">
        <ele>82.2</ele>
        <time>2020-07-02T13:15:22Z</time>
      </trkpt>
      <trkpt lat="47.8963370" lon="1.9363190">
        <ele>82.4</ele>
        <time>2020-07-02T13:15:28Z</time>
      </trkpt>
      <trkpt lat="47.8963380" lon="1.9363220">
        <ele>82.2</ele>
        <time>2020-07-02T13:15:45Z</time>
      </trkpt>
      <trkpt lat="47.8963380" lon="1.9363230">
        <ele>82.4</ele>
        <time>2020-07-02T13:15:46Z</time>
      </trkpt>
      <trkpt lat="47.8963290" lon="1.9363540">
        <ele>82.2</ele>
        <time>2020-07-02T13:15:56Z</time>
      </trkpt>
      <trkpt lat="47.8963250" lon="1.9363660">
        <ele>82.2</ele>
        <time>2020-07-02T13:15:57Z</time>
      </trkpt>
      <trkpt lat="47.8963140" lon="1.9364180">
        <ele>82.2</ele>
        <time>2020-07-02T13:16:00Z</time>
      </trkpt>
      <trkpt lat="47.8962750" lon="1.9365230">
        <ele>82.0</ele>
        <time>2020-07-02T13:16:03Z</time>
      </trkpt>
      <trkpt lat="47.8961460" lon="1.9368440">
        <ele>81.0</ele>
        <time>2020-07-02T13:16:10Z</time>
      </trkpt>
      <trkpt lat="47.8960310" lon="1.9373510">
        <ele>80.2</ele>
        <time>2020-07-02T13:16:18Z</time>
      </trkpt>
      <trkpt lat="47.8960180" lon="1.9374220">
        <ele>80.2</ele>
        <time>2020-07-02T13:16:19Z</time>
      </trkpt>
      <trkpt lat="47.8959560" lon="1.9378630">
        <ele>80.0</ele>
        <time>2020-07-02T13:16:26Z</time>
      </trkpt>
      <trkpt lat="47.8958690" lon="1.9383010">
        <ele>79.8</ele>
        <time>2020-07-02T13:16:34Z</time>
      </trkpt>
      <trkpt lat="47.8958480" lon="1.9384800">
        <ele>79.8</ele>
        <time>2020-07-02T13:16:37Z</time>
      </trkpt>
      <trkpt lat="47.8958300" lon="1.9387270">
        <ele>79.8</ele>
        <time>2020-07-02T13:16:41Z</time>
      </trkpt>
      <trkpt lat="47.8957420" lon="1.9392400">
        <ele>79.8</ele>
        <time>2020-07-02T13:16:49Z</time>
      </trkpt>
      <trkpt lat="47.8957220" lon="1.9393690">
        <ele>80.0</ele>
        <time>2020-07-02T13:16:51Z</time>
      </trkpt>
      <trkpt lat="47.8956820" lon="1.9396750">
        <ele>79.8</ele>
        <time>2020-07-02T13:16:56Z</time>
      </trkpt>
      <trkpt lat="47.8956480" lon="1.9399780">
        <ele>79.8</ele>
        <time>2020-07-02T13:17:01Z</time>
      </trkpt>
      <trkpt lat="47.8956440" lon="1.9400880">
        <ele>80.0</ele>
        <time>2020-07-02T13:17:03Z</time>
      </trkpt>
      <trkpt lat="47.8956810" lon="1.9404290">
        <ele>80.0</ele>
        <time>2020-07-02T13:17:09Z</time>
      </trkpt>
      <trkpt lat="47.8956940" lon="1.9404870">
        <ele>80.0</ele>
        <time>2020-07-02T13:17:10Z</time>
      </trkpt>
      <trkpt lat="47.8957410" lon="1.9409270">
        <ele>79.8</ele>
        <time>2020-07-02T13:17:17Z</time>
      </trkpt>
      <trkpt lat="47.8957290" lon="1.9412920">
        <ele>79.8</ele>
        <time>2020-07-02T13:17:24Z</time>
      </trkpt>
      <trkpt lat="47.8957030" lon="1.9414910">
        <ele>79.6</ele>
        <time>2020-07-02T13:17:29Z</time>
      </trkpt>
      <trkpt lat="47.8956980" lon="1.9415230">
        <ele>79.6</ele>
        <time>2020-07-02T13:17:30Z</time>
      </trkpt>
      <trkpt lat="47.8956930" lon="1.9415540">
        <ele>79.6</ele>
        <time>2020-07-02T13:17:31Z</time>
      </trkpt>
      <trkpt lat="47.8956860" lon="1.9416990">
        <ele>79.8</ele>
        <time>2020-07-02T13:17:38Z</time>
      </trkpt>
      <trkpt lat="47.8956600" lon="1.9416530">
        <ele>80.2</ele>
        <time>2020-07-02T13:17:44Z</time>
      </trkpt>
      <trkpt lat="47.8956650" lon="1.9414550">
        <ele>80.2</ele>
        <time>2020-07-02T13:17:52Z</time>
      </trkpt>
      <trkpt lat="47.8956460" lon="1.9413020">
        <ele>80.0</ele>
        <time>2020-07-02T13:17:56Z</time>
      </trkpt>
      <trkpt lat="47.8956480" lon="1.9411310">
        <ele>80.0</ele>
        <time>2020-07-02T13:18:00Z</time>
      </trkpt>
      <trkpt lat="47.8956620" lon="1.9408480">
        <ele>80.6</ele>
        <time>2020-07-02T13:18:07Z</time>
      </trkpt>
      <trkpt lat="47.8956620" lon="1.9407880">
        <ele>81.0</ele>
        <time>2020-07-02T13:18:09Z</time>
      </trkpt>
      <trkpt lat="47.8956350" lon="1.9407170">
        <ele>81.4</ele>
        <time>2020-07-02T13:18:13Z</time>
      </trkpt>
      <trkpt lat="47.8956140" lon="1.9406580">
        <ele>81.8</ele>
        <time>2020-07-02T13:18:15Z</time>
      </trkpt>
      <trkpt lat="47.8955300" lon="1.9404690">
        <ele>82.8</ele>
        <time>2020-07-02T13:18:22Z</time>
      </trkpt>
      <trkpt lat="47.8953680" lon="1.9403710">
        <ele>83.0</ele>
        <time>2020-07-02T13:18:29Z</time>
      </trkpt>
      <trkpt lat="47.8952020" lon="1.9402970">
        <ele>83.2</ele>
        <time>2020-07-02T13:18:37Z</time>
      </trkpt>
      <trkpt lat="47.8951160" lon="1.9402500">
        <ele>83.2</ele>
        <time>2020-07-02T13:18:42Z</time>
      </trkpt>
      <trkpt lat="47.8950640" lon="1.9401950">
        <ele>83.2</ele>
        <time>2020-07-02T13:18:45Z</time>
      </trkpt>
      <trkpt lat="47.8950430" lon="1.9400600">
        <ele>83.0</ele>
        <time>2020-07-02T13:18:50Z</time>
      </trkpt>
      <trkpt lat="47.8949760" lon="1.9398390">
        <ele>82.8</ele>
        <time>2020-07-02T13:18:58Z</time>
      </trkpt>
      <trkpt lat="47.8949510" lon="1.9397200">
        <ele>82.8</ele>
        <time>2020-07-02T13:19:02Z</time>
      </trkpt>
      <trkpt lat="47.8949130" lon="1.9395840">
        <ele>82.8</ele>
        <time>2020-07-02T13:19:06Z</time>
      </trkpt>
      <trkpt lat="47.8948640" lon="1.9393540">
        <ele>83.2</ele>
        <time>2020-07-02T13:19:13Z</time>
      </trkpt>
      <trkpt lat="47.8948650" lon="1.9392270">
        <ele>83.6</ele>
        <time>2020-07-02T13:19:21Z</time>
      </trkpt>
      <trkpt lat="47.8948640" lon="1.9392780">
        <ele>84.0</ele>
        <time>2020-07-02T13:19:26Z</time>
      </trkpt>
      <trkpt lat="47.8948800" lon="1.9392380">
        <ele>84.0</ele>
        <time>2020-07-02T13:19:29Z</time>
      </trkpt>
      <trkpt lat="47.8949050" lon="1.9391550">
        <ele>84.2</ele>
        <time>2020-07-02T13:19:32Z</time>
      </trkpt>
      <trkpt lat="47.8949080" lon="1.9390460">
        <ele>84.0</ele>
        <time>2020-07-02T13:19:35Z</time>
      </trkpt>
      <trkpt lat="47.8948920" lon="1.9390170">
        <ele>84.0</ele>
        <time>2020-07-02T13:19:36Z</time>
      </trkpt>
      <trkpt lat="47.8947210" lon="1.9388990">
        <ele>83.8</ele>
        <time>2020-07-02T13:19:43Z</time>
      </trkpt>
      <trkpt lat="47.8944770" lon="1.9387760">
        <ele>84.0</ele>
        <time>2020-07-02T13:19:53Z</time>
      </trkpt>
      <trkpt lat="47.8944330" lon="1.9387240">
        <ele>84.0</ele>
        <time>2020-07-02T13:19:56Z</time>
      </trkpt>
      <trkpt lat="47.8944180" lon="1.9386980">
        <ele>84.0</ele>
        <time>2020-07-02T13:19:57Z</time>
      </trkpt>
      <trkpt lat="47.8943870" lon="1.9386720">
        <ele>84.0</ele>
        <time>2020-07-02T13:19:59Z</time>
      </trkpt>
      <trkpt lat="47.8943700" lon="1.9386710">
        <ele>84.0</ele>
        <time>2020-07-02T13:20:00Z</time>
      </trkpt>
      <trkpt lat="47.8943160" lon="1.9387400">
        <ele>84.2</ele>
        <time>2020-07-02T13:20:04Z</time>
      </trkpt>
      <trkpt lat="47.8943010" lon="1.9389670">
        <ele>84.4</ele>
        <time>2020-07-02T13:20:09Z</time>
      </trkpt>
      <trkpt lat="47.8943490" lon="1.9393370">
        <ele>84.6</ele>
        <time>2020-07-02T13:20:16Z</time>
      </trkpt>
      <trkpt lat="47.8944150" lon="1.9400250">
        <ele>84.4</ele>
        <time>2020-07-02T13:20:26Z</time>
      </trkpt>
      <trkpt lat="47.8944290" lon="1.9401860">
        <ele>84.4</ele>
        <time>2020-07-02T13:20:29Z</time>
      </trkpt>
      <trkpt lat="47.8944340" lon="1.9402420">
        <ele>84.2</ele>
        <time>2020-07-02T13:20:30Z</time>
      </trkpt>
      <trkpt lat="47.8944700" lon="1.9406430">
        <ele>84.2</ele>
        <time>2020-07-02T13:20:36Z</time>
      </trkpt>
      <trkpt lat="47.8945130" lon="1.9409230">
        <ele>84.2</ele>
        <time>2020-07-02T13:20:40Z</time>
      </trkpt>
      <trkpt lat="47.8945280" lon="1.9409850">
        <ele>84.2</ele>
        <time>2020-07-02T13:20:41Z</time>
      </trkpt>
      <trkpt lat="47.8945450" lon="1.9410420">
        <ele>84.4</ele>
        <time>2020-07-02T13:20:42Z</time>
      </trkpt>
      <trkpt lat="47.8945630" lon="1.9410960">
        <ele>84.4</ele>
        <time>2020-07-02T13:20:43Z</time>
      </trkpt>
      <trkpt lat="47.8945840" lon="1.9411460">
        <ele>84.4</ele>
        <time>2020-07-02T13:20:44Z</time>
      </trkpt>
      <trkpt lat="47.8946140" lon="1.9412500">
        <ele>84.6</ele>
        <time>2020-07-02T13:20:46Z</time>
      </trkpt>
      <trkpt lat="47.8946690" lon="1.9413950">
        <ele>84.6</ele>
        <time>2020-07-02T13:20:49Z</time>
      </trkpt>
      <trkpt lat="47.8947760" lon="1.9417780">
        <ele>84.6</ele>
        <time>2020-07-02T13:20:56Z</time>
      </trkpt>
      <trkpt lat="47.8947770" lon="1.9419500">
        <ele>84.6</ele>
        <time>2020-07-02T13:20:59Z</time>
      </trkpt>
      <trkpt lat="47.8947500" lon="1.9420950">
        <ele>84.4</ele>
        <time>2020-07-02T13:21:02Z</time>
      </trkpt>
      <trkpt lat="47.8947110" lon="1.9425110">
        <ele>84.4</ele>
        <time>2020-07-02T13:21:10Z</time>
      </trkpt>
      <trkpt lat="47.8947050" lon="1.9426310">
        <ele>84.2</ele>
        <time>2020-07-02T13:21:12Z</time>
      </trkpt>
      <trkpt lat="47.8947000" lon="1.9429610">
        <ele>84.4</ele>
        <time>2020-07-02T13:21:17Z</time>
      </trkpt>
      <trkpt lat="47.8947720" lon="1.9435720">
        <ele>84.2</ele>
        <time>2020-07-02T13:21:25Z</time>
      </trkpt>
      <trkpt lat="47.8949340" lon="1.9443630">
        <ele>83.8</ele>
        <time>2020-07-02T13:21:34Z</time>
      </trkpt>
      <trkpt lat="47.8949570" lon="1.9444510">
        <ele>83.8</ele>
        <time>2020-07-02T13:21:35Z</time>
      </trkpt>
      <trkpt lat="47.8951170" lon="1.9453130">
        <ele>83.8</ele>
        <time>2020-07-02T13:21:45Z</time>
      </trkpt>
      <trkpt lat="47.8952900" lon="1.9461540">
        <ele>83.8</ele>
        <time>2020-07-02T13:21:55Z</time>
      </trkpt>
      <trkpt lat="47.8953240" lon="1.9463130">
        <ele>83.8</ele>
        <time>2020-07-02T13:21:57Z</time>
      </trkpt>
      <trkpt lat="47.8954830" lon="1.9470260">
        <ele>83.8</ele>
        <time>2020-07-02T13:22:06Z</time>
      </trkpt>
      <trkpt lat="47.8956390" lon="1.9478380">
        <ele>83.6</ele>
        <time>2020-07-02T13:22:17Z</time>
      </trkpt>
      <trkpt lat="47.8957420" lon="1.9484440">
        <ele>84.2</ele>
        <time>2020-07-02T13:22:26Z</time>
      </trkpt>
      <trkpt lat="47.8957990" lon="1.9489370">
        <ele>84.2</ele>
        <time>2020-07-02T13:22:34Z</time>
      </trkpt>
      <trkpt lat="47.8958360" lon="1.9492800">
        <ele>84.4</ele>
        <time>2020-07-02T13:22:39Z</time>
      </trkpt>
      <trkpt lat="47.8958420" lon="1.9494310">
        <ele>84.4</ele>
        <time>2020-07-02T13:22:41Z</time>
      </trkpt>
      <trkpt lat="47.8959180" lon="1.9500160">
        <ele>84.2</ele>
        <time>2020-07-02T13:22:48Z</time>
      </trkpt>
      <trkpt lat="47.8959970" lon="1.9507130">
        <ele>84.0</ele>
        <time>2020-07-02T13:22:56Z</time>
      </trkpt>
      <trkpt lat="47.8960490" lon="1.9514630">
        <ele>83.4</ele>
        <time>2020-07-02T13:23:05Z</time>
      </trkpt>
      <trkpt lat="47.8960410" lon="1.9520840">
        <ele>83.8</ele>
        <time>2020-07-02T13:23:14Z</time>
      </trkpt>
      <trkpt lat="47.8960330" lon="1.9526260">
        <ele>83.8</ele>
        <time>2020-07-02T13:23:21Z</time>
      </trkpt>
      <trkpt lat="47.8960290" lon="1.9527060">
        <ele>83.8</ele>
        <time>2020-07-02T13:23:22Z</time>
      </trkpt>
      <trkpt lat="47.8959780" lon="1.9535490">
        <ele>83.4</ele>
        <time>2020-07-02T13:23:32Z</time>
      </trkpt>
      <trkpt lat="47.8959720" lon="1.9536330">
        <ele>83.4</ele>
        <time>2020-07-02T13:23:33Z</time>
      </trkpt>
      <trkpt lat="47.8959280" lon="1.9543590">
        <ele>83.6</ele>
        <time>2020-07-02T13:23:42Z</time>
      </trkpt>
      <trkpt lat="47.8958970" lon="1.9551630">
        <ele>83.6</ele>
        <time>2020-07-02T13:23:51Z</time>
      </trkpt>
      <trkpt lat="47.8958960" lon="1.9560020">
        <ele>83.4</ele>
        <time>2020-07-02T13:24:00Z</time>
      </trkpt>
      <trkpt lat="47.8959030" lon="1.9563720">
        <ele>83.4</ele>
        <time>2020-07-02T13:24:04Z</time>
      </trkpt>
      <trkpt lat="47.8958960" lon="1.9572080">
        <ele>83.4</ele>
        <time>2020-07-02T13:24:13Z</time>
      </trkpt>
      <trkpt lat="47.8958400" lon="1.9579270">
        <ele>83.4</ele>
        <time>2020-07-02T13:24:21Z</time>
      </trkpt>
      <trkpt lat="47.8957280" lon="1.9585710">
        <ele>83.2</ele>
        <time>2020-07-02T13:24:29Z</time>
      </trkpt>
      <trkpt lat="47.8957170" lon="1.9586460">
        <ele>83.2</ele>
        <time>2020-07-02T13:24:30Z</time>
      </trkpt>
      <trkpt lat="47.8956670" lon="1.9593400">
        <ele>83.8</ele>
        <time>2020-07-02T13:24:39Z</time>
      </trkpt>
      <trkpt lat="47.8956850" lon="1.9601560">
        <ele>84.2</ele>
        <time>2020-07-02T13:24:49Z</time>
      </trkpt>
      <trkpt lat="47.8956910" lon="1.9602490">
        <ele>84.0</ele>
        <time>2020-07-02T13:24:50Z</time>
      </trkpt>
      <trkpt lat="47.8957380" lon="1.9610780">
        <ele>83.6</ele>
        <time>2020-07-02T13:24:59Z</time>
      </trkpt>
      <trkpt lat="47.8958150" lon="1.9619490">
        <ele>83.2</ele>
        <time>2020-07-02T13:25:09Z</time>
      </trkpt>
      <trkpt lat="47.8958580" lon="1.9622880">
        <ele>83.2</ele>
        <time>2020-07-02T13:25:13Z</time>
      </trkpt>
      <trkpt lat="47.8958620" lon="1.9628990">
        <ele>83.6</ele>
        <time>2020-07-02T13:25:20Z</time>
      </trkpt>
      <trkpt lat="47.8957670" lon="1.9636220">
        <ele>83.6</ele>
        <time>2020-07-02T13:25:28Z</time>
      </trkpt>
      <trkpt lat="47.8957090" lon="1.9639600">
        <ele>83.6</ele>
        <time>2020-07-02T13:25:32Z</time>
      </trkpt>
      <trkpt lat="47.8956260" lon="1.9644610">
        <ele>83.6</ele>
        <time>2020-07-02T13:25:38Z</time>
      </trkpt>
      <trkpt lat="47.8954420" lon="1.9651960">
        <ele>83.2</ele>
        <time>2020-07-02T13:25:47Z</time>
      </trkpt>
      <trkpt lat="47.8951520" lon="1.9658790">
        <ele>82.8</ele>
        <time>2020-07-02T13:25:56Z</time>
      </trkpt>
      <trkpt lat="47.8950830" lon="1.9660270">
        <ele>83.0</ele>
        <time>2020-07-02T13:25:58Z</time>
      </trkpt>
      <trkpt lat="47.8949470" lon="1.9663290">
        <ele>82.8</ele>
        <time>2020-07-02T13:26:02Z</time>
      </trkpt>
      <trkpt lat="47.8946920" lon="1.9668900">
        <ele>82.8</ele>
        <time>2020-07-02T13:26:09Z</time>
      </trkpt>
      <trkpt lat="47.8944180" lon="1.9674880">
        <ele>83.0</ele>
        <time>2020-07-02T13:26:17Z</time>
      </trkpt>
      <trkpt lat="47.8941160" lon="1.9681640">
        <ele>83.4</ele>
        <time>2020-07-02T13:26:27Z</time>
      </trkpt>
      <trkpt lat="47.8940850" lon="1.9682310">
        <ele>83.4</ele>
        <time>2020-07-02T13:26:28Z</time>
      </trkpt>
      <trkpt lat="47.8940590" lon="1.9682970">
        <ele>83.2</ele>
        <time>2020-07-02T13:26:29Z</time>
      </trkpt>
      <trkpt lat="47.8939810" lon="1.9684910">
        <ele>83.4</ele>
        <time>2020-07-02T13:26:32Z</time>
      </trkpt>
      <trkpt lat="47.8938220" lon="1.9688730">
        <ele>83.4</ele>
        <time>2020-07-02T13:26:38Z</time>
      </trkpt>
      <trkpt lat="47.8936360" lon="1.9692740">
        <ele>83.4</ele>
        <time>2020-07-02T13:26:45Z</time>
      </trkpt>
      <trkpt lat="47.8934990" lon="1.9694860">
        <ele>83.4</ele>
        <time>2020-07-02T13:26:51Z</time>
      </trkpt>
      <trkpt lat="47.8934610" lon="1.9695200">
        <ele>83.4</ele>
        <time>2020-07-02T13:26:55Z</time>
      </trkpt>
      <trkpt lat="47.8934770" lon="1.9694740">
        <ele>83.8</ele>
        <time>2020-07-02T13:26:58Z</time>
      </trkpt>
      <trkpt lat="47.8935010" lon="1.9693990">
        <ele>84.0</ele>
        <time>2020-07-02T13:27:02Z</time>
      </trkpt>
      <trkpt lat="47.8935820" lon="1.9692380">
        <ele>84.2</ele>
        <time>2020-07-02T13:27:08Z</time>
      </trkpt>
      <trkpt lat="47.8936950" lon="1.9690370">
        <ele>84.0</ele>
        <time>2020-07-02T13:27:14Z</time>
      </trkpt>
      <trkpt lat="47.8938480" lon="1.9687350">
        <ele>83.8</ele>
        <time>2020-07-02T13:27:21Z</time>
      </trkpt>
      <trkpt lat="47.8939560" lon="1.9687000">
        <ele>83.8</ele>
        <time>2020-07-02T13:27:24Z</time>
      </trkpt>
      <trkpt lat="47.8939830" lon="1.9687230">
        <ele>83.8</ele>
        <time>2020-07-02T13:27:25Z</time>
      </trkpt>
      <trkpt lat="47.8940880" lon="1.9689330">
        <ele>84.0</ele>
        <time>2020-07-02T13:27:31Z</time>
      </trkpt>
      <trkpt lat="47.8941060" lon="1.9689630">
        <ele>84.6</ele>
        <time>2020-07-02T13:27:35Z</time>
      </trkpt>
      <trkpt lat="47.8940920" lon="1.9689380">
        <ele>84.8</ele>
        <time>2020-07-02T13:27:50Z</time>
      </trkpt>
      <trkpt lat="47.8940910" lon="1.9689380">
        <ele>84.8</ele>
        <time>2020-07-02T13:28:07Z</time>
      </trkpt>
      <trkpt lat="47.8940890" lon="1.9689500">
        <ele>84.6</ele>
        <time>2020-07-02T13:28:40Z</time>
      </trkpt>
      <trkpt lat="47.8940910" lon="1.9689610">
        <ele>84.8</ele>
        <time>2020-07-02T13:29:06Z</time>
      </trkpt>
      <trkpt lat="47.8940940" lon="1.9689650">
        <ele>84.8</ele>
        <time>2020-07-02T13:29:32Z</time>
      </trkpt>
      <trkpt lat="47.8941000" lon="1.9689680">
        <ele>85.2</ele>
        <time>2020-07-02T13:29:59Z</time>
      </trkpt>
      <trkpt lat="47.8941090" lon="1.9689620">
        <ele>84.8</ele>
        <time>2020-07-02T13:30:23Z</time>
      </trkpt>
      <trkpt lat="47.8941090" lon="1.9689560">
        <ele>84.8</ele>
        <time>2020-07-02T13:30:50Z</time>
      </trkpt>
      <trkpt lat="47.8941100" lon="1.9689580">
        <ele>84.6</ele>
        <time>2020-07-02T13:31:08Z</time>
      </trkpt>
      <trkpt lat="47.8941100" lon="1.9689580">
        <ele>84.6</ele>
        <time>2020-07-02T13:31:09Z</time>
      </trkpt>
      <trkpt lat="47.8941100" lon="1.9689570">
        <ele>84.6</ele>
        <time>2020-07-02T13:31:10Z</time>
      </trkpt>
      <trkpt lat="47.8941100" lon="1.9689570">
        <ele>84.6</ele>
        <time>2020-07-02T13:31:11Z</time>
      </trkpt>
      <trkpt lat="47.8941100" lon="1.9689570">
        <ele>84.8</ele>
        <time>2020-07-02T13:31:13Z</time>
      </trkpt>
      <trkpt lat="47.8941120" lon="1.9689560">
        <ele>85.0</ele>
        <time>2020-07-02T13:31:20Z</time>
      </trkpt>
      <trkpt lat="47.8941220" lon="1.9689610">
        <ele>85.0</ele>
        <time>2020-07-02T13:31:42Z</time>
      </trkpt>
      <trkpt lat="47.8941290" lon="1.9689530">
        <ele>85.0</ele>
        <time>2020-07-02T13:32:15Z</time>
      </trkpt>
      <trkpt lat="47.8941390" lon="1.9689450">
        <ele>85.0</ele>
        <time>2020-07-02T13:32:38Z</time>
      </trkpt>
      <trkpt lat="47.8941450" lon="1.9689450">
        <ele>84.8</ele>
        <time>2020-07-02T13:32:46Z</time>
      </trkpt>
      <trkpt lat="47.8941490" lon="1.9689380">
        <ele>85.0</ele>
        <time>2020-07-02T13:33:01Z</time>
      </trkpt>
      <trkpt lat="47.8941490" lon="1.9689380">
        <ele>85.2</ele>
        <time>2020-07-02T13:33:02Z</time>
      </trkpt>
      <trkpt lat="47.8941490" lon="1.9689380">
        <ele>85.0</ele>
        <time>2020-07-02T13:33:03Z</time>
      </trkpt>
      <trkpt lat="47.8941500" lon="1.9689380">
        <ele>85.2</ele>
        <time>2020-07-02T13:33:04Z</time>
      </trkpt>
      <trkpt lat="47.8941500" lon="1.9689390">
        <ele>85.2</ele>
        <time>2020-07-02T13:33:05Z</time>
      </trkpt>
      <trkpt lat="47.8941500" lon="1.9689380">
        <ele>85.2</ele>
        <time>2020-07-02T13:33:06Z</time>
      </trkpt>
      <trkpt lat="47.8941510" lon="1.9689390">
        <ele>85.2</ele>
        <time>2020-07-02T13:33:27Z</time>
      </trkpt>
      <trkpt lat="47.8941540" lon="1.9689440">
        <ele>85.2</ele>
        <time>2020-07-02T13:33:29Z</time>
      </trkpt>
      <trkpt lat="47.8941550" lon="1.9689470">
        <ele>85.2</ele>
        <time>2020-07-02T13:33:30Z</time>
      </trkpt>
      <trkpt lat="47.8941550" lon="1.9689460">
        <ele>85.4</ele>
        <time>2020-07-02T13:33:33Z</time>
      </trkpt>
      <trkpt lat="47.8941550" lon="1.9689460">
        <ele>85.2</ele>
        <time>2020-07-02T13:33:34Z</time>
      </trkpt>
      <trkpt lat="47.8941540" lon="1.9689460">
        <ele>85.2</ele>
        <time>2020-07-02T13:33:35Z</time>
      </trkpt>
      <trkpt lat="47.8941540" lon="1.9689450">
        <ele>85.0</ele>
        <time>2020-07-02T13:33:37Z</time>
      </trkpt>
      <trkpt lat="47.8941530" lon="1.9689440">
        <ele>84.8</ele>
        <time>2020-07-02T13:33:38Z</time>
      </trkpt>
      <trkpt lat="47.8941530" lon="1.9689430">
        <ele>84.6</ele>
        <time>2020-07-02T13:33:39Z</time>
      </trkpt>
      <trkpt lat="47.8941520" lon="1.9689410">
        <ele>84.8</ele>
        <time>2020-07-02T13:33:40Z</time>
      </trkpt>
      <trkpt lat="47.8941510" lon="1.9689410">
        <ele>84.8</ele>
        <time>2020-07-02T13:33:41Z</time>
      </trkpt>
      <trkpt lat="47.8941450" lon="1.9689370">
        <ele>84.6</ele>
        <time>2020-07-02T13:33:42Z</time>
      </trkpt>
      <trkpt lat="47.8941420" lon="1.9689360">
        <ele>84.4</ele>
        <time>2020-07-02T13:33:43Z</time>
      </trkpt>
      <trkpt lat="47.8941390" lon="1.9689340">
        <ele>84.0</ele>
        <time>2020-07-02T13:33:44Z</time>
      </trkpt>
      <trkpt lat="47.8941370" lon="1.9689340">
        <ele>84.0</ele>
        <time>2020-07-02T13:33:45Z</time>
      </trkpt>
      <trkpt lat="47.8941360" lon="1.9689340">
        <ele>84.0</ele>
        <time>2020-07-02T13:33:46Z</time>
      </trkpt>
      <trkpt lat="47.8941340" lon="1.9689430">
        <ele>83.8</ele>
        <time>2020-07-02T13:33:47Z</time>
      </trkpt>
      <trkpt lat="47.8941290" lon="1.9689510">
        <ele>83.8</ele>
        <time>2020-07-02T13:33:48Z</time>
      </trkpt>
      <trkpt lat="47.8941260" lon="1.9689580">
        <ele>83.8</ele>
        <time>2020-07-02T13:33:49Z</time>
      </trkpt>
      <trkpt lat="47.8941210" lon="1.9689700">
        <ele>85.2</ele>
        <time>2020-07-02T13:33:59Z</time>
      </trkpt>
      <trkpt lat="47.8941260" lon="1.9689690">
        <ele>85.0</ele>
        <time>2020-07-02T13:34:12Z</time>
      </trkpt>
      <trkpt lat="47.8941340" lon="1.9689700">
        <ele>85.0</ele>
        <time>2020-07-02T13:34:21Z</time>
      </trkpt>
      <trkpt lat="47.8941430" lon="1.9689610">
        <ele>85.2</ele>
        <time>2020-07-02T13:34:38Z</time>
      </trkpt>
      <trkpt lat="47.8941490" lon="1.9689530">
        <ele>85.2</ele>
        <time>2020-07-02T13:34:43Z</time>
      </trkpt>
      <trkpt lat="47.8941480" lon="1.9689490">
        <ele>85.2</ele>
        <time>2020-07-02T13:34:44Z</time>
      </trkpt>
      <trkpt lat="47.8941500" lon="1.9689460">
        <ele>85.0</ele>
        <time>2020-07-02T13:34:45Z</time>
      </trkpt>
      <trkpt lat="47.8941520" lon="1.9689420">
        <ele>85.2</ele>
        <time>2020-07-02T13:34:46Z</time>
      </trkpt>
      <trkpt lat="47.8941520" lon="1.9689370">
        <ele>85.2</ele>
        <time>2020-07-02T13:34:47Z</time>
      </trkpt>
      <trkpt lat="47.8941510" lon="1.9689340">
        <ele>85.2</ele>
        <time>2020-07-02T13:34:48Z</time>
      </trkpt>
      <trkpt lat="47.8941490" lon="1.9689310">
        <ele>85.0</ele>
        <time>2020-07-02T13:34:50Z</time>
      </trkpt>
      <trkpt lat="47.8941490" lon="1.9689350">
        <ele>85.2</ele>
        <time>2020-07-02T13:34:51Z</time>
      </trkpt>
      <trkpt lat="47.8941480" lon="1.9689320">
        <ele>85.0</ele>
        <time>2020-07-02T13:34:54Z</time>
      </trkpt>
      <trkpt lat="47.8941480" lon="1.9689290">
        <ele>85.2</ele>
        <time>2020-07-02T13:34:55Z</time>
      </trkpt>
      <trkpt lat="47.8941530" lon="1.9689200">
        <ele>85.0</ele>
        <time>2020-07-02T13:34:57Z</time>
      </trkpt>
      <trkpt lat="47.8941560" lon="1.9689180">
        <ele>85.2</ele>
        <time>2020-07-02T13:34:58Z</time>
      </trkpt>
      <trkpt lat="47.8941600" lon="1.9689130">
        <ele>85.0</ele>
        <time>2020-07-02T13:34:59Z</time>
      </trkpt>
      <trkpt lat="47.8941620" lon="1.9689090">
        <ele>85.0</ele>
        <time>2020-07-02T13:35:00Z</time>
      </trkpt>
      <trkpt lat="47.8941630" lon="1.9689050">
        <ele>84.8</ele>
        <time>2020-07-02T13:35:01Z</time>
      </trkpt>
      <trkpt lat="47.8941640" lon="1.9689030">
        <ele>84.8</ele>
        <time>2020-07-02T13:35:02Z</time>
      </trkpt>
      <trkpt lat="47.8941640" lon="1.9689050">
        <ele>84.8</ele>
        <time>2020-07-02T13:35:03Z</time>
      </trkpt>
      <trkpt lat="47.8941540" lon="1.9689060">
        <ele>85.2</ele>
        <time>2020-07-02T13:35:07Z</time>
      </trkpt>
      <trkpt lat="47.8941510" lon="1.9689080">
        <ele>85.2</ele>
        <time>2020-07-02T13:35:08Z</time>
      </trkpt>
      <trkpt lat="47.8941480" lon="1.9689120">
        <ele>85.2</ele>
        <time>2020-07-02T13:35:09Z</time>
      </trkpt>
      <trkpt lat="47.8941450" lon="1.9689160">
        <ele>85.4</ele>
        <time>2020-07-02T13:35:10Z</time>
      </trkpt>
      <trkpt lat="47.8941450" lon="1.9689160">
        <ele>85.4</ele>
        <time>2020-07-02T13:35:11Z</time>
      </trkpt>
      <trkpt lat="47.8941450" lon="1.9689160">
        <ele>85.4</ele>
        <time>2020-07-02T13:35:12Z</time>
      </trkpt>
      <trkpt lat="47.8941470" lon="1.9689140">
        <ele>85.4</ele>
        <time>2020-07-02T13:35:13Z</time>
      </trkpt>
      <trkpt lat="47.8941490" lon="1.9689060">
        <ele>85.4</ele>
        <time>2020-07-02T13:35:15Z</time>
      </trkpt>
      <trkpt lat="47.8941480" lon="1.9689080">
        <ele>85.4</ele>
        <time>2020-07-02T13:35:17Z</time>
      </trkpt>
      <trkpt lat="47.8941440" lon="1.9689190">
        <ele>85.2</ele>
        <time>2020-07-02T13:35:18Z</time>
      </trkpt>
      <trkpt lat="47.8941360" lon="1.9689450">
        <ele>85.2</ele>
        <time>2020-07-02T13:35:20Z</time>
      </trkpt>
      <trkpt lat="47.8941350" lon="1.9689610">
        <ele>85.4</ele>
        <time>2020-07-02T13:35:22Z</time>
      </trkpt>
      <trkpt lat="47.8941340" lon="1.9689690">
        <ele>85.2</ele>
        <time>2020-07-02T13:35:23Z</time>
      </trkpt>
      <trkpt lat="47.8941340" lon="1.9689750">
        <ele>85.2</ele>
        <time>2020-07-02T13:35:24Z</time>
      </trkpt>
      <trkpt lat="47.8941340" lon="1.9689790">
        <ele>85.4</ele>
        <time>2020-07-02T13:35:25Z</time>
      </trkpt>
      <trkpt lat="47.8941360" lon="1.9689830">
        <ele>85.6</ele>
        <time>2020-07-02T13:35:27Z</time>
      </trkpt>
      <trkpt lat="47.8941380" lon="1.9689840">
        <ele>85.6</ele>
        <time>2020-07-02T13:35:28Z</time>
      </trkpt>
      <trkpt lat="47.8941400" lon="1.9689820">
        <ele>85.8</ele>
        <time>2020-07-02T13:35:29Z</time>
      </trkpt>
      <trkpt lat="47.8941410" lon="1.9689820">
        <ele>85.6</ele>
        <time>2020-07-02T13:35:30Z</time>
      </trkpt>
      <trkpt lat="47.8941410" lon="1.9689810">
        <ele>85.8</ele>
        <time>2020-07-02T13:35:31Z</time>
      </trkpt>
      <trkpt lat="47.8941410" lon="1.9689810">
        <ele>85.8</ele>
        <time>2020-07-02T13:35:32Z</time>
      </trkpt>
      <trkpt lat="47.8941420" lon="1.9689810">
        <ele>85.6</ele>
        <time>2020-07-02T13:35:33Z</time>
      </trkpt>
      <trkpt lat="47.8941420" lon="1.9689820">
        <ele>85.8</ele>
        <time>2020-07-02T13:35:34Z</time>
      </trkpt>
      <trkpt lat="47.8941420" lon="1.9689820">
        <ele>86.0</ele>
        <time>2020-07-02T13:35:36Z</time>
      </trkpt>
      <trkpt lat="47.8941420" lon="1.9689820">
        <ele>86.0</ele>
        <time>2020-07-02T13:35:37Z</time>
      </trkpt>
      <trkpt lat="47.8941430" lon="1.9689810">
        <ele>86.0</ele>
        <time>2020-07-02T13:35:40Z</time>
      </trkpt>
      <trkpt lat="47.8941450" lon="1.9689930">
        <ele>85.4</ele>
        <time>2020-07-02T13:35:44Z</time>
      </trkpt>
      <trkpt lat="47.8941420" lon="1.9690320">
        <ele>84.8</ele>
        <time>2020-07-02T13:35:52Z</time>
      </trkpt>
      <trkpt lat="47.8941600" lon="1.9690370">
        <ele>84.8</ele>
        <time>2020-07-02T13:36:10Z</time>
      </trkpt>
      <trkpt lat="47.8941850" lon="1.9690450">
        <ele>85.0</ele>
        <time>2020-07-02T13:36:41Z</time>
      </trkpt>
      <trkpt lat="47.8942000" lon="1.9691520">
        <ele>84.8</ele>
        <time>2020-07-02T13:36:52Z</time>
      </trkpt>
      <trkpt lat="47.8942320" lon="1.9693700">
        <ele>84.8</ele>
        <time>2020-07-02T13:37:00Z</time>
      </trkpt>
      <trkpt lat="47.8943130" lon="1.9697180">
        <ele>84.8</ele>
        <time>2020-07-02T13:37:08Z</time>
      </trkpt>
      <trkpt lat="47.8943750" lon="1.9699870">
        <ele>84.8</ele>
        <time>2020-07-02T13:37:15Z</time>
      </trkpt>
      <trkpt lat="47.8943830" lon="1.9699990">
        <ele>84.8</ele>
        <time>2020-07-02T13:37:17Z</time>
      </trkpt>
      <trkpt lat="47.8943860" lon="1.9699990">
        <ele>84.8</ele>
        <time>2020-07-02T13:37:18Z</time>
      </trkpt>
      <trkpt lat="47.8943880" lon="1.9699980">
        <ele>84.8</ele>
        <time>2020-07-02T13:37:19Z</time>
      </trkpt>
      <trkpt lat="47.8943870" lon="1.9699970">
        <ele>84.8</ele>
        <time>2020-07-02T13:37:20Z</time>
      </trkpt>
      <trkpt lat="47.8943870" lon="1.9699970">
        <ele>85.0</ele>
        <time>2020-07-02T13:37:21Z</time>
      </trkpt>
      <trkpt lat="47.8943870" lon="1.9699980">
        <ele>85.0</ele>
        <time>2020-07-02T13:37:23Z</time>
      </trkpt>
      <trkpt lat="47.8943930" lon="1.9699960">
        <ele>85.0</ele>
        <time>2020-07-02T13:37:42Z</time>
      </trkpt>
      <trkpt lat="47.8943990" lon="1.9699990">
        <ele>85.0</ele>
        <time>2020-07-02T13:38:01Z</time>
      </trkpt>
      <trkpt lat="47.8944020" lon="1.9699980">
        <ele>85.0</ele>
        <time>2020-07-02T13:38:11Z</time>
      </trkpt>
      <trkpt lat="47.8944090" lon="1.9699940">
        <ele>85.0</ele>
        <time>2020-07-02T13:38:35Z</time>
      </trkpt>
      <trkpt lat="47.8944150" lon="1.9699780">
        <ele>85.4</ele>
        <time>2020-07-02T13:39:03Z</time>
      </trkpt>
      <trkpt lat="47.8944170" lon="1.9699690">
        <ele>85.6</ele>
        <time>2020-07-02T13:39:30Z</time>
      </trkpt>
      <trkpt lat="47.8944170" lon="1.9700070">
        <ele>85.6</ele>
        <time>2020-07-02T13:39:56Z</time>
      </trkpt>
      <trkpt lat="47.8944200" lon="1.9700440">
        <ele>85.6</ele>
        <time>2020-07-02T13:39:58Z</time>
      </trkpt>
      <trkpt lat="47.8944480" lon="1.9701610">
        <ele>85.4</ele>
        <time>2020-07-02T13:40:02Z</time>
      </trkpt>
      <trkpt lat="47.8945400" lon="1.9705370">
        <ele>85.6</ele>
        <time>2020-07-02T13:40:10Z</time>
      </trkpt>
      <trkpt lat="47.8947050" lon="1.9710730">
        <ele>85.4</ele>
        <time>2020-07-02T13:40:20Z</time>
      </trkpt>
      <trkpt lat="47.8947060" lon="1.9713540">
        <ele>85.4</ele>
        <time>2020-07-02T13:40:24Z</time>
      </trkpt>
      <trkpt lat="47.8946710" lon="1.9714990">
        <ele>85.2</ele>
        <time>2020-07-02T13:40:26Z</time>
      </trkpt>
      <trkpt lat="47.8944630" lon="1.9720440">
        <ele>85.0</ele>
        <time>2020-07-02T13:40:34Z</time>
      </trkpt>
      <trkpt lat="47.8942730" lon="1.9725250">
        <ele>85.0</ele>
        <time>2020-07-02T13:40:41Z</time>
      </trkpt>
      <trkpt lat="47.8940360" lon="1.9730840">
        <ele>85.0</ele>
        <time>2020-07-02T13:40:50Z</time>
      </trkpt>
      <trkpt lat="47.8938000" lon="1.9734910">
        <ele>85.2</ele>
        <time>2020-07-02T13:40:58Z</time>
      </trkpt>
      <trkpt lat="47.8936980" lon="1.9736060">
        <ele>85.4</ele>
        <time>2020-07-02T13:41:01Z</time>
      </trkpt>
      <trkpt lat="47.8936150" lon="1.9736690">
        <ele>85.4</ele>
        <time>2020-07-02T13:41:03Z</time>
      </trkpt>
      <trkpt lat="47.8932880" lon="1.9739410">
        <ele>85.0</ele>
        <time>2020-07-02T13:41:10Z</time>
      </trkpt>
      <trkpt lat="47.8931500" lon="1.9740740">
        <ele>84.0</ele>
        <time>2020-07-02T13:41:13Z</time>
      </trkpt>
      <trkpt lat="47.8928520" lon="1.9744170">
        <ele>83.4</ele>
        <time>2020-07-02T13:41:20Z</time>
      </trkpt>
      <trkpt lat="47.8926900" lon="1.9746430">
        <ele>83.4</ele>
        <time>2020-07-02T13:41:24Z</time>
      </trkpt>
      <trkpt lat="47.8924980" lon="1.9749480">
        <ele>83.8</ele>
        <time>2020-07-02T13:41:29Z</time>
      </trkpt>
      <trkpt lat="47.8920840" lon="1.9754970">
        <ele>84.6</ele>
        <time>2020-07-02T13:41:39Z</time>
      </trkpt>
      <trkpt lat="47.8916770" lon="1.9758910">
        <ele>84.4</ele>
        <time>2020-07-02T13:41:48Z</time>
      </trkpt>
      <trkpt lat="47.8912490" lon="1.9764220">
        <ele>84.8</ele>
        <time>2020-07-02T13:41:58Z</time>
      </trkpt>
      <trkpt lat="47.8908890" lon="1.9770310">
        <ele>84.8</ele>
        <time>2020-07-02T13:42:08Z</time>
      </trkpt>
      <trkpt lat="47.8905400" lon="1.9776730">
        <ele>84.8</ele>
        <time>2020-07-02T13:42:18Z</time>
      </trkpt>
      <trkpt lat="47.8901940" lon="1.9782930">
        <ele>84.6</ele>
        <time>2020-07-02T13:42:28Z</time>
      </trkpt>
      <trkpt lat="47.8898430" lon="1.9789270">
        <ele>84.2</ele>
        <time>2020-07-02T13:42:38Z</time>
      </trkpt>
      <trkpt lat="47.8898070" lon="1.9789890">
        <ele>84.2</ele>
        <time>2020-07-02T13:42:39Z</time>
      </trkpt>
      <trkpt lat="47.8895240" lon="1.9794750">
        <ele>84.0</ele>
        <time>2020-07-02T13:42:47Z</time>
      </trkpt>
      <trkpt lat="47.8893450" lon="1.9797810">
        <ele>84.0</ele>
        <time>2020-07-02T13:42:52Z</time>
      </trkpt>
      <trkpt lat="47.8889720" lon="1.9804090">
        <ele>84.2</ele>
        <time>2020-07-02T13:43:02Z</time>
      </trkpt>
      <trkpt lat="47.8887040" lon="1.9809480">
        <ele>84.2</ele>
        <time>2020-07-02T13:43:10Z</time>
      </trkpt>
      <trkpt lat="47.8885060" lon="1.9815480">
        <ele>84.4</ele>
        <time>2020-07-02T13:43:18Z</time>
      </trkpt>
      <trkpt lat="47.8883510" lon="1.9821680">
        <ele>84.4</ele>
        <time>2020-07-02T13:43:26Z</time>
      </trkpt>
      <trkpt lat="47.8882700" lon="1.9828030">
        <ele>84.6</ele>
        <time>2020-07-02T13:43:34Z</time>
      </trkpt>
      <trkpt lat="47.8882400" lon="1.9834650">
        <ele>84.8</ele>
        <time>2020-07-02T13:43:42Z</time>
      </trkpt>
      <trkpt lat="47.8883010" lon="1.9842350">
        <ele>85.0</ele>
        <time>2020-07-02T13:43:51Z</time>
      </trkpt>
      <trkpt lat="47.8883240" lon="1.9843990">
        <ele>85.2</ele>
        <time>2020-07-02T13:43:53Z</time>
      </trkpt>
      <trkpt lat="47.8884290" lon="1.9850630">
        <ele>85.4</ele>
        <time>2020-07-02T13:44:01Z</time>
      </trkpt>
      <trkpt lat="47.8886330" lon="1.9858610">
        <ele>85.6</ele>
        <time>2020-07-02T13:44:11Z</time>
      </trkpt>
      <trkpt lat="47.8888730" lon="1.9864460">
        <ele>85.6</ele>
        <time>2020-07-02T13:44:19Z</time>
      </trkpt>
      <trkpt lat="47.8890530" lon="1.9869930">
        <ele>85.4</ele>
        <time>2020-07-02T13:44:26Z</time>
      </trkpt>
      <trkpt lat="47.8890620" lon="1.9874330">
        <ele>85.4</ele>
        <time>2020-07-02T13:44:31Z</time>
      </trkpt>
      <trkpt lat="47.8890520" lon="1.9875180">
        <ele>85.6</ele>
        <time>2020-07-02T13:44:32Z</time>
      </trkpt>
      <trkpt lat="47.8889680" lon="1.9880090">
        <ele>85.4</ele>
        <time>2020-07-02T13:44:38Z</time>
      </trkpt>
      <trkpt lat="47.8889440" lon="1.9886140">
        <ele>85.2</ele>
        <time>2020-07-02T13:44:45Z</time>
      </trkpt>
      <trkpt lat="47.8890630" lon="1.9891860">
        <ele>85.4</ele>
        <time>2020-07-02T13:44:52Z</time>
      </trkpt>
      <trkpt lat="47.8890820" lon="1.9892710">
        <ele>85.4</ele>
        <time>2020-07-02T13:44:53Z</time>
      </trkpt>
      <trkpt lat="47.8893080" lon="1.9898810">
        <ele>85.4</ele>
        <time>2020-07-02T13:45:01Z</time>
      </trkpt>
      <trkpt lat="47.8896420" lon="1.9905650">
        <ele>85.8</ele>
        <time>2020-07-02T13:45:11Z</time>
      </trkpt>
      <trkpt lat="47.8896790" lon="1.9906240">
        <ele>85.8</ele>
        <time>2020-07-02T13:45:12Z</time>
      </trkpt>
      <trkpt lat="47.8900870" lon="1.9911760">
        <ele>86.2</ele>
        <time>2020-07-02T13:45:22Z</time>
      </trkpt>
      <trkpt lat="47.8901290" lon="1.9912300">
        <ele>86.2</ele>
        <time>2020-07-02T13:45:23Z</time>
      </trkpt>
      <trkpt lat="47.8904120" lon="1.9917390">
        <ele>86.0</ele>
        <time>2020-07-02T13:45:31Z</time>
      </trkpt>
      <trkpt lat="47.8905150" lon="1.9922370">
        <ele>86.0</ele>
        <time>2020-07-02T13:45:37Z</time>
      </trkpt>
      <trkpt lat="47.8905650" lon="1.9928520">
        <ele>85.8</ele>
        <time>2020-07-02T13:45:44Z</time>
      </trkpt>
      <trkpt lat="47.8906010" lon="1.9936990">
        <ele>85.6</ele>
        <time>2020-07-02T13:45:54Z</time>
      </trkpt>
      <trkpt lat="47.8906010" lon="1.9939680">
        <ele>85.6</ele>
        <time>2020-07-02T13:45:57Z</time>
      </trkpt>
      <trkpt lat="47.8905640" lon="1.9941360">
        <ele>85.6</ele>
        <time>2020-07-02T13:45:59Z</time>
      </trkpt>
      <trkpt lat="47.8905330" lon="1.9942080">
        <ele>85.6</ele>
        <time>2020-07-02T13:46:00Z</time>
      </trkpt>
      <trkpt lat="47.8904560" lon="1.9943310">
        <ele>85.4</ele>
        <time>2020-07-02T13:46:02Z</time>
      </trkpt>
      <trkpt lat="47.8903290" lon="1.9944720">
        <ele>85.6</ele>
        <time>2020-07-02T13:46:05Z</time>
      </trkpt>
      <trkpt lat="47.8900670" lon="1.9947780">
        <ele>85.6</ele>
        <time>2020-07-02T13:46:12Z</time>
      </trkpt>
      <trkpt lat="47.8898020" lon="1.9950800">
        <ele>85.6</ele>
        <time>2020-07-02T13:46:19Z</time>
      </trkpt>
      <trkpt lat="47.8894220" lon="1.9954740">
        <ele>85.6</ele>
        <time>2020-07-02T13:46:29Z</time>
      </trkpt>
      <trkpt lat="47.8891800" lon="1.9957450">
        <ele>85.8</ele>
        <time>2020-07-02T13:46:37Z</time>
      </trkpt>
      <trkpt lat="47.8890950" lon="1.9958530">
        <ele>85.8</ele>
        <time>2020-07-02T13:46:40Z</time>
      </trkpt>
      <trkpt lat="47.8890380" lon="1.9959350">
        <ele>86.0</ele>
        <time>2020-07-02T13:46:42Z</time>
      </trkpt>
      <trkpt lat="47.8888900" lon="1.9961400">
        <ele>86.0</ele>
        <time>2020-07-02T13:46:47Z</time>
      </trkpt>
      <trkpt lat="47.8885950" lon="1.9965320">
        <ele>85.8</ele>
        <time>2020-07-02T13:46:57Z</time>
      </trkpt>
      <trkpt lat="47.8885660" lon="1.9965730">
        <ele>86.0</ele>
        <time>2020-07-02T13:46:58Z</time>
      </trkpt>
      <trkpt lat="47.8884750" lon="1.9966930">
        <ele>85.6</ele>
        <time>2020-07-02T13:47:01Z</time>
      </trkpt>
      <trkpt lat="47.8884040" lon="1.9967690">
        <ele>85.8</ele>
        <time>2020-07-02T13:47:03Z</time>
      </trkpt>
      <trkpt lat="47.8880820" lon="1.9971300">
        <ele>85.6</ele>
        <time>2020-07-02T13:47:12Z</time>
      </trkpt>
      <trkpt lat="47.8876460" lon="1.9976360">
        <ele>85.8</ele>
        <time>2020-07-02T13:47:24Z</time>
      </trkpt>
      <trkpt lat="47.8872440" lon="1.9981780">
        <ele>85.8</ele>
        <time>2020-07-02T13:47:35Z</time>
      </trkpt>
      <trkpt lat="47.8869660" lon="1.9986280">
        <ele>86.0</ele>
        <time>2020-07-02T13:47:44Z</time>
      </trkpt>
      <trkpt lat="47.8867310" lon="1.9991060">
        <ele>86.0</ele>
        <time>2020-07-02T13:47:52Z</time>
      </trkpt>
      <trkpt lat="47.8864380" lon="1.9997180">
        <ele>86.0</ele>
        <time>2020-07-02T13:48:01Z</time>
      </trkpt>
      <trkpt lat="47.8861430" lon="2.0004630">
        <ele>86.2</ele>
        <time>2020-07-02T13:48:12Z</time>
      </trkpt>
      <trkpt lat="47.8858580" lon="2.0011940">
        <ele>86.6</ele>
        <time>2020-07-02T13:48:23Z</time>
      </trkpt>
      <trkpt lat="47.8858060" lon="2.0013290">
        <ele>86.4</ele>
        <time>2020-07-02T13:48:25Z</time>
      </trkpt>
      <trkpt lat="47.8855410" lon="2.0020780">
        <ele>86.2</ele>
        <time>2020-07-02T13:48:36Z</time>
      </trkpt>
      <trkpt lat="47.8855190" lon="2.0021490">
        <ele>86.2</ele>
        <time>2020-07-02T13:48:37Z</time>
      </trkpt>
      <trkpt lat="47.8853240" lon="2.0028220">
        <ele>86.4</ele>
        <time>2020-07-02T13:48:46Z</time>
      </trkpt>
      <trkpt lat="47.8852410" lon="2.0031230">
        <ele>86.4</ele>
        <time>2020-07-02T13:48:50Z</time>
      </trkpt>
      <trkpt lat="47.8850690" lon="2.0037950">
        <ele>85.4</ele>
        <time>2020-07-02T13:49:00Z</time>
      </trkpt>
      <trkpt lat="47.8849180" lon="2.0045070">
        <ele>85.6</ele>
        <time>2020-07-02T13:49:10Z</time>
      </trkpt>
      <trkpt lat="47.8848750" lon="2.0047290">
        <ele>85.6</ele>
        <time>2020-07-02T13:49:13Z</time>
      </trkpt>
      <trkpt lat="47.8847280" lon="2.0053970">
        <ele>85.8</ele>
        <time>2020-07-02T13:49:22Z</time>
      </trkpt>
      <trkpt lat="47.8845410" lon="2.0062170">
        <ele>85.8</ele>
        <time>2020-07-02T13:49:33Z</time>
      </trkpt>
      <trkpt lat="47.8845220" lon="2.0062910">
        <ele>85.8</ele>
        <time>2020-07-02T13:49:34Z</time>
      </trkpt>
      <trkpt lat="47.8845020" lon="2.0063640">
        <ele>85.8</ele>
        <time>2020-07-02T13:49:35Z</time>
      </trkpt>
      <trkpt lat="47.8843630" lon="2.0069560">
        <ele>85.6</ele>
        <time>2020-07-02T13:49:43Z</time>
      </trkpt>
      <trkpt lat="47.8843330" lon="2.0071100">
        <ele>85.6</ele>
        <time>2020-07-02T13:49:45Z</time>
      </trkpt>
      <trkpt lat="47.8843010" lon="2.0072600">
        <ele>85.6</ele>
        <time>2020-07-02T13:49:47Z</time>
      </trkpt>
      <trkpt lat="47.8841310" lon="2.0080990">
        <ele>85.2</ele>
        <time>2020-07-02T13:49:58Z</time>
      </trkpt>
      <trkpt lat="47.8840710" lon="2.0084070">
        <ele>85.0</ele>
        <time>2020-07-02T13:50:02Z</time>
      </trkpt>
      <trkpt lat="47.8839600" lon="2.0092100">
        <ele>85.0</ele>
        <time>2020-07-02T13:50:12Z</time>
      </trkpt>
      <trkpt lat="47.8839520" lon="2.0092920">
        <ele>85.0</ele>
        <time>2020-07-02T13:50:13Z</time>
      </trkpt>
      <trkpt lat="47.8838900" lon="2.0096900">
        <ele>85.4</ele>
        <time>2020-07-02T13:50:18Z</time>
      </trkpt>
      <trkpt lat="47.8838360" lon="2.0099130">
        <ele>85.4</ele>
        <time>2020-07-02T13:50:21Z</time>
      </trkpt>
      <trkpt lat="47.8837220" lon="2.0102720">
        <ele>85.4</ele>
        <time>2020-07-02T13:50:26Z</time>
      </trkpt>
      <trkpt lat="47.8835430" lon="2.0108600">
        <ele>85.6</ele>
        <time>2020-07-02T13:50:34Z</time>
      </trkpt>
      <trkpt lat="47.8833040" lon="2.0114880">
        <ele>85.8</ele>
        <time>2020-07-02T13:50:43Z</time>
      </trkpt>
      <trkpt lat="47.8830250" lon="2.0121140">
        <ele>85.6</ele>
        <time>2020-07-02T13:50:52Z</time>
      </trkpt>
      <trkpt lat="47.8828160" lon="2.0127910">
        <ele>85.8</ele>
        <time>2020-07-02T13:51:01Z</time>
      </trkpt>
      <trkpt lat="47.8827350" lon="2.0130770">
        <ele>86.0</ele>
        <time>2020-07-02T13:51:05Z</time>
      </trkpt>
      <trkpt lat="47.8827150" lon="2.0131460">
        <ele>86.2</ele>
        <time>2020-07-02T13:51:06Z</time>
      </trkpt>
      <trkpt lat="47.8826530" lon="2.0133480">
        <ele>86.2</ele>
        <time>2020-07-02T13:51:09Z</time>
      </trkpt>
      <trkpt lat="47.8826330" lon="2.0134170">
        <ele>86.0</ele>
        <time>2020-07-02T13:51:10Z</time>
      </trkpt>
      <trkpt lat="47.8824480" lon="2.0140120">
        <ele>86.0</ele>
        <time>2020-07-02T13:51:18Z</time>
      </trkpt>
      <trkpt lat="47.8821780" lon="2.0147140">
        <ele>85.6</ele>
        <time>2020-07-02T13:51:27Z</time>
      </trkpt>
      <trkpt lat="47.8821460" lon="2.0147920">
        <ele>85.8</ele>
        <time>2020-07-02T13:51:28Z</time>
      </trkpt>
      <trkpt lat="47.8818360" lon="2.0154810">
        <ele>85.8</ele>
        <time>2020-07-02T13:51:37Z</time>
      </trkpt>
      <trkpt lat="47.8816210" lon="2.0159330">
        <ele>85.6</ele>
        <time>2020-07-02T13:51:43Z</time>
      </trkpt>
      <trkpt lat="47.8813110" lon="2.0165310">
        <ele>85.8</ele>
        <time>2020-07-02T13:51:51Z</time>
      </trkpt>
      <trkpt lat="47.8811580" lon="2.0168190">
        <ele>86.2</ele>
        <time>2020-07-02T13:51:55Z</time>
      </trkpt>
      <trkpt lat="47.8808370" lon="2.0174280">
        <ele>86.6</ele>
        <time>2020-07-02T13:52:04Z</time>
      </trkpt>
      <trkpt lat="47.8804720" lon="2.0180370">
        <ele>86.6</ele>
        <time>2020-07-02T13:52:13Z</time>
      </trkpt>
      <trkpt lat="47.8804290" lon="2.0181000">
        <ele>86.8</ele>
        <time>2020-07-02T13:52:14Z</time>
      </trkpt>
      <trkpt lat="47.8800200" lon="2.0186630">
        <ele>86.6</ele>
        <time>2020-07-02T13:52:24Z</time>
      </trkpt>
      <trkpt lat="47.8797330" lon="2.0191220">
        <ele>86.6</ele>
        <time>2020-07-02T13:52:31Z</time>
      </trkpt>
      <trkpt lat="47.8796530" lon="2.0192610">
        <ele>86.6</ele>
        <time>2020-07-02T13:52:33Z</time>
      </trkpt>
      <trkpt lat="47.8793850" lon="2.0198530">
        <ele>86.0</ele>
        <time>2020-07-02T13:52:41Z</time>
      </trkpt>
      <trkpt lat="47.8791280" lon="2.0206230">
        <ele>85.8</ele>
        <time>2020-07-02T13:52:51Z</time>
      </trkpt>
      <trkpt lat="47.8790950" lon="2.0206910">
        <ele>85.8</ele>
        <time>2020-07-02T13:52:52Z</time>
      </trkpt>
      <trkpt lat="47.8787550" lon="2.0213210">
        <ele>85.8</ele>
        <time>2020-07-02T13:53:01Z</time>
      </trkpt>
      <trkpt lat="47.8786490" lon="2.0215220">
        <ele>85.8</ele>
        <time>2020-07-02T13:53:04Z</time>
      </trkpt>
      <trkpt lat="47.8782710" lon="2.0221270">
        <ele>85.4</ele>
        <time>2020-07-02T13:53:14Z</time>
      </trkpt>
      <trkpt lat="47.8778430" lon="2.0226540">
        <ele>85.4</ele>
        <time>2020-07-02T13:53:23Z</time>
      </trkpt>
      <trkpt lat="47.8774250" lon="2.0231670">
        <ele>85.4</ele>
        <time>2020-07-02T13:53:32Z</time>
      </trkpt>
      <trkpt lat="47.8773290" lon="2.0232690">
        <ele>85.4</ele>
        <time>2020-07-02T13:53:34Z</time>
      </trkpt>
      <trkpt lat="47.8769820" lon="2.0235760">
        <ele>85.4</ele>
        <time>2020-07-02T13:53:41Z</time>
      </trkpt>
      <trkpt lat="47.8766470" lon="2.0236800">
        <ele>85.4</ele>
        <time>2020-07-02T13:53:47Z</time>
      </trkpt>
      <trkpt lat="47.8764760" lon="2.0237040">
        <ele>85.4</ele>
        <time>2020-07-02T13:53:50Z</time>
      </trkpt>
      <trkpt lat="47.8763630" lon="2.0237270">
        <ele>85.6</ele>
        <time>2020-07-02T13:53:52Z</time>
      </trkpt>
      <trkpt lat="47.8761900" lon="2.0237730">
        <ele>85.4</ele>
        <time>2020-07-02T13:53:55Z</time>
      </trkpt>
      <trkpt lat="47.8760230" lon="2.0238280">
        <ele>85.4</ele>
        <time>2020-07-02T13:53:58Z</time>
      </trkpt>
      <trkpt lat="47.8754770" lon="2.0240180">
        <ele>85.6</ele>
        <time>2020-07-02T13:54:08Z</time>
      </trkpt>
      <trkpt lat="47.8753680" lon="2.0240570">
        <ele>85.6</ele>
        <time>2020-07-02T13:54:10Z</time>
      </trkpt>
      <trkpt lat="47.8751930" lon="2.0241240">
        <ele>85.6</ele>
        <time>2020-07-02T13:54:13Z</time>
      </trkpt>
      <trkpt lat="47.8748500" lon="2.0242690">
        <ele>85.8</ele>
        <time>2020-07-02T13:54:19Z</time>
      </trkpt>
      <trkpt lat="47.8743140" lon="2.0244740">
        <ele>85.6</ele>
        <time>2020-07-02T13:54:29Z</time>
      </trkpt>
      <trkpt lat="47.8742580" lon="2.0244940">
        <ele>85.6</ele>
        <time>2020-07-02T13:54:30Z</time>
      </trkpt>
      <trkpt lat="47.8738230" lon="2.0246630">
        <ele>85.2</ele>
        <time>2020-07-02T13:54:38Z</time>
      </trkpt>
      <trkpt lat="47.8735120" lon="2.0247720">
        <ele>85.2</ele>
        <time>2020-07-02T13:54:44Z</time>
      </trkpt>
      <trkpt lat="47.8733080" lon="2.0248450">
        <ele>85.2</ele>
        <time>2020-07-02T13:54:48Z</time>
      </trkpt>
      <trkpt lat="47.8728860" lon="2.0250140">
        <ele>85.2</ele>
        <time>2020-07-02T13:54:56Z</time>
      </trkpt>
      <trkpt lat="47.8727760" lon="2.0250560">
        <ele>85.2</ele>
        <time>2020-07-02T13:54:58Z</time>
      </trkpt>
      <trkpt lat="47.8722270" lon="2.0252680">
        <ele>86.2</ele>
        <time>2020-07-02T13:55:08Z</time>
      </trkpt>
      <trkpt lat="47.8721690" lon="2.0252930">
        <ele>86.2</ele>
        <time>2020-07-02T13:55:09Z</time>
      </trkpt>
      <trkpt lat="47.8716100" lon="2.0255100">
        <ele>86.0</ele>
        <time>2020-07-02T13:55:19Z</time>
      </trkpt>
      <trkpt lat="47.8713260" lon="2.0256020">
        <ele>86.0</ele>
        <time>2020-07-02T13:55:24Z</time>
      </trkpt>
      <trkpt lat="47.8707690" lon="2.0258020">
        <ele>86.0</ele>
        <time>2020-07-02T13:55:34Z</time>
      </trkpt>
      <trkpt lat="47.8703820" lon="2.0259470">
        <ele>86.0</ele>
        <time>2020-07-02T13:55:41Z</time>
      </trkpt>
      <trkpt lat="47.8700450" lon="2.0260730">
        <ele>85.8</ele>
        <time>2020-07-02T13:55:47Z</time>
      </trkpt>
      <trkpt lat="47.8697120" lon="2.0262040">
        <ele>86.2</ele>
        <time>2020-07-02T13:55:53Z</time>
      </trkpt>
      <trkpt lat="47.8696570" lon="2.0262220">
        <ele>86.2</ele>
        <time>2020-07-02T13:55:54Z</time>
      </trkpt>
      <trkpt lat="47.8691130" lon="2.0264030">
        <ele>86.4</ele>
        <time>2020-07-02T13:56:04Z</time>
      </trkpt>
      <trkpt lat="47.8690580" lon="2.0264200">
        <ele>86.2</ele>
        <time>2020-07-02T13:56:05Z</time>
      </trkpt>
      <trkpt lat="47.8685030" lon="2.0266220">
        <ele>86.2</ele>
        <time>2020-07-02T13:56:15Z</time>
      </trkpt>
      <trkpt lat="47.8681800" lon="2.0267520">
        <ele>85.8</ele>
        <time>2020-07-02T13:56:21Z</time>
      </trkpt>
      <trkpt lat="47.8676620" lon="2.0269760">
        <ele>85.6</ele>
        <time>2020-07-02T13:56:31Z</time>
      </trkpt>
      <trkpt lat="47.8675550" lon="2.0270210">
        <ele>85.8</ele>
        <time>2020-07-02T13:56:33Z</time>
      </trkpt>
      <trkpt lat="47.8672310" lon="2.0271670">
        <ele>85.8</ele>
        <time>2020-07-02T13:56:39Z</time>
      </trkpt>
      <trkpt lat="47.8668490" lon="2.0273400">
        <ele>86.0</ele>
        <time>2020-07-02T13:56:46Z</time>
      </trkpt>
      <trkpt lat="47.8665520" lon="2.0274800">
        <ele>86.2</ele>
        <time>2020-07-02T13:56:52Z</time>
      </trkpt>
      <trkpt lat="47.8662520" lon="2.0276040">
        <ele>86.2</ele>
        <time>2020-07-02T13:56:58Z</time>
      </trkpt>
      <trkpt lat="47.8658300" lon="2.0277660">
        <ele>86.8</ele>
        <time>2020-07-02T13:57:06Z</time>
      </trkpt>
      <trkpt lat="47.8655620" lon="2.0278780">
        <ele>87.4</ele>
        <time>2020-07-02T13:57:11Z</time>
      </trkpt>
      <trkpt lat="47.8655070" lon="2.0279040">
        <ele>87.4</ele>
        <time>2020-07-02T13:57:12Z</time>
      </trkpt>
      <trkpt lat="47.8649570" lon="2.0281590">
        <ele>87.2</ele>
        <time>2020-07-02T13:57:22Z</time>
      </trkpt>
      <trkpt lat="47.8648490" lon="2.0282080">
        <ele>87.0</ele>
        <time>2020-07-02T13:57:24Z</time>
      </trkpt>
      <trkpt lat="47.8642990" lon="2.0283750">
        <ele>86.8</ele>
        <time>2020-07-02T13:57:34Z</time>
      </trkpt>
      <trkpt lat="47.8642460" lon="2.0283840">
        <ele>86.8</ele>
        <time>2020-07-02T13:57:35Z</time>
      </trkpt>
      <trkpt lat="47.8637020" lon="2.0284880">
        <ele>86.6</ele>
        <time>2020-07-02T13:57:45Z</time>
      </trkpt>
      <trkpt lat="47.8635320" lon="2.0285460">
        <ele>86.6</ele>
        <time>2020-07-02T13:57:48Z</time>
      </trkpt>
      <trkpt lat="47.8629920" lon="2.0287920">
        <ele>86.6</ele>
        <time>2020-07-02T13:57:58Z</time>
      </trkpt>
      <trkpt lat="47.8628830" lon="2.0288430">
        <ele>86.8</ele>
        <time>2020-07-02T13:58:00Z</time>
      </trkpt>
      <trkpt lat="47.8628300" lon="2.0288680">
        <ele>87.0</ele>
        <time>2020-07-02T13:58:01Z</time>
      </trkpt>
      <trkpt lat="47.8623020" lon="2.0291940">
        <ele>87.4</ele>
        <time>2020-07-02T13:58:11Z</time>
      </trkpt>
      <trkpt lat="47.8620370" lon="2.0293430">
        <ele>87.6</ele>
        <time>2020-07-02T13:58:16Z</time>
      </trkpt>
      <trkpt lat="47.8618040" lon="2.0294430">
        <ele>87.6</ele>
        <time>2020-07-02T13:58:20Z</time>
      </trkpt>
      <trkpt lat="47.8612320" lon="2.0296550">
        <ele>87.4</ele>
        <time>2020-07-02T13:58:30Z</time>
      </trkpt>
      <trkpt lat="47.8611180" lon="2.0296940">
        <ele>87.4</ele>
        <time>2020-07-02T13:58:32Z</time>
      </trkpt>
      <trkpt lat="47.8608330" lon="2.0297780">
        <ele>87.2</ele>
        <time>2020-07-02T13:58:37Z</time>
      </trkpt>
      <trkpt lat="47.8606570" lon="2.0298380">
        <ele>87.2</ele>
        <time>2020-07-02T13:58:40Z</time>
      </trkpt>
      <trkpt lat="47.8605420" lon="2.0298730">
        <ele>87.2</ele>
        <time>2020-07-02T13:58:42Z</time>
      </trkpt>
      <trkpt lat="47.8603680" lon="2.0299280">
        <ele>87.2</ele>
        <time>2020-07-02T13:58:45Z</time>
      </trkpt>
      <trkpt lat="47.8600920" lon="2.0300330">
        <ele>86.8</ele>
        <time>2020-07-02T13:58:50Z</time>
      </trkpt>
      <trkpt lat="47.8599840" lon="2.0300720">
        <ele>86.6</ele>
        <time>2020-07-02T13:58:52Z</time>
      </trkpt>
      <trkpt lat="47.8597660" lon="2.0301460">
        <ele>86.4</ele>
        <time>2020-07-02T13:58:56Z</time>
      </trkpt>
      <trkpt lat="47.8597100" lon="2.0301670">
        <ele>86.4</ele>
        <time>2020-07-02T13:58:57Z</time>
      </trkpt>
      <trkpt lat="47.8596540" lon="2.0301840">
        <ele>86.6</ele>
        <time>2020-07-02T13:58:58Z</time>
      </trkpt>
      <trkpt lat="47.8593340" lon="2.0303020">
        <ele>86.4</ele>
        <time>2020-07-02T13:59:04Z</time>
      </trkpt>
      <trkpt lat="47.8590070" lon="2.0304020">
        <ele>86.6</ele>
        <time>2020-07-02T13:59:10Z</time>
      </trkpt>
      <trkpt lat="47.8588950" lon="2.0304370">
        <ele>86.8</ele>
        <time>2020-07-02T13:59:12Z</time>
      </trkpt>
      <trkpt lat="47.8585650" lon="2.0305520">
        <ele>87.0</ele>
        <time>2020-07-02T13:59:18Z</time>
      </trkpt>
      <trkpt lat="47.8583040" lon="2.0306700">
        <ele>87.0</ele>
        <time>2020-07-02T13:59:23Z</time>
      </trkpt>
      <trkpt lat="47.8581160" lon="2.0307820">
        <ele>87.0</ele>
        <time>2020-07-02T13:59:27Z</time>
      </trkpt>
      <trkpt lat="47.8580230" lon="2.0308460">
        <ele>86.6</ele>
        <time>2020-07-02T13:59:29Z</time>
      </trkpt>
      <trkpt lat="47.8578760" lon="2.0309450">
        <ele>87.0</ele>
        <time>2020-07-02T13:59:32Z</time>
      </trkpt>
      <trkpt lat="47.8575930" lon="2.0311280">
        <ele>87.8</ele>
        <time>2020-07-02T13:59:38Z</time>
      </trkpt>
      <trkpt lat="47.8575140" lon="2.0311970">
        <ele>88.0</ele>
        <time>2020-07-02T13:59:40Z</time>
      </trkpt>
      <trkpt lat="47.8572020" lon="2.0315530">
        <ele>88.0</ele>
        <time>2020-07-02T13:59:48Z</time>
      </trkpt>
      <trkpt lat="47.8567800" lon="2.0319530">
        <ele>88.0</ele>
        <time>2020-07-02T13:59:57Z</time>
      </trkpt>
      <trkpt lat="47.8562710" lon="2.0323250">
        <ele>87.8</ele>
        <time>2020-07-02T14:00:07Z</time>
      </trkpt>
      <trkpt lat="47.8560740" lon="2.0324640">
        <ele>87.6</ele>
        <time>2020-07-02T14:00:11Z</time>
      </trkpt>
      <trkpt lat="47.8555940" lon="2.0328380">
        <ele>87.6</ele>
        <time>2020-07-02T14:00:21Z</time>
      </trkpt>
      <trkpt lat="47.8554560" lon="2.0329620">
        <ele>87.8</ele>
        <time>2020-07-02T14:00:24Z</time>
      </trkpt>
      <trkpt lat="47.8553610" lon="2.0330470">
        <ele>87.8</ele>
        <time>2020-07-02T14:00:26Z</time>
      </trkpt>
      <trkpt lat="47.8552720" lon="2.0331320">
        <ele>87.4</ele>
        <time>2020-07-02T14:00:28Z</time>
      </trkpt>
      <trkpt lat="47.8552300" lon="2.0331740">
        <ele>87.6</ele>
        <time>2020-07-02T14:00:29Z</time>
      </trkpt>
      <trkpt lat="47.8551070" lon="2.0333150">
        <ele>87.6</ele>
        <time>2020-07-02T14:00:32Z</time>
      </trkpt>
      <trkpt lat="47.8550280" lon="2.0334120">
        <ele>87.6</ele>
        <time>2020-07-02T14:00:34Z</time>
      </trkpt>
      <trkpt lat="47.8546910" lon="2.0339270">
        <ele>87.8</ele>
        <time>2020-07-02T14:00:43Z</time>
      </trkpt>
      <trkpt lat="47.8546570" lon="2.0339910">
        <ele>87.6</ele>
        <time>2020-07-02T14:00:44Z</time>
      </trkpt>
      <trkpt lat="47.8545550" lon="2.0341780">
        <ele>87.8</ele>
        <time>2020-07-02T14:00:47Z</time>
      </trkpt>
      <trkpt lat="47.8545210" lon="2.0342390">
        <ele>87.8</ele>
        <time>2020-07-02T14:00:48Z</time>
      </trkpt>
      <trkpt lat="47.8544890" lon="2.0343020">
        <ele>88.0</ele>
        <time>2020-07-02T14:00:49Z</time>
      </trkpt>
      <trkpt lat="47.8543610" lon="2.0345540">
        <ele>88.2</ele>
        <time>2020-07-02T14:00:53Z</time>
      </trkpt>
      <trkpt lat="47.8540500" lon="2.0352550">
        <ele>88.2</ele>
        <time>2020-07-02T14:01:04Z</time>
      </trkpt>
      <trkpt lat="47.8540230" lon="2.0353210">
        <ele>88.0</ele>
        <time>2020-07-02T14:01:05Z</time>
      </trkpt>
      <trkpt lat="47.8537530" lon="2.0360610">
        <ele>88.2</ele>
        <time>2020-07-02T14:01:15Z</time>
      </trkpt>
      <trkpt lat="47.8537270" lon="2.0361430">
        <ele>88.2</ele>
        <time>2020-07-02T14:01:16Z</time>
      </trkpt>
      <trkpt lat="47.8535380" lon="2.0367790">
        <ele>88.2</ele>
        <time>2020-07-02T14:01:24Z</time>
      </trkpt>
      <trkpt lat="47.8534650" lon="2.0369780">
        <ele>88.2</ele>
        <time>2020-07-02T14:01:27Z</time>
      </trkpt>
      <trkpt lat="47.8532930" lon="2.0375200">
        <ele>88.0</ele>
        <time>2020-07-02T14:01:34Z</time>
      </trkpt>
      <trkpt lat="47.8530760" lon="2.0382690">
        <ele>87.2</ele>
        <time>2020-07-02T14:01:43Z</time>
      </trkpt>
      <trkpt lat="47.8530300" lon="2.0384280">
        <ele>87.2</ele>
        <time>2020-07-02T14:01:45Z</time>
      </trkpt>
      <trkpt lat="47.8528000" lon="2.0392300">
        <ele>87.4</ele>
        <time>2020-07-02T14:01:55Z</time>
      </trkpt>
      <trkpt lat="47.8527870" lon="2.0393160">
        <ele>87.6</ele>
        <time>2020-07-02T14:01:56Z</time>
      </trkpt>
      <trkpt lat="47.8527620" lon="2.0398610">
        <ele>87.8</ele>
        <time>2020-07-02T14:02:02Z</time>
      </trkpt>
      <trkpt lat="47.8527630" lon="2.0403310">
        <ele>87.8</ele>
        <time>2020-07-02T14:02:07Z</time>
      </trkpt>
      <trkpt lat="47.8527510" lon="2.0411020">
        <ele>88.0</ele>
        <time>2020-07-02T14:02:15Z</time>
      </trkpt>
      <trkpt lat="47.8527370" lon="2.0419740">
        <ele>88.6</ele>
        <time>2020-07-02T14:02:24Z</time>
      </trkpt>
      <trkpt lat="47.8527420" lon="2.0423560">
        <ele>88.6</ele>
        <time>2020-07-02T14:02:28Z</time>
      </trkpt>
      <trkpt lat="47.8527800" lon="2.0432150">
        <ele>88.6</ele>
        <time>2020-07-02T14:02:37Z</time>
      </trkpt>
      <trkpt lat="47.8528000" lon="2.0434040">
        <ele>88.8</ele>
        <time>2020-07-02T14:02:39Z</time>
      </trkpt>
      <trkpt lat="47.8529200" lon="2.0442340">
        <ele>88.8</ele>
        <time>2020-07-02T14:02:48Z</time>
      </trkpt>
      <trkpt lat="47.8529500" lon="2.0444240">
        <ele>88.8</ele>
        <time>2020-07-02T14:02:50Z</time>
      </trkpt>
      <trkpt lat="47.8530880" lon="2.0452820">
        <ele>88.8</ele>
        <time>2020-07-02T14:02:59Z</time>
      </trkpt>
      <trkpt lat="47.8532020" lon="2.0459380">
        <ele>88.6</ele>
        <time>2020-07-02T14:03:06Z</time>
      </trkpt>
      <trkpt lat="47.8533330" lon="2.0467510">
        <ele>88.4</ele>
        <time>2020-07-02T14:03:15Z</time>
      </trkpt>
      <trkpt lat="47.8533590" lon="2.0469370">
        <ele>88.4</ele>
        <time>2020-07-02T14:03:17Z</time>
      </trkpt>
      <trkpt lat="47.8534540" lon="2.0477700">
        <ele>88.8</ele>
        <time>2020-07-02T14:03:26Z</time>
      </trkpt>
      <trkpt lat="47.8534700" lon="2.0479530">
        <ele>88.6</ele>
        <time>2020-07-02T14:03:28Z</time>
      </trkpt>
      <trkpt lat="47.8535530" lon="2.0488090">
        <ele>89.0</ele>
        <time>2020-07-02T14:03:37Z</time>
      </trkpt>
      <trkpt lat="47.8535690" lon="2.0489070">
        <ele>88.8</ele>
        <time>2020-07-02T14:03:38Z</time>
      </trkpt>
      <trkpt lat="47.8537310" lon="2.0497580">
        <ele>88.8</ele>
        <time>2020-07-02T14:03:47Z</time>
      </trkpt>
      <trkpt lat="47.8537740" lon="2.0499460">
        <ele>89.0</ele>
        <time>2020-07-02T14:03:49Z</time>
      </trkpt>
      <trkpt lat="47.8539450" lon="2.0507100">
        <ele>88.6</ele>
        <time>2020-07-02T14:03:57Z</time>
      </trkpt>
      <trkpt lat="47.8540770" lon="2.0512860">
        <ele>88.6</ele>
        <time>2020-07-02T14:04:03Z</time>
      </trkpt>
      <trkpt lat="47.8543250" lon="2.0520330">
        <ele>89.0</ele>
        <time>2020-07-02T14:04:11Z</time>
      </trkpt>
      <trkpt lat="47.8544710" lon="2.0526210">
        <ele>89.0</ele>
        <time>2020-07-02T14:04:17Z</time>
      </trkpt>
      <trkpt lat="47.8545180" lon="2.0534710">
        <ele>89.2</ele>
        <time>2020-07-02T14:04:25Z</time>
      </trkpt>
      <trkpt lat="47.8545530" lon="2.0543180">
        <ele>88.8</ele>
        <time>2020-07-02T14:04:33Z</time>
      </trkpt>
      <trkpt lat="47.8545590" lon="2.0544200">
        <ele>88.8</ele>
        <time>2020-07-02T14:04:34Z</time>
      </trkpt>
      <trkpt lat="47.8545900" lon="2.0552770">
        <ele>88.8</ele>
        <time>2020-07-02T14:04:43Z</time>
      </trkpt>
      <trkpt lat="47.8545950" lon="2.0554720">
        <ele>88.6</ele>
        <time>2020-07-02T14:04:45Z</time>
      </trkpt>
      <trkpt lat="47.8546430" lon="2.0563040">
        <ele>88.8</ele>
        <time>2020-07-02T14:04:53Z</time>
      </trkpt>
      <trkpt lat="47.8546500" lon="2.0564140">
        <ele>88.8</ele>
        <time>2020-07-02T14:04:54Z</time>
      </trkpt>
      <trkpt lat="47.8546970" lon="2.0572800">
        <ele>88.6</ele>
        <time>2020-07-02T14:05:02Z</time>
      </trkpt>
      <trkpt lat="47.8547270" lon="2.0579150">
        <ele>88.6</ele>
        <time>2020-07-02T14:05:08Z</time>
      </trkpt>
      <trkpt lat="47.8547790" lon="2.0587560">
        <ele>88.6</ele>
        <time>2020-07-02T14:05:16Z</time>
      </trkpt>
      <trkpt lat="47.8548310" lon="2.0594690">
        <ele>88.8</ele>
        <time>2020-07-02T14:05:23Z</time>
      </trkpt>
      <trkpt lat="47.8548640" lon="2.0596660">
        <ele>88.6</ele>
        <time>2020-07-02T14:05:25Z</time>
      </trkpt>
      <trkpt lat="47.8549720" lon="2.0601690">
        <ele>89.0</ele>
        <time>2020-07-02T14:05:30Z</time>
      </trkpt>
      <trkpt lat="47.8552350" lon="2.0609020">
        <ele>89.6</ele>
        <time>2020-07-02T14:05:38Z</time>
      </trkpt>
      <trkpt lat="47.8555580" lon="2.0615980">
        <ele>89.4</ele>
        <time>2020-07-02T14:05:46Z</time>
      </trkpt>
      <trkpt lat="47.8556830" lon="2.0618630">
        <ele>89.4</ele>
        <time>2020-07-02T14:05:49Z</time>
      </trkpt>
      <trkpt lat="47.8560040" lon="2.0625880">
        <ele>89.6</ele>
        <time>2020-07-02T14:05:57Z</time>
      </trkpt>
      <trkpt lat="47.8561020" lon="2.0628810">
        <ele>89.8</ele>
        <time>2020-07-02T14:06:00Z</time>
      </trkpt>
      <trkpt lat="47.8563510" lon="2.0636960">
        <ele>89.6</ele>
        <time>2020-07-02T14:06:08Z</time>
      </trkpt>
      <trkpt lat="47.8565330" lon="2.0642910">
        <ele>89.6</ele>
        <time>2020-07-02T14:06:14Z</time>
      </trkpt>
      <trkpt lat="47.8567620" lon="2.0650490">
        <ele>89.4</ele>
        <time>2020-07-02T14:06:22Z</time>
      </trkpt>
      <trkpt lat="47.8568780" lon="2.0654340">
        <ele>89.4</ele>
        <time>2020-07-02T14:06:26Z</time>
      </trkpt>
      <trkpt lat="47.8569680" lon="2.0657250">
        <ele>89.4</ele>
        <time>2020-07-02T14:06:29Z</time>
      </trkpt>
      <trkpt lat="47.8572130" lon="2.0664540">
        <ele>89.4</ele>
        <time>2020-07-02T14:06:37Z</time>
      </trkpt>
      <trkpt lat="47.8575180" lon="2.0671510">
        <ele>89.2</ele>
        <time>2020-07-02T14:06:46Z</time>
      </trkpt>
      <trkpt lat="47.8575880" lon="2.0673090">
        <ele>89.2</ele>
        <time>2020-07-02T14:06:48Z</time>
      </trkpt>
      <trkpt lat="47.8578950" lon="2.0680080">
        <ele>89.0</ele>
        <time>2020-07-02T14:06:57Z</time>
      </trkpt>
      <trkpt lat="47.8580000" lon="2.0682520">
        <ele>89.0</ele>
        <time>2020-07-02T14:07:00Z</time>
      </trkpt>
      <trkpt lat="47.8583240" lon="2.0689770">
        <ele>89.4</ele>
        <time>2020-07-02T14:07:09Z</time>
      </trkpt>
      <trkpt lat="47.8584760" lon="2.0692810">
        <ele>89.4</ele>
        <time>2020-07-02T14:07:13Z</time>
      </trkpt>
      <trkpt lat="47.8585180" lon="2.0693510">
        <ele>89.4</ele>
        <time>2020-07-02T14:07:14Z</time>
      </trkpt>
      <trkpt lat="47.8587610" lon="2.0696620">
        <ele>89.6</ele>
        <time>2020-07-02T14:07:19Z</time>
      </trkpt>
      <trkpt lat="47.8590130" lon="2.0699460">
        <ele>89.8</ele>
        <time>2020-07-02T14:07:24Z</time>
      </trkpt>
      <trkpt lat="47.8592850" lon="2.0703340">
        <ele>90.4</ele>
        <time>2020-07-02T14:07:30Z</time>
      </trkpt>
      <trkpt lat="47.8595140" lon="2.0707360">
        <ele>90.6</ele>
        <time>2020-07-02T14:07:37Z</time>
      </trkpt>
      <trkpt lat="47.8595310" lon="2.0707720">
        <ele>90.8</ele>
        <time>2020-07-02T14:07:41Z</time>
      </trkpt>
      <trkpt lat="47.8595280" lon="2.0707700">
        <ele>91.0</ele>
        <time>2020-07-02T14:07:42Z</time>
      </trkpt>
      <trkpt lat="47.8595180" lon="2.0707660">
        <ele>91.0</ele>
        <time>2020-07-02T14:07:44Z</time>
      </trkpt>
      <trkpt lat="47.8595150" lon="2.0707880">
        <ele>90.8</ele>
        <time>2020-07-02T14:07:52Z</time>
      </trkpt>
      <trkpt lat="47.8595360" lon="2.0709090">
        <ele>90.8</ele>
        <time>2020-07-02T14:07:57Z</time>
      </trkpt>
      <trkpt lat="47.8595500" lon="2.0709430">
        <ele>90.8</ele>
        <time>2020-07-02T14:07:58Z</time>
      </trkpt>
      <trkpt lat="47.8596500" lon="2.0712230">
        <ele>90.4</ele>
        <time>2020-07-02T14:08:04Z</time>
      </trkpt>
      <trkpt lat="47.8598220" lon="2.0717820">
        <ele>90.2</ele>
        <time>2020-07-02T14:08:12Z</time>
      </trkpt>
      <trkpt lat="47.8600400" lon="2.0725340">
        <ele>89.6</ele>
        <time>2020-07-02T14:08:21Z</time>
      </trkpt>
      <trkpt lat="47.8602510" lon="2.0732480">
        <ele>89.6</ele>
        <time>2020-07-02T14:08:29Z</time>
      </trkpt>
      <trkpt lat="47.8603290" lon="2.0735300">
        <ele>89.4</ele>
        <time>2020-07-02T14:08:32Z</time>
      </trkpt>
      <trkpt lat="47.8605380" lon="2.0743000">
        <ele>89.2</ele>
        <time>2020-07-02T14:08:40Z</time>
      </trkpt>
      <trkpt lat="47.8606460" lon="2.0746570">
        <ele>89.0</ele>
        <time>2020-07-02T14:08:44Z</time>
      </trkpt>
      <trkpt lat="47.8609220" lon="2.0753990">
        <ele>89.0</ele>
        <time>2020-07-02T14:08:53Z</time>
      </trkpt>
      <trkpt lat="47.8612050" lon="2.0758690">
        <ele>89.0</ele>
        <time>2020-07-02T14:09:00Z</time>
      </trkpt>
      <trkpt lat="47.8616330" lon="2.0764210">
        <ele>89.4</ele>
        <time>2020-07-02T14:09:09Z</time>
      </trkpt>
      <trkpt lat="47.8620840" lon="2.0769760">
        <ele>89.6</ele>
        <time>2020-07-02T14:09:19Z</time>
      </trkpt>
      <trkpt lat="47.8621740" lon="2.0770990">
        <ele>89.6</ele>
        <time>2020-07-02T14:09:21Z</time>
      </trkpt>
      <trkpt lat="47.8624430" lon="2.0775840">
        <ele>89.6</ele>
        <time>2020-07-02T14:09:28Z</time>
      </trkpt>
      <trkpt lat="47.8627370" lon="2.0782810">
        <ele>89.6</ele>
        <time>2020-07-02T14:09:37Z</time>
      </trkpt>
      <trkpt lat="47.8630570" lon="2.0789670">
        <ele>89.8</ele>
        <time>2020-07-02T14:09:46Z</time>
      </trkpt>
      <trkpt lat="47.8632140" lon="2.0793380">
        <ele>89.6</ele>
        <time>2020-07-02T14:09:51Z</time>
      </trkpt>
      <trkpt lat="47.8632460" lon="2.0794040">
        <ele>89.8</ele>
        <time>2020-07-02T14:09:52Z</time>
      </trkpt>
      <trkpt lat="47.8635420" lon="2.0799920">
        <ele>90.0</ele>
        <time>2020-07-02T14:10:01Z</time>
      </trkpt>
      <trkpt lat="47.8638540" lon="2.0805690">
        <ele>90.4</ele>
        <time>2020-07-02T14:10:09Z</time>
      </trkpt>
      <trkpt lat="47.8642250" lon="2.0812680">
        <ele>90.4</ele>
        <time>2020-07-02T14:10:18Z</time>
      </trkpt>
      <trkpt lat="47.8642970" lon="2.0814200">
        <ele>90.2</ele>
        <time>2020-07-02T14:10:20Z</time>
      </trkpt>
      <trkpt lat="47.8646060" lon="2.0821190">
        <ele>90.2</ele>
        <time>2020-07-02T14:10:29Z</time>
      </trkpt>
      <trkpt lat="47.8646700" lon="2.0822790">
        <ele>90.4</ele>
        <time>2020-07-02T14:10:31Z</time>
      </trkpt>
      <trkpt lat="47.8648770" lon="2.0829510">
        <ele>90.2</ele>
        <time>2020-07-02T14:10:39Z</time>
      </trkpt>
      <trkpt lat="47.8650820" lon="2.0837370">
        <ele>90.2</ele>
        <time>2020-07-02T14:10:48Z</time>
      </trkpt>
      <trkpt lat="47.8651020" lon="2.0838210">
        <ele>90.4</ele>
        <time>2020-07-02T14:10:49Z</time>
      </trkpt>
      <trkpt lat="47.8653180" lon="2.0846140">
        <ele>90.2</ele>
        <time>2020-07-02T14:10:58Z</time>
      </trkpt>
      <trkpt lat="47.8655650" lon="2.0852610">
        <ele>90.2</ele>
        <time>2020-07-02T14:11:06Z</time>
      </trkpt>
      <trkpt lat="47.8658790" lon="2.0859810">
        <ele>90.2</ele>
        <time>2020-07-02T14:11:15Z</time>
      </trkpt>
      <trkpt lat="47.8659140" lon="2.0860580">
        <ele>90.2</ele>
        <time>2020-07-02T14:11:16Z</time>
      </trkpt>
      <trkpt lat="47.8662210" lon="2.0867130">
        <ele>90.2</ele>
        <time>2020-07-02T14:11:25Z</time>
      </trkpt>
      <trkpt lat="47.8664680" lon="2.0872640">
        <ele>90.4</ele>
        <time>2020-07-02T14:11:32Z</time>
      </trkpt>
      <trkpt lat="47.8666120" lon="2.0875670">
        <ele>90.2</ele>
        <time>2020-07-02T14:11:36Z</time>
      </trkpt>
      <trkpt lat="47.8669240" lon="2.0882430">
        <ele>89.8</ele>
        <time>2020-07-02T14:11:45Z</time>
      </trkpt>
      <trkpt lat="47.8669920" lon="2.0884030">
        <ele>89.8</ele>
        <time>2020-07-02T14:11:47Z</time>
      </trkpt>
      <trkpt lat="47.8673010" lon="2.0891770">
        <ele>89.6</ele>
        <time>2020-07-02T14:11:56Z</time>
      </trkpt>
      <trkpt lat="47.8673350" lon="2.0892690">
        <ele>89.6</ele>
        <time>2020-07-02T14:11:57Z</time>
      </trkpt>
      <trkpt lat="47.8676000" lon="2.0900330">
        <ele>89.2</ele>
        <time>2020-07-02T14:12:06Z</time>
      </trkpt>
      <trkpt lat="47.8678330" lon="2.0908090">
        <ele>89.4</ele>
        <time>2020-07-02T14:12:15Z</time>
      </trkpt>
      <trkpt lat="47.8680650" lon="2.0916410">
        <ele>89.2</ele>
        <time>2020-07-02T14:12:24Z</time>
      </trkpt>
      <trkpt lat="47.8681160" lon="2.0918330">
        <ele>89.2</ele>
        <time>2020-07-02T14:12:26Z</time>
      </trkpt>
      <trkpt lat="47.8682520" lon="2.0926650">
        <ele>89.0</ele>
        <time>2020-07-02T14:12:34Z</time>
      </trkpt>
      <trkpt lat="47.8683180" lon="2.0931380">
        <ele>89.0</ele>
        <time>2020-07-02T14:12:39Z</time>
      </trkpt>
      <trkpt lat="47.8683690" lon="2.0934800">
        <ele>89.6</ele>
        <time>2020-07-02T14:12:43Z</time>
      </trkpt>
      <trkpt lat="47.8685280" lon="2.0943040">
        <ele>90.0</ele>
        <time>2020-07-02T14:12:53Z</time>
      </trkpt>
      <trkpt lat="47.8685600" lon="2.0944600">
        <ele>90.0</ele>
        <time>2020-07-02T14:12:55Z</time>
      </trkpt>
      <trkpt lat="47.8687240" lon="2.0953200">
        <ele>90.0</ele>
        <time>2020-07-02T14:13:05Z</time>
      </trkpt>
      <trkpt lat="47.8688680" lon="2.0961680">
        <ele>90.2</ele>
        <time>2020-07-02T14:13:14Z</time>
      </trkpt>
      <trkpt lat="47.8688990" lon="2.0964630">
        <ele>90.0</ele>
        <time>2020-07-02T14:13:17Z</time>
      </trkpt>
      <trkpt lat="47.8689110" lon="2.0965580">
        <ele>89.8</ele>
        <time>2020-07-02T14:13:18Z</time>
      </trkpt>
      <trkpt lat="47.8690070" lon="2.0974210">
        <ele>90.0</ele>
        <time>2020-07-02T14:13:27Z</time>
      </trkpt>
      <trkpt lat="47.8690500" lon="2.0978100">
        <ele>89.8</ele>
        <time>2020-07-02T14:13:31Z</time>
      </trkpt>
      <trkpt lat="47.8690720" lon="2.0981110">
        <ele>89.8</ele>
        <time>2020-07-02T14:13:34Z</time>
      </trkpt>
      <trkpt lat="47.8691170" lon="2.0989390">
        <ele>90.0</ele>
        <time>2020-07-02T14:13:42Z</time>
      </trkpt>
      <trkpt lat="47.8691510" lon="2.0993420">
        <ele>89.8</ele>
        <time>2020-07-02T14:13:46Z</time>
      </trkpt>
      <trkpt lat="47.8692410" lon="2.1001810">
        <ele>89.8</ele>
        <time>2020-07-02T14:13:55Z</time>
      </trkpt>
      <trkpt lat="47.8692520" lon="2.1002720">
        <ele>90.0</ele>
        <time>2020-07-02T14:13:56Z</time>
      </trkpt>
      <trkpt lat="47.8693310" lon="2.1011280">
        <ele>89.8</ele>
        <time>2020-07-02T14:14:05Z</time>
      </trkpt>
      <trkpt lat="47.8693320" lon="2.1012210">
        <ele>89.8</ele>
        <time>2020-07-02T14:14:06Z</time>
      </trkpt>
      <trkpt lat="47.8692800" lon="2.1018670">
        <ele>89.8</ele>
        <time>2020-07-02T14:14:13Z</time>
      </trkpt>
      <trkpt lat="47.8691480" lon="2.1027120">
        <ele>90.0</ele>
        <time>2020-07-02T14:14:22Z</time>
      </trkpt>
      <trkpt lat="47.8690450" lon="2.1032900">
        <ele>90.0</ele>
        <time>2020-07-02T14:14:28Z</time>
      </trkpt>
      <trkpt lat="47.8689390" lon="2.1040250">
        <ele>89.8</ele>
        <time>2020-07-02T14:14:36Z</time>
      </trkpt>
      <trkpt lat="47.8688510" lon="2.1045790">
        <ele>89.6</ele>
        <time>2020-07-02T14:14:42Z</time>
      </trkpt>
      <trkpt lat="47.8688260" lon="2.1047590">
        <ele>89.8</ele>
        <time>2020-07-02T14:14:44Z</time>
      </trkpt>
      <trkpt lat="47.8687180" lon="2.1056180">
        <ele>90.0</ele>
        <time>2020-07-02T14:14:53Z</time>
      </trkpt>
      <trkpt lat="47.8686100" lon="2.1064980">
        <ele>90.2</ele>
        <time>2020-07-02T14:15:02Z</time>
      </trkpt>
      <trkpt lat="47.8685840" lon="2.1067770">
        <ele>90.0</ele>
        <time>2020-07-02T14:15:05Z</time>
      </trkpt>
      <trkpt lat="47.8685640" lon="2.1076300">
        <ele>89.8</ele>
        <time>2020-07-02T14:15:14Z</time>
      </trkpt>
      <trkpt lat="47.8685640" lon="2.1077210">
        <ele>90.0</ele>
        <time>2020-07-02T14:15:15Z</time>
      </trkpt>
      <trkpt lat="47.8685450" lon="2.1085690">
        <ele>90.0</ele>
        <time>2020-07-02T14:15:24Z</time>
      </trkpt>
      <trkpt lat="47.8685260" lon="2.1089630">
        <ele>90.0</ele>
        <time>2020-07-02T14:15:28Z</time>
      </trkpt>
      <trkpt lat="47.8684650" lon="2.1098390">
        <ele>90.2</ele>
        <time>2020-07-02T14:15:37Z</time>
      </trkpt>
      <trkpt lat="47.8684270" lon="2.1105060">
        <ele>90.4</ele>
        <time>2020-07-02T14:15:44Z</time>
      </trkpt>
      <trkpt lat="47.8683920" lon="2.1113850">
        <ele>90.6</ele>
        <time>2020-07-02T14:15:53Z</time>
      </trkpt>
      <trkpt lat="47.8683690" lon="2.1116950">
        <ele>90.8</ele>
        <time>2020-07-02T14:15:56Z</time>
      </trkpt>
      <trkpt lat="47.8683260" lon="2.1124970">
        <ele>90.6</ele>
        <time>2020-07-02T14:16:04Z</time>
      </trkpt>
      <trkpt lat="47.8682960" lon="2.1131720">
        <ele>90.6</ele>
        <time>2020-07-02T14:16:11Z</time>
      </trkpt>
      <trkpt lat="47.8682450" lon="2.1140030">
        <ele>90.4</ele>
        <time>2020-07-02T14:16:20Z</time>
      </trkpt>
      <trkpt lat="47.8682400" lon="2.1140980">
        <ele>90.4</ele>
        <time>2020-07-02T14:16:21Z</time>
      </trkpt>
      <trkpt lat="47.8682550" lon="2.1147770">
        <ele>90.4</ele>
        <time>2020-07-02T14:16:28Z</time>
      </trkpt>
      <trkpt lat="47.8683170" lon="2.1154980">
        <ele>90.8</ele>
        <time>2020-07-02T14:16:36Z</time>
      </trkpt>
      <trkpt lat="47.8683480" lon="2.1162970">
        <ele>91.0</ele>
        <time>2020-07-02T14:16:44Z</time>
      </trkpt>
      <trkpt lat="47.8683400" lon="2.1164010">
        <ele>90.8</ele>
        <time>2020-07-02T14:16:45Z</time>
      </trkpt>
      <trkpt lat="47.8683220" lon="2.1167760">
        <ele>90.8</ele>
        <time>2020-07-02T14:16:49Z</time>
      </trkpt>
      <trkpt lat="47.8683060" lon="2.1168690">
        <ele>90.8</ele>
        <time>2020-07-02T14:16:50Z</time>
      </trkpt>
      <trkpt lat="47.8682760" lon="2.1170410">
        <ele>90.8</ele>
        <time>2020-07-02T14:16:52Z</time>
      </trkpt>
      <trkpt lat="47.8682320" lon="2.1173430">
        <ele>90.8</ele>
        <time>2020-07-02T14:16:56Z</time>
      </trkpt>
      <trkpt lat="47.8682040" lon="2.1174870">
        <ele>90.8</ele>
        <time>2020-07-02T14:16:58Z</time>
      </trkpt>
      <trkpt lat="47.8681770" lon="2.1176300">
        <ele>90.8</ele>
        <time>2020-07-02T14:17:00Z</time>
      </trkpt>
      <trkpt lat="47.8681640" lon="2.1176990">
        <ele>90.8</ele>
        <time>2020-07-02T14:17:01Z</time>
      </trkpt>
      <trkpt lat="47.8681210" lon="2.1178480">
        <ele>90.8</ele>
        <time>2020-07-02T14:17:03Z</time>
      </trkpt>
      <trkpt lat="47.8680270" lon="2.1182550">
        <ele>91.2</ele>
        <time>2020-07-02T14:17:09Z</time>
      </trkpt>
      <trkpt lat="47.8680150" lon="2.1183290">
        <ele>91.2</ele>
        <time>2020-07-02T14:17:10Z</time>
      </trkpt>
      <trkpt lat="47.8679050" lon="2.1188610">
        <ele>90.8</ele>
        <time>2020-07-02T14:17:17Z</time>
      </trkpt>
      <trkpt lat="47.8677930" lon="2.1196530">
        <ele>90.6</ele>
        <time>2020-07-02T14:17:26Z</time>
      </trkpt>
      <trkpt lat="47.8678140" lon="2.1202570">
        <ele>90.6</ele>
        <time>2020-07-02T14:17:33Z</time>
      </trkpt>
      <trkpt lat="47.8678210" lon="2.1204150">
        <ele>90.8</ele>
        <time>2020-07-02T14:17:35Z</time>
      </trkpt>
      <trkpt lat="47.8678450" lon="2.1205690">
        <ele>91.0</ele>
        <time>2020-07-02T14:17:38Z</time>
      </trkpt>
      <trkpt lat="47.8678750" lon="2.1206080">
        <ele>91.2</ele>
        <time>2020-07-02T14:17:40Z</time>
      </trkpt>
      <trkpt lat="47.8679160" lon="2.1206110">
        <ele>91.4</ele>
        <time>2020-07-02T14:17:42Z</time>
      </trkpt>
      <trkpt lat="47.8680270" lon="2.1205770">
        <ele>91.6</ele>
        <time>2020-07-02T14:17:48Z</time>
      </trkpt>
      <trkpt lat="47.8680620" lon="2.1205530">
        <ele>91.8</ele>
        <time>2020-07-02T14:17:54Z</time>
      </trkpt>
      <trkpt lat="47.8680660" lon="2.1205500">
        <ele>92.0</ele>
        <time>2020-07-02T14:18:07Z</time>
      </trkpt>
      <trkpt lat="47.8680670" lon="2.1205500">
        <ele>92.0</ele>
        <time>2020-07-02T14:18:08Z</time>
      </trkpt>
      <trkpt lat="47.8680680" lon="2.1205490">
        <ele>91.8</ele>
        <time>2020-07-02T14:18:14Z</time>
      </trkpt>
      <trkpt lat="47.8680680" lon="2.1205490">
        <ele>91.8</ele>
        <time>2020-07-02T14:18:15Z</time>
      </trkpt>
      <trkpt lat="47.8680680" lon="2.1205490">
        <ele>92.0</ele>
        <time>2020-07-02T14:18:17Z</time>
      </trkpt>
      <trkpt lat="47.8680650" lon="2.1205440">
        <ele>92.0</ele>
        <time>2020-07-02T14:18:26Z</time>
      </trkpt>
      <trkpt lat="47.8680630" lon="2.1205460">
        <ele>91.8</ele>
        <time>2020-07-02T14:18:47Z</time>
      </trkpt>
      <trkpt lat="47.8680620" lon="2.1205520">
        <ele>92.2</ele>
        <time>2020-07-02T14:19:06Z</time>
      </trkpt>
      <trkpt lat="47.8680540" lon="2.1205640">
        <ele>92.2</ele>
        <time>2020-07-02T14:19:32Z</time>
      </trkpt>
      <trkpt lat="47.8680030" lon="2.1205820">
        <ele>92.0</ele>
        <time>2020-07-02T14:19:50Z</time>
      </trkpt>
      <trkpt lat="47.8679730" lon="2.1205840">
        <ele>92.0</ele>
        <time>2020-07-02T14:19:58Z</time>
      </trkpt>
      <trkpt lat="47.8679730" lon="2.1205850">
        <ele>92.0</ele>
        <time>2020-07-02T14:20:22Z</time>
      </trkpt>
      <trkpt lat="47.8679390" lon="2.1206030">
        <ele>92.0</ele>
        <time>2020-07-02T14:20:39Z</time>
      </trkpt>
      <trkpt lat="47.8678430" lon="2.1206210">
        <ele>92.2</ele>
        <time>2020-07-02T14:20:45Z</time>
      </trkpt>
      <trkpt lat="47.8677640" lon="2.1207610">
        <ele>91.8</ele>
        <time>2020-07-02T14:20:52Z</time>
      </trkpt>
      <trkpt lat="47.8677500" lon="2.1210100">
        <ele>91.6</ele>
        <time>2020-07-02T14:20:59Z</time>
      </trkpt>
      <trkpt lat="47.8677170" lon="2.1213310">
        <ele>90.6</ele>
        <time>2020-07-02T14:21:06Z</time>
      </trkpt>
      <trkpt lat="47.8677110" lon="2.1213820">
        <ele>90.8</ele>
        <time>2020-07-02T14:21:07Z</time>
      </trkpt>
      <trkpt lat="47.8676740" lon="2.1218230">
        <ele>90.6</ele>
        <time>2020-07-02T14:21:16Z</time>
      </trkpt>
      <trkpt lat="47.8676500" lon="2.1221850">
        <ele>90.6</ele>
        <time>2020-07-02T14:21:24Z</time>
      </trkpt>
      <trkpt lat="47.8675980" lon="2.1222320">
        <ele>90.6</ele>
        <time>2020-07-02T14:21:27Z</time>
      </trkpt>
      <trkpt lat="47.8675500" lon="2.1222180">
        <ele>90.4</ele>
        <time>2020-07-02T14:21:29Z</time>
      </trkpt>
      <trkpt lat="47.8673570" lon="2.1221160">
        <ele>90.2</ele>
        <time>2020-07-02T14:21:36Z</time>
      </trkpt>
      <trkpt lat="47.8672270" lon="2.1220390">
        <ele>90.4</ele>
        <time>2020-07-02T14:21:42Z</time>
      </trkpt>
      <trkpt lat="47.8670610" lon="2.1218990">
        <ele>90.2</ele>
        <time>2020-07-02T14:21:51Z</time>
      </trkpt>
      <trkpt lat="47.8669290" lon="2.1218340">
        <ele>90.2</ele>
        <time>2020-07-02T14:21:58Z</time>
      </trkpt>
      <trkpt lat="47.8667780" lon="2.1217580">
        <ele>90.2</ele>
        <time>2020-07-02T14:22:06Z</time>
      </trkpt>
      <trkpt lat="47.8666540" lon="2.1217200">
        <ele>90.4</ele>
        <time>2020-07-02T14:22:13Z</time>
      </trkpt>
      <trkpt lat="47.8666450" lon="2.1217220">
        <ele>90.6</ele>
        <time>2020-07-02T14:22:14Z</time>
      </trkpt>
      <trkpt lat="47.8665510" lon="2.1217520">
        <ele>90.6</ele>
        <time>2020-07-02T14:22:19Z</time>
      </trkpt>
      <trkpt lat="47.8663720" lon="2.1218390">
        <ele>90.6</ele>
        <time>2020-07-02T14:22:27Z</time>
      </trkpt>
      <trkpt lat="47.8662270" lon="2.1218030">
        <ele>90.4</ele>
        <time>2020-07-02T14:22:33Z</time>
      </trkpt>
      <trkpt lat="47.8661700" lon="2.1217410">
        <ele>90.4</ele>
        <time>2020-07-02T14:22:41Z</time>
      </trkpt>
      <trkpt lat="47.8661400" lon="2.1217170">
        <ele>90.4</ele>
        <time>2020-07-02T14:22:55Z</time>
      </trkpt>
      <trkpt lat="47.8660930" lon="2.1216980">
        <ele>90.4</ele>
        <time>2020-07-02T14:22:59Z</time>
      </trkpt>
      <trkpt lat="47.8660270" lon="2.1216870">
        <ele>90.2</ele>
        <time>2020-07-02T14:23:03Z</time>
      </trkpt>
      <trkpt lat="47.8659120" lon="2.1216570">
        <ele>89.8</ele>
        <time>2020-07-02T14:23:11Z</time>
      </trkpt>
      <trkpt lat="47.8658120" lon="2.1216310">
        <ele>89.6</ele>
        <time>2020-07-02T14:23:16Z</time>
      </trkpt>
      <trkpt lat="47.8657070" lon="2.1215940">
        <ele>89.6</ele>
        <time>2020-07-02T14:23:21Z</time>
      </trkpt>
      <trkpt lat="47.8654880" lon="2.1215220">
        <ele>89.2</ele>
        <time>2020-07-02T14:23:29Z</time>
      </trkpt>
      <trkpt lat="47.8653080" lon="2.1214700">
        <ele>89.0</ele>
        <time>2020-07-02T14:23:38Z</time>
      </trkpt>
      <trkpt lat="47.8651700" lon="2.1214700">
        <ele>89.2</ele>
        <time>2020-07-02T14:23:46Z</time>
      </trkpt>
      <trkpt lat="47.8650610" lon="2.1215710">
        <ele>89.2</ele>
        <time>2020-07-02T14:23:53Z</time>
      </trkpt>
      <trkpt lat="47.8650350" lon="2.1216390">
        <ele>89.6</ele>
        <time>2020-07-02T14:24:00Z</time>
      </trkpt>
      <trkpt lat="47.8650030" lon="2.1216860">
        <ele>89.6</ele>
        <time>2020-07-02T14:24:12Z</time>
      </trkpt>
      <trkpt lat="47.8649280" lon="2.1217450">
        <ele>89.6</ele>
        <time>2020-07-02T14:24:20Z</time>
      </trkpt>
      <trkpt lat="47.8648800" lon="2.1217510">
        <ele>89.8</ele>
        <time>2020-07-02T14:24:29Z</time>
      </trkpt>
      <trkpt lat="47.8648210" lon="2.1217270">
        <ele>89.8</ele>
        <time>2020-07-02T14:24:37Z</time>
      </trkpt>
      <trkpt lat="47.8648020" lon="2.1217160">
        <ele>89.8</ele>
        <time>2020-07-02T14:24:49Z</time>
      </trkpt>
      <trkpt lat="47.8647920" lon="2.1217220">
        <ele>89.8</ele>
        <time>2020-07-02T14:24:53Z</time>
      </trkpt>
      <trkpt lat="47.8648010" lon="2.1217180">
        <ele>90.0</ele>
        <time>2020-07-02T14:25:06Z</time>
      </trkpt>
      <trkpt lat="47.8648010" lon="2.1217280">
        <ele>90.0</ele>
        <time>2020-07-02T14:25:24Z</time>
      </trkpt>
      <trkpt lat="47.8647930" lon="2.1217120">
        <ele>89.8</ele>
        <time>2020-07-02T14:25:43Z</time>
      </trkpt>
      <trkpt lat="47.8648020" lon="2.1217130">
        <ele>89.6</ele>
        <time>2020-07-02T14:26:03Z</time>
      </trkpt>
      <trkpt lat="47.8648160" lon="2.1217130">
        <ele>89.2</ele>
        <time>2020-07-02T14:26:19Z</time>
      </trkpt>
      <trkpt lat="47.8648290" lon="2.1217180">
        <ele>89.0</ele>
        <time>2020-07-02T14:26:42Z</time>
      </trkpt>
      <trkpt lat="47.8648540" lon="2.1217140">
        <ele>89.4</ele>
        <time>2020-07-02T14:27:11Z</time>
      </trkpt>
      <trkpt lat="47.8648760" lon="2.1217240">
        <ele>89.2</ele>
        <time>2020-07-02T14:27:36Z</time>
      </trkpt>
      <trkpt lat="47.8648810" lon="2.1217320">
        <ele>89.2</ele>
        <time>2020-07-02T14:28:03Z</time>
      </trkpt>
      <trkpt lat="47.8648940" lon="2.1217190">
        <ele>89.2</ele>
        <time>2020-07-02T14:28:30Z</time>
      </trkpt>
      <trkpt lat="47.8648990" lon="2.1217140">
        <ele>89.2</ele>
        <time>2020-07-02T14:29:04Z</time>
      </trkpt>
      <trkpt lat="47.8649020" lon="2.1217130">
        <ele>89.4</ele>
        <time>2020-07-02T14:29:36Z</time>
      </trkpt>
      <trkpt lat="47.8649150" lon="2.1217100">
        <ele>89.4</ele>
        <time>2020-07-02T14:29:58Z</time>
      </trkpt>
      <trkpt lat="47.8649280" lon="2.1216960">
        <ele>89.4</ele>
        <time>2020-07-02T14:30:11Z</time>
      </trkpt>
      <trkpt lat="47.8649300" lon="2.1216950">
        <ele>89.2</ele>
        <time>2020-07-02T14:30:45Z</time>
      </trkpt>
      <trkpt lat="47.8649320" lon="2.1216820">
        <ele>89.2</ele>
        <time>2020-07-02T14:31:13Z</time>
      </trkpt>
      <trkpt lat="47.8649270" lon="2.1216680">
        <ele>89.2</ele>
        <time>2020-07-02T14:31:53Z</time>
      </trkpt>
      <trkpt lat="47.8649240" lon="2.1216660">
        <ele>89.0</ele>
        <time>2020-07-02T14:32:21Z</time>
      </trkpt>
      <trkpt lat="47.8649270" lon="2.1216610">
        <ele>89.0</ele>
        <time>2020-07-02T14:32:49Z</time>
      </trkpt>
      <trkpt lat="47.8649290" lon="2.1216630">
        <ele>89.0</ele>
        <time>2020-07-02T14:33:03Z</time>
      </trkpt>
      <trkpt lat="47.8649300" lon="2.1216600">
        <ele>89.2</ele>
        <time>2020-07-02T14:33:30Z</time>
      </trkpt>
      <trkpt lat="47.8649320" lon="2.1216570">
        <ele>89.0</ele>
        <time>2020-07-02T14:34:01Z</time>
      </trkpt>
      <trkpt lat="47.8649340" lon="2.1216580">
        <ele>89.0</ele>
        <time>2020-07-02T14:34:14Z</time>
      </trkpt>
      <trkpt lat="47.8649410" lon="2.1216190">
        <ele>89.0</ele>
        <time>2020-07-02T14:34:24Z</time>
      </trkpt>
      <trkpt lat="47.8649380" lon="2.1215570">
        <ele>89.0</ele>
        <time>2020-07-02T14:34:40Z</time>
      </trkpt>
      <trkpt lat="47.8649270" lon="2.1215640">
        <ele>89.0</ele>
        <time>2020-07-02T14:34:55Z</time>
      </trkpt>
      <trkpt lat="47.8649280" lon="2.1215650">
        <ele>89.0</ele>
        <time>2020-07-02T14:35:29Z</time>
      </trkpt>
      <trkpt lat="47.8649290" lon="2.1215700">
        <ele>88.8</ele>
        <time>2020-07-02T14:36:04Z</time>
      </trkpt>
      <trkpt lat="47.8649320" lon="2.1215710">
        <ele>89.0</ele>
        <time>2020-07-02T14:36:42Z</time>
      </trkpt>
      <trkpt lat="47.8649410" lon="2.1215720">
        <ele>88.6</ele>
        <time>2020-07-02T14:37:05Z</time>
      </trkpt>
      <trkpt lat="47.8649370" lon="2.1215820">
        <ele>88.8</ele>
        <time>2020-07-02T14:37:22Z</time>
      </trkpt>
      <trkpt lat="47.8649280" lon="2.1215820">
        <ele>88.8</ele>
        <time>2020-07-02T14:37:49Z</time>
      </trkpt>
      <trkpt lat="47.8649320" lon="2.1215760">
        <ele>88.6</ele>
        <time>2020-07-02T14:38:09Z</time>
      </trkpt>
      <trkpt lat="47.8649310" lon="2.1215720">
        <ele>88.2</ele>
        <time>2020-07-02T14:38:35Z</time>
      </trkpt>
      <trkpt lat="47.8649320" lon="2.1215780">
        <ele>88.6</ele>
        <time>2020-07-02T14:39:12Z</time>
      </trkpt>
      <trkpt lat="47.8649330" lon="2.1215770">
        <ele>88.6</ele>
        <time>2020-07-02T14:39:50Z</time>
      </trkpt>
      <trkpt lat="47.8649310" lon="2.1215780">
        <ele>88.4</ele>
        <time>2020-07-02T14:40:28Z</time>
      </trkpt>
      <trkpt lat="47.8649310" lon="2.1215820">
        <ele>88.6</ele>
        <time>2020-07-02T14:41:05Z</time>
      </trkpt>
      <trkpt lat="47.8649310" lon="2.1215820">
        <ele>88.4</ele>
        <time>2020-07-02T14:41:31Z</time>
      </trkpt>
      <trkpt lat="47.8649310" lon="2.1215790">
        <ele>88.4</ele>
        <time>2020-07-02T14:41:57Z</time>
      </trkpt>
      <trkpt lat="47.8649340" lon="2.1215810">
        <ele>88.6</ele>
        <time>2020-07-02T14:42:34Z</time>
      </trkpt>
      <trkpt lat="47.8649280" lon="2.1215730">
        <ele>88.6</ele>
        <time>2020-07-02T14:42:56Z</time>
      </trkpt>
      <trkpt lat="47.8649280" lon="2.1215710">
        <ele>88.6</ele>
        <time>2020-07-02T14:42:57Z</time>
      </trkpt>
      <trkpt lat="47.8649200" lon="2.1215540">
        <ele>88.4</ele>
        <time>2020-07-02T14:43:15Z</time>
      </trkpt>
      <trkpt lat="47.8649260" lon="2.1215540">
        <ele>88.6</ele>
        <time>2020-07-02T14:43:29Z</time>
      </trkpt>
      <trkpt lat="47.8649280" lon="2.1215370">
        <ele>88.6</ele>
        <time>2020-07-02T14:43:45Z</time>
      </trkpt>
      <trkpt lat="47.8649370" lon="2.1215420">
        <ele>88.6</ele>
        <time>2020-07-02T14:44:02Z</time>
      </trkpt>
      <trkpt lat="47.8649490" lon="2.1215430">
        <ele>88.6</ele>
        <time>2020-07-02T14:44:16Z</time>
      </trkpt>
      <trkpt lat="47.8649850" lon="2.1215380">
        <ele>88.8</ele>
        <time>2020-07-02T14:44:29Z</time>
      </trkpt>
      <trkpt lat="47.8650290" lon="2.1215450">
        <ele>88.6</ele>
        <time>2020-07-02T14:44:39Z</time>
      </trkpt>
      <trkpt lat="47.8650450" lon="2.1215140">
        <ele>88.6</ele>
        <time>2020-07-02T14:44:41Z</time>
      </trkpt>
      <trkpt lat="47.8650840" lon="2.1214790">
        <ele>88.6</ele>
        <time>2020-07-02T14:44:46Z</time>
      </trkpt>
      <trkpt lat="47.8650610" lon="2.1215120">
        <ele>88.6</ele>
        <time>2020-07-02T14:44:50Z</time>
      </trkpt>
      <trkpt lat="47.8650510" lon="2.1215670">
        <ele>88.4</ele>
        <time>2020-07-02T14:44:53Z</time>
      </trkpt>
      <trkpt lat="47.8650850" lon="2.1217120">
        <ele>88.4</ele>
        <time>2020-07-02T14:45:00Z</time>
      </trkpt>
      <trkpt lat="47.8651010" lon="2.1218150">
        <ele>88.4</ele>
        <time>2020-07-02T14:45:08Z</time>
      </trkpt>
      <trkpt lat="47.8651350" lon="2.1220200">
        <ele>88.2</ele>
        <time>2020-07-02T14:45:13Z</time>
      </trkpt>
      <trkpt lat="47.8652340" lon="2.1225260">
        <ele>88.2</ele>
        <time>2020-07-02T14:45:22Z</time>
      </trkpt>
      <trkpt lat="47.8653890" lon="2.1228890">
        <ele>87.4</ele>
        <time>2020-07-02T14:45:30Z</time>
      </trkpt>
      <trkpt lat="47.8656050" lon="2.1231640">
        <ele>87.4</ele>
        <time>2020-07-02T14:45:39Z</time>
      </trkpt>
      <trkpt lat="47.8657870" lon="2.1233510">
        <ele>87.6</ele>
        <time>2020-07-02T14:45:47Z</time>
      </trkpt>
      <trkpt lat="47.8659120" lon="2.1234090">
        <ele>88.0</ele>
        <time>2020-07-02T14:45:54Z</time>
      </trkpt>
      <trkpt lat="47.8660910" lon="2.1235470">
        <ele>88.0</ele>
        <time>2020-07-02T14:46:02Z</time>
      </trkpt>
      <trkpt lat="47.8663800" lon="2.1237160">
        <ele>88.0</ele>
        <time>2020-07-02T14:46:12Z</time>
      </trkpt>
      <trkpt lat="47.8665680" lon="2.1238120">
        <ele>88.0</ele>
        <time>2020-07-02T14:46:18Z</time>
      </trkpt>
      <trkpt lat="47.8667770" lon="2.1239120">
        <ele>88.2</ele>
        <time>2020-07-02T14:46:24Z</time>
      </trkpt>
      <trkpt lat="47.8668130" lon="2.1239340">
        <ele>88.2</ele>
        <time>2020-07-02T14:46:25Z</time>
      </trkpt>
      <trkpt lat="47.8670540" lon="2.1240990">
        <ele>88.4</ele>
        <time>2020-07-02T14:46:32Z</time>
      </trkpt>
      <trkpt lat="47.8672650" lon="2.1242270">
        <ele>88.8</ele>
        <time>2020-07-02T14:46:39Z</time>
      </trkpt>
      <trkpt lat="47.8672660" lon="2.1243900">
        <ele>89.4</ele>
        <time>2020-07-02T14:46:43Z</time>
      </trkpt>
      <trkpt lat="47.8672520" lon="2.1244590">
        <ele>89.4</ele>
        <time>2020-07-02T14:46:45Z</time>
      </trkpt>
      <trkpt lat="47.8672320" lon="2.1245800">
        <ele>89.4</ele>
        <time>2020-07-02T14:46:50Z</time>
      </trkpt>
      <trkpt lat="47.8672310" lon="2.1245850">
        <ele>89.4</ele>
        <time>2020-07-02T14:46:51Z</time>
      </trkpt>
      <trkpt lat="47.8672250" lon="2.1245870">
        <ele>89.6</ele>
        <time>2020-07-02T14:46:53Z</time>
      </trkpt>
      <trkpt lat="47.8672220" lon="2.1245870">
        <ele>89.6</ele>
        <time>2020-07-02T14:46:54Z</time>
      </trkpt>
      <trkpt lat="47.8672210" lon="2.1245870">
        <ele>89.6</ele>
        <time>2020-07-02T14:46:57Z</time>
      </trkpt>
      <trkpt lat="47.8672200" lon="2.1245860">
        <ele>89.6</ele>
        <time>2020-07-02T14:46:58Z</time>
      </trkpt>
      <trkpt lat="47.8672200" lon="2.1245860">
        <ele>89.6</ele>
        <time>2020-07-02T14:46:59Z</time>
      </trkpt>
      <trkpt lat="47.8672200" lon="2.1245860">
        <ele>89.6</ele>
        <time>2020-07-02T14:47:00Z</time>
      </trkpt>
      <trkpt lat="47.8672160" lon="2.1246320">
        <ele>89.4</ele>
        <time>2020-07-02T14:47:21Z</time>
      </trkpt>
      <trkpt lat="47.8672080" lon="2.1247990">
        <ele>89.6</ele>
        <time>2020-07-02T14:47:28Z</time>
      </trkpt>
      <trkpt lat="47.8671630" lon="2.1251510">
        <ele>89.6</ele>
        <time>2020-07-02T14:47:37Z</time>
      </trkpt>
      <trkpt lat="47.8670720" lon="2.1256600">
        <ele>89.8</ele>
        <time>2020-07-02T14:47:48Z</time>
      </trkpt>
      <trkpt lat="47.8670660" lon="2.1256980">
        <ele>89.8</ele>
        <time>2020-07-02T14:47:49Z</time>
      </trkpt>
      <trkpt lat="47.8670760" lon="2.1258470">
        <ele>90.0</ele>
        <time>2020-07-02T14:47:54Z</time>
      </trkpt>
      <trkpt lat="47.8670760" lon="2.1260060">
        <ele>90.2</ele>
        <time>2020-07-02T14:48:01Z</time>
      </trkpt>
      <trkpt lat="47.8670740" lon="2.1260520">
        <ele>90.2</ele>
        <time>2020-07-02T14:48:08Z</time>
      </trkpt>
      <trkpt lat="47.8670540" lon="2.1261860">
        <ele>90.4</ele>
        <time>2020-07-02T14:48:15Z</time>
      </trkpt>
      <trkpt lat="47.8670240" lon="2.1264550">
        <ele>90.4</ele>
        <time>2020-07-02T14:48:21Z</time>
      </trkpt>
      <trkpt lat="47.8669490" lon="2.1270210">
        <ele>90.2</ele>
        <time>2020-07-02T14:48:31Z</time>
      </trkpt>
      <trkpt lat="47.8668370" lon="2.1272610">
        <ele>90.4</ele>
        <time>2020-07-02T14:48:37Z</time>
      </trkpt>
      <trkpt lat="47.8666430" lon="2.1276520">
        <ele>91.2</ele>
        <time>2020-07-02T14:48:46Z</time>
      </trkpt>
      <trkpt lat="47.8664160" lon="2.1280460">
        <ele>91.6</ele>
        <time>2020-07-02T14:48:55Z</time>
      </trkpt>
      <trkpt lat="47.8661320" lon="2.1285220">
        <ele>91.2</ele>
        <time>2020-07-02T14:49:05Z</time>
      </trkpt>
      <trkpt lat="47.8660650" lon="2.1286280">
        <ele>91.0</ele>
        <time>2020-07-02T14:49:07Z</time>
      </trkpt>
      <trkpt lat="47.8657950" lon="2.1290120">
        <ele>90.6</ele>
        <time>2020-07-02T14:49:14Z</time>
      </trkpt>
      <trkpt lat="47.8654480" lon="2.1293930">
        <ele>90.6</ele>
        <time>2020-07-02T14:49:22Z</time>
      </trkpt>
      <trkpt lat="47.8653580" lon="2.1294830">
        <ele>90.4</ele>
        <time>2020-07-02T14:49:24Z</time>
      </trkpt>
      <trkpt lat="47.8649420" lon="2.1300030">
        <ele>90.6</ele>
        <time>2020-07-02T14:49:34Z</time>
      </trkpt>
      <trkpt lat="47.8645510" lon="2.1306120">
        <ele>90.6</ele>
        <time>2020-07-02T14:49:44Z</time>
      </trkpt>
      <trkpt lat="47.8645130" lon="2.1306730">
        <ele>90.6</ele>
        <time>2020-07-02T14:49:45Z</time>
      </trkpt>
      <trkpt lat="47.8642950" lon="2.1310400">
        <ele>90.8</ele>
        <time>2020-07-02T14:49:51Z</time>
      </trkpt>
      <trkpt lat="47.8642580" lon="2.1311000">
        <ele>90.8</ele>
        <time>2020-07-02T14:49:52Z</time>
      </trkpt>
      <trkpt lat="47.8640880" lon="2.1313950">
        <ele>90.8</ele>
        <time>2020-07-02T14:49:57Z</time>
      </trkpt>
      <trkpt lat="47.8639510" lon="2.1316850">
        <ele>91.2</ele>
        <time>2020-07-02T14:50:02Z</time>
      </trkpt>
      <trkpt lat="47.8638870" lon="2.1318860">
        <ele>91.4</ele>
        <time>2020-07-02T14:50:05Z</time>
      </trkpt>
      <trkpt lat="47.8636370" lon="2.1324700">
        <ele>91.2</ele>
        <time>2020-07-02T14:50:14Z</time>
      </trkpt>
      <trkpt lat="47.8634870" lon="2.1327100">
        <ele>91.2</ele>
        <time>2020-07-02T14:50:18Z</time>
      </trkpt>
      <trkpt lat="47.8633600" lon="2.1328630">
        <ele>91.0</ele>
        <time>2020-07-02T14:50:21Z</time>
      </trkpt>
      <trkpt lat="47.8630980" lon="2.1332070">
        <ele>91.0</ele>
        <time>2020-07-02T14:50:27Z</time>
      </trkpt>
      <trkpt lat="47.8626370" lon="2.1337420">
        <ele>91.0</ele>
        <time>2020-07-02T14:50:37Z</time>
      </trkpt>
      <trkpt lat="47.8622620" lon="2.1341580">
        <ele>91.4</ele>
        <time>2020-07-02T14:50:46Z</time>
      </trkpt>
      <trkpt lat="47.8617960" lon="2.1346610">
        <ele>91.4</ele>
        <time>2020-07-02T14:50:57Z</time>
      </trkpt>
      <trkpt lat="47.8614580" lon="2.1350570">
        <ele>91.6</ele>
        <time>2020-07-02T14:51:06Z</time>
      </trkpt>
      <trkpt lat="47.8610030" lon="2.1355930">
        <ele>91.4</ele>
        <time>2020-07-02T14:51:18Z</time>
      </trkpt>
      <trkpt lat="47.8608090" lon="2.1358340">
        <ele>91.2</ele>
        <time>2020-07-02T14:51:23Z</time>
      </trkpt>
      <trkpt lat="47.8606940" lon="2.1359720">
        <ele>91.0</ele>
        <time>2020-07-02T14:51:26Z</time>
      </trkpt>
      <trkpt lat="47.8606170" lon="2.1360690">
        <ele>91.0</ele>
        <time>2020-07-02T14:51:28Z</time>
      </trkpt>
      <trkpt lat="47.8605000" lon="2.1362130">
        <ele>90.8</ele>
        <time>2020-07-02T14:51:31Z</time>
      </trkpt>
      <trkpt lat="47.8601960" lon="2.1366270">
        <ele>90.8</ele>
        <time>2020-07-02T14:51:39Z</time>
      </trkpt>
      <trkpt lat="47.8601580" lon="2.1366810">
        <ele>90.8</ele>
        <time>2020-07-02T14:51:40Z</time>
      </trkpt>
      <trkpt lat="47.8596950" lon="2.1372270">
        <ele>91.2</ele>
        <time>2020-07-02T14:51:51Z</time>
      </trkpt>
      <trkpt lat="47.8595090" lon="2.1374300">
        <ele>91.4</ele>
        <time>2020-07-02T14:51:55Z</time>
      </trkpt>
      <trkpt lat="47.8594640" lon="2.1374790">
        <ele>91.4</ele>
        <time>2020-07-02T14:51:56Z</time>
      </trkpt>
      <trkpt lat="47.8590740" lon="2.1379200">
        <ele>91.4</ele>
        <time>2020-07-02T14:52:05Z</time>
      </trkpt>
      <trkpt lat="47.8587720" lon="2.1382810">
        <ele>91.6</ele>
        <time>2020-07-02T14:52:14Z</time>
      </trkpt>
      <trkpt lat="47.8584460" lon="2.1386780">
        <ele>91.4</ele>
        <time>2020-07-02T14:52:24Z</time>
      </trkpt>
      <trkpt lat="47.8579970" lon="2.1392310">
        <ele>91.4</ele>
        <time>2020-07-02T14:52:36Z</time>
      </trkpt>
      <trkpt lat="47.8579240" lon="2.1393180">
        <ele>91.2</ele>
        <time>2020-07-02T14:52:38Z</time>
      </trkpt>
      <trkpt lat="47.8574740" lon="2.1398620">
        <ele>91.8</ele>
        <time>2020-07-02T14:52:50Z</time>
      </trkpt>
      <trkpt lat="47.8573620" lon="2.1400010">
        <ele>91.8</ele>
        <time>2020-07-02T14:52:53Z</time>
      </trkpt>
      <trkpt lat="47.8571010" lon="2.1403340">
        <ele>92.2</ele>
        <time>2020-07-02T14:53:01Z</time>
      </trkpt>
      <trkpt lat="47.8570430" lon="2.1403450">
        <ele>92.0</ele>
        <time>2020-07-02T14:53:03Z</time>
      </trkpt>
      <trkpt lat="47.8570050" lon="2.1402950">
        <ele>92.0</ele>
        <time>2020-07-02T14:53:05Z</time>
      </trkpt>
      <trkpt lat="47.8569360" lon="2.1400020">
        <ele>91.8</ele>
        <time>2020-07-02T14:53:10Z</time>
      </trkpt>
      <trkpt lat="47.8569150" lon="2.1399270">
        <ele>91.8</ele>
        <time>2020-07-02T14:53:11Z</time>
      </trkpt>
      <trkpt lat="47.8568680" lon="2.1397690">
        <ele>91.6</ele>
        <time>2020-07-02T14:53:13Z</time>
      </trkpt>
      <trkpt lat="47.8567960" lon="2.1395190">
        <ele>90.8</ele>
        <time>2020-07-02T14:53:16Z</time>
      </trkpt>
      <trkpt lat="47.8567700" lon="2.1394320">
        <ele>90.4</ele>
        <time>2020-07-02T14:53:17Z</time>
      </trkpt>
      <trkpt lat="47.8565950" lon="2.1387690">
        <ele>87.8</ele>
        <time>2020-07-02T14:53:25Z</time>
      </trkpt>
      <trkpt lat="47.8564190" lon="2.1380420">
        <ele>87.4</ele>
        <time>2020-07-02T14:53:35Z</time>
      </trkpt>
      <trkpt lat="47.8564050" lon="2.1379960">
        <ele>87.2</ele>
        <time>2020-07-02T14:53:36Z</time>
      </trkpt>
      <trkpt lat="47.8563480" lon="2.1379390">
        <ele>87.6</ele>
        <time>2020-07-02T14:53:40Z</time>
      </trkpt>
      <trkpt lat="47.8562280" lon="2.1380500">
        <ele>88.2</ele>
        <time>2020-07-02T14:53:45Z</time>
      </trkpt>
      <trkpt lat="47.8560290" lon="2.1382960">
        <ele>88.4</ele>
        <time>2020-07-02T14:53:51Z</time>
      </trkpt>
      <trkpt lat="47.8557230" lon="2.1387170">
        <ele>88.2</ele>
        <time>2020-07-02T14:53:59Z</time>
      </trkpt>
      <trkpt lat="47.8556820" lon="2.1387720">
        <ele>88.2</ele>
        <time>2020-07-02T14:54:00Z</time>
      </trkpt>
      <trkpt lat="47.8552400" lon="2.1393320">
        <ele>87.6</ele>
        <time>2020-07-02T14:54:11Z</time>
      </trkpt>
      <trkpt lat="47.8550410" lon="2.1396010">
        <ele>87.8</ele>
        <time>2020-07-02T14:54:16Z</time>
      </trkpt>
      <trkpt lat="47.8549330" lon="2.1397760">
        <ele>87.8</ele>
        <time>2020-07-02T14:54:19Z</time>
      </trkpt>
      <trkpt lat="47.8546550" lon="2.1402690">
        <ele>88.0</ele>
        <time>2020-07-02T14:54:27Z</time>
      </trkpt>
      <trkpt lat="47.8542780" lon="2.1409430">
        <ele>88.2</ele>
        <time>2020-07-02T14:54:38Z</time>
      </trkpt>
      <trkpt lat="47.8542050" lon="2.1410660">
        <ele>88.0</ele>
        <time>2020-07-02T14:54:40Z</time>
      </trkpt>
      <trkpt lat="47.8541670" lon="2.1411260">
        <ele>87.8</ele>
        <time>2020-07-02T14:54:41Z</time>
      </trkpt>
      <trkpt lat="47.8540960" lon="2.1412530">
        <ele>88.0</ele>
        <time>2020-07-02T14:54:43Z</time>
      </trkpt>
      <trkpt lat="47.8537800" lon="2.1417740">
        <ele>87.8</ele>
        <time>2020-07-02T14:54:51Z</time>
      </trkpt>
      <trkpt lat="47.8533860" lon="2.1423170">
        <ele>87.4</ele>
        <time>2020-07-02T14:55:00Z</time>
      </trkpt>
      <trkpt lat="47.8529430" lon="2.1429040">
        <ele>87.4</ele>
        <time>2020-07-02T14:55:10Z</time>
      </trkpt>
      <trkpt lat="47.8528990" lon="2.1429630">
        <ele>87.2</ele>
        <time>2020-07-02T14:55:11Z</time>
      </trkpt>
      <trkpt lat="47.8524890" lon="2.1434880">
        <ele>87.4</ele>
        <time>2020-07-02T14:55:20Z</time>
      </trkpt>
      <trkpt lat="47.8523920" lon="2.1435980">
        <ele>87.4</ele>
        <time>2020-07-02T14:55:22Z</time>
      </trkpt>
      <trkpt lat="47.8523470" lon="2.1436560">
        <ele>87.4</ele>
        <time>2020-07-02T14:55:23Z</time>
      </trkpt>
      <trkpt lat="47.8519310" lon="2.1441170">
        <ele>87.6</ele>
        <time>2020-07-02T14:55:32Z</time>
      </trkpt>
      <trkpt lat="47.8518900" lon="2.1441640">
        <ele>87.4</ele>
        <time>2020-07-02T14:55:33Z</time>
      </trkpt>
      <trkpt lat="47.8516160" lon="2.1445310">
        <ele>87.8</ele>
        <time>2020-07-02T14:55:41Z</time>
      </trkpt>
      <trkpt lat="47.8515000" lon="2.1446940">
        <ele>88.2</ele>
        <time>2020-07-02T14:55:44Z</time>
      </trkpt>
      <trkpt lat="47.8513350" lon="2.1449200">
        <ele>88.2</ele>
        <time>2020-07-02T14:55:48Z</time>
      </trkpt>
      <trkpt lat="47.8509190" lon="2.1455040">
        <ele>87.6</ele>
        <time>2020-07-02T14:55:58Z</time>
      </trkpt>
      <trkpt lat="47.8508410" lon="2.1456250">
        <ele>87.4</ele>
        <time>2020-07-02T14:56:00Z</time>
      </trkpt>
      <trkpt lat="47.8508030" lon="2.1456850">
        <ele>87.4</ele>
        <time>2020-07-02T14:56:01Z</time>
      </trkpt>
      <trkpt lat="47.8504100" lon="2.1463280">
        <ele>87.2</ele>
        <time>2020-07-02T14:56:12Z</time>
      </trkpt>
      <trkpt lat="47.8503720" lon="2.1463840">
        <ele>87.2</ele>
        <time>2020-07-02T14:56:13Z</time>
      </trkpt>
      <trkpt lat="47.8500440" lon="2.1469470">
        <ele>87.8</ele>
        <time>2020-07-02T14:56:23Z</time>
      </trkpt>
      <trkpt lat="47.8498350" lon="2.1474820">
        <ele>88.0</ele>
        <time>2020-07-02T14:56:30Z</time>
      </trkpt>
      <trkpt lat="47.8497070" lon="2.1481980">
        <ele>88.0</ele>
        <time>2020-07-02T14:56:38Z</time>
      </trkpt>
      <trkpt lat="47.8496960" lon="2.1488890">
        <ele>88.0</ele>
        <time>2020-07-02T14:56:46Z</time>
      </trkpt>
      <trkpt lat="47.8497310" lon="2.1497210">
        <ele>88.0</ele>
        <time>2020-07-02T14:56:55Z</time>
      </trkpt>
      <trkpt lat="47.8497370" lon="2.1499050">
        <ele>88.0</ele>
        <time>2020-07-02T14:56:57Z</time>
      </trkpt>
      <trkpt lat="47.8497440" lon="2.1506920">
        <ele>88.0</ele>
        <time>2020-07-02T14:57:06Z</time>
      </trkpt>
      <trkpt lat="47.8496590" lon="2.1515050">
        <ele>88.0</ele>
        <time>2020-07-02T14:57:16Z</time>
      </trkpt>
      <trkpt lat="47.8496360" lon="2.1516610">
        <ele>88.2</ele>
        <time>2020-07-02T14:57:18Z</time>
      </trkpt>
      <trkpt lat="47.8496120" lon="2.1521450">
        <ele>88.4</ele>
        <time>2020-07-02T14:57:24Z</time>
      </trkpt>
      <trkpt lat="47.8497200" lon="2.1526330">
        <ele>88.6</ele>
        <time>2020-07-02T14:57:30Z</time>
      </trkpt>
      <trkpt lat="47.8499170" lon="2.1534510">
        <ele>88.6</ele>
        <time>2020-07-02T14:57:40Z</time>
      </trkpt>
      <trkpt lat="47.8500860" lon="2.1542560">
        <ele>88.4</ele>
        <time>2020-07-02T14:57:50Z</time>
      </trkpt>
      <trkpt lat="47.8500970" lon="2.1543370">
        <ele>88.4</ele>
        <time>2020-07-02T14:57:51Z</time>
      </trkpt>
      <trkpt lat="47.8501180" lon="2.1545820">
        <ele>88.4</ele>
        <time>2020-07-02T14:57:54Z</time>
      </trkpt>
      <trkpt lat="47.8501460" lon="2.1548370">
        <ele>88.4</ele>
        <time>2020-07-02T14:57:58Z</time>
      </trkpt>
      <trkpt lat="47.8501700" lon="2.1550230">
        <ele>88.4</ele>
        <time>2020-07-02T14:58:03Z</time>
      </trkpt>
      <trkpt lat="47.8501760" lon="2.1550590">
        <ele>88.8</ele>
        <time>2020-07-02T14:58:04Z</time>
      </trkpt>
      <trkpt lat="47.8502210" lon="2.1553900">
        <ele>91.4</ele>
        <time>2020-07-02T14:58:11Z</time>
      </trkpt>
      <trkpt lat="47.8502800" lon="2.1559900">
        <ele>92.0</ele>
        <time>2020-07-02T14:58:23Z</time>
      </trkpt>
      <trkpt lat="47.8503020" lon="2.1564590">
        <ele>92.0</ele>
        <time>2020-07-02T14:58:31Z</time>
      </trkpt>
      <trkpt lat="47.8502550" lon="2.1571320">
        <ele>91.8</ele>
        <time>2020-07-02T14:58:40Z</time>
      </trkpt>
      <trkpt lat="47.8501920" lon="2.1579500">
        <ele>91.6</ele>
        <time>2020-07-02T14:58:50Z</time>
      </trkpt>
      <trkpt lat="47.8501850" lon="2.1580340">
        <ele>91.8</ele>
        <time>2020-07-02T14:58:51Z</time>
      </trkpt>
      <trkpt lat="47.8501050" lon="2.1588790">
        <ele>91.6</ele>
        <time>2020-07-02T14:59:01Z</time>
      </trkpt>
      <trkpt lat="47.8500780" lon="2.1590500">
        <ele>91.4</ele>
        <time>2020-07-02T14:59:03Z</time>
      </trkpt>
      <trkpt lat="47.8498920" lon="2.1597950">
        <ele>91.2</ele>
        <time>2020-07-02T14:59:12Z</time>
      </trkpt>
      <trkpt lat="47.8498460" lon="2.1599620">
        <ele>91.4</ele>
        <time>2020-07-02T14:59:14Z</time>
      </trkpt>
      <trkpt lat="47.8497810" lon="2.1602130">
        <ele>91.2</ele>
        <time>2020-07-02T14:59:17Z</time>
      </trkpt>
      <trkpt lat="47.8495880" lon="2.1610220">
        <ele>91.4</ele>
        <time>2020-07-02T14:59:27Z</time>
      </trkpt>
      <trkpt lat="47.8495680" lon="2.1611030">
        <ele>91.4</ele>
        <time>2020-07-02T14:59:28Z</time>
      </trkpt>
      <trkpt lat="47.8493740" lon="2.1618990">
        <ele>91.4</ele>
        <time>2020-07-02T14:59:38Z</time>
      </trkpt>
      <trkpt lat="47.8492910" lon="2.1622140">
        <ele>91.4</ele>
        <time>2020-07-02T14:59:42Z</time>
      </trkpt>
      <trkpt lat="47.8491020" lon="2.1630290">
        <ele>91.6</ele>
        <time>2020-07-02T14:59:52Z</time>
      </trkpt>
      <trkpt lat="47.8490630" lon="2.1631970">
        <ele>91.6</ele>
        <time>2020-07-02T14:59:54Z</time>
      </trkpt>
      <trkpt lat="47.8489030" lon="2.1639690">
        <ele>91.6</ele>
        <time>2020-07-02T15:00:03Z</time>
      </trkpt>
      <trkpt lat="47.8488400" lon="2.1643200">
        <ele>91.8</ele>
        <time>2020-07-02T15:00:07Z</time>
      </trkpt>
      <trkpt lat="47.8487890" lon="2.1645920">
        <ele>91.4</ele>
        <time>2020-07-02T15:00:10Z</time>
      </trkpt>
      <trkpt lat="47.8486460" lon="2.1653980">
        <ele>91.4</ele>
        <time>2020-07-02T15:00:19Z</time>
      </trkpt>
      <trkpt lat="47.8486140" lon="2.1655740">
        <ele>91.6</ele>
        <time>2020-07-02T15:00:21Z</time>
      </trkpt>
      <trkpt lat="47.8485690" lon="2.1658320">
        <ele>91.4</ele>
        <time>2020-07-02T15:00:24Z</time>
      </trkpt>
      <trkpt lat="47.8484290" lon="2.1666800">
        <ele>91.4</ele>
        <time>2020-07-02T15:00:34Z</time>
      </trkpt>
      <trkpt lat="47.8483520" lon="2.1671210">
        <ele>91.4</ele>
        <time>2020-07-02T15:00:39Z</time>
      </trkpt>
      <trkpt lat="47.8482160" lon="2.1679810">
        <ele>91.6</ele>
        <time>2020-07-02T15:00:49Z</time>
      </trkpt>
      <trkpt lat="47.8481810" lon="2.1682470">
        <ele>91.4</ele>
        <time>2020-07-02T15:00:52Z</time>
      </trkpt>
      <trkpt lat="47.8481100" lon="2.1690520">
        <ele>91.6</ele>
        <time>2020-07-02T15:01:01Z</time>
      </trkpt>
      <trkpt lat="47.8480990" lon="2.1693200">
        <ele>91.6</ele>
        <time>2020-07-02T15:01:04Z</time>
      </trkpt>
      <trkpt lat="47.8480670" lon="2.1701870">
        <ele>92.0</ele>
        <time>2020-07-02T15:01:14Z</time>
      </trkpt>
      <trkpt lat="47.8480520" lon="2.1705480">
        <ele>92.0</ele>
        <time>2020-07-02T15:01:18Z</time>
      </trkpt>
      <trkpt lat="47.8480350" lon="2.1713670">
        <ele>92.2</ele>
        <time>2020-07-02T15:01:27Z</time>
      </trkpt>
      <trkpt lat="47.8480430" lon="2.1716240">
        <ele>92.0</ele>
        <time>2020-07-02T15:01:30Z</time>
      </trkpt>
      <trkpt lat="47.8480660" lon="2.1719750">
        <ele>92.2</ele>
        <time>2020-07-02T15:01:34Z</time>
      </trkpt>
      <trkpt lat="47.8481350" lon="2.1727850">
        <ele>92.2</ele>
        <time>2020-07-02T15:01:43Z</time>
      </trkpt>
      <trkpt lat="47.8481810" lon="2.1734210">
        <ele>92.2</ele>
        <time>2020-07-02T15:01:50Z</time>
      </trkpt>
      <trkpt lat="47.8482110" lon="2.1738820">
        <ele>92.2</ele>
        <time>2020-07-02T15:01:55Z</time>
      </trkpt>
      <trkpt lat="47.8482210" lon="2.1740710">
        <ele>92.0</ele>
        <time>2020-07-02T15:01:57Z</time>
      </trkpt>
      <trkpt lat="47.8482400" lon="2.1744370">
        <ele>92.0</ele>
        <time>2020-07-02T15:02:01Z</time>
      </trkpt>
      <trkpt lat="47.8482370" lon="2.1750760">
        <ele>92.0</ele>
        <time>2020-07-02T15:02:08Z</time>
      </trkpt>
      <trkpt lat="47.8481870" lon="2.1759330">
        <ele>92.0</ele>
        <time>2020-07-02T15:02:17Z</time>
      </trkpt>
      <trkpt lat="47.8481680" lon="2.1762400">
        <ele>92.2</ele>
        <time>2020-07-02T15:02:20Z</time>
      </trkpt>
      <trkpt lat="47.8481340" lon="2.1767440">
        <ele>92.2</ele>
        <time>2020-07-02T15:02:25Z</time>
      </trkpt>
      <trkpt lat="47.8480690" lon="2.1776090">
        <ele>91.6</ele>
        <time>2020-07-02T15:02:34Z</time>
      </trkpt>
      <trkpt lat="47.8479210" lon="2.1784100">
        <ele>91.2</ele>
        <time>2020-07-02T15:02:43Z</time>
      </trkpt>
      <trkpt lat="47.8477290" lon="2.1788840">
        <ele>91.4</ele>
        <time>2020-07-02T15:02:49Z</time>
      </trkpt>
      <trkpt lat="47.8474490" lon="2.1792630">
        <ele>91.6</ele>
        <time>2020-07-02T15:02:55Z</time>
      </trkpt>
      <trkpt lat="47.8473940" lon="2.1793040">
        <ele>91.6</ele>
        <time>2020-07-02T15:02:56Z</time>
      </trkpt>
      <trkpt lat="47.8473360" lon="2.1793300">
        <ele>91.4</ele>
        <time>2020-07-02T15:02:57Z</time>
      </trkpt>
      <trkpt lat="47.8472320" lon="2.1793330">
        <ele>91.2</ele>
        <time>2020-07-02T15:02:59Z</time>
      </trkpt>
      <trkpt lat="47.8471790" lon="2.1793070">
        <ele>91.4</ele>
        <time>2020-07-02T15:03:00Z</time>
      </trkpt>
      <trkpt lat="47.8469490" lon="2.1791840">
        <ele>91.2</ele>
        <time>2020-07-02T15:03:04Z</time>
      </trkpt>
      <trkpt lat="47.8467080" lon="2.1791220">
        <ele>90.8</ele>
        <time>2020-07-02T15:03:08Z</time>
      </trkpt>
      <trkpt lat="47.8465980" lon="2.1791360">
        <ele>90.8</ele>
        <time>2020-07-02T15:03:10Z</time>
      </trkpt>
      <trkpt lat="47.8463330" lon="2.1792790">
        <ele>90.6</ele>
        <time>2020-07-02T15:03:15Z</time>
      </trkpt>
      <trkpt lat="47.8461320" lon="2.1795350">
        <ele>90.6</ele>
        <time>2020-07-02T15:03:20Z</time>
      </trkpt>
      <trkpt lat="47.8460720" lon="2.1796870">
        <ele>91.0</ele>
        <time>2020-07-02T15:03:22Z</time>
      </trkpt>
      <trkpt lat="47.8459900" lon="2.1799340">
        <ele>91.2</ele>
        <time>2020-07-02T15:03:25Z</time>
      </trkpt>
      <trkpt lat="47.8459140" lon="2.1804870">
        <ele>91.4</ele>
        <time>2020-07-02T15:03:31Z</time>
      </trkpt>
      <trkpt lat="47.8459610" lon="2.1809580">
        <ele>91.8</ele>
        <time>2020-07-02T15:03:36Z</time>
      </trkpt>
      <trkpt lat="47.8461030" lon="2.1818150">
        <ele>92.2</ele>
        <time>2020-07-02T15:03:45Z</time>
      </trkpt>
      <trkpt lat="47.8461650" lon="2.1822020">
        <ele>92.2</ele>
        <time>2020-07-02T15:03:49Z</time>
      </trkpt>
      <trkpt lat="47.8461960" lon="2.1827870">
        <ele>92.2</ele>
        <time>2020-07-02T15:03:55Z</time>
      </trkpt>
      <trkpt lat="47.8460900" lon="2.1835630">
        <ele>92.2</ele>
        <time>2020-07-02T15:04:03Z</time>
      </trkpt>
      <trkpt lat="47.8459680" lon="2.1844190">
        <ele>92.0</ele>
        <time>2020-07-02T15:04:12Z</time>
      </trkpt>
      <trkpt lat="47.8459070" lon="2.1848910">
        <ele>92.0</ele>
        <time>2020-07-02T15:04:17Z</time>
      </trkpt>
      <trkpt lat="47.8458640" lon="2.1857420">
        <ele>92.0</ele>
        <time>2020-07-02T15:04:26Z</time>
      </trkpt>
      <trkpt lat="47.8458650" lon="2.1858370">
        <ele>92.0</ele>
        <time>2020-07-02T15:04:27Z</time>
      </trkpt>
      <trkpt lat="47.8458640" lon="2.1867020">
        <ele>92.4</ele>
        <time>2020-07-02T15:04:36Z</time>
      </trkpt>
      <trkpt lat="47.8458450" lon="2.1871850">
        <ele>92.6</ele>
        <time>2020-07-02T15:04:41Z</time>
      </trkpt>
      <trkpt lat="47.8457900" lon="2.1880410">
        <ele>92.4</ele>
        <time>2020-07-02T15:04:50Z</time>
      </trkpt>
      <trkpt lat="47.8457550" lon="2.1885990">
        <ele>91.8</ele>
        <time>2020-07-02T15:04:56Z</time>
      </trkpt>
      <trkpt lat="47.8457810" lon="2.1894540">
        <ele>91.8</ele>
        <time>2020-07-02T15:05:05Z</time>
      </trkpt>
      <trkpt lat="47.8458360" lon="2.1903090">
        <ele>92.0</ele>
        <time>2020-07-02T15:05:14Z</time>
      </trkpt>
      <trkpt lat="47.8458820" lon="2.1909850">
        <ele>92.0</ele>
        <time>2020-07-02T15:05:21Z</time>
      </trkpt>
      <trkpt lat="47.8459480" lon="2.1918630">
        <ele>92.0</ele>
        <time>2020-07-02T15:05:30Z</time>
      </trkpt>
      <trkpt lat="47.8459730" lon="2.1922300">
        <ele>92.0</ele>
        <time>2020-07-02T15:05:34Z</time>
      </trkpt>
      <trkpt lat="47.8460150" lon="2.1926900">
        <ele>92.0</ele>
        <time>2020-07-02T15:05:39Z</time>
      </trkpt>
      <trkpt lat="47.8460250" lon="2.1927830">
        <ele>92.0</ele>
        <time>2020-07-02T15:05:40Z</time>
      </trkpt>
      <trkpt lat="47.8460360" lon="2.1928760">
        <ele>92.0</ele>
        <time>2020-07-02T15:05:41Z</time>
      </trkpt>
      <trkpt lat="47.8460890" lon="2.1933470">
        <ele>92.0</ele>
        <time>2020-07-02T15:05:46Z</time>
      </trkpt>
      <trkpt lat="47.8460990" lon="2.1934400">
        <ele>92.0</ele>
        <time>2020-07-02T15:05:47Z</time>
      </trkpt>
      <trkpt lat="47.8462280" lon="2.1942710">
        <ele>92.2</ele>
        <time>2020-07-02T15:05:56Z</time>
      </trkpt>
      <trkpt lat="47.8462460" lon="2.1943640">
        <ele>92.2</ele>
        <time>2020-07-02T15:05:57Z</time>
      </trkpt>
      <trkpt lat="47.8464380" lon="2.1952080">
        <ele>92.6</ele>
        <time>2020-07-02T15:06:06Z</time>
      </trkpt>
      <trkpt lat="47.8465210" lon="2.1955810">
        <ele>92.4</ele>
        <time>2020-07-02T15:06:10Z</time>
      </trkpt>
      <trkpt lat="47.8466980" lon="2.1963990">
        <ele>92.2</ele>
        <time>2020-07-02T15:06:19Z</time>
      </trkpt>
      <trkpt lat="47.8468370" lon="2.1970290">
        <ele>92.2</ele>
        <time>2020-07-02T15:06:26Z</time>
      </trkpt>
      <trkpt lat="47.8470110" lon="2.1978300">
        <ele>92.2</ele>
        <time>2020-07-02T15:06:35Z</time>
      </trkpt>
      <trkpt lat="47.8471890" lon="2.1986590">
        <ele>92.0</ele>
        <time>2020-07-02T15:06:44Z</time>
      </trkpt>
      <trkpt lat="47.8472280" lon="2.1988490">
        <ele>92.2</ele>
        <time>2020-07-02T15:06:46Z</time>
      </trkpt>
      <trkpt lat="47.8474080" lon="2.1996630">
        <ele>92.4</ele>
        <time>2020-07-02T15:06:55Z</time>
      </trkpt>
      <trkpt lat="47.8474280" lon="2.1997600">
        <ele>92.2</ele>
        <time>2020-07-02T15:06:56Z</time>
      </trkpt>
      <trkpt lat="47.8475790" lon="2.2006180">
        <ele>92.4</ele>
        <time>2020-07-02T15:07:05Z</time>
      </trkpt>
      <trkpt lat="47.8475820" lon="2.2012670">
        <ele>92.0</ele>
        <time>2020-07-02T15:07:12Z</time>
      </trkpt>
      <trkpt lat="47.8475300" lon="2.2020720">
        <ele>92.2</ele>
        <time>2020-07-02T15:07:21Z</time>
      </trkpt>
      <trkpt lat="47.8475240" lon="2.2021600">
        <ele>92.2</ele>
        <time>2020-07-02T15:07:22Z</time>
      </trkpt>
      <trkpt lat="47.8475060" lon="2.2024390">
        <ele>92.2</ele>
        <time>2020-07-02T15:07:25Z</time>
      </trkpt>
      <trkpt lat="47.8474500" lon="2.2029370">
        <ele>92.0</ele>
        <time>2020-07-02T15:07:30Z</time>
      </trkpt>
      <trkpt lat="47.8473170" lon="2.2037390">
        <ele>92.0</ele>
        <time>2020-07-02T15:07:38Z</time>
      </trkpt>
      <trkpt lat="47.8473000" lon="2.2038260">
        <ele>92.0</ele>
        <time>2020-07-02T15:07:39Z</time>
      </trkpt>
      <trkpt lat="47.8471120" lon="2.2045830">
        <ele>92.0</ele>
        <time>2020-07-02T15:07:48Z</time>
      </trkpt>
      <trkpt lat="47.8470900" lon="2.2046710">
        <ele>92.0</ele>
        <time>2020-07-02T15:07:49Z</time>
      </trkpt>
      <trkpt lat="47.8469230" lon="2.2052220">
        <ele>91.8</ele>
        <time>2020-07-02T15:07:56Z</time>
      </trkpt>
      <trkpt lat="47.8468410" lon="2.2056800">
        <ele>92.0</ele>
        <time>2020-07-02T15:08:02Z</time>
      </trkpt>
      <trkpt lat="47.8467710" lon="2.2063550">
        <ele>92.0</ele>
        <time>2020-07-02T15:08:09Z</time>
      </trkpt>
      <trkpt lat="47.8466210" lon="2.2071320">
        <ele>92.0</ele>
        <time>2020-07-02T15:08:17Z</time>
      </trkpt>
      <trkpt lat="47.8465430" lon="2.2073390">
        <ele>92.2</ele>
        <time>2020-07-02T15:08:20Z</time>
      </trkpt>
      <trkpt lat="47.8465150" lon="2.2073860">
        <ele>92.0</ele>
        <time>2020-07-02T15:08:21Z</time>
      </trkpt>
      <trkpt lat="47.8464580" lon="2.2075160">
        <ele>92.2</ele>
        <time>2020-07-02T15:08:24Z</time>
      </trkpt>
      <trkpt lat="47.8464620" lon="2.2075550">
        <ele>92.0</ele>
        <time>2020-07-02T15:08:25Z</time>
      </trkpt>
      <trkpt lat="47.8464900" lon="2.2076120">
        <ele>92.0</ele>
        <time>2020-07-02T15:08:27Z</time>
      </trkpt>
      <trkpt lat="47.8465510" lon="2.2076480">
        <ele>92.6</ele>
        <time>2020-07-02T15:08:29Z</time>
      </trkpt>
      <trkpt lat="47.8465950" lon="2.2076600">
        <ele>92.6</ele>
        <time>2020-07-02T15:08:30Z</time>
      </trkpt>
      <trkpt lat="47.8467000" lon="2.2076980">
        <ele>92.8</ele>
        <time>2020-07-02T15:08:32Z</time>
      </trkpt>
      <trkpt lat="47.8467580" lon="2.2077230">
        <ele>92.6</ele>
        <time>2020-07-02T15:08:33Z</time>
      </trkpt>
      <trkpt lat="47.8472040" lon="2.2078680">
        <ele>92.8</ele>
        <time>2020-07-02T15:08:39Z</time>
      </trkpt>
      <trkpt lat="47.8477310" lon="2.2080600">
        <ele>89.8</ele>
        <time>2020-07-02T15:08:46Z</time>
      </trkpt>
      <trkpt lat="47.8480010" lon="2.2081610">
        <ele>89.4</ele>
        <time>2020-07-02T15:08:50Z</time>
      </trkpt>
      <trkpt lat="47.8482260" lon="2.2082330">
        <ele>89.4</ele>
        <time>2020-07-02T15:08:54Z</time>
      </trkpt>
      <trkpt lat="47.8483200" lon="2.2082700">
        <ele>89.2</ele>
        <time>2020-07-02T15:08:56Z</time>
      </trkpt>
      <trkpt lat="47.8485930" lon="2.2083740">
        <ele>90.0</ele>
        <time>2020-07-02T15:09:03Z</time>
      </trkpt>
      <trkpt lat="47.8489610" lon="2.2085780">
        <ele>90.4</ele>
        <time>2020-07-02T15:09:12Z</time>
      </trkpt>
      <trkpt lat="47.8490880" lon="2.2087180">
        <ele>90.6</ele>
        <time>2020-07-02T15:09:17Z</time>
      </trkpt>
      <trkpt lat="47.8490880" lon="2.2087700">
        <ele>90.6</ele>
        <time>2020-07-02T15:09:22Z</time>
      </trkpt>
      <trkpt lat="47.8490880" lon="2.2087730">
        <ele>90.6</ele>
        <time>2020-07-02T15:09:23Z</time>
      </trkpt>
      <trkpt lat="47.8490860" lon="2.2087760">
        <ele>90.6</ele>
        <time>2020-07-02T15:09:24Z</time>
      </trkpt>
      <trkpt lat="47.8490830" lon="2.2087810">
        <ele>90.6</ele>
        <time>2020-07-02T15:09:30Z</time>
      </trkpt>
      <trkpt lat="47.8490820" lon="2.2087790">
        <ele>90.6</ele>
        <time>2020-07-02T15:09:42Z</time>
      </trkpt>
      <trkpt lat="47.8490800" lon="2.2087780">
        <ele>90.8</ele>
        <time>2020-07-02T15:09:44Z</time>
      </trkpt>
      <trkpt lat="47.8490780" lon="2.2087780">
        <ele>90.6</ele>
        <time>2020-07-02T15:09:45Z</time>
      </trkpt>
      <trkpt lat="47.8490630" lon="2.2087710">
        <ele>91.2</ele>
        <time>2020-07-02T15:09:55Z</time>
      </trkpt>
      <trkpt lat="47.8490580" lon="2.2087690">
        <ele>91.0</ele>
        <time>2020-07-02T15:10:17Z</time>
      </trkpt>
      <trkpt lat="47.8490580" lon="2.2087680">
        <ele>91.0</ele>
        <time>2020-07-02T15:10:20Z</time>
      </trkpt>
      <trkpt lat="47.8490550" lon="2.2087610">
        <ele>90.6</ele>
        <time>2020-07-02T15:10:42Z</time>
      </trkpt>
      <trkpt lat="47.8491030" lon="2.2087940">
        <ele>90.8</ele>
        <time>2020-07-02T15:10:56Z</time>
      </trkpt>
      <trkpt lat="47.8491940" lon="2.2089450">
        <ele>90.8</ele>
        <time>2020-07-02T15:11:03Z</time>
      </trkpt>
      <trkpt lat="47.8493040" lon="2.2091090">
        <ele>90.8</ele>
        <time>2020-07-02T15:11:08Z</time>
      </trkpt>
      <trkpt lat="47.8493650" lon="2.2091990">
        <ele>90.8</ele>
        <time>2020-07-02T15:11:10Z</time>
      </trkpt>
      <trkpt lat="47.8495000" lon="2.2093920">
        <ele>90.8</ele>
        <time>2020-07-02T15:11:14Z</time>
      </trkpt>
      <trkpt lat="47.8496070" lon="2.2095520">
        <ele>90.4</ele>
        <time>2020-07-02T15:11:17Z</time>
      </trkpt>
      <trkpt lat="47.8499670" lon="2.2100170">
        <ele>88.8</ele>
        <time>2020-07-02T15:11:25Z</time>
      </trkpt>
      <trkpt lat="47.8500110" lon="2.2100700">
        <ele>88.8</ele>
        <time>2020-07-02T15:11:26Z</time>
      </trkpt>
      <trkpt lat="47.8501370" lon="2.2102430">
        <ele>88.6</ele>
        <time>2020-07-02T15:11:30Z</time>
      </trkpt>
      <trkpt lat="47.8501830" lon="2.2103260">
        <ele>88.8</ele>
        <time>2020-07-02T15:11:32Z</time>
      </trkpt>
      <trkpt lat="47.8503520" lon="2.2105880">
        <ele>90.2</ele>
        <time>2020-07-02T15:11:39Z</time>
      </trkpt>
      <trkpt lat="47.8506580" lon="2.2110650">
        <ele>90.6</ele>
        <time>2020-07-02T15:11:49Z</time>
      </trkpt>
      <trkpt lat="47.8507210" lon="2.2111780">
        <ele>90.6</ele>
        <time>2020-07-02T15:11:51Z</time>
      </trkpt>
      <trkpt lat="47.8509350" lon="2.2115520">
        <ele>90.2</ele>
        <time>2020-07-02T15:11:57Z</time>
      </trkpt>
      <trkpt lat="47.8513080" lon="2.2122140">
        <ele>89.8</ele>
        <time>2020-07-02T15:12:07Z</time>
      </trkpt>
      <trkpt lat="47.8514150" lon="2.2124160">
        <ele>89.8</ele>
        <time>2020-07-02T15:12:10Z</time>
      </trkpt>
      <trkpt lat="47.8517520" lon="2.2131120">
        <ele>89.8</ele>
        <time>2020-07-02T15:12:20Z</time>
      </trkpt>
      <trkpt lat="47.8518500" lon="2.2133250">
        <ele>89.8</ele>
        <time>2020-07-02T15:12:23Z</time>
      </trkpt>
      <trkpt lat="47.8519980" lon="2.2136820">
        <ele>89.8</ele>
        <time>2020-07-02T15:12:28Z</time>
      </trkpt>
      <trkpt lat="47.8521200" lon="2.2140310">
        <ele>90.0</ele>
        <time>2020-07-02T15:12:33Z</time>
      </trkpt>
      <trkpt lat="47.8522580" lon="2.2143880">
        <ele>90.0</ele>
        <time>2020-07-02T15:12:38Z</time>
      </trkpt>
      <trkpt lat="47.8523940" lon="2.2146970">
        <ele>90.0</ele>
        <time>2020-07-02T15:12:42Z</time>
      </trkpt>
      <trkpt lat="47.8526710" lon="2.2154520">
        <ele>89.2</ele>
        <time>2020-07-02T15:12:51Z</time>
      </trkpt>
      <trkpt lat="47.8526970" lon="2.2155370">
        <ele>89.2</ele>
        <time>2020-07-02T15:12:52Z</time>
      </trkpt>
      <trkpt lat="47.8529480" lon="2.2163060">
        <ele>89.2</ele>
        <time>2020-07-02T15:13:02Z</time>
      </trkpt>
      <trkpt lat="47.8532230" lon="2.2169730">
        <ele>89.6</ele>
        <time>2020-07-02T15:13:12Z</time>
      </trkpt>
      <trkpt lat="47.8535310" lon="2.2176380">
        <ele>89.8</ele>
        <time>2020-07-02T15:13:22Z</time>
      </trkpt>
      <trkpt lat="47.8535640" lon="2.2176990">
        <ele>89.8</ele>
        <time>2020-07-02T15:13:23Z</time>
      </trkpt>
      <trkpt lat="47.8535980" lon="2.2177650">
        <ele>89.8</ele>
        <time>2020-07-02T15:13:24Z</time>
      </trkpt>
      <trkpt lat="47.8539430" lon="2.2183500">
        <ele>90.2</ele>
        <time>2020-07-02T15:13:34Z</time>
      </trkpt>
      <trkpt lat="47.8543300" lon="2.2189730">
        <ele>90.8</ele>
        <time>2020-07-02T15:13:44Z</time>
      </trkpt>
      <trkpt lat="47.8546430" lon="2.2196420">
        <ele>90.6</ele>
        <time>2020-07-02T15:13:54Z</time>
      </trkpt>
      <trkpt lat="47.8546760" lon="2.2197130">
        <ele>90.6</ele>
        <time>2020-07-02T15:13:55Z</time>
      </trkpt>
      <trkpt lat="47.8549800" lon="2.2204370">
        <ele>90.6</ele>
        <time>2020-07-02T15:14:05Z</time>
      </trkpt>
      <trkpt lat="47.8550360" lon="2.2205770">
        <ele>90.4</ele>
        <time>2020-07-02T15:14:07Z</time>
      </trkpt>
      <trkpt lat="47.8553070" lon="2.2211740">
        <ele>90.4</ele>
        <time>2020-07-02T15:14:15Z</time>
      </trkpt>
      <trkpt lat="47.8553460" lon="2.2212470">
        <ele>90.4</ele>
        <time>2020-07-02T15:14:16Z</time>
      </trkpt>
      <trkpt lat="47.8556530" lon="2.2218550">
        <ele>91.2</ele>
        <time>2020-07-02T15:14:25Z</time>
      </trkpt>
      <trkpt lat="47.8559730" lon="2.2225350">
        <ele>91.4</ele>
        <time>2020-07-02T15:14:35Z</time>
      </trkpt>
      <trkpt lat="47.8561030" lon="2.2229700">
        <ele>91.0</ele>
        <time>2020-07-02T15:14:42Z</time>
      </trkpt>
      <trkpt lat="47.8561800" lon="2.2235050">
        <ele>90.8</ele>
        <time>2020-07-02T15:14:51Z</time>
      </trkpt>
      <trkpt lat="47.8562270" lon="2.2236920">
        <ele>91.0</ele>
        <time>2020-07-02T15:14:56Z</time>
      </trkpt>
      <trkpt lat="47.8563250" lon="2.2237160">
        <ele>91.2</ele>
        <time>2020-07-02T15:14:59Z</time>
      </trkpt>
      <trkpt lat="47.8563650" lon="2.2237110">
        <ele>91.2</ele>
        <time>2020-07-02T15:15:00Z</time>
      </trkpt>
      <trkpt lat="47.8567130" lon="2.2236710">
        <ele>91.4</ele>
        <time>2020-07-02T15:15:08Z</time>
      </trkpt>
      <trkpt lat="47.8567910" lon="2.2236600">
        <ele>91.4</ele>
        <time>2020-07-02T15:15:10Z</time>
      </trkpt>
      <trkpt lat="47.8570110" lon="2.2236140">
        <ele>92.2</ele>
        <time>2020-07-02T15:15:16Z</time>
      </trkpt>
      <trkpt lat="47.8570880" lon="2.2235870">
        <ele>92.4</ele>
        <time>2020-07-02T15:15:18Z</time>
      </trkpt>
      <trkpt lat="47.8572450" lon="2.2235620">
        <ele>92.8</ele>
        <time>2020-07-02T15:15:22Z</time>
      </trkpt>
      <trkpt lat="47.8573900" lon="2.2235300">
        <ele>93.2</ele>
        <time>2020-07-02T15:15:26Z</time>
      </trkpt>
      <trkpt lat="47.8577300" lon="2.2234670">
        <ele>94.6</ele>
        <time>2020-07-02T15:15:34Z</time>
      </trkpt>
      <trkpt lat="47.8577690" lon="2.2234580">
        <ele>94.8</ele>
        <time>2020-07-02T15:15:35Z</time>
      </trkpt>
      <trkpt lat="47.8581610" lon="2.2234180">
        <ele>96.0</ele>
        <time>2020-07-02T15:15:46Z</time>
      </trkpt>
      <trkpt lat="47.8583440" lon="2.2233770">
        <ele>96.2</ele>
        <time>2020-07-02T15:15:54Z</time>
      </trkpt>
      <trkpt lat="47.8585670" lon="2.2233530">
        <ele>96.2</ele>
        <time>2020-07-02T15:16:01Z</time>
      </trkpt>
      <trkpt lat="47.8588890" lon="2.2233020">
        <ele>96.0</ele>
        <time>2020-07-02T15:16:09Z</time>
      </trkpt>
      <trkpt lat="47.8592790" lon="2.2232780">
        <ele>95.8</ele>
        <time>2020-07-02T15:16:19Z</time>
      </trkpt>
      <trkpt lat="47.8593160" lon="2.2232750">
        <ele>95.8</ele>
        <time>2020-07-02T15:16:20Z</time>
      </trkpt>
      <trkpt lat="47.8596510" lon="2.2232500">
        <ele>95.6</ele>
        <time>2020-07-02T15:16:29Z</time>
      </trkpt>
      <trkpt lat="47.8596880" lon="2.2232510">
        <ele>95.4</ele>
        <time>2020-07-02T15:16:30Z</time>
      </trkpt>
      <trkpt lat="47.8598960" lon="2.2232580">
        <ele>95.0</ele>
        <time>2020-07-02T15:16:35Z</time>
      </trkpt>
      <trkpt lat="47.8599370" lon="2.2232860">
        <ele>95.0</ele>
        <time>2020-07-02T15:16:36Z</time>
      </trkpt>
      <trkpt lat="47.8599750" lon="2.2233180">
        <ele>94.8</ele>
        <time>2020-07-02T15:16:37Z</time>
      </trkpt>
      <trkpt lat="47.8601170" lon="2.2234740">
        <ele>94.4</ele>
        <time>2020-07-02T15:16:41Z</time>
      </trkpt>
      <trkpt lat="47.8601450" lon="2.2235130">
        <ele>94.4</ele>
        <time>2020-07-02T15:16:42Z</time>
      </trkpt>
      <trkpt lat="47.8602320" lon="2.2236120">
        <ele>94.4</ele>
        <time>2020-07-02T15:16:45Z</time>
      </trkpt>
      <trkpt lat="47.8603090" lon="2.2237060">
        <ele>94.4</ele>
        <time>2020-07-02T15:16:48Z</time>
      </trkpt>
      <trkpt lat="47.8604160" lon="2.2238250">
        <ele>95.2</ele>
        <time>2020-07-02T15:16:52Z</time>
      </trkpt>
      <trkpt lat="47.8604960" lon="2.2238950">
        <ele>95.8</ele>
        <time>2020-07-02T15:16:55Z</time>
      </trkpt>
      <trkpt lat="47.8606460" lon="2.2239840">
        <ele>96.8</ele>
        <time>2020-07-02T15:17:00Z</time>
      </trkpt>
      <trkpt lat="47.8608560" lon="2.2240970">
        <ele>97.8</ele>
        <time>2020-07-02T15:17:07Z</time>
      </trkpt>
      <trkpt lat="47.8610250" lon="2.2241400">
        <ele>98.6</ele>
        <time>2020-07-02T15:17:12Z</time>
      </trkpt>
      <trkpt lat="47.8610620" lon="2.2241560">
        <ele>98.6</ele>
        <time>2020-07-02T15:17:13Z</time>
      </trkpt>
      <trkpt lat="47.8613400" lon="2.2241920">
        <ele>98.8</ele>
        <time>2020-07-02T15:17:19Z</time>
      </trkpt>
      <trkpt lat="47.8614150" lon="2.2242290">
        <ele>99.2</ele>
        <time>2020-07-02T15:17:21Z</time>
      </trkpt>
      <trkpt lat="47.8614920" lon="2.2242730">
        <ele>99.6</ele>
        <time>2020-07-02T15:17:23Z</time>
      </trkpt>
      <trkpt lat="47.8615880" lon="2.2243140">
        <ele>100.0</ele>
        <time>2020-07-02T15:17:25Z</time>
      </trkpt>
      <trkpt lat="47.8619200" lon="2.2244100">
        <ele>101.8</ele>
        <time>2020-07-02T15:17:32Z</time>
      </trkpt>
      <trkpt lat="47.8620980" lon="2.2244570">
        <ele>102.2</ele>
        <time>2020-07-02T15:17:35Z</time>
      </trkpt>
      <trkpt lat="47.8622930" lon="2.2245190">
        <ele>102.6</ele>
        <time>2020-07-02T15:17:39Z</time>
      </trkpt>
      <trkpt lat="47.8624010" lon="2.2245720">
        <ele>102.6</ele>
        <time>2020-07-02T15:17:42Z</time>
      </trkpt>
      <trkpt lat="47.8625130" lon="2.2246000">
        <ele>103.4</ele>
        <time>2020-07-02T15:17:45Z</time>
      </trkpt>
      <trkpt lat="47.8627050" lon="2.2246310">
        <ele>104.4</ele>
        <time>2020-07-02T15:17:52Z</time>
      </trkpt>
      <trkpt lat="47.8628010" lon="2.2246050">
        <ele>105.0</ele>
        <time>2020-07-02T15:17:57Z</time>
      </trkpt>
      <trkpt lat="47.8628280" lon="2.2245660">
        <ele>105.0</ele>
        <time>2020-07-02T15:17:59Z</time>
      </trkpt>
      <trkpt lat="47.8629000" lon="2.2243710">
        <ele>105.2</ele>
        <time>2020-07-02T15:18:05Z</time>
      </trkpt>
      <trkpt lat="47.8629990" lon="2.2240120">
        <ele>105.2</ele>
        <time>2020-07-02T15:18:14Z</time>
      </trkpt>
      <trkpt lat="47.8630570" lon="2.2237060">
        <ele>105.2</ele>
        <time>2020-07-02T15:18:21Z</time>
      </trkpt>
      <trkpt lat="47.8631680" lon="2.2232430">
        <ele>105.0</ele>
        <time>2020-07-02T15:18:31Z</time>
      </trkpt>
      <trkpt lat="47.8632580" lon="2.2228470">
        <ele>104.6</ele>
        <time>2020-07-02T15:18:39Z</time>
      </trkpt>
      <trkpt lat="47.8632860" lon="2.2227430">
        <ele>104.8</ele>
        <time>2020-07-02T15:18:41Z</time>
      </trkpt>
      <trkpt lat="47.8633490" lon="2.2225640">
        <ele>104.8</ele>
        <time>2020-07-02T15:18:46Z</time>
      </trkpt>
      <trkpt lat="47.8633670" lon="2.2224690">
        <ele>105.4</ele>
        <time>2020-07-02T15:18:52Z</time>
      </trkpt>
      <trkpt lat="47.8633940" lon="2.2223940">
        <ele>105.6</ele>
        <time>2020-07-02T15:19:02Z</time>
      </trkpt>
      <trkpt lat="47.8633760" lon="2.2222410">
        <ele>105.6</ele>
        <time>2020-07-02T15:19:09Z</time>
      </trkpt>
      <trkpt lat="47.8633640" lon="2.2221360">
        <ele>105.6</ele>
        <time>2020-07-02T15:19:12Z</time>
      </trkpt>
      <trkpt lat="47.8634240" lon="2.2218170">
        <ele>104.6</ele>
        <time>2020-07-02T15:19:19Z</time>
      </trkpt>
      <trkpt lat="47.8635330" lon="2.2214230">
        <ele>104.6</ele>
        <time>2020-07-02T15:19:28Z</time>
      </trkpt>
      <trkpt lat="47.8636130" lon="2.2211770">
        <ele>104.6</ele>
        <time>2020-07-02T15:19:34Z</time>
      </trkpt>
      <trkpt lat="47.8636460" lon="2.2209080">
        <ele>104.6</ele>
        <time>2020-07-02T15:19:41Z</time>
      </trkpt>
      <trkpt lat="47.8637360" lon="2.2206410">
        <ele>104.2</ele>
        <time>2020-07-02T15:19:49Z</time>
      </trkpt>
      <trkpt lat="47.8637930" lon="2.2203960">
        <ele>104.2</ele>
        <time>2020-07-02T15:19:58Z</time>
      </trkpt>
      <trkpt lat="47.8638280" lon="2.2203220">
        <ele>104.2</ele>
        <time>2020-07-02T15:20:02Z</time>
      </trkpt>
      <trkpt lat="47.8638160" lon="2.2202940">
        <ele>104.4</ele>
        <time>2020-07-02T15:20:05Z</time>
      </trkpt>
      <trkpt lat="47.8637890" lon="2.2203310">
        <ele>104.6</ele>
        <time>2020-07-02T15:20:15Z</time>
      </trkpt>
      <trkpt lat="47.8637540" lon="2.2205060">
        <ele>104.6</ele>
        <time>2020-07-02T15:20:21Z</time>
      </trkpt>
      <trkpt lat="47.8636760" lon="2.2206860">
        <ele>105.0</ele>
        <time>2020-07-02T15:20:27Z</time>
      </trkpt>
      <trkpt lat="47.8636730" lon="2.2207160">
        <ele>104.8</ele>
        <time>2020-07-02T15:20:33Z</time>
      </trkpt>
      <trkpt lat="47.8636550" lon="2.2207310">
        <ele>105.0</ele>
        <time>2020-07-02T15:20:39Z</time>
      </trkpt>
      <trkpt lat="47.8636400" lon="2.2207220">
        <ele>105.0</ele>
        <time>2020-07-02T15:20:45Z</time>
      </trkpt>
      <trkpt lat="47.8636520" lon="2.2207160">
        <ele>105.2</ele>
        <time>2020-07-02T15:21:03Z</time>
      </trkpt>
      <trkpt lat="47.8636470" lon="2.2207100">
        <ele>105.4</ele>
        <time>2020-07-02T15:21:17Z</time>
      </trkpt>
      <trkpt lat="47.8636320" lon="2.2207040">
        <ele>105.4</ele>
        <time>2020-07-02T15:21:28Z</time>
      </trkpt>
      <trkpt lat="47.8636310" lon="2.2207090">
        <ele>105.6</ele>
        <time>2020-07-02T15:21:48Z</time>
      </trkpt>
      <trkpt lat="47.8636360" lon="2.2207160">
        <ele>105.4</ele>
        <time>2020-07-02T15:22:20Z</time>
      </trkpt>
      <trkpt lat="47.8636410" lon="2.2207210">
        <ele>105.2</ele>
        <time>2020-07-02T15:22:48Z</time>
      </trkpt>
      <trkpt lat="47.8636480" lon="2.2207350">
        <ele>105.2</ele>
        <time>2020-07-02T15:23:14Z</time>
      </trkpt>
      <trkpt lat="47.8636570" lon="2.2207360">
        <ele>105.0</ele>
        <time>2020-07-02T15:23:42Z</time>
      </trkpt>
      <trkpt lat="47.8636580" lon="2.2207360">
        <ele>105.0</ele>
        <time>2020-07-02T15:23:48Z</time>
      </trkpt>
      <trkpt lat="47.8636590" lon="2.2207360">
        <ele>105.0</ele>
        <time>2020-07-02T15:23:49Z</time>
      </trkpt>
      <trkpt lat="47.8636620" lon="2.2207370">
        <ele>105.2</ele>
        <time>2020-07-02T15:24:03Z</time>
      </trkpt>
      <trkpt lat="47.8636620" lon="2.2207380">
        <ele>105.2</ele>
        <time>2020-07-02T15:24:09Z</time>
      </trkpt>
      <trkpt lat="47.8636670" lon="2.2207410">
        <ele>105.0</ele>
        <time>2020-07-02T15:24:40Z</time>
      </trkpt>
      <trkpt lat="47.8636710" lon="2.2207430">
        <ele>105.2</ele>
        <time>2020-07-02T15:25:02Z</time>
      </trkpt>
      <trkpt lat="47.8636800" lon="2.2207460">
        <ele>105.2</ele>
        <time>2020-07-02T15:25:26Z</time>
      </trkpt>
      <trkpt lat="47.8636650" lon="2.2207250">
        <ele>104.8</ele>
        <time>2020-07-02T15:25:44Z</time>
      </trkpt>
      <trkpt lat="47.8636630" lon="2.2207250">
        <ele>105.0</ele>
        <time>2020-07-02T15:26:04Z</time>
      </trkpt>
      <trkpt lat="47.8636570" lon="2.2207340">
        <ele>104.8</ele>
        <time>2020-07-02T15:26:22Z</time>
      </trkpt>
      <trkpt lat="47.8636590" lon="2.2207380">
        <ele>105.0</ele>
        <time>2020-07-02T15:26:55Z</time>
      </trkpt>
      <trkpt lat="47.8636670" lon="2.2207400">
        <ele>104.8</ele>
        <time>2020-07-02T15:27:14Z</time>
      </trkpt>
      <trkpt lat="47.8636680" lon="2.2207460">
        <ele>104.8</ele>
        <time>2020-07-02T15:27:33Z</time>
      </trkpt>
      <trkpt lat="47.8636720" lon="2.2207310">
        <ele>104.6</ele>
        <time>2020-07-02T15:28:03Z</time>
      </trkpt>
      <trkpt lat="47.8636760" lon="2.2207200">
        <ele>104.6</ele>
        <time>2020-07-02T15:28:30Z</time>
      </trkpt>
      <trkpt lat="47.8636810" lon="2.2207260">
        <ele>104.8</ele>
        <time>2020-07-02T15:29:01Z</time>
      </trkpt>
      <trkpt lat="47.8636850" lon="2.2207260">
        <ele>104.8</ele>
        <time>2020-07-02T15:29:31Z</time>
      </trkpt>
      <trkpt lat="47.8636930" lon="2.2207270">
        <ele>105.0</ele>
        <time>2020-07-02T15:30:01Z</time>
      </trkpt>
      <trkpt lat="47.8636960" lon="2.2207320">
        <ele>105.0</ele>
        <time>2020-07-02T15:30:27Z</time>
      </trkpt>
      <trkpt lat="47.8636970" lon="2.2207350">
        <ele>105.2</ele>
        <time>2020-07-02T15:30:37Z</time>
      </trkpt>
      <trkpt lat="47.8636890" lon="2.2207440">
        <ele>105.2</ele>
        <time>2020-07-02T15:30:56Z</time>
      </trkpt>
      <trkpt lat="47.8636840" lon="2.2207900">
        <ele>105.2</ele>
        <time>2020-07-02T15:31:13Z</time>
      </trkpt>
      <trkpt lat="47.8636690" lon="2.2209650">
        <ele>105.2</ele>
        <time>2020-07-02T15:31:22Z</time>
      </trkpt>
      <trkpt lat="47.8636190" lon="2.2211600">
        <ele>105.2</ele>
        <time>2020-07-02T15:31:30Z</time>
      </trkpt>
      <trkpt lat="47.8635600" lon="2.2214130">
        <ele>105.4</ele>
        <time>2020-07-02T15:31:38Z</time>
      </trkpt>
      <trkpt lat="47.8634780" lon="2.2216860">
        <ele>105.4</ele>
        <time>2020-07-02T15:31:44Z</time>
      </trkpt>
      <trkpt lat="47.8633800" lon="2.2222020">
        <ele>105.6</ele>
        <time>2020-07-02T15:31:54Z</time>
      </trkpt>
      <trkpt lat="47.8633340" lon="2.2224440">
        <ele>105.8</ele>
        <time>2020-07-02T15:32:00Z</time>
      </trkpt>
      <trkpt lat="47.8632880" lon="2.2227490">
        <ele>105.6</ele>
        <time>2020-07-02T15:32:07Z</time>
      </trkpt>
      <trkpt lat="47.8631580" lon="2.2232570">
        <ele>105.4</ele>
        <time>2020-07-02T15:32:17Z</time>
      </trkpt>
      <trkpt lat="47.8630750" lon="2.2237600">
        <ele>105.2</ele>
        <time>2020-07-02T15:32:25Z</time>
      </trkpt>
      <trkpt lat="47.8629450" lon="2.2243520">
        <ele>104.8</ele>
        <time>2020-07-02T15:32:34Z</time>
      </trkpt>
      <trkpt lat="47.8628780" lon="2.2245430">
        <ele>104.8</ele>
        <time>2020-07-02T15:32:38Z</time>
      </trkpt>
      <trkpt lat="47.8628480" lon="2.2245700">
        <ele>104.8</ele>
        <time>2020-07-02T15:32:39Z</time>
      </trkpt>
      <trkpt lat="47.8628120" lon="2.2245800">
        <ele>104.8</ele>
        <time>2020-07-02T15:32:40Z</time>
      </trkpt>
      <trkpt lat="47.8627170" lon="2.2245700">
        <ele>104.8</ele>
        <time>2020-07-02T15:32:42Z</time>
      </trkpt>
      <trkpt lat="47.8626120" lon="2.2245340">
        <ele>104.6</ele>
        <time>2020-07-02T15:32:44Z</time>
      </trkpt>
      <trkpt lat="47.8625050" lon="2.2245090">
        <ele>104.4</ele>
        <time>2020-07-02T15:32:46Z</time>
      </trkpt>
      <trkpt lat="47.8621070" lon="2.2243710">
        <ele>103.6</ele>
        <time>2020-07-02T15:32:53Z</time>
      </trkpt>
      <trkpt lat="47.8619980" lon="2.2243350">
        <ele>103.2</ele>
        <time>2020-07-02T15:32:55Z</time>
      </trkpt>
      <trkpt lat="47.8617040" lon="2.2242420">
        <ele>102.4</ele>
        <time>2020-07-02T15:33:00Z</time>
      </trkpt>
      <trkpt lat="47.8615870" lon="2.2242120">
        <ele>102.4</ele>
        <time>2020-07-02T15:33:02Z</time>
      </trkpt>
      <trkpt lat="47.8614680" lon="2.2241820">
        <ele>102.2</ele>
        <time>2020-07-02T15:33:04Z</time>
      </trkpt>
      <trkpt lat="47.8609140" lon="2.2240000">
        <ele>99.6</ele>
        <time>2020-07-02T15:33:13Z</time>
      </trkpt>
      <trkpt lat="47.8608610" lon="2.2239750">
        <ele>99.4</ele>
        <time>2020-07-02T15:33:14Z</time>
      </trkpt>
      <trkpt lat="47.8605860" lon="2.2238590">
        <ele>98.8</ele>
        <time>2020-07-02T15:33:19Z</time>
      </trkpt>
      <trkpt lat="47.8604710" lon="2.2237880">
        <ele>98.4</ele>
        <time>2020-07-02T15:33:21Z</time>
      </trkpt>
      <trkpt lat="47.8604100" lon="2.2237460">
        <ele>98.4</ele>
        <time>2020-07-02T15:33:22Z</time>
      </trkpt>
      <trkpt lat="47.8602250" lon="2.2236110">
        <ele>98.0</ele>
        <time>2020-07-02T15:33:25Z</time>
      </trkpt>
      <trkpt lat="47.8600530" lon="2.2234910">
        <ele>96.6</ele>
        <time>2020-07-02T15:33:28Z</time>
      </trkpt>
      <trkpt lat="47.8599750" lon="2.2234340">
        <ele>96.0</ele>
        <time>2020-07-02T15:33:30Z</time>
      </trkpt>
      <trkpt lat="47.8599030" lon="2.2234270">
        <ele>95.2</ele>
        <time>2020-07-02T15:33:32Z</time>
      </trkpt>
      <trkpt lat="47.8598770" lon="2.2234590">
        <ele>95.0</ele>
        <time>2020-07-02T15:33:33Z</time>
      </trkpt>
      <trkpt lat="47.8598570" lon="2.2235810">
        <ele>95.0</ele>
        <time>2020-07-02T15:33:35Z</time>
      </trkpt>
      <trkpt lat="47.8598610" lon="2.2237260">
        <ele>94.8</ele>
        <time>2020-07-02T15:33:37Z</time>
      </trkpt>
      <trkpt lat="47.8598840" lon="2.2239470">
        <ele>94.8</ele>
        <time>2020-07-02T15:33:40Z</time>
      </trkpt>
      <trkpt lat="47.8598900" lon="2.2241660">
        <ele>94.6</ele>
        <time>2020-07-02T15:33:44Z</time>
      </trkpt>
      <trkpt lat="47.8599200" lon="2.2245660">
        <ele>94.4</ele>
        <time>2020-07-02T15:33:51Z</time>
      </trkpt>
      <trkpt lat="47.8599350" lon="2.2249610">
        <ele>94.4</ele>
        <time>2020-07-02T15:33:58Z</time>
      </trkpt>
      <trkpt lat="47.8599530" lon="2.2252070">
        <ele>94.4</ele>
        <time>2020-07-02T15:34:06Z</time>
      </trkpt>
      <trkpt lat="47.8599680" lon="2.2255500">
        <ele>94.4</ele>
        <time>2020-07-02T15:34:13Z</time>
      </trkpt>
      <trkpt lat="47.8599760" lon="2.2258750">
        <ele>94.4</ele>
        <time>2020-07-02T15:34:21Z</time>
      </trkpt>
      <trkpt lat="47.8599770" lon="2.2259570">
        <ele>94.2</ele>
        <time>2020-07-02T15:34:23Z</time>
      </trkpt>
      <trkpt lat="47.8599620" lon="2.2262730">
        <ele>93.2</ele>
        <time>2020-07-02T15:34:32Z</time>
      </trkpt>
      <trkpt lat="47.8599640" lon="2.2263030">
        <ele>93.2</ele>
        <time>2020-07-02T15:34:33Z</time>
      </trkpt>
      <trkpt lat="47.8599320" lon="2.2265730">
        <ele>92.6</ele>
        <time>2020-07-02T15:34:41Z</time>
      </trkpt>
      <trkpt lat="47.8599100" lon="2.2268840">
        <ele>92.0</ele>
        <time>2020-07-02T15:34:47Z</time>
      </trkpt>
      <trkpt lat="47.8599080" lon="2.2269410">
        <ele>91.8</ele>
        <time>2020-07-02T15:34:48Z</time>
      </trkpt>
      <trkpt lat="47.8599040" lon="2.2272980">
        <ele>91.4</ele>
        <time>2020-07-02T15:34:55Z</time>
      </trkpt>
      <trkpt lat="47.8598910" lon="2.2274620">
        <ele>91.2</ele>
        <time>2020-07-02T15:35:01Z</time>
      </trkpt>
      <trkpt lat="47.8598860" lon="2.2275860">
        <ele>91.0</ele>
        <time>2020-07-02T15:35:04Z</time>
      </trkpt>
      <trkpt lat="47.8598780" lon="2.2276980">
        <ele>91.2</ele>
        <time>2020-07-02T15:35:06Z</time>
      </trkpt>
      <trkpt lat="47.8598580" lon="2.2281060">
        <ele>91.0</ele>
        <time>2020-07-02T15:35:14Z</time>
      </trkpt>
      <trkpt lat="47.8598510" lon="2.2282630">
        <ele>90.8</ele>
        <time>2020-07-02T15:35:17Z</time>
      </trkpt>
      <trkpt lat="47.8598590" lon="2.2285020">
        <ele>90.4</ele>
        <time>2020-07-02T15:35:21Z</time>
      </trkpt>
      <trkpt lat="47.8598370" lon="2.2288990">
        <ele>90.0</ele>
        <time>2020-07-02T15:35:27Z</time>
      </trkpt>
      <trkpt lat="47.8597290" lon="2.2293450">
        <ele>89.8</ele>
        <time>2020-07-02T15:35:34Z</time>
      </trkpt>
      <trkpt lat="47.8595770" lon="2.2299100">
        <ele>89.6</ele>
        <time>2020-07-02T15:35:42Z</time>
      </trkpt>
      <trkpt lat="47.8594150" lon="2.2306780">
        <ele>89.8</ele>
        <time>2020-07-02T15:35:51Z</time>
      </trkpt>
      <trkpt lat="47.8593600" lon="2.2310130">
        <ele>90.0</ele>
        <time>2020-07-02T15:35:57Z</time>
      </trkpt>
      <trkpt lat="47.8592540" lon="2.2315320">
        <ele>90.2</ele>
        <time>2020-07-02T15:36:07Z</time>
      </trkpt>
      <trkpt lat="47.8591460" lon="2.2319980">
        <ele>90.0</ele>
        <time>2020-07-02T15:36:15Z</time>
      </trkpt>
      <trkpt lat="47.8590150" lon="2.2325400">
        <ele>90.0</ele>
        <time>2020-07-02T15:36:23Z</time>
      </trkpt>
      <trkpt lat="47.8588870" lon="2.2331160">
        <ele>89.8</ele>
        <time>2020-07-02T15:36:31Z</time>
      </trkpt>
      <trkpt lat="47.8587830" lon="2.2335690">
        <ele>90.0</ele>
        <time>2020-07-02T15:36:37Z</time>
      </trkpt>
      <trkpt lat="47.8586710" lon="2.2341110">
        <ele>90.0</ele>
        <time>2020-07-02T15:36:44Z</time>
      </trkpt>
      <trkpt lat="47.8585700" lon="2.2346040">
        <ele>90.0</ele>
        <time>2020-07-02T15:36:51Z</time>
      </trkpt>
      <trkpt lat="47.8585520" lon="2.2346730">
        <ele>90.0</ele>
        <time>2020-07-02T15:36:52Z</time>
      </trkpt>
      <trkpt lat="47.8585090" lon="2.2348800">
        <ele>90.2</ele>
        <time>2020-07-02T15:36:55Z</time>
      </trkpt>
      <trkpt lat="47.8584760" lon="2.2350660">
        <ele>90.0</ele>
        <time>2020-07-02T15:36:58Z</time>
      </trkpt>
      <trkpt lat="47.8584580" lon="2.2351850">
        <ele>90.0</ele>
        <time>2020-07-02T15:37:00Z</time>
      </trkpt>
      <trkpt lat="47.8583670" lon="2.2356190">
        <ele>90.4</ele>
        <time>2020-07-02T15:37:07Z</time>
      </trkpt>
      <trkpt lat="47.8583080" lon="2.2359290">
        <ele>91.0</ele>
        <time>2020-07-02T15:37:13Z</time>
      </trkpt>
      <trkpt lat="47.8583000" lon="2.2360550">
        <ele>91.2</ele>
        <time>2020-07-02T15:37:15Z</time>
      </trkpt>
      <trkpt lat="47.8582650" lon="2.2363250">
        <ele>91.8</ele>
        <time>2020-07-02T15:37:20Z</time>
      </trkpt>
      <trkpt lat="47.8582460" lon="2.2364320">
        <ele>91.6</ele>
        <time>2020-07-02T15:37:22Z</time>
      </trkpt>
      <trkpt lat="47.8581190" lon="2.2369040">
        <ele>93.4</ele>
        <time>2020-07-02T15:37:31Z</time>
      </trkpt>
      <trkpt lat="47.8579470" lon="2.2375590">
        <ele>93.8</ele>
        <time>2020-07-02T15:37:43Z</time>
      </trkpt>
      <trkpt lat="47.8578480" lon="2.2379840">
        <ele>93.6</ele>
        <time>2020-07-02T15:37:52Z</time>
      </trkpt>
      <trkpt lat="47.8578400" lon="2.2381360">
        <ele>93.8</ele>
        <time>2020-07-02T15:37:59Z</time>
      </trkpt>
      <trkpt lat="47.8577960" lon="2.2383590">
        <ele>93.8</ele>
        <time>2020-07-02T15:38:06Z</time>
      </trkpt>
      <trkpt lat="47.8577360" lon="2.2388170">
        <ele>93.2</ele>
        <time>2020-07-02T15:38:17Z</time>
      </trkpt>
      <trkpt lat="47.8577750" lon="2.2391820">
        <ele>93.0</ele>
        <time>2020-07-02T15:38:26Z</time>
      </trkpt>
      <trkpt lat="47.8578200" lon="2.2395180">
        <ele>93.0</ele>
        <time>2020-07-02T15:38:33Z</time>
      </trkpt>
      <trkpt lat="47.8578150" lon="2.2399140">
        <ele>93.2</ele>
        <time>2020-07-02T15:38:41Z</time>
      </trkpt>
      <trkpt lat="47.8577990" lon="2.2399620">
        <ele>93.2</ele>
        <time>2020-07-02T15:38:42Z</time>
      </trkpt>
      <trkpt lat="47.8576980" lon="2.2402970">
        <ele>93.0</ele>
        <time>2020-07-02T15:38:48Z</time>
      </trkpt>
      <trkpt lat="47.8576420" lon="2.2404630">
        <ele>92.6</ele>
        <time>2020-07-02T15:38:52Z</time>
      </trkpt>
      <trkpt lat="47.8576200" lon="2.2404750">
        <ele>92.8</ele>
        <time>2020-07-02T15:38:53Z</time>
      </trkpt>
      <trkpt lat="47.8575620" lon="2.2404790">
        <ele>92.4</ele>
        <time>2020-07-02T15:38:55Z</time>
      </trkpt>
      <trkpt lat="47.8575280" lon="2.2404770">
        <ele>92.4</ele>
        <time>2020-07-02T15:38:56Z</time>
      </trkpt>
      <trkpt lat="47.8573290" lon="2.2404920">
        <ele>91.8</ele>
        <time>2020-07-02T15:39:02Z</time>
      </trkpt>
      <trkpt lat="47.8572660" lon="2.2407130">
        <ele>92.0</ele>
        <time>2020-07-02T15:39:07Z</time>
      </trkpt>
      <trkpt lat="47.8571940" lon="2.2410690">
        <ele>91.4</ele>
        <time>2020-07-02T15:39:13Z</time>
      </trkpt>
      <trkpt lat="47.8571710" lon="2.2412190">
        <ele>91.6</ele>
        <time>2020-07-02T15:39:16Z</time>
      </trkpt>
      <trkpt lat="47.8571340" lon="2.2412720">
        <ele>91.6</ele>
        <time>2020-07-02T15:39:18Z</time>
      </trkpt>
      <trkpt lat="47.8570860" lon="2.2412790">
        <ele>91.6</ele>
        <time>2020-07-02T15:39:20Z</time>
      </trkpt>
      <trkpt lat="47.8569880" lon="2.2412720">
        <ele>91.4</ele>
        <time>2020-07-02T15:39:24Z</time>
      </trkpt>
      <trkpt lat="47.8569180" lon="2.2413020">
        <ele>91.4</ele>
        <time>2020-07-02T15:39:26Z</time>
      </trkpt>
      <trkpt lat="47.8567230" lon="2.2414970">
        <ele>91.0</ele>
        <time>2020-07-02T15:39:32Z</time>
      </trkpt>
      <trkpt lat="47.8564750" lon="2.2417630">
        <ele>90.8</ele>
        <time>2020-07-02T15:39:39Z</time>
      </trkpt>
      <trkpt lat="47.8560150" lon="2.2422190">
        <ele>90.6</ele>
        <time>2020-07-02T15:39:50Z</time>
      </trkpt>
      <trkpt lat="47.8556670" lon="2.2425550">
        <ele>90.6</ele>
        <time>2020-07-02T15:39:59Z</time>
      </trkpt>
      <trkpt lat="47.8553320" lon="2.2428790">
        <ele>91.0</ele>
        <time>2020-07-02T15:40:10Z</time>
      </trkpt>
      <trkpt lat="47.8550060" lon="2.2431790">
        <ele>91.2</ele>
        <time>2020-07-02T15:40:22Z</time>
      </trkpt>
      <trkpt lat="47.8547510" lon="2.2433840">
        <ele>91.2</ele>
        <time>2020-07-02T15:40:31Z</time>
      </trkpt>
      <trkpt lat="47.8544590" lon="2.2436120">
        <ele>91.2</ele>
        <time>2020-07-02T15:40:40Z</time>
      </trkpt>
      <trkpt lat="47.8541960" lon="2.2438100">
        <ele>91.0</ele>
        <time>2020-07-02T15:40:48Z</time>
      </trkpt>
      <trkpt lat="47.8538390" lon="2.2440220">
        <ele>91.0</ele>
        <time>2020-07-02T15:40:58Z</time>
      </trkpt>
      <trkpt lat="47.8537590" lon="2.2440800">
        <ele>90.8</ele>
        <time>2020-07-02T15:41:00Z</time>
      </trkpt>
      <trkpt lat="47.8535240" lon="2.2442300">
        <ele>90.4</ele>
        <time>2020-07-02T15:41:05Z</time>
      </trkpt>
      <trkpt lat="47.8531960" lon="2.2444650">
        <ele>90.0</ele>
        <time>2020-07-02T15:41:11Z</time>
      </trkpt>
      <trkpt lat="47.8530790" lon="2.2445400">
        <ele>90.0</ele>
        <time>2020-07-02T15:41:13Z</time>
      </trkpt>
      <trkpt lat="47.8525690" lon="2.2448430">
        <ele>89.0</ele>
        <time>2020-07-02T15:41:21Z</time>
      </trkpt>
      <trkpt lat="47.8524470" lon="2.2449150">
        <ele>89.0</ele>
        <time>2020-07-02T15:41:23Z</time>
      </trkpt>
      <trkpt lat="47.8518970" lon="2.2452290">
        <ele>88.8</ele>
        <time>2020-07-02T15:41:32Z</time>
      </trkpt>
      <trkpt lat="47.8517740" lon="2.2453000">
        <ele>88.8</ele>
        <time>2020-07-02T15:41:34Z</time>
      </trkpt>
      <trkpt lat="47.8517130" lon="2.2453320">
        <ele>88.8</ele>
        <time>2020-07-02T15:41:35Z</time>
      </trkpt>
      <trkpt lat="47.8512880" lon="2.2455000">
        <ele>89.0</ele>
        <time>2020-07-02T15:41:42Z</time>
      </trkpt>
      <trkpt lat="47.8509730" lon="2.2455650">
        <ele>89.2</ele>
        <time>2020-07-02T15:41:47Z</time>
      </trkpt>
      <trkpt lat="47.8507360" lon="2.2456680">
        <ele>89.4</ele>
        <time>2020-07-02T15:41:51Z</time>
      </trkpt>
      <trkpt lat="47.8506850" lon="2.2457000">
        <ele>89.4</ele>
        <time>2020-07-02T15:41:52Z</time>
      </trkpt>
      <trkpt lat="47.8506380" lon="2.2457330">
        <ele>89.4</ele>
        <time>2020-07-02T15:41:53Z</time>
      </trkpt>
      <trkpt lat="47.8506030" lon="2.2457660">
        <ele>89.4</ele>
        <time>2020-07-02T15:41:54Z</time>
      </trkpt>
      <trkpt lat="47.8505760" lon="2.2457960">
        <ele>89.4</ele>
        <time>2020-07-02T15:41:55Z</time>
      </trkpt>
      <trkpt lat="47.8504120" lon="2.2459430">
        <ele>90.4</ele>
        <time>2020-07-02T15:42:02Z</time>
      </trkpt>
      <trkpt lat="47.8503210" lon="2.2458350">
        <ele>91.2</ele>
        <time>2020-07-02T15:42:06Z</time>
      </trkpt>
      <trkpt lat="47.8502200" lon="2.2457390">
        <ele>91.4</ele>
        <time>2020-07-02T15:42:09Z</time>
      </trkpt>
      <trkpt lat="47.8501200" lon="2.2456680">
        <ele>91.2</ele>
        <time>2020-07-02T15:42:11Z</time>
      </trkpt>
      <trkpt lat="47.8499140" lon="2.2456210">
        <ele>91.2</ele>
        <time>2020-07-02T15:42:15Z</time>
      </trkpt>
      <trkpt lat="47.8498570" lon="2.2456180">
        <ele>91.0</ele>
        <time>2020-07-02T15:42:16Z</time>
      </trkpt>
      <trkpt lat="47.8493870" lon="2.2456030">
        <ele>89.8</ele>
        <time>2020-07-02T15:42:24Z</time>
      </trkpt>
      <trkpt lat="47.8488030" lon="2.2456390">
        <ele>89.2</ele>
        <time>2020-07-02T15:42:33Z</time>
      </trkpt>
      <trkpt lat="47.8484640" lon="2.2456560">
        <ele>88.8</ele>
        <time>2020-07-02T15:42:39Z</time>
      </trkpt>
      <trkpt lat="47.8479390" lon="2.2455920">
        <ele>89.0</ele>
        <time>2020-07-02T15:42:48Z</time>
      </trkpt>
      <trkpt lat="47.8475710" lon="2.2455320">
        <ele>89.0</ele>
        <time>2020-07-02T15:42:54Z</time>
      </trkpt>
      <trkpt lat="47.8475030" lon="2.2455190">
        <ele>89.0</ele>
        <time>2020-07-02T15:42:55Z</time>
      </trkpt>
      <trkpt lat="47.8472390" lon="2.2455110">
        <ele>89.2</ele>
        <time>2020-07-02T15:42:59Z</time>
      </trkpt>
      <trkpt lat="47.8471790" lon="2.2455230">
        <ele>89.4</ele>
        <time>2020-07-02T15:43:00Z</time>
      </trkpt>
      <trkpt lat="47.8471210" lon="2.2455540">
        <ele>89.6</ele>
        <time>2020-07-02T15:43:01Z</time>
      </trkpt>
      <trkpt lat="47.8469240" lon="2.2456590">
        <ele>90.2</ele>
        <time>2020-07-02T15:43:05Z</time>
      </trkpt>
      <trkpt lat="47.8468320" lon="2.2457160">
        <ele>90.8</ele>
        <time>2020-07-02T15:43:07Z</time>
      </trkpt>
      <trkpt lat="47.8465920" lon="2.2457670">
        <ele>91.0</ele>
        <time>2020-07-02T15:43:13Z</time>
      </trkpt>
      <trkpt lat="47.8463210" lon="2.2456930">
        <ele>92.2</ele>
        <time>2020-07-02T15:43:19Z</time>
      </trkpt>
      <trkpt lat="47.8459410" lon="2.2457560">
        <ele>92.6</ele>
        <time>2020-07-02T15:43:27Z</time>
      </trkpt>
      <trkpt lat="47.8454960" lon="2.2458620">
        <ele>92.6</ele>
        <time>2020-07-02T15:43:36Z</time>
      </trkpt>
      <trkpt lat="47.8451810" lon="2.2460740">
        <ele>92.6</ele>
        <time>2020-07-02T15:43:43Z</time>
      </trkpt>
      <trkpt lat="47.8447640" lon="2.2464600">
        <ele>92.4</ele>
        <time>2020-07-02T15:43:53Z</time>
      </trkpt>
      <trkpt lat="47.8443570" lon="2.2469040">
        <ele>92.2</ele>
        <time>2020-07-02T15:44:03Z</time>
      </trkpt>
      <trkpt lat="47.8440050" lon="2.2471240">
        <ele>92.4</ele>
        <time>2020-07-02T15:44:11Z</time>
      </trkpt>
      <trkpt lat="47.8439170" lon="2.2471590">
        <ele>92.4</ele>
        <time>2020-07-02T15:44:13Z</time>
      </trkpt>
      <trkpt lat="47.8436540" lon="2.2472930">
        <ele>92.4</ele>
        <time>2020-07-02T15:44:19Z</time>
      </trkpt>
      <trkpt lat="47.8435680" lon="2.2473530">
        <ele>92.6</ele>
        <time>2020-07-02T15:44:21Z</time>
      </trkpt>
      <trkpt lat="47.8435280" lon="2.2473870">
        <ele>92.8</ele>
        <time>2020-07-02T15:44:22Z</time>
      </trkpt>
      <trkpt lat="47.8434130" lon="2.2474740">
        <ele>93.0</ele>
        <time>2020-07-02T15:44:25Z</time>
      </trkpt>
      <trkpt lat="47.8432980" lon="2.2475940">
        <ele>93.0</ele>
        <time>2020-07-02T15:44:28Z</time>
      </trkpt>
      <trkpt lat="47.8430290" lon="2.2479440">
        <ele>93.2</ele>
        <time>2020-07-02T15:44:35Z</time>
      </trkpt>
      <trkpt lat="47.8428690" lon="2.2482250">
        <ele>92.8</ele>
        <time>2020-07-02T15:44:40Z</time>
      </trkpt>
      <trkpt lat="47.8428360" lon="2.2482920">
        <ele>92.8</ele>
        <time>2020-07-02T15:44:41Z</time>
      </trkpt>
      <trkpt lat="47.8427660" lon="2.2484260">
        <ele>92.6</ele>
        <time>2020-07-02T15:44:43Z</time>
      </trkpt>
      <trkpt lat="47.8427320" lon="2.2484960">
        <ele>92.6</ele>
        <time>2020-07-02T15:44:44Z</time>
      </trkpt>
      <trkpt lat="47.8424980" lon="2.2489240">
        <ele>92.0</ele>
        <time>2020-07-02T15:44:50Z</time>
      </trkpt>
      <trkpt lat="47.8423770" lon="2.2491100">
        <ele>92.0</ele>
        <time>2020-07-02T15:44:53Z</time>
      </trkpt>
      <trkpt lat="47.8419600" lon="2.2496760">
        <ele>91.4</ele>
        <time>2020-07-02T15:45:03Z</time>
      </trkpt>
      <trkpt lat="47.8416130" lon="2.2501710">
        <ele>91.4</ele>
        <time>2020-07-02T15:45:12Z</time>
      </trkpt>
      <trkpt lat="47.8415830" lon="2.2502310">
        <ele>91.4</ele>
        <time>2020-07-02T15:45:13Z</time>
      </trkpt>
      <trkpt lat="47.8413590" lon="2.2507250">
        <ele>92.2</ele>
        <time>2020-07-02T15:45:21Z</time>
      </trkpt>
      <trkpt lat="47.8411300" lon="2.2511820">
        <ele>92.4</ele>
        <time>2020-07-02T15:45:28Z</time>
      </trkpt>
      <trkpt lat="47.8410910" lon="2.2512480">
        <ele>92.4</ele>
        <time>2020-07-02T15:45:29Z</time>
      </trkpt>
      <trkpt lat="47.8409230" lon="2.2515020">
        <ele>92.6</ele>
        <time>2020-07-02T15:45:33Z</time>
      </trkpt>
      <trkpt lat="47.8407450" lon="2.2518240">
        <ele>92.6</ele>
        <time>2020-07-02T15:45:38Z</time>
      </trkpt>
      <trkpt lat="47.8405560" lon="2.2522600">
        <ele>93.0</ele>
        <time>2020-07-02T15:45:45Z</time>
      </trkpt>
      <trkpt lat="47.8405080" lon="2.2523660">
        <ele>93.0</ele>
        <time>2020-07-02T15:45:47Z</time>
      </trkpt>
      <trkpt lat="47.8403830" lon="2.2525600">
        <ele>93.2</ele>
        <time>2020-07-02T15:45:51Z</time>
      </trkpt>
      <trkpt lat="47.8401440" lon="2.2528960">
        <ele>93.0</ele>
        <time>2020-07-02T15:45:58Z</time>
      </trkpt>
      <trkpt lat="47.8398850" lon="2.2531380">
        <ele>93.2</ele>
        <time>2020-07-02T15:46:05Z</time>
      </trkpt>
      <trkpt lat="47.8395760" lon="2.2535080">
        <ele>92.8</ele>
        <time>2020-07-02T15:46:13Z</time>
      </trkpt>
      <trkpt lat="47.8393070" lon="2.2539510">
        <ele>92.8</ele>
        <time>2020-07-02T15:46:21Z</time>
      </trkpt>
      <trkpt lat="47.8389840" lon="2.2545210">
        <ele>92.8</ele>
        <time>2020-07-02T15:46:30Z</time>
      </trkpt>
      <trkpt lat="47.8389180" lon="2.2546440">
        <ele>92.6</ele>
        <time>2020-07-02T15:46:32Z</time>
      </trkpt>
      <trkpt lat="47.8388840" lon="2.2547070">
        <ele>92.8</ele>
        <time>2020-07-02T15:46:33Z</time>
      </trkpt>
      <trkpt lat="47.8387900" lon="2.2548960">
        <ele>93.0</ele>
        <time>2020-07-02T15:46:36Z</time>
      </trkpt>
      <trkpt lat="47.8386100" lon="2.2552810">
        <ele>92.6</ele>
        <time>2020-07-02T15:46:42Z</time>
      </trkpt>
      <trkpt lat="47.8383020" lon="2.2559570">
        <ele>92.6</ele>
        <time>2020-07-02T15:46:51Z</time>
      </trkpt>
      <trkpt lat="47.8380990" lon="2.2564270">
        <ele>92.4</ele>
        <time>2020-07-02T15:46:57Z</time>
      </trkpt>
      <trkpt lat="47.8380050" lon="2.2566090">
        <ele>92.6</ele>
        <time>2020-07-02T15:47:00Z</time>
      </trkpt>
      <trkpt lat="47.8377750" lon="2.2571040">
        <ele>92.6</ele>
        <time>2020-07-02T15:47:08Z</time>
      </trkpt>
      <trkpt lat="47.8375110" lon="2.2577540">
        <ele>92.8</ele>
        <time>2020-07-02T15:47:17Z</time>
      </trkpt>
      <trkpt lat="47.8373890" lon="2.2580000">
        <ele>92.8</ele>
        <time>2020-07-02T15:47:21Z</time>
      </trkpt>
      <trkpt lat="47.8373190" lon="2.2581240">
        <ele>92.8</ele>
        <time>2020-07-02T15:47:23Z</time>
      </trkpt>
      <trkpt lat="47.8372770" lon="2.2581800">
        <ele>92.8</ele>
        <time>2020-07-02T15:47:24Z</time>
      </trkpt>
      <trkpt lat="47.8369860" lon="2.2584520">
        <ele>92.6</ele>
        <time>2020-07-02T15:47:30Z</time>
      </trkpt>
      <trkpt lat="47.8365420" lon="2.2588110">
        <ele>92.4</ele>
        <time>2020-07-02T15:47:39Z</time>
      </trkpt>
      <trkpt lat="47.8360090" lon="2.2591690">
        <ele>92.0</ele>
        <time>2020-07-02T15:47:49Z</time>
      </trkpt>
      <trkpt lat="47.8359530" lon="2.2592050">
        <ele>92.0</ele>
        <time>2020-07-02T15:47:50Z</time>
      </trkpt>
      <trkpt lat="47.8355460" lon="2.2595070">
        <ele>92.0</ele>
        <time>2020-07-02T15:47:58Z</time>
      </trkpt>
      <trkpt lat="47.8352850" lon="2.2597560">
        <ele>92.2</ele>
        <time>2020-07-02T15:48:05Z</time>
      </trkpt>
      <trkpt lat="47.8352470" lon="2.2597870">
        <ele>92.4</ele>
        <time>2020-07-02T15:48:06Z</time>
      </trkpt>
      <trkpt lat="47.8350250" lon="2.2600420">
        <ele>92.6</ele>
        <time>2020-07-02T15:48:12Z</time>
      </trkpt>
      <trkpt lat="47.8349920" lon="2.2601000">
        <ele>92.6</ele>
        <time>2020-07-02T15:48:13Z</time>
      </trkpt>
      <trkpt lat="47.8347930" lon="2.2605670">
        <ele>93.0</ele>
        <time>2020-07-02T15:48:20Z</time>
      </trkpt>
      <trkpt lat="47.8346810" lon="2.2609110">
        <ele>92.8</ele>
        <time>2020-07-02T15:48:24Z</time>
      </trkpt>
      <trkpt lat="47.8345990" lon="2.2610390">
        <ele>92.8</ele>
        <time>2020-07-02T15:48:26Z</time>
      </trkpt>
      <trkpt lat="47.8343380" lon="2.2612310">
        <ele>91.6</ele>
        <time>2020-07-02T15:48:31Z</time>
      </trkpt>
      <trkpt lat="47.8339900" lon="2.2614340">
        <ele>91.4</ele>
        <time>2020-07-02T15:48:38Z</time>
      </trkpt>
      <trkpt lat="47.8339390" lon="2.2614670">
        <ele>91.4</ele>
        <time>2020-07-02T15:48:39Z</time>
      </trkpt>
      <trkpt lat="47.8335540" lon="2.2616820">
        <ele>92.4</ele>
        <time>2020-07-02T15:48:46Z</time>
      </trkpt>
      <trkpt lat="47.8333950" lon="2.2617970">
        <ele>92.6</ele>
        <time>2020-07-02T15:48:49Z</time>
      </trkpt>
      <trkpt lat="47.8332390" lon="2.2619100">
        <ele>92.8</ele>
        <time>2020-07-02T15:48:52Z</time>
      </trkpt>
      <trkpt lat="47.8330010" lon="2.2621140">
        <ele>92.8</ele>
        <time>2020-07-02T15:48:57Z</time>
      </trkpt>
      <trkpt lat="47.8328590" lon="2.2622440">
        <ele>92.4</ele>
        <time>2020-07-02T15:49:00Z</time>
      </trkpt>
      <trkpt lat="47.8323680" lon="2.2626560">
        <ele>92.2</ele>
        <time>2020-07-02T15:49:10Z</time>
      </trkpt>
      <trkpt lat="47.8322170" lon="2.2627560">
        <ele>92.2</ele>
        <time>2020-07-02T15:49:13Z</time>
      </trkpt>
      <trkpt lat="47.8320100" lon="2.2628780">
        <ele>92.2</ele>
        <time>2020-07-02T15:49:17Z</time>
      </trkpt>
      <trkpt lat="47.8316040" lon="2.2630980">
        <ele>92.2</ele>
        <time>2020-07-02T15:49:25Z</time>
      </trkpt>
      <trkpt lat="47.8315550" lon="2.2631290">
        <ele>92.0</ele>
        <time>2020-07-02T15:49:26Z</time>
      </trkpt>
      <trkpt lat="47.8313610" lon="2.2632650">
        <ele>92.2</ele>
        <time>2020-07-02T15:49:30Z</time>
      </trkpt>
      <trkpt lat="47.8311280" lon="2.2634550">
        <ele>92.2</ele>
        <time>2020-07-02T15:49:35Z</time>
      </trkpt>
      <trkpt lat="47.8307940" lon="2.2636240">
        <ele>92.2</ele>
        <time>2020-07-02T15:49:42Z</time>
      </trkpt>
      <trkpt lat="47.8307510" lon="2.2636350">
        <ele>92.4</ele>
        <time>2020-07-02T15:49:43Z</time>
      </trkpt>
      <trkpt lat="47.8306810" lon="2.2636680">
        <ele>92.4</ele>
        <time>2020-07-02T15:49:45Z</time>
      </trkpt>
      <trkpt lat="47.8306380" lon="2.2637070">
        <ele>92.6</ele>
        <time>2020-07-02T15:49:47Z</time>
      </trkpt>
      <trkpt lat="47.8306280" lon="2.2638560">
        <ele>93.8</ele>
        <time>2020-07-02T15:49:52Z</time>
      </trkpt>
      <trkpt lat="47.8306860" lon="2.2642860">
        <ele>96.2</ele>
        <time>2020-07-02T15:50:00Z</time>
      </trkpt>
      <trkpt lat="47.8307810" lon="2.2649090">
        <ele>96.2</ele>
        <time>2020-07-02T15:50:09Z</time>
      </trkpt>
      <trkpt lat="47.8309420" lon="2.2656810">
        <ele>96.0</ele>
        <time>2020-07-02T15:50:19Z</time>
      </trkpt>
      <trkpt lat="47.8310030" lon="2.2663360">
        <ele>95.6</ele>
        <time>2020-07-02T15:50:27Z</time>
      </trkpt>
      <trkpt lat="47.8309550" lon="2.2671920">
        <ele>95.6</ele>
        <time>2020-07-02T15:50:37Z</time>
      </trkpt>
      <trkpt lat="47.8309500" lon="2.2672780">
        <ele>95.6</ele>
        <time>2020-07-02T15:50:38Z</time>
      </trkpt>
      <trkpt lat="47.8308960" lon="2.2680460">
        <ele>95.8</ele>
        <time>2020-07-02T15:50:47Z</time>
      </trkpt>
      <trkpt lat="47.8308630" lon="2.2683860">
        <ele>95.8</ele>
        <time>2020-07-02T15:50:51Z</time>
      </trkpt>
      <trkpt lat="47.8307810" lon="2.2692350">
        <ele>95.4</ele>
        <time>2020-07-02T15:51:01Z</time>
      </trkpt>
      <trkpt lat="47.8307710" lon="2.2693200">
        <ele>95.6</ele>
        <time>2020-07-02T15:51:02Z</time>
      </trkpt>
      <trkpt lat="47.8307340" lon="2.2696560">
        <ele>95.6</ele>
        <time>2020-07-02T15:51:06Z</time>
      </trkpt>
      <trkpt lat="47.8307340" lon="2.2700850">
        <ele>95.6</ele>
        <time>2020-07-02T15:51:11Z</time>
      </trkpt>
      <trkpt lat="47.8307460" lon="2.2701700">
        <ele>95.6</ele>
        <time>2020-07-02T15:51:12Z</time>
      </trkpt>
      <trkpt lat="47.8308920" lon="2.2708060">
        <ele>95.2</ele>
        <time>2020-07-02T15:51:20Z</time>
      </trkpt>
      <trkpt lat="47.8310710" lon="2.2716010">
        <ele>95.4</ele>
        <time>2020-07-02T15:51:30Z</time>
      </trkpt>
      <trkpt lat="47.8310950" lon="2.2717680">
        <ele>95.4</ele>
        <time>2020-07-02T15:51:32Z</time>
      </trkpt>
      <trkpt lat="47.8310930" lon="2.2722010">
        <ele>95.4</ele>
        <time>2020-07-02T15:51:37Z</time>
      </trkpt>
      <trkpt lat="47.8309750" lon="2.2729710">
        <ele>95.2</ele>
        <time>2020-07-02T15:51:46Z</time>
      </trkpt>
      <trkpt lat="47.8309570" lon="2.2735780">
        <ele>95.2</ele>
        <time>2020-07-02T15:51:53Z</time>
      </trkpt>
      <trkpt lat="47.8309720" lon="2.2744400">
        <ele>95.2</ele>
        <time>2020-07-02T15:52:03Z</time>
      </trkpt>
      <trkpt lat="47.8309700" lon="2.2745280">
        <ele>95.2</ele>
        <time>2020-07-02T15:52:04Z</time>
      </trkpt>
      <trkpt lat="47.8308880" lon="2.2754000">
        <ele>95.0</ele>
        <time>2020-07-02T15:52:14Z</time>
      </trkpt>
      <trkpt lat="47.8307390" lon="2.2762320">
        <ele>95.0</ele>
        <time>2020-07-02T15:52:24Z</time>
      </trkpt>
      <trkpt lat="47.8307460" lon="2.2766360">
        <ele>95.0</ele>
        <time>2020-07-02T15:52:29Z</time>
      </trkpt>
      <trkpt lat="47.8308870" lon="2.2773350">
        <ele>95.2</ele>
        <time>2020-07-02T15:52:38Z</time>
      </trkpt>
      <trkpt lat="47.8310580" lon="2.2781380">
        <ele>95.4</ele>
        <time>2020-07-02T15:52:48Z</time>
      </trkpt>
      <trkpt lat="47.8311490" lon="2.2786210">
        <ele>95.6</ele>
        <time>2020-07-02T15:52:54Z</time>
      </trkpt>
      <trkpt lat="47.8313000" lon="2.2794320">
        <ele>95.6</ele>
        <time>2020-07-02T15:53:04Z</time>
      </trkpt>
      <trkpt lat="47.8313320" lon="2.2796910">
        <ele>95.6</ele>
        <time>2020-07-02T15:53:07Z</time>
      </trkpt>
      <trkpt lat="47.8314070" lon="2.2805700">
        <ele>95.6</ele>
        <time>2020-07-02T15:53:17Z</time>
      </trkpt>
      <trkpt lat="47.8314440" lon="2.2812380">
        <ele>95.8</ele>
        <time>2020-07-02T15:53:25Z</time>
      </trkpt>
      <trkpt lat="47.8314450" lon="2.2815580">
        <ele>95.8</ele>
        <time>2020-07-02T15:53:30Z</time>
      </trkpt>
      <trkpt lat="47.8314360" lon="2.2815960">
        <ele>95.8</ele>
        <time>2020-07-02T15:53:31Z</time>
      </trkpt>
      <trkpt lat="47.8314040" lon="2.2817890">
        <ele>95.8</ele>
        <time>2020-07-02T15:53:37Z</time>
      </trkpt>
      <trkpt lat="47.8313800" lon="2.2822310">
        <ele>96.2</ele>
        <time>2020-07-02T15:53:46Z</time>
      </trkpt>
      <trkpt lat="47.8314070" lon="2.2824140">
        <ele>96.0</ele>
        <time>2020-07-02T15:53:51Z</time>
      </trkpt>
      <trkpt lat="47.8314310" lon="2.2824420">
        <ele>96.2</ele>
        <time>2020-07-02T15:53:52Z</time>
      </trkpt>
      <trkpt lat="47.8314870" lon="2.2824480">
        <ele>96.0</ele>
        <time>2020-07-02T15:53:54Z</time>
      </trkpt>
      <trkpt lat="47.8315140" lon="2.2824210">
        <ele>96.0</ele>
        <time>2020-07-02T15:53:55Z</time>
      </trkpt>
      <trkpt lat="47.8316120" lon="2.2822430">
        <ele>95.8</ele>
        <time>2020-07-02T15:54:00Z</time>
      </trkpt>
      <trkpt lat="47.8316270" lon="2.2823170">
        <ele>95.0</ele>
        <time>2020-07-02T15:54:03Z</time>
      </trkpt>
      <trkpt lat="47.8316150" lon="2.2823540">
        <ele>94.8</ele>
        <time>2020-07-02T15:54:04Z</time>
      </trkpt>
      <trkpt lat="47.8315840" lon="2.2824640">
        <ele>94.4</ele>
        <time>2020-07-02T15:54:06Z</time>
      </trkpt>
      <trkpt lat="47.8315720" lon="2.2825400">
        <ele>94.2</ele>
        <time>2020-07-02T15:54:07Z</time>
      </trkpt>
      <trkpt lat="47.8315340" lon="2.2827910">
        <ele>93.8</ele>
        <time>2020-07-02T15:54:10Z</time>
      </trkpt>
      <trkpt lat="47.8314700" lon="2.2831360">
        <ele>93.0</ele>
        <time>2020-07-02T15:54:14Z</time>
      </trkpt>
      <trkpt lat="47.8313500" lon="2.2837950">
        <ele>92.2</ele>
        <time>2020-07-02T15:54:22Z</time>
      </trkpt>
      <trkpt lat="47.8311930" lon="2.2845720">
        <ele>92.2</ele>
        <time>2020-07-02T15:54:32Z</time>
      </trkpt>
      <trkpt lat="47.8311730" lon="2.2846540">
        <ele>92.2</ele>
        <time>2020-07-02T15:54:33Z</time>
      </trkpt>
      <trkpt lat="47.8311200" lon="2.2848820">
        <ele>92.0</ele>
        <time>2020-07-02T15:54:36Z</time>
      </trkpt>
      <trkpt lat="47.8310740" lon="2.2850740">
        <ele>92.0</ele>
        <time>2020-07-02T15:54:39Z</time>
      </trkpt>
      <trkpt lat="47.8310610" lon="2.2851210">
        <ele>92.2</ele>
        <time>2020-07-02T15:54:40Z</time>
      </trkpt>
      <trkpt lat="47.8310360" lon="2.2852770">
        <ele>92.0</ele>
        <time>2020-07-02T15:54:44Z</time>
      </trkpt>
      <trkpt lat="47.8310960" lon="2.2855280">
        <ele>93.0</ele>
        <time>2020-07-02T15:54:49Z</time>
      </trkpt>
      <trkpt lat="47.8311230" lon="2.2858970">
        <ele>93.2</ele>
        <time>2020-07-02T15:54:55Z</time>
      </trkpt>
      <trkpt lat="47.8310830" lon="2.2862130">
        <ele>93.2</ele>
        <time>2020-07-02T15:55:00Z</time>
      </trkpt>
      <trkpt lat="47.8310620" lon="2.2863340">
        <ele>93.0</ele>
        <time>2020-07-02T15:55:02Z</time>
      </trkpt>
      <trkpt lat="47.8309200" lon="2.2868240">
        <ele>92.6</ele>
        <time>2020-07-02T15:55:11Z</time>
      </trkpt>
      <trkpt lat="47.8308390" lon="2.2871020">
        <ele>92.4</ele>
        <time>2020-07-02T15:55:18Z</time>
      </trkpt>
      <trkpt lat="47.8308170" lon="2.2872080">
        <ele>92.8</ele>
        <time>2020-07-02T15:55:25Z</time>
      </trkpt>
      <trkpt lat="47.8308120" lon="2.2872240">
        <ele>92.8</ele>
        <time>2020-07-02T15:55:37Z</time>
      </trkpt>
      <trkpt lat="47.8308170" lon="2.2872380">
        <ele>93.0</ele>
        <time>2020-07-02T15:56:03Z</time>
      </trkpt>
      <trkpt lat="47.8308210" lon="2.2873460">
        <ele>93.0</ele>
        <time>2020-07-02T15:56:17Z</time>
      </trkpt>
      <trkpt lat="47.8308460" lon="2.2874830">
        <ele>93.0</ele>
        <time>2020-07-02T15:56:24Z</time>
      </trkpt>
      <trkpt lat="47.8308540" lon="2.2875340">
        <ele>93.0</ele>
        <time>2020-07-02T15:56:26Z</time>
      </trkpt>
      <trkpt lat="47.8309450" lon="2.2877920">
        <ele>93.6</ele>
        <time>2020-07-02T15:56:34Z</time>
      </trkpt>
      <trkpt lat="47.8310840" lon="2.2880690">
        <ele>93.8</ele>
        <time>2020-07-02T15:56:41Z</time>
      </trkpt>
      <trkpt lat="47.8311380" lon="2.2883590">
        <ele>93.8</ele>
        <time>2020-07-02T15:56:46Z</time>
      </trkpt>
      <trkpt lat="47.8311000" lon="2.2887280">
        <ele>93.8</ele>
        <time>2020-07-02T15:56:52Z</time>
      </trkpt>
      <trkpt lat="47.8309230" lon="2.2894890">
        <ele>93.0</ele>
        <time>2020-07-02T15:57:05Z</time>
      </trkpt>
      <trkpt lat="47.8308570" lon="2.2897290">
        <ele>92.8</ele>
        <time>2020-07-02T15:57:09Z</time>
      </trkpt>
      <trkpt lat="47.8307800" lon="2.2899770">
        <ele>92.8</ele>
        <time>2020-07-02T15:57:13Z</time>
      </trkpt>
      <trkpt lat="47.8307140" lon="2.2901730">
        <ele>92.8</ele>
        <time>2020-07-02T15:57:16Z</time>
      </trkpt>
      <trkpt lat="47.8304460" lon="2.2908510">
        <ele>92.4</ele>
        <time>2020-07-02T15:57:26Z</time>
      </trkpt>
      <trkpt lat="47.8301440" lon="2.2915380">
        <ele>92.0</ele>
        <time>2020-07-02T15:57:36Z</time>
      </trkpt>
      <trkpt lat="47.8301130" lon="2.2916050">
        <ele>92.0</ele>
        <time>2020-07-02T15:57:37Z</time>
      </trkpt>
      <trkpt lat="47.8300840" lon="2.2916740">
        <ele>92.0</ele>
        <time>2020-07-02T15:57:38Z</time>
      </trkpt>
      <trkpt lat="47.8298500" lon="2.2921460">
        <ele>92.2</ele>
        <time>2020-07-02T15:57:45Z</time>
      </trkpt>
      <trkpt lat="47.8298180" lon="2.2922090">
        <ele>92.2</ele>
        <time>2020-07-02T15:57:46Z</time>
      </trkpt>
      <trkpt lat="47.8297580" lon="2.2923440">
        <ele>92.4</ele>
        <time>2020-07-02T15:57:48Z</time>
      </trkpt>
      <trkpt lat="47.8294900" lon="2.2927460">
        <ele>92.4</ele>
        <time>2020-07-02T15:57:55Z</time>
      </trkpt>
      <trkpt lat="47.8292000" lon="2.2932060">
        <ele>92.2</ele>
        <time>2020-07-02T15:58:03Z</time>
      </trkpt>
      <trkpt lat="47.8289600" lon="2.2937120">
        <ele>92.2</ele>
        <time>2020-07-02T15:58:11Z</time>
      </trkpt>
      <trkpt lat="47.8286170" lon="2.2942060">
        <ele>92.6</ele>
        <time>2020-07-02T15:58:20Z</time>
      </trkpt>
      <trkpt lat="47.8282750" lon="2.2946450">
        <ele>92.6</ele>
        <time>2020-07-02T15:58:29Z</time>
      </trkpt>
      <trkpt lat="47.8279710" lon="2.2951180">
        <ele>92.8</ele>
        <time>2020-07-02T15:58:38Z</time>
      </trkpt>
      <trkpt lat="47.8276650" lon="2.2956480">
        <ele>93.2</ele>
        <time>2020-07-02T15:58:48Z</time>
      </trkpt>
      <trkpt lat="47.8272860" lon="2.2963010">
        <ele>93.2</ele>
        <time>2020-07-02T15:59:00Z</time>
      </trkpt>
      <trkpt lat="47.8271570" lon="2.2964970">
        <ele>93.2</ele>
        <time>2020-07-02T15:59:04Z</time>
      </trkpt>
      <trkpt lat="47.8271280" lon="2.2965540">
        <ele>93.2</ele>
        <time>2020-07-02T15:59:05Z</time>
      </trkpt>
      <trkpt lat="47.8270990" lon="2.2966040">
        <ele>93.0</ele>
        <time>2020-07-02T15:59:06Z</time>
      </trkpt>
      <trkpt lat="47.8270620" lon="2.2966550">
        <ele>93.2</ele>
        <time>2020-07-02T15:59:07Z</time>
      </trkpt>
      <trkpt lat="47.8268920" lon="2.2968490">
        <ele>93.0</ele>
        <time>2020-07-02T15:59:11Z</time>
      </trkpt>
      <trkpt lat="47.8264480" lon="2.2973310">
        <ele>92.8</ele>
        <time>2020-07-02T15:59:21Z</time>
      </trkpt>
      <trkpt lat="47.8260590" lon="2.2975780">
        <ele>93.0</ele>
        <time>2020-07-02T15:59:29Z</time>
      </trkpt>
      <trkpt lat="47.8255310" lon="2.2978690">
        <ele>92.8</ele>
        <time>2020-07-02T15:59:39Z</time>
      </trkpt>
      <trkpt lat="47.8254260" lon="2.2979180">
        <ele>92.6</ele>
        <time>2020-07-02T15:59:41Z</time>
      </trkpt>
      <trkpt lat="47.8252690" lon="2.2979730">
        <ele>92.6</ele>
        <time>2020-07-02T15:59:44Z</time>
      </trkpt>
      <trkpt lat="47.8249950" lon="2.2980540">
        <ele>92.6</ele>
        <time>2020-07-02T15:59:49Z</time>
      </trkpt>
      <trkpt lat="47.8244210" lon="2.2980960">
        <ele>91.6</ele>
        <time>2020-07-02T15:59:59Z</time>
      </trkpt>
      <trkpt lat="47.8238470" lon="2.2979920">
        <ele>91.6</ele>
        <time>2020-07-02T16:00:09Z</time>
      </trkpt>
      <trkpt lat="47.8237950" lon="2.2979800">
        <ele>91.6</ele>
        <time>2020-07-02T16:00:10Z</time>
      </trkpt>
      <trkpt lat="47.8234340" lon="2.2979880">
        <ele>92.0</ele>
        <time>2020-07-02T16:00:17Z</time>
      </trkpt>
      <trkpt lat="47.8230030" lon="2.2981970">
        <ele>92.2</ele>
        <time>2020-07-02T16:00:26Z</time>
      </trkpt>
      <trkpt lat="47.8226050" lon="2.2982930">
        <ele>92.4</ele>
        <time>2020-07-02T16:00:34Z</time>
      </trkpt>
      <trkpt lat="47.8221920" lon="2.2984060">
        <ele>92.6</ele>
        <time>2020-07-02T16:00:42Z</time>
      </trkpt>
      <trkpt lat="47.8216660" lon="2.2986610">
        <ele>92.6</ele>
        <time>2020-07-02T16:00:52Z</time>
      </trkpt>
      <trkpt lat="47.8216170" lon="2.2986880">
        <ele>92.6</ele>
        <time>2020-07-02T16:00:53Z</time>
      </trkpt>
      <trkpt lat="47.8212330" lon="2.2988810">
        <ele>92.6</ele>
        <time>2020-07-02T16:01:01Z</time>
      </trkpt>
      <trkpt lat="47.8207130" lon="2.2991040">
        <ele>92.4</ele>
        <time>2020-07-02T16:01:11Z</time>
      </trkpt>
      <trkpt lat="47.8205520" lon="2.2991810">
        <ele>92.4</ele>
        <time>2020-07-02T16:01:14Z</time>
      </trkpt>
      <trkpt lat="47.8199810" lon="2.2994540">
        <ele>92.2</ele>
        <time>2020-07-02T16:01:24Z</time>
      </trkpt>
      <trkpt lat="47.8198630" lon="2.2995110">
        <ele>92.2</ele>
        <time>2020-07-02T16:01:26Z</time>
      </trkpt>
      <trkpt lat="47.8198060" lon="2.2995400">
        <ele>92.2</ele>
        <time>2020-07-02T16:01:27Z</time>
      </trkpt>
      <trkpt lat="47.8192510" lon="2.2998210">
        <ele>92.6</ele>
        <time>2020-07-02T16:01:37Z</time>
      </trkpt>
      <trkpt lat="47.8190310" lon="2.2999500">
        <ele>92.6</ele>
        <time>2020-07-02T16:01:41Z</time>
      </trkpt>
      <trkpt lat="47.8185000" lon="2.3002560">
        <ele>93.0</ele>
        <time>2020-07-02T16:01:51Z</time>
      </trkpt>
      <trkpt lat="47.8183520" lon="2.3003410">
        <ele>92.8</ele>
        <time>2020-07-02T16:01:54Z</time>
      </trkpt>
      <trkpt lat="47.8179830" lon="2.3004590">
        <ele>93.2</ele>
        <time>2020-07-02T16:02:02Z</time>
      </trkpt>
      <trkpt lat="47.8178390" lon="2.3004780">
        <ele>93.2</ele>
        <time>2020-07-02T16:02:05Z</time>
      </trkpt>
      <trkpt lat="47.8175850" lon="2.3005130">
        <ele>93.0</ele>
        <time>2020-07-02T16:02:10Z</time>
      </trkpt>
      <trkpt lat="47.8174890" lon="2.3004970">
        <ele>93.0</ele>
        <time>2020-07-02T16:02:12Z</time>
      </trkpt>
      <trkpt lat="47.8173530" lon="2.3004500">
        <ele>93.0</ele>
        <time>2020-07-02T16:02:15Z</time>
      </trkpt>
      <trkpt lat="47.8172590" lon="2.3004360">
        <ele>92.8</ele>
        <time>2020-07-02T16:02:17Z</time>
      </trkpt>
      <trkpt lat="47.8169060" lon="2.3004120">
        <ele>92.4</ele>
        <time>2020-07-02T16:02:24Z</time>
      </trkpt>
      <trkpt lat="47.8163530" lon="2.3003540">
        <ele>92.2</ele>
        <time>2020-07-02T16:02:34Z</time>
      </trkpt>
      <trkpt lat="47.8163020" lon="2.3003470">
        <ele>92.2</ele>
        <time>2020-07-02T16:02:35Z</time>
      </trkpt>
      <trkpt lat="47.8160390" lon="2.3003470">
        <ele>92.2</ele>
        <time>2020-07-02T16:02:41Z</time>
      </trkpt>
      <trkpt lat="47.8159470" lon="2.3002900">
        <ele>93.0</ele>
        <time>2020-07-02T16:02:45Z</time>
      </trkpt>
      <trkpt lat="47.8159460" lon="2.3002620">
        <ele>93.0</ele>
        <time>2020-07-02T16:02:46Z</time>
      </trkpt>
      <trkpt lat="47.8159400" lon="2.3000980">
        <ele>93.4</ele>
        <time>2020-07-02T16:02:51Z</time>
      </trkpt>
      <trkpt lat="47.8159570" lon="2.3000730">
        <ele>94.6</ele>
        <time>2020-07-02T16:02:57Z</time>
      </trkpt>
      <trkpt lat="47.8159600" lon="2.3000400">
        <ele>94.8</ele>
        <time>2020-07-02T16:03:10Z</time>
      </trkpt>
      <trkpt lat="47.8159440" lon="2.3000490">
        <ele>94.6</ele>
        <time>2020-07-02T16:03:38Z</time>
      </trkpt>
      <trkpt lat="47.8159140" lon="2.3000380">
        <ele>94.6</ele>
        <time>2020-07-02T16:03:41Z</time>
      </trkpt>
      <trkpt lat="47.8158390" lon="2.3000060">
        <ele>94.6</ele>
        <time>2020-07-02T16:03:47Z</time>
      </trkpt>
      <trkpt lat="47.8158230" lon="2.2999990">
        <ele>94.8</ele>
        <time>2020-07-02T16:03:48Z</time>
      </trkpt>
      <trkpt lat="47.8156770" lon="2.2999030">
        <ele>95.2</ele>
        <time>2020-07-02T16:03:55Z</time>
      </trkpt>
      <trkpt lat="47.8155600" lon="2.2998230">
        <ele>95.4</ele>
        <time>2020-07-02T16:03:59Z</time>
      </trkpt>
      <trkpt lat="47.8154570" lon="2.2997220">
        <ele>95.6</ele>
        <time>2020-07-02T16:04:03Z</time>
      </trkpt>
      <trkpt lat="47.8152180" lon="2.2995460">
        <ele>96.4</ele>
        <time>2020-07-02T16:04:11Z</time>
      </trkpt>
      <trkpt lat="47.8150980" lon="2.2994840">
        <ele>96.6</ele>
        <time>2020-07-02T16:04:16Z</time>
      </trkpt>
      <trkpt lat="47.8149800" lon="2.2994330">
        <ele>96.4</ele>
        <time>2020-07-02T16:04:21Z</time>
      </trkpt>
      <trkpt lat="47.8149240" lon="2.2994000">
        <ele>96.4</ele>
        <time>2020-07-02T16:04:23Z</time>
      </trkpt>
      <trkpt lat="47.8146920" lon="2.2992430">
        <ele>96.4</ele>
        <time>2020-07-02T16:04:29Z</time>
      </trkpt>
      <trkpt lat="47.8143310" lon="2.2989900">
        <ele>95.6</ele>
        <time>2020-07-02T16:04:38Z</time>
      </trkpt>
      <trkpt lat="47.8142480" lon="2.2989350">
        <ele>95.6</ele>
        <time>2020-07-02T16:04:40Z</time>
      </trkpt>
      <trkpt lat="47.8138970" lon="2.2987400">
        <ele>95.2</ele>
        <time>2020-07-02T16:04:50Z</time>
      </trkpt>
      <trkpt lat="47.8138540" lon="2.2987230">
        <ele>95.2</ele>
        <time>2020-07-02T16:04:51Z</time>
      </trkpt>
      <trkpt lat="47.8135440" lon="2.2986250">
        <ele>95.2</ele>
        <time>2020-07-02T16:04:58Z</time>
      </trkpt>
      <trkpt lat="47.8134530" lon="2.2985950">
        <ele>94.8</ele>
        <time>2020-07-02T16:05:00Z</time>
      </trkpt>
      <trkpt lat="47.8134070" lon="2.2985820">
        <ele>94.8</ele>
        <time>2020-07-02T16:05:01Z</time>
      </trkpt>
      <trkpt lat="47.8131850" lon="2.2984970">
        <ele>94.8</ele>
        <time>2020-07-02T16:05:06Z</time>
      </trkpt>
      <trkpt lat="47.8130540" lon="2.2984410">
        <ele>94.8</ele>
        <time>2020-07-02T16:05:09Z</time>
      </trkpt>
      <trkpt lat="47.8129170" lon="2.2983900">
        <ele>95.4</ele>
        <time>2020-07-02T16:05:12Z</time>
      </trkpt>
      <trkpt lat="47.8126820" lon="2.2983150">
        <ele>95.4</ele>
        <time>2020-07-02T16:05:17Z</time>
      </trkpt>
      <trkpt lat="47.8123370" lon="2.2982060">
        <ele>95.6</ele>
        <time>2020-07-02T16:05:24Z</time>
      </trkpt>
      <trkpt lat="47.8118280" lon="2.2980380">
        <ele>94.6</ele>
        <time>2020-07-02T16:05:35Z</time>
      </trkpt>
      <trkpt lat="47.8112560" lon="2.2978170">
        <ele>94.6</ele>
        <time>2020-07-02T16:05:47Z</time>
      </trkpt>
      <trkpt lat="47.8107090" lon="2.2975680">
        <ele>94.6</ele>
        <time>2020-07-02T16:05:58Z</time>
      </trkpt>
      <trkpt lat="47.8106100" lon="2.2975380">
        <ele>94.6</ele>
        <time>2020-07-02T16:06:00Z</time>
      </trkpt>
      <trkpt lat="47.8101380" lon="2.2974070">
        <ele>94.6</ele>
        <time>2020-07-02T16:06:10Z</time>
      </trkpt>
      <trkpt lat="47.8100980" lon="2.2973780">
        <ele>94.8</ele>
        <time>2020-07-02T16:06:11Z</time>
      </trkpt>
      <trkpt lat="47.8100580" lon="2.2973410">
        <ele>94.8</ele>
        <time>2020-07-02T16:06:12Z</time>
      </trkpt>
      <trkpt lat="47.8099870" lon="2.2972440">
        <ele>94.6</ele>
        <time>2020-07-02T16:06:14Z</time>
      </trkpt>
      <trkpt lat="47.8099270" lon="2.2971340">
        <ele>94.6</ele>
        <time>2020-07-02T16:06:16Z</time>
      </trkpt>
      <trkpt lat="47.8096640" lon="2.2967590">
        <ele>94.2</ele>
        <time>2020-07-02T16:06:23Z</time>
      </trkpt>
      <trkpt lat="47.8093140" lon="2.2963810">
        <ele>94.0</ele>
        <time>2020-07-02T16:06:32Z</time>
      </trkpt>
      <trkpt lat="47.8091060" lon="2.2962200">
        <ele>94.2</ele>
        <time>2020-07-02T16:06:36Z</time>
      </trkpt>
      <trkpt lat="47.8090150" lon="2.2961720">
        <ele>94.4</ele>
        <time>2020-07-02T16:06:39Z</time>
      </trkpt>
      <trkpt lat="47.8089690" lon="2.2961570">
        <ele>94.4</ele>
        <time>2020-07-02T16:06:40Z</time>
      </trkpt>
      <trkpt lat="47.8086350" lon="2.2961220">
        <ele>94.6</ele>
        <time>2020-07-02T16:06:47Z</time>
      </trkpt>
      <trkpt lat="47.8082820" lon="2.2960730">
        <ele>94.6</ele>
        <time>2020-07-02T16:06:54Z</time>
      </trkpt>
      <trkpt lat="47.8081330" lon="2.2960290">
        <ele>94.4</ele>
        <time>2020-07-02T16:06:57Z</time>
      </trkpt>
      <trkpt lat="47.8076890" lon="2.2958550">
        <ele>93.4</ele>
        <time>2020-07-02T16:07:07Z</time>
      </trkpt>
      <trkpt lat="47.8076500" lon="2.2958350">
        <ele>93.2</ele>
        <time>2020-07-02T16:07:08Z</time>
      </trkpt>
      <trkpt lat="47.8073900" lon="2.2956370">
        <ele>93.0</ele>
        <time>2020-07-02T16:07:15Z</time>
      </trkpt>
      <trkpt lat="47.8072340" lon="2.2954640">
        <ele>93.4</ele>
        <time>2020-07-02T16:07:20Z</time>
      </trkpt>
      <trkpt lat="47.8071330" lon="2.2953230">
        <ele>93.4</ele>
        <time>2020-07-02T16:07:24Z</time>
      </trkpt>
      <trkpt lat="47.8069240" lon="2.2950720">
        <ele>93.8</ele>
        <time>2020-07-02T16:07:31Z</time>
      </trkpt>
      <trkpt lat="47.8066050" lon="2.2948250">
        <ele>94.4</ele>
        <time>2020-07-02T16:07:40Z</time>
      </trkpt>
      <trkpt lat="47.8065480" lon="2.2948030">
        <ele>94.4</ele>
        <time>2020-07-02T16:07:44Z</time>
      </trkpt>
      <trkpt lat="47.8065320" lon="2.2948310">
        <ele>94.4</ele>
        <time>2020-07-02T16:07:46Z</time>
      </trkpt>
      <trkpt lat="47.8065110" lon="2.2949070">
        <ele>94.6</ele>
        <time>2020-07-02T16:07:50Z</time>
      </trkpt>
      <trkpt lat="47.8064690" lon="2.2951390">
        <ele>95.8</ele>
        <time>2020-07-02T16:07:59Z</time>
      </trkpt>
      <trkpt lat="47.8064130" lon="2.2954010">
        <ele>96.0</ele>
        <time>2020-07-02T16:08:05Z</time>
      </trkpt>
      <trkpt lat="47.8064070" lon="2.2954310">
        <ele>95.8</ele>
        <time>2020-07-02T16:08:06Z</time>
      </trkpt>
      <trkpt lat="47.8063260" lon="2.2955770">
        <ele>96.2</ele>
        <time>2020-07-02T16:08:13Z</time>
      </trkpt>
      <trkpt lat="47.8063050" lon="2.2955950">
        <ele>96.2</ele>
        <time>2020-07-02T16:08:14Z</time>
      </trkpt>
      <trkpt lat="47.8061610" lon="2.2956840">
        <ele>97.2</ele>
        <time>2020-07-02T16:08:20Z</time>
      </trkpt>
      <trkpt lat="47.8059330" lon="2.2958620">
        <ele>98.0</ele>
        <time>2020-07-02T16:08:29Z</time>
      </trkpt>
      <trkpt lat="47.8056770" lon="2.2959690">
        <ele>98.2</ele>
        <time>2020-07-02T16:08:39Z</time>
      </trkpt>
      <trkpt lat="47.8054810" lon="2.2960210">
        <ele>98.0</ele>
        <time>2020-07-02T16:08:45Z</time>
      </trkpt>
      <trkpt lat="47.8054310" lon="2.2960270">
        <ele>98.2</ele>
        <time>2020-07-02T16:08:46Z</time>
      </trkpt>
      <trkpt lat="47.8051600" lon="2.2959890">
        <ele>97.4</ele>
        <time>2020-07-02T16:08:52Z</time>
      </trkpt>
      <trkpt lat="47.8049660" lon="2.2958950">
        <ele>97.0</ele>
        <time>2020-07-02T16:08:58Z</time>
      </trkpt>
      <trkpt lat="47.8046420" lon="2.2956570">
        <ele>96.4</ele>
        <time>2020-07-02T16:09:06Z</time>
      </trkpt>
      <trkpt lat="47.8044100" lon="2.2955030">
        <ele>96.4</ele>
        <time>2020-07-02T16:09:11Z</time>
      </trkpt>
      <trkpt lat="47.8039420" lon="2.2952070">
        <ele>96.0</ele>
        <time>2020-07-02T16:09:20Z</time>
      </trkpt>
      <trkpt lat="47.8035480" lon="2.2950120">
        <ele>95.4</ele>
        <time>2020-07-02T16:09:28Z</time>
      </trkpt>
      <trkpt lat="47.8031260" lon="2.2948530">
        <ele>95.6</ele>
        <time>2020-07-02T16:09:37Z</time>
      </trkpt>
      <trkpt lat="47.8029820" lon="2.2947900">
        <ele>95.6</ele>
        <time>2020-07-02T16:09:40Z</time>
      </trkpt>
      <trkpt lat="47.8027320" lon="2.2946940">
        <ele>95.2</ele>
        <time>2020-07-02T16:09:45Z</time>
      </trkpt>
      <trkpt lat="47.8023240" lon="2.2946170">
        <ele>95.0</ele>
        <time>2020-07-02T16:09:53Z</time>
      </trkpt>
      <trkpt lat="47.8022140" lon="2.2946360">
        <ele>95.0</ele>
        <time>2020-07-02T16:09:55Z</time>
      </trkpt>
      <trkpt lat="47.8020630" lon="2.2946640">
        <ele>94.8</ele>
        <time>2020-07-02T16:09:58Z</time>
      </trkpt>
      <trkpt lat="47.8020170" lon="2.2946690">
        <ele>94.8</ele>
        <time>2020-07-02T16:09:59Z</time>
      </trkpt>
      <trkpt lat="47.8019340" lon="2.2946800">
        <ele>95.0</ele>
        <time>2020-07-02T16:10:01Z</time>
      </trkpt>
      <trkpt lat="47.8018110" lon="2.2946930">
        <ele>95.0</ele>
        <time>2020-07-02T16:10:05Z</time>
      </trkpt>
      <trkpt lat="47.8017570" lon="2.2947030">
        <ele>95.8</ele>
        <time>2020-07-02T16:10:08Z</time>
      </trkpt>
      <trkpt lat="47.8017440" lon="2.2946980">
        <ele>96.2</ele>
        <time>2020-07-02T16:10:09Z</time>
      </trkpt>
      <trkpt lat="47.8017210" lon="2.2946660">
        <ele>97.4</ele>
        <time>2020-07-02T16:10:11Z</time>
      </trkpt>
      <trkpt lat="47.8016410" lon="2.2944430">
        <ele>98.4</ele>
        <time>2020-07-02T16:10:18Z</time>
      </trkpt>
      <trkpt lat="47.8014510" lon="2.2939800">
        <ele>98.4</ele>
        <time>2020-07-02T16:10:29Z</time>
      </trkpt>
      <trkpt lat="47.8013920" lon="2.2938940">
        <ele>98.6</ele>
        <time>2020-07-02T16:10:31Z</time>
      </trkpt>
      <trkpt lat="47.8012170" lon="2.2937090">
        <ele>98.0</ele>
        <time>2020-07-02T16:10:36Z</time>
      </trkpt>
      <trkpt lat="47.8009600" lon="2.2935700">
        <ele>98.0</ele>
        <time>2020-07-02T16:10:42Z</time>
      </trkpt>
      <trkpt lat="47.8006260" lon="2.2935010">
        <ele>97.4</ele>
        <time>2020-07-02T16:10:49Z</time>
      </trkpt>
      <trkpt lat="47.8005280" lon="2.2934920">
        <ele>97.4</ele>
        <time>2020-07-02T16:10:51Z</time>
      </trkpt>
      <trkpt lat="47.7999710" lon="2.2934110">
        <ele>97.2</ele>
        <time>2020-07-02T16:11:02Z</time>
      </trkpt>
      <trkpt lat="47.7997620" lon="2.2933690">
        <ele>97.0</ele>
        <time>2020-07-02T16:11:06Z</time>
      </trkpt>
      <trkpt lat="47.7992590" lon="2.2932120">
        <ele>97.0</ele>
        <time>2020-07-02T16:11:16Z</time>
      </trkpt>
      <trkpt lat="47.7988610" lon="2.2930600">
        <ele>97.0</ele>
        <time>2020-07-02T16:11:24Z</time>
      </trkpt>
      <trkpt lat="47.7986780" lon="2.2929950">
        <ele>97.4</ele>
        <time>2020-07-02T16:11:28Z</time>
      </trkpt>
      <trkpt lat="47.7982740" lon="2.2928440">
        <ele>98.0</ele>
        <time>2020-07-02T16:11:38Z</time>
      </trkpt>
      <trkpt lat="47.7980760" lon="2.2928090">
        <ele>98.4</ele>
        <time>2020-07-02T16:11:44Z</time>
      </trkpt>
      <trkpt lat="47.7979930" lon="2.2927850">
        <ele>98.2</ele>
        <time>2020-07-02T16:11:47Z</time>
      </trkpt>
      <trkpt lat="47.7979670" lon="2.2927780">
        <ele>98.2</ele>
        <time>2020-07-02T16:11:48Z</time>
      </trkpt>
      <trkpt lat="47.7977780" lon="2.2927880">
        <ele>98.2</ele>
        <time>2020-07-02T16:11:54Z</time>
      </trkpt>
      <trkpt lat="47.7974010" lon="2.2928300">
        <ele>97.8</ele>
        <time>2020-07-02T16:12:03Z</time>
      </trkpt>
      <trkpt lat="47.7970650" lon="2.2928850">
        <ele>97.6</ele>
        <time>2020-07-02T16:12:11Z</time>
      </trkpt>
      <trkpt lat="47.7969810" lon="2.2929070">
        <ele>97.6</ele>
        <time>2020-07-02T16:12:13Z</time>
      </trkpt>
      <trkpt lat="47.7969370" lon="2.2929160">
        <ele>97.4</ele>
        <time>2020-07-02T16:12:14Z</time>
      </trkpt>
      <trkpt lat="47.7967960" lon="2.2929480">
        <ele>97.6</ele>
        <time>2020-07-02T16:12:17Z</time>
      </trkpt>
      <trkpt lat="47.7965920" lon="2.2929920">
        <ele>97.4</ele>
        <time>2020-07-02T16:12:21Z</time>
      </trkpt>
      <trkpt lat="47.7960260" lon="2.2931330">
        <ele>96.2</ele>
        <time>2020-07-02T16:12:32Z</time>
      </trkpt>
      <trkpt lat="47.7959750" lon="2.2931480">
        <ele>96.4</ele>
        <time>2020-07-02T16:12:33Z</time>
      </trkpt>
      <trkpt lat="47.7958240" lon="2.2932080">
        <ele>96.4</ele>
        <time>2020-07-02T16:12:36Z</time>
      </trkpt>
      <trkpt lat="47.7954560" lon="2.2933780">
        <ele>96.6</ele>
        <time>2020-07-02T16:12:43Z</time>
      </trkpt>
      <trkpt lat="47.7954010" lon="2.2934040">
        <ele>96.6</ele>
        <time>2020-07-02T16:12:44Z</time>
      </trkpt>
      <trkpt lat="47.7953480" lon="2.2934320">
        <ele>96.8</ele>
        <time>2020-07-02T16:12:45Z</time>
      </trkpt>
      <trkpt lat="47.7952410" lon="2.2934910">
        <ele>97.0</ele>
        <time>2020-07-02T16:12:47Z</time>
      </trkpt>
      <trkpt lat="47.7951350" lon="2.2935550">
        <ele>97.4</ele>
        <time>2020-07-02T16:12:49Z</time>
      </trkpt>
      <trkpt lat="47.7949240" lon="2.2936900">
        <ele>97.6</ele>
        <time>2020-07-02T16:12:53Z</time>
      </trkpt>
      <trkpt lat="47.7944030" lon="2.2940130">
        <ele>97.0</ele>
        <time>2020-07-02T16:13:03Z</time>
      </trkpt>
      <trkpt lat="47.7940920" lon="2.2942150">
        <ele>97.0</ele>
        <time>2020-07-02T16:13:09Z</time>
      </trkpt>
      <trkpt lat="47.7938400" lon="2.2943580">
        <ele>97.0</ele>
        <time>2020-07-02T16:13:14Z</time>
      </trkpt>
      <trkpt lat="47.7935740" lon="2.2945180">
        <ele>97.6</ele>
        <time>2020-07-02T16:13:19Z</time>
      </trkpt>
      <trkpt lat="47.7932960" lon="2.2946980">
        <ele>97.6</ele>
        <time>2020-07-02T16:13:24Z</time>
      </trkpt>
      <trkpt lat="47.7927810" lon="2.2950100">
        <ele>97.0</ele>
        <time>2020-07-02T16:13:34Z</time>
      </trkpt>
      <trkpt lat="47.7922820" lon="2.2954410">
        <ele>97.0</ele>
        <time>2020-07-02T16:13:44Z</time>
      </trkpt>
      <trkpt lat="47.7918590" lon="2.2959160">
        <ele>97.4</ele>
        <time>2020-07-02T16:13:53Z</time>
      </trkpt>
      <trkpt lat="47.7917720" lon="2.2960330">
        <ele>97.2</ele>
        <time>2020-07-02T16:13:54Z</time>
      </trkpt>
      <trkpt lat="47.7916860" lon="2.2961570">
        <ele>97.2</ele>
        <time>2020-07-02T16:13:56Z</time>
      </trkpt>
      <trkpt lat="47.7912870" lon="2.2968040">
        <ele>96.8</ele>
        <time>2020-07-02T16:14:07Z</time>
      </trkpt>
      <trkpt lat="47.7909260" lon="2.2974500">
        <ele>96.8</ele>
        <time>2020-07-02T16:14:17Z</time>
      </trkpt>
      <trkpt lat="47.7908950" lon="2.2975190">
        <ele>96.6</ele>
        <time>2020-07-02T16:14:18Z</time>
      </trkpt>
      <trkpt lat="47.7908650" lon="2.2975880">
        <ele>96.8</ele>
        <time>2020-07-02T16:14:19Z</time>
      </trkpt>
      <trkpt lat="47.7906000" lon="2.2983110">
        <ele>97.4</ele>
        <time>2020-07-02T16:14:29Z</time>
      </trkpt>
      <trkpt lat="47.7903650" lon="2.2990780">
        <ele>97.6</ele>
        <time>2020-07-02T16:14:39Z</time>
      </trkpt>
      <trkpt lat="47.7903220" lon="2.2992240">
        <ele>97.8</ele>
        <time>2020-07-02T16:14:41Z</time>
      </trkpt>
      <trkpt lat="47.7901300" lon="2.2999340">
        <ele>98.2</ele>
        <time>2020-07-02T16:14:51Z</time>
      </trkpt>
      <trkpt lat="47.7899920" lon="2.3004940">
        <ele>98.2</ele>
        <time>2020-07-02T16:15:00Z</time>
      </trkpt>
      <trkpt lat="47.7899370" lon="2.3010250">
        <ele>98.2</ele>
        <time>2020-07-02T16:15:07Z</time>
      </trkpt>
      <trkpt lat="47.7899430" lon="2.3014200">
        <ele>98.4</ele>
        <time>2020-07-02T16:15:12Z</time>
      </trkpt>
      <trkpt lat="47.7899610" lon="2.3017580">
        <ele>98.0</ele>
        <time>2020-07-02T16:15:16Z</time>
      </trkpt>
      <trkpt lat="47.7900600" lon="2.3025680">
        <ele>98.2</ele>
        <time>2020-07-02T16:15:25Z</time>
      </trkpt>
      <trkpt lat="47.7900720" lon="2.3026540">
        <ele>98.0</ele>
        <time>2020-07-02T16:15:26Z</time>
      </trkpt>
      <trkpt lat="47.7901740" lon="2.3035250">
        <ele>98.0</ele>
        <time>2020-07-02T16:15:36Z</time>
      </trkpt>
      <trkpt lat="47.7901980" lon="2.3037080">
        <ele>98.2</ele>
        <time>2020-07-02T16:15:38Z</time>
      </trkpt>
      <trkpt lat="47.7902590" lon="2.3045150">
        <ele>97.8</ele>
        <time>2020-07-02T16:15:46Z</time>
      </trkpt>
      <trkpt lat="47.7902640" lon="2.3046200">
        <ele>97.8</ele>
        <time>2020-07-02T16:15:47Z</time>
      </trkpt>
      <trkpt lat="47.7902740" lon="2.3053870">
        <ele>97.6</ele>
        <time>2020-07-02T16:15:55Z</time>
      </trkpt>
      <trkpt lat="47.7902450" lon="2.3059050">
        <ele>97.6</ele>
        <time>2020-07-02T16:16:02Z</time>
      </trkpt>
      <trkpt lat="47.7901670" lon="2.3065920">
        <ele>97.8</ele>
        <time>2020-07-02T16:16:11Z</time>
      </trkpt>
      <trkpt lat="47.7901520" lon="2.3073160">
        <ele>97.6</ele>
        <time>2020-07-02T16:16:19Z</time>
      </trkpt>
      <trkpt lat="47.7902270" lon="2.3080880">
        <ele>97.6</ele>
        <time>2020-07-02T16:16:28Z</time>
      </trkpt>
      <trkpt lat="47.7902750" lon="2.3089440">
        <ele>98.0</ele>
        <time>2020-07-02T16:16:38Z</time>
      </trkpt>
      <trkpt lat="47.7902900" lon="2.3091990">
        <ele>98.0</ele>
        <time>2020-07-02T16:16:41Z</time>
      </trkpt>
      <trkpt lat="47.7903340" lon="2.3100620">
        <ele>98.0</ele>
        <time>2020-07-02T16:16:51Z</time>
      </trkpt>
      <trkpt lat="47.7903390" lon="2.3101520">
        <ele>98.2</ele>
        <time>2020-07-02T16:16:52Z</time>
      </trkpt>
      <trkpt lat="47.7903900" lon="2.3110340">
        <ele>98.2</ele>
        <time>2020-07-02T16:17:01Z</time>
      </trkpt>
      <trkpt lat="47.7904370" lon="2.3115640">
        <ele>98.4</ele>
        <time>2020-07-02T16:17:07Z</time>
      </trkpt>
      <trkpt lat="47.7905010" lon="2.3123830">
        <ele>98.4</ele>
        <time>2020-07-02T16:17:17Z</time>
      </trkpt>
      <trkpt lat="47.7905130" lon="2.3125710">
        <ele>98.2</ele>
        <time>2020-07-02T16:17:19Z</time>
      </trkpt>
      <trkpt lat="47.7905750" lon="2.3133950">
        <ele>98.2</ele>
        <time>2020-07-02T16:17:28Z</time>
      </trkpt>
      <trkpt lat="47.7905980" lon="2.3137550">
        <ele>98.0</ele>
        <time>2020-07-02T16:17:32Z</time>
      </trkpt>
      <trkpt lat="47.7906520" lon="2.3145790">
        <ele>98.0</ele>
        <time>2020-07-02T16:17:41Z</time>
      </trkpt>
      <trkpt lat="47.7907050" lon="2.3150300">
        <ele>98.0</ele>
        <time>2020-07-02T16:17:46Z</time>
      </trkpt>
      <trkpt lat="47.7907930" lon="2.3158370">
        <ele>98.0</ele>
        <time>2020-07-02T16:17:55Z</time>
      </trkpt>
      <trkpt lat="47.7908420" lon="2.3162800">
        <ele>98.2</ele>
        <time>2020-07-02T16:18:00Z</time>
      </trkpt>
      <trkpt lat="47.7908720" lon="2.3171070">
        <ele>98.2</ele>
        <time>2020-07-02T16:18:09Z</time>
      </trkpt>
      <trkpt lat="47.7908230" lon="2.3179300">
        <ele>98.2</ele>
        <time>2020-07-02T16:18:18Z</time>
      </trkpt>
      <trkpt lat="47.7908200" lon="2.3181030">
        <ele>98.2</ele>
        <time>2020-07-02T16:18:20Z</time>
      </trkpt>
      <trkpt lat="47.7908190" lon="2.3187300">
        <ele>98.6</ele>
        <time>2020-07-02T16:18:27Z</time>
      </trkpt>
      <trkpt lat="47.7908270" lon="2.3190950">
        <ele>98.6</ele>
        <time>2020-07-02T16:18:31Z</time>
      </trkpt>
      <trkpt lat="47.7908420" lon="2.3199410">
        <ele>98.6</ele>
        <time>2020-07-02T16:18:40Z</time>
      </trkpt>
      <trkpt lat="47.7908410" lon="2.3202290">
        <ele>98.6</ele>
        <time>2020-07-02T16:18:43Z</time>
      </trkpt>
      <trkpt lat="47.7908680" lon="2.3211090">
        <ele>98.4</ele>
        <time>2020-07-02T16:18:52Z</time>
      </trkpt>
      <trkpt lat="47.7908670" lon="2.3214960">
        <ele>98.2</ele>
        <time>2020-07-02T16:18:56Z</time>
      </trkpt>
      <trkpt lat="47.7907930" lon="2.3223570">
        <ele>98.4</ele>
        <time>2020-07-02T16:19:05Z</time>
      </trkpt>
      <trkpt lat="47.7907050" lon="2.3231770">
        <ele>98.2</ele>
        <time>2020-07-02T16:19:14Z</time>
      </trkpt>
      <trkpt lat="47.7906530" lon="2.3236210">
        <ele>98.2</ele>
        <time>2020-07-02T16:19:19Z</time>
      </trkpt>
      <trkpt lat="47.7905190" lon="2.3242940">
        <ele>98.2</ele>
        <time>2020-07-02T16:19:27Z</time>
      </trkpt>
      <trkpt lat="47.7904820" lon="2.3244590">
        <ele>98.2</ele>
        <time>2020-07-02T16:19:29Z</time>
      </trkpt>
      <trkpt lat="47.7903460" lon="2.3250580">
        <ele>98.2</ele>
        <time>2020-07-02T16:19:36Z</time>
      </trkpt>
      <trkpt lat="47.7902170" lon="2.3256560">
        <ele>98.6</ele>
        <time>2020-07-02T16:19:43Z</time>
      </trkpt>
      <trkpt lat="47.7900920" lon="2.3262260">
        <ele>98.6</ele>
        <time>2020-07-02T16:19:50Z</time>
      </trkpt>
      <trkpt lat="47.7900280" lon="2.3266200">
        <ele>98.6</ele>
        <time>2020-07-02T16:19:55Z</time>
      </trkpt>
      <trkpt lat="47.7898870" lon="2.3272000">
        <ele>99.2</ele>
        <time>2020-07-02T16:20:03Z</time>
      </trkpt>
      <trkpt lat="47.7897610" lon="2.3275710">
        <ele>99.2</ele>
        <time>2020-07-02T16:20:08Z</time>
      </trkpt>
      <trkpt lat="47.7896980" lon="2.3277230">
        <ele>99.0</ele>
        <time>2020-07-02T16:20:10Z</time>
      </trkpt>
      <trkpt lat="47.7893890" lon="2.3284280">
        <ele>98.6</ele>
        <time>2020-07-02T16:20:19Z</time>
      </trkpt>
      <trkpt lat="47.7893190" lon="2.3285840">
        <ele>98.6</ele>
        <time>2020-07-02T16:20:21Z</time>
      </trkpt>
      <trkpt lat="47.7890080" lon="2.3292790">
        <ele>98.2</ele>
        <time>2020-07-02T16:20:30Z</time>
      </trkpt>
      <trkpt lat="47.7889730" lon="2.3293550">
        <ele>98.2</ele>
        <time>2020-07-02T16:20:31Z</time>
      </trkpt>
      <trkpt lat="47.7889380" lon="2.3294280">
        <ele>98.2</ele>
        <time>2020-07-02T16:20:32Z</time>
      </trkpt>
      <trkpt lat="47.7887060" lon="2.3299500">
        <ele>98.0</ele>
        <time>2020-07-02T16:20:39Z</time>
      </trkpt>
      <trkpt lat="47.7885410" lon="2.3303330">
        <ele>98.0</ele>
        <time>2020-07-02T16:20:44Z</time>
      </trkpt>
      <trkpt lat="47.7883720" lon="2.3307120">
        <ele>97.8</ele>
        <time>2020-07-02T16:20:49Z</time>
      </trkpt>
      <trkpt lat="47.7881710" lon="2.3311660">
        <ele>97.6</ele>
        <time>2020-07-02T16:20:55Z</time>
      </trkpt>
      <trkpt lat="47.7880720" lon="2.3314010">
        <ele>97.6</ele>
        <time>2020-07-02T16:20:58Z</time>
      </trkpt>
      <trkpt lat="47.7877740" lon="2.3321270">
        <ele>97.6</ele>
        <time>2020-07-02T16:21:07Z</time>
      </trkpt>
      <trkpt lat="47.7874900" lon="2.3328210">
        <ele>97.6</ele>
        <time>2020-07-02T16:21:16Z</time>
      </trkpt>
      <trkpt lat="47.7873700" lon="2.3331470">
        <ele>97.6</ele>
        <time>2020-07-02T16:21:20Z</time>
      </trkpt>
      <trkpt lat="47.7872100" lon="2.3336010">
        <ele>98.0</ele>
        <time>2020-07-02T16:21:26Z</time>
      </trkpt>
      <trkpt lat="47.7871140" lon="2.3339060">
        <ele>98.4</ele>
        <time>2020-07-02T16:21:30Z</time>
      </trkpt>
      <trkpt lat="47.7870970" lon="2.3339830">
        <ele>98.2</ele>
        <time>2020-07-02T16:21:31Z</time>
      </trkpt>
      <trkpt lat="47.7870590" lon="2.3341810">
        <ele>98.6</ele>
        <time>2020-07-02T16:21:34Z</time>
      </trkpt>
      <trkpt lat="47.7870640" lon="2.3342930">
        <ele>98.6</ele>
        <time>2020-07-02T16:21:36Z</time>
      </trkpt>
      <trkpt lat="47.7870890" lon="2.3343330">
        <ele>98.6</ele>
        <time>2020-07-02T16:21:37Z</time>
      </trkpt>
      <trkpt lat="47.7871470" lon="2.3343850">
        <ele>98.8</ele>
        <time>2020-07-02T16:21:39Z</time>
      </trkpt>
      <trkpt lat="47.7872560" lon="2.3343440">
        <ele>98.8</ele>
        <time>2020-07-02T16:21:42Z</time>
      </trkpt>
      <trkpt lat="47.7873120" lon="2.3343290">
        <ele>98.8</ele>
        <time>2020-07-02T16:21:44Z</time>
      </trkpt>
      <trkpt lat="47.7873300" lon="2.3343440">
        <ele>98.8</ele>
        <time>2020-07-02T16:21:45Z</time>
      </trkpt>
      <trkpt lat="47.7873370" lon="2.3343730">
        <ele>98.8</ele>
        <time>2020-07-02T16:21:46Z</time>
      </trkpt>
      <trkpt lat="47.7873220" lon="2.3344590">
        <ele>98.6</ele>
        <time>2020-07-02T16:21:48Z</time>
      </trkpt>
      <trkpt lat="47.7872980" lon="2.3345100">
        <ele>98.4</ele>
        <time>2020-07-02T16:21:49Z</time>
      </trkpt>
      <trkpt lat="47.7872010" lon="2.3347060">
        <ele>98.2</ele>
        <time>2020-07-02T16:21:52Z</time>
      </trkpt>
      <trkpt lat="47.7869790" lon="2.3351650">
        <ele>96.4</ele>
        <time>2020-07-02T16:21:58Z</time>
      </trkpt>
      <trkpt lat="47.7869010" lon="2.3353100">
        <ele>95.6</ele>
        <time>2020-07-02T16:22:00Z</time>
      </trkpt>
      <trkpt lat="47.7868600" lon="2.3353820">
        <ele>95.4</ele>
        <time>2020-07-02T16:22:01Z</time>
      </trkpt>
      <trkpt lat="47.7865800" lon="2.3359040">
        <ele>94.8</ele>
        <time>2020-07-02T16:22:08Z</time>
      </trkpt>
      <trkpt lat="47.7864470" lon="2.3361240">
        <ele>94.6</ele>
        <time>2020-07-02T16:22:11Z</time>
      </trkpt>
      <trkpt lat="47.7860700" lon="2.3367760">
        <ele>94.2</ele>
        <time>2020-07-02T16:22:20Z</time>
      </trkpt>
      <trkpt lat="47.7859820" lon="2.3369010">
        <ele>94.2</ele>
        <time>2020-07-02T16:22:22Z</time>
      </trkpt>
      <trkpt lat="47.7855940" lon="2.3375580">
        <ele>94.4</ele>
        <time>2020-07-02T16:22:32Z</time>
      </trkpt>
      <trkpt lat="47.7852420" lon="2.3381860">
        <ele>94.6</ele>
        <time>2020-07-02T16:22:40Z</time>
      </trkpt>
      <trkpt lat="47.7851660" lon="2.3383260">
        <ele>94.6</ele>
        <time>2020-07-02T16:22:42Z</time>
      </trkpt>
      <trkpt lat="47.7851660" lon="2.3383260">
        <ele>94.6</ele>
        <time>2020-07-02T16:22:43Z</time>
      </trkpt>
      <trkpt lat="47.7848620" lon="2.3388760">
        <ele>94.6</ele>
        <time>2020-07-02T16:22:51Z</time>
      </trkpt>
      <trkpt lat="47.7848250" lon="2.3389500">
        <ele>94.4</ele>
        <time>2020-07-02T16:22:52Z</time>
      </trkpt>
      <trkpt lat="47.7845550" lon="2.3394840">
        <ele>94.2</ele>
        <time>2020-07-02T16:22:59Z</time>
      </trkpt>
      <trkpt lat="47.7841810" lon="2.3400920">
        <ele>94.2</ele>
        <time>2020-07-02T16:23:08Z</time>
      </trkpt>
      <trkpt lat="47.7840600" lon="2.3402870">
        <ele>94.0</ele>
        <time>2020-07-02T16:23:11Z</time>
      </trkpt>
      <trkpt lat="47.7836840" lon="2.3408550">
        <ele>94.2</ele>
        <time>2020-07-02T16:23:20Z</time>
      </trkpt>
      <trkpt lat="47.7835620" lon="2.3410300">
        <ele>94.2</ele>
        <time>2020-07-02T16:23:23Z</time>
      </trkpt>
      <trkpt lat="47.7832340" lon="2.3414640">
        <ele>94.6</ele>
        <time>2020-07-02T16:23:31Z</time>
      </trkpt>
      <trkpt lat="47.7828000" lon="2.3420400">
        <ele>95.0</ele>
        <time>2020-07-02T16:23:41Z</time>
      </trkpt>
      <trkpt lat="47.7824340" lon="2.3425250">
        <ele>95.4</ele>
        <time>2020-07-02T16:23:50Z</time>
      </trkpt>
      <trkpt lat="47.7819980" lon="2.3430540">
        <ele>95.4</ele>
        <time>2020-07-02T16:24:00Z</time>
      </trkpt>
      <trkpt lat="47.7816770" lon="2.3434080">
        <ele>95.4</ele>
        <time>2020-07-02T16:24:08Z</time>
      </trkpt>
      <trkpt lat="47.7812090" lon="2.3438730">
        <ele>95.2</ele>
        <time>2020-07-02T16:24:18Z</time>
      </trkpt>
      <trkpt lat="47.7807180" lon="2.3443670">
        <ele>95.0</ele>
        <time>2020-07-02T16:24:28Z</time>
      </trkpt>
      <trkpt lat="47.7806180" lon="2.3444730">
        <ele>95.0</ele>
        <time>2020-07-02T16:24:30Z</time>
      </trkpt>
      <trkpt lat="47.7803090" lon="2.3447850">
        <ele>94.6</ele>
        <time>2020-07-02T16:24:36Z</time>
      </trkpt>
      <trkpt lat="47.7800540" lon="2.3450420">
        <ele>94.4</ele>
        <time>2020-07-02T16:24:41Z</time>
      </trkpt>
      <trkpt lat="47.7799030" lon="2.3452030">
        <ele>94.4</ele>
        <time>2020-07-02T16:24:44Z</time>
      </trkpt>
      <trkpt lat="47.7794130" lon="2.3456870">
        <ele>94.4</ele>
        <time>2020-07-02T16:24:54Z</time>
      </trkpt>
      <trkpt lat="47.7792170" lon="2.3458780">
        <ele>94.4</ele>
        <time>2020-07-02T16:24:58Z</time>
      </trkpt>
      <trkpt lat="47.7787340" lon="2.3463420">
        <ele>94.6</ele>
        <time>2020-07-02T16:25:08Z</time>
      </trkpt>
      <trkpt lat="47.7785540" lon="2.3465400">
        <ele>94.6</ele>
        <time>2020-07-02T16:25:12Z</time>
      </trkpt>
      <trkpt lat="47.7781620" lon="2.3470310">
        <ele>95.2</ele>
        <time>2020-07-02T16:25:21Z</time>
      </trkpt>
      <trkpt lat="47.7779460" lon="2.3473220">
        <ele>95.4</ele>
        <time>2020-07-02T16:25:26Z</time>
      </trkpt>
      <trkpt lat="47.7775070" lon="2.3479120">
        <ele>95.4</ele>
        <time>2020-07-02T16:25:36Z</time>
      </trkpt>
      <trkpt lat="47.7773730" lon="2.3480940">
        <ele>95.6</ele>
        <time>2020-07-02T16:25:39Z</time>
      </trkpt>
      <trkpt lat="47.7769270" lon="2.3486730">
        <ele>95.4</ele>
        <time>2020-07-02T16:25:49Z</time>
      </trkpt>
      <trkpt lat="47.7768420" lon="2.3487870">
        <ele>95.4</ele>
        <time>2020-07-02T16:25:51Z</time>
      </trkpt>
      <trkpt lat="47.7764200" lon="2.3493610">
        <ele>95.4</ele>
        <time>2020-07-02T16:26:00Z</time>
      </trkpt>
      <trkpt lat="47.7761080" lon="2.3497560">
        <ele>95.4</ele>
        <time>2020-07-02T16:26:08Z</time>
      </trkpt>
      <trkpt lat="47.7756510" lon="2.3503170">
        <ele>95.6</ele>
        <time>2020-07-02T16:26:18Z</time>
      </trkpt>
      <trkpt lat="47.7755640" lon="2.3504340">
        <ele>95.6</ele>
        <time>2020-07-02T16:26:20Z</time>
      </trkpt>
      <trkpt lat="47.7754340" lon="2.3506230">
        <ele>95.4</ele>
        <time>2020-07-02T16:26:23Z</time>
      </trkpt>
      <trkpt lat="47.7751770" lon="2.3510250">
        <ele>95.2</ele>
        <time>2020-07-02T16:26:29Z</time>
      </trkpt>
      <trkpt lat="47.7747930" lon="2.3516070">
        <ele>95.0</ele>
        <time>2020-07-02T16:26:38Z</time>
      </trkpt>
      <trkpt lat="47.7745350" lon="2.3519910">
        <ele>95.0</ele>
        <time>2020-07-02T16:26:44Z</time>
      </trkpt>
      <trkpt lat="47.7741920" lon="2.3526120">
        <ele>95.6</ele>
        <time>2020-07-02T16:26:53Z</time>
      </trkpt>
      <trkpt lat="47.7741310" lon="2.3527600">
        <ele>95.6</ele>
        <time>2020-07-02T16:26:54Z</time>
      </trkpt>
      <trkpt lat="47.7741030" lon="2.3528360">
        <ele>95.6</ele>
        <time>2020-07-02T16:26:55Z</time>
      </trkpt>
      <trkpt lat="47.7740770" lon="2.3529170">
        <ele>95.6</ele>
        <time>2020-07-02T16:26:57Z</time>
      </trkpt>
      <trkpt lat="47.7738840" lon="2.3536140">
        <ele>95.4</ele>
        <time>2020-07-02T16:27:04Z</time>
      </trkpt>
      <trkpt lat="47.7736580" lon="2.3543910">
        <ele>95.0</ele>
        <time>2020-07-02T16:27:14Z</time>
      </trkpt>
      <trkpt lat="47.7735890" lon="2.3546450">
        <ele>95.0</ele>
        <time>2020-07-02T16:27:17Z</time>
      </trkpt>
      <trkpt lat="47.7735630" lon="2.3547320">
        <ele>95.0</ele>
        <time>2020-07-02T16:27:18Z</time>
      </trkpt>
      <trkpt lat="47.7733230" lon="2.3554970">
        <ele>94.8</ele>
        <time>2020-07-02T16:27:27Z</time>
      </trkpt>
      <trkpt lat="47.7732980" lon="2.3555750">
        <ele>94.6</ele>
        <time>2020-07-02T16:27:28Z</time>
      </trkpt>
      <trkpt lat="47.7730620" lon="2.3562980">
        <ele>94.4</ele>
        <time>2020-07-02T16:27:37Z</time>
      </trkpt>
      <trkpt lat="47.7729610" lon="2.3566010">
        <ele>94.4</ele>
        <time>2020-07-02T16:27:41Z</time>
      </trkpt>
      <trkpt lat="47.7729100" lon="2.3567560">
        <ele>94.6</ele>
        <time>2020-07-02T16:27:43Z</time>
      </trkpt>
      <trkpt lat="47.7726940" lon="2.3575130">
        <ele>95.0</ele>
        <time>2020-07-02T16:27:53Z</time>
      </trkpt>
      <trkpt lat="47.7726540" lon="2.3576700">
        <ele>95.2</ele>
        <time>2020-07-02T16:27:55Z</time>
      </trkpt>
      <trkpt lat="47.7725220" lon="2.3583950">
        <ele>95.6</ele>
        <time>2020-07-02T16:28:04Z</time>
      </trkpt>
      <trkpt lat="47.7723920" lon="2.3593190">
        <ele>95.4</ele>
        <time>2020-07-02T16:28:14Z</time>
      </trkpt>
      <trkpt lat="47.7723590" lon="2.3595620">
        <ele>95.4</ele>
        <time>2020-07-02T16:28:18Z</time>
      </trkpt>
      <trkpt lat="47.7722560" lon="2.3602880">
        <ele>95.6</ele>
        <time>2020-07-02T16:28:28Z</time>
      </trkpt>
      <trkpt lat="47.7722380" lon="2.3605090">
        <ele>95.6</ele>
        <time>2020-07-02T16:28:30Z</time>
      </trkpt>
      <trkpt lat="47.7722270" lon="2.3608990">
        <ele>96.0</ele>
        <time>2020-07-02T16:28:36Z</time>
      </trkpt>
      <trkpt lat="47.7721400" lon="2.3616000">
        <ele>96.0</ele>
        <time>2020-07-02T16:28:45Z</time>
      </trkpt>
      <trkpt lat="47.7720970" lon="2.3621590">
        <ele>95.8</ele>
        <time>2020-07-02T16:28:53Z</time>
      </trkpt>
      <trkpt lat="47.7720640" lon="2.3624740">
        <ele>96.0</ele>
        <time>2020-07-02T16:28:59Z</time>
      </trkpt>
      <trkpt lat="47.7720580" lon="2.3625580">
        <ele>95.8</ele>
        <time>2020-07-02T16:29:01Z</time>
      </trkpt>
      <trkpt lat="47.7720400" lon="2.3626200">
        <ele>96.0</ele>
        <time>2020-07-02T16:29:03Z</time>
      </trkpt>
      <trkpt lat="47.7719940" lon="2.3627220">
        <ele>96.4</ele>
        <time>2020-07-02T16:29:08Z</time>
      </trkpt>
      <trkpt lat="47.7719570" lon="2.3628870">
        <ele>98.6</ele>
        <time>2020-07-02T16:29:16Z</time>
      </trkpt>
      <trkpt lat="47.7718810" lon="2.3630660">
        <ele>99.0</ele>
        <time>2020-07-02T16:29:22Z</time>
      </trkpt>
      <trkpt lat="47.7718810" lon="2.3630660">
        <ele>99.0</ele>
        <time>2020-07-02T16:29:23Z</time>
      </trkpt>
      <trkpt lat="47.7718640" lon="2.3634060">
        <ele>99.4</ele>
        <time>2020-07-02T16:29:31Z</time>
      </trkpt>
      <trkpt lat="47.7718680" lon="2.3636740">
        <ele>99.6</ele>
        <time>2020-07-02T16:29:39Z</time>
      </trkpt>
      <trkpt lat="47.7718480" lon="2.3637830">
        <ele>99.8</ele>
        <time>2020-07-02T16:29:45Z</time>
      </trkpt>
      <trkpt lat="47.7717550" lon="2.3638880">
        <ele>99.8</ele>
        <time>2020-07-02T16:29:54Z</time>
      </trkpt>
      <trkpt lat="47.7717420" lon="2.3639450">
        <ele>99.8</ele>
        <time>2020-07-02T16:29:56Z</time>
      </trkpt>
      <trkpt lat="47.7717240" lon="2.3640400">
        <ele>99.8</ele>
        <time>2020-07-02T16:29:58Z</time>
      </trkpt>
      <trkpt lat="47.7717140" lon="2.3641030">
        <ele>99.8</ele>
        <time>2020-07-02T16:29:59Z</time>
      </trkpt>
      <trkpt lat="47.7716820" lon="2.3644330">
        <ele>99.6</ele>
        <time>2020-07-02T16:30:03Z</time>
      </trkpt>
      <trkpt lat="47.7716720" lon="2.3645200">
        <ele>99.2</ele>
        <time>2020-07-02T16:30:04Z</time>
      </trkpt>
      <trkpt lat="47.7716190" lon="2.3647830">
        <ele>98.8</ele>
        <time>2020-07-02T16:30:06Z</time>
      </trkpt>
      <trkpt lat="47.7715460" lon="2.3650230">
        <ele>96.4</ele>
        <time>2020-07-02T16:30:10Z</time>
      </trkpt>
      <trkpt lat="47.7714790" lon="2.3652450">
        <ele>96.2</ele>
        <time>2020-07-02T16:30:12Z</time>
      </trkpt>
      <trkpt lat="47.7714240" lon="2.3654390">
        <ele>95.8</ele>
        <time>2020-07-02T16:30:15Z</time>
      </trkpt>
      <trkpt lat="47.7714240" lon="2.3654390">
        <ele>95.8</ele>
        <time>2020-07-02T16:30:16Z</time>
      </trkpt>
      <trkpt lat="47.7712790" lon="2.3657720">
        <ele>95.8</ele>
        <time>2020-07-02T16:30:23Z</time>
      </trkpt>
      <trkpt lat="47.7710840" lon="2.3662410">
        <ele>96.2</ele>
        <time>2020-07-02T16:30:32Z</time>
      </trkpt>
      <trkpt lat="47.7709890" lon="2.3665010">
        <ele>96.2</ele>
        <time>2020-07-02T16:30:38Z</time>
      </trkpt>
      <trkpt lat="47.7708090" lon="2.3669240">
        <ele>96.8</ele>
        <time>2020-07-02T16:30:48Z</time>
      </trkpt>
      <trkpt lat="47.7708180" lon="2.3670550">
        <ele>97.2</ele>
        <time>2020-07-02T16:30:52Z</time>
      </trkpt>
      <trkpt lat="47.7708380" lon="2.3671950">
        <ele>97.2</ele>
        <time>2020-07-02T16:30:55Z</time>
      </trkpt>
      <trkpt lat="47.7708450" lon="2.3675200">
        <ele>98.0</ele>
        <time>2020-07-02T16:31:03Z</time>
      </trkpt>
      <trkpt lat="47.7707400" lon="2.3675780">
        <ele>98.0</ele>
        <time>2020-07-02T16:31:09Z</time>
      </trkpt>
      <trkpt lat="47.7707310" lon="2.3675970">
        <ele>98.0</ele>
        <time>2020-07-02T16:31:15Z</time>
      </trkpt>
      <trkpt lat="47.7707350" lon="2.3676140">
        <ele>98.0</ele>
        <time>2020-07-02T16:31:31Z</time>
      </trkpt>
      <trkpt lat="47.7707290" lon="2.3676180">
        <ele>98.2</ele>
        <time>2020-07-02T16:31:52Z</time>
      </trkpt>
      <trkpt lat="47.7707320" lon="2.3676170">
        <ele>98.0</ele>
        <time>2020-07-02T16:32:18Z</time>
      </trkpt>
      <trkpt lat="47.7707260" lon="2.3676240">
        <ele>98.0</ele>
        <time>2020-07-02T16:32:36Z</time>
      </trkpt>
      <trkpt lat="47.7707270" lon="2.3676330">
        <ele>98.2</ele>
        <time>2020-07-02T16:33:00Z</time>
      </trkpt>
      <trkpt lat="47.7707250" lon="2.3676390">
        <ele>98.2</ele>
        <time>2020-07-02T16:33:18Z</time>
      </trkpt>
      <trkpt lat="47.7707110" lon="2.3676210">
        <ele>98.4</ele>
        <time>2020-07-02T16:33:20Z</time>
      </trkpt>
      <trkpt lat="47.7706940" lon="2.3675690">
        <ele>98.2</ele>
        <time>2020-07-02T16:33:23Z</time>
      </trkpt>
      <trkpt lat="47.7706850" lon="2.3675040">
        <ele>98.0</ele>
        <time>2020-07-02T16:33:29Z</time>
      </trkpt>
      <trkpt lat="47.7706580" lon="2.3674270">
        <ele>98.2</ele>
        <time>2020-07-02T16:33:38Z</time>
      </trkpt>
      <trkpt lat="47.7706660" lon="2.3674120">
        <ele>98.2</ele>
        <time>2020-07-02T16:33:49Z</time>
      </trkpt>
      <trkpt lat="47.7706680" lon="2.3674230">
        <ele>97.8</ele>
        <time>2020-07-02T16:34:31Z</time>
      </trkpt>
      <trkpt lat="47.7706750" lon="2.3674300">
        <ele>98.0</ele>
        <time>2020-07-02T16:36:54Z</time>
      </trkpt>
      <trkpt lat="47.7706630" lon="2.3674340">
        <ele>98.0</ele>
        <time>2020-07-02T16:40:17Z</time>
      </trkpt>
      <trkpt lat="47.7706750" lon="2.3674810">
        <ele>97.4</ele>
        <time>2020-07-02T16:40:45Z</time>
      </trkpt>
      <trkpt lat="47.7706860" lon="2.3675110">
        <ele>97.4</ele>
        <time>2020-07-02T16:40:47Z</time>
      </trkpt>
      <trkpt lat="47.7707140" lon="2.3676520">
        <ele>97.4</ele>
        <time>2020-07-02T16:40:51Z</time>
      </trkpt>
      <trkpt lat="47.7707500" lon="2.3679140">
        <ele>97.4</ele>
        <time>2020-07-02T16:40:59Z</time>
      </trkpt>
      <trkpt lat="47.7707790" lon="2.3681430">
        <ele>97.6</ele>
        <time>2020-07-02T16:41:08Z</time>
      </trkpt>
      <trkpt lat="47.7708270" lon="2.3683330">
        <ele>97.6</ele>
        <time>2020-07-02T16:41:12Z</time>
      </trkpt>
      <trkpt lat="47.7708450" lon="2.3683460">
        <ele>97.6</ele>
        <time>2020-07-02T16:41:13Z</time>
      </trkpt>
      <trkpt lat="47.7709940" lon="2.3683580">
        <ele>97.8</ele>
        <time>2020-07-02T16:41:19Z</time>
      </trkpt>
      <trkpt lat="47.7711110" lon="2.3683420">
        <ele>97.6</ele>
        <time>2020-07-02T16:41:23Z</time>
      </trkpt>
      <trkpt lat="47.7712320" lon="2.3683330">
        <ele>98.0</ele>
        <time>2020-07-02T16:41:27Z</time>
      </trkpt>
      <trkpt lat="47.7713100" lon="2.3683210">
        <ele>98.2</ele>
        <time>2020-07-02T16:41:31Z</time>
      </trkpt>
      <trkpt lat="47.7714070" lon="2.3683040">
        <ele>98.8</ele>
        <time>2020-07-02T16:41:35Z</time>
      </trkpt>
      <trkpt lat="47.7715620" lon="2.3683420">
        <ele>99.6</ele>
        <time>2020-07-02T16:41:41Z</time>
      </trkpt>
      <trkpt lat="47.7715560" lon="2.3683730">
        <ele>99.8</ele>
        <time>2020-07-02T16:41:42Z</time>
      </trkpt>
      <trkpt lat="47.7714260" lon="2.3684290">
        <ele>100.0</ele>
        <time>2020-07-02T16:41:46Z</time>
      </trkpt>
      <trkpt lat="47.7711360" lon="2.3685480">
        <ele>99.8</ele>
        <time>2020-07-02T16:41:54Z</time>
      </trkpt>
      <trkpt lat="47.7710240" lon="2.3685960">
        <ele>100.0</ele>
        <time>2020-07-02T16:41:57Z</time>
      </trkpt>
      <trkpt lat="47.7707420" lon="2.3686960">
        <ele>100.4</ele>
        <time>2020-07-02T16:42:05Z</time>
      </trkpt>
      <trkpt lat="47.7705360" lon="2.3687800">
        <ele>101.2</ele>
        <time>2020-07-02T16:42:12Z</time>
      </trkpt>
      <trkpt lat="47.7702710" lon="2.3688640">
        <ele>101.0</ele>
        <time>2020-07-02T16:42:20Z</time>
      </trkpt>
      <trkpt lat="47.7700270" lon="2.3689580">
        <ele>100.4</ele>
        <time>2020-07-02T16:42:27Z</time>
      </trkpt>
      <trkpt lat="47.7699150" lon="2.3690040">
        <ele>100.4</ele>
        <time>2020-07-02T16:42:31Z</time>
      </trkpt>
      <trkpt lat="47.7698930" lon="2.3690150">
        <ele>100.2</ele>
        <time>2020-07-02T16:42:33Z</time>
      </trkpt>
      <trkpt lat="47.7698000" lon="2.3690450">
        <ele>100.2</ele>
        <time>2020-07-02T16:42:38Z</time>
      </trkpt>
      <trkpt lat="47.7696130" lon="2.3691270">
        <ele>100.8</ele>
        <time>2020-07-02T16:42:45Z</time>
      </trkpt>
      <trkpt lat="47.7694490" lon="2.3691800">
        <ele>101.2</ele>
        <time>2020-07-02T16:42:52Z</time>
      </trkpt>
      <trkpt lat="47.7693100" lon="2.3692320">
        <ele>101.2</ele>
        <time>2020-07-02T16:42:58Z</time>
      </trkpt>
      <trkpt lat="47.7691950" lon="2.3692850">
        <ele>101.2</ele>
        <time>2020-07-02T16:43:04Z</time>
      </trkpt>
      <trkpt lat="47.7689720" lon="2.3693790">
        <ele>101.2</ele>
        <time>2020-07-02T16:43:12Z</time>
      </trkpt>
      <trkpt lat="47.7687910" lon="2.3694560">
        <ele>101.2</ele>
        <time>2020-07-02T16:43:19Z</time>
      </trkpt>
      <trkpt lat="47.7686180" lon="2.3695230">
        <ele>101.2</ele>
        <time>2020-07-02T16:43:25Z</time>
      </trkpt>
      <trkpt lat="47.7683900" lon="2.3695910">
        <ele>100.8</ele>
        <time>2020-07-02T16:43:34Z</time>
      </trkpt>
      <trkpt lat="47.7683620" lon="2.3695970">
        <ele>100.8</ele>
        <time>2020-07-02T16:43:35Z</time>
      </trkpt>
      <trkpt lat="47.7683360" lon="2.3696060">
        <ele>100.8</ele>
        <time>2020-07-02T16:43:36Z</time>
      </trkpt>
      <trkpt lat="47.7682200" lon="2.3696380">
        <ele>100.8</ele>
        <time>2020-07-02T16:43:40Z</time>
      </trkpt>
      <trkpt lat="47.7680760" lon="2.3696920">
        <ele>100.8</ele>
        <time>2020-07-02T16:43:43Z</time>
      </trkpt>
      <trkpt lat="47.7678050" lon="2.3697800">
        <ele>100.8</ele>
        <time>2020-07-02T16:43:51Z</time>
      </trkpt>
      <trkpt lat="47.7677770" lon="2.3697930">
        <ele>101.0</ele>
        <time>2020-07-02T16:43:52Z</time>
      </trkpt>
      <trkpt lat="47.7676150" lon="2.3698520">
        <ele>101.2</ele>
        <time>2020-07-02T16:43:57Z</time>
      </trkpt>
      <trkpt lat="47.7675860" lon="2.3698610">
        <ele>101.2</ele>
        <time>2020-07-02T16:43:58Z</time>
      </trkpt>
      <trkpt lat="47.7673810" lon="2.3699170">
        <ele>101.2</ele>
        <time>2020-07-02T16:44:05Z</time>
      </trkpt>
      <trkpt lat="47.7673210" lon="2.3699320">
        <ele>101.4</ele>
        <time>2020-07-02T16:44:08Z</time>
      </trkpt>
      <trkpt lat="47.7672390" lon="2.3699560">
        <ele>101.6</ele>
        <time>2020-07-02T16:44:12Z</time>
      </trkpt>
      <trkpt lat="47.7671680" lon="2.3699800">
        <ele>101.6</ele>
        <time>2020-07-02T16:44:15Z</time>
      </trkpt>
      <trkpt lat="47.7671470" lon="2.3700350">
        <ele>101.6</ele>
        <time>2020-07-02T16:44:17Z</time>
      </trkpt>
      <trkpt lat="47.7671800" lon="2.3702170">
        <ele>102.2</ele>
        <time>2020-07-02T16:44:22Z</time>
      </trkpt>
      <trkpt lat="47.7672780" lon="2.3705500">
        <ele>102.2</ele>
        <time>2020-07-02T16:44:29Z</time>
      </trkpt>
      <trkpt lat="47.7673850" lon="2.3709370">
        <ele>101.8</ele>
        <time>2020-07-02T16:44:35Z</time>
      </trkpt>
      <trkpt lat="47.7674860" lon="2.3714210">
        <ele>100.2</ele>
        <time>2020-07-02T16:44:42Z</time>
      </trkpt>
      <trkpt lat="47.7674900" lon="2.3714740">
        <ele>99.8</ele>
        <time>2020-07-02T16:44:43Z</time>
      </trkpt>
      <trkpt lat="47.7674810" lon="2.3715200">
        <ele>99.8</ele>
        <time>2020-07-02T16:44:44Z</time>
      </trkpt>
      <trkpt lat="47.7674590" lon="2.3715590">
        <ele>99.4</ele>
        <time>2020-07-02T16:44:46Z</time>
      </trkpt>
      <trkpt lat="47.7673410" lon="2.3716460">
        <ele>99.4</ele>
        <time>2020-07-02T16:44:48Z</time>
      </trkpt>
      <trkpt lat="47.7672880" lon="2.3716690">
        <ele>99.2</ele>
        <time>2020-07-02T16:44:49Z</time>
      </trkpt>
      <trkpt lat="47.7669280" lon="2.3718060">
        <ele>98.4</ele>
        <time>2020-07-02T16:44:56Z</time>
      </trkpt>
      <trkpt lat="47.7668090" lon="2.3718420">
        <ele>97.4</ele>
        <time>2020-07-02T16:45:01Z</time>
      </trkpt>
      <trkpt lat="47.7667580" lon="2.3718210">
        <ele>97.4</ele>
        <time>2020-07-02T16:45:06Z</time>
      </trkpt>
      <trkpt lat="47.7667410" lon="2.3718590">
        <ele>97.4</ele>
        <time>2020-07-02T16:45:14Z</time>
      </trkpt>
      <trkpt lat="47.7667410" lon="2.3718590">
        <ele>97.4</ele>
        <time>2020-07-02T16:45:15Z</time>
      </trkpt>
      <trkpt lat="47.7667370" lon="2.3719090">
        <ele>97.4</ele>
        <time>2020-07-02T16:45:16Z</time>
      </trkpt>
      <trkpt lat="47.7667520" lon="2.3720190">
        <ele>97.4</ele>
        <time>2020-07-02T16:45:19Z</time>
      </trkpt>
      <trkpt lat="47.7668610" lon="2.3724360">
        <ele>97.4</ele>
        <time>2020-07-02T16:45:28Z</time>
      </trkpt>
      <trkpt lat="47.7669610" lon="2.3729530">
        <ele>97.6</ele>
        <time>2020-07-02T16:45:37Z</time>
      </trkpt>
      <trkpt lat="47.7669460" lon="2.3732350">
        <ele>98.0</ele>
        <time>2020-07-02T16:45:43Z</time>
      </trkpt>
      <trkpt lat="47.7667850" lon="2.3732660">
        <ele>98.0</ele>
        <time>2020-07-02T16:45:47Z</time>
      </trkpt>
      <trkpt lat="47.7664950" lon="2.3731300">
        <ele>97.4</ele>
        <time>2020-07-02T16:45:54Z</time>
      </trkpt>
      <trkpt lat="47.7664010" lon="2.3731520">
        <ele>97.4</ele>
        <time>2020-07-02T16:45:56Z</time>
      </trkpt>
      <trkpt lat="47.7663140" lon="2.3732080">
        <ele>97.4</ele>
        <time>2020-07-02T16:45:58Z</time>
      </trkpt>
      <trkpt lat="47.7660050" lon="2.3734290">
        <ele>97.2</ele>
        <time>2020-07-02T16:46:06Z</time>
      </trkpt>
      <trkpt lat="47.7657590" lon="2.3736960">
        <ele>97.2</ele>
        <time>2020-07-02T16:46:15Z</time>
      </trkpt>
      <trkpt lat="47.7655740" lon="2.3739970">
        <ele>97.4</ele>
        <time>2020-07-02T16:46:22Z</time>
      </trkpt>
      <trkpt lat="47.7653260" lon="2.3743450">
        <ele>97.4</ele>
        <time>2020-07-02T16:46:29Z</time>
      </trkpt>
      <trkpt lat="47.7652070" lon="2.3744760">
        <ele>97.6</ele>
        <time>2020-07-02T16:46:33Z</time>
      </trkpt>
      <trkpt lat="47.7650470" lon="2.3746630">
        <ele>97.4</ele>
        <time>2020-07-02T16:46:37Z</time>
      </trkpt>
      <trkpt lat="47.7650200" lon="2.3746980">
        <ele>97.6</ele>
        <time>2020-07-02T16:46:38Z</time>
      </trkpt>
      <trkpt lat="47.7648400" lon="2.3749570">
        <ele>98.2</ele>
        <time>2020-07-02T16:46:46Z</time>
      </trkpt>
      <trkpt lat="47.7647700" lon="2.3751310">
        <ele>98.2</ele>
        <time>2020-07-02T16:46:52Z</time>
      </trkpt>
      <trkpt lat="47.7647750" lon="2.3751610">
        <ele>98.4</ele>
        <time>2020-07-02T16:46:53Z</time>
      </trkpt>
      <trkpt lat="47.7648010" lon="2.3751850">
        <ele>98.2</ele>
        <time>2020-07-02T16:46:57Z</time>
      </trkpt>
      <trkpt lat="47.7648060" lon="2.3751900">
        <ele>98.8</ele>
        <time>2020-07-02T16:47:13Z</time>
      </trkpt>
      <trkpt lat="47.7647810" lon="2.3752500">
        <ele>98.8</ele>
        <time>2020-07-02T16:47:19Z</time>
      </trkpt>
      <trkpt lat="47.7647600" lon="2.3753010">
        <ele>98.6</ele>
        <time>2020-07-02T16:47:22Z</time>
      </trkpt>
      <trkpt lat="47.7647530" lon="2.3754030">
        <ele>98.8</ele>
        <time>2020-07-02T16:47:27Z</time>
      </trkpt>
      <trkpt lat="47.7647670" lon="2.3753990">
        <ele>98.8</ele>
        <time>2020-07-02T16:47:30Z</time>
      </trkpt>
      <trkpt lat="47.7647840" lon="2.3754060">
        <ele>98.8</ele>
        <time>2020-07-02T16:47:38Z</time>
      </trkpt>
      <trkpt lat="47.7647980" lon="2.3754190">
        <ele>99.0</ele>
        <time>2020-07-02T16:48:01Z</time>
      </trkpt>
      <trkpt lat="47.7648070" lon="2.3754250">
        <ele>99.0</ele>
        <time>2020-07-02T16:48:12Z</time>
      </trkpt>
      <trkpt lat="47.7648070" lon="2.3754310">
        <ele>99.0</ele>
        <time>2020-07-02T16:48:20Z</time>
      </trkpt>
      <trkpt lat="47.7648100" lon="2.3754410">
        <ele>98.6</ele>
        <time>2020-07-02T16:48:58Z</time>
      </trkpt>
      <trkpt lat="47.7648110" lon="2.3754420">
        <ele>98.4</ele>
        <time>2020-07-02T16:49:22Z</time>
      </trkpt>
      <trkpt lat="47.7648120" lon="2.3754420">
        <ele>98.2</ele>
        <time>2020-07-02T16:49:27Z</time>
      </trkpt>
      <trkpt lat="47.7648110" lon="2.3754650">
        <ele>98.2</ele>
        <time>2020-07-02T16:49:47Z</time>
      </trkpt>
      <trkpt lat="47.7648150" lon="2.3754780">
        <ele>98.2</ele>
        <time>2020-07-02T16:50:13Z</time>
      </trkpt>
      <trkpt lat="47.7648140" lon="2.3755130">
        <ele>98.2</ele>
        <time>2020-07-02T16:50:28Z</time>
      </trkpt>
      <trkpt lat="47.7648160" lon="2.3755360">
        <ele>98.4</ele>
        <time>2020-07-02T16:50:41Z</time>
      </trkpt>
      <trkpt lat="47.7648440" lon="2.3754530">
        <ele>98.4</ele>
        <time>2020-07-02T16:50:50Z</time>
      </trkpt>
      <trkpt lat="47.7648500" lon="2.3754370">
        <ele>98.4</ele>
        <time>2020-07-02T16:50:51Z</time>
      </trkpt>
      <trkpt lat="47.7648500" lon="2.3753630">
        <ele>98.4</ele>
        <time>2020-07-02T16:50:58Z</time>
      </trkpt>
      <trkpt lat="47.7648360" lon="2.3753390">
        <ele>98.4</ele>
        <time>2020-07-02T16:50:59Z</time>
      </trkpt>
      <trkpt lat="47.7648170" lon="2.3752960">
        <ele>98.8</ele>
        <time>2020-07-02T16:51:14Z</time>
      </trkpt>
      <trkpt lat="47.7648610" lon="2.3752970">
        <ele>98.8</ele>
        <time>2020-07-02T16:51:21Z</time>
      </trkpt>
      <trkpt lat="47.7648610" lon="2.3752970">
        <ele>98.8</ele>
        <time>2020-07-02T16:51:22Z</time>
      </trkpt>
      <trkpt lat="47.7649820" lon="2.3753450">
        <ele>98.6</ele>
        <time>2020-07-02T16:51:27Z</time>
      </trkpt>
      <trkpt lat="47.7651270" lon="2.3754780">
        <ele>98.6</ele>
        <time>2020-07-02T16:51:34Z</time>
      </trkpt>
      <trkpt lat="47.7653330" lon="2.3756100">
        <ele>98.4</ele>
        <time>2020-07-02T16:51:41Z</time>
      </trkpt>
      <trkpt lat="47.7655110" lon="2.3757130">
        <ele>98.6</ele>
        <time>2020-07-02T16:51:47Z</time>
      </trkpt>
      <trkpt lat="47.7655410" lon="2.3757350">
        <ele>98.8</ele>
        <time>2020-07-02T16:51:51Z</time>
      </trkpt>
      <trkpt lat="47.7655980" lon="2.3757730">
        <ele>98.8</ele>
        <time>2020-07-02T16:52:01Z</time>
      </trkpt>
      <trkpt lat="47.7656890" lon="2.3758070">
        <ele>99.0</ele>
        <time>2020-07-02T16:52:16Z</time>
      </trkpt>
      <trkpt lat="47.7657190" lon="2.3758090">
        <ele>99.2</ele>
        <time>2020-07-02T16:52:28Z</time>
      </trkpt>
      <trkpt lat="47.7657340" lon="2.3758150">
        <ele>99.0</ele>
        <time>2020-07-02T16:52:46Z</time>
      </trkpt>
      <trkpt lat="47.7657010" lon="2.3758360">
        <ele>98.8</ele>
        <time>2020-07-02T16:52:54Z</time>
      </trkpt>
      <trkpt lat="47.7656790" lon="2.3758190">
        <ele>99.0</ele>
        <time>2020-07-02T16:53:04Z</time>
      </trkpt>
      <trkpt lat="47.7656860" lon="2.3758090">
        <ele>99.0</ele>
        <time>2020-07-02T16:53:17Z</time>
      </trkpt>
      <trkpt lat="47.7656780" lon="2.3757880">
        <ele>99.2</ele>
        <time>2020-07-02T16:53:30Z</time>
      </trkpt>
      <trkpt lat="47.7656800" lon="2.3757740">
        <ele>99.0</ele>
        <time>2020-07-02T16:53:48Z</time>
      </trkpt>
      <trkpt lat="47.7656810" lon="2.3757720">
        <ele>99.0</ele>
        <time>2020-07-02T16:54:06Z</time>
      </trkpt>
      <trkpt lat="47.7656610" lon="2.3757510">
        <ele>99.0</ele>
        <time>2020-07-02T16:54:29Z</time>
      </trkpt>
      <trkpt lat="47.7656020" lon="2.3757150">
        <ele>99.2</ele>
        <time>2020-07-02T16:54:34Z</time>
      </trkpt>
      <trkpt lat="47.7655540" lon="2.3756760">
        <ele>99.0</ele>
        <time>2020-07-02T16:54:37Z</time>
      </trkpt>
      <trkpt lat="47.7655430" lon="2.3756620">
        <ele>99.0</ele>
        <time>2020-07-02T16:54:38Z</time>
      </trkpt>
      <trkpt lat="47.7654680" lon="2.3756110">
        <ele>98.6</ele>
        <time>2020-07-02T16:54:42Z</time>
      </trkpt>
      <trkpt lat="47.7654410" lon="2.3755870">
        <ele>98.8</ele>
        <time>2020-07-02T16:54:43Z</time>
      </trkpt>
      <trkpt lat="47.7654030" lon="2.3755190">
        <ele>98.6</ele>
        <time>2020-07-02T16:54:45Z</time>
      </trkpt>
      <trkpt lat="47.7653800" lon="2.3754720">
        <ele>98.8</ele>
        <time>2020-07-02T16:54:47Z</time>
      </trkpt>
      <trkpt lat="47.7653030" lon="2.3753670">
        <ele>98.6</ele>
        <time>2020-07-02T16:54:51Z</time>
      </trkpt>
      <trkpt lat="47.7653010" lon="2.3753320">
        <ele>98.4</ele>
        <time>2020-07-02T16:54:52Z</time>
      </trkpt>
      <trkpt lat="47.7653250" lon="2.3752600">
        <ele>98.2</ele>
        <time>2020-07-02T16:54:54Z</time>
      </trkpt>
      <trkpt lat="47.7653770" lon="2.3752010">
        <ele>98.0</ele>
        <time>2020-07-02T16:54:56Z</time>
      </trkpt>
      <trkpt lat="47.7655040" lon="2.3750540">
        <ele>98.2</ele>
        <time>2020-07-02T16:55:00Z</time>
      </trkpt>
      <trkpt lat="47.7656060" lon="2.3749220">
        <ele>98.2</ele>
        <time>2020-07-02T16:55:03Z</time>
      </trkpt>
      <trkpt lat="47.7657070" lon="2.3747690">
        <ele>98.2</ele>
        <time>2020-07-02T16:55:06Z</time>
      </trkpt>
      <trkpt lat="47.7657340" lon="2.3747080">
        <ele>98.2</ele>
        <time>2020-07-02T16:55:07Z</time>
      </trkpt>
      <trkpt lat="47.7659500" lon="2.3743720">
        <ele>98.2</ele>
        <time>2020-07-02T16:55:14Z</time>
      </trkpt>
      <trkpt lat="47.7660410" lon="2.3742010">
        <ele>97.6</ele>
        <time>2020-07-02T16:55:18Z</time>
      </trkpt>
      <trkpt lat="47.7660550" lon="2.3741500">
        <ele>97.6</ele>
        <time>2020-07-02T16:55:20Z</time>
      </trkpt>
      <trkpt lat="47.7660500" lon="2.3741230">
        <ele>97.4</ele>
        <time>2020-07-02T16:55:21Z</time>
      </trkpt>
      <trkpt lat="47.7660010" lon="2.3740230">
        <ele>97.2</ele>
        <time>2020-07-02T16:55:24Z</time>
      </trkpt>
      <trkpt lat="47.7658950" lon="2.3737770">
        <ele>97.2</ele>
        <time>2020-07-02T16:55:30Z</time>
      </trkpt>
      <trkpt lat="47.7659880" lon="2.3736390">
        <ele>97.2</ele>
        <time>2020-07-02T16:55:34Z</time>
      </trkpt>
      <trkpt lat="47.7662780" lon="2.3734000">
        <ele>97.0</ele>
        <time>2020-07-02T16:55:41Z</time>
      </trkpt>
      <trkpt lat="47.7665010" lon="2.3731850">
        <ele>96.8</ele>
        <time>2020-07-02T16:55:47Z</time>
      </trkpt>
      <trkpt lat="47.7665730" lon="2.3729700">
        <ele>96.8</ele>
        <time>2020-07-02T16:55:52Z</time>
      </trkpt>
      <trkpt lat="47.7665960" lon="2.3728730">
        <ele>97.4</ele>
        <time>2020-07-02T16:55:57Z</time>
      </trkpt>
      <trkpt lat="47.7666040" lon="2.3728790">
        <ele>98.0</ele>
        <time>2020-07-02T16:56:07Z</time>
      </trkpt>
      <trkpt lat="47.7666030" lon="2.3728790">
        <ele>97.8</ele>
        <time>2020-07-02T16:56:08Z</time>
      </trkpt>
      <trkpt lat="47.7666030" lon="2.3728790">
        <ele>98.0</ele>
        <time>2020-07-02T16:56:10Z</time>
      </trkpt>
      <trkpt lat="47.7666040" lon="2.3728930">
        <ele>98.0</ele>
        <time>2020-07-02T16:56:37Z</time>
      </trkpt>
      <trkpt lat="47.7665530" lon="2.3729220">
        <ele>97.4</ele>
        <time>2020-07-02T16:56:56Z</time>
      </trkpt>
      <trkpt lat="47.7665380" lon="2.3729330">
        <ele>97.4</ele>
        <time>2020-07-02T16:56:57Z</time>
      </trkpt>
      <trkpt lat="47.7664400" lon="2.3730100">
        <ele>97.4</ele>
        <time>2020-07-02T16:57:02Z</time>
      </trkpt>
      <trkpt lat="47.7664160" lon="2.3730300">
        <ele>97.6</ele>
        <time>2020-07-02T16:57:03Z</time>
      </trkpt>
      <trkpt lat="47.7661630" lon="2.3732620">
        <ele>97.2</ele>
        <time>2020-07-02T16:57:11Z</time>
      </trkpt>
      <trkpt lat="47.7658180" lon="2.3735950">
        <ele>96.8</ele>
        <time>2020-07-02T16:57:20Z</time>
      </trkpt>
      <trkpt lat="47.7654940" lon="2.3740430">
        <ele>97.0</ele>
        <time>2020-07-02T16:57:30Z</time>
      </trkpt>
      <trkpt lat="47.7651950" lon="2.3743990">
        <ele>97.2</ele>
        <time>2020-07-02T16:57:39Z</time>
      </trkpt>
      <trkpt lat="47.7649080" lon="2.3747350">
        <ele>97.6</ele>
        <time>2020-07-02T16:57:47Z</time>
      </trkpt>
      <trkpt lat="47.7647760" lon="2.3749860">
        <ele>97.8</ele>
        <time>2020-07-02T16:57:53Z</time>
      </trkpt>
      <trkpt lat="47.7647700" lon="2.3750410">
        <ele>97.8</ele>
        <time>2020-07-02T16:57:54Z</time>
      </trkpt>
      <trkpt lat="47.7647760" lon="2.3750850">
        <ele>97.8</ele>
        <time>2020-07-02T16:57:55Z</time>
      </trkpt>
      <trkpt lat="47.7648230" lon="2.3751660">
        <ele>97.8</ele>
        <time>2020-07-02T16:57:57Z</time>
      </trkpt>
      <trkpt lat="47.7650320" lon="2.3753060">
        <ele>97.8</ele>
        <time>2020-07-02T16:58:03Z</time>
      </trkpt>
      <trkpt lat="47.7651430" lon="2.3754290">
        <ele>97.8</ele>
        <time>2020-07-02T16:58:08Z</time>
      </trkpt>
      <trkpt lat="47.7653830" lon="2.3755740">
        <ele>98.4</ele>
        <time>2020-07-02T16:58:15Z</time>
      </trkpt>
      <trkpt lat="47.7654430" lon="2.3756230">
        <ele>98.4</ele>
        <time>2020-07-02T16:58:20Z</time>
      </trkpt>
      <trkpt lat="47.7655120" lon="2.3756630">
        <ele>98.8</ele>
        <time>2020-07-02T16:58:31Z</time>
      </trkpt>
      <trkpt lat="47.7655150" lon="2.3756620">
        <ele>99.0</ele>
        <time>2020-07-02T16:58:46Z</time>
      </trkpt>
      <trkpt lat="47.7655220" lon="2.3756600">
        <ele>99.0</ele>
        <time>2020-07-02T16:58:58Z</time>
      </trkpt>
      <trkpt lat="47.7655270" lon="2.3756480">
        <ele>99.0</ele>
        <time>2020-07-02T16:59:27Z</time>
      </trkpt>
      <trkpt lat="47.7655450" lon="2.3756350">
        <ele>99.2</ele>
        <time>2020-07-02T16:59:55Z</time>
      </trkpt>
      <trkpt lat="47.7655580" lon="2.3756450">
        <ele>99.0</ele>
        <time>2020-07-02T17:00:11Z</time>
      </trkpt>
      <trkpt lat="47.7655680" lon="2.3756540">
        <ele>99.0</ele>
        <time>2020-07-02T17:00:28Z</time>
      </trkpt>
      <trkpt lat="47.7655740" lon="2.3756560">
        <ele>98.8</ele>
        <time>2020-07-02T17:00:47Z</time>
      </trkpt>
      <trkpt lat="47.7656010" lon="2.3756630">
        <ele>99.0</ele>
        <time>2020-07-02T17:01:07Z</time>
      </trkpt>
      <trkpt lat="47.7656010" lon="2.3756590">
        <ele>99.0</ele>
        <time>2020-07-02T17:01:33Z</time>
      </trkpt>
      <trkpt lat="47.7655970" lon="2.3756540">
        <ele>99.0</ele>
        <time>2020-07-02T17:01:51Z</time>
      </trkpt>
      <trkpt lat="47.7655960" lon="2.3756530">
        <ele>99.0</ele>
        <time>2020-07-02T17:01:55Z</time>
      </trkpt>
      <trkpt lat="47.7657560" lon="2.3757280">
        <ele>120.2</ele>
        <time>2020-07-03T06:49:44Z</time>
      </trkpt>
      <trkpt lat="47.7657940" lon="2.3757410">
        <ele>120.4</ele>
        <time>2020-07-03T06:49:46Z</time>
      </trkpt>
      <trkpt lat="47.7658400" lon="2.3757020">
        <ele>120.2</ele>
        <time>2020-07-03T06:49:50Z</time>
      </trkpt>
      <trkpt lat="47.7658400" lon="2.3756790">
        <ele>120.2</ele>
        <time>2020-07-03T06:49:51Z</time>
      </trkpt>
      <trkpt lat="47.7658530" lon="2.3755470">
        <ele>120.2</ele>
        <time>2020-07-03T06:49:55Z</time>
      </trkpt>
      <trkpt lat="47.7658630" lon="2.3755150">
        <ele>120.2</ele>
        <time>2020-07-03T06:49:56Z</time>
      </trkpt>
      <trkpt lat="47.7658680" lon="2.3754330">
        <ele>120.0</ele>
        <time>2020-07-03T06:49:59Z</time>
      </trkpt>
      <trkpt lat="47.7658150" lon="2.3751630">
        <ele>119.6</ele>
        <time>2020-07-03T06:50:08Z</time>
      </trkpt>
      <trkpt lat="47.7658590" lon="2.3748840">
        <ele>119.4</ele>
        <time>2020-07-03T06:50:17Z</time>
      </trkpt>
      <trkpt lat="47.7658880" lon="2.3746160">
        <ele>119.6</ele>
        <time>2020-07-03T06:50:23Z</time>
      </trkpt>
      <trkpt lat="47.7659660" lon="2.3744200">
        <ele>119.6</ele>
        <time>2020-07-03T06:50:30Z</time>
      </trkpt>
      <trkpt lat="47.7659880" lon="2.3744020">
        <ele>119.4</ele>
        <time>2020-07-03T06:50:31Z</time>
      </trkpt>
      <trkpt lat="47.7660170" lon="2.3743760">
        <ele>119.6</ele>
        <time>2020-07-03T06:50:32Z</time>
      </trkpt>
      <trkpt lat="47.7660480" lon="2.3743560">
        <ele>119.4</ele>
        <time>2020-07-03T06:50:33Z</time>
      </trkpt>
      <trkpt lat="47.7661280" lon="2.3743190">
        <ele>119.6</ele>
        <time>2020-07-03T06:50:36Z</time>
      </trkpt>
      <trkpt lat="47.7663350" lon="2.3741990">
        <ele>119.2</ele>
        <time>2020-07-03T06:50:44Z</time>
      </trkpt>
      <trkpt lat="47.7665440" lon="2.3741590">
        <ele>119.2</ele>
        <time>2020-07-03T06:50:50Z</time>
      </trkpt>
      <trkpt lat="47.7667980" lon="2.3740670">
        <ele>118.6</ele>
        <time>2020-07-03T06:50:57Z</time>
      </trkpt>
      <trkpt lat="47.7670140" lon="2.3740710">
        <ele>118.4</ele>
        <time>2020-07-03T06:51:02Z</time>
      </trkpt>
      <trkpt lat="47.7672370" lon="2.3741540">
        <ele>118.4</ele>
        <time>2020-07-03T06:51:08Z</time>
      </trkpt>
      <trkpt lat="47.7672770" lon="2.3741500">
        <ele>118.2</ele>
        <time>2020-07-03T06:51:09Z</time>
      </trkpt>
      <trkpt lat="47.7675330" lon="2.3740750">
        <ele>118.6</ele>
        <time>2020-07-03T06:51:15Z</time>
      </trkpt>
      <trkpt lat="47.7678890" lon="2.3739330">
        <ele>119.4</ele>
        <time>2020-07-03T06:51:24Z</time>
      </trkpt>
      <trkpt lat="47.7679270" lon="2.3739240">
        <ele>119.4</ele>
        <time>2020-07-03T06:51:25Z</time>
      </trkpt>
      <trkpt lat="47.7680360" lon="2.3739850">
        <ele>119.4</ele>
        <time>2020-07-03T06:51:29Z</time>
      </trkpt>
      <trkpt lat="47.7681460" lon="2.3742480">
        <ele>120.6</ele>
        <time>2020-07-03T06:51:37Z</time>
      </trkpt>
      <trkpt lat="47.7682700" lon="2.3745260">
        <ele>120.8</ele>
        <time>2020-07-03T06:51:45Z</time>
      </trkpt>
      <trkpt lat="47.7683850" lon="2.3747830">
        <ele>120.8</ele>
        <time>2020-07-03T06:51:52Z</time>
      </trkpt>
      <trkpt lat="47.7685470" lon="2.3751590">
        <ele>120.8</ele>
        <time>2020-07-03T06:52:00Z</time>
      </trkpt>
      <trkpt lat="47.7685810" lon="2.3752490">
        <ele>120.8</ele>
        <time>2020-07-03T06:52:02Z</time>
      </trkpt>
      <trkpt lat="47.7685950" lon="2.3752950">
        <ele>120.8</ele>
        <time>2020-07-03T06:52:03Z</time>
      </trkpt>
      <trkpt lat="47.7686200" lon="2.3754390">
        <ele>120.6</ele>
        <time>2020-07-03T06:52:06Z</time>
      </trkpt>
      <trkpt lat="47.7686380" lon="2.3755300">
        <ele>120.8</ele>
        <time>2020-07-03T06:52:08Z</time>
      </trkpt>
      <trkpt lat="47.7686370" lon="2.3756800">
        <ele>120.6</ele>
        <time>2020-07-03T06:52:12Z</time>
      </trkpt>
      <trkpt lat="47.7686370" lon="2.3757100">
        <ele>120.6</ele>
        <time>2020-07-03T06:52:13Z</time>
      </trkpt>
      <trkpt lat="47.7687190" lon="2.3759010">
        <ele>120.8</ele>
        <time>2020-07-03T06:52:21Z</time>
      </trkpt>
      <trkpt lat="47.7687610" lon="2.3760420">
        <ele>120.8</ele>
        <time>2020-07-03T06:52:25Z</time>
      </trkpt>
      <trkpt lat="47.7687690" lon="2.3760820">
        <ele>120.8</ele>
        <time>2020-07-03T06:52:26Z</time>
      </trkpt>
      <trkpt lat="47.7687790" lon="2.3761210">
        <ele>120.8</ele>
        <time>2020-07-03T06:52:27Z</time>
      </trkpt>
      <trkpt lat="47.7688140" lon="2.3762390">
        <ele>121.0</ele>
        <time>2020-07-03T06:52:30Z</time>
      </trkpt>
      <trkpt lat="47.7688300" lon="2.3762760">
        <ele>121.0</ele>
        <time>2020-07-03T06:52:31Z</time>
      </trkpt>
      <trkpt lat="47.7688440" lon="2.3763120">
        <ele>121.0</ele>
        <time>2020-07-03T06:52:32Z</time>
      </trkpt>
      <trkpt lat="47.7688520" lon="2.3763870">
        <ele>121.0</ele>
        <time>2020-07-03T06:52:34Z</time>
      </trkpt>
      <trkpt lat="47.7688070" lon="2.3764730">
        <ele>121.2</ele>
        <time>2020-07-03T06:52:38Z</time>
      </trkpt>
      <trkpt lat="47.7687350" lon="2.3765270">
        <ele>121.0</ele>
        <time>2020-07-03T06:52:42Z</time>
      </trkpt>
      <trkpt lat="47.7686750" lon="2.3765670">
        <ele>121.0</ele>
        <time>2020-07-03T06:52:44Z</time>
      </trkpt>
      <trkpt lat="47.7685120" lon="2.3767130">
        <ele>120.6</ele>
        <time>2020-07-03T06:52:50Z</time>
      </trkpt>
      <trkpt lat="47.7684820" lon="2.3767400">
        <ele>120.4</ele>
        <time>2020-07-03T06:52:51Z</time>
      </trkpt>
      <trkpt lat="47.7684510" lon="2.3767660">
        <ele>120.0</ele>
        <time>2020-07-03T06:52:52Z</time>
      </trkpt>
      <trkpt lat="47.7683630" lon="2.3768440">
        <ele>119.2</ele>
        <time>2020-07-03T06:52:55Z</time>
      </trkpt>
      <trkpt lat="47.7683360" lon="2.3768660">
        <ele>119.0</ele>
        <time>2020-07-03T06:52:56Z</time>
      </trkpt>
      <trkpt lat="47.7683100" lon="2.3768860">
        <ele>119.0</ele>
        <time>2020-07-03T06:52:57Z</time>
      </trkpt>
      <trkpt lat="47.7682410" lon="2.3769450">
        <ele>118.8</ele>
        <time>2020-07-03T06:53:00Z</time>
      </trkpt>
      <trkpt lat="47.7681370" lon="2.3769930">
        <ele>118.6</ele>
        <time>2020-07-03T06:53:06Z</time>
      </trkpt>
      <trkpt lat="47.7680500" lon="2.3769710">
        <ele>118.6</ele>
        <time>2020-07-03T06:53:11Z</time>
      </trkpt>
      <trkpt lat="47.7680450" lon="2.3769650">
        <ele>118.8</ele>
        <time>2020-07-03T06:53:15Z</time>
      </trkpt>
      <trkpt lat="47.7680480" lon="2.3769800">
        <ele>119.0</ele>
        <time>2020-07-03T06:53:23Z</time>
      </trkpt>
      <trkpt lat="47.7680420" lon="2.3769740">
        <ele>119.0</ele>
        <time>2020-07-03T06:53:41Z</time>
      </trkpt>
      <trkpt lat="47.7680410" lon="2.3769730">
        <ele>119.0</ele>
        <time>2020-07-03T06:54:08Z</time>
      </trkpt>
      <trkpt lat="47.7680470" lon="2.3769640">
        <ele>118.8</ele>
        <time>2020-07-03T06:54:28Z</time>
      </trkpt>
      <trkpt lat="47.7680530" lon="2.3769710">
        <ele>118.8</ele>
        <time>2020-07-03T06:54:46Z</time>
      </trkpt>
      <trkpt lat="47.7680590" lon="2.3769750">
        <ele>119.0</ele>
        <time>2020-07-03T06:55:22Z</time>
      </trkpt>
      <trkpt lat="47.7680570" lon="2.3769650">
        <ele>118.8</ele>
        <time>2020-07-03T06:55:52Z</time>
      </trkpt>
      <trkpt lat="47.7680610" lon="2.3769520">
        <ele>118.6</ele>
        <time>2020-07-03T06:56:23Z</time>
      </trkpt>
      <trkpt lat="47.7680650" lon="2.3769500">
        <ele>118.6</ele>
        <time>2020-07-03T06:56:32Z</time>
      </trkpt>
      <trkpt lat="47.7680650" lon="2.3769500">
        <ele>118.6</ele>
        <time>2020-07-03T06:56:33Z</time>
      </trkpt>
      <trkpt lat="47.7680650" lon="2.3769500">
        <ele>118.6</ele>
        <time>2020-07-03T06:56:34Z</time>
      </trkpt>
      <trkpt lat="47.7680650" lon="2.3769500">
        <ele>118.8</ele>
        <time>2020-07-03T06:56:36Z</time>
      </trkpt>
      <trkpt lat="47.7680650" lon="2.3769500">
        <ele>118.8</ele>
        <time>2020-07-03T06:56:37Z</time>
      </trkpt>
      <trkpt lat="47.7680660" lon="2.3769500">
        <ele>118.6</ele>
        <time>2020-07-03T06:56:40Z</time>
      </trkpt>
      <trkpt lat="47.7680670" lon="2.3769490">
        <ele>118.6</ele>
        <time>2020-07-03T06:56:51Z</time>
      </trkpt>
      <trkpt lat="47.7680670" lon="2.3769490">
        <ele>118.6</ele>
        <time>2020-07-03T06:56:52Z</time>
      </trkpt>
      <trkpt lat="47.7680670" lon="2.3769500">
        <ele>118.6</ele>
        <time>2020-07-03T06:56:53Z</time>
      </trkpt>
      <trkpt lat="47.7680670" lon="2.3769500">
        <ele>118.4</ele>
        <time>2020-07-03T06:56:55Z</time>
      </trkpt>
      <trkpt lat="47.7680670" lon="2.3769500">
        <ele>118.6</ele>
        <time>2020-07-03T06:56:56Z</time>
      </trkpt>
      <trkpt lat="47.7680670" lon="2.3769510">
        <ele>118.4</ele>
        <time>2020-07-03T06:56:57Z</time>
      </trkpt>
      <trkpt lat="47.7680670" lon="2.3769510">
        <ele>118.4</ele>
        <time>2020-07-03T06:57:00Z</time>
      </trkpt>
      <trkpt lat="47.7680680" lon="2.3769510">
        <ele>118.6</ele>
        <time>2020-07-03T06:57:01Z</time>
      </trkpt>
      <trkpt lat="47.7680680" lon="2.3769510">
        <ele>118.4</ele>
        <time>2020-07-03T06:57:02Z</time>
      </trkpt>
      <trkpt lat="47.7680680" lon="2.3769510">
        <ele>118.6</ele>
        <time>2020-07-03T06:57:03Z</time>
      </trkpt>
      <trkpt lat="47.7680690" lon="2.3769510">
        <ele>118.6</ele>
        <time>2020-07-03T06:57:10Z</time>
      </trkpt>
      <trkpt lat="47.7680700" lon="2.3769510">
        <ele>118.6</ele>
        <time>2020-07-03T06:57:16Z</time>
      </trkpt>
      <trkpt lat="47.7680710" lon="2.3769510">
        <ele>118.8</ele>
        <time>2020-07-03T06:57:20Z</time>
      </trkpt>
      <trkpt lat="47.7681310" lon="2.3769920">
        <ele>118.8</ele>
        <time>2020-07-03T06:57:31Z</time>
      </trkpt>
      <trkpt lat="47.7682680" lon="2.3769200">
        <ele>118.4</ele>
        <time>2020-07-03T06:57:38Z</time>
      </trkpt>
      <trkpt lat="47.7684540" lon="2.3767610">
        <ele>118.0</ele>
        <time>2020-07-03T06:57:48Z</time>
      </trkpt>
      <trkpt lat="47.7685010" lon="2.3767150">
        <ele>118.0</ele>
        <time>2020-07-03T06:57:50Z</time>
      </trkpt>
      <trkpt lat="47.7686760" lon="2.3765790">
        <ele>117.6</ele>
        <time>2020-07-03T06:57:57Z</time>
      </trkpt>
      <trkpt lat="47.7687690" lon="2.3765290">
        <ele>117.6</ele>
        <time>2020-07-03T06:58:02Z</time>
      </trkpt>
      <trkpt lat="47.7687910" lon="2.3765230">
        <ele>117.8</ele>
        <time>2020-07-03T06:58:04Z</time>
      </trkpt>
      <trkpt lat="47.7688130" lon="2.3765160">
        <ele>117.8</ele>
        <time>2020-07-03T06:58:06Z</time>
      </trkpt>
      <trkpt lat="47.7688590" lon="2.3764390">
        <ele>118.4</ele>
        <time>2020-07-03T06:58:11Z</time>
      </trkpt>
      <trkpt lat="47.7689480" lon="2.3763440">
        <ele>119.6</ele>
        <time>2020-07-03T06:58:18Z</time>
      </trkpt>
      <trkpt lat="47.7689660" lon="2.3763560">
        <ele>120.2</ele>
        <time>2020-07-03T06:58:25Z</time>
      </trkpt>
      <trkpt lat="47.7689810" lon="2.3763800">
        <ele>120.4</ele>
        <time>2020-07-03T06:58:34Z</time>
      </trkpt>
      <trkpt lat="47.7690040" lon="2.3764320">
        <ele>120.4</ele>
        <time>2020-07-03T06:58:36Z</time>
      </trkpt>
      <trkpt lat="47.7690380" lon="2.3765110">
        <ele>120.2</ele>
        <time>2020-07-03T06:58:38Z</time>
      </trkpt>
      <trkpt lat="47.7690760" lon="2.3766100">
        <ele>120.2</ele>
        <time>2020-07-03T06:58:40Z</time>
      </trkpt>
      <trkpt lat="47.7692110" lon="2.3768310">
        <ele>119.4</ele>
        <time>2020-07-03T06:58:46Z</time>
      </trkpt>
      <trkpt lat="47.7692440" lon="2.3768470">
        <ele>118.8</ele>
        <time>2020-07-03T06:58:47Z</time>
      </trkpt>
      <trkpt lat="47.7692810" lon="2.3768660">
        <ele>118.4</ele>
        <time>2020-07-03T06:58:48Z</time>
      </trkpt>
      <trkpt lat="47.7694100" lon="2.3769250">
        <ele>117.6</ele>
        <time>2020-07-03T06:58:51Z</time>
      </trkpt>
      <trkpt lat="47.7694480" lon="2.3769430">
        <ele>117.4</ele>
        <time>2020-07-03T06:58:52Z</time>
      </trkpt>
      <trkpt lat="47.7695490" lon="2.3770630">
        <ele>116.6</ele>
        <time>2020-07-03T06:58:56Z</time>
      </trkpt>
      <trkpt lat="47.7696110" lon="2.3773150">
        <ele>116.0</ele>
        <time>2020-07-03T06:59:02Z</time>
      </trkpt>
      <trkpt lat="47.7697330" lon="2.3773810">
        <ele>116.0</ele>
        <time>2020-07-03T06:59:06Z</time>
      </trkpt>
      <trkpt lat="47.7699910" lon="2.3775040">
        <ele>116.0</ele>
        <time>2020-07-03T06:59:15Z</time>
      </trkpt>
      <trkpt lat="47.7702880" lon="2.3777370">
        <ele>115.8</ele>
        <time>2020-07-03T06:59:25Z</time>
      </trkpt>
      <trkpt lat="47.7705040" lon="2.3780370">
        <ele>116.0</ele>
        <time>2020-07-03T06:59:33Z</time>
      </trkpt>
      <trkpt lat="47.7707550" lon="2.3785920">
        <ele>116.2</ele>
        <time>2020-07-03T06:59:44Z</time>
      </trkpt>
      <trkpt lat="47.7709670" lon="2.3791730">
        <ele>116.2</ele>
        <time>2020-07-03T06:59:55Z</time>
      </trkpt>
      <trkpt lat="47.7711720" lon="2.3798110">
        <ele>116.4</ele>
        <time>2020-07-03T07:00:06Z</time>
      </trkpt>
      <trkpt lat="47.7713470" lon="2.3806260">
        <ele>116.0</ele>
        <time>2020-07-03T07:00:19Z</time>
      </trkpt>
      <trkpt lat="47.7713690" lon="2.3808180">
        <ele>116.2</ele>
        <time>2020-07-03T07:00:22Z</time>
      </trkpt>
      <trkpt lat="47.7713750" lon="2.3813930">
        <ele>116.0</ele>
        <time>2020-07-03T07:00:31Z</time>
      </trkpt>
      <trkpt lat="47.7713420" lon="2.3821780">
        <ele>116.2</ele>
        <time>2020-07-03T07:00:43Z</time>
      </trkpt>
      <trkpt lat="47.7712320" lon="2.3825330">
        <ele>116.0</ele>
        <time>2020-07-03T07:00:49Z</time>
      </trkpt>
      <trkpt lat="47.7711690" lon="2.3828100">
        <ele>116.2</ele>
        <time>2020-07-03T07:00:55Z</time>
      </trkpt>
      <trkpt lat="47.7711800" lon="2.3829540">
        <ele>116.4</ele>
        <time>2020-07-03T07:00:59Z</time>
      </trkpt>
      <trkpt lat="47.7711910" lon="2.3830440">
        <ele>116.6</ele>
        <time>2020-07-03T07:01:02Z</time>
      </trkpt>
      <trkpt lat="47.7712080" lon="2.3830900">
        <ele>117.0</ele>
        <time>2020-07-03T07:01:05Z</time>
      </trkpt>
      <trkpt lat="47.7712190" lon="2.3830960">
        <ele>117.6</ele>
        <time>2020-07-03T07:01:07Z</time>
      </trkpt>
      <trkpt lat="47.7712570" lon="2.3831370">
        <ele>119.6</ele>
        <time>2020-07-03T07:01:19Z</time>
      </trkpt>
      <trkpt lat="47.7712390" lon="2.3832090">
        <ele>119.8</ele>
        <time>2020-07-03T07:01:25Z</time>
      </trkpt>
      <trkpt lat="47.7712610" lon="2.3832920">
        <ele>120.0</ele>
        <time>2020-07-03T07:01:28Z</time>
      </trkpt>
      <trkpt lat="47.7713110" lon="2.3835780">
        <ele>120.4</ele>
        <time>2020-07-03T07:01:35Z</time>
      </trkpt>
      <trkpt lat="47.7713760" lon="2.3840060">
        <ele>120.4</ele>
        <time>2020-07-03T07:01:44Z</time>
      </trkpt>
      <trkpt lat="47.7714990" lon="2.3846200">
        <ele>120.6</ele>
        <time>2020-07-03T07:01:54Z</time>
      </trkpt>
      <trkpt lat="47.7715860" lon="2.3853880">
        <ele>120.2</ele>
        <time>2020-07-03T07:02:06Z</time>
      </trkpt>
      <trkpt lat="47.7716400" lon="2.3862280">
        <ele>120.6</ele>
        <time>2020-07-03T07:02:18Z</time>
      </trkpt>
      <trkpt lat="47.7716510" lon="2.3863660">
        <ele>120.6</ele>
        <time>2020-07-03T07:02:20Z</time>
      </trkpt>
      <trkpt lat="47.7716860" lon="2.3872150">
        <ele>120.8</ele>
        <time>2020-07-03T07:02:32Z</time>
      </trkpt>
      <trkpt lat="47.7717000" lon="2.3874400">
        <ele>120.6</ele>
        <time>2020-07-03T07:02:35Z</time>
      </trkpt>
      <trkpt lat="47.7717320" lon="2.3879090">
        <ele>120.6</ele>
        <time>2020-07-03T07:02:41Z</time>
      </trkpt>
      <trkpt lat="47.7717620" lon="2.3883410">
        <ele>120.0</ele>
        <time>2020-07-03T07:02:47Z</time>
      </trkpt>
      <trkpt lat="47.7718040" lon="2.3891460">
        <ele>119.8</ele>
        <time>2020-07-03T07:02:59Z</time>
      </trkpt>
      <trkpt lat="47.7718320" lon="2.3899340">
        <ele>120.0</ele>
        <time>2020-07-03T07:03:11Z</time>
      </trkpt>
      <trkpt lat="47.7718060" lon="2.3907340">
        <ele>120.4</ele>
        <time>2020-07-03T07:03:23Z</time>
      </trkpt>
      <trkpt lat="47.7718020" lon="2.3908010">
        <ele>120.2</ele>
        <time>2020-07-03T07:03:24Z</time>
      </trkpt>
      <trkpt lat="47.7717830" lon="2.3916580">
        <ele>120.2</ele>
        <time>2020-07-03T07:03:36Z</time>
      </trkpt>
      <trkpt lat="47.7717780" lon="2.3917310">
        <ele>120.2</ele>
        <time>2020-07-03T07:03:37Z</time>
      </trkpt>
      <trkpt lat="47.7716690" lon="2.3925030">
        <ele>120.2</ele>
        <time>2020-07-03T07:03:48Z</time>
      </trkpt>
      <trkpt lat="47.7714760" lon="2.3932530">
        <ele>120.2</ele>
        <time>2020-07-03T07:04:00Z</time>
      </trkpt>
      <trkpt lat="47.7712630" lon="2.3939150">
        <ele>120.2</ele>
        <time>2020-07-03T07:04:11Z</time>
      </trkpt>
      <trkpt lat="47.7709690" lon="2.3946240">
        <ele>120.2</ele>
        <time>2020-07-03T07:04:24Z</time>
      </trkpt>
      <trkpt lat="47.7707590" lon="2.3951980">
        <ele>120.2</ele>
        <time>2020-07-03T07:04:34Z</time>
      </trkpt>
      <trkpt lat="47.7706140" lon="2.3957370">
        <ele>120.2</ele>
        <time>2020-07-03T07:04:42Z</time>
      </trkpt>
      <trkpt lat="47.7704940" lon="2.3963110">
        <ele>120.6</ele>
        <time>2020-07-03T07:04:51Z</time>
      </trkpt>
      <trkpt lat="47.7703120" lon="2.3968820">
        <ele>120.8</ele>
        <time>2020-07-03T07:05:01Z</time>
      </trkpt>
      <trkpt lat="47.7702870" lon="2.3969370">
        <ele>120.8</ele>
        <time>2020-07-03T07:05:02Z</time>
      </trkpt>
      <trkpt lat="47.7701300" lon="2.3972930">
        <ele>121.0</ele>
        <time>2020-07-03T07:05:09Z</time>
      </trkpt>
      <trkpt lat="47.7698730" lon="2.3980040">
        <ele>120.8</ele>
        <time>2020-07-03T07:05:22Z</time>
      </trkpt>
      <trkpt lat="47.7696990" lon="2.3984900">
        <ele>120.8</ele>
        <time>2020-07-03T07:05:31Z</time>
      </trkpt>
      <trkpt lat="47.7696010" lon="2.3987890">
        <ele>120.8</ele>
        <time>2020-07-03T07:05:36Z</time>
      </trkpt>
      <trkpt lat="47.7695100" lon="2.3990650">
        <ele>120.6</ele>
        <time>2020-07-03T07:05:41Z</time>
      </trkpt>
      <trkpt lat="47.7693190" lon="2.3996450">
        <ele>120.4</ele>
        <time>2020-07-03T07:05:52Z</time>
      </trkpt>
      <trkpt lat="47.7691540" lon="2.4001390">
        <ele>120.6</ele>
        <time>2020-07-03T07:06:00Z</time>
      </trkpt>
      <trkpt lat="47.7689930" lon="2.4006710">
        <ele>120.4</ele>
        <time>2020-07-03T07:06:09Z</time>
      </trkpt>
      <trkpt lat="47.7687840" lon="2.4013290">
        <ele>120.4</ele>
        <time>2020-07-03T07:06:20Z</time>
      </trkpt>
      <trkpt lat="47.7685760" lon="2.4019550">
        <ele>120.6</ele>
        <time>2020-07-03T07:06:31Z</time>
      </trkpt>
      <trkpt lat="47.7684310" lon="2.4025680">
        <ele>120.4</ele>
        <time>2020-07-03T07:06:41Z</time>
      </trkpt>
      <trkpt lat="47.7682990" lon="2.4033250">
        <ele>120.8</ele>
        <time>2020-07-03T07:06:53Z</time>
      </trkpt>
      <trkpt lat="47.7681980" lon="2.4039270">
        <ele>120.6</ele>
        <time>2020-07-03T07:07:03Z</time>
      </trkpt>
      <trkpt lat="47.7681050" lon="2.4046030">
        <ele>120.6</ele>
        <time>2020-07-03T07:07:14Z</time>
      </trkpt>
      <trkpt lat="47.7679640" lon="2.4054040">
        <ele>120.4</ele>
        <time>2020-07-03T07:07:26Z</time>
      </trkpt>
      <trkpt lat="47.7679540" lon="2.4054670">
        <ele>120.4</ele>
        <time>2020-07-03T07:07:27Z</time>
      </trkpt>
      <trkpt lat="47.7678240" lon="2.4062100">
        <ele>120.4</ele>
        <time>2020-07-03T07:07:39Z</time>
      </trkpt>
      <trkpt lat="47.7676820" lon="2.4069310">
        <ele>120.4</ele>
        <time>2020-07-03T07:07:50Z</time>
      </trkpt>
      <trkpt lat="47.7675530" lon="2.4077250">
        <ele>120.0</ele>
        <time>2020-07-03T07:08:02Z</time>
      </trkpt>
      <trkpt lat="47.7675440" lon="2.4077900">
        <ele>120.2</ele>
        <time>2020-07-03T07:08:03Z</time>
      </trkpt>
      <trkpt lat="47.7674460" lon="2.4084990">
        <ele>120.2</ele>
        <time>2020-07-03T07:08:14Z</time>
      </trkpt>
      <trkpt lat="47.7673740" lon="2.4091730">
        <ele>120.2</ele>
        <time>2020-07-03T07:08:25Z</time>
      </trkpt>
      <trkpt lat="47.7672930" lon="2.4097600">
        <ele>120.4</ele>
        <time>2020-07-03T07:08:34Z</time>
      </trkpt>
      <trkpt lat="47.7671720" lon="2.4105550">
        <ele>120.6</ele>
        <time>2020-07-03T07:08:47Z</time>
      </trkpt>
      <trkpt lat="47.7670570" lon="2.4113460">
        <ele>120.4</ele>
        <time>2020-07-03T07:08:59Z</time>
      </trkpt>
      <trkpt lat="47.7670270" lon="2.4115470">
        <ele>120.4</ele>
        <time>2020-07-03T07:09:02Z</time>
      </trkpt>
      <trkpt lat="47.7669180" lon="2.4121290">
        <ele>120.8</ele>
        <time>2020-07-03T07:09:11Z</time>
      </trkpt>
      <trkpt lat="47.7667920" lon="2.4127630">
        <ele>121.2</ele>
        <time>2020-07-03T07:09:21Z</time>
      </trkpt>
      <trkpt lat="47.7666840" lon="2.4134490">
        <ele>120.8</ele>
        <time>2020-07-03T07:09:31Z</time>
      </trkpt>
      <trkpt lat="47.7666180" lon="2.4142440">
        <ele>120.4</ele>
        <time>2020-07-03T07:09:42Z</time>
      </trkpt>
      <trkpt lat="47.7666070" lon="2.4143950">
        <ele>120.6</ele>
        <time>2020-07-03T07:09:44Z</time>
      </trkpt>
      <trkpt lat="47.7665450" lon="2.4152290">
        <ele>120.6</ele>
        <time>2020-07-03T07:09:55Z</time>
      </trkpt>
      <trkpt lat="47.7665410" lon="2.4153070">
        <ele>120.6</ele>
        <time>2020-07-03T07:09:56Z</time>
      </trkpt>
      <trkpt lat="47.7664960" lon="2.4159800">
        <ele>120.6</ele>
        <time>2020-07-03T07:10:05Z</time>
      </trkpt>
      <trkpt lat="47.7664500" lon="2.4166660">
        <ele>120.4</ele>
        <time>2020-07-03T07:10:15Z</time>
      </trkpt>
      <trkpt lat="47.7664050" lon="2.4173690">
        <ele>120.6</ele>
        <time>2020-07-03T07:10:26Z</time>
      </trkpt>
      <trkpt lat="47.7663350" lon="2.4179010">
        <ele>121.0</ele>
        <time>2020-07-03T07:10:34Z</time>
      </trkpt>
      <trkpt lat="47.7661680" lon="2.4186590">
        <ele>120.8</ele>
        <time>2020-07-03T07:10:46Z</time>
      </trkpt>
      <trkpt lat="47.7660500" lon="2.4191820">
        <ele>121.0</ele>
        <time>2020-07-03T07:10:55Z</time>
      </trkpt>
      <trkpt lat="47.7660350" lon="2.4193020">
        <ele>121.2</ele>
        <time>2020-07-03T07:10:57Z</time>
      </trkpt>
      <trkpt lat="47.7660000" lon="2.4196730">
        <ele>121.2</ele>
        <time>2020-07-03T07:11:03Z</time>
      </trkpt>
      <trkpt lat="47.7659470" lon="2.4202530">
        <ele>121.6</ele>
        <time>2020-07-03T07:11:13Z</time>
      </trkpt>
      <trkpt lat="47.7658660" lon="2.4208630">
        <ele>121.4</ele>
        <time>2020-07-03T07:11:23Z</time>
      </trkpt>
      <trkpt lat="47.7657610" lon="2.4214940">
        <ele>121.4</ele>
        <time>2020-07-03T07:11:32Z</time>
      </trkpt>
      <trkpt lat="47.7656740" lon="2.4220020">
        <ele>121.2</ele>
        <time>2020-07-03T07:11:39Z</time>
      </trkpt>
      <trkpt lat="47.7655410" lon="2.4228220">
        <ele>121.0</ele>
        <time>2020-07-03T07:11:50Z</time>
      </trkpt>
      <trkpt lat="47.7654300" lon="2.4233750">
        <ele>121.0</ele>
        <time>2020-07-03T07:11:58Z</time>
      </trkpt>
      <trkpt lat="47.7654070" lon="2.4237860">
        <ele>121.0</ele>
        <time>2020-07-03T07:12:04Z</time>
      </trkpt>
      <trkpt lat="47.7654850" lon="2.4242690">
        <ele>121.0</ele>
        <time>2020-07-03T07:12:11Z</time>
      </trkpt>
      <trkpt lat="47.7656460" lon="2.4248520">
        <ele>120.8</ele>
        <time>2020-07-03T07:12:20Z</time>
      </trkpt>
      <trkpt lat="47.7656690" lon="2.4249140">
        <ele>120.8</ele>
        <time>2020-07-03T07:12:21Z</time>
      </trkpt>
      <trkpt lat="47.7658060" lon="2.4254690">
        <ele>120.8</ele>
        <time>2020-07-03T07:12:29Z</time>
      </trkpt>
      <trkpt lat="47.7659190" lon="2.4261370">
        <ele>120.6</ele>
        <time>2020-07-03T07:12:38Z</time>
      </trkpt>
      <trkpt lat="47.7659120" lon="2.4265830">
        <ele>120.4</ele>
        <time>2020-07-03T07:12:44Z</time>
      </trkpt>
      <trkpt lat="47.7659040" lon="2.4269830">
        <ele>120.6</ele>
        <time>2020-07-03T07:12:49Z</time>
      </trkpt>
      <trkpt lat="47.7659110" lon="2.4272720">
        <ele>120.6</ele>
        <time>2020-07-03T07:12:53Z</time>
      </trkpt>
      <trkpt lat="47.7658730" lon="2.4279570">
        <ele>121.4</ele>
        <time>2020-07-03T07:13:02Z</time>
      </trkpt>
      <trkpt lat="47.7657790" lon="2.4288040">
        <ele>121.0</ele>
        <time>2020-07-03T07:13:12Z</time>
      </trkpt>
      <trkpt lat="47.7657750" lon="2.4288840">
        <ele>121.0</ele>
        <time>2020-07-03T07:13:13Z</time>
      </trkpt>
      <trkpt lat="47.7657690" lon="2.4295010">
        <ele>120.6</ele>
        <time>2020-07-03T07:13:21Z</time>
      </trkpt>
      <trkpt lat="47.7658030" lon="2.4303620">
        <ele>120.6</ele>
        <time>2020-07-03T07:13:32Z</time>
      </trkpt>
      <trkpt lat="47.7658080" lon="2.4305130">
        <ele>120.8</ele>
        <time>2020-07-03T07:13:34Z</time>
      </trkpt>
      <trkpt lat="47.7658150" lon="2.4313710">
        <ele>120.8</ele>
        <time>2020-07-03T07:13:45Z</time>
      </trkpt>
      <trkpt lat="47.7658120" lon="2.4321990">
        <ele>121.0</ele>
        <time>2020-07-03T07:13:56Z</time>
      </trkpt>
      <trkpt lat="47.7657950" lon="2.4329630">
        <ele>121.0</ele>
        <time>2020-07-03T07:14:06Z</time>
      </trkpt>
      <trkpt lat="47.7657080" lon="2.4336000">
        <ele>120.8</ele>
        <time>2020-07-03T07:14:14Z</time>
      </trkpt>
      <trkpt lat="47.7655860" lon="2.4343940">
        <ele>121.0</ele>
        <time>2020-07-03T07:14:24Z</time>
      </trkpt>
      <trkpt lat="47.7655670" lon="2.4345570">
        <ele>121.0</ele>
        <time>2020-07-03T07:14:26Z</time>
      </trkpt>
      <trkpt lat="47.7654930" lon="2.4351790">
        <ele>121.2</ele>
        <time>2020-07-03T07:14:34Z</time>
      </trkpt>
      <trkpt lat="47.7653940" lon="2.4359470">
        <ele>121.2</ele>
        <time>2020-07-03T07:14:44Z</time>
      </trkpt>
      <trkpt lat="47.7652780" lon="2.4367590">
        <ele>121.2</ele>
        <time>2020-07-03T07:14:54Z</time>
      </trkpt>
      <trkpt lat="47.7651770" lon="2.4375590">
        <ele>121.2</ele>
        <time>2020-07-03T07:15:04Z</time>
      </trkpt>
      <trkpt lat="47.7651640" lon="2.4376410">
        <ele>121.4</ele>
        <time>2020-07-03T07:15:05Z</time>
      </trkpt>
      <trkpt lat="47.7650830" lon="2.4383930">
        <ele>121.4</ele>
        <time>2020-07-03T07:15:15Z</time>
      </trkpt>
      <trkpt lat="47.7649920" lon="2.4389810">
        <ele>121.6</ele>
        <time>2020-07-03T07:15:23Z</time>
      </trkpt>
      <trkpt lat="47.7648800" lon="2.4396040">
        <ele>121.6</ele>
        <time>2020-07-03T07:15:31Z</time>
      </trkpt>
      <trkpt lat="47.7647490" lon="2.4402900">
        <ele>121.6</ele>
        <time>2020-07-03T07:15:40Z</time>
      </trkpt>
      <trkpt lat="47.7646680" lon="2.4408140">
        <ele>121.8</ele>
        <time>2020-07-03T07:15:47Z</time>
      </trkpt>
      <trkpt lat="47.7645500" lon="2.4414050">
        <ele>121.6</ele>
        <time>2020-07-03T07:15:55Z</time>
      </trkpt>
      <trkpt lat="47.7644350" lon="2.4419450">
        <ele>121.8</ele>
        <time>2020-07-03T07:16:03Z</time>
      </trkpt>
      <trkpt lat="47.7642830" lon="2.4424640">
        <ele>121.8</ele>
        <time>2020-07-03T07:16:10Z</time>
      </trkpt>
      <trkpt lat="47.7640230" lon="2.4432250">
        <ele>121.4</ele>
        <time>2020-07-03T07:16:20Z</time>
      </trkpt>
      <trkpt lat="47.7637940" lon="2.4436730">
        <ele>121.2</ele>
        <time>2020-07-03T07:16:27Z</time>
      </trkpt>
      <trkpt lat="47.7636260" lon="2.4442030">
        <ele>121.4</ele>
        <time>2020-07-03T07:16:35Z</time>
      </trkpt>
      <trkpt lat="47.7634740" lon="2.4448230">
        <ele>121.6</ele>
        <time>2020-07-03T07:16:44Z</time>
      </trkpt>
      <trkpt lat="47.7632970" lon="2.4455240">
        <ele>121.6</ele>
        <time>2020-07-03T07:16:54Z</time>
      </trkpt>
      <trkpt lat="47.7631290" lon="2.4460090">
        <ele>121.4</ele>
        <time>2020-07-03T07:17:01Z</time>
      </trkpt>
      <trkpt lat="47.7629210" lon="2.4465520">
        <ele>121.6</ele>
        <time>2020-07-03T07:17:09Z</time>
      </trkpt>
      <trkpt lat="47.7626740" lon="2.4472170">
        <ele>121.4</ele>
        <time>2020-07-03T07:17:19Z</time>
      </trkpt>
      <trkpt lat="47.7625830" lon="2.4474820">
        <ele>121.4</ele>
        <time>2020-07-03T07:17:23Z</time>
      </trkpt>
      <trkpt lat="47.7625360" lon="2.4476570">
        <ele>121.4</ele>
        <time>2020-07-03T07:17:26Z</time>
      </trkpt>
      <trkpt lat="47.7624930" lon="2.4477890">
        <ele>121.4</ele>
        <time>2020-07-03T07:17:28Z</time>
      </trkpt>
      <trkpt lat="47.7624050" lon="2.4480040">
        <ele>121.2</ele>
        <time>2020-07-03T07:17:31Z</time>
      </trkpt>
      <trkpt lat="47.7622490" lon="2.4484030">
        <ele>121.2</ele>
        <time>2020-07-03T07:17:37Z</time>
      </trkpt>
      <trkpt lat="47.7619910" lon="2.4489940">
        <ele>121.4</ele>
        <time>2020-07-03T07:17:46Z</time>
      </trkpt>
      <trkpt lat="47.7617680" lon="2.4495230">
        <ele>121.4</ele>
        <time>2020-07-03T07:17:54Z</time>
      </trkpt>
      <trkpt lat="47.7615820" lon="2.4501130">
        <ele>121.4</ele>
        <time>2020-07-03T07:18:03Z</time>
      </trkpt>
      <trkpt lat="47.7614010" lon="2.4506670">
        <ele>121.4</ele>
        <time>2020-07-03T07:18:11Z</time>
      </trkpt>
      <trkpt lat="47.7612850" lon="2.4510590">
        <ele>121.4</ele>
        <time>2020-07-03T07:18:17Z</time>
      </trkpt>
      <trkpt lat="47.7610580" lon="2.4517750">
        <ele>121.4</ele>
        <time>2020-07-03T07:18:27Z</time>
      </trkpt>
      <trkpt lat="47.7608430" lon="2.4523070">
        <ele>121.4</ele>
        <time>2020-07-03T07:18:35Z</time>
      </trkpt>
      <trkpt lat="47.7605990" lon="2.4528230">
        <ele>121.8</ele>
        <time>2020-07-03T07:18:43Z</time>
      </trkpt>
      <trkpt lat="47.7603250" lon="2.4533330">
        <ele>121.8</ele>
        <time>2020-07-03T07:18:51Z</time>
      </trkpt>
      <trkpt lat="47.7599670" lon="2.4539900">
        <ele>121.8</ele>
        <time>2020-07-03T07:19:01Z</time>
      </trkpt>
      <trkpt lat="47.7596830" lon="2.4545930">
        <ele>122.2</ele>
        <time>2020-07-03T07:19:10Z</time>
      </trkpt>
      <trkpt lat="47.7594090" lon="2.4552940">
        <ele>122.4</ele>
        <time>2020-07-03T07:19:20Z</time>
      </trkpt>
      <trkpt lat="47.7593820" lon="2.4553690">
        <ele>122.4</ele>
        <time>2020-07-03T07:19:21Z</time>
      </trkpt>
      <trkpt lat="47.7591260" lon="2.4560840">
        <ele>122.4</ele>
        <time>2020-07-03T07:19:31Z</time>
      </trkpt>
      <trkpt lat="47.7590960" lon="2.4561540">
        <ele>122.4</ele>
        <time>2020-07-03T07:19:32Z</time>
      </trkpt>
      <trkpt lat="47.7589410" lon="2.4565200">
        <ele>122.6</ele>
        <time>2020-07-03T07:19:38Z</time>
      </trkpt>
      <trkpt lat="47.7587660" lon="2.4568970">
        <ele>122.8</ele>
        <time>2020-07-03T07:19:44Z</time>
      </trkpt>
      <trkpt lat="47.7587070" lon="2.4570270">
        <ele>122.6</ele>
        <time>2020-07-03T07:19:46Z</time>
      </trkpt>
      <trkpt lat="47.7584140" lon="2.4577000">
        <ele>122.8</ele>
        <time>2020-07-03T07:19:56Z</time>
      </trkpt>
      <trkpt lat="47.7583860" lon="2.4577670">
        <ele>122.8</ele>
        <time>2020-07-03T07:19:57Z</time>
      </trkpt>
      <trkpt lat="47.7580890" lon="2.4584500">
        <ele>122.8</ele>
        <time>2020-07-03T07:20:07Z</time>
      </trkpt>
      <trkpt lat="47.7580320" lon="2.4585800">
        <ele>123.0</ele>
        <time>2020-07-03T07:20:09Z</time>
      </trkpt>
      <trkpt lat="47.7578150" lon="2.4590670">
        <ele>122.6</ele>
        <time>2020-07-03T07:20:17Z</time>
      </trkpt>
      <trkpt lat="47.7575140" lon="2.4597170">
        <ele>122.6</ele>
        <time>2020-07-03T07:20:27Z</time>
      </trkpt>
      <trkpt lat="47.7571930" lon="2.4604500">
        <ele>123.0</ele>
        <time>2020-07-03T07:20:38Z</time>
      </trkpt>
      <trkpt lat="47.7568760" lon="2.4611790">
        <ele>123.0</ele>
        <time>2020-07-03T07:20:49Z</time>
      </trkpt>
      <trkpt lat="47.7566230" lon="2.4617950">
        <ele>123.2</ele>
        <time>2020-07-03T07:20:58Z</time>
      </trkpt>
      <trkpt lat="47.7564740" lon="2.4622140">
        <ele>123.0</ele>
        <time>2020-07-03T07:21:05Z</time>
      </trkpt>
      <trkpt lat="47.7563840" lon="2.4625390">
        <ele>123.0</ele>
        <time>2020-07-03T07:21:11Z</time>
      </trkpt>
      <trkpt lat="47.7561950" lon="2.4630360">
        <ele>123.2</ele>
        <time>2020-07-03T07:21:19Z</time>
      </trkpt>
      <trkpt lat="47.7559960" lon="2.4634300">
        <ele>123.4</ele>
        <time>2020-07-03T07:21:26Z</time>
      </trkpt>
      <trkpt lat="47.7556500" lon="2.4640220">
        <ele>123.4</ele>
        <time>2020-07-03T07:21:35Z</time>
      </trkpt>
      <trkpt lat="47.7552850" lon="2.4647170">
        <ele>123.4</ele>
        <time>2020-07-03T07:21:45Z</time>
      </trkpt>
      <trkpt lat="47.7552170" lon="2.4648550">
        <ele>123.4</ele>
        <time>2020-07-03T07:21:47Z</time>
      </trkpt>
      <trkpt lat="47.7551850" lon="2.4649250">
        <ele>123.4</ele>
        <time>2020-07-03T07:21:48Z</time>
      </trkpt>
      <trkpt lat="47.7548970" lon="2.4655340">
        <ele>123.4</ele>
        <time>2020-07-03T07:21:57Z</time>
      </trkpt>
      <trkpt lat="47.7546250" lon="2.4661320">
        <ele>123.4</ele>
        <time>2020-07-03T07:22:06Z</time>
      </trkpt>
      <trkpt lat="47.7542990" lon="2.4668180">
        <ele>123.0</ele>
        <time>2020-07-03T07:22:17Z</time>
      </trkpt>
      <trkpt lat="47.7540370" lon="2.4674110">
        <ele>123.0</ele>
        <time>2020-07-03T07:22:26Z</time>
      </trkpt>
      <trkpt lat="47.7537600" lon="2.4680400">
        <ele>123.2</ele>
        <time>2020-07-03T07:22:36Z</time>
      </trkpt>
      <trkpt lat="47.7534890" lon="2.4686710">
        <ele>123.2</ele>
        <time>2020-07-03T07:22:46Z</time>
      </trkpt>
      <trkpt lat="47.7532640" lon="2.4691740">
        <ele>123.4</ele>
        <time>2020-07-03T07:22:54Z</time>
      </trkpt>
      <trkpt lat="47.7530350" lon="2.4696880">
        <ele>123.4</ele>
        <time>2020-07-03T07:23:02Z</time>
      </trkpt>
      <trkpt lat="47.7527750" lon="2.4700450">
        <ele>123.4</ele>
        <time>2020-07-03T07:23:09Z</time>
      </trkpt>
      <trkpt lat="47.7525430" lon="2.4701800">
        <ele>123.4</ele>
        <time>2020-07-03T07:23:14Z</time>
      </trkpt>
      <trkpt lat="47.7520710" lon="2.4703730">
        <ele>123.6</ele>
        <time>2020-07-03T07:23:24Z</time>
      </trkpt>
      <trkpt lat="47.7516830" lon="2.4706440">
        <ele>123.6</ele>
        <time>2020-07-03T07:23:32Z</time>
      </trkpt>
      <trkpt lat="47.7512300" lon="2.4709590">
        <ele>123.6</ele>
        <time>2020-07-03T07:23:42Z</time>
      </trkpt>
      <trkpt lat="47.7507700" lon="2.4713750">
        <ele>124.0</ele>
        <time>2020-07-03T07:23:53Z</time>
      </trkpt>
      <trkpt lat="47.7502850" lon="2.4718410">
        <ele>124.2</ele>
        <time>2020-07-03T07:24:04Z</time>
      </trkpt>
      <trkpt lat="47.7501960" lon="2.4719220">
        <ele>124.2</ele>
        <time>2020-07-03T07:24:06Z</time>
      </trkpt>
      <trkpt lat="47.7497060" lon="2.4723810">
        <ele>124.2</ele>
        <time>2020-07-03T07:24:17Z</time>
      </trkpt>
      <trkpt lat="47.7495710" lon="2.4725130">
        <ele>124.0</ele>
        <time>2020-07-03T07:24:20Z</time>
      </trkpt>
      <trkpt lat="47.7491080" lon="2.4729550">
        <ele>124.0</ele>
        <time>2020-07-03T07:24:30Z</time>
      </trkpt>
      <trkpt lat="47.7490150" lon="2.4730470">
        <ele>124.0</ele>
        <time>2020-07-03T07:24:32Z</time>
      </trkpt>
      <trkpt lat="47.7486150" lon="2.4735520">
        <ele>123.8</ele>
        <time>2020-07-03T07:24:42Z</time>
      </trkpt>
      <trkpt lat="47.7484080" lon="2.4739120">
        <ele>123.8</ele>
        <time>2020-07-03T07:24:48Z</time>
      </trkpt>
      <trkpt lat="47.7482610" lon="2.4741710">
        <ele>123.6</ele>
        <time>2020-07-03T07:24:52Z</time>
      </trkpt>
      <trkpt lat="47.7478900" lon="2.4748300">
        <ele>123.6</ele>
        <time>2020-07-03T07:25:03Z</time>
      </trkpt>
      <trkpt lat="47.7475100" lon="2.4754900">
        <ele>123.6</ele>
        <time>2020-07-03T07:25:14Z</time>
      </trkpt>
      <trkpt lat="47.7474730" lon="2.4755520">
        <ele>123.6</ele>
        <time>2020-07-03T07:25:15Z</time>
      </trkpt>
      <trkpt lat="47.7471250" lon="2.4761640">
        <ele>123.4</ele>
        <time>2020-07-03T07:25:25Z</time>
      </trkpt>
      <trkpt lat="47.7467810" lon="2.4768420">
        <ele>123.6</ele>
        <time>2020-07-03T07:25:36Z</time>
      </trkpt>
      <trkpt lat="47.7464650" lon="2.4775200">
        <ele>123.4</ele>
        <time>2020-07-03T07:25:47Z</time>
      </trkpt>
      <trkpt lat="47.7464140" lon="2.4776400">
        <ele>123.4</ele>
        <time>2020-07-03T07:25:49Z</time>
      </trkpt>
      <trkpt lat="47.7461670" lon="2.4781260">
        <ele>123.4</ele>
        <time>2020-07-03T07:25:57Z</time>
      </trkpt>
      <trkpt lat="47.7461270" lon="2.4781740">
        <ele>123.6</ele>
        <time>2020-07-03T07:25:58Z</time>
      </trkpt>
      <trkpt lat="47.7459360" lon="2.4783180">
        <ele>123.6</ele>
        <time>2020-07-03T07:26:02Z</time>
      </trkpt>
      <trkpt lat="47.7455380" lon="2.4785230">
        <ele>123.8</ele>
        <time>2020-07-03T07:26:10Z</time>
      </trkpt>
      <trkpt lat="47.7450140" lon="2.4788240">
        <ele>123.8</ele>
        <time>2020-07-03T07:26:20Z</time>
      </trkpt>
      <trkpt lat="47.7445170" lon="2.4791700">
        <ele>123.6</ele>
        <time>2020-07-03T07:26:30Z</time>
      </trkpt>
      <trkpt lat="47.7440610" lon="2.4796520">
        <ele>123.4</ele>
        <time>2020-07-03T07:26:40Z</time>
      </trkpt>
      <trkpt lat="47.7440170" lon="2.4796980">
        <ele>123.2</ele>
        <time>2020-07-03T07:26:41Z</time>
      </trkpt>
      <trkpt lat="47.7435760" lon="2.4801680">
        <ele>123.2</ele>
        <time>2020-07-03T07:26:51Z</time>
      </trkpt>
      <trkpt lat="47.7435320" lon="2.4802150">
        <ele>123.2</ele>
        <time>2020-07-03T07:26:52Z</time>
      </trkpt>
      <trkpt lat="47.7430630" lon="2.4806980">
        <ele>123.2</ele>
        <time>2020-07-03T07:27:03Z</time>
      </trkpt>
      <trkpt lat="47.7430200" lon="2.4807410">
        <ele>123.2</ele>
        <time>2020-07-03T07:27:04Z</time>
      </trkpt>
      <trkpt lat="47.7425760" lon="2.4811980">
        <ele>123.6</ele>
        <time>2020-07-03T07:27:14Z</time>
      </trkpt>
      <trkpt lat="47.7424860" lon="2.4812980">
        <ele>123.6</ele>
        <time>2020-07-03T07:27:16Z</time>
      </trkpt>
      <trkpt lat="47.7420330" lon="2.4817570">
        <ele>123.4</ele>
        <time>2020-07-03T07:27:26Z</time>
      </trkpt>
      <trkpt lat="47.7419080" lon="2.4819050">
        <ele>123.6</ele>
        <time>2020-07-03T07:27:29Z</time>
      </trkpt>
      <trkpt lat="47.7418440" lon="2.4820230">
        <ele>123.6</ele>
        <time>2020-07-03T07:27:31Z</time>
      </trkpt>
      <trkpt lat="47.7417700" lon="2.4822450">
        <ele>123.6</ele>
        <time>2020-07-03T07:27:34Z</time>
      </trkpt>
      <trkpt lat="47.7416600" lon="2.4828210">
        <ele>123.6</ele>
        <time>2020-07-03T07:27:41Z</time>
      </trkpt>
      <trkpt lat="47.7415250" lon="2.4832840">
        <ele>123.6</ele>
        <time>2020-07-03T07:27:47Z</time>
      </trkpt>
      <trkpt lat="47.7414900" lon="2.4833460">
        <ele>123.6</ele>
        <time>2020-07-03T07:27:48Z</time>
      </trkpt>
      <trkpt lat="47.7414510" lon="2.4834020">
        <ele>123.8</ele>
        <time>2020-07-03T07:27:49Z</time>
      </trkpt>
      <trkpt lat="47.7412640" lon="2.4835950">
        <ele>123.6</ele>
        <time>2020-07-03T07:27:53Z</time>
      </trkpt>
      <trkpt lat="47.7407630" lon="2.4840230">
        <ele>123.4</ele>
        <time>2020-07-03T07:28:03Z</time>
      </trkpt>
      <trkpt lat="47.7407180" lon="2.4840670">
        <ele>123.4</ele>
        <time>2020-07-03T07:28:04Z</time>
      </trkpt>
      <trkpt lat="47.7402500" lon="2.4844830">
        <ele>123.6</ele>
        <time>2020-07-03T07:28:14Z</time>
      </trkpt>
      <trkpt lat="47.7401630" lon="2.4845640">
        <ele>123.8</ele>
        <time>2020-07-03T07:28:16Z</time>
      </trkpt>
      <trkpt lat="47.7396710" lon="2.4850420">
        <ele>123.6</ele>
        <time>2020-07-03T07:28:27Z</time>
      </trkpt>
      <trkpt lat="47.7392860" lon="2.4854140">
        <ele>123.4</ele>
        <time>2020-07-03T07:28:36Z</time>
      </trkpt>
      <trkpt lat="47.7388530" lon="2.4858180">
        <ele>123.6</ele>
        <time>2020-07-03T07:28:45Z</time>
      </trkpt>
      <trkpt lat="47.7383840" lon="2.4862390">
        <ele>123.8</ele>
        <time>2020-07-03T07:28:55Z</time>
      </trkpt>
      <trkpt lat="47.7379170" lon="2.4866450">
        <ele>123.6</ele>
        <time>2020-07-03T07:29:05Z</time>
      </trkpt>
      <trkpt lat="47.7374570" lon="2.4870140">
        <ele>123.6</ele>
        <time>2020-07-03T07:29:15Z</time>
      </trkpt>
      <trkpt lat="47.7374070" lon="2.4870520">
        <ele>123.8</ele>
        <time>2020-07-03T07:29:16Z</time>
      </trkpt>
      <trkpt lat="47.7371890" lon="2.4872230">
        <ele>123.8</ele>
        <time>2020-07-03T07:29:20Z</time>
      </trkpt>
      <trkpt lat="47.7369370" lon="2.4873870">
        <ele>123.8</ele>
        <time>2020-07-03T07:29:25Z</time>
      </trkpt>
      <trkpt lat="47.7367950" lon="2.4874760">
        <ele>123.8</ele>
        <time>2020-07-03T07:29:28Z</time>
      </trkpt>
      <trkpt lat="47.7365910" lon="2.4876040">
        <ele>124.2</ele>
        <time>2020-07-03T07:29:32Z</time>
      </trkpt>
      <trkpt lat="47.7361810" lon="2.4878780">
        <ele>124.0</ele>
        <time>2020-07-03T07:29:40Z</time>
      </trkpt>
      <trkpt lat="47.7358410" lon="2.4881820">
        <ele>124.4</ele>
        <time>2020-07-03T07:29:47Z</time>
      </trkpt>
      <trkpt lat="47.7354540" lon="2.4885960">
        <ele>124.2</ele>
        <time>2020-07-03T07:29:55Z</time>
      </trkpt>
      <trkpt lat="47.7349800" lon="2.4891120">
        <ele>123.8</ele>
        <time>2020-07-03T07:30:05Z</time>
      </trkpt>
      <trkpt lat="47.7348440" lon="2.4892580">
        <ele>123.8</ele>
        <time>2020-07-03T07:30:08Z</time>
      </trkpt>
      <trkpt lat="47.7344000" lon="2.4897520">
        <ele>124.2</ele>
        <time>2020-07-03T07:30:18Z</time>
      </trkpt>
      <trkpt lat="47.7343540" lon="2.4898030">
        <ele>124.0</ele>
        <time>2020-07-03T07:30:19Z</time>
      </trkpt>
      <trkpt lat="47.7339480" lon="2.4902540">
        <ele>124.2</ele>
        <time>2020-07-03T07:30:28Z</time>
      </trkpt>
      <trkpt lat="47.7335370" lon="2.4907130">
        <ele>124.0</ele>
        <time>2020-07-03T07:30:37Z</time>
      </trkpt>
      <trkpt lat="47.7330600" lon="2.4912430">
        <ele>124.0</ele>
        <time>2020-07-03T07:30:47Z</time>
      </trkpt>
      <trkpt lat="47.7329720" lon="2.4913460">
        <ele>124.0</ele>
        <time>2020-07-03T07:30:49Z</time>
      </trkpt>
      <trkpt lat="47.7326250" lon="2.4917500">
        <ele>124.0</ele>
        <time>2020-07-03T07:30:57Z</time>
      </trkpt>
      <trkpt lat="47.7323720" lon="2.4921500">
        <ele>124.2</ele>
        <time>2020-07-03T07:31:04Z</time>
      </trkpt>
      <trkpt lat="47.7321960" lon="2.4925560">
        <ele>124.6</ele>
        <time>2020-07-03T07:31:10Z</time>
      </trkpt>
      <trkpt lat="47.7321640" lon="2.4926320">
        <ele>124.6</ele>
        <time>2020-07-03T07:31:11Z</time>
      </trkpt>
      <trkpt lat="47.7318620" lon="2.4932130">
        <ele>124.6</ele>
        <time>2020-07-03T07:31:19Z</time>
      </trkpt>
      <trkpt lat="47.7314460" lon="2.4938080">
        <ele>124.2</ele>
        <time>2020-07-03T07:31:29Z</time>
      </trkpt>
      <trkpt lat="47.7310400" lon="2.4943770">
        <ele>124.0</ele>
        <time>2020-07-03T07:31:39Z</time>
      </trkpt>
      <trkpt lat="47.7309610" lon="2.4944930">
        <ele>124.0</ele>
        <time>2020-07-03T07:31:41Z</time>
      </trkpt>
      <trkpt lat="47.7305660" lon="2.4950840">
        <ele>124.0</ele>
        <time>2020-07-03T07:31:51Z</time>
      </trkpt>
      <trkpt lat="47.7304810" lon="2.4952060">
        <ele>124.0</ele>
        <time>2020-07-03T07:31:53Z</time>
      </trkpt>
      <trkpt lat="47.7300650" lon="2.4957920">
        <ele>124.2</ele>
        <time>2020-07-03T07:32:03Z</time>
      </trkpt>
      <trkpt lat="47.7299860" lon="2.4959130">
        <ele>124.4</ele>
        <time>2020-07-03T07:32:05Z</time>
      </trkpt>
      <trkpt lat="47.7295780" lon="2.4964980">
        <ele>124.6</ele>
        <time>2020-07-03T07:32:15Z</time>
      </trkpt>
      <trkpt lat="47.7294930" lon="2.4966180">
        <ele>124.8</ele>
        <time>2020-07-03T07:32:17Z</time>
      </trkpt>
      <trkpt lat="47.7290600" lon="2.4972190">
        <ele>124.6</ele>
        <time>2020-07-03T07:32:27Z</time>
      </trkpt>
      <trkpt lat="47.7288460" lon="2.4975220">
        <ele>124.6</ele>
        <time>2020-07-03T07:32:32Z</time>
      </trkpt>
      <trkpt lat="47.7284170" lon="2.4981220">
        <ele>124.6</ele>
        <time>2020-07-03T07:32:42Z</time>
      </trkpt>
      <trkpt lat="47.7282010" lon="2.4984060">
        <ele>124.4</ele>
        <time>2020-07-03T07:32:47Z</time>
      </trkpt>
      <trkpt lat="47.7277800" lon="2.4989920">
        <ele>124.4</ele>
        <time>2020-07-03T07:32:57Z</time>
      </trkpt>
      <trkpt lat="47.7274170" lon="2.4995230">
        <ele>124.2</ele>
        <time>2020-07-03T07:33:06Z</time>
      </trkpt>
      <trkpt lat="47.7271450" lon="2.4999550">
        <ele>124.2</ele>
        <time>2020-07-03T07:33:14Z</time>
      </trkpt>
      <trkpt lat="47.7269320" lon="2.5002630">
        <ele>124.2</ele>
        <time>2020-07-03T07:33:20Z</time>
      </trkpt>
      <trkpt lat="47.7268430" lon="2.5003590">
        <ele>124.4</ele>
        <time>2020-07-03T07:33:22Z</time>
      </trkpt>
      <trkpt lat="47.7267550" lon="2.5004120">
        <ele>124.6</ele>
        <time>2020-07-03T07:33:25Z</time>
      </trkpt>
      <trkpt lat="47.7266860" lon="2.5003870">
        <ele>124.8</ele>
        <time>2020-07-03T07:33:29Z</time>
      </trkpt>
      <trkpt lat="47.7266790" lon="2.5003700">
        <ele>125.0</ele>
        <time>2020-07-03T07:33:30Z</time>
      </trkpt>
      <trkpt lat="47.7266650" lon="2.5003440">
        <ele>125.6</ele>
        <time>2020-07-03T07:33:32Z</time>
      </trkpt>
      <trkpt lat="47.7266510" lon="2.5003120">
        <ele>127.0</ele>
        <time>2020-07-03T07:33:36Z</time>
      </trkpt>
      <trkpt lat="47.7266150" lon="2.5002790">
        <ele>128.4</ele>
        <time>2020-07-03T07:33:40Z</time>
      </trkpt>
      <trkpt lat="47.7265380" lon="2.5002120">
        <ele>129.4</ele>
        <time>2020-07-03T07:33:46Z</time>
      </trkpt>
      <trkpt lat="47.7264890" lon="2.5001690">
        <ele>130.0</ele>
        <time>2020-07-03T07:33:50Z</time>
      </trkpt>
      <trkpt lat="47.7264070" lon="2.5000250">
        <ele>131.4</ele>
        <time>2020-07-03T07:34:00Z</time>
      </trkpt>
      <trkpt lat="47.7263800" lon="2.5000000">
        <ele>131.6</ele>
        <time>2020-07-03T07:34:02Z</time>
      </trkpt>
      <trkpt lat="47.7262510" lon="2.4998900">
        <ele>132.2</ele>
        <time>2020-07-03T07:34:08Z</time>
      </trkpt>
      <trkpt lat="47.7260520" lon="2.4997100">
        <ele>132.6</ele>
        <time>2020-07-03T07:34:15Z</time>
      </trkpt>
      <trkpt lat="47.7259120" lon="2.4995680">
        <ele>132.8</ele>
        <time>2020-07-03T07:34:20Z</time>
      </trkpt>
      <trkpt lat="47.7258020" lon="2.4994740">
        <ele>133.0</ele>
        <time>2020-07-03T07:34:24Z</time>
      </trkpt>
      <trkpt lat="47.7255830" lon="2.4993010">
        <ele>133.2</ele>
        <time>2020-07-03T07:34:31Z</time>
      </trkpt>
      <trkpt lat="47.7255510" lon="2.4993130">
        <ele>133.4</ele>
        <time>2020-07-03T07:34:32Z</time>
      </trkpt>
      <trkpt lat="47.7254690" lon="2.4994080">
        <ele>133.4</ele>
        <time>2020-07-03T07:34:35Z</time>
      </trkpt>
      <trkpt lat="47.7253350" lon="2.4997490">
        <ele>133.6</ele>
        <time>2020-07-03T07:34:41Z</time>
      </trkpt>
      <trkpt lat="47.7251410" lon="2.5002490">
        <ele>133.6</ele>
        <time>2020-07-03T07:34:49Z</time>
      </trkpt>
      <trkpt lat="47.7249410" lon="2.5007590">
        <ele>133.8</ele>
        <time>2020-07-03T07:34:57Z</time>
      </trkpt>
      <trkpt lat="47.7246930" lon="2.5013660">
        <ele>133.8</ele>
        <time>2020-07-03T07:35:05Z</time>
      </trkpt>
      <trkpt lat="47.7243930" lon="2.5020790">
        <ele>133.6</ele>
        <time>2020-07-03T07:35:14Z</time>
      </trkpt>
      <trkpt lat="47.7243590" lon="2.5021610">
        <ele>133.6</ele>
        <time>2020-07-03T07:35:15Z</time>
      </trkpt>
      <trkpt lat="47.7243310" lon="2.5022420">
        <ele>133.4</ele>
        <time>2020-07-03T07:35:16Z</time>
      </trkpt>
      <trkpt lat="47.7240730" lon="2.5028740">
        <ele>133.0</ele>
        <time>2020-07-03T07:35:24Z</time>
      </trkpt>
      <trkpt lat="47.7237870" lon="2.5035640">
        <ele>132.8</ele>
        <time>2020-07-03T07:35:33Z</time>
      </trkpt>
      <trkpt lat="47.7234830" lon="2.5042720">
        <ele>132.6</ele>
        <time>2020-07-03T07:35:42Z</time>
      </trkpt>
      <trkpt lat="47.7234460" lon="2.5043470">
        <ele>132.6</ele>
        <time>2020-07-03T07:35:43Z</time>
      </trkpt>
      <trkpt lat="47.7232850" lon="2.5046290">
        <ele>132.4</ele>
        <time>2020-07-03T07:35:47Z</time>
      </trkpt>
      <trkpt lat="47.7232010" lon="2.5047620">
        <ele>132.6</ele>
        <time>2020-07-03T07:35:49Z</time>
      </trkpt>
      <trkpt lat="47.7231150" lon="2.5048970">
        <ele>132.4</ele>
        <time>2020-07-03T07:35:51Z</time>
      </trkpt>
      <trkpt lat="47.7226730" lon="2.5054230">
        <ele>132.2</ele>
        <time>2020-07-03T07:36:00Z</time>
      </trkpt>
      <trkpt lat="47.7222550" lon="2.5057590">
        <ele>131.8</ele>
        <time>2020-07-03T07:36:08Z</time>
      </trkpt>
      <trkpt lat="47.7222020" lon="2.5057970">
        <ele>131.6</ele>
        <time>2020-07-03T07:36:09Z</time>
      </trkpt>
      <trkpt lat="47.7217150" lon="2.5061570">
        <ele>131.6</ele>
        <time>2020-07-03T07:36:18Z</time>
      </trkpt>
      <trkpt lat="47.7216130" lon="2.5062340">
        <ele>131.6</ele>
        <time>2020-07-03T07:36:20Z</time>
      </trkpt>
      <trkpt lat="47.7215110" lon="2.5063090">
        <ele>131.6</ele>
        <time>2020-07-03T07:36:22Z</time>
      </trkpt>
      <trkpt lat="47.7210360" lon="2.5067530">
        <ele>132.4</ele>
        <time>2020-07-03T07:36:32Z</time>
      </trkpt>
      <trkpt lat="47.7207020" lon="2.5072490">
        <ele>132.4</ele>
        <time>2020-07-03T07:36:40Z</time>
      </trkpt>
      <trkpt lat="47.7203290" lon="2.5078410">
        <ele>132.4</ele>
        <time>2020-07-03T07:36:49Z</time>
      </trkpt>
      <trkpt lat="47.7202070" lon="2.5080430">
        <ele>132.4</ele>
        <time>2020-07-03T07:36:52Z</time>
      </trkpt>
      <trkpt lat="47.7200180" lon="2.5083690">
        <ele>132.2</ele>
        <time>2020-07-03T07:36:57Z</time>
      </trkpt>
      <trkpt lat="47.7198870" lon="2.5085670">
        <ele>132.0</ele>
        <time>2020-07-03T07:37:00Z</time>
      </trkpt>
      <trkpt lat="47.7195140" lon="2.5091230">
        <ele>131.4</ele>
        <time>2020-07-03T07:37:08Z</time>
      </trkpt>
      <trkpt lat="47.7194610" lon="2.5091890">
        <ele>131.4</ele>
        <time>2020-07-03T07:37:09Z</time>
      </trkpt>
      <trkpt lat="47.7193490" lon="2.5093320">
        <ele>131.2</ele>
        <time>2020-07-03T07:37:11Z</time>
      </trkpt>
      <trkpt lat="47.7191710" lon="2.5095550">
        <ele>131.2</ele>
        <time>2020-07-03T07:37:14Z</time>
      </trkpt>
      <trkpt lat="47.7191050" lon="2.5096350">
        <ele>131.2</ele>
        <time>2020-07-03T07:37:15Z</time>
      </trkpt>
      <trkpt lat="47.7190320" lon="2.5097190">
        <ele>130.8</ele>
        <time>2020-07-03T07:37:16Z</time>
      </trkpt>
      <trkpt lat="47.7189510" lon="2.5098050">
        <ele>130.6</ele>
        <time>2020-07-03T07:37:17Z</time>
      </trkpt>
      <trkpt lat="47.7188760" lon="2.5098890">
        <ele>130.2</ele>
        <time>2020-07-03T07:37:18Z</time>
      </trkpt>
      <trkpt lat="47.7187900" lon="2.5099830">
        <ele>129.8</ele>
        <time>2020-07-03T07:37:19Z</time>
      </trkpt>
      <trkpt lat="47.7186180" lon="2.5101770">
        <ele>128.6</ele>
        <time>2020-07-03T07:37:21Z</time>
      </trkpt>
      <trkpt lat="47.7181130" lon="2.5107420">
        <ele>122.4</ele>
        <time>2020-07-03T07:37:27Z</time>
      </trkpt>
      <trkpt lat="47.7180390" lon="2.5108260">
        <ele>121.6</ele>
        <time>2020-07-03T07:37:28Z</time>
      </trkpt>
      <trkpt lat="47.7178350" lon="2.5110580">
        <ele>120.6</ele>
        <time>2020-07-03T07:37:31Z</time>
      </trkpt>
      <trkpt lat="47.7176440" lon="2.5112700">
        <ele>120.6</ele>
        <time>2020-07-03T07:37:34Z</time>
      </trkpt>
      <trkpt lat="47.7175850" lon="2.5113410">
        <ele>120.4</ele>
        <time>2020-07-03T07:37:35Z</time>
      </trkpt>
      <trkpt lat="47.7172010" lon="2.5117790">
        <ele>121.2</ele>
        <time>2020-07-03T07:37:41Z</time>
      </trkpt>
      <trkpt lat="47.7171300" lon="2.5118530">
        <ele>121.6</ele>
        <time>2020-07-03T07:37:42Z</time>
      </trkpt>
      <trkpt lat="47.7168040" lon="2.5122100">
        <ele>121.8</ele>
        <time>2020-07-03T07:37:47Z</time>
      </trkpt>
      <trkpt lat="47.7164930" lon="2.5125580">
        <ele>122.0</ele>
        <time>2020-07-03T07:37:52Z</time>
      </trkpt>
      <trkpt lat="47.7160950" lon="2.5130340">
        <ele>122.4</ele>
        <time>2020-07-03T07:37:59Z</time>
      </trkpt>
      <trkpt lat="47.7159340" lon="2.5132260">
        <ele>122.4</ele>
        <time>2020-07-03T07:38:02Z</time>
      </trkpt>
      <trkpt lat="47.7154950" lon="2.5137290">
        <ele>123.0</ele>
        <time>2020-07-03T07:38:10Z</time>
      </trkpt>
      <trkpt lat="47.7152250" lon="2.5140360">
        <ele>123.4</ele>
        <time>2020-07-03T07:38:15Z</time>
      </trkpt>
      <trkpt lat="47.7147890" lon="2.5145270">
        <ele>123.6</ele>
        <time>2020-07-03T07:38:23Z</time>
      </trkpt>
      <trkpt lat="47.7144210" lon="2.5149480">
        <ele>123.6</ele>
        <time>2020-07-03T07:38:30Z</time>
      </trkpt>
      <trkpt lat="47.7139820" lon="2.5154780">
        <ele>123.8</ele>
        <time>2020-07-03T07:38:39Z</time>
      </trkpt>
      <trkpt lat="47.7139300" lon="2.5155360">
        <ele>123.6</ele>
        <time>2020-07-03T07:38:40Z</time>
      </trkpt>
      <trkpt lat="47.7134970" lon="2.5160520">
        <ele>123.8</ele>
        <time>2020-07-03T07:38:49Z</time>
      </trkpt>
      <trkpt lat="47.7133530" lon="2.5162310">
        <ele>124.0</ele>
        <time>2020-07-03T07:38:52Z</time>
      </trkpt>
      <trkpt lat="47.7130600" lon="2.5165840">
        <ele>124.0</ele>
        <time>2020-07-03T07:38:58Z</time>
      </trkpt>
      <trkpt lat="47.7128710" lon="2.5168030">
        <ele>124.0</ele>
        <time>2020-07-03T07:39:02Z</time>
      </trkpt>
      <trkpt lat="47.7126260" lon="2.5172040">
        <ele>124.2</ele>
        <time>2020-07-03T07:39:09Z</time>
      </trkpt>
      <trkpt lat="47.7125290" lon="2.5174260">
        <ele>124.4</ele>
        <time>2020-07-03T07:39:12Z</time>
      </trkpt>
      <trkpt lat="47.7123880" lon="2.5177440">
        <ele>124.4</ele>
        <time>2020-07-03T07:39:16Z</time>
      </trkpt>
      <trkpt lat="47.7120430" lon="2.5184270">
        <ele>124.6</ele>
        <time>2020-07-03T07:39:25Z</time>
      </trkpt>
      <trkpt lat="47.7117330" lon="2.5191780">
        <ele>125.0</ele>
        <time>2020-07-03T07:39:34Z</time>
      </trkpt>
      <trkpt lat="47.7116160" lon="2.5195210">
        <ele>125.0</ele>
        <time>2020-07-03T07:39:38Z</time>
      </trkpt>
      <trkpt lat="47.7113680" lon="2.5202330">
        <ele>125.4</ele>
        <time>2020-07-03T07:39:47Z</time>
      </trkpt>
      <trkpt lat="47.7113400" lon="2.5203030">
        <ele>125.6</ele>
        <time>2020-07-03T07:39:48Z</time>
      </trkpt>
      <trkpt lat="47.7113140" lon="2.5203720">
        <ele>125.6</ele>
        <time>2020-07-03T07:39:49Z</time>
      </trkpt>
      <trkpt lat="47.7110710" lon="2.5209370">
        <ele>126.2</ele>
        <time>2020-07-03T07:39:58Z</time>
      </trkpt>
      <trkpt lat="47.7107660" lon="2.5215970">
        <ele>126.2</ele>
        <time>2020-07-03T07:40:08Z</time>
      </trkpt>
      <trkpt lat="47.7104250" lon="2.5223060">
        <ele>126.0</ele>
        <time>2020-07-03T07:40:18Z</time>
      </trkpt>
      <trkpt lat="47.7103560" lon="2.5224490">
        <ele>126.2</ele>
        <time>2020-07-03T07:40:20Z</time>
      </trkpt>
      <trkpt lat="47.7100170" lon="2.5231810">
        <ele>126.2</ele>
        <time>2020-07-03T07:40:30Z</time>
      </trkpt>
      <trkpt lat="47.7097170" lon="2.5238490">
        <ele>126.4</ele>
        <time>2020-07-03T07:40:39Z</time>
      </trkpt>
      <trkpt lat="47.7096530" lon="2.5239940">
        <ele>126.4</ele>
        <time>2020-07-03T07:40:41Z</time>
      </trkpt>
      <trkpt lat="47.7093310" lon="2.5246920">
        <ele>126.2</ele>
        <time>2020-07-03T07:40:51Z</time>
      </trkpt>
      <trkpt lat="47.7092430" lon="2.5248900">
        <ele>126.2</ele>
        <time>2020-07-03T07:40:54Z</time>
      </trkpt>
      <trkpt lat="47.7090260" lon="2.5254800">
        <ele>127.0</ele>
        <time>2020-07-03T07:41:02Z</time>
      </trkpt>
      <trkpt lat="47.7088170" lon="2.5261170">
        <ele>127.0</ele>
        <time>2020-07-03T07:41:10Z</time>
      </trkpt>
      <trkpt lat="47.7085430" lon="2.5268880">
        <ele>127.0</ele>
        <time>2020-07-03T07:41:20Z</time>
      </trkpt>
      <trkpt lat="47.7084880" lon="2.5270440">
        <ele>127.0</ele>
        <time>2020-07-03T07:41:22Z</time>
      </trkpt>
      <trkpt lat="47.7082310" lon="2.5278130">
        <ele>127.0</ele>
        <time>2020-07-03T07:41:32Z</time>
      </trkpt>
      <trkpt lat="47.7081550" lon="2.5280500">
        <ele>126.8</ele>
        <time>2020-07-03T07:41:35Z</time>
      </trkpt>
      <trkpt lat="47.7079020" lon="2.5288010">
        <ele>126.6</ele>
        <time>2020-07-03T07:41:44Z</time>
      </trkpt>
      <trkpt lat="47.7078130" lon="2.5290550">
        <ele>126.4</ele>
        <time>2020-07-03T07:41:47Z</time>
      </trkpt>
      <trkpt lat="47.7075640" lon="2.5298260">
        <ele>126.2</ele>
        <time>2020-07-03T07:41:56Z</time>
      </trkpt>
      <trkpt lat="47.7074790" lon="2.5300700">
        <ele>126.2</ele>
        <time>2020-07-03T07:41:59Z</time>
      </trkpt>
      <trkpt lat="47.7073310" lon="2.5304530">
        <ele>126.2</ele>
        <time>2020-07-03T07:42:04Z</time>
      </trkpt>
      <trkpt lat="47.7070700" lon="2.5309140">
        <ele>126.0</ele>
        <time>2020-07-03T07:42:11Z</time>
      </trkpt>
      <trkpt lat="47.7070330" lon="2.5309750">
        <ele>126.0</ele>
        <time>2020-07-03T07:42:12Z</time>
      </trkpt>
      <trkpt lat="47.7068130" lon="2.5313290">
        <ele>126.0</ele>
        <time>2020-07-03T07:42:18Z</time>
      </trkpt>
      <trkpt lat="47.7066810" lon="2.5315510">
        <ele>126.4</ele>
        <time>2020-07-03T07:42:22Z</time>
      </trkpt>
      <trkpt lat="47.7065900" lon="2.5317160">
        <ele>127.0</ele>
        <time>2020-07-03T07:42:25Z</time>
      </trkpt>
      <trkpt lat="47.7063350" lon="2.5321440">
        <ele>127.8</ele>
        <time>2020-07-03T07:42:33Z</time>
      </trkpt>
      <trkpt lat="47.7062340" lon="2.5323100">
        <ele>128.4</ele>
        <time>2020-07-03T07:42:36Z</time>
      </trkpt>
      <trkpt lat="47.7062000" lon="2.5323630">
        <ele>128.4</ele>
        <time>2020-07-03T07:42:37Z</time>
      </trkpt>
      <trkpt lat="47.7059600" lon="2.5327610">
        <ele>129.6</ele>
        <time>2020-07-03T07:42:45Z</time>
      </trkpt>
      <trkpt lat="47.7059340" lon="2.5328050">
        <ele>129.8</ele>
        <time>2020-07-03T07:42:46Z</time>
      </trkpt>
      <trkpt lat="47.7057290" lon="2.5331620">
        <ele>130.8</ele>
        <time>2020-07-03T07:42:53Z</time>
      </trkpt>
      <trkpt lat="47.7056320" lon="2.5333230">
        <ele>131.2</ele>
        <time>2020-07-03T07:42:56Z</time>
      </trkpt>
      <trkpt lat="47.7054740" lon="2.5335900">
        <ele>131.8</ele>
        <time>2020-07-03T07:43:01Z</time>
      </trkpt>
      <trkpt lat="47.7051790" lon="2.5340790">
        <ele>132.2</ele>
        <time>2020-07-03T07:43:10Z</time>
      </trkpt>
      <trkpt lat="47.7048740" lon="2.5345930">
        <ele>132.8</ele>
        <time>2020-07-03T07:43:20Z</time>
      </trkpt>
      <trkpt lat="47.7045630" lon="2.5349370">
        <ele>133.0</ele>
        <time>2020-07-03T07:43:28Z</time>
      </trkpt>
      <trkpt lat="47.7043670" lon="2.5351050">
        <ele>133.0</ele>
        <time>2020-07-03T07:43:33Z</time>
      </trkpt>
      <trkpt lat="47.7043000" lon="2.5351890">
        <ele>133.4</ele>
        <time>2020-07-03T07:43:35Z</time>
      </trkpt>
      <trkpt lat="47.7042690" lon="2.5352390">
        <ele>133.4</ele>
        <time>2020-07-03T07:43:36Z</time>
      </trkpt>
      <trkpt lat="47.7040060" lon="2.5357030">
        <ele>133.4</ele>
        <time>2020-07-03T07:43:44Z</time>
      </trkpt>
      <trkpt lat="47.7037000" lon="2.5362550">
        <ele>133.8</ele>
        <time>2020-07-03T07:43:53Z</time>
      </trkpt>
      <trkpt lat="47.7036680" lon="2.5363140">
        <ele>133.8</ele>
        <time>2020-07-03T07:43:54Z</time>
      </trkpt>
      <trkpt lat="47.7035580" lon="2.5364940">
        <ele>134.0</ele>
        <time>2020-07-03T07:43:57Z</time>
      </trkpt>
      <trkpt lat="47.7034920" lon="2.5366110">
        <ele>134.0</ele>
        <time>2020-07-03T07:43:59Z</time>
      </trkpt>
      <trkpt lat="47.7034650" lon="2.5366720">
        <ele>134.0</ele>
        <time>2020-07-03T07:44:00Z</time>
      </trkpt>
      <trkpt lat="47.7031960" lon="2.5371560">
        <ele>134.0</ele>
        <time>2020-07-03T07:44:08Z</time>
      </trkpt>
      <trkpt lat="47.7031270" lon="2.5372640">
        <ele>134.0</ele>
        <time>2020-07-03T07:44:10Z</time>
      </trkpt>
      <trkpt lat="47.7029280" lon="2.5375260">
        <ele>134.2</ele>
        <time>2020-07-03T07:44:15Z</time>
      </trkpt>
      <trkpt lat="47.7027950" lon="2.5376740">
        <ele>134.2</ele>
        <time>2020-07-03T07:44:18Z</time>
      </trkpt>
      <trkpt lat="47.7026240" lon="2.5378700">
        <ele>134.2</ele>
        <time>2020-07-03T07:44:22Z</time>
      </trkpt>
      <trkpt lat="47.7025810" lon="2.5379130">
        <ele>134.2</ele>
        <time>2020-07-03T07:44:23Z</time>
      </trkpt>
      <trkpt lat="47.7024930" lon="2.5379930">
        <ele>134.2</ele>
        <time>2020-07-03T07:44:25Z</time>
      </trkpt>
      <trkpt lat="47.7024110" lon="2.5380760">
        <ele>134.0</ele>
        <time>2020-07-03T07:44:27Z</time>
      </trkpt>
      <trkpt lat="47.7021830" lon="2.5383640">
        <ele>133.6</ele>
        <time>2020-07-03T07:44:33Z</time>
      </trkpt>
      <trkpt lat="47.7020390" lon="2.5385660">
        <ele>133.2</ele>
        <time>2020-07-03T07:44:38Z</time>
      </trkpt>
      <trkpt lat="47.7018370" lon="2.5389670">
        <ele>132.6</ele>
        <time>2020-07-03T07:44:46Z</time>
      </trkpt>
      <trkpt lat="47.7018170" lon="2.5390180">
        <ele>132.2</ele>
        <time>2020-07-03T07:44:47Z</time>
      </trkpt>
      <trkpt lat="47.7017650" lon="2.5391770">
        <ele>131.6</ele>
        <time>2020-07-03T07:44:50Z</time>
      </trkpt>
      <trkpt lat="47.7017350" lon="2.5392770">
        <ele>131.0</ele>
        <time>2020-07-03T07:44:52Z</time>
      </trkpt>
      <trkpt lat="47.7017130" lon="2.5393570">
        <ele>130.6</ele>
        <time>2020-07-03T07:44:54Z</time>
      </trkpt>
      <trkpt lat="47.7016610" lon="2.5395030">
        <ele>129.8</ele>
        <time>2020-07-03T07:44:58Z</time>
      </trkpt>
      <trkpt lat="47.7016340" lon="2.5395730">
        <ele>129.0</ele>
        <time>2020-07-03T07:45:00Z</time>
      </trkpt>
      <trkpt lat="47.7016190" lon="2.5396830">
        <ele>128.0</ele>
        <time>2020-07-03T07:45:03Z</time>
      </trkpt>
      <trkpt lat="47.7016180" lon="2.5397710">
        <ele>127.2</ele>
        <time>2020-07-03T07:45:05Z</time>
      </trkpt>
      <trkpt lat="47.7016000" lon="2.5398680">
        <ele>126.2</ele>
        <time>2020-07-03T07:45:07Z</time>
      </trkpt>
      <trkpt lat="47.7015740" lon="2.5400130">
        <ele>125.0</ele>
        <time>2020-07-03T07:45:11Z</time>
      </trkpt>
      <trkpt lat="47.7015490" lon="2.5402330">
        <ele>123.8</ele>
        <time>2020-07-03T07:45:17Z</time>
      </trkpt>
      <trkpt lat="47.7014620" lon="2.5404990">
        <ele>123.4</ele>
        <time>2020-07-03T07:45:23Z</time>
      </trkpt>
      <trkpt lat="47.7013600" lon="2.5407980">
        <ele>123.4</ele>
        <time>2020-07-03T07:45:29Z</time>
      </trkpt>
      <trkpt lat="47.7013200" lon="2.5410920">
        <ele>123.4</ele>
        <time>2020-07-03T07:45:36Z</time>
      </trkpt>
      <trkpt lat="47.7013780" lon="2.5413660">
        <ele>124.0</ele>
        <time>2020-07-03T07:45:44Z</time>
      </trkpt>
      <trkpt lat="47.7014640" lon="2.5415850">
        <ele>124.2</ele>
        <time>2020-07-03T07:45:51Z</time>
      </trkpt>
      <trkpt lat="47.7015070" lon="2.5416790">
        <ele>124.2</ele>
        <time>2020-07-03T07:45:54Z</time>
      </trkpt>
      <trkpt lat="47.7015000" lon="2.5417040">
        <ele>124.4</ele>
        <time>2020-07-03T07:45:55Z</time>
      </trkpt>
      <trkpt lat="47.7014100" lon="2.5417410">
        <ele>124.4</ele>
        <time>2020-07-03T07:45:59Z</time>
      </trkpt>
      <trkpt lat="47.7013590" lon="2.5417740">
        <ele>124.4</ele>
        <time>2020-07-03T07:46:01Z</time>
      </trkpt>
      <trkpt lat="47.7012860" lon="2.5418470">
        <ele>124.6</ele>
        <time>2020-07-03T07:46:05Z</time>
      </trkpt>
      <trkpt lat="47.7012220" lon="2.5419620">
        <ele>125.0</ele>
        <time>2020-07-03T07:46:09Z</time>
      </trkpt>
      <trkpt lat="47.7011870" lon="2.5420150">
        <ele>125.4</ele>
        <time>2020-07-03T07:46:11Z</time>
      </trkpt>
      <trkpt lat="47.7011300" lon="2.5421060">
        <ele>125.6</ele>
        <time>2020-07-03T07:46:14Z</time>
      </trkpt>
      <trkpt lat="47.7010100" lon="2.5423040">
        <ele>126.8</ele>
        <time>2020-07-03T07:46:20Z</time>
      </trkpt>
      <trkpt lat="47.7009940" lon="2.5423370">
        <ele>127.0</ele>
        <time>2020-07-03T07:46:21Z</time>
      </trkpt>
      <trkpt lat="47.7008860" lon="2.5425280">
        <ele>128.2</ele>
        <time>2020-07-03T07:46:27Z</time>
      </trkpt>
      <trkpt lat="47.7008050" lon="2.5426400">
        <ele>129.0</ele>
        <time>2020-07-03T07:46:31Z</time>
      </trkpt>
      <trkpt lat="47.7007360" lon="2.5426940">
        <ele>129.4</ele>
        <time>2020-07-03T07:46:35Z</time>
      </trkpt>
      <trkpt lat="47.7007140" lon="2.5427140">
        <ele>129.6</ele>
        <time>2020-07-03T07:46:36Z</time>
      </trkpt>
      <trkpt lat="47.7005270" lon="2.5428130">
        <ele>130.8</ele>
        <time>2020-07-03T07:46:43Z</time>
      </trkpt>
      <trkpt lat="47.7003100" lon="2.5429660">
        <ele>132.0</ele>
        <time>2020-07-03T07:46:50Z</time>
      </trkpt>
      <trkpt lat="47.7001480" lon="2.5429920">
        <ele>132.4</ele>
        <time>2020-07-03T07:46:55Z</time>
      </trkpt>
      <trkpt lat="47.6999450" lon="2.5428480">
        <ele>133.0</ele>
        <time>2020-07-03T07:47:01Z</time>
      </trkpt>
      <trkpt lat="47.6996950" lon="2.5426260">
        <ele>133.2</ele>
        <time>2020-07-03T07:47:09Z</time>
      </trkpt>
      <trkpt lat="47.6995370" lon="2.5424960">
        <ele>133.4</ele>
        <time>2020-07-03T07:47:16Z</time>
      </trkpt>
      <trkpt lat="47.6995450" lon="2.5425530">
        <ele>133.6</ele>
        <time>2020-07-03T07:47:20Z</time>
      </trkpt>
      <trkpt lat="47.6995550" lon="2.5425750">
        <ele>133.6</ele>
        <time>2020-07-03T07:47:21Z</time>
      </trkpt>
      <trkpt lat="47.6996680" lon="2.5427030">
        <ele>133.6</ele>
        <time>2020-07-03T07:47:26Z</time>
      </trkpt>
      <trkpt lat="47.6998070" lon="2.5428430">
        <ele>133.8</ele>
        <time>2020-07-03T07:47:33Z</time>
      </trkpt>
      <trkpt lat="47.6999440" lon="2.5429530">
        <ele>133.8</ele>
        <time>2020-07-03T07:47:41Z</time>
      </trkpt>
      <trkpt lat="47.7000430" lon="2.5431390">
        <ele>133.8</ele>
        <time>2020-07-03T07:47:47Z</time>
      </trkpt>
      <trkpt lat="47.7001450" lon="2.5434900">
        <ele>133.6</ele>
        <time>2020-07-03T07:47:54Z</time>
      </trkpt>
      <trkpt lat="47.7003040" lon="2.5437710">
        <ele>133.0</ele>
        <time>2020-07-03T07:48:00Z</time>
      </trkpt>
      <trkpt lat="47.7004170" lon="2.5438970">
        <ele>132.8</ele>
        <time>2020-07-03T07:48:03Z</time>
      </trkpt>
      <trkpt lat="47.7005060" lon="2.5439870">
        <ele>132.6</ele>
        <time>2020-07-03T07:48:05Z</time>
      </trkpt>
      <trkpt lat="47.7005980" lon="2.5440850">
        <ele>132.6</ele>
        <time>2020-07-03T07:48:07Z</time>
      </trkpt>
      <trkpt lat="47.7007380" lon="2.5442300">
        <ele>132.4</ele>
        <time>2020-07-03T07:48:10Z</time>
      </trkpt>
      <trkpt lat="47.7010430" lon="2.5445850">
        <ele>130.4</ele>
        <time>2020-07-03T07:48:17Z</time>
      </trkpt>
      <trkpt lat="47.7010730" lon="2.5446510">
        <ele>130.4</ele>
        <time>2020-07-03T07:48:18Z</time>
      </trkpt>
      <trkpt lat="47.7010980" lon="2.5447230">
        <ele>130.0</ele>
        <time>2020-07-03T07:48:19Z</time>
      </trkpt>
      <trkpt lat="47.7011270" lon="2.5448950">
        <ele>129.4</ele>
        <time>2020-07-03T07:48:21Z</time>
      </trkpt>
      <trkpt lat="47.7011270" lon="2.5449900">
        <ele>129.4</ele>
        <time>2020-07-03T07:48:22Z</time>
      </trkpt>
      <trkpt lat="47.7011310" lon="2.5450910">
        <ele>129.2</ele>
        <time>2020-07-03T07:48:23Z</time>
      </trkpt>
      <trkpt lat="47.7011200" lon="2.5456790">
        <ele>128.4</ele>
        <time>2020-07-03T07:48:28Z</time>
      </trkpt>
      <trkpt lat="47.7011560" lon="2.5465400">
        <ele>123.6</ele>
        <time>2020-07-03T07:48:35Z</time>
      </trkpt>
      <trkpt lat="47.7011630" lon="2.5467710">
        <ele>122.8</ele>
        <time>2020-07-03T07:48:37Z</time>
      </trkpt>
      <trkpt lat="47.7011660" lon="2.5468820">
        <ele>122.8</ele>
        <time>2020-07-03T07:48:38Z</time>
      </trkpt>
      <trkpt lat="47.7012190" lon="2.5476880">
        <ele>122.4</ele>
        <time>2020-07-03T07:48:46Z</time>
      </trkpt>
      <trkpt lat="47.7012320" lon="2.5478870">
        <ele>122.4</ele>
        <time>2020-07-03T07:48:48Z</time>
      </trkpt>
      <trkpt lat="47.7012790" lon="2.5486480">
        <ele>122.4</ele>
        <time>2020-07-03T07:48:56Z</time>
      </trkpt>
      <trkpt lat="47.7013000" lon="2.5489280">
        <ele>122.6</ele>
        <time>2020-07-03T07:48:59Z</time>
      </trkpt>
      <trkpt lat="47.7013780" lon="2.5494560">
        <ele>122.4</ele>
        <time>2020-07-03T07:49:05Z</time>
      </trkpt>
      <trkpt lat="47.7014080" lon="2.5496320">
        <ele>122.4</ele>
        <time>2020-07-03T07:49:07Z</time>
      </trkpt>
      <trkpt lat="47.7015340" lon="2.5502310">
        <ele>122.4</ele>
        <time>2020-07-03T07:49:14Z</time>
      </trkpt>
      <trkpt lat="47.7015650" lon="2.5503130">
        <ele>122.2</ele>
        <time>2020-07-03T07:49:15Z</time>
      </trkpt>
      <trkpt lat="47.7017830" lon="2.5507530">
        <ele>122.0</ele>
        <time>2020-07-03T07:49:21Z</time>
      </trkpt>
      <trkpt lat="47.7021170" lon="2.5513390">
        <ele>121.2</ele>
        <time>2020-07-03T07:49:30Z</time>
      </trkpt>
      <trkpt lat="47.7023090" lon="2.5517130">
        <ele>121.2</ele>
        <time>2020-07-03T07:49:36Z</time>
      </trkpt>
      <trkpt lat="47.7023630" lon="2.5518420">
        <ele>121.2</ele>
        <time>2020-07-03T07:49:38Z</time>
      </trkpt>
      <trkpt lat="47.7023850" lon="2.5519810">
        <ele>121.6</ele>
        <time>2020-07-03T07:49:40Z</time>
      </trkpt>
      <trkpt lat="47.7023610" lon="2.5521220">
        <ele>121.8</ele>
        <time>2020-07-03T07:49:42Z</time>
      </trkpt>
      <trkpt lat="47.7023170" lon="2.5522590">
        <ele>121.8</ele>
        <time>2020-07-03T07:49:44Z</time>
      </trkpt>
      <trkpt lat="47.7021080" lon="2.5528120">
        <ele>122.2</ele>
        <time>2020-07-03T07:49:52Z</time>
      </trkpt>
      <trkpt lat="47.7018460" lon="2.5535650">
        <ele>122.2</ele>
        <time>2020-07-03T07:50:02Z</time>
      </trkpt>
      <trkpt lat="47.7016220" lon="2.5543290">
        <ele>122.4</ele>
        <time>2020-07-03T07:50:12Z</time>
      </trkpt>
      <trkpt lat="47.7015990" lon="2.5548250">
        <ele>122.0</ele>
        <time>2020-07-03T07:50:18Z</time>
      </trkpt>
      <trkpt lat="47.7017000" lon="2.5553680">
        <ele>122.0</ele>
        <time>2020-07-03T07:50:25Z</time>
      </trkpt>
      <trkpt lat="47.7019090" lon="2.5560730">
        <ele>122.0</ele>
        <time>2020-07-03T07:50:34Z</time>
      </trkpt>
      <trkpt lat="47.7019990" lon="2.5563760">
        <ele>122.2</ele>
        <time>2020-07-03T07:50:38Z</time>
      </trkpt>
      <trkpt lat="47.7021610" lon="2.5569550">
        <ele>122.6</ele>
        <time>2020-07-03T07:50:46Z</time>
      </trkpt>
      <trkpt lat="47.7023570" lon="2.5577100">
        <ele>123.0</ele>
        <time>2020-07-03T07:50:56Z</time>
      </trkpt>
      <trkpt lat="47.7024200" lon="2.5579370">
        <ele>123.0</ele>
        <time>2020-07-03T07:50:59Z</time>
      </trkpt>
      <trkpt lat="47.7026490" lon="2.5587200">
        <ele>123.0</ele>
        <time>2020-07-03T07:51:09Z</time>
      </trkpt>
      <trkpt lat="47.7026690" lon="2.5588020">
        <ele>122.8</ele>
        <time>2020-07-03T07:51:10Z</time>
      </trkpt>
      <trkpt lat="47.7027980" lon="2.5595300">
        <ele>123.0</ele>
        <time>2020-07-03T07:51:19Z</time>
      </trkpt>
      <trkpt lat="47.7029150" lon="2.5603460">
        <ele>123.6</ele>
        <time>2020-07-03T07:51:29Z</time>
      </trkpt>
      <trkpt lat="47.7030280" lon="2.5609900">
        <ele>123.4</ele>
        <time>2020-07-03T07:51:37Z</time>
      </trkpt>
      <trkpt lat="47.7030370" lon="2.5610510">
        <ele>123.4</ele>
        <time>2020-07-03T07:51:38Z</time>
      </trkpt>
      <trkpt lat="47.7030570" lon="2.5611600">
        <ele>123.4</ele>
        <time>2020-07-03T07:51:40Z</time>
      </trkpt>
      <trkpt lat="47.7030880" lon="2.5613800">
        <ele>124.0</ele>
        <time>2020-07-03T07:51:45Z</time>
      </trkpt>
      <trkpt lat="47.7030670" lon="2.5617620">
        <ele>126.8</ele>
        <time>2020-07-03T07:51:54Z</time>
      </trkpt>
      <trkpt lat="47.7029680" lon="2.5621950">
        <ele>127.4</ele>
        <time>2020-07-03T07:52:02Z</time>
      </trkpt>
      <trkpt lat="47.7028650" lon="2.5627200">
        <ele>127.4</ele>
        <time>2020-07-03T07:52:10Z</time>
      </trkpt>
      <trkpt lat="47.7027280" lon="2.5633270">
        <ele>127.4</ele>
        <time>2020-07-03T07:52:20Z</time>
      </trkpt>
      <trkpt lat="47.7025110" lon="2.5640360">
        <ele>127.6</ele>
        <time>2020-07-03T07:52:30Z</time>
      </trkpt>
      <trkpt lat="47.7023140" lon="2.5645350">
        <ele>127.4</ele>
        <time>2020-07-03T07:52:37Z</time>
      </trkpt>
      <trkpt lat="47.7020740" lon="2.5650750">
        <ele>127.4</ele>
        <time>2020-07-03T07:52:45Z</time>
      </trkpt>
      <trkpt lat="47.7017810" lon="2.5656290">
        <ele>127.4</ele>
        <time>2020-07-03T07:52:53Z</time>
      </trkpt>
      <trkpt lat="47.7016460" lon="2.5659400">
        <ele>127.4</ele>
        <time>2020-07-03T07:52:57Z</time>
      </trkpt>
      <trkpt lat="47.7015500" lon="2.5661740">
        <ele>127.2</ele>
        <time>2020-07-03T07:53:00Z</time>
      </trkpt>
      <trkpt lat="47.7012980" lon="2.5667050">
        <ele>126.4</ele>
        <time>2020-07-03T07:53:07Z</time>
      </trkpt>
      <trkpt lat="47.7009630" lon="2.5673820">
        <ele>125.0</ele>
        <time>2020-07-03T07:53:16Z</time>
      </trkpt>
      <trkpt lat="47.7008100" lon="2.5676680">
        <ele>124.8</ele>
        <time>2020-07-03T07:53:20Z</time>
      </trkpt>
      <trkpt lat="47.7005420" lon="2.5681860">
        <ele>125.2</ele>
        <time>2020-07-03T07:53:28Z</time>
      </trkpt>
      <trkpt lat="47.7001990" lon="2.5688600">
        <ele>125.0</ele>
        <time>2020-07-03T07:53:38Z</time>
      </trkpt>
      <trkpt lat="47.7001020" lon="2.5690690">
        <ele>125.2</ele>
        <time>2020-07-03T07:53:41Z</time>
      </trkpt>
      <trkpt lat="47.6997760" lon="2.5697110">
        <ele>125.2</ele>
        <time>2020-07-03T07:53:50Z</time>
      </trkpt>
      <trkpt lat="47.6995660" lon="2.5701230">
        <ele>125.2</ele>
        <time>2020-07-03T07:53:56Z</time>
      </trkpt>
      <trkpt lat="47.6992370" lon="2.5708050">
        <ele>125.2</ele>
        <time>2020-07-03T07:54:06Z</time>
      </trkpt>
      <trkpt lat="47.6991400" lon="2.5710110">
        <ele>125.2</ele>
        <time>2020-07-03T07:54:09Z</time>
      </trkpt>
      <trkpt lat="47.6988750" lon="2.5715680">
        <ele>125.2</ele>
        <time>2020-07-03T07:54:17Z</time>
      </trkpt>
      <trkpt lat="47.6987810" lon="2.5717730">
        <ele>125.4</ele>
        <time>2020-07-03T07:54:20Z</time>
      </trkpt>
      <trkpt lat="47.6984690" lon="2.5724960">
        <ele>125.8</ele>
        <time>2020-07-03T07:54:30Z</time>
      </trkpt>
      <trkpt lat="47.6983450" lon="2.5727900">
        <ele>126.0</ele>
        <time>2020-07-03T07:54:34Z</time>
      </trkpt>
      <trkpt lat="47.6980850" lon="2.5733880">
        <ele>126.4</ele>
        <time>2020-07-03T07:54:43Z</time>
      </trkpt>
      <trkpt lat="47.6977790" lon="2.5740650">
        <ele>126.6</ele>
        <time>2020-07-03T07:54:54Z</time>
      </trkpt>
      <trkpt lat="47.6974440" lon="2.5747790">
        <ele>126.6</ele>
        <time>2020-07-03T07:55:05Z</time>
      </trkpt>
      <trkpt lat="47.6971280" lon="2.5754300">
        <ele>126.8</ele>
        <time>2020-07-03T07:55:16Z</time>
      </trkpt>
      <trkpt lat="47.6969600" lon="2.5757980">
        <ele>126.8</ele>
        <time>2020-07-03T07:55:23Z</time>
      </trkpt>
      <trkpt lat="47.6968310" lon="2.5761550">
        <ele>126.8</ele>
        <time>2020-07-03T07:55:31Z</time>
      </trkpt>
      <trkpt lat="47.6966410" lon="2.5767230">
        <ele>127.0</ele>
        <time>2020-07-03T07:55:41Z</time>
      </trkpt>
      <trkpt lat="47.6964070" lon="2.5774950">
        <ele>126.8</ele>
        <time>2020-07-03T07:55:53Z</time>
      </trkpt>
      <trkpt lat="47.6963890" lon="2.5775650">
        <ele>126.8</ele>
        <time>2020-07-03T07:55:54Z</time>
      </trkpt>
      <trkpt lat="47.6961750" lon="2.5783680">
        <ele>126.6</ele>
        <time>2020-07-03T07:56:05Z</time>
      </trkpt>
      <trkpt lat="47.6961290" lon="2.5785190">
        <ele>126.6</ele>
        <time>2020-07-03T07:56:07Z</time>
      </trkpt>
      <trkpt lat="47.6958650" lon="2.5792640">
        <ele>126.2</ele>
        <time>2020-07-03T07:56:17Z</time>
      </trkpt>
      <trkpt lat="47.6958370" lon="2.5793360">
        <ele>126.2</ele>
        <time>2020-07-03T07:56:18Z</time>
      </trkpt>
      <trkpt lat="47.6955730" lon="2.5800820">
        <ele>126.0</ele>
        <time>2020-07-03T07:56:28Z</time>
      </trkpt>
      <trkpt lat="47.6954820" lon="2.5803760">
        <ele>126.0</ele>
        <time>2020-07-03T07:56:32Z</time>
      </trkpt>
      <trkpt lat="47.6953510" lon="2.5808150">
        <ele>126.0</ele>
        <time>2020-07-03T07:56:38Z</time>
      </trkpt>
      <trkpt lat="47.6951610" lon="2.5814720">
        <ele>126.2</ele>
        <time>2020-07-03T07:56:47Z</time>
      </trkpt>
      <trkpt lat="47.6949520" lon="2.5822120">
        <ele>126.8</ele>
        <time>2020-07-03T07:56:57Z</time>
      </trkpt>
      <trkpt lat="47.6948360" lon="2.5826490">
        <ele>126.8</ele>
        <time>2020-07-03T07:57:03Z</time>
      </trkpt>
      <trkpt lat="47.6946320" lon="2.5834020">
        <ele>127.0</ele>
        <time>2020-07-03T07:57:13Z</time>
      </trkpt>
      <trkpt lat="47.6944280" lon="2.5841780">
        <ele>126.8</ele>
        <time>2020-07-03T07:57:23Z</time>
      </trkpt>
      <trkpt lat="47.6942970" lon="2.5846360">
        <ele>126.8</ele>
        <time>2020-07-03T07:57:29Z</time>
      </trkpt>
      <trkpt lat="47.6940560" lon="2.5853830">
        <ele>127.0</ele>
        <time>2020-07-03T07:57:39Z</time>
      </trkpt>
      <trkpt lat="47.6939590" lon="2.5856790">
        <ele>127.0</ele>
        <time>2020-07-03T07:57:43Z</time>
      </trkpt>
      <trkpt lat="47.6937330" lon="2.5864460">
        <ele>127.2</ele>
        <time>2020-07-03T07:57:53Z</time>
      </trkpt>
      <trkpt lat="47.6936930" lon="2.5865880">
        <ele>127.4</ele>
        <time>2020-07-03T07:57:55Z</time>
      </trkpt>
      <trkpt lat="47.6936730" lon="2.5866600">
        <ele>127.4</ele>
        <time>2020-07-03T07:57:56Z</time>
      </trkpt>
      <trkpt lat="47.6935050" lon="2.5872250">
        <ele>127.6</ele>
        <time>2020-07-03T07:58:05Z</time>
      </trkpt>
      <trkpt lat="47.6933150" lon="2.5878000">
        <ele>127.8</ele>
        <time>2020-07-03T07:58:14Z</time>
      </trkpt>
      <trkpt lat="47.6932640" lon="2.5879400">
        <ele>127.6</ele>
        <time>2020-07-03T07:58:16Z</time>
      </trkpt>
      <trkpt lat="47.6930600" lon="2.5884460">
        <ele>127.4</ele>
        <time>2020-07-03T07:58:23Z</time>
      </trkpt>
      <trkpt lat="47.6929970" lon="2.5885950">
        <ele>127.4</ele>
        <time>2020-07-03T07:58:25Z</time>
      </trkpt>
      <trkpt lat="47.6927040" lon="2.5893370">
        <ele>126.8</ele>
        <time>2020-07-03T07:58:35Z</time>
      </trkpt>
      <trkpt lat="47.6926500" lon="2.5894850">
        <ele>126.8</ele>
        <time>2020-07-03T07:58:37Z</time>
      </trkpt>
      <trkpt lat="47.6924010" lon="2.5902350">
        <ele>126.8</ele>
        <time>2020-07-03T07:58:47Z</time>
      </trkpt>
      <trkpt lat="47.6922790" lon="2.5906260">
        <ele>126.6</ele>
        <time>2020-07-03T07:58:52Z</time>
      </trkpt>
      <trkpt lat="47.6921050" lon="2.5914540">
        <ele>127.0</ele>
        <time>2020-07-03T07:59:02Z</time>
      </trkpt>
      <trkpt lat="47.6920890" lon="2.5915390">
        <ele>127.0</ele>
        <time>2020-07-03T07:59:03Z</time>
      </trkpt>
      <trkpt lat="47.6919480" lon="2.5923440">
        <ele>127.2</ele>
        <time>2020-07-03T07:59:13Z</time>
      </trkpt>
      <trkpt lat="47.6919250" lon="2.5924890">
        <ele>127.4</ele>
        <time>2020-07-03T07:59:15Z</time>
      </trkpt>
      <trkpt lat="47.6919130" lon="2.5927180">
        <ele>127.4</ele>
        <time>2020-07-03T07:59:19Z</time>
      </trkpt>
      <trkpt lat="47.6919360" lon="2.5929030">
        <ele>127.6</ele>
        <time>2020-07-03T07:59:25Z</time>
      </trkpt>
      <trkpt lat="47.6919580" lon="2.5929930">
        <ele>127.6</ele>
        <time>2020-07-03T07:59:28Z</time>
      </trkpt>
      <trkpt lat="47.6919740" lon="2.5930670">
        <ele>127.6</ele>
        <time>2020-07-03T07:59:30Z</time>
      </trkpt>
      <trkpt lat="47.6920210" lon="2.5931920">
        <ele>127.6</ele>
        <time>2020-07-03T07:59:33Z</time>
      </trkpt>
      <trkpt lat="47.6920550" lon="2.5933230">
        <ele>126.8</ele>
        <time>2020-07-03T07:59:38Z</time>
      </trkpt>
      <trkpt lat="47.6920280" lon="2.5933420">
        <ele>125.8</ele>
        <time>2020-07-03T07:59:47Z</time>
      </trkpt>
      <trkpt lat="47.6920100" lon="2.5933920">
        <ele>125.8</ele>
        <time>2020-07-03T07:59:55Z</time>
      </trkpt>
      <trkpt lat="47.6919950" lon="2.5934320">
        <ele>125.8</ele>
        <time>2020-07-03T07:59:57Z</time>
      </trkpt>
      <trkpt lat="47.6919540" lon="2.5936160">
        <ele>125.6</ele>
        <time>2020-07-03T08:00:01Z</time>
      </trkpt>
      <trkpt lat="47.6918860" lon="2.5941320">
        <ele>125.4</ele>
        <time>2020-07-03T08:00:10Z</time>
      </trkpt>
      <trkpt lat="47.6918520" lon="2.5945030">
        <ele>125.4</ele>
        <time>2020-07-03T08:00:16Z</time>
      </trkpt>
      <trkpt lat="47.6917790" lon="2.5951770">
        <ele>125.2</ele>
        <time>2020-07-03T08:00:27Z</time>
      </trkpt>
      <trkpt lat="47.6917340" lon="2.5955350">
        <ele>125.0</ele>
        <time>2020-07-03T08:00:32Z</time>
      </trkpt>
      <trkpt lat="47.6916720" lon="2.5958810">
        <ele>124.8</ele>
        <time>2020-07-03T08:00:37Z</time>
      </trkpt>
      <trkpt lat="47.6915240" lon="2.5965100">
        <ele>124.8</ele>
        <time>2020-07-03T08:00:46Z</time>
      </trkpt>
      <trkpt lat="47.6913840" lon="2.5970620">
        <ele>124.8</ele>
        <time>2020-07-03T08:00:54Z</time>
      </trkpt>
      <trkpt lat="47.6912260" lon="2.5977200">
        <ele>125.0</ele>
        <time>2020-07-03T08:01:03Z</time>
      </trkpt>
      <trkpt lat="47.6910310" lon="2.5984010">
        <ele>124.8</ele>
        <time>2020-07-03T08:01:12Z</time>
      </trkpt>
      <trkpt lat="47.6908540" lon="2.5989790">
        <ele>124.6</ele>
        <time>2020-07-03T08:01:20Z</time>
      </trkpt>
      <trkpt lat="47.6906480" lon="2.5996940">
        <ele>124.6</ele>
        <time>2020-07-03T08:01:29Z</time>
      </trkpt>
      <trkpt lat="47.6903850" lon="2.6004680">
        <ele>124.8</ele>
        <time>2020-07-03T08:01:39Z</time>
      </trkpt>
      <trkpt lat="47.6903630" lon="2.6005450">
        <ele>124.8</ele>
        <time>2020-07-03T08:01:40Z</time>
      </trkpt>
      <trkpt lat="47.6903140" lon="2.6006920">
        <ele>124.6</ele>
        <time>2020-07-03T08:01:42Z</time>
      </trkpt>
      <trkpt lat="47.6900580" lon="2.6014200">
        <ele>125.2</ele>
        <time>2020-07-03T08:01:52Z</time>
      </trkpt>
      <trkpt lat="47.6898010" lon="2.6022110">
        <ele>125.2</ele>
        <time>2020-07-03T08:02:02Z</time>
      </trkpt>
      <trkpt lat="47.6897720" lon="2.6022900">
        <ele>125.4</ele>
        <time>2020-07-03T08:02:03Z</time>
      </trkpt>
      <trkpt lat="47.6894990" lon="2.6030710">
        <ele>124.8</ele>
        <time>2020-07-03T08:02:13Z</time>
      </trkpt>
      <trkpt lat="47.6894700" lon="2.6031450">
        <ele>124.8</ele>
        <time>2020-07-03T08:02:14Z</time>
      </trkpt>
      <trkpt lat="47.6891940" lon="2.6038780">
        <ele>124.8</ele>
        <time>2020-07-03T08:02:24Z</time>
      </trkpt>
      <trkpt lat="47.6891660" lon="2.6039520">
        <ele>125.0</ele>
        <time>2020-07-03T08:02:25Z</time>
      </trkpt>
      <trkpt lat="47.6888550" lon="2.6046600">
        <ele>125.0</ele>
        <time>2020-07-03T08:02:35Z</time>
      </trkpt>
      <trkpt lat="47.6885530" lon="2.6053280">
        <ele>125.2</ele>
        <time>2020-07-03T08:02:45Z</time>
      </trkpt>
      <trkpt lat="47.6884970" lon="2.6054540">
        <ele>125.2</ele>
        <time>2020-07-03T08:02:47Z</time>
      </trkpt>
      <trkpt lat="47.6882720" lon="2.6060010">
        <ele>125.4</ele>
        <time>2020-07-03T08:02:56Z</time>
      </trkpt>
      <trkpt lat="47.6881210" lon="2.6063520">
        <ele>125.6</ele>
        <time>2020-07-03T08:03:03Z</time>
      </trkpt>
      <trkpt lat="47.6880790" lon="2.6064510">
        <ele>125.8</ele>
        <time>2020-07-03T08:03:05Z</time>
      </trkpt>
      <trkpt lat="47.6879520" lon="2.6067190">
        <ele>125.8</ele>
        <time>2020-07-03T08:03:10Z</time>
      </trkpt>
      <trkpt lat="47.6878820" lon="2.6069060">
        <ele>125.8</ele>
        <time>2020-07-03T08:03:13Z</time>
      </trkpt>
      <trkpt lat="47.6876870" lon="2.6073880">
        <ele>125.8</ele>
        <time>2020-07-03T08:03:21Z</time>
      </trkpt>
      <trkpt lat="47.6876670" lon="2.6074530">
        <ele>125.8</ele>
        <time>2020-07-03T08:03:22Z</time>
      </trkpt>
      <trkpt lat="47.6874580" lon="2.6080000">
        <ele>125.6</ele>
        <time>2020-07-03T08:03:31Z</time>
      </trkpt>
      <trkpt lat="47.6872110" lon="2.6085920">
        <ele>125.6</ele>
        <time>2020-07-03T08:03:40Z</time>
      </trkpt>
      <trkpt lat="47.6869690" lon="2.6093150">
        <ele>125.6</ele>
        <time>2020-07-03T08:03:50Z</time>
      </trkpt>
      <trkpt lat="47.6868120" lon="2.6097390">
        <ele>125.6</ele>
        <time>2020-07-03T08:03:56Z</time>
      </trkpt>
      <trkpt lat="47.6866840" lon="2.6100880">
        <ele>125.6</ele>
        <time>2020-07-03T08:04:01Z</time>
      </trkpt>
      <trkpt lat="47.6866420" lon="2.6102350">
        <ele>125.6</ele>
        <time>2020-07-03T08:04:03Z</time>
      </trkpt>
      <trkpt lat="47.6864880" lon="2.6108360">
        <ele>125.8</ele>
        <time>2020-07-03T08:04:11Z</time>
      </trkpt>
      <trkpt lat="47.6863600" lon="2.6113470">
        <ele>125.6</ele>
        <time>2020-07-03T08:04:18Z</time>
      </trkpt>
      <trkpt lat="47.6863020" lon="2.6115640">
        <ele>125.6</ele>
        <time>2020-07-03T08:04:21Z</time>
      </trkpt>
      <trkpt lat="47.6861110" lon="2.6122770">
        <ele>125.8</ele>
        <time>2020-07-03T08:04:30Z</time>
      </trkpt>
      <trkpt lat="47.6859810" lon="2.6127930">
        <ele>126.0</ele>
        <time>2020-07-03T08:04:37Z</time>
      </trkpt>
      <trkpt lat="47.6858150" lon="2.6135030">
        <ele>125.8</ele>
        <time>2020-07-03T08:04:46Z</time>
      </trkpt>
      <trkpt lat="47.6857260" lon="2.6139050">
        <ele>125.6</ele>
        <time>2020-07-03T08:04:51Z</time>
      </trkpt>
      <trkpt lat="47.6856030" lon="2.6144550">
        <ele>125.6</ele>
        <time>2020-07-03T08:04:58Z</time>
      </trkpt>
      <trkpt lat="47.6854480" lon="2.6150760">
        <ele>125.6</ele>
        <time>2020-07-03T08:05:06Z</time>
      </trkpt>
      <trkpt lat="47.6853540" lon="2.6154800">
        <ele>125.8</ele>
        <time>2020-07-03T08:05:11Z</time>
      </trkpt>
      <trkpt lat="47.6851530" lon="2.6162760">
        <ele>126.0</ele>
        <time>2020-07-03T08:05:21Z</time>
      </trkpt>
      <trkpt lat="47.6851050" lon="2.6164350">
        <ele>125.8</ele>
        <time>2020-07-03T08:05:23Z</time>
      </trkpt>
      <trkpt lat="47.6848270" lon="2.6171740">
        <ele>126.0</ele>
        <time>2020-07-03T08:05:33Z</time>
      </trkpt>
      <trkpt lat="47.6844700" lon="2.6178070">
        <ele>126.2</ele>
        <time>2020-07-03T08:05:43Z</time>
      </trkpt>
      <trkpt lat="47.6841310" lon="2.6184740">
        <ele>126.2</ele>
        <time>2020-07-03T08:05:53Z</time>
      </trkpt>
      <trkpt lat="47.6840680" lon="2.6186200">
        <ele>126.0</ele>
        <time>2020-07-03T08:05:55Z</time>
      </trkpt>
      <trkpt lat="47.6838820" lon="2.6190840">
        <ele>126.0</ele>
        <time>2020-07-03T08:06:02Z</time>
      </trkpt>
      <trkpt lat="47.6836130" lon="2.6198110">
        <ele>126.0</ele>
        <time>2020-07-03T08:06:12Z</time>
      </trkpt>
      <trkpt lat="47.6834050" lon="2.6203530">
        <ele>125.8</ele>
        <time>2020-07-03T08:06:19Z</time>
      </trkpt>
      <trkpt lat="47.6832920" lon="2.6205910">
        <ele>125.8</ele>
        <time>2020-07-03T08:06:22Z</time>
      </trkpt>
      <trkpt lat="47.6829880" lon="2.6212070">
        <ele>125.2</ele>
        <time>2020-07-03T08:06:30Z</time>
      </trkpt>
      <trkpt lat="47.6826940" lon="2.6217580">
        <ele>124.8</ele>
        <time>2020-07-03T08:06:38Z</time>
      </trkpt>
      <trkpt lat="47.6824750" lon="2.6222310">
        <ele>125.4</ele>
        <time>2020-07-03T08:06:45Z</time>
      </trkpt>
      <trkpt lat="47.6824140" lon="2.6223730">
        <ele>125.4</ele>
        <time>2020-07-03T08:06:47Z</time>
      </trkpt>
      <trkpt lat="47.6823350" lon="2.6225920">
        <ele>125.6</ele>
        <time>2020-07-03T08:06:50Z</time>
      </trkpt>
      <trkpt lat="47.6822720" lon="2.6228190">
        <ele>126.0</ele>
        <time>2020-07-03T08:06:53Z</time>
      </trkpt>
      <trkpt lat="47.6820690" lon="2.6234450">
        <ele>126.6</ele>
        <time>2020-07-03T08:07:02Z</time>
      </trkpt>
      <trkpt lat="47.6819700" lon="2.6237030">
        <ele>126.4</ele>
        <time>2020-07-03T08:07:07Z</time>
      </trkpt>
      <trkpt lat="47.6819150" lon="2.6237740">
        <ele>127.2</ele>
        <time>2020-07-03T08:07:11Z</time>
      </trkpt>
      <trkpt lat="47.6818790" lon="2.6238380">
        <ele>127.4</ele>
        <time>2020-07-03T08:07:15Z</time>
      </trkpt>
      <trkpt lat="47.6818720" lon="2.6238700">
        <ele>127.4</ele>
        <time>2020-07-03T08:07:16Z</time>
      </trkpt>
      <trkpt lat="47.6818120" lon="2.6241760">
        <ele>127.4</ele>
        <time>2020-07-03T08:07:22Z</time>
      </trkpt>
      <trkpt lat="47.6817820" lon="2.6245630">
        <ele>127.4</ele>
        <time>2020-07-03T08:07:29Z</time>
      </trkpt>
      <trkpt lat="47.6817990" lon="2.6246460">
        <ele>127.6</ele>
        <time>2020-07-03T08:07:33Z</time>
      </trkpt>
      <trkpt lat="47.6817970" lon="2.6246760">
        <ele>128.2</ele>
        <time>2020-07-03T08:07:45Z</time>
      </trkpt>
      <trkpt lat="47.6818000" lon="2.6246780">
        <ele>127.8</ele>
        <time>2020-07-03T08:08:10Z</time>
      </trkpt>
      <trkpt lat="47.6818020" lon="2.6246780">
        <ele>127.8</ele>
        <time>2020-07-03T08:08:28Z</time>
      </trkpt>
      <trkpt lat="47.6818090" lon="2.6246640">
        <ele>128.0</ele>
        <time>2020-07-03T08:08:59Z</time>
      </trkpt>
      <trkpt lat="47.6818130" lon="2.6246580">
        <ele>128.0</ele>
        <time>2020-07-03T08:09:05Z</time>
      </trkpt>
      <trkpt lat="47.6818150" lon="2.6246550">
        <ele>127.8</ele>
        <time>2020-07-03T08:09:12Z</time>
      </trkpt>
      <trkpt lat="47.6818170" lon="2.6246430">
        <ele>127.8</ele>
        <time>2020-07-03T08:09:36Z</time>
      </trkpt>
      <trkpt lat="47.6818200" lon="2.6246350">
        <ele>127.6</ele>
        <time>2020-07-03T08:10:06Z</time>
      </trkpt>
      <trkpt lat="47.6818250" lon="2.6246290">
        <ele>127.8</ele>
        <time>2020-07-03T08:10:32Z</time>
      </trkpt>
      <trkpt lat="47.6818310" lon="2.6246140">
        <ele>128.0</ele>
        <time>2020-07-03T08:11:05Z</time>
      </trkpt>
      <trkpt lat="47.6818300" lon="2.6246150">
        <ele>128.2</ele>
        <time>2020-07-03T08:11:25Z</time>
      </trkpt>
      <trkpt lat="47.6818260" lon="2.6246140">
        <ele>128.0</ele>
        <time>2020-07-03T08:11:39Z</time>
      </trkpt>
      <trkpt lat="47.6818250" lon="2.6246130">
        <ele>128.2</ele>
        <time>2020-07-03T08:11:41Z</time>
      </trkpt>
      <trkpt lat="47.6818260" lon="2.6246160">
        <ele>128.2</ele>
        <time>2020-07-03T08:11:50Z</time>
      </trkpt>
      <trkpt lat="47.6818260" lon="2.6246140">
        <ele>128.0</ele>
        <time>2020-07-03T08:12:17Z</time>
      </trkpt>
      <trkpt lat="47.6818270" lon="2.6246130">
        <ele>127.8</ele>
        <time>2020-07-03T08:12:22Z</time>
      </trkpt>
      <trkpt lat="47.6818360" lon="2.6246040">
        <ele>128.2</ele>
        <time>2020-07-03T08:12:52Z</time>
      </trkpt>
      <trkpt lat="47.6818450" lon="2.6246020">
        <ele>128.2</ele>
        <time>2020-07-03T08:13:21Z</time>
      </trkpt>
      <trkpt lat="47.6818580" lon="2.6245970">
        <ele>128.0</ele>
        <time>2020-07-03T08:13:51Z</time>
      </trkpt>
      <trkpt lat="47.6818700" lon="2.6245940">
        <ele>127.8</ele>
        <time>2020-07-03T08:14:24Z</time>
      </trkpt>
      <trkpt lat="47.6818670" lon="2.6246130">
        <ele>128.0</ele>
        <time>2020-07-03T08:15:03Z</time>
      </trkpt>
      <trkpt lat="47.6818670" lon="2.6246010">
        <ele>128.0</ele>
        <time>2020-07-03T08:15:32Z</time>
      </trkpt>
      <trkpt lat="47.6818730" lon="2.6245910">
        <ele>127.8</ele>
        <time>2020-07-03T08:15:59Z</time>
      </trkpt>
      <trkpt lat="47.6818710" lon="2.6245900">
        <ele>127.8</ele>
        <time>2020-07-03T08:16:18Z</time>
      </trkpt>
      <trkpt lat="47.6818690" lon="2.6245910">
        <ele>127.6</ele>
        <time>2020-07-03T08:16:30Z</time>
      </trkpt>
      <trkpt lat="47.6818710" lon="2.6245850">
        <ele>127.6</ele>
        <time>2020-07-03T08:16:56Z</time>
      </trkpt>
      <trkpt lat="47.6818690" lon="2.6245910">
        <ele>127.6</ele>
        <time>2020-07-03T08:17:23Z</time>
      </trkpt>
      <trkpt lat="47.6818690" lon="2.6245920">
        <ele>127.4</ele>
        <time>2020-07-03T08:17:25Z</time>
      </trkpt>
      <trkpt lat="47.6818680" lon="2.6245930">
        <ele>127.4</ele>
        <time>2020-07-03T08:17:34Z</time>
      </trkpt>
      <trkpt lat="47.6818680" lon="2.6245930">
        <ele>127.4</ele>
        <time>2020-07-03T08:17:35Z</time>
      </trkpt>
      <trkpt lat="47.6818680" lon="2.6245920">
        <ele>127.4</ele>
        <time>2020-07-03T08:17:39Z</time>
      </trkpt>
      <trkpt lat="47.6818550" lon="2.6246110">
        <ele>127.6</ele>
        <time>2020-07-03T08:17:46Z</time>
      </trkpt>
      <trkpt lat="47.6818420" lon="2.6246350">
        <ele>127.8</ele>
        <time>2020-07-03T08:17:48Z</time>
      </trkpt>
      <trkpt lat="47.6817870" lon="2.6247940">
        <ele>127.6</ele>
        <time>2020-07-03T08:17:55Z</time>
      </trkpt>
      <trkpt lat="47.6817290" lon="2.6251110">
        <ele>127.6</ele>
        <time>2020-07-03T08:18:03Z</time>
      </trkpt>
      <trkpt lat="47.6816660" lon="2.6256240">
        <ele>127.6</ele>
        <time>2020-07-03T08:18:13Z</time>
      </trkpt>
      <trkpt lat="47.6816350" lon="2.6258780">
        <ele>127.4</ele>
        <time>2020-07-03T08:18:17Z</time>
      </trkpt>
      <trkpt lat="47.6815680" lon="2.6263560">
        <ele>127.6</ele>
        <time>2020-07-03T08:18:24Z</time>
      </trkpt>
      <trkpt lat="47.6814620" lon="2.6272180">
        <ele>127.4</ele>
        <time>2020-07-03T08:18:36Z</time>
      </trkpt>
      <trkpt lat="47.6813780" lon="2.6279050">
        <ele>127.2</ele>
        <time>2020-07-03T08:18:45Z</time>
      </trkpt>
      <trkpt lat="47.6813200" lon="2.6287160">
        <ele>126.8</ele>
        <time>2020-07-03T08:18:55Z</time>
      </trkpt>
      <trkpt lat="47.6812430" lon="2.6292790">
        <ele>126.8</ele>
        <time>2020-07-03T08:19:02Z</time>
      </trkpt>
      <trkpt lat="47.6812310" lon="2.6293550">
        <ele>126.8</ele>
        <time>2020-07-03T08:19:03Z</time>
      </trkpt>
      <trkpt lat="47.6811430" lon="2.6297630">
        <ele>127.0</ele>
        <time>2020-07-03T08:19:09Z</time>
      </trkpt>
      <trkpt lat="47.6811010" lon="2.6298750">
        <ele>127.6</ele>
        <time>2020-07-03T08:19:11Z</time>
      </trkpt>
      <trkpt lat="47.6810260" lon="2.6301830">
        <ele>128.4</ele>
        <time>2020-07-03T08:19:17Z</time>
      </trkpt>
      <trkpt lat="47.6811280" lon="2.6303300">
        <ele>129.0</ele>
        <time>2020-07-03T08:19:21Z</time>
      </trkpt>
      <trkpt lat="47.6812000" lon="2.6303400">
        <ele>129.2</ele>
        <time>2020-07-03T08:19:23Z</time>
      </trkpt>
      <trkpt lat="47.6813370" lon="2.6303430">
        <ele>129.4</ele>
        <time>2020-07-03T08:19:27Z</time>
      </trkpt>
      <trkpt lat="47.6815650" lon="2.6304640">
        <ele>130.0</ele>
        <time>2020-07-03T08:19:34Z</time>
      </trkpt>
      <trkpt lat="47.6820200" lon="2.6307370">
        <ele>131.6</ele>
        <time>2020-07-03T08:19:46Z</time>
      </trkpt>
      <trkpt lat="47.6824540" lon="2.6310000">
        <ele>132.6</ele>
        <time>2020-07-03T08:19:58Z</time>
      </trkpt>
      <trkpt lat="47.6826020" lon="2.6310890">
        <ele>132.8</ele>
        <time>2020-07-03T08:20:02Z</time>
      </trkpt>
      <trkpt lat="47.6830230" lon="2.6313390">
        <ele>134.0</ele>
        <time>2020-07-03T08:20:13Z</time>
      </trkpt>
      <trkpt lat="47.6830660" lon="2.6313650">
        <ele>134.0</ele>
        <time>2020-07-03T08:20:14Z</time>
      </trkpt>
      <trkpt lat="47.6832170" lon="2.6314530">
        <ele>133.8</ele>
        <time>2020-07-03T08:20:17Z</time>
      </trkpt>
      <trkpt lat="47.6833270" lon="2.6315200">
        <ele>134.0</ele>
        <time>2020-07-03T08:20:19Z</time>
      </trkpt>
      <trkpt lat="47.6834370" lon="2.6315870">
        <ele>134.0</ele>
        <time>2020-07-03T08:20:21Z</time>
      </trkpt>
      <trkpt lat="47.6834910" lon="2.6316190">
        <ele>133.4</ele>
        <time>2020-07-03T08:20:22Z</time>
      </trkpt>
      <trkpt lat="47.6836850" lon="2.6317350">
        <ele>131.6</ele>
        <time>2020-07-03T08:20:27Z</time>
      </trkpt>
      <trkpt lat="47.6837890" lon="2.6318150">
        <ele>130.0</ele>
        <time>2020-07-03T08:20:33Z</time>
      </trkpt>
      <trkpt lat="47.6838470" lon="2.6319390">
        <ele>129.8</ele>
        <time>2020-07-03T08:20:39Z</time>
      </trkpt>
      <trkpt lat="47.6838900" lon="2.6319960">
        <ele>129.6</ele>
        <time>2020-07-03T08:20:47Z</time>
      </trkpt>
      <trkpt lat="47.6839320" lon="2.6321070">
        <ele>129.4</ele>
        <time>2020-07-03T08:20:53Z</time>
      </trkpt>
      <trkpt lat="47.6839380" lon="2.6321270">
        <ele>129.4</ele>
        <time>2020-07-03T08:20:54Z</time>
      </trkpt>
      <trkpt lat="47.6839950" lon="2.6322020">
        <ele>129.4</ele>
        <time>2020-07-03T08:20:59Z</time>
      </trkpt>
      <trkpt lat="47.6840110" lon="2.6322450">
        <ele>129.4</ele>
        <time>2020-07-03T08:21:01Z</time>
      </trkpt>
      <trkpt lat="47.6841300" lon="2.6323230">
        <ele>129.2</ele>
        <time>2020-07-03T08:21:07Z</time>
      </trkpt>
      <trkpt lat="47.6842100" lon="2.6322900">
        <ele>129.2</ele>
        <time>2020-07-03T08:21:13Z</time>
      </trkpt>
      <trkpt lat="47.6842220" lon="2.6322550">
        <ele>129.4</ele>
        <time>2020-07-03T08:21:15Z</time>
      </trkpt>
      <trkpt lat="47.6842620" lon="2.6320760">
        <ele>129.2</ele>
        <time>2020-07-03T08:21:22Z</time>
      </trkpt>
      <trkpt lat="47.6842800" lon="2.6317850">
        <ele>129.0</ele>
        <time>2020-07-03T08:21:31Z</time>
      </trkpt>
      <trkpt lat="47.6842800" lon="2.6315650">
        <ele>129.0</ele>
        <time>2020-07-03T08:21:38Z</time>
      </trkpt>
      <trkpt lat="47.6842850" lon="2.6313410">
        <ele>129.0</ele>
        <time>2020-07-03T08:21:45Z</time>
      </trkpt>
      <trkpt lat="47.6843260" lon="2.6310600">
        <ele>129.2</ele>
        <time>2020-07-03T08:21:54Z</time>
      </trkpt>
      <trkpt lat="47.6843600" lon="2.6307560">
        <ele>129.4</ele>
        <time>2020-07-03T08:22:04Z</time>
      </trkpt>
      <trkpt lat="47.6844090" lon="2.6305120">
        <ele>129.4</ele>
        <time>2020-07-03T08:22:13Z</time>
      </trkpt>
      <trkpt lat="47.6844420" lon="2.6303030">
        <ele>129.0</ele>
        <time>2020-07-03T08:22:19Z</time>
      </trkpt>
      <trkpt lat="47.6845090" lon="2.6301890">
        <ele>128.6</ele>
        <time>2020-07-03T08:22:25Z</time>
      </trkpt>
      <trkpt lat="47.6846130" lon="2.6299920">
        <ele>128.4</ele>
        <time>2020-07-03T08:22:34Z</time>
      </trkpt>
      <trkpt lat="47.6846550" lon="2.6297400">
        <ele>128.4</ele>
        <time>2020-07-03T08:22:44Z</time>
      </trkpt>
      <trkpt lat="47.6847280" lon="2.6294780">
        <ele>128.2</ele>
        <time>2020-07-03T08:22:54Z</time>
      </trkpt>
      <trkpt lat="47.6847580" lon="2.6293750">
        <ele>128.2</ele>
        <time>2020-07-03T08:23:01Z</time>
      </trkpt>
      <trkpt lat="47.6847700" lon="2.6293500">
        <ele>128.2</ele>
        <time>2020-07-03T08:23:03Z</time>
      </trkpt>
      <trkpt lat="47.6848170" lon="2.6291820">
        <ele>128.0</ele>
        <time>2020-07-03T08:23:12Z</time>
      </trkpt>
      <trkpt lat="47.6848170" lon="2.6289730">
        <ele>127.8</ele>
        <time>2020-07-03T08:23:18Z</time>
      </trkpt>
      <trkpt lat="47.6848850" lon="2.6287440">
        <ele>127.6</ele>
        <time>2020-07-03T08:23:25Z</time>
      </trkpt>
      <trkpt lat="47.6850010" lon="2.6285760">
        <ele>127.6</ele>
        <time>2020-07-03T08:23:31Z</time>
      </trkpt>
      <trkpt lat="47.6850700" lon="2.6283270">
        <ele>127.6</ele>
        <time>2020-07-03T08:23:38Z</time>
      </trkpt>
      <trkpt lat="47.6850820" lon="2.6282930">
        <ele>127.6</ele>
        <time>2020-07-03T08:23:39Z</time>
      </trkpt>
      <trkpt lat="47.6851900" lon="2.6280280">
        <ele>127.4</ele>
        <time>2020-07-03T08:23:47Z</time>
      </trkpt>
      <trkpt lat="47.6852800" lon="2.6278330">
        <ele>127.2</ele>
        <time>2020-07-03T08:23:54Z</time>
      </trkpt>
      <trkpt lat="47.6853040" lon="2.6278190">
        <ele>127.2</ele>
        <time>2020-07-03T08:23:55Z</time>
      </trkpt>
      <trkpt lat="47.6853330" lon="2.6278170">
        <ele>127.0</ele>
        <time>2020-07-03T08:23:57Z</time>
      </trkpt>
      <trkpt lat="47.6853510" lon="2.6278280">
        <ele>127.0</ele>
        <time>2020-07-03T08:23:58Z</time>
      </trkpt>
      <trkpt lat="47.6854880" lon="2.6279080">
        <ele>127.2</ele>
        <time>2020-07-03T08:24:06Z</time>
      </trkpt>
      <trkpt lat="47.6856030" lon="2.6279850">
        <ele>127.6</ele>
        <time>2020-07-03T08:24:13Z</time>
      </trkpt>
      <trkpt lat="47.6856510" lon="2.6280240">
        <ele>127.8</ele>
        <time>2020-07-03T08:24:16Z</time>
      </trkpt>
      <trkpt lat="47.6857040" lon="2.6280800">
        <ele>128.0</ele>
        <time>2020-07-03T08:24:20Z</time>
      </trkpt>
      <trkpt lat="47.6857330" lon="2.6281000">
        <ele>128.2</ele>
        <time>2020-07-03T08:24:22Z</time>
      </trkpt>
      <trkpt lat="47.6858190" lon="2.6281470">
        <ele>129.0</ele>
        <time>2020-07-03T08:24:27Z</time>
      </trkpt>
      <trkpt lat="47.6858710" lon="2.6281840">
        <ele>129.8</ele>
        <time>2020-07-03T08:24:30Z</time>
      </trkpt>
      <trkpt lat="47.6859840" lon="2.6282360">
        <ele>130.4</ele>
        <time>2020-07-03T08:24:35Z</time>
      </trkpt>
      <trkpt lat="47.6860980" lon="2.6283020">
        <ele>131.4</ele>
        <time>2020-07-03T08:24:41Z</time>
      </trkpt>
      <trkpt lat="47.6862070" lon="2.6283520">
        <ele>132.2</ele>
        <time>2020-07-03T08:24:46Z</time>
      </trkpt>
      <trkpt lat="47.6862250" lon="2.6283650">
        <ele>132.2</ele>
        <time>2020-07-03T08:24:47Z</time>
      </trkpt>
      <trkpt lat="47.6863350" lon="2.6284720">
        <ele>133.8</ele>
        <time>2020-07-03T08:24:54Z</time>
      </trkpt>
      <trkpt lat="47.6863510" lon="2.6285310">
        <ele>134.2</ele>
        <time>2020-07-03T08:24:56Z</time>
      </trkpt>
      <trkpt lat="47.6863820" lon="2.6285930">
        <ele>134.6</ele>
        <time>2020-07-03T08:25:00Z</time>
      </trkpt>
      <trkpt lat="47.6863910" lon="2.6286320">
        <ele>135.0</ele>
        <time>2020-07-03T08:25:02Z</time>
      </trkpt>
      <trkpt lat="47.6864040" lon="2.6287070">
        <ele>135.8</ele>
        <time>2020-07-03T08:25:06Z</time>
      </trkpt>
      <trkpt lat="47.6863980" lon="2.6287960">
        <ele>136.8</ele>
        <time>2020-07-03T08:25:10Z</time>
      </trkpt>
      <trkpt lat="47.6863460" lon="2.6289400">
        <ele>138.0</ele>
        <time>2020-07-03T08:25:16Z</time>
      </trkpt>
      <trkpt lat="47.6863450" lon="2.6289910">
        <ele>138.2</ele>
        <time>2020-07-03T08:25:18Z</time>
      </trkpt>
      <trkpt lat="47.6863260" lon="2.6290850">
        <ele>139.4</ele>
        <time>2020-07-03T08:25:23Z</time>
      </trkpt>
      <trkpt lat="47.6862990" lon="2.6291410">
        <ele>139.8</ele>
        <time>2020-07-03T08:25:26Z</time>
      </trkpt>
      <trkpt lat="47.6862610" lon="2.6291970">
        <ele>140.8</ele>
        <time>2020-07-03T08:25:30Z</time>
      </trkpt>
      <trkpt lat="47.6862320" lon="2.6292470">
        <ele>141.2</ele>
        <time>2020-07-03T08:25:33Z</time>
      </trkpt>
      <trkpt lat="47.6862220" lon="2.6292590">
        <ele>141.4</ele>
        <time>2020-07-03T08:25:34Z</time>
      </trkpt>
      <trkpt lat="47.6862040" lon="2.6292920">
        <ele>141.6</ele>
        <time>2020-07-03T08:25:36Z</time>
      </trkpt>
      <trkpt lat="47.6861580" lon="2.6294400">
        <ele>142.6</ele>
        <time>2020-07-03T08:25:43Z</time>
      </trkpt>
      <trkpt lat="47.6861520" lon="2.6294600">
        <ele>142.8</ele>
        <time>2020-07-03T08:25:44Z</time>
      </trkpt>
      <trkpt lat="47.6861240" lon="2.6295920">
        <ele>143.8</ele>
        <time>2020-07-03T08:25:50Z</time>
      </trkpt>
      <trkpt lat="47.6861200" lon="2.6296120">
        <ele>143.8</ele>
        <time>2020-07-03T08:25:51Z</time>
      </trkpt>
      <trkpt lat="47.6860620" lon="2.6297450">
        <ele>144.8</ele>
        <time>2020-07-03T08:25:57Z</time>
      </trkpt>
      <trkpt lat="47.6860320" lon="2.6297820">
        <ele>145.2</ele>
        <time>2020-07-03T08:25:59Z</time>
      </trkpt>
      <trkpt lat="47.6859760" lon="2.6299450">
        <ele>146.2</ele>
        <time>2020-07-03T08:26:06Z</time>
      </trkpt>
      <trkpt lat="47.6859630" lon="2.6299650">
        <ele>146.2</ele>
        <time>2020-07-03T08:26:07Z</time>
      </trkpt>
      <trkpt lat="47.6859140" lon="2.6300930">
        <ele>147.0</ele>
        <time>2020-07-03T08:26:13Z</time>
      </trkpt>
      <trkpt lat="47.6859010" lon="2.6300940">
        <ele>147.2</ele>
        <time>2020-07-03T08:26:14Z</time>
      </trkpt>
      <trkpt lat="47.6858580" lon="2.6300780">
        <ele>147.4</ele>
        <time>2020-07-03T08:26:17Z</time>
      </trkpt>
      <trkpt lat="47.6858140" lon="2.6300580">
        <ele>147.8</ele>
        <time>2020-07-03T08:26:20Z</time>
      </trkpt>
      <trkpt lat="47.6856870" lon="2.6300690">
        <ele>148.6</ele>
        <time>2020-07-03T08:26:28Z</time>
      </trkpt>
      <trkpt lat="47.6855330" lon="2.6302070">
        <ele>149.4</ele>
        <time>2020-07-03T08:26:37Z</time>
      </trkpt>
      <trkpt lat="47.6853820" lon="2.6303310">
        <ele>149.4</ele>
        <time>2020-07-03T08:26:45Z</time>
      </trkpt>
      <trkpt lat="47.6853600" lon="2.6303780">
        <ele>149.4</ele>
        <time>2020-07-03T08:26:47Z</time>
      </trkpt>
      <trkpt lat="47.6853560" lon="2.6304370">
        <ele>149.4</ele>
        <time>2020-07-03T08:26:49Z</time>
      </trkpt>
      <trkpt lat="47.6853790" lon="2.6305130">
        <ele>149.8</ele>
        <time>2020-07-03T08:26:52Z</time>
      </trkpt>
      <trkpt lat="47.6855100" lon="2.6306970">
        <ele>150.2</ele>
        <time>2020-07-03T08:27:02Z</time>
      </trkpt>
      <trkpt lat="47.6855240" lon="2.6308170">
        <ele>150.2</ele>
        <time>2020-07-03T08:27:09Z</time>
      </trkpt>
      <trkpt lat="47.6854800" lon="2.6309550">
        <ele>150.4</ele>
        <time>2020-07-03T08:27:16Z</time>
      </trkpt>
      <trkpt lat="47.6854610" lon="2.6310360">
        <ele>150.4</ele>
        <time>2020-07-03T08:27:19Z</time>
      </trkpt>
      <trkpt lat="47.6854300" lon="2.6311520">
        <ele>150.6</ele>
        <time>2020-07-03T08:27:23Z</time>
      </trkpt>
      <trkpt lat="47.6853720" lon="2.6313060">
        <ele>150.6</ele>
        <time>2020-07-03T08:27:28Z</time>
      </trkpt>
      <trkpt lat="47.6852760" lon="2.6315630">
        <ele>150.0</ele>
        <time>2020-07-03T08:27:36Z</time>
      </trkpt>
      <trkpt lat="47.6852600" lon="2.6315820">
        <ele>150.0</ele>
        <time>2020-07-03T08:27:37Z</time>
      </trkpt>
      <trkpt lat="47.6851960" lon="2.6316110">
        <ele>149.8</ele>
        <time>2020-07-03T08:27:41Z</time>
      </trkpt>
      <trkpt lat="47.6851630" lon="2.6316280">
        <ele>149.6</ele>
        <time>2020-07-03T08:27:43Z</time>
      </trkpt>
      <trkpt lat="47.6850890" lon="2.6317270">
        <ele>149.2</ele>
        <time>2020-07-03T08:27:49Z</time>
      </trkpt>
      <trkpt lat="47.6851250" lon="2.6317890">
        <ele>149.2</ele>
        <time>2020-07-03T08:27:56Z</time>
      </trkpt>
      <trkpt lat="47.6851600" lon="2.6317600">
        <ele>149.0</ele>
        <time>2020-07-03T08:28:00Z</time>
      </trkpt>
      <trkpt lat="47.6851680" lon="2.6317220">
        <ele>149.0</ele>
        <time>2020-07-03T08:28:03Z</time>
      </trkpt>
      <trkpt lat="47.6851670" lon="2.6317050">
        <ele>148.8</ele>
        <time>2020-07-03T08:28:04Z</time>
      </trkpt>
      <trkpt lat="47.6851220" lon="2.6316310">
        <ele>149.0</ele>
        <time>2020-07-03T08:28:11Z</time>
      </trkpt>
      <trkpt lat="47.6851090" lon="2.6316270">
        <ele>149.4</ele>
        <time>2020-07-03T08:28:23Z</time>
      </trkpt>
      <trkpt lat="47.6851070" lon="2.6316350">
        <ele>149.4</ele>
        <time>2020-07-03T08:28:52Z</time>
      </trkpt>
      <trkpt lat="47.6851020" lon="2.6316430">
        <ele>149.2</ele>
        <time>2020-07-03T08:29:15Z</time>
      </trkpt>
      <trkpt lat="47.6850920" lon="2.6316440">
        <ele>149.0</ele>
        <time>2020-07-03T08:29:47Z</time>
      </trkpt>
      <trkpt lat="47.6851070" lon="2.6316430">
        <ele>149.0</ele>
        <time>2020-07-03T08:30:21Z</time>
      </trkpt>
      <trkpt lat="47.6851560" lon="2.6316590">
        <ele>148.8</ele>
        <time>2020-07-03T08:30:26Z</time>
      </trkpt>
      <trkpt lat="47.6852110" lon="2.6316600">
        <ele>149.0</ele>
        <time>2020-07-03T08:30:30Z</time>
      </trkpt>
      <trkpt lat="47.6853350" lon="2.6316530">
        <ele>149.4</ele>
        <time>2020-07-03T08:30:37Z</time>
      </trkpt>
      <trkpt lat="47.6853970" lon="2.6317060">
        <ele>149.4</ele>
        <time>2020-07-03T08:30:40Z</time>
      </trkpt>
      <trkpt lat="47.6854520" lon="2.6317720">
        <ele>149.2</ele>
        <time>2020-07-03T08:30:44Z</time>
      </trkpt>
      <trkpt lat="47.6854950" lon="2.6318520">
        <ele>149.4</ele>
        <time>2020-07-03T08:30:50Z</time>
      </trkpt>
      <trkpt lat="47.6854840" lon="2.6318940">
        <ele>149.2</ele>
        <time>2020-07-03T08:31:01Z</time>
      </trkpt>
      <trkpt lat="47.6854860" lon="2.6319150">
        <ele>149.0</ele>
        <time>2020-07-03T08:31:10Z</time>
      </trkpt>
      <trkpt lat="47.6854860" lon="2.6319170">
        <ele>149.0</ele>
        <time>2020-07-03T08:31:16Z</time>
      </trkpt>
      <trkpt lat="47.6854890" lon="2.6319130">
        <ele>149.0</ele>
        <time>2020-07-03T08:31:34Z</time>
      </trkpt>
      <trkpt lat="47.6854860" lon="2.6319060">
        <ele>149.0</ele>
        <time>2020-07-03T08:31:59Z</time>
      </trkpt>
      <trkpt lat="47.6854830" lon="2.6319400">
        <ele>149.4</ele>
        <time>2020-07-03T08:32:14Z</time>
      </trkpt>
      <trkpt lat="47.6854790" lon="2.6319410">
        <ele>149.0</ele>
        <time>2020-07-03T08:32:32Z</time>
      </trkpt>
      <trkpt lat="47.6854720" lon="2.6319420">
        <ele>149.2</ele>
        <time>2020-07-03T08:32:59Z</time>
      </trkpt>
      <trkpt lat="47.6854710" lon="2.6319390">
        <ele>149.2</ele>
        <time>2020-07-03T08:33:19Z</time>
      </trkpt>
      <trkpt lat="47.6854680" lon="2.6319370">
        <ele>149.2</ele>
        <time>2020-07-03T08:33:35Z</time>
      </trkpt>
      <trkpt lat="47.6854710" lon="2.6319440">
        <ele>149.4</ele>
        <time>2020-07-03T08:34:00Z</time>
      </trkpt>
      <trkpt lat="47.6854720" lon="2.6319340">
        <ele>149.4</ele>
        <time>2020-07-03T08:34:19Z</time>
      </trkpt>
      <trkpt lat="47.6854710" lon="2.6319270">
        <ele>149.2</ele>
        <time>2020-07-03T08:34:36Z</time>
      </trkpt>
      <trkpt lat="47.6854720" lon="2.6319250">
        <ele>149.0</ele>
        <time>2020-07-03T08:34:52Z</time>
      </trkpt>
      <trkpt lat="47.6854700" lon="2.6319170">
        <ele>149.2</ele>
        <time>2020-07-03T08:35:22Z</time>
      </trkpt>
      <trkpt lat="47.6854890" lon="2.6318850">
        <ele>149.2</ele>
        <time>2020-07-03T08:35:36Z</time>
      </trkpt>
      <trkpt lat="47.6854930" lon="2.6318810">
        <ele>149.2</ele>
        <time>2020-07-03T08:35:48Z</time>
      </trkpt>
      <trkpt lat="47.6854880" lon="2.6318930">
        <ele>149.4</ele>
        <time>2020-07-03T08:36:08Z</time>
      </trkpt>
      <trkpt lat="47.6854920" lon="2.6318780">
        <ele>149.4</ele>
        <time>2020-07-03T08:36:27Z</time>
      </trkpt>
      <trkpt lat="47.6854910" lon="2.6318850">
        <ele>149.4</ele>
        <time>2020-07-03T08:36:44Z</time>
      </trkpt>
      <trkpt lat="47.6854770" lon="2.6319480">
        <ele>149.4</ele>
        <time>2020-07-03T08:36:56Z</time>
      </trkpt>
      <trkpt lat="47.6854800" lon="2.6319680">
        <ele>149.4</ele>
        <time>2020-07-03T08:37:12Z</time>
      </trkpt>
      <trkpt lat="47.6854820" lon="2.6319700">
        <ele>149.6</ele>
        <time>2020-07-03T08:37:42Z</time>
      </trkpt>
      <trkpt lat="47.6854820" lon="2.6319700">
        <ele>149.8</ele>
        <time>2020-07-03T08:37:46Z</time>
      </trkpt>
      <trkpt lat="47.6854850" lon="2.6319680">
        <ele>149.8</ele>
        <time>2020-07-03T08:38:01Z</time>
      </trkpt>
      <trkpt lat="47.6854840" lon="2.6319730">
        <ele>149.4</ele>
        <time>2020-07-03T08:38:23Z</time>
      </trkpt>
      <trkpt lat="47.6854880" lon="2.6319800">
        <ele>149.4</ele>
        <time>2020-07-03T08:38:47Z</time>
      </trkpt>
      <trkpt lat="47.6854880" lon="2.6319910">
        <ele>149.4</ele>
        <time>2020-07-03T08:39:12Z</time>
      </trkpt>
      <trkpt lat="47.6854940" lon="2.6319900">
        <ele>149.4</ele>
        <time>2020-07-03T08:39:41Z</time>
      </trkpt>
      <trkpt lat="47.6854880" lon="2.6319670">
        <ele>149.6</ele>
        <time>2020-07-03T08:40:04Z</time>
      </trkpt>
      <trkpt lat="47.6854920" lon="2.6318130">
        <ele>149.6</ele>
        <time>2020-07-03T08:40:16Z</time>
      </trkpt>
      <trkpt lat="47.6854250" lon="2.6317080">
        <ele>149.6</ele>
        <time>2020-07-03T08:40:26Z</time>
      </trkpt>
      <trkpt lat="47.6854060" lon="2.6316850">
        <ele>149.8</ele>
        <time>2020-07-03T08:40:28Z</time>
      </trkpt>
      <trkpt lat="47.6853850" lon="2.6316320">
        <ele>149.8</ele>
        <time>2020-07-03T08:40:31Z</time>
      </trkpt>
      <trkpt lat="47.6853920" lon="2.6315520">
        <ele>150.0</ele>
        <time>2020-07-03T08:40:36Z</time>
      </trkpt>
      <trkpt lat="47.6854240" lon="2.6313410">
        <ele>150.0</ele>
        <time>2020-07-03T08:40:44Z</time>
      </trkpt>
      <trkpt lat="47.6854750" lon="2.6311640">
        <ele>150.4</ele>
        <time>2020-07-03T08:40:51Z</time>
      </trkpt>
      <trkpt lat="47.6855530" lon="2.6310130">
        <ele>150.6</ele>
        <time>2020-07-03T08:40:57Z</time>
      </trkpt>
      <trkpt lat="47.6856480" lon="2.6308030">
        <ele>150.6</ele>
        <time>2020-07-03T08:41:06Z</time>
      </trkpt>
      <trkpt lat="47.6857950" lon="2.6305720">
        <ele>150.8</ele>
        <time>2020-07-03T08:41:15Z</time>
      </trkpt>
      <trkpt lat="47.6859320" lon="2.6302760">
        <ele>150.4</ele>
        <time>2020-07-03T08:41:25Z</time>
      </trkpt>
      <trkpt lat="47.6859870" lon="2.6301680">
        <ele>150.0</ele>
        <time>2020-07-03T08:41:30Z</time>
      </trkpt>
      <trkpt lat="47.6859930" lon="2.6301310">
        <ele>150.0</ele>
        <time>2020-07-03T08:41:31Z</time>
      </trkpt>
      <trkpt lat="47.6860120" lon="2.6300280">
        <ele>149.8</ele>
        <time>2020-07-03T08:41:33Z</time>
      </trkpt>
      <trkpt lat="47.6860440" lon="2.6298890">
        <ele>149.8</ele>
        <time>2020-07-03T08:41:35Z</time>
      </trkpt>
      <trkpt lat="47.6861260" lon="2.6296490">
        <ele>149.4</ele>
        <time>2020-07-03T08:41:38Z</time>
      </trkpt>
      <trkpt lat="47.6861630" lon="2.6295690">
        <ele>149.4</ele>
        <time>2020-07-03T08:41:39Z</time>
      </trkpt>
      <trkpt lat="47.6861980" lon="2.6294860">
        <ele>148.8</ele>
        <time>2020-07-03T08:41:40Z</time>
      </trkpt>
      <trkpt lat="47.6862750" lon="2.6293130">
        <ele>148.0</ele>
        <time>2020-07-03T08:41:42Z</time>
      </trkpt>
      <trkpt lat="47.6863060" lon="2.6292170">
        <ele>147.4</ele>
        <time>2020-07-03T08:41:43Z</time>
      </trkpt>
      <trkpt lat="47.6863690" lon="2.6290240">
        <ele>145.8</ele>
        <time>2020-07-03T08:41:45Z</time>
      </trkpt>
      <trkpt lat="47.6864250" lon="2.6288610">
        <ele>144.6</ele>
        <time>2020-07-03T08:41:47Z</time>
      </trkpt>
      <trkpt lat="47.6864980" lon="2.6286750">
        <ele>141.0</ele>
        <time>2020-07-03T08:41:51Z</time>
      </trkpt>
      <trkpt lat="47.6865110" lon="2.6286330">
        <ele>138.8</ele>
        <time>2020-07-03T08:41:56Z</time>
      </trkpt>
      <trkpt lat="47.6865060" lon="2.6286190">
        <ele>138.6</ele>
        <time>2020-07-03T08:41:57Z</time>
      </trkpt>
      <trkpt lat="47.6864570" lon="2.6285350">
        <ele>138.4</ele>
        <time>2020-07-03T08:42:00Z</time>
      </trkpt>
      <trkpt lat="47.6864190" lon="2.6284960">
        <ele>138.4</ele>
        <time>2020-07-03T08:42:01Z</time>
      </trkpt>
      <trkpt lat="47.6863170" lon="2.6284050">
        <ele>138.4</ele>
        <time>2020-07-03T08:42:03Z</time>
      </trkpt>
      <trkpt lat="47.6862680" lon="2.6283580">
        <ele>138.2</ele>
        <time>2020-07-03T08:42:04Z</time>
      </trkpt>
      <trkpt lat="47.6861630" lon="2.6282650">
        <ele>137.8</ele>
        <time>2020-07-03T08:42:06Z</time>
      </trkpt>
      <trkpt lat="47.6860520" lon="2.6281750">
        <ele>137.4</ele>
        <time>2020-07-03T08:42:08Z</time>
      </trkpt>
      <trkpt lat="47.6859880" lon="2.6281460">
        <ele>137.0</ele>
        <time>2020-07-03T08:42:09Z</time>
      </trkpt>
      <trkpt lat="47.6859290" lon="2.6281060">
        <ele>136.4</ele>
        <time>2020-07-03T08:42:10Z</time>
      </trkpt>
      <trkpt lat="47.6858700" lon="2.6280610">
        <ele>135.6</ele>
        <time>2020-07-03T08:42:11Z</time>
      </trkpt>
      <trkpt lat="47.6856240" lon="2.6278870">
        <ele>131.8</ele>
        <time>2020-07-03T08:42:15Z</time>
      </trkpt>
      <trkpt lat="47.6855510" lon="2.6278500">
        <ele>131.0</ele>
        <time>2020-07-03T08:42:16Z</time>
      </trkpt>
      <trkpt lat="47.6852930" lon="2.6276840">
        <ele>128.8</ele>
        <time>2020-07-03T08:42:21Z</time>
      </trkpt>
      <trkpt lat="47.6850940" lon="2.6275220">
        <ele>127.8</ele>
        <time>2020-07-03T08:42:27Z</time>
      </trkpt>
      <trkpt lat="47.6850090" lon="2.6274750">
        <ele>127.6</ele>
        <time>2020-07-03T08:42:32Z</time>
      </trkpt>
      <trkpt lat="47.6850080" lon="2.6274770">
        <ele>127.8</ele>
        <time>2020-07-03T08:42:40Z</time>
      </trkpt>
      <trkpt lat="47.6850080" lon="2.6274750">
        <ele>128.0</ele>
        <time>2020-07-03T08:42:54Z</time>
      </trkpt>
      <trkpt lat="47.6849680" lon="2.6275090">
        <ele>128.0</ele>
        <time>2020-07-03T08:43:02Z</time>
      </trkpt>
      <trkpt lat="47.6849600" lon="2.6275300">
        <ele>128.0</ele>
        <time>2020-07-03T08:43:03Z</time>
      </trkpt>
      <trkpt lat="47.6848960" lon="2.6277360">
        <ele>127.6</ele>
        <time>2020-07-03T08:43:09Z</time>
      </trkpt>
      <trkpt lat="47.6847870" lon="2.6280980">
        <ele>127.4</ele>
        <time>2020-07-03T08:43:16Z</time>
      </trkpt>
      <trkpt lat="47.6846200" lon="2.6286170">
        <ele>127.4</ele>
        <time>2020-07-03T08:43:25Z</time>
      </trkpt>
      <trkpt lat="47.6845560" lon="2.6288120">
        <ele>127.4</ele>
        <time>2020-07-03T08:43:28Z</time>
      </trkpt>
      <trkpt lat="47.6844370" lon="2.6292200">
        <ele>127.4</ele>
        <time>2020-07-03T08:43:34Z</time>
      </trkpt>
      <trkpt lat="47.6842590" lon="2.6299690">
        <ele>127.0</ele>
        <time>2020-07-03T08:43:45Z</time>
      </trkpt>
      <trkpt lat="47.6840870" lon="2.6306260">
        <ele>127.4</ele>
        <time>2020-07-03T08:43:54Z</time>
      </trkpt>
      <trkpt lat="47.6840030" lon="2.6309070">
        <ele>127.4</ele>
        <time>2020-07-03T08:43:58Z</time>
      </trkpt>
      <trkpt lat="47.6839920" lon="2.6309680">
        <ele>127.6</ele>
        <time>2020-07-03T08:43:59Z</time>
      </trkpt>
      <trkpt lat="47.6839830" lon="2.6310290">
        <ele>127.4</ele>
        <time>2020-07-03T08:44:00Z</time>
      </trkpt>
      <trkpt lat="47.6838540" lon="2.6315250">
        <ele>128.0</ele>
        <time>2020-07-03T08:44:08Z</time>
      </trkpt>
      <trkpt lat="47.6837570" lon="2.6317720">
        <ele>128.4</ele>
        <time>2020-07-03T08:44:14Z</time>
      </trkpt>
      <trkpt lat="47.6836560" lon="2.6317460">
        <ele>129.6</ele>
        <time>2020-07-03T08:44:18Z</time>
      </trkpt>
      <trkpt lat="47.6834780" lon="2.6316240">
        <ele>130.6</ele>
        <time>2020-07-03T08:44:24Z</time>
      </trkpt>
      <trkpt lat="47.6833910" lon="2.6315830">
        <ele>131.2</ele>
        <time>2020-07-03T08:44:27Z</time>
      </trkpt>
      <trkpt lat="47.6833050" lon="2.6315300">
        <ele>131.4</ele>
        <time>2020-07-03T08:44:30Z</time>
      </trkpt>
      <trkpt lat="47.6831280" lon="2.6314190">
        <ele>132.4</ele>
        <time>2020-07-03T08:44:36Z</time>
      </trkpt>
      <trkpt lat="47.6828130" lon="2.6312350">
        <ele>134.2</ele>
        <time>2020-07-03T08:44:46Z</time>
      </trkpt>
      <trkpt lat="47.6825560" lon="2.6310740">
        <ele>134.6</ele>
        <time>2020-07-03T08:44:52Z</time>
      </trkpt>
      <trkpt lat="47.6825030" lon="2.6310420">
        <ele>134.6</ele>
        <time>2020-07-03T08:44:53Z</time>
      </trkpt>
      <trkpt lat="47.6821890" lon="2.6308470">
        <ele>134.4</ele>
        <time>2020-07-03T08:44:59Z</time>
      </trkpt>
      <trkpt lat="47.6820770" lon="2.6307780">
        <ele>134.0</ele>
        <time>2020-07-03T08:45:01Z</time>
      </trkpt>
      <trkpt lat="47.6815750" lon="2.6304780">
        <ele>132.6</ele>
        <time>2020-07-03T08:45:10Z</time>
      </trkpt>
      <trkpt lat="47.6815220" lon="2.6304480">
        <ele>132.6</ele>
        <time>2020-07-03T08:45:11Z</time>
      </trkpt>
      <trkpt lat="47.6814240" lon="2.6304010">
        <ele>132.4</ele>
        <time>2020-07-03T08:45:13Z</time>
      </trkpt>
      <trkpt lat="47.6812940" lon="2.6303130">
        <ele>132.0</ele>
        <time>2020-07-03T08:45:16Z</time>
      </trkpt>
      <trkpt lat="47.6812560" lon="2.6302640">
        <ele>132.0</ele>
        <time>2020-07-03T08:45:17Z</time>
      </trkpt>
      <trkpt lat="47.6812280" lon="2.6302040">
        <ele>131.8</ele>
        <time>2020-07-03T08:45:18Z</time>
      </trkpt>
      <trkpt lat="47.6811690" lon="2.6300900">
        <ele>131.8</ele>
        <time>2020-07-03T08:45:20Z</time>
      </trkpt>
      <trkpt lat="47.6811270" lon="2.6300840">
        <ele>131.8</ele>
        <time>2020-07-03T08:45:21Z</time>
      </trkpt>
      <trkpt lat="47.6810540" lon="2.6301450">
        <ele>131.6</ele>
        <time>2020-07-03T08:45:23Z</time>
      </trkpt>
      <trkpt lat="47.6810360" lon="2.6301980">
        <ele>131.2</ele>
        <time>2020-07-03T08:45:24Z</time>
      </trkpt>
      <trkpt lat="47.6810350" lon="2.6302520">
        <ele>130.8</ele>
        <time>2020-07-03T08:45:25Z</time>
      </trkpt>
      <trkpt lat="47.6810570" lon="2.6303530">
        <ele>130.6</ele>
        <time>2020-07-03T08:45:27Z</time>
      </trkpt>
      <trkpt lat="47.6810540" lon="2.6305280">
        <ele>130.2</ele>
        <time>2020-07-03T08:45:30Z</time>
      </trkpt>
      <trkpt lat="47.6810300" lon="2.6305870">
        <ele>130.2</ele>
        <time>2020-07-03T08:45:31Z</time>
      </trkpt>
      <trkpt lat="47.6809940" lon="2.6306480">
        <ele>130.2</ele>
        <time>2020-07-03T08:45:32Z</time>
      </trkpt>
      <trkpt lat="47.6809580" lon="2.6307160">
        <ele>130.0</ele>
        <time>2020-07-03T08:45:33Z</time>
      </trkpt>
      <trkpt lat="47.6808810" lon="2.6308730">
        <ele>129.8</ele>
        <time>2020-07-03T08:45:35Z</time>
      </trkpt>
      <trkpt lat="47.6806640" lon="2.6313890">
        <ele>129.0</ele>
        <time>2020-07-03T08:45:41Z</time>
      </trkpt>
      <trkpt lat="47.6805340" lon="2.6317640">
        <ele>127.4</ele>
        <time>2020-07-03T08:45:46Z</time>
      </trkpt>
      <trkpt lat="47.6803380" lon="2.6322600">
        <ele>127.6</ele>
        <time>2020-07-03T08:45:54Z</time>
      </trkpt>
      <trkpt lat="47.6802200" lon="2.6326290">
        <ele>127.4</ele>
        <time>2020-07-03T08:45:59Z</time>
      </trkpt>
      <trkpt lat="47.6801820" lon="2.6327790">
        <ele>127.6</ele>
        <time>2020-07-03T08:46:01Z</time>
      </trkpt>
      <trkpt lat="47.6800140" lon="2.6333920">
        <ele>127.8</ele>
        <time>2020-07-03T08:46:09Z</time>
      </trkpt>
      <trkpt lat="47.6797940" lon="2.6340940">
        <ele>127.6</ele>
        <time>2020-07-03T08:46:18Z</time>
      </trkpt>
      <trkpt lat="47.6797180" lon="2.6343060">
        <ele>127.8</ele>
        <time>2020-07-03T08:46:21Z</time>
      </trkpt>
      <trkpt lat="47.6796250" lon="2.6346000">
        <ele>127.6</ele>
        <time>2020-07-03T08:46:25Z</time>
      </trkpt>
      <trkpt lat="47.6794170" lon="2.6352280">
        <ele>127.8</ele>
        <time>2020-07-03T08:46:33Z</time>
      </trkpt>
      <trkpt lat="47.6793280" lon="2.6354670">
        <ele>127.8</ele>
        <time>2020-07-03T08:46:36Z</time>
      </trkpt>
      <trkpt lat="47.6792130" lon="2.6357860">
        <ele>127.8</ele>
        <time>2020-07-03T08:46:40Z</time>
      </trkpt>
      <trkpt lat="47.6790160" lon="2.6364680">
        <ele>128.2</ele>
        <time>2020-07-03T08:46:49Z</time>
      </trkpt>
      <trkpt lat="47.6788530" lon="2.6371020">
        <ele>128.6</ele>
        <time>2020-07-03T08:46:57Z</time>
      </trkpt>
      <trkpt lat="47.6787090" lon="2.6376450">
        <ele>128.8</ele>
        <time>2020-07-03T08:47:04Z</time>
      </trkpt>
      <trkpt lat="47.6786210" lon="2.6379210">
        <ele>128.8</ele>
        <time>2020-07-03T08:47:08Z</time>
      </trkpt>
      <trkpt lat="47.6784320" lon="2.6384910">
        <ele>128.6</ele>
        <time>2020-07-03T08:47:17Z</time>
      </trkpt>
      <trkpt lat="47.6783280" lon="2.6388130">
        <ele>128.6</ele>
        <time>2020-07-03T08:47:22Z</time>
      </trkpt>
      <trkpt lat="47.6782580" lon="2.6389930">
        <ele>128.6</ele>
        <time>2020-07-03T08:47:25Z</time>
      </trkpt>
      <trkpt lat="47.6781080" lon="2.6394420">
        <ele>129.0</ele>
        <time>2020-07-03T08:47:33Z</time>
      </trkpt>
      <trkpt lat="47.6780830" lon="2.6394980">
        <ele>129.0</ele>
        <time>2020-07-03T08:47:34Z</time>
      </trkpt>
      <trkpt lat="47.6778880" lon="2.6397980">
        <ele>129.2</ele>
        <time>2020-07-03T08:47:40Z</time>
      </trkpt>
      <trkpt lat="47.6776140" lon="2.6400630">
        <ele>129.4</ele>
        <time>2020-07-03T08:47:46Z</time>
      </trkpt>
      <trkpt lat="47.6772630" lon="2.6403760">
        <ele>129.6</ele>
        <time>2020-07-03T08:47:53Z</time>
      </trkpt>
      <trkpt lat="47.6769230" lon="2.6406950">
        <ele>129.6</ele>
        <time>2020-07-03T08:48:00Z</time>
      </trkpt>
      <trkpt lat="47.6764880" lon="2.6411640">
        <ele>129.8</ele>
        <time>2020-07-03T08:48:09Z</time>
      </trkpt>
      <trkpt lat="47.6761180" lon="2.6415880">
        <ele>130.0</ele>
        <time>2020-07-03T08:48:16Z</time>
      </trkpt>
      <trkpt lat="47.6757230" lon="2.6420750">
        <ele>130.0</ele>
        <time>2020-07-03T08:48:24Z</time>
      </trkpt>
      <trkpt lat="47.6753190" lon="2.6425640">
        <ele>130.2</ele>
        <time>2020-07-03T08:48:33Z</time>
      </trkpt>
      <trkpt lat="47.6748860" lon="2.6430670">
        <ele>130.2</ele>
        <time>2020-07-03T08:48:42Z</time>
      </trkpt>
      <trkpt lat="47.6748370" lon="2.6431190">
        <ele>130.2</ele>
        <time>2020-07-03T08:48:43Z</time>
      </trkpt>
      <trkpt lat="47.6747440" lon="2.6432230">
        <ele>130.4</ele>
        <time>2020-07-03T08:48:45Z</time>
      </trkpt>
      <trkpt lat="47.6744630" lon="2.6435580">
        <ele>130.2</ele>
        <time>2020-07-03T08:48:51Z</time>
      </trkpt>
      <trkpt lat="47.6740730" lon="2.6440000">
        <ele>130.2</ele>
        <time>2020-07-03T08:48:59Z</time>
      </trkpt>
      <trkpt lat="47.6736450" lon="2.6445010">
        <ele>130.2</ele>
        <time>2020-07-03T08:49:08Z</time>
      </trkpt>
      <trkpt lat="47.6732200" lon="2.6449970">
        <ele>130.4</ele>
        <time>2020-07-03T08:49:17Z</time>
      </trkpt>
      <trkpt lat="47.6731260" lon="2.6451030">
        <ele>130.2</ele>
        <time>2020-07-03T08:49:19Z</time>
      </trkpt>
      <trkpt lat="47.6728500" lon="2.6454170">
        <ele>130.2</ele>
        <time>2020-07-03T08:49:25Z</time>
      </trkpt>
      <trkpt lat="47.6725720" lon="2.6457650">
        <ele>130.2</ele>
        <time>2020-07-03T08:49:31Z</time>
      </trkpt>
      <trkpt lat="47.6721600" lon="2.6462920">
        <ele>130.0</ele>
        <time>2020-07-03T08:49:40Z</time>
      </trkpt>
      <trkpt lat="47.6719790" lon="2.6465180">
        <ele>130.0</ele>
        <time>2020-07-03T08:49:44Z</time>
      </trkpt>
      <trkpt lat="47.6715240" lon="2.6470620">
        <ele>130.0</ele>
        <time>2020-07-03T08:49:54Z</time>
      </trkpt>
      <trkpt lat="47.6713910" lon="2.6472440">
        <ele>130.2</ele>
        <time>2020-07-03T08:49:57Z</time>
      </trkpt>
      <trkpt lat="47.6712580" lon="2.6474290">
        <ele>130.0</ele>
        <time>2020-07-03T08:50:00Z</time>
      </trkpt>
      <trkpt lat="47.6709610" lon="2.6478820">
        <ele>130.4</ele>
        <time>2020-07-03T08:50:07Z</time>
      </trkpt>
      <trkpt lat="47.6706030" lon="2.6484790">
        <ele>130.4</ele>
        <time>2020-07-03T08:50:16Z</time>
      </trkpt>
      <trkpt lat="47.6702720" lon="2.6490060">
        <ele>130.4</ele>
        <time>2020-07-03T08:50:24Z</time>
      </trkpt>
      <trkpt lat="47.6699030" lon="2.6496470">
        <ele>130.6</ele>
        <time>2020-07-03T08:50:33Z</time>
      </trkpt>
      <trkpt lat="47.6695650" lon="2.6501680">
        <ele>130.6</ele>
        <time>2020-07-03T08:50:41Z</time>
      </trkpt>
      <trkpt lat="47.6693250" lon="2.6505910">
        <ele>130.6</ele>
        <time>2020-07-03T08:50:47Z</time>
      </trkpt>
      <trkpt lat="47.6690020" lon="2.6511350">
        <ele>130.8</ele>
        <time>2020-07-03T08:50:55Z</time>
      </trkpt>
      <trkpt lat="47.6687010" lon="2.6515740">
        <ele>130.6</ele>
        <time>2020-07-03T08:51:02Z</time>
      </trkpt>
      <trkpt lat="47.6682950" lon="2.6522200">
        <ele>130.4</ele>
        <time>2020-07-03T08:51:12Z</time>
      </trkpt>
      <trkpt lat="47.6679460" lon="2.6528040">
        <ele>130.6</ele>
        <time>2020-07-03T08:51:21Z</time>
      </trkpt>
      <trkpt lat="47.6676640" lon="2.6533390">
        <ele>130.6</ele>
        <time>2020-07-03T08:51:29Z</time>
      </trkpt>
      <trkpt lat="47.6673380" lon="2.6539150">
        <ele>130.8</ele>
        <time>2020-07-03T08:51:38Z</time>
      </trkpt>
      <trkpt lat="47.6671710" lon="2.6543310">
        <ele>130.8</ele>
        <time>2020-07-03T08:51:43Z</time>
      </trkpt>
      <trkpt lat="47.6671280" lon="2.6545050">
        <ele>130.8</ele>
        <time>2020-07-03T08:51:45Z</time>
      </trkpt>
      <trkpt lat="47.6670500" lon="2.6548550">
        <ele>130.8</ele>
        <time>2020-07-03T08:51:49Z</time>
      </trkpt>
      <trkpt lat="47.6669920" lon="2.6551330">
        <ele>130.6</ele>
        <time>2020-07-03T08:51:52Z</time>
      </trkpt>
      <trkpt lat="47.6669240" lon="2.6556470">
        <ele>129.2</ele>
        <time>2020-07-03T08:51:57Z</time>
      </trkpt>
      <trkpt lat="47.6668920" lon="2.6558670">
        <ele>129.0</ele>
        <time>2020-07-03T08:51:59Z</time>
      </trkpt>
      <trkpt lat="47.6667360" lon="2.6566800">
        <ele>127.8</ele>
        <time>2020-07-03T08:52:07Z</time>
      </trkpt>
      <trkpt lat="47.6667150" lon="2.6567770">
        <ele>127.6</ele>
        <time>2020-07-03T08:52:08Z</time>
      </trkpt>
      <trkpt lat="47.6665550" lon="2.6575560">
        <ele>127.4</ele>
        <time>2020-07-03T08:52:16Z</time>
      </trkpt>
      <trkpt lat="47.6665370" lon="2.6576490">
        <ele>127.4</ele>
        <time>2020-07-03T08:52:17Z</time>
      </trkpt>
      <trkpt lat="47.6663790" lon="2.6584660">
        <ele>127.8</ele>
        <time>2020-07-03T08:52:26Z</time>
      </trkpt>
      <trkpt lat="47.6663080" lon="2.6588210">
        <ele>127.8</ele>
        <time>2020-07-03T08:52:30Z</time>
      </trkpt>
      <trkpt lat="47.6661470" lon="2.6596250">
        <ele>128.2</ele>
        <time>2020-07-03T08:52:39Z</time>
      </trkpt>
      <trkpt lat="47.6660260" lon="2.6601760">
        <ele>128.2</ele>
        <time>2020-07-03T08:52:45Z</time>
      </trkpt>
      <trkpt lat="47.6658320" lon="2.6609700">
        <ele>128.0</ele>
        <time>2020-07-03T08:52:54Z</time>
      </trkpt>
      <trkpt lat="47.6658090" lon="2.6610540">
        <ele>127.8</ele>
        <time>2020-07-03T08:52:55Z</time>
      </trkpt>
      <trkpt lat="47.6655840" lon="2.6617880">
        <ele>127.8</ele>
        <time>2020-07-03T08:53:04Z</time>
      </trkpt>
      <trkpt lat="47.6655070" lon="2.6620240">
        <ele>127.8</ele>
        <time>2020-07-03T08:53:07Z</time>
      </trkpt>
      <trkpt lat="47.6652960" lon="2.6627790">
        <ele>127.6</ele>
        <time>2020-07-03T08:53:16Z</time>
      </trkpt>
      <trkpt lat="47.6652480" lon="2.6629510">
        <ele>127.6</ele>
        <time>2020-07-03T08:53:18Z</time>
      </trkpt>
      <trkpt lat="47.6650350" lon="2.6637020">
        <ele>127.6</ele>
        <time>2020-07-03T08:53:27Z</time>
      </trkpt>
      <trkpt lat="47.6649660" lon="2.6639480">
        <ele>127.6</ele>
        <time>2020-07-03T08:53:30Z</time>
      </trkpt>
      <trkpt lat="47.6647300" lon="2.6647430">
        <ele>128.4</ele>
        <time>2020-07-03T08:53:40Z</time>
      </trkpt>
      <trkpt lat="47.6647060" lon="2.6648250">
        <ele>128.4</ele>
        <time>2020-07-03T08:53:41Z</time>
      </trkpt>
      <trkpt lat="47.6645020" lon="2.6655800">
        <ele>128.4</ele>
        <time>2020-07-03T08:53:50Z</time>
      </trkpt>
      <trkpt lat="47.6644560" lon="2.6657430">
        <ele>128.6</ele>
        <time>2020-07-03T08:53:52Z</time>
      </trkpt>
      <trkpt lat="47.6642480" lon="2.6664910">
        <ele>128.6</ele>
        <time>2020-07-03T08:54:01Z</time>
      </trkpt>
      <trkpt lat="47.6642010" lon="2.6666600">
        <ele>128.6</ele>
        <time>2020-07-03T08:54:03Z</time>
      </trkpt>
      <trkpt lat="47.6641750" lon="2.6667410">
        <ele>128.6</ele>
        <time>2020-07-03T08:54:04Z</time>
      </trkpt>
      <trkpt lat="47.6640230" lon="2.6672210">
        <ele>128.6</ele>
        <time>2020-07-03T08:54:10Z</time>
      </trkpt>
      <trkpt lat="47.6638930" lon="2.6677370">
        <ele>128.2</ele>
        <time>2020-07-03T08:54:16Z</time>
      </trkpt>
      <trkpt lat="47.6636480" lon="2.6685200">
        <ele>128.2</ele>
        <time>2020-07-03T08:54:25Z</time>
      </trkpt>
      <trkpt lat="47.6636160" lon="2.6686030">
        <ele>128.4</ele>
        <time>2020-07-03T08:54:26Z</time>
      </trkpt>
      <trkpt lat="47.6633470" lon="2.6692380">
        <ele>128.4</ele>
        <time>2020-07-03T08:54:34Z</time>
      </trkpt>
      <trkpt lat="47.6630370" lon="2.6699350">
        <ele>128.4</ele>
        <time>2020-07-03T08:54:43Z</time>
      </trkpt>
      <trkpt lat="47.6627270" lon="2.6706270">
        <ele>128.6</ele>
        <time>2020-07-03T08:54:52Z</time>
      </trkpt>
      <trkpt lat="47.6624370" lon="2.6713040">
        <ele>128.6</ele>
        <time>2020-07-03T08:55:01Z</time>
      </trkpt>
      <trkpt lat="47.6623120" lon="2.6716000">
        <ele>128.6</ele>
        <time>2020-07-03T08:55:05Z</time>
      </trkpt>
      <trkpt lat="47.6621400" lon="2.6719920">
        <ele>128.8</ele>
        <time>2020-07-03T08:55:10Z</time>
      </trkpt>
      <trkpt lat="47.6618740" lon="2.6726530">
        <ele>129.0</ele>
        <time>2020-07-03T08:55:18Z</time>
      </trkpt>
      <trkpt lat="47.6615870" lon="2.6733760">
        <ele>128.8</ele>
        <time>2020-07-03T08:55:27Z</time>
      </trkpt>
      <trkpt lat="47.6613720" lon="2.6738310">
        <ele>128.8</ele>
        <time>2020-07-03T08:55:33Z</time>
      </trkpt>
      <trkpt lat="47.6611620" lon="2.6742840">
        <ele>128.8</ele>
        <time>2020-07-03T08:55:39Z</time>
      </trkpt>
      <trkpt lat="47.6609290" lon="2.6748190">
        <ele>129.0</ele>
        <time>2020-07-03T08:55:46Z</time>
      </trkpt>
      <trkpt lat="47.6607130" lon="2.6753880">
        <ele>129.0</ele>
        <time>2020-07-03T08:55:53Z</time>
      </trkpt>
      <trkpt lat="47.6606580" lon="2.6755420">
        <ele>128.8</ele>
        <time>2020-07-03T08:55:55Z</time>
      </trkpt>
      <trkpt lat="47.6605430" lon="2.6758570">
        <ele>129.0</ele>
        <time>2020-07-03T08:55:59Z</time>
      </trkpt>
      <trkpt lat="47.6602720" lon="2.6765720">
        <ele>129.0</ele>
        <time>2020-07-03T08:56:08Z</time>
      </trkpt>
      <trkpt lat="47.6602430" lon="2.6766510">
        <ele>129.0</ele>
        <time>2020-07-03T08:56:09Z</time>
      </trkpt>
      <trkpt lat="47.6599700" lon="2.6772590">
        <ele>129.2</ele>
        <time>2020-07-03T08:56:17Z</time>
      </trkpt>
      <trkpt lat="47.6596810" lon="2.6778770">
        <ele>129.2</ele>
        <time>2020-07-03T08:56:25Z</time>
      </trkpt>
      <trkpt lat="47.6593860" lon="2.6785940">
        <ele>129.2</ele>
        <time>2020-07-03T08:56:34Z</time>
      </trkpt>
      <trkpt lat="47.6591310" lon="2.6792170">
        <ele>129.2</ele>
        <time>2020-07-03T08:56:42Z</time>
      </trkpt>
      <trkpt lat="47.6588410" lon="2.6799360">
        <ele>129.2</ele>
        <time>2020-07-03T08:56:51Z</time>
      </trkpt>
      <trkpt lat="47.6586100" lon="2.6804110">
        <ele>129.2</ele>
        <time>2020-07-03T08:56:57Z</time>
      </trkpt>
      <trkpt lat="47.6584830" lon="2.6807370">
        <ele>129.2</ele>
        <time>2020-07-03T08:57:01Z</time>
      </trkpt>
      <trkpt lat="47.6584270" lon="2.6809140">
        <ele>129.2</ele>
        <time>2020-07-03T08:57:03Z</time>
      </trkpt>
      <trkpt lat="47.6581700" lon="2.6816630">
        <ele>129.0</ele>
        <time>2020-07-03T08:57:12Z</time>
      </trkpt>
      <trkpt lat="47.6581110" lon="2.6818270">
        <ele>129.0</ele>
        <time>2020-07-03T08:57:14Z</time>
      </trkpt>
      <trkpt lat="47.6579850" lon="2.6821510">
        <ele>128.8</ele>
        <time>2020-07-03T08:57:18Z</time>
      </trkpt>
      <trkpt lat="47.6578170" lon="2.6825230">
        <ele>128.6</ele>
        <time>2020-07-03T08:57:23Z</time>
      </trkpt>
      <trkpt lat="47.6575620" lon="2.6831280">
        <ele>128.0</ele>
        <time>2020-07-03T08:57:31Z</time>
      </trkpt>
      <trkpt lat="47.6572760" lon="2.6838120">
        <ele>128.0</ele>
        <time>2020-07-03T08:57:40Z</time>
      </trkpt>
      <trkpt lat="47.6572410" lon="2.6838860">
        <ele>127.8</ele>
        <time>2020-07-03T08:57:41Z</time>
      </trkpt>
      <trkpt lat="47.6569500" lon="2.6845440">
        <ele>128.0</ele>
        <time>2020-07-03T08:57:50Z</time>
      </trkpt>
      <trkpt lat="47.6569150" lon="2.6846130">
        <ele>128.2</ele>
        <time>2020-07-03T08:57:51Z</time>
      </trkpt>
      <trkpt lat="47.6568250" lon="2.6848250">
        <ele>128.2</ele>
        <time>2020-07-03T08:57:54Z</time>
      </trkpt>
      <trkpt lat="47.6567420" lon="2.6850530">
        <ele>128.2</ele>
        <time>2020-07-03T08:57:57Z</time>
      </trkpt>
      <trkpt lat="47.6565600" lon="2.6855040">
        <ele>129.2</ele>
        <time>2020-07-03T08:58:03Z</time>
      </trkpt>
      <trkpt lat="47.6565290" lon="2.6855800">
        <ele>129.2</ele>
        <time>2020-07-03T08:58:04Z</time>
      </trkpt>
      <trkpt lat="47.6564800" lon="2.6856490">
        <ele>129.2</ele>
        <time>2020-07-03T08:58:05Z</time>
      </trkpt>
      <trkpt lat="47.6562450" lon="2.6860550">
        <ele>129.2</ele>
        <time>2020-07-03T08:58:11Z</time>
      </trkpt>
      <trkpt lat="47.6560630" lon="2.6865070">
        <ele>129.4</ele>
        <time>2020-07-03T08:58:17Z</time>
      </trkpt>
      <trkpt lat="47.6558250" lon="2.6871580">
        <ele>129.4</ele>
        <time>2020-07-03T08:58:25Z</time>
      </trkpt>
      <trkpt lat="47.6555470" lon="2.6878620">
        <ele>129.6</ele>
        <time>2020-07-03T08:58:34Z</time>
      </trkpt>
      <trkpt lat="47.6552920" lon="2.6884860">
        <ele>129.8</ele>
        <time>2020-07-03T08:58:42Z</time>
      </trkpt>
      <trkpt lat="47.6552560" lon="2.6885660">
        <ele>129.6</ele>
        <time>2020-07-03T08:58:43Z</time>
      </trkpt>
      <trkpt lat="47.6550100" lon="2.6892140">
        <ele>129.6</ele>
        <time>2020-07-03T08:58:51Z</time>
      </trkpt>
      <trkpt lat="47.6547790" lon="2.6898680">
        <ele>129.4</ele>
        <time>2020-07-03T08:58:59Z</time>
      </trkpt>
      <trkpt lat="47.6544920" lon="2.6905750">
        <ele>129.4</ele>
        <time>2020-07-03T08:59:08Z</time>
      </trkpt>
      <trkpt lat="47.6543310" lon="2.6909400">
        <ele>129.6</ele>
        <time>2020-07-03T08:59:13Z</time>
      </trkpt>
      <trkpt lat="47.6543040" lon="2.6910190">
        <ele>129.6</ele>
        <time>2020-07-03T08:59:14Z</time>
      </trkpt>
      <trkpt lat="47.6542760" lon="2.6910960">
        <ele>129.6</ele>
        <time>2020-07-03T08:59:15Z</time>
      </trkpt>
      <trkpt lat="47.6540270" lon="2.6917120">
        <ele>129.8</ele>
        <time>2020-07-03T08:59:23Z</time>
      </trkpt>
      <trkpt lat="47.6538080" lon="2.6921580">
        <ele>130.0</ele>
        <time>2020-07-03T08:59:29Z</time>
      </trkpt>
      <trkpt lat="47.6534990" lon="2.6926890">
        <ele>130.0</ele>
        <time>2020-07-03T08:59:37Z</time>
      </trkpt>
      <trkpt lat="47.6532510" lon="2.6929470">
        <ele>130.2</ele>
        <time>2020-07-03T08:59:42Z</time>
      </trkpt>
      <trkpt lat="47.6531980" lon="2.6929960">
        <ele>130.2</ele>
        <time>2020-07-03T08:59:43Z</time>
      </trkpt>
      <trkpt lat="47.6529570" lon="2.6933190">
        <ele>130.2</ele>
        <time>2020-07-03T08:59:49Z</time>
      </trkpt>
      <trkpt lat="47.6527210" lon="2.6936340">
        <ele>130.4</ele>
        <time>2020-07-03T08:59:54Z</time>
      </trkpt>
      <trkpt lat="47.6523290" lon="2.6942890">
        <ele>130.4</ele>
        <time>2020-07-03T09:00:03Z</time>
      </trkpt>
      <trkpt lat="47.6520350" lon="2.6946950">
        <ele>130.4</ele>
        <time>2020-07-03T09:00:09Z</time>
      </trkpt>
      <trkpt lat="47.6518080" lon="2.6951460">
        <ele>130.2</ele>
        <time>2020-07-03T09:00:15Z</time>
      </trkpt>
      <trkpt lat="47.6514970" lon="2.6957230">
        <ele>130.6</ele>
        <time>2020-07-03T09:00:23Z</time>
      </trkpt>
      <trkpt lat="47.6511670" lon="2.6962920">
        <ele>130.4</ele>
        <time>2020-07-03T09:00:31Z</time>
      </trkpt>
      <trkpt lat="47.6508960" lon="2.6966890">
        <ele>130.4</ele>
        <time>2020-07-03T09:00:37Z</time>
      </trkpt>
      <trkpt lat="47.6507500" lon="2.6968750">
        <ele>130.4</ele>
        <time>2020-07-03T09:00:40Z</time>
      </trkpt>
      <trkpt lat="47.6506580" lon="2.6970030">
        <ele>130.4</ele>
        <time>2020-07-03T09:00:42Z</time>
      </trkpt>
      <trkpt lat="47.6505270" lon="2.6971990">
        <ele>130.6</ele>
        <time>2020-07-03T09:00:45Z</time>
      </trkpt>
      <trkpt lat="47.6503840" lon="2.6973640">
        <ele>130.6</ele>
        <time>2020-07-03T09:00:48Z</time>
      </trkpt>
      <trkpt lat="47.6501770" lon="2.6976610">
        <ele>130.4</ele>
        <time>2020-07-03T09:00:53Z</time>
      </trkpt>
      <trkpt lat="47.6499180" lon="2.6980810">
        <ele>130.4</ele>
        <time>2020-07-03T09:00:59Z</time>
      </trkpt>
      <trkpt lat="47.6498800" lon="2.6981530">
        <ele>130.6</ele>
        <time>2020-07-03T09:01:00Z</time>
      </trkpt>
      <trkpt lat="47.6497990" lon="2.6982970">
        <ele>130.4</ele>
        <time>2020-07-03T09:01:02Z</time>
      </trkpt>
      <trkpt lat="47.6494580" lon="2.6988710">
        <ele>130.4</ele>
        <time>2020-07-03T09:01:10Z</time>
      </trkpt>
      <trkpt lat="47.6491530" lon="2.6993420">
        <ele>130.2</ele>
        <time>2020-07-03T09:01:17Z</time>
      </trkpt>
      <trkpt lat="47.6490350" lon="2.6995540">
        <ele>130.2</ele>
        <time>2020-07-03T09:01:20Z</time>
      </trkpt>
      <trkpt lat="47.6488270" lon="2.6999060">
        <ele>130.4</ele>
        <time>2020-07-03T09:01:25Z</time>
      </trkpt>
      <trkpt lat="47.6485270" lon="2.7003960">
        <ele>130.6</ele>
        <time>2020-07-03T09:01:32Z</time>
      </trkpt>
      <trkpt lat="47.6483080" lon="2.7007200">
        <ele>130.6</ele>
        <time>2020-07-03T09:01:37Z</time>
      </trkpt>
      <trkpt lat="47.6482250" lon="2.7008460">
        <ele>130.6</ele>
        <time>2020-07-03T09:01:39Z</time>
      </trkpt>
      <trkpt lat="47.6479090" lon="2.7014170">
        <ele>130.0</ele>
        <time>2020-07-03T09:01:47Z</time>
      </trkpt>
      <trkpt lat="47.6478160" lon="2.7015390">
        <ele>130.0</ele>
        <time>2020-07-03T09:01:49Z</time>
      </trkpt>
      <trkpt lat="47.6477330" lon="2.7016610">
        <ele>130.0</ele>
        <time>2020-07-03T09:01:51Z</time>
      </trkpt>
      <trkpt lat="47.6476220" lon="2.7018550">
        <ele>130.2</ele>
        <time>2020-07-03T09:01:54Z</time>
      </trkpt>
      <trkpt lat="47.6472580" lon="2.7024470">
        <ele>130.2</ele>
        <time>2020-07-03T09:02:03Z</time>
      </trkpt>
      <trkpt lat="47.6471240" lon="2.7026420">
        <ele>130.2</ele>
        <time>2020-07-03T09:02:06Z</time>
      </trkpt>
      <trkpt lat="47.6467980" lon="2.7031340">
        <ele>130.0</ele>
        <time>2020-07-03T09:02:13Z</time>
      </trkpt>
      <trkpt lat="47.6467500" lon="2.7032010">
        <ele>130.0</ele>
        <time>2020-07-03T09:02:14Z</time>
      </trkpt>
      <trkpt lat="47.6466170" lon="2.7033950">
        <ele>130.0</ele>
        <time>2020-07-03T09:02:17Z</time>
      </trkpt>
      <trkpt lat="47.6465390" lon="2.7035250">
        <ele>130.0</ele>
        <time>2020-07-03T09:02:19Z</time>
      </trkpt>
      <trkpt lat="47.6462580" lon="2.7039870">
        <ele>130.4</ele>
        <time>2020-07-03T09:02:26Z</time>
      </trkpt>
      <trkpt lat="47.6459360" lon="2.7044310">
        <ele>130.4</ele>
        <time>2020-07-03T09:02:33Z</time>
      </trkpt>
      <trkpt lat="47.6456040" lon="2.7049420">
        <ele>130.4</ele>
        <time>2020-07-03T09:02:41Z</time>
      </trkpt>
      <trkpt lat="47.6452870" lon="2.7054610">
        <ele>130.6</ele>
        <time>2020-07-03T09:02:49Z</time>
      </trkpt>
      <trkpt lat="47.6451570" lon="2.7056500">
        <ele>130.6</ele>
        <time>2020-07-03T09:02:52Z</time>
      </trkpt>
      <trkpt lat="47.6449420" lon="2.7059600">
        <ele>130.6</ele>
        <time>2020-07-03T09:02:57Z</time>
      </trkpt>
      <trkpt lat="47.6448970" lon="2.7060140">
        <ele>130.6</ele>
        <time>2020-07-03T09:02:58Z</time>
      </trkpt>
      <trkpt lat="47.6446630" lon="2.7063130">
        <ele>131.0</ele>
        <time>2020-07-03T09:03:03Z</time>
      </trkpt>
      <trkpt lat="47.6442990" lon="2.7069330">
        <ele>131.2</ele>
        <time>2020-07-03T09:03:12Z</time>
      </trkpt>
      <trkpt lat="47.6442620" lon="2.7070030">
        <ele>131.2</ele>
        <time>2020-07-03T09:03:13Z</time>
      </trkpt>
      <trkpt lat="47.6438620" lon="2.7076510">
        <ele>131.2</ele>
        <time>2020-07-03T09:03:23Z</time>
      </trkpt>
      <trkpt lat="47.6436290" lon="2.7080370">
        <ele>131.2</ele>
        <time>2020-07-03T09:03:29Z</time>
      </trkpt>
      <trkpt lat="47.6432650" lon="2.7086380">
        <ele>131.0</ele>
        <time>2020-07-03T09:03:38Z</time>
      </trkpt>
      <trkpt lat="47.6430580" lon="2.7089580">
        <ele>131.2</ele>
        <time>2020-07-03T09:03:43Z</time>
      </trkpt>
      <trkpt lat="47.6426650" lon="2.7095660">
        <ele>131.2</ele>
        <time>2020-07-03T09:03:52Z</time>
      </trkpt>
      <trkpt lat="47.6425250" lon="2.7097620">
        <ele>131.2</ele>
        <time>2020-07-03T09:03:55Z</time>
      </trkpt>
      <trkpt lat="47.6421470" lon="2.7102760">
        <ele>131.2</ele>
        <time>2020-07-03T09:04:03Z</time>
      </trkpt>
      <trkpt lat="47.6417530" lon="2.7108720">
        <ele>131.0</ele>
        <time>2020-07-03T09:04:12Z</time>
      </trkpt>
      <trkpt lat="47.6416710" lon="2.7110140">
        <ele>131.2</ele>
        <time>2020-07-03T09:04:14Z</time>
      </trkpt>
      <trkpt lat="47.6413460" lon="2.7114840">
        <ele>131.2</ele>
        <time>2020-07-03T09:04:21Z</time>
      </trkpt>
      <trkpt lat="47.6412080" lon="2.7116800">
        <ele>131.2</ele>
        <time>2020-07-03T09:04:24Z</time>
      </trkpt>
      <trkpt lat="47.6410260" lon="2.7119460">
        <ele>131.2</ele>
        <time>2020-07-03T09:04:28Z</time>
      </trkpt>
      <trkpt lat="47.6406360" lon="2.7125890">
        <ele>131.0</ele>
        <time>2020-07-03T09:04:37Z</time>
      </trkpt>
      <trkpt lat="47.6405130" lon="2.7128100">
        <ele>131.0</ele>
        <time>2020-07-03T09:04:40Z</time>
      </trkpt>
      <trkpt lat="47.6402210" lon="2.7133150">
        <ele>130.8</ele>
        <time>2020-07-03T09:04:47Z</time>
      </trkpt>
      <trkpt lat="47.6399510" lon="2.7137170">
        <ele>130.6</ele>
        <time>2020-07-03T09:04:53Z</time>
      </trkpt>
      <trkpt lat="47.6395770" lon="2.7142110">
        <ele>130.0</ele>
        <time>2020-07-03T09:05:01Z</time>
      </trkpt>
      <trkpt lat="47.6391280" lon="2.7147480">
        <ele>130.2</ele>
        <time>2020-07-03T09:05:10Z</time>
      </trkpt>
      <trkpt lat="47.6390750" lon="2.7148000">
        <ele>130.2</ele>
        <time>2020-07-03T09:05:11Z</time>
      </trkpt>
      <trkpt lat="47.6386010" lon="2.7153270">
        <ele>130.8</ele>
        <time>2020-07-03T09:05:20Z</time>
      </trkpt>
      <trkpt lat="47.6385530" lon="2.7153950">
        <ele>131.0</ele>
        <time>2020-07-03T09:05:21Z</time>
      </trkpt>
      <trkpt lat="47.6384050" lon="2.7155830">
        <ele>131.0</ele>
        <time>2020-07-03T09:05:24Z</time>
      </trkpt>
      <trkpt lat="47.6381080" lon="2.7159590">
        <ele>131.0</ele>
        <time>2020-07-03T09:05:30Z</time>
      </trkpt>
      <trkpt lat="47.6376640" lon="2.7165200">
        <ele>131.2</ele>
        <time>2020-07-03T09:05:39Z</time>
      </trkpt>
      <trkpt lat="47.6376130" lon="2.7165790">
        <ele>131.2</ele>
        <time>2020-07-03T09:05:40Z</time>
      </trkpt>
      <trkpt lat="47.6371950" lon="2.7171320">
        <ele>131.4</ele>
        <time>2020-07-03T09:05:49Z</time>
      </trkpt>
      <trkpt lat="47.6370620" lon="2.7173100">
        <ele>131.2</ele>
        <time>2020-07-03T09:05:52Z</time>
      </trkpt>
      <trkpt lat="47.6367730" lon="2.7176650">
        <ele>131.4</ele>
        <time>2020-07-03T09:05:58Z</time>
      </trkpt>
      <trkpt lat="47.6366700" lon="2.7177750">
        <ele>131.4</ele>
        <time>2020-07-03T09:06:00Z</time>
      </trkpt>
      <trkpt lat="47.6365130" lon="2.7179350">
        <ele>131.6</ele>
        <time>2020-07-03T09:06:03Z</time>
      </trkpt>
      <trkpt lat="47.6364550" lon="2.7179840">
        <ele>131.6</ele>
        <time>2020-07-03T09:06:04Z</time>
      </trkpt>
      <trkpt lat="47.6361880" lon="2.7182160">
        <ele>131.4</ele>
        <time>2020-07-03T09:06:09Z</time>
      </trkpt>
      <trkpt lat="47.6358030" lon="2.7186200">
        <ele>131.4</ele>
        <time>2020-07-03T09:06:17Z</time>
      </trkpt>
      <trkpt lat="47.6355300" lon="2.7190020">
        <ele>131.6</ele>
        <time>2020-07-03T09:06:23Z</time>
      </trkpt>
      <trkpt lat="47.6354830" lon="2.7190630">
        <ele>131.6</ele>
        <time>2020-07-03T09:06:24Z</time>
      </trkpt>
      <trkpt lat="47.6350600" lon="2.7195780">
        <ele>131.6</ele>
        <time>2020-07-03T09:06:33Z</time>
      </trkpt>
      <trkpt lat="47.6346520" lon="2.7201100">
        <ele>131.8</ele>
        <time>2020-07-03T09:06:42Z</time>
      </trkpt>
      <trkpt lat="47.6343840" lon="2.7204410">
        <ele>131.8</ele>
        <time>2020-07-03T09:06:48Z</time>
      </trkpt>
      <trkpt lat="47.6342880" lon="2.7205490">
        <ele>131.8</ele>
        <time>2020-07-03T09:06:50Z</time>
      </trkpt>
      <trkpt lat="47.6339530" lon="2.7209990">
        <ele>131.6</ele>
        <time>2020-07-03T09:06:57Z</time>
      </trkpt>
      <trkpt lat="47.6335680" lon="2.7215180">
        <ele>131.4</ele>
        <time>2020-07-03T09:07:05Z</time>
      </trkpt>
      <trkpt lat="47.6331380" lon="2.7221270">
        <ele>131.2</ele>
        <time>2020-07-03T09:07:13Z</time>
      </trkpt>
      <trkpt lat="47.6327180" lon="2.7226680">
        <ele>131.0</ele>
        <time>2020-07-03T09:07:23Z</time>
      </trkpt>
      <trkpt lat="47.6326260" lon="2.7227810">
        <ele>131.0</ele>
        <time>2020-07-03T09:07:25Z</time>
      </trkpt>
      <trkpt lat="47.6322270" lon="2.7233510">
        <ele>131.6</ele>
        <time>2020-07-03T09:07:34Z</time>
      </trkpt>
      <trkpt lat="47.6321840" lon="2.7234220">
        <ele>131.6</ele>
        <time>2020-07-03T09:07:35Z</time>
      </trkpt>
      <trkpt lat="47.6320560" lon="2.7236550">
        <ele>131.4</ele>
        <time>2020-07-03T09:07:38Z</time>
      </trkpt>
      <trkpt lat="47.6318250" lon="2.7240400">
        <ele>131.4</ele>
        <time>2020-07-03T09:07:43Z</time>
      </trkpt>
      <trkpt lat="47.6315490" lon="2.7245580">
        <ele>130.6</ele>
        <time>2020-07-03T09:07:50Z</time>
      </trkpt>
      <trkpt lat="47.6314700" lon="2.7246980">
        <ele>130.8</ele>
        <time>2020-07-03T09:07:52Z</time>
      </trkpt>
      <trkpt lat="47.6311930" lon="2.7251950">
        <ele>130.8</ele>
        <time>2020-07-03T09:07:59Z</time>
      </trkpt>
      <trkpt lat="47.6308400" lon="2.7257770">
        <ele>131.4</ele>
        <time>2020-07-03T09:08:07Z</time>
      </trkpt>
      <trkpt lat="47.6305660" lon="2.7262810">
        <ele>131.2</ele>
        <time>2020-07-03T09:08:14Z</time>
      </trkpt>
      <trkpt lat="47.6303250" lon="2.7267260">
        <ele>131.4</ele>
        <time>2020-07-03T09:08:20Z</time>
      </trkpt>
      <trkpt lat="47.6302880" lon="2.7268050">
        <ele>131.2</ele>
        <time>2020-07-03T09:08:21Z</time>
      </trkpt>
      <trkpt lat="47.6300320" lon="2.7272390">
        <ele>131.2</ele>
        <time>2020-07-03T09:08:27Z</time>
      </trkpt>
      <trkpt lat="47.6299450" lon="2.7273800">
        <ele>131.6</ele>
        <time>2020-07-03T09:08:29Z</time>
      </trkpt>
      <trkpt lat="47.6297820" lon="2.7276590">
        <ele>131.6</ele>
        <time>2020-07-03T09:08:33Z</time>
      </trkpt>
      <trkpt lat="47.6294950" lon="2.7280790">
        <ele>131.4</ele>
        <time>2020-07-03T09:08:40Z</time>
      </trkpt>
      <trkpt lat="47.6292910" lon="2.7283830">
        <ele>131.6</ele>
        <time>2020-07-03T09:08:46Z</time>
      </trkpt>
      <trkpt lat="47.6292100" lon="2.7284680">
        <ele>131.8</ele>
        <time>2020-07-03T09:08:50Z</time>
      </trkpt>
      <trkpt lat="47.6291940" lon="2.7284360">
        <ele>132.0</ele>
        <time>2020-07-03T09:08:52Z</time>
      </trkpt>
      <trkpt lat="47.6291990" lon="2.7283860">
        <ele>131.8</ele>
        <time>2020-07-03T09:08:54Z</time>
      </trkpt>
      <trkpt lat="47.6292180" lon="2.7281480">
        <ele>132.4</ele>
        <time>2020-07-03T09:09:02Z</time>
      </trkpt>
      <trkpt lat="47.6291580" lon="2.7279450">
        <ele>132.8</ele>
        <time>2020-07-03T09:09:07Z</time>
      </trkpt>
      <trkpt lat="47.6290170" lon="2.7277150">
        <ele>132.8</ele>
        <time>2020-07-03T09:09:13Z</time>
      </trkpt>
      <trkpt lat="47.6288070" lon="2.7274940">
        <ele>132.6</ele>
        <time>2020-07-03T09:09:20Z</time>
      </trkpt>
      <trkpt lat="47.6285990" lon="2.7273160">
        <ele>132.4</ele>
        <time>2020-07-03T09:09:27Z</time>
      </trkpt>
      <trkpt lat="47.6285040" lon="2.7272280">
        <ele>132.4</ele>
        <time>2020-07-03T09:09:30Z</time>
      </trkpt>
      <trkpt lat="47.6284710" lon="2.7271960">
        <ele>132.4</ele>
        <time>2020-07-03T09:09:31Z</time>
      </trkpt>
      <trkpt lat="47.6284370" lon="2.7271720">
        <ele>132.4</ele>
        <time>2020-07-03T09:09:32Z</time>
      </trkpt>
      <trkpt lat="47.6282310" lon="2.7270570">
        <ele>131.8</ele>
        <time>2020-07-03T09:09:39Z</time>
      </trkpt>
      <trkpt lat="47.6281070" lon="2.7270030">
        <ele>131.8</ele>
        <time>2020-07-03T09:09:45Z</time>
      </trkpt>
      <trkpt lat="47.6281350" lon="2.7270120">
        <ele>131.6</ele>
        <time>2020-07-03T09:09:49Z</time>
      </trkpt>
      <trkpt lat="47.6281580" lon="2.7270110">
        <ele>131.6</ele>
        <time>2020-07-03T09:09:59Z</time>
      </trkpt>
      <trkpt lat="47.6282250" lon="2.7270290">
        <ele>131.8</ele>
        <time>2020-07-03T09:10:11Z</time>
      </trkpt>
      <trkpt lat="47.6283370" lon="2.7270940">
        <ele>131.8</ele>
        <time>2020-07-03T09:10:24Z</time>
      </trkpt>
      <trkpt lat="47.6283490" lon="2.7271010">
        <ele>132.0</ele>
        <time>2020-07-03T09:10:25Z</time>
      </trkpt>
      <trkpt lat="47.6283960" lon="2.7271380">
        <ele>132.0</ele>
        <time>2020-07-03T09:10:29Z</time>
      </trkpt>
      <trkpt lat="47.6284620" lon="2.7271800">
        <ele>132.0</ele>
        <time>2020-07-03T09:10:33Z</time>
      </trkpt>
      <trkpt lat="47.6286520" lon="2.7273260">
        <ele>132.0</ele>
        <time>2020-07-03T09:10:42Z</time>
      </trkpt>
      <trkpt lat="47.6288420" lon="2.7275200">
        <ele>132.0</ele>
        <time>2020-07-03T09:10:49Z</time>
      </trkpt>
      <trkpt lat="47.6290940" lon="2.7278360">
        <ele>132.2</ele>
        <time>2020-07-03T09:10:58Z</time>
      </trkpt>
      <trkpt lat="47.6292660" lon="2.7281360">
        <ele>132.2</ele>
        <time>2020-07-03T09:11:06Z</time>
      </trkpt>
      <trkpt lat="47.6292890" lon="2.7283300">
        <ele>132.4</ele>
        <time>2020-07-03T09:11:11Z</time>
      </trkpt>
      <trkpt lat="47.6293070" lon="2.7284440">
        <ele>132.6</ele>
        <time>2020-07-03T09:11:16Z</time>
      </trkpt>
      <trkpt lat="47.6293140" lon="2.7284920">
        <ele>132.8</ele>
        <time>2020-07-03T09:11:19Z</time>
      </trkpt>
      <trkpt lat="47.6293280" lon="2.7285480">
        <ele>132.8</ele>
        <time>2020-07-03T09:11:21Z</time>
      </trkpt>
      <trkpt lat="47.6293360" lon="2.7285810">
        <ele>132.8</ele>
        <time>2020-07-03T09:11:22Z</time>
      </trkpt>
      <trkpt lat="47.6293660" lon="2.7286240">
        <ele>132.6</ele>
        <time>2020-07-03T09:11:24Z</time>
      </trkpt>
      <trkpt lat="47.6294060" lon="2.7286430">
        <ele>132.2</ele>
        <time>2020-07-03T09:11:26Z</time>
      </trkpt>
      <trkpt lat="47.6295290" lon="2.7287460">
        <ele>132.2</ele>
        <time>2020-07-03T09:11:34Z</time>
      </trkpt>
      <trkpt lat="47.6295380" lon="2.7287730">
        <ele>132.6</ele>
        <time>2020-07-03T09:11:36Z</time>
      </trkpt>
      <trkpt lat="47.6295910" lon="2.7288810">
        <ele>132.8</ele>
        <time>2020-07-03T09:11:42Z</time>
      </trkpt>
      <trkpt lat="47.6296010" lon="2.7289070">
        <ele>133.0</ele>
        <time>2020-07-03T09:11:43Z</time>
      </trkpt>
      <trkpt lat="47.6296320" lon="2.7290200">
        <ele>133.4</ele>
        <time>2020-07-03T09:11:47Z</time>
      </trkpt>
      <trkpt lat="47.6296580" lon="2.7290720">
        <ele>133.6</ele>
        <time>2020-07-03T09:11:49Z</time>
      </trkpt>
      <trkpt lat="47.6297420" lon="2.7292520">
        <ele>134.8</ele>
        <time>2020-07-03T09:11:56Z</time>
      </trkpt>
      <trkpt lat="47.6297540" lon="2.7292790">
        <ele>135.2</ele>
        <time>2020-07-03T09:11:57Z</time>
      </trkpt>
      <trkpt lat="47.6298190" lon="2.7294350">
        <ele>135.8</ele>
        <time>2020-07-03T09:12:03Z</time>
      </trkpt>
      <trkpt lat="47.6298370" lon="2.7294860">
        <ele>136.2</ele>
        <time>2020-07-03T09:12:05Z</time>
      </trkpt>
      <trkpt lat="47.6299170" lon="2.7297140">
        <ele>137.6</ele>
        <time>2020-07-03T09:12:14Z</time>
      </trkpt>
      <trkpt lat="47.6299330" lon="2.7297450">
        <ele>137.6</ele>
        <time>2020-07-03T09:12:15Z</time>
      </trkpt>
      <trkpt lat="47.6300040" lon="2.7299170">
        <ele>138.0</ele>
        <time>2020-07-03T09:12:20Z</time>
      </trkpt>
      <trkpt lat="47.6300480" lon="2.7300510">
        <ele>138.6</ele>
        <time>2020-07-03T09:12:24Z</time>
      </trkpt>
      <trkpt lat="47.6300370" lon="2.7302690">
        <ele>138.6</ele>
        <time>2020-07-03T09:12:30Z</time>
      </trkpt>
      <trkpt lat="47.6300280" lon="2.7303030">
        <ele>138.6</ele>
        <time>2020-07-03T09:12:31Z</time>
      </trkpt>
      <trkpt lat="47.6299420" lon="2.7304470">
        <ele>139.4</ele>
        <time>2020-07-03T09:12:37Z</time>
      </trkpt>
      <trkpt lat="47.6299200" lon="2.7304950">
        <ele>140.0</ele>
        <time>2020-07-03T09:12:43Z</time>
      </trkpt>
      <trkpt lat="47.6299190" lon="2.7304880">
        <ele>140.2</ele>
        <time>2020-07-03T09:12:59Z</time>
      </trkpt>
      <trkpt lat="47.6299190" lon="2.7304860">
        <ele>140.0</ele>
        <time>2020-07-03T09:13:17Z</time>
      </trkpt>
      <trkpt lat="47.6299220" lon="2.7304840">
        <ele>139.8</ele>
        <time>2020-07-03T09:13:37Z</time>
      </trkpt>
      <trkpt lat="47.6299230" lon="2.7304800">
        <ele>140.2</ele>
        <time>2020-07-03T09:13:57Z</time>
      </trkpt>
      <trkpt lat="47.6299210" lon="2.7304760">
        <ele>140.2</ele>
        <time>2020-07-03T09:14:20Z</time>
      </trkpt>
      <trkpt lat="47.6299200" lon="2.7304750">
        <ele>140.2</ele>
        <time>2020-07-03T09:14:24Z</time>
      </trkpt>
      <trkpt lat="47.6299240" lon="2.7304760">
        <ele>140.4</ele>
        <time>2020-07-03T09:14:44Z</time>
      </trkpt>
      <trkpt lat="47.6299200" lon="2.7304700">
        <ele>140.4</ele>
        <time>2020-07-03T09:15:02Z</time>
      </trkpt>
      <trkpt lat="47.6299160" lon="2.7304600">
        <ele>140.4</ele>
        <time>2020-07-03T09:15:22Z</time>
      </trkpt>
      <trkpt lat="47.6299110" lon="2.7304540">
        <ele>140.6</ele>
        <time>2020-07-03T09:15:52Z</time>
      </trkpt>
      <trkpt lat="47.6299070" lon="2.7304520">
        <ele>140.4</ele>
        <time>2020-07-03T09:16:25Z</time>
      </trkpt>
      <trkpt lat="47.6299300" lon="2.7304990">
        <ele>140.6</ele>
        <time>2020-07-03T09:16:40Z</time>
      </trkpt>
      <trkpt lat="47.6299380" lon="2.7305190">
        <ele>140.6</ele>
        <time>2020-07-03T09:16:41Z</time>
      </trkpt>
      <trkpt lat="47.6299570" lon="2.7305610">
        <ele>140.6</ele>
        <time>2020-07-03T09:16:43Z</time>
      </trkpt>
      <trkpt lat="47.6300180" lon="2.7307480">
        <ele>140.4</ele>
        <time>2020-07-03T09:16:49Z</time>
      </trkpt>
      <trkpt lat="47.6301540" lon="2.7311630">
        <ele>140.2</ele>
        <time>2020-07-03T09:17:00Z</time>
      </trkpt>
      <trkpt lat="47.6302050" lon="2.7313140">
        <ele>140.2</ele>
        <time>2020-07-03T09:17:04Z</time>
      </trkpt>
      <trkpt lat="47.6302890" lon="2.7315660">
        <ele>140.0</ele>
        <time>2020-07-03T09:17:10Z</time>
      </trkpt>
      <trkpt lat="47.6305040" lon="2.7321880">
        <ele>140.0</ele>
        <time>2020-07-03T09:17:23Z</time>
      </trkpt>
      <trkpt lat="47.6306910" lon="2.7327760">
        <ele>139.6</ele>
        <time>2020-07-03T09:17:34Z</time>
      </trkpt>
      <trkpt lat="47.6309380" lon="2.7335000">
        <ele>139.6</ele>
        <time>2020-07-03T09:17:47Z</time>
      </trkpt>
      <trkpt lat="47.6311710" lon="2.7342320">
        <ele>139.8</ele>
        <time>2020-07-03T09:18:00Z</time>
      </trkpt>
      <trkpt lat="47.6314320" lon="2.7349910">
        <ele>139.8</ele>
        <time>2020-07-03T09:18:14Z</time>
      </trkpt>
      <trkpt lat="47.6315010" lon="2.7352250">
        <ele>140.0</ele>
        <time>2020-07-03T09:18:19Z</time>
      </trkpt>
      <trkpt lat="47.6315300" lon="2.7353150">
        <ele>140.4</ele>
        <time>2020-07-03T09:18:21Z</time>
      </trkpt>
      <trkpt lat="47.6315790" lon="2.7354600">
        <ele>140.2</ele>
        <time>2020-07-03T09:18:24Z</time>
      </trkpt>
      <trkpt lat="47.6318050" lon="2.7361390">
        <ele>140.4</ele>
        <time>2020-07-03T09:18:37Z</time>
      </trkpt>
      <trkpt lat="47.6320530" lon="2.7368920">
        <ele>140.4</ele>
        <time>2020-07-03T09:18:51Z</time>
      </trkpt>
      <trkpt lat="47.6322000" lon="2.7373290">
        <ele>140.4</ele>
        <time>2020-07-03T09:19:00Z</time>
      </trkpt>
      <trkpt lat="47.6324300" lon="2.7379850">
        <ele>140.2</ele>
        <time>2020-07-03T09:19:13Z</time>
      </trkpt>
      <trkpt lat="47.6325530" lon="2.7383460">
        <ele>140.2</ele>
        <time>2020-07-03T09:19:22Z</time>
      </trkpt>
      <trkpt lat="47.6326630" lon="2.7385360">
        <ele>140.2</ele>
        <time>2020-07-03T09:19:28Z</time>
      </trkpt>
      <trkpt lat="47.6327680" lon="2.7387880">
        <ele>140.0</ele>
        <time>2020-07-03T09:19:35Z</time>
      </trkpt>
      <trkpt lat="47.6328860" lon="2.7390450">
        <ele>140.0</ele>
        <time>2020-07-03T09:19:44Z</time>
      </trkpt>
      <trkpt lat="47.6329730" lon="2.7391730">
        <ele>140.2</ele>
        <time>2020-07-03T09:19:51Z</time>
      </trkpt>
      <trkpt lat="47.6330230" lon="2.7392310">
        <ele>140.4</ele>
        <time>2020-07-03T09:19:55Z</time>
      </trkpt>
      <trkpt lat="47.6330860" lon="2.7393220">
        <ele>141.2</ele>
        <time>2020-07-03T09:20:00Z</time>
      </trkpt>
      <trkpt lat="47.6330870" lon="2.7393960">
        <ele>142.0</ele>
        <time>2020-07-03T09:20:03Z</time>
      </trkpt>
      <trkpt lat="47.6329710" lon="2.7395410">
        <ele>143.2</ele>
        <time>2020-07-03T09:20:10Z</time>
      </trkpt>
      <trkpt lat="47.6327810" lon="2.7397700">
        <ele>144.0</ele>
        <time>2020-07-03T09:20:19Z</time>
      </trkpt>
      <trkpt lat="47.6327210" lon="2.7398160">
        <ele>144.0</ele>
        <time>2020-07-03T09:20:21Z</time>
      </trkpt>
      <trkpt lat="47.6326040" lon="2.7398640">
        <ele>144.0</ele>
        <time>2020-07-03T09:20:24Z</time>
      </trkpt>
      <trkpt lat="47.6324890" lon="2.7398490">
        <ele>143.6</ele>
        <time>2020-07-03T09:20:27Z</time>
      </trkpt>
      <trkpt lat="47.6324290" lon="2.7398040">
        <ele>143.2</ele>
        <time>2020-07-03T09:20:29Z</time>
      </trkpt>
      <trkpt lat="47.6323860" lon="2.7397260">
        <ele>142.4</ele>
        <time>2020-07-03T09:20:31Z</time>
      </trkpt>
      <trkpt lat="47.6323220" lon="2.7395790">
        <ele>141.6</ele>
        <time>2020-07-03T09:20:34Z</time>
      </trkpt>
      <trkpt lat="47.6322930" lon="2.7395320">
        <ele>141.4</ele>
        <time>2020-07-03T09:20:35Z</time>
      </trkpt>
      <trkpt lat="47.6321710" lon="2.7393860">
        <ele>141.0</ele>
        <time>2020-07-03T09:20:38Z</time>
      </trkpt>
      <trkpt lat="47.6321220" lon="2.7393420">
        <ele>141.0</ele>
        <time>2020-07-03T09:20:39Z</time>
      </trkpt>
      <trkpt lat="47.6319780" lon="2.7392330">
        <ele>139.8</ele>
        <time>2020-07-03T09:20:42Z</time>
      </trkpt>
      <trkpt lat="47.6318480" lon="2.7391550">
        <ele>138.0</ele>
        <time>2020-07-03T09:20:45Z</time>
      </trkpt>
      <trkpt lat="47.6317390" lon="2.7391040">
        <ele>136.2</ele>
        <time>2020-07-03T09:20:48Z</time>
      </trkpt>
      <trkpt lat="47.6316620" lon="2.7391170">
        <ele>135.2</ele>
        <time>2020-07-03T09:20:50Z</time>
      </trkpt>
      <trkpt lat="47.6314480" lon="2.7392670">
        <ele>133.6</ele>
        <time>2020-07-03T09:20:56Z</time>
      </trkpt>
      <trkpt lat="47.6311270" lon="2.7394870">
        <ele>132.6</ele>
        <time>2020-07-03T09:21:06Z</time>
      </trkpt>
      <trkpt lat="47.6308000" lon="2.7397440">
        <ele>132.8</ele>
        <time>2020-07-03T09:21:17Z</time>
      </trkpt>
      <trkpt lat="47.6304920" lon="2.7399580">
        <ele>132.8</ele>
        <time>2020-07-03T09:21:26Z</time>
      </trkpt>
      <trkpt lat="47.6301060" lon="2.7402350">
        <ele>132.2</ele>
        <time>2020-07-03T09:21:36Z</time>
      </trkpt>
      <trkpt lat="47.6297390" lon="2.7405090">
        <ele>132.2</ele>
        <time>2020-07-03T09:21:45Z</time>
      </trkpt>
      <trkpt lat="47.6296980" lon="2.7405400">
        <ele>132.0</ele>
        <time>2020-07-03T09:21:46Z</time>
      </trkpt>
      <trkpt lat="47.6296570" lon="2.7405710">
        <ele>132.0</ele>
        <time>2020-07-03T09:21:47Z</time>
      </trkpt>
      <trkpt lat="47.6292900" lon="2.7408790">
        <ele>132.2</ele>
        <time>2020-07-03T09:21:56Z</time>
      </trkpt>
      <trkpt lat="47.6291260" lon="2.7409850">
        <ele>132.4</ele>
        <time>2020-07-03T09:22:00Z</time>
      </trkpt>
      <trkpt lat="47.6290380" lon="2.7409800">
        <ele>132.4</ele>
        <time>2020-07-03T09:22:02Z</time>
      </trkpt>
      <trkpt lat="47.6289560" lon="2.7409560">
        <ele>132.6</ele>
        <time>2020-07-03T09:22:04Z</time>
      </trkpt>
      <trkpt lat="47.6288850" lon="2.7409640">
        <ele>132.8</ele>
        <time>2020-07-03T09:22:06Z</time>
      </trkpt>
      <trkpt lat="47.6288590" lon="2.7409840">
        <ele>132.8</ele>
        <time>2020-07-03T09:22:07Z</time>
      </trkpt>
      <trkpt lat="47.6287950" lon="2.7410630">
        <ele>133.0</ele>
        <time>2020-07-03T09:22:11Z</time>
      </trkpt>
      <trkpt lat="47.6287460" lon="2.7411160">
        <ele>133.0</ele>
        <time>2020-07-03T09:22:14Z</time>
      </trkpt>
      <trkpt lat="47.6286530" lon="2.7410890">
        <ele>134.8</ele>
        <time>2020-07-03T09:22:19Z</time>
      </trkpt>
      <trkpt lat="47.6286190" lon="2.7409850">
        <ele>135.6</ele>
        <time>2020-07-03T09:22:23Z</time>
      </trkpt>
      <trkpt lat="47.6285930" lon="2.7408740">
        <ele>136.2</ele>
        <time>2020-07-03T09:22:27Z</time>
      </trkpt>
      <trkpt lat="47.6285320" lon="2.7407320">
        <ele>136.2</ele>
        <time>2020-07-03T09:22:34Z</time>
      </trkpt>
      <trkpt lat="47.6285160" lon="2.7407360">
        <ele>136.2</ele>
        <time>2020-07-03T09:22:35Z</time>
      </trkpt>
      <trkpt lat="47.6284770" lon="2.7407650">
        <ele>136.0</ele>
        <time>2020-07-03T09:22:37Z</time>
      </trkpt>
      <trkpt lat="47.6283710" lon="2.7408350">
        <ele>135.8</ele>
        <time>2020-07-03T09:22:41Z</time>
      </trkpt>
      <trkpt lat="47.6281400" lon="2.7410080">
        <ele>135.4</ele>
        <time>2020-07-03T09:22:48Z</time>
      </trkpt>
      <trkpt lat="47.6280660" lon="2.7410620">
        <ele>135.0</ele>
        <time>2020-07-03T09:22:50Z</time>
      </trkpt>
      <trkpt lat="47.6276870" lon="2.7413500">
        <ele>134.2</ele>
        <time>2020-07-03T09:23:00Z</time>
      </trkpt>
      <trkpt lat="47.6273120" lon="2.7416070">
        <ele>134.0</ele>
        <time>2020-07-03T09:23:09Z</time>
      </trkpt>
      <trkpt lat="47.6269090" lon="2.7419040">
        <ele>134.2</ele>
        <time>2020-07-03T09:23:18Z</time>
      </trkpt>
      <trkpt lat="47.6268240" lon="2.7419670">
        <ele>134.2</ele>
        <time>2020-07-03T09:23:20Z</time>
      </trkpt>
      <trkpt lat="47.6267790" lon="2.7419990">
        <ele>134.0</ele>
        <time>2020-07-03T09:23:21Z</time>
      </trkpt>
      <trkpt lat="47.6264720" lon="2.7422350">
        <ele>134.2</ele>
        <time>2020-07-03T09:23:28Z</time>
      </trkpt>
      <trkpt lat="47.6264270" lon="2.7422630">
        <ele>134.4</ele>
        <time>2020-07-03T09:23:29Z</time>
      </trkpt>
      <trkpt lat="47.6260660" lon="2.7425150">
        <ele>134.8</ele>
        <time>2020-07-03T09:23:37Z</time>
      </trkpt>
      <trkpt lat="47.6260200" lon="2.7425510">
        <ele>134.8</ele>
        <time>2020-07-03T09:23:38Z</time>
      </trkpt>
      <trkpt lat="47.6256300" lon="2.7428520">
        <ele>134.6</ele>
        <time>2020-07-03T09:23:47Z</time>
      </trkpt>
      <trkpt lat="47.6252510" lon="2.7431630">
        <ele>134.4</ele>
        <time>2020-07-03T09:23:57Z</time>
      </trkpt>
      <trkpt lat="47.6248840" lon="2.7434490">
        <ele>134.4</ele>
        <time>2020-07-03T09:24:07Z</time>
      </trkpt>
      <trkpt lat="47.6245910" lon="2.7437130">
        <ele>134.2</ele>
        <time>2020-07-03T09:24:15Z</time>
      </trkpt>
      <trkpt lat="47.6242110" lon="2.7440290">
        <ele>134.2</ele>
        <time>2020-07-03T09:24:25Z</time>
      </trkpt>
      <trkpt lat="47.6240230" lon="2.7441900">
        <ele>134.4</ele>
        <time>2020-07-03T09:24:30Z</time>
      </trkpt>
      <trkpt lat="47.6238400" lon="2.7443500">
        <ele>134.4</ele>
        <time>2020-07-03T09:24:35Z</time>
      </trkpt>
      <trkpt lat="47.6234690" lon="2.7446390">
        <ele>134.6</ele>
        <time>2020-07-03T09:24:45Z</time>
      </trkpt>
      <trkpt lat="47.6231920" lon="2.7448530">
        <ele>134.4</ele>
        <time>2020-07-03T09:24:52Z</time>
      </trkpt>
      <trkpt lat="47.6227640" lon="2.7451890">
        <ele>134.4</ele>
        <time>2020-07-03T09:25:03Z</time>
      </trkpt>
      <trkpt lat="47.6225230" lon="2.7453820">
        <ele>134.6</ele>
        <time>2020-07-03T09:25:11Z</time>
      </trkpt>
      <trkpt lat="47.6224930" lon="2.7454020">
        <ele>134.6</ele>
        <time>2020-07-03T09:25:12Z</time>
      </trkpt>
      <trkpt lat="47.6222310" lon="2.7455950">
        <ele>134.6</ele>
        <time>2020-07-03T09:25:20Z</time>
      </trkpt>
      <trkpt lat="47.6218860" lon="2.7458660">
        <ele>134.8</ele>
        <time>2020-07-03T09:25:30Z</time>
      </trkpt>
      <trkpt lat="47.6215190" lon="2.7461620">
        <ele>134.6</ele>
        <time>2020-07-03T09:25:40Z</time>
      </trkpt>
      <trkpt lat="47.6212030" lon="2.7464220">
        <ele>134.6</ele>
        <time>2020-07-03T09:25:48Z</time>
      </trkpt>
      <trkpt lat="47.6208100" lon="2.7467340">
        <ele>134.6</ele>
        <time>2020-07-03T09:25:58Z</time>
      </trkpt>
      <trkpt lat="47.6204940" lon="2.7470060">
        <ele>134.6</ele>
        <time>2020-07-03T09:26:07Z</time>
      </trkpt>
      <trkpt lat="47.6202030" lon="2.7472430">
        <ele>135.0</ele>
        <time>2020-07-03T09:26:16Z</time>
      </trkpt>
      <trkpt lat="47.6198270" lon="2.7475340">
        <ele>135.4</ele>
        <time>2020-07-03T09:26:25Z</time>
      </trkpt>
      <trkpt lat="47.6195030" lon="2.7478230">
        <ele>135.4</ele>
        <time>2020-07-03T09:26:33Z</time>
      </trkpt>
      <trkpt lat="47.6190490" lon="2.7482290">
        <ele>135.4</ele>
        <time>2020-07-03T09:26:45Z</time>
      </trkpt>
      <trkpt lat="47.6187020" lon="2.7485070">
        <ele>134.8</ele>
        <time>2020-07-03T09:26:55Z</time>
      </trkpt>
      <trkpt lat="47.6183510" lon="2.7488040">
        <ele>134.6</ele>
        <time>2020-07-03T09:27:03Z</time>
      </trkpt>
      <trkpt lat="47.6181110" lon="2.7489880">
        <ele>134.6</ele>
        <time>2020-07-03T09:27:10Z</time>
      </trkpt>
      <trkpt lat="47.6178870" lon="2.7491610">
        <ele>135.0</ele>
        <time>2020-07-03T09:27:16Z</time>
      </trkpt>
      <trkpt lat="47.6178210" lon="2.7492250">
        <ele>135.0</ele>
        <time>2020-07-03T09:27:18Z</time>
      </trkpt>
      <trkpt lat="47.6175730" lon="2.7494310">
        <ele>135.2</ele>
        <time>2020-07-03T09:27:25Z</time>
      </trkpt>
      <trkpt lat="47.6174930" lon="2.7494970">
        <ele>135.6</ele>
        <time>2020-07-03T09:27:27Z</time>
      </trkpt>
      <trkpt lat="47.6171800" lon="2.7497810">
        <ele>135.6</ele>
        <time>2020-07-03T09:27:34Z</time>
      </trkpt>
      <trkpt lat="47.6167740" lon="2.7501240">
        <ele>135.2</ele>
        <time>2020-07-03T09:27:43Z</time>
      </trkpt>
      <trkpt lat="47.6165730" lon="2.7502840">
        <ele>135.0</ele>
        <time>2020-07-03T09:27:48Z</time>
      </trkpt>
      <trkpt lat="47.6162180" lon="2.7505930">
        <ele>135.0</ele>
        <time>2020-07-03T09:27:57Z</time>
      </trkpt>
      <trkpt lat="47.6158810" lon="2.7508670">
        <ele>134.6</ele>
        <time>2020-07-03T09:28:06Z</time>
      </trkpt>
      <trkpt lat="47.6158000" lon="2.7509270">
        <ele>134.8</ele>
        <time>2020-07-03T09:28:08Z</time>
      </trkpt>
      <trkpt lat="47.6155450" lon="2.7511290">
        <ele>135.2</ele>
        <time>2020-07-03T09:28:15Z</time>
      </trkpt>
      <trkpt lat="47.6154500" lon="2.7512090">
        <ele>135.2</ele>
        <time>2020-07-03T09:28:18Z</time>
      </trkpt>
      <trkpt lat="47.6151720" lon="2.7514190">
        <ele>135.4</ele>
        <time>2020-07-03T09:28:25Z</time>
      </trkpt>
      <trkpt lat="47.6148140" lon="2.7517430">
        <ele>135.2</ele>
        <time>2020-07-03T09:28:34Z</time>
      </trkpt>
      <trkpt lat="47.6146850" lon="2.7518590">
        <ele>135.2</ele>
        <time>2020-07-03T09:28:37Z</time>
      </trkpt>
      <trkpt lat="47.6142400" lon="2.7522100">
        <ele>134.8</ele>
        <time>2020-07-03T09:28:48Z</time>
      </trkpt>
      <trkpt lat="47.6138040" lon="2.7525790">
        <ele>135.0</ele>
        <time>2020-07-03T09:28:59Z</time>
      </trkpt>
      <trkpt lat="47.6137210" lon="2.7526540">
        <ele>135.0</ele>
        <time>2020-07-03T09:29:01Z</time>
      </trkpt>
      <trkpt lat="47.6134170" lon="2.7529170">
        <ele>135.0</ele>
        <time>2020-07-03T09:29:08Z</time>
      </trkpt>
      <trkpt lat="47.6133760" lon="2.7529500">
        <ele>135.0</ele>
        <time>2020-07-03T09:29:09Z</time>
      </trkpt>
      <trkpt lat="47.6129210" lon="2.7533090">
        <ele>135.2</ele>
        <time>2020-07-03T09:29:20Z</time>
      </trkpt>
      <trkpt lat="47.6126040" lon="2.7535830">
        <ele>135.2</ele>
        <time>2020-07-03T09:29:28Z</time>
      </trkpt>
      <trkpt lat="47.6122350" lon="2.7539010">
        <ele>135.0</ele>
        <time>2020-07-03T09:29:37Z</time>
      </trkpt>
      <trkpt lat="47.6118300" lon="2.7542270">
        <ele>135.0</ele>
        <time>2020-07-03T09:29:47Z</time>
      </trkpt>
      <trkpt lat="47.6114640" lon="2.7545340">
        <ele>135.0</ele>
        <time>2020-07-03T09:29:56Z</time>
      </trkpt>
      <trkpt lat="47.6113080" lon="2.7546530">
        <ele>135.0</ele>
        <time>2020-07-03T09:30:00Z</time>
      </trkpt>
      <trkpt lat="47.6112670" lon="2.7546820">
        <ele>134.8</ele>
        <time>2020-07-03T09:30:01Z</time>
      </trkpt>
      <trkpt lat="47.6111450" lon="2.7547800">
        <ele>135.0</ele>
        <time>2020-07-03T09:30:04Z</time>
      </trkpt>
      <trkpt lat="47.6110680" lon="2.7548510">
        <ele>135.0</ele>
        <time>2020-07-03T09:30:06Z</time>
      </trkpt>
      <trkpt lat="47.6107560" lon="2.7551500">
        <ele>135.0</ele>
        <time>2020-07-03T09:30:14Z</time>
      </trkpt>
      <trkpt lat="47.6103560" lon="2.7555390">
        <ele>135.2</ele>
        <time>2020-07-03T09:30:24Z</time>
      </trkpt>
      <trkpt lat="47.6099200" lon="2.7559580">
        <ele>135.4</ele>
        <time>2020-07-03T09:30:35Z</time>
      </trkpt>
      <trkpt lat="47.6098420" lon="2.7560410">
        <ele>135.4</ele>
        <time>2020-07-03T09:30:37Z</time>
      </trkpt>
      <trkpt lat="47.6096520" lon="2.7562420">
        <ele>135.8</ele>
        <time>2020-07-03T09:30:42Z</time>
      </trkpt>
      <trkpt lat="47.6095320" lon="2.7563640">
        <ele>135.8</ele>
        <time>2020-07-03T09:30:45Z</time>
      </trkpt>
      <trkpt lat="47.6092280" lon="2.7566740">
        <ele>135.6</ele>
        <time>2020-07-03T09:30:52Z</time>
      </trkpt>
      <trkpt lat="47.6087630" lon="2.7571730">
        <ele>135.8</ele>
        <time>2020-07-03T09:31:03Z</time>
      </trkpt>
      <trkpt lat="47.6087200" lon="2.7572110">
        <ele>135.8</ele>
        <time>2020-07-03T09:31:04Z</time>
      </trkpt>
      <trkpt lat="47.6083590" lon="2.7575840">
        <ele>135.8</ele>
        <time>2020-07-03T09:31:13Z</time>
      </trkpt>
      <trkpt lat="47.6078800" lon="2.7580760">
        <ele>135.4</ele>
        <time>2020-07-03T09:31:24Z</time>
      </trkpt>
      <trkpt lat="47.6074170" lon="2.7585620">
        <ele>135.0</ele>
        <time>2020-07-03T09:31:35Z</time>
      </trkpt>
      <trkpt lat="47.6070700" lon="2.7589090">
        <ele>134.8</ele>
        <time>2020-07-03T09:31:43Z</time>
      </trkpt>
      <trkpt lat="47.6066120" lon="2.7594290">
        <ele>135.0</ele>
        <time>2020-07-03T09:31:54Z</time>
      </trkpt>
      <trkpt lat="47.6065730" lon="2.7594740">
        <ele>135.0</ele>
        <time>2020-07-03T09:31:55Z</time>
      </trkpt>
      <trkpt lat="47.6064160" lon="2.7596410">
        <ele>135.2</ele>
        <time>2020-07-03T09:31:59Z</time>
      </trkpt>
      <trkpt lat="47.6062200" lon="2.7598250">
        <ele>135.6</ele>
        <time>2020-07-03T09:32:04Z</time>
      </trkpt>
      <trkpt lat="47.6061090" lon="2.7599450">
        <ele>136.0</ele>
        <time>2020-07-03T09:32:07Z</time>
      </trkpt>
      <trkpt lat="47.6058300" lon="2.7602000">
        <ele>136.0</ele>
        <time>2020-07-03T09:32:14Z</time>
      </trkpt>
      <trkpt lat="47.6055350" lon="2.7604830">
        <ele>135.6</ele>
        <time>2020-07-03T09:32:21Z</time>
      </trkpt>
      <trkpt lat="47.6050630" lon="2.7609860">
        <ele>135.4</ele>
        <time>2020-07-03T09:32:32Z</time>
      </trkpt>
      <trkpt lat="47.6045930" lon="2.7614590">
        <ele>135.4</ele>
        <time>2020-07-03T09:32:43Z</time>
      </trkpt>
      <trkpt lat="47.6043000" lon="2.7617850">
        <ele>135.4</ele>
        <time>2020-07-03T09:32:50Z</time>
      </trkpt>
      <trkpt lat="47.6042210" lon="2.7618660">
        <ele>135.4</ele>
        <time>2020-07-03T09:32:52Z</time>
      </trkpt>
      <trkpt lat="47.6039260" lon="2.7621490">
        <ele>135.2</ele>
        <time>2020-07-03T09:32:59Z</time>
      </trkpt>
      <trkpt lat="47.6037770" lon="2.7622880">
        <ele>135.0</ele>
        <time>2020-07-03T09:33:02Z</time>
      </trkpt>
      <trkpt lat="47.6034850" lon="2.7625940">
        <ele>135.0</ele>
        <time>2020-07-03T09:33:09Z</time>
      </trkpt>
      <trkpt lat="47.6034020" lon="2.7626750">
        <ele>134.8</ele>
        <time>2020-07-03T09:33:11Z</time>
      </trkpt>
      <trkpt lat="47.6031600" lon="2.7629180">
        <ele>134.8</ele>
        <time>2020-07-03T09:33:17Z</time>
      </trkpt>
      <trkpt lat="47.6030470" lon="2.7630300">
        <ele>135.0</ele>
        <time>2020-07-03T09:33:20Z</time>
      </trkpt>
      <trkpt lat="47.6029260" lon="2.7631620">
        <ele>135.2</ele>
        <time>2020-07-03T09:33:23Z</time>
      </trkpt>
      <trkpt lat="47.6027250" lon="2.7633600">
        <ele>135.4</ele>
        <time>2020-07-03T09:33:28Z</time>
      </trkpt>
      <trkpt lat="47.6026820" lon="2.7634070">
        <ele>135.4</ele>
        <time>2020-07-03T09:33:29Z</time>
      </trkpt>
      <trkpt lat="47.6025360" lon="2.7635660">
        <ele>135.6</ele>
        <time>2020-07-03T09:33:33Z</time>
      </trkpt>
      <trkpt lat="47.6024400" lon="2.7636700">
        <ele>135.4</ele>
        <time>2020-07-03T09:33:36Z</time>
      </trkpt>
      <trkpt lat="47.6020430" lon="2.7640710">
        <ele>135.6</ele>
        <time>2020-07-03T09:33:46Z</time>
      </trkpt>
      <trkpt lat="47.6016470" lon="2.7644520">
        <ele>135.6</ele>
        <time>2020-07-03T09:33:56Z</time>
      </trkpt>
      <trkpt lat="47.6014390" lon="2.7645940">
        <ele>135.8</ele>
        <time>2020-07-03T09:34:01Z</time>
      </trkpt>
      <trkpt lat="47.6013500" lon="2.7646170">
        <ele>135.8</ele>
        <time>2020-07-03T09:34:03Z</time>
      </trkpt>
      <trkpt lat="47.6012010" lon="2.7646090">
        <ele>135.8</ele>
        <time>2020-07-03T09:34:06Z</time>
      </trkpt>
      <trkpt lat="47.6011570" lon="2.7645970">
        <ele>136.0</ele>
        <time>2020-07-03T09:34:07Z</time>
      </trkpt>
      <trkpt lat="47.6010580" lon="2.7645010">
        <ele>136.2</ele>
        <time>2020-07-03T09:34:10Z</time>
      </trkpt>
      <trkpt lat="47.6008750" lon="2.7641610">
        <ele>136.4</ele>
        <time>2020-07-03T09:34:17Z</time>
      </trkpt>
      <trkpt lat="47.6006710" lon="2.7636500">
        <ele>136.4</ele>
        <time>2020-07-03T09:34:26Z</time>
      </trkpt>
      <trkpt lat="47.6005420" lon="2.7632700">
        <ele>136.4</ele>
        <time>2020-07-03T09:34:33Z</time>
      </trkpt>
      <trkpt lat="47.6004830" lon="2.7630730">
        <ele>136.4</ele>
        <time>2020-07-03T09:34:37Z</time>
      </trkpt>
      <trkpt lat="47.6004580" lon="2.7629820">
        <ele>136.4</ele>
        <time>2020-07-03T09:34:39Z</time>
      </trkpt>
      <trkpt lat="47.6003740" lon="2.7626630">
        <ele>136.6</ele>
        <time>2020-07-03T09:34:45Z</time>
      </trkpt>
      <trkpt lat="47.6003220" lon="2.7623480">
        <ele>136.8</ele>
        <time>2020-07-03T09:34:51Z</time>
      </trkpt>
      <trkpt lat="47.6003100" lon="2.7623110">
        <ele>136.8</ele>
        <time>2020-07-03T09:34:57Z</time>
      </trkpt>
      <trkpt lat="47.6002970" lon="2.7622310">
        <ele>137.4</ele>
        <time>2020-07-03T09:35:16Z</time>
      </trkpt>
      <trkpt lat="47.6002860" lon="2.7620510">
        <ele>137.2</ele>
        <time>2020-07-03T09:35:22Z</time>
      </trkpt>
      <trkpt lat="47.6002670" lon="2.7617390">
        <ele>137.2</ele>
        <time>2020-07-03T09:35:30Z</time>
      </trkpt>
      <trkpt lat="47.6002300" lon="2.7613170">
        <ele>137.0</ele>
        <time>2020-07-03T09:35:40Z</time>
      </trkpt>
      <trkpt lat="47.6001880" lon="2.7611660">
        <ele>137.0</ele>
        <time>2020-07-03T09:35:46Z</time>
      </trkpt>
      <trkpt lat="47.6001630" lon="2.7611400">
        <ele>136.6</ele>
        <time>2020-07-03T09:35:52Z</time>
      </trkpt>
      <trkpt lat="47.6000920" lon="2.7611490">
        <ele>137.2</ele>
        <time>2020-07-03T09:36:05Z</time>
      </trkpt>
      <trkpt lat="47.6000080" lon="2.7611690">
        <ele>137.8</ele>
        <time>2020-07-03T09:36:13Z</time>
      </trkpt>
      <trkpt lat="47.5999760" lon="2.7611850">
        <ele>138.0</ele>
        <time>2020-07-03T09:36:17Z</time>
      </trkpt>
      <trkpt lat="47.5999600" lon="2.7611910">
        <ele>138.0</ele>
        <time>2020-07-03T09:36:18Z</time>
      </trkpt>
      <trkpt lat="47.5998550" lon="2.7612250">
        <ele>138.0</ele>
        <time>2020-07-03T09:36:22Z</time>
      </trkpt>
      <trkpt lat="47.5997480" lon="2.7613670">
        <ele>137.8</ele>
        <time>2020-07-03T09:36:27Z</time>
      </trkpt>
      <trkpt lat="47.5997200" lon="2.7614250">
        <ele>137.6</ele>
        <time>2020-07-03T09:36:31Z</time>
      </trkpt>
      <trkpt lat="47.5997180" lon="2.7614320">
        <ele>137.6</ele>
        <time>2020-07-03T09:36:37Z</time>
      </trkpt>
      <trkpt lat="47.5997180" lon="2.7614320">
        <ele>137.6</ele>
        <time>2020-07-03T09:36:38Z</time>
      </trkpt>
      <trkpt lat="47.5997180" lon="2.7614320">
        <ele>137.4</ele>
        <time>2020-07-03T09:36:39Z</time>
      </trkpt>
      <trkpt lat="47.5997180" lon="2.7614330">
        <ele>137.6</ele>
        <time>2020-07-03T09:36:43Z</time>
      </trkpt>
      <trkpt lat="47.5996860" lon="2.7615080">
        <ele>137.6</ele>
        <time>2020-07-03T09:36:59Z</time>
      </trkpt>
      <trkpt lat="47.5996240" lon="2.7617050">
        <ele>137.6</ele>
        <time>2020-07-03T09:37:07Z</time>
      </trkpt>
      <trkpt lat="47.5995520" lon="2.7618130">
        <ele>137.6</ele>
        <time>2020-07-03T09:37:13Z</time>
      </trkpt>
      <trkpt lat="47.5994810" lon="2.7618970">
        <ele>137.6</ele>
        <time>2020-07-03T09:37:20Z</time>
      </trkpt>
      <trkpt lat="47.5994370" lon="2.7618980">
        <ele>137.8</ele>
        <time>2020-07-03T09:37:26Z</time>
      </trkpt>
      <trkpt lat="47.5994130" lon="2.7619070">
        <ele>137.8</ele>
        <time>2020-07-03T09:37:30Z</time>
      </trkpt>
      <trkpt lat="47.5993990" lon="2.7619060">
        <ele>137.4</ele>
        <time>2020-07-03T09:37:33Z</time>
      </trkpt>
      <trkpt lat="47.5994070" lon="2.7618450">
        <ele>136.8</ele>
        <time>2020-07-03T09:37:37Z</time>
      </trkpt>
      <trkpt lat="47.5994110" lon="2.7618290">
        <ele>136.8</ele>
        <time>2020-07-03T09:37:38Z</time>
      </trkpt>
      <trkpt lat="47.5993690" lon="2.7618410">
        <ele>135.6</ele>
        <time>2020-07-03T09:37:44Z</time>
      </trkpt>
      <trkpt lat="47.5992910" lon="2.7620060">
        <ele>134.8</ele>
        <time>2020-07-03T09:37:50Z</time>
      </trkpt>
      <trkpt lat="47.5991690" lon="2.7622700">
        <ele>134.6</ele>
        <time>2020-07-03T09:37:59Z</time>
      </trkpt>
      <trkpt lat="47.5989880" lon="2.7625700">
        <ele>134.6</ele>
        <time>2020-07-03T09:38:07Z</time>
      </trkpt>
      <trkpt lat="47.5988330" lon="2.7628380">
        <ele>134.8</ele>
        <time>2020-07-03T09:38:14Z</time>
      </trkpt>
      <trkpt lat="47.5988370" lon="2.7628560">
        <ele>135.0</ele>
        <time>2020-07-03T09:38:15Z</time>
      </trkpt>
      <trkpt lat="47.5988540" lon="2.7628560">
        <ele>135.0</ele>
        <time>2020-07-03T09:38:17Z</time>
      </trkpt>
      <trkpt lat="47.5988780" lon="2.7628250">
        <ele>135.0</ele>
        <time>2020-07-03T09:38:19Z</time>
      </trkpt>
      <trkpt lat="47.5989080" lon="2.7627870">
        <ele>135.2</ele>
        <time>2020-07-03T09:38:21Z</time>
      </trkpt>
      <trkpt lat="47.5990280" lon="2.7626290">
        <ele>136.0</ele>
        <time>2020-07-03T09:38:29Z</time>
      </trkpt>
      <trkpt lat="47.5990900" lon="2.7625630">
        <ele>136.8</ele>
        <time>2020-07-03T09:38:33Z</time>
      </trkpt>
      <trkpt lat="47.5990990" lon="2.7625680">
        <ele>137.0</ele>
        <time>2020-07-03T09:38:34Z</time>
      </trkpt>
      <trkpt lat="47.5990750" lon="2.7626410">
        <ele>137.8</ele>
        <time>2020-07-03T09:38:38Z</time>
      </trkpt>
      <trkpt lat="47.5989680" lon="2.7628590">
        <ele>138.4</ele>
        <time>2020-07-03T09:38:44Z</time>
      </trkpt>
      <trkpt lat="47.5988530" lon="2.7630500">
        <ele>138.2</ele>
        <time>2020-07-03T09:38:48Z</time>
      </trkpt>
      <trkpt lat="47.5987600" lon="2.7632090">
        <ele>138.4</ele>
        <time>2020-07-03T09:38:51Z</time>
      </trkpt>
      <trkpt lat="47.5983810" lon="2.7638450">
        <ele>138.2</ele>
        <time>2020-07-03T09:39:03Z</time>
      </trkpt>
      <trkpt lat="47.5983470" lon="2.7638980">
        <ele>138.0</ele>
        <time>2020-07-03T09:39:04Z</time>
      </trkpt>
      <trkpt lat="47.5981690" lon="2.7641710">
        <ele>137.8</ele>
        <time>2020-07-03T09:39:09Z</time>
      </trkpt>
      <trkpt lat="47.5979230" lon="2.7645940">
        <ele>137.4</ele>
        <time>2020-07-03T09:39:16Z</time>
      </trkpt>
      <trkpt lat="47.5975680" lon="2.7652340">
        <ele>137.0</ele>
        <time>2020-07-03T09:39:26Z</time>
      </trkpt>
      <trkpt lat="47.5975300" lon="2.7653010">
        <ele>137.0</ele>
        <time>2020-07-03T09:39:27Z</time>
      </trkpt>
      <trkpt lat="47.5971620" lon="2.7659540">
        <ele>137.0</ele>
        <time>2020-07-03T09:39:37Z</time>
      </trkpt>
      <trkpt lat="47.5970870" lon="2.7660870">
        <ele>137.0</ele>
        <time>2020-07-03T09:39:39Z</time>
      </trkpt>
      <trkpt lat="47.5967530" lon="2.7666730">
        <ele>137.2</ele>
        <time>2020-07-03T09:39:48Z</time>
      </trkpt>
      <trkpt lat="47.5964850" lon="2.7671600">
        <ele>137.4</ele>
        <time>2020-07-03T09:39:55Z</time>
      </trkpt>
      <trkpt lat="47.5961230" lon="2.7677750">
        <ele>137.2</ele>
        <time>2020-07-03T09:40:04Z</time>
      </trkpt>
      <trkpt lat="47.5960100" lon="2.7679810">
        <ele>137.2</ele>
        <time>2020-07-03T09:40:07Z</time>
      </trkpt>
      <trkpt lat="47.5956310" lon="2.7686550">
        <ele>136.6</ele>
        <time>2020-07-03T09:40:17Z</time>
      </trkpt>
      <trkpt lat="47.5955160" lon="2.7688590">
        <ele>136.6</ele>
        <time>2020-07-03T09:40:20Z</time>
      </trkpt>
      <trkpt lat="47.5951690" lon="2.7694880">
        <ele>137.0</ele>
        <time>2020-07-03T09:40:29Z</time>
      </trkpt>
      <trkpt lat="47.5950520" lon="2.7696930">
        <ele>137.0</ele>
        <time>2020-07-03T09:40:32Z</time>
      </trkpt>
      <trkpt lat="47.5946810" lon="2.7703680">
        <ele>136.8</ele>
        <time>2020-07-03T09:40:42Z</time>
      </trkpt>
      <trkpt lat="47.5945650" lon="2.7705700">
        <ele>136.8</ele>
        <time>2020-07-03T09:40:45Z</time>
      </trkpt>
      <trkpt lat="47.5941940" lon="2.7712610">
        <ele>136.6</ele>
        <time>2020-07-03T09:40:55Z</time>
      </trkpt>
      <trkpt lat="47.5939870" lon="2.7716790">
        <ele>136.6</ele>
        <time>2020-07-03T09:41:01Z</time>
      </trkpt>
      <trkpt lat="47.5938450" lon="2.7719540">
        <ele>136.6</ele>
        <time>2020-07-03T09:41:05Z</time>
      </trkpt>
      <trkpt lat="47.5935360" lon="2.7725710">
        <ele>136.6</ele>
        <time>2020-07-03T09:41:14Z</time>
      </trkpt>
      <trkpt lat="47.5933180" lon="2.7730090">
        <ele>136.6</ele>
        <time>2020-07-03T09:41:20Z</time>
      </trkpt>
      <trkpt lat="47.5931470" lon="2.7733510">
        <ele>136.6</ele>
        <time>2020-07-03T09:41:25Z</time>
      </trkpt>
      <trkpt lat="47.5929550" lon="2.7737700">
        <ele>136.8</ele>
        <time>2020-07-03T09:41:31Z</time>
      </trkpt>
      <trkpt lat="47.5926960" lon="2.7742590">
        <ele>137.0</ele>
        <time>2020-07-03T09:41:38Z</time>
      </trkpt>
      <trkpt lat="47.5923390" lon="2.7749570">
        <ele>136.8</ele>
        <time>2020-07-03T09:41:48Z</time>
      </trkpt>
      <trkpt lat="47.5922080" lon="2.7752350">
        <ele>137.0</ele>
        <time>2020-07-03T09:41:52Z</time>
      </trkpt>
      <trkpt lat="47.5919760" lon="2.7757060">
        <ele>137.0</ele>
        <time>2020-07-03T09:41:59Z</time>
      </trkpt>
      <trkpt lat="47.5919450" lon="2.7757700">
        <ele>137.0</ele>
        <time>2020-07-03T09:42:00Z</time>
      </trkpt>
      <trkpt lat="47.5918130" lon="2.7760430">
        <ele>137.0</ele>
        <time>2020-07-03T09:42:04Z</time>
      </trkpt>
      <trkpt lat="47.5914700" lon="2.7767080">
        <ele>137.0</ele>
        <time>2020-07-03T09:42:14Z</time>
      </trkpt>
      <trkpt lat="47.5913300" lon="2.7769830">
        <ele>137.2</ele>
        <time>2020-07-03T09:42:18Z</time>
      </trkpt>
      <trkpt lat="47.5912600" lon="2.7771230">
        <ele>137.2</ele>
        <time>2020-07-03T09:42:20Z</time>
      </trkpt>
      <trkpt lat="47.5909360" lon="2.7777710">
        <ele>136.8</ele>
        <time>2020-07-03T09:42:30Z</time>
      </trkpt>
      <trkpt lat="47.5908100" lon="2.7780110">
        <ele>137.0</ele>
        <time>2020-07-03T09:42:34Z</time>
      </trkpt>
      <trkpt lat="47.5905170" lon="2.7786680">
        <ele>137.2</ele>
        <time>2020-07-03T09:42:44Z</time>
      </trkpt>
      <trkpt lat="47.5904200" lon="2.7789440">
        <ele>137.8</ele>
        <time>2020-07-03T09:42:48Z</time>
      </trkpt>
      <trkpt lat="47.5903460" lon="2.7793060">
        <ele>138.0</ele>
        <time>2020-07-03T09:42:53Z</time>
      </trkpt>
      <trkpt lat="47.5902790" lon="2.7800140">
        <ele>138.2</ele>
        <time>2020-07-03T09:43:03Z</time>
      </trkpt>
      <trkpt lat="47.5902860" lon="2.7801940">
        <ele>138.4</ele>
        <time>2020-07-03T09:43:06Z</time>
      </trkpt>
      <trkpt lat="47.5902600" lon="2.7803680">
        <ele>138.8</ele>
        <time>2020-07-03T09:43:09Z</time>
      </trkpt>
      <trkpt lat="47.5902410" lon="2.7804180">
        <ele>138.8</ele>
        <time>2020-07-03T09:43:10Z</time>
      </trkpt>
      <trkpt lat="47.5901530" lon="2.7805940">
        <ele>138.8</ele>
        <time>2020-07-03T09:43:13Z</time>
      </trkpt>
      <trkpt lat="47.5901140" lon="2.7806660">
        <ele>138.8</ele>
        <time>2020-07-03T09:43:14Z</time>
      </trkpt>
      <trkpt lat="47.5900690" lon="2.7807430">
        <ele>138.8</ele>
        <time>2020-07-03T09:43:15Z</time>
      </trkpt>
      <trkpt lat="47.5900240" lon="2.7808270">
        <ele>138.8</ele>
        <time>2020-07-03T09:43:16Z</time>
      </trkpt>
      <trkpt lat="47.5899280" lon="2.7810090">
        <ele>138.6</ele>
        <time>2020-07-03T09:43:18Z</time>
      </trkpt>
      <trkpt lat="47.5898830" lon="2.7810980">
        <ele>138.6</ele>
        <time>2020-07-03T09:43:19Z</time>
      </trkpt>
      <trkpt lat="47.5895460" lon="2.7817450">
        <ele>135.0</ele>
        <time>2020-07-03T09:43:27Z</time>
      </trkpt>
      <trkpt lat="47.5893210" lon="2.7822250">
        <ele>134.4</ele>
        <time>2020-07-03T09:43:34Z</time>
      </trkpt>
      <trkpt lat="47.5891080" lon="2.7827500">
        <ele>135.2</ele>
        <time>2020-07-03T09:43:43Z</time>
      </trkpt>
      <trkpt lat="47.5889570" lon="2.7831260">
        <ele>135.8</ele>
        <time>2020-07-03T09:43:51Z</time>
      </trkpt>
      <trkpt lat="47.5887820" lon="2.7835440">
        <ele>135.8</ele>
        <time>2020-07-03T09:43:59Z</time>
      </trkpt>
      <trkpt lat="47.5885640" lon="2.7841650">
        <ele>135.6</ele>
        <time>2020-07-03T09:44:09Z</time>
      </trkpt>
      <trkpt lat="47.5884360" lon="2.7845010">
        <ele>135.6</ele>
        <time>2020-07-03T09:44:16Z</time>
      </trkpt>
      <trkpt lat="47.5882970" lon="2.7848870">
        <ele>135.8</ele>
        <time>2020-07-03T09:44:25Z</time>
      </trkpt>
      <trkpt lat="47.5881680" lon="2.7853030">
        <ele>136.2</ele>
        <time>2020-07-03T09:44:33Z</time>
      </trkpt>
      <trkpt lat="47.5880400" lon="2.7857190">
        <ele>136.2</ele>
        <time>2020-07-03T09:44:42Z</time>
      </trkpt>
      <trkpt lat="47.5879230" lon="2.7861190">
        <ele>136.2</ele>
        <time>2020-07-03T09:44:51Z</time>
      </trkpt>
      <trkpt lat="47.5879020" lon="2.7863510">
        <ele>136.4</ele>
        <time>2020-07-03T09:44:56Z</time>
      </trkpt>
      <trkpt lat="47.5878910" lon="2.7865250">
        <ele>136.4</ele>
        <time>2020-07-03T09:45:00Z</time>
      </trkpt>
      <trkpt lat="47.5879000" lon="2.7868390">
        <ele>136.6</ele>
        <time>2020-07-03T09:45:06Z</time>
      </trkpt>
      <trkpt lat="47.5878840" lon="2.7873000">
        <ele>136.4</ele>
        <time>2020-07-03T09:45:14Z</time>
      </trkpt>
      <trkpt lat="47.5878120" lon="2.7877830">
        <ele>136.2</ele>
        <time>2020-07-03T09:45:23Z</time>
      </trkpt>
      <trkpt lat="47.5877160" lon="2.7882580">
        <ele>136.0</ele>
        <time>2020-07-03T09:45:32Z</time>
      </trkpt>
      <trkpt lat="47.5875990" lon="2.7886930">
        <ele>136.2</ele>
        <time>2020-07-03T09:45:40Z</time>
      </trkpt>
      <trkpt lat="47.5874650" lon="2.7892330">
        <ele>136.6</ele>
        <time>2020-07-03T09:45:50Z</time>
      </trkpt>
      <trkpt lat="47.5873370" lon="2.7897300">
        <ele>136.2</ele>
        <time>2020-07-03T09:46:00Z</time>
      </trkpt>
      <trkpt lat="47.5872940" lon="2.7898810">
        <ele>136.2</ele>
        <time>2020-07-03T09:46:05Z</time>
      </trkpt>
      <trkpt lat="47.5872570" lon="2.7900390">
        <ele>136.2</ele>
        <time>2020-07-03T09:46:09Z</time>
      </trkpt>
      <trkpt lat="47.5872320" lon="2.7901450">
        <ele>136.0</ele>
        <time>2020-07-03T09:46:11Z</time>
      </trkpt>
      <trkpt lat="47.5870470" lon="2.7906780">
        <ele>136.0</ele>
        <time>2020-07-03T09:46:20Z</time>
      </trkpt>
      <trkpt lat="47.5868640" lon="2.7912520">
        <ele>136.0</ele>
        <time>2020-07-03T09:46:30Z</time>
      </trkpt>
      <trkpt lat="47.5867170" lon="2.7917500">
        <ele>135.8</ele>
        <time>2020-07-03T09:46:39Z</time>
      </trkpt>
      <trkpt lat="47.5864750" lon="2.7924340">
        <ele>135.8</ele>
        <time>2020-07-03T09:46:50Z</time>
      </trkpt>
      <trkpt lat="47.5862960" lon="2.7930440">
        <ele>135.6</ele>
        <time>2020-07-03T09:46:59Z</time>
      </trkpt>
      <trkpt lat="47.5861240" lon="2.7936140">
        <ele>135.8</ele>
        <time>2020-07-03T09:47:07Z</time>
      </trkpt>
      <trkpt lat="47.5858680" lon="2.7942270">
        <ele>135.6</ele>
        <time>2020-07-03T09:47:16Z</time>
      </trkpt>
      <trkpt lat="47.5855630" lon="2.7949010">
        <ele>135.8</ele>
        <time>2020-07-03T09:47:26Z</time>
      </trkpt>
      <trkpt lat="47.5854370" lon="2.7951650">
        <ele>135.8</ele>
        <time>2020-07-03T09:47:30Z</time>
      </trkpt>
      <trkpt lat="47.5851540" lon="2.7959060">
        <ele>135.8</ele>
        <time>2020-07-03T09:47:40Z</time>
      </trkpt>
      <trkpt lat="47.5851260" lon="2.7959780">
        <ele>135.6</ele>
        <time>2020-07-03T09:47:41Z</time>
      </trkpt>
      <trkpt lat="47.5848230" lon="2.7966790">
        <ele>135.6</ele>
        <time>2020-07-03T09:47:51Z</time>
      </trkpt>
      <trkpt lat="47.5847320" lon="2.7968870">
        <ele>135.6</ele>
        <time>2020-07-03T09:47:54Z</time>
      </trkpt>
      <trkpt lat="47.5844530" lon="2.7976100">
        <ele>136.0</ele>
        <time>2020-07-03T09:48:04Z</time>
      </trkpt>
      <trkpt lat="47.5841550" lon="2.7983680">
        <ele>135.6</ele>
        <time>2020-07-03T09:48:14Z</time>
      </trkpt>
      <trkpt lat="47.5841200" lon="2.7984430">
        <ele>135.6</ele>
        <time>2020-07-03T09:48:15Z</time>
      </trkpt>
      <trkpt lat="47.5838800" lon="2.7991200">
        <ele>135.4</ele>
        <time>2020-07-03T09:48:24Z</time>
      </trkpt>
      <trkpt lat="47.5836480" lon="2.7998030">
        <ele>135.4</ele>
        <time>2020-07-03T09:48:33Z</time>
      </trkpt>
      <trkpt lat="47.5834280" lon="2.8003980">
        <ele>135.6</ele>
        <time>2020-07-03T09:48:41Z</time>
      </trkpt>
      <trkpt lat="47.5833050" lon="2.8007570">
        <ele>136.2</ele>
        <time>2020-07-03T09:48:46Z</time>
      </trkpt>
      <trkpt lat="47.5830710" lon="2.8014710">
        <ele>136.6</ele>
        <time>2020-07-03T09:48:56Z</time>
      </trkpt>
      <trkpt lat="47.5828240" lon="2.8021350">
        <ele>136.8</ele>
        <time>2020-07-03T09:49:06Z</time>
      </trkpt>
      <trkpt lat="47.5825540" lon="2.8028020">
        <ele>136.8</ele>
        <time>2020-07-03T09:49:15Z</time>
      </trkpt>
      <trkpt lat="47.5822220" lon="2.8035090">
        <ele>136.2</ele>
        <time>2020-07-03T09:49:25Z</time>
      </trkpt>
      <trkpt lat="47.5821850" lon="2.8035790">
        <ele>136.2</ele>
        <time>2020-07-03T09:49:26Z</time>
      </trkpt>
      <trkpt lat="47.5818670" lon="2.8041800">
        <ele>136.0</ele>
        <time>2020-07-03T09:49:35Z</time>
      </trkpt>
      <trkpt lat="47.5815520" lon="2.8048060">
        <ele>136.2</ele>
        <time>2020-07-03T09:49:45Z</time>
      </trkpt>
      <trkpt lat="47.5812620" lon="2.8054250">
        <ele>136.6</ele>
        <time>2020-07-03T09:49:55Z</time>
      </trkpt>
      <trkpt lat="47.5811360" lon="2.8057030">
        <ele>136.4</ele>
        <time>2020-07-03T09:49:59Z</time>
      </trkpt>
      <trkpt lat="47.5808240" lon="2.8063980">
        <ele>136.4</ele>
        <time>2020-07-03T09:50:09Z</time>
      </trkpt>
      <trkpt lat="47.5805070" lon="2.8071300">
        <ele>136.4</ele>
        <time>2020-07-03T09:50:19Z</time>
      </trkpt>
      <trkpt lat="47.5804680" lon="2.8072080">
        <ele>136.4</ele>
        <time>2020-07-03T09:50:20Z</time>
      </trkpt>
      <trkpt lat="47.5801470" lon="2.8078140">
        <ele>135.8</ele>
        <time>2020-07-03T09:50:28Z</time>
      </trkpt>
      <trkpt lat="47.5799400" lon="2.8082480">
        <ele>135.4</ele>
        <time>2020-07-03T09:50:34Z</time>
      </trkpt>
      <trkpt lat="47.5798870" lon="2.8083860">
        <ele>135.4</ele>
        <time>2020-07-03T09:50:36Z</time>
      </trkpt>
      <trkpt lat="47.5796650" lon="2.8088150">
        <ele>135.8</ele>
        <time>2020-07-03T09:50:43Z</time>
      </trkpt>
      <trkpt lat="47.5793930" lon="2.8093250">
        <ele>136.4</ele>
        <time>2020-07-03T09:50:51Z</time>
      </trkpt>
      <trkpt lat="47.5792990" lon="2.8095360">
        <ele>136.6</ele>
        <time>2020-07-03T09:50:54Z</time>
      </trkpt>
      <trkpt lat="47.5791300" lon="2.8098310">
        <ele>136.8</ele>
        <time>2020-07-03T09:50:59Z</time>
      </trkpt>
      <trkpt lat="47.5789480" lon="2.8101070">
        <ele>137.2</ele>
        <time>2020-07-03T09:51:04Z</time>
      </trkpt>
      <trkpt lat="47.5788350" lon="2.8102810">
        <ele>137.4</ele>
        <time>2020-07-03T09:51:07Z</time>
      </trkpt>
      <trkpt lat="47.5785290" lon="2.8107930">
        <ele>137.4</ele>
        <time>2020-07-03T09:51:15Z</time>
      </trkpt>
      <trkpt lat="47.5784910" lon="2.8108600">
        <ele>137.6</ele>
        <time>2020-07-03T09:51:16Z</time>
      </trkpt>
      <trkpt lat="47.5782530" lon="2.8112440">
        <ele>137.8</ele>
        <time>2020-07-03T09:51:22Z</time>
      </trkpt>
      <trkpt lat="47.5781800" lon="2.8113740">
        <ele>137.6</ele>
        <time>2020-07-03T09:51:24Z</time>
      </trkpt>
      <trkpt lat="47.5781420" lon="2.8114390">
        <ele>137.8</ele>
        <time>2020-07-03T09:51:25Z</time>
      </trkpt>
      <trkpt lat="47.5779330" lon="2.8117750">
        <ele>138.2</ele>
        <time>2020-07-03T09:51:31Z</time>
      </trkpt>
      <trkpt lat="47.5778220" lon="2.8119700">
        <ele>138.6</ele>
        <time>2020-07-03T09:51:35Z</time>
      </trkpt>
      <trkpt lat="47.5777140" lon="2.8121610">
        <ele>139.2</ele>
        <time>2020-07-03T09:51:39Z</time>
      </trkpt>
      <trkpt lat="47.5775480" lon="2.8124770">
        <ele>139.2</ele>
        <time>2020-07-03T09:51:45Z</time>
      </trkpt>
      <trkpt lat="47.5772900" lon="2.8130060">
        <ele>139.2</ele>
        <time>2020-07-03T09:51:54Z</time>
      </trkpt>
      <trkpt lat="47.5770820" lon="2.8133330">
        <ele>139.2</ele>
        <time>2020-07-03T09:52:00Z</time>
      </trkpt>
      <trkpt lat="47.5770300" lon="2.8133860">
        <ele>139.2</ele>
        <time>2020-07-03T09:52:01Z</time>
      </trkpt>
      <trkpt lat="47.5769690" lon="2.8134420">
        <ele>139.4</ele>
        <time>2020-07-03T09:52:02Z</time>
      </trkpt>
      <trkpt lat="47.5769000" lon="2.8135120">
        <ele>139.2</ele>
        <time>2020-07-03T09:52:03Z</time>
      </trkpt>
      <trkpt lat="47.5767510" lon="2.8136660">
        <ele>139.2</ele>
        <time>2020-07-03T09:52:05Z</time>
      </trkpt>
      <trkpt lat="47.5763020" lon="2.8142020">
        <ele>135.6</ele>
        <time>2020-07-03T09:52:11Z</time>
      </trkpt>
      <trkpt lat="47.5761000" lon="2.8144650">
        <ele>134.2</ele>
        <time>2020-07-03T09:52:14Z</time>
      </trkpt>
      <trkpt lat="47.5758290" lon="2.8147940">
        <ele>133.8</ele>
        <time>2020-07-03T09:52:18Z</time>
      </trkpt>
      <trkpt lat="47.5753780" lon="2.8153720">
        <ele>133.6</ele>
        <time>2020-07-03T09:52:25Z</time>
      </trkpt>
      <trkpt lat="47.5753230" lon="2.8154560">
        <ele>133.6</ele>
        <time>2020-07-03T09:52:26Z</time>
      </trkpt>
      <trkpt lat="47.5749890" lon="2.8160560">
        <ele>134.2</ele>
        <time>2020-07-03T09:52:33Z</time>
      </trkpt>
      <trkpt lat="47.5747790" lon="2.8164160">
        <ele>134.4</ele>
        <time>2020-07-03T09:52:38Z</time>
      </trkpt>
      <trkpt lat="47.5746680" lon="2.8166260">
        <ele>134.4</ele>
        <time>2020-07-03T09:52:41Z</time>
      </trkpt>
      <trkpt lat="47.5745160" lon="2.8168860">
        <ele>134.8</ele>
        <time>2020-07-03T09:52:45Z</time>
      </trkpt>
      <trkpt lat="47.5744850" lon="2.8169460">
        <ele>134.8</ele>
        <time>2020-07-03T09:52:46Z</time>
      </trkpt>
      <trkpt lat="47.5744550" lon="2.8170280">
        <ele>135.0</ele>
        <time>2020-07-03T09:52:47Z</time>
      </trkpt>
      <trkpt lat="47.5744140" lon="2.8172870">
        <ele>134.8</ele>
        <time>2020-07-03T09:52:50Z</time>
      </trkpt>
      <trkpt lat="47.5743780" lon="2.8174500">
        <ele>135.0</ele>
        <time>2020-07-03T09:52:52Z</time>
      </trkpt>
      <trkpt lat="47.5741590" lon="2.8178640">
        <ele>135.6</ele>
        <time>2020-07-03T09:52:58Z</time>
      </trkpt>
      <trkpt lat="47.5739100" lon="2.8181530">
        <ele>136.0</ele>
        <time>2020-07-03T09:53:03Z</time>
      </trkpt>
      <trkpt lat="47.5738180" lon="2.8182690">
        <ele>136.0</ele>
        <time>2020-07-03T09:53:05Z</time>
      </trkpt>
      <trkpt lat="47.5735030" lon="2.8187400">
        <ele>136.6</ele>
        <time>2020-07-03T09:53:12Z</time>
      </trkpt>
      <trkpt lat="47.5734600" lon="2.8188160">
        <ele>136.6</ele>
        <time>2020-07-03T09:53:13Z</time>
      </trkpt>
      <trkpt lat="47.5730960" lon="2.8195080">
        <ele>136.4</ele>
        <time>2020-07-03T09:53:22Z</time>
      </trkpt>
      <trkpt lat="47.5730550" lon="2.8195810">
        <ele>136.4</ele>
        <time>2020-07-03T09:53:23Z</time>
      </trkpt>
      <trkpt lat="47.5726860" lon="2.8202820">
        <ele>136.2</ele>
        <time>2020-07-03T09:53:32Z</time>
      </trkpt>
      <trkpt lat="47.5726420" lon="2.8203610">
        <ele>136.2</ele>
        <time>2020-07-03T09:53:33Z</time>
      </trkpt>
      <trkpt lat="47.5722920" lon="2.8210110">
        <ele>135.8</ele>
        <time>2020-07-03T09:53:41Z</time>
      </trkpt>
      <trkpt lat="47.5722530" lon="2.8210900">
        <ele>136.0</ele>
        <time>2020-07-03T09:53:42Z</time>
      </trkpt>
      <trkpt lat="47.5719530" lon="2.8215560">
        <ele>136.2</ele>
        <time>2020-07-03T09:53:49Z</time>
      </trkpt>
      <trkpt lat="47.5717830" lon="2.8218010">
        <ele>136.4</ele>
        <time>2020-07-03T09:53:53Z</time>
      </trkpt>
      <trkpt lat="47.5715540" lon="2.8221130">
        <ele>136.4</ele>
        <time>2020-07-03T09:53:58Z</time>
      </trkpt>
      <trkpt lat="47.5711100" lon="2.8226560">
        <ele>136.8</ele>
        <time>2020-07-03T09:54:07Z</time>
      </trkpt>
      <trkpt lat="47.5710610" lon="2.8227250">
        <ele>136.8</ele>
        <time>2020-07-03T09:54:08Z</time>
      </trkpt>
      <trkpt lat="47.5707520" lon="2.8231370">
        <ele>136.4</ele>
        <time>2020-07-03T09:54:14Z</time>
      </trkpt>
      <trkpt lat="47.5705500" lon="2.8234070">
        <ele>136.0</ele>
        <time>2020-07-03T09:54:18Z</time>
      </trkpt>
      <trkpt lat="47.5705000" lon="2.8234680">
        <ele>136.0</ele>
        <time>2020-07-03T09:54:19Z</time>
      </trkpt>
      <trkpt lat="47.5701750" lon="2.8238610">
        <ele>135.8</ele>
        <time>2020-07-03T09:54:26Z</time>
      </trkpt>
      <trkpt lat="47.5698730" lon="2.8241880">
        <ele>135.4</ele>
        <time>2020-07-03T09:54:32Z</time>
      </trkpt>
      <trkpt lat="47.5696210" lon="2.8244880">
        <ele>135.4</ele>
        <time>2020-07-03T09:54:37Z</time>
      </trkpt>
      <trkpt lat="47.5692950" lon="2.8249720">
        <ele>135.0</ele>
        <time>2020-07-03T09:54:44Z</time>
      </trkpt>
      <trkpt lat="47.5692540" lon="2.8250420">
        <ele>135.0</ele>
        <time>2020-07-03T09:54:45Z</time>
      </trkpt>
      <trkpt lat="47.5689520" lon="2.8255890">
        <ele>135.4</ele>
        <time>2020-07-03T09:54:53Z</time>
      </trkpt>
      <trkpt lat="47.5686050" lon="2.8262190">
        <ele>135.8</ele>
        <time>2020-07-03T09:55:02Z</time>
      </trkpt>
      <trkpt lat="47.5685330" lon="2.8263520">
        <ele>136.0</ele>
        <time>2020-07-03T09:55:04Z</time>
      </trkpt>
      <trkpt lat="47.5682670" lon="2.8268180">
        <ele>136.2</ele>
        <time>2020-07-03T09:55:11Z</time>
      </trkpt>
      <trkpt lat="47.5681370" lon="2.8269920">
        <ele>136.2</ele>
        <time>2020-07-03T09:55:14Z</time>
      </trkpt>
      <trkpt lat="47.5677180" lon="2.8275700">
        <ele>136.6</ele>
        <time>2020-07-03T09:55:24Z</time>
      </trkpt>
      <trkpt lat="47.5675960" lon="2.8277340">
        <ele>136.8</ele>
        <time>2020-07-03T09:55:27Z</time>
      </trkpt>
      <trkpt lat="47.5674600" lon="2.8279180">
        <ele>136.8</ele>
        <time>2020-07-03T09:55:30Z</time>
      </trkpt>
      <trkpt lat="47.5671920" lon="2.8282770">
        <ele>136.0</ele>
        <time>2020-07-03T09:55:36Z</time>
      </trkpt>
      <trkpt lat="47.5668440" lon="2.8287470">
        <ele>135.2</ele>
        <time>2020-07-03T09:55:44Z</time>
      </trkpt>
      <trkpt lat="47.5665330" lon="2.8291320">
        <ele>135.4</ele>
        <time>2020-07-03T09:55:51Z</time>
      </trkpt>
      <trkpt lat="47.5661470" lon="2.8297160">
        <ele>135.8</ele>
        <time>2020-07-03T09:56:00Z</time>
      </trkpt>
      <trkpt lat="47.5658610" lon="2.8301480">
        <ele>135.6</ele>
        <time>2020-07-03T09:56:07Z</time>
      </trkpt>
      <trkpt lat="47.5656850" lon="2.8303950">
        <ele>135.4</ele>
        <time>2020-07-03T09:56:11Z</time>
      </trkpt>
      <trkpt lat="47.5653640" lon="2.8308000">
        <ele>135.4</ele>
        <time>2020-07-03T09:56:18Z</time>
      </trkpt>
      <trkpt lat="47.5652340" lon="2.8309730">
        <ele>135.2</ele>
        <time>2020-07-03T09:56:21Z</time>
      </trkpt>
      <trkpt lat="47.5648740" lon="2.8314730">
        <ele>135.6</ele>
        <time>2020-07-03T09:56:30Z</time>
      </trkpt>
      <trkpt lat="47.5644670" lon="2.8320580">
        <ele>135.8</ele>
        <time>2020-07-03T09:56:39Z</time>
      </trkpt>
      <trkpt lat="47.5644180" lon="2.8321220">
        <ele>135.8</ele>
        <time>2020-07-03T09:56:40Z</time>
      </trkpt>
      <trkpt lat="47.5640340" lon="2.8326640">
        <ele>136.4</ele>
        <time>2020-07-03T09:56:49Z</time>
      </trkpt>
      <trkpt lat="47.5639520" lon="2.8327710">
        <ele>136.4</ele>
        <time>2020-07-03T09:56:51Z</time>
      </trkpt>
      <trkpt lat="47.5638560" lon="2.8328520">
        <ele>136.6</ele>
        <time>2020-07-03T09:56:53Z</time>
      </trkpt>
      <trkpt lat="47.5638000" lon="2.8328770">
        <ele>136.6</ele>
        <time>2020-07-03T09:56:54Z</time>
      </trkpt>
      <trkpt lat="47.5636410" lon="2.8329140">
        <ele>136.6</ele>
        <time>2020-07-03T09:56:57Z</time>
      </trkpt>
      <trkpt lat="47.5635540" lon="2.8329290">
        <ele>136.6</ele>
        <time>2020-07-03T09:56:59Z</time>
      </trkpt>
      <trkpt lat="47.5634670" lon="2.8329670">
        <ele>136.6</ele>
        <time>2020-07-03T09:57:01Z</time>
      </trkpt>
      <trkpt lat="47.5633830" lon="2.8330440">
        <ele>136.6</ele>
        <time>2020-07-03T09:57:03Z</time>
      </trkpt>
      <trkpt lat="47.5633450" lon="2.8330950">
        <ele>136.6</ele>
        <time>2020-07-03T09:57:04Z</time>
      </trkpt>
      <trkpt lat="47.5633130" lon="2.8331530">
        <ele>136.6</ele>
        <time>2020-07-03T09:57:05Z</time>
      </trkpt>
      <trkpt lat="47.5632300" lon="2.8333230">
        <ele>136.6</ele>
        <time>2020-07-03T09:57:08Z</time>
      </trkpt>
      <trkpt lat="47.5632090" lon="2.8333800">
        <ele>136.6</ele>
        <time>2020-07-03T09:57:09Z</time>
      </trkpt>
      <trkpt lat="47.5631720" lon="2.8336110">
        <ele>136.4</ele>
        <time>2020-07-03T09:57:13Z</time>
      </trkpt>
      <trkpt lat="47.5631150" lon="2.8340230">
        <ele>136.6</ele>
        <time>2020-07-03T09:57:20Z</time>
      </trkpt>
      <trkpt lat="47.5631060" lon="2.8341760">
        <ele>136.6</ele>
        <time>2020-07-03T09:57:24Z</time>
      </trkpt>
      <trkpt lat="47.5631170" lon="2.8341910">
        <ele>136.6</ele>
        <time>2020-07-03T09:57:25Z</time>
      </trkpt>
      <trkpt lat="47.5631270" lon="2.8341960">
        <ele>136.8</ele>
        <time>2020-07-03T09:57:26Z</time>
      </trkpt>
      <trkpt lat="47.5631570" lon="2.8341560">
        <ele>137.2</ele>
        <time>2020-07-03T09:57:29Z</time>
      </trkpt>
      <trkpt lat="47.5631650" lon="2.8341310">
        <ele>137.4</ele>
        <time>2020-07-03T09:57:30Z</time>
      </trkpt>
      <trkpt lat="47.5632180" lon="2.8340310">
        <ele>138.2</ele>
        <time>2020-07-03T09:57:38Z</time>
      </trkpt>
      <trkpt lat="47.5632300" lon="2.8340150">
        <ele>138.0</ele>
        <time>2020-07-03T09:57:54Z</time>
      </trkpt>
      <trkpt lat="47.5632360" lon="2.8340130">
        <ele>137.6</ele>
        <time>2020-07-03T09:58:26Z</time>
      </trkpt>
      <trkpt lat="47.5632050" lon="2.8340410">
        <ele>137.6</ele>
        <time>2020-07-03T09:58:42Z</time>
      </trkpt>
      <trkpt lat="47.5632020" lon="2.8340430">
        <ele>137.8</ele>
        <time>2020-07-03T09:58:43Z</time>
      </trkpt>
      <trkpt lat="47.5631990" lon="2.8340460">
        <ele>137.6</ele>
        <time>2020-07-03T09:58:44Z</time>
      </trkpt>
      <trkpt lat="47.5631650" lon="2.8341000">
        <ele>137.4</ele>
        <time>2020-07-03T09:58:52Z</time>
      </trkpt>
      <trkpt lat="47.5631570" lon="2.8341460">
        <ele>137.4</ele>
        <time>2020-07-03T09:58:54Z</time>
      </trkpt>
      <trkpt lat="47.5631480" lon="2.8343570">
        <ele>137.2</ele>
        <time>2020-07-03T09:59:02Z</time>
      </trkpt>
      <trkpt lat="47.5630630" lon="2.8345300">
        <ele>137.2</ele>
        <time>2020-07-03T09:59:08Z</time>
      </trkpt>
      <trkpt lat="47.5628460" lon="2.8347560">
        <ele>137.0</ele>
        <time>2020-07-03T09:59:15Z</time>
      </trkpt>
      <trkpt lat="47.5626560" lon="2.8351190">
        <ele>136.8</ele>
        <time>2020-07-03T09:59:23Z</time>
      </trkpt>
      <trkpt lat="47.5624810" lon="2.8355710">
        <ele>136.6</ele>
        <time>2020-07-03T09:59:31Z</time>
      </trkpt>
      <trkpt lat="47.5622800" lon="2.8360580">
        <ele>136.8</ele>
        <time>2020-07-03T09:59:39Z</time>
      </trkpt>
      <trkpt lat="47.5621280" lon="2.8363460">
        <ele>136.8</ele>
        <time>2020-07-03T09:59:45Z</time>
      </trkpt>
      <trkpt lat="47.5619150" lon="2.8366720">
        <ele>137.0</ele>
        <time>2020-07-03T09:59:52Z</time>
      </trkpt>
      <trkpt lat="47.5617420" lon="2.8369590">
        <ele>137.2</ele>
        <time>2020-07-03T09:59:58Z</time>
      </trkpt>
      <trkpt lat="47.5616880" lon="2.8370530">
        <ele>137.4</ele>
        <time>2020-07-03T10:00:00Z</time>
      </trkpt>
      <trkpt lat="47.5615390" lon="2.8372290">
        <ele>137.6</ele>
        <time>2020-07-03T10:00:05Z</time>
      </trkpt>
      <trkpt lat="47.5614690" lon="2.8372780">
        <ele>138.0</ele>
        <time>2020-07-03T10:00:07Z</time>
      </trkpt>
      <trkpt lat="47.5614280" lon="2.8373020">
        <ele>138.0</ele>
        <time>2020-07-03T10:00:08Z</time>
      </trkpt>
      <trkpt lat="47.5612230" lon="2.8374230">
        <ele>138.0</ele>
        <time>2020-07-03T10:00:13Z</time>
      </trkpt>
      <trkpt lat="47.5611820" lon="2.8374390">
        <ele>137.8</ele>
        <time>2020-07-03T10:00:14Z</time>
      </trkpt>
      <trkpt lat="47.5609610" lon="2.8376660">
        <ele>137.8</ele>
        <time>2020-07-03T10:00:20Z</time>
      </trkpt>
      <trkpt lat="47.5607430" lon="2.8379990">
        <ele>137.4</ele>
        <time>2020-07-03T10:00:27Z</time>
      </trkpt>
      <trkpt lat="47.5605430" lon="2.8383420">
        <ele>137.2</ele>
        <time>2020-07-03T10:00:35Z</time>
      </trkpt>
      <trkpt lat="47.5603100" lon="2.8386250">
        <ele>137.2</ele>
        <time>2020-07-03T10:00:42Z</time>
      </trkpt>
      <trkpt lat="47.5600770" lon="2.8388250">
        <ele>137.2</ele>
        <time>2020-07-03T10:00:48Z</time>
      </trkpt>
      <trkpt lat="47.5597780" lon="2.8390870">
        <ele>137.0</ele>
        <time>2020-07-03T10:00:56Z</time>
      </trkpt>
      <trkpt lat="47.5594940" lon="2.8393960">
        <ele>136.6</ele>
        <time>2020-07-03T10:01:04Z</time>
      </trkpt>
      <trkpt lat="47.5592580" lon="2.8396320">
        <ele>136.8</ele>
        <time>2020-07-03T10:01:11Z</time>
      </trkpt>
      <trkpt lat="47.5592080" lon="2.8396440">
        <ele>136.6</ele>
        <time>2020-07-03T10:01:15Z</time>
      </trkpt>
      <trkpt lat="47.5592130" lon="2.8396030">
        <ele>137.4</ele>
        <time>2020-07-03T10:01:22Z</time>
      </trkpt>
      <trkpt lat="47.5592480" lon="2.8395600">
        <ele>137.4</ele>
        <time>2020-07-03T10:01:32Z</time>
      </trkpt>
      <trkpt lat="47.5592860" lon="2.8395270">
        <ele>137.4</ele>
        <time>2020-07-03T10:01:47Z</time>
      </trkpt>
      <trkpt lat="47.5592870" lon="2.8395270">
        <ele>137.4</ele>
        <time>2020-07-03T10:01:48Z</time>
      </trkpt>
      <trkpt lat="47.5592930" lon="2.8395260">
        <ele>137.6</ele>
        <time>2020-07-03T10:02:12Z</time>
      </trkpt>
      <trkpt lat="47.5593030" lon="2.8395280">
        <ele>137.2</ele>
        <time>2020-07-03T10:02:51Z</time>
      </trkpt>
      <trkpt lat="47.5593050" lon="2.8395270">
        <ele>137.2</ele>
        <time>2020-07-03T10:02:57Z</time>
      </trkpt>
      <trkpt lat="47.5593040" lon="2.8395160">
        <ele>137.2</ele>
        <time>2020-07-03T10:03:26Z</time>
      </trkpt>
      <trkpt lat="47.5592710" lon="2.8395970">
        <ele>137.2</ele>
        <time>2020-07-03T10:03:35Z</time>
      </trkpt>
      <trkpt lat="47.5592660" lon="2.8396150">
        <ele>137.2</ele>
        <time>2020-07-03T10:03:36Z</time>
      </trkpt>
      <trkpt lat="47.5591410" lon="2.8397140">
        <ele>137.2</ele>
        <time>2020-07-03T10:03:44Z</time>
      </trkpt>
      <trkpt lat="47.5590630" lon="2.8397610">
        <ele>137.4</ele>
        <time>2020-07-03T10:03:48Z</time>
      </trkpt>
      <trkpt lat="47.5590380" lon="2.8397600">
        <ele>137.4</ele>
        <time>2020-07-03T10:03:50Z</time>
      </trkpt>
      <trkpt lat="47.5589760" lon="2.8397750">
        <ele>137.4</ele>
        <time>2020-07-03T10:03:55Z</time>
      </trkpt>
      <trkpt lat="47.5589800" lon="2.8398020">
        <ele>137.8</ele>
        <time>2020-07-03T10:03:57Z</time>
      </trkpt>
      <trkpt lat="47.5590210" lon="2.8398110">
        <ele>137.6</ele>
        <time>2020-07-03T10:04:01Z</time>
      </trkpt>
      <trkpt lat="47.5590190" lon="2.8398010">
        <ele>137.8</ele>
        <time>2020-07-03T10:04:02Z</time>
      </trkpt>
      <trkpt lat="47.5589980" lon="2.8398310">
        <ele>137.8</ele>
        <time>2020-07-03T10:04:05Z</time>
      </trkpt>
      <trkpt lat="47.5589970" lon="2.8398800">
        <ele>137.8</ele>
        <time>2020-07-03T10:04:07Z</time>
      </trkpt>
      <trkpt lat="47.5590000" lon="2.8399000">
        <ele>137.8</ele>
        <time>2020-07-03T10:04:08Z</time>
      </trkpt>
      <trkpt lat="47.5590070" lon="2.8399660">
        <ele>138.0</ele>
        <time>2020-07-03T10:04:11Z</time>
      </trkpt>
      <trkpt lat="47.5590050" lon="2.8400460">
        <ele>138.2</ele>
        <time>2020-07-03T10:04:14Z</time>
      </trkpt>
      <trkpt lat="47.5590060" lon="2.8400740">
        <ele>138.2</ele>
        <time>2020-07-03T10:04:15Z</time>
      </trkpt>
      <trkpt lat="47.5590230" lon="2.8401330">
        <ele>138.8</ele>
        <time>2020-07-03T10:04:18Z</time>
      </trkpt>
      <trkpt lat="47.5590430" lon="2.8402080">
        <ele>140.2</ele>
        <time>2020-07-03T10:04:22Z</time>
      </trkpt>
      <trkpt lat="47.5590410" lon="2.8403310">
        <ele>142.0</ele>
        <time>2020-07-03T10:04:27Z</time>
      </trkpt>
      <trkpt lat="47.5590430" lon="2.8403940">
        <ele>142.8</ele>
        <time>2020-07-03T10:04:30Z</time>
      </trkpt>
      <trkpt lat="47.5590360" lon="2.8404090">
        <ele>143.2</ele>
        <time>2020-07-03T10:04:31Z</time>
      </trkpt>
      <trkpt lat="47.5589950" lon="2.8404390">
        <ele>143.6</ele>
        <time>2020-07-03T10:04:34Z</time>
      </trkpt>
      <trkpt lat="47.5589360" lon="2.8404940">
        <ele>144.0</ele>
        <time>2020-07-03T10:04:37Z</time>
      </trkpt>
      <trkpt lat="47.5588210" lon="2.8405950">
        <ele>144.0</ele>
        <time>2020-07-03T10:04:41Z</time>
      </trkpt>
      <trkpt lat="47.5586440" lon="2.8407950">
        <ele>143.6</ele>
        <time>2020-07-03T10:04:47Z</time>
      </trkpt>
      <trkpt lat="47.5585180" lon="2.8409250">
        <ele>143.4</ele>
        <time>2020-07-03T10:04:51Z</time>
      </trkpt>
      <trkpt lat="47.5584020" lon="2.8410420">
        <ele>143.2</ele>
        <time>2020-07-03T10:04:55Z</time>
      </trkpt>
      <trkpt lat="47.5582260" lon="2.8412390">
        <ele>143.0</ele>
        <time>2020-07-03T10:05:02Z</time>
      </trkpt>
      <trkpt lat="47.5580340" lon="2.8415390">
        <ele>143.2</ele>
        <time>2020-07-03T10:05:10Z</time>
      </trkpt>
      <trkpt lat="47.5578500" lon="2.8417770">
        <ele>143.2</ele>
        <time>2020-07-03T10:05:16Z</time>
      </trkpt>
      <trkpt lat="47.5576580" lon="2.8420910">
        <ele>143.2</ele>
        <time>2020-07-03T10:05:23Z</time>
      </trkpt>
      <trkpt lat="47.5576070" lon="2.8422430">
        <ele>143.2</ele>
        <time>2020-07-03T10:05:26Z</time>
      </trkpt>
      <trkpt lat="47.5576060" lon="2.8422890">
        <ele>143.2</ele>
        <time>2020-07-03T10:05:27Z</time>
      </trkpt>
      <trkpt lat="47.5576450" lon="2.8423960">
        <ele>143.2</ele>
        <time>2020-07-03T10:05:31Z</time>
      </trkpt>
      <trkpt lat="47.5577590" lon="2.8425800">
        <ele>143.6</ele>
        <time>2020-07-03T10:05:37Z</time>
      </trkpt>
      <trkpt lat="47.5578040" lon="2.8427730">
        <ele>143.8</ele>
        <time>2020-07-03T10:05:42Z</time>
      </trkpt>
      <trkpt lat="47.5578100" lon="2.8428050">
        <ele>143.8</ele>
        <time>2020-07-03T10:05:43Z</time>
      </trkpt>
      <trkpt lat="47.5578460" lon="2.8428910">
        <ele>144.2</ele>
        <time>2020-07-03T10:05:49Z</time>
      </trkpt>
      <trkpt lat="47.5578430" lon="2.8428950">
        <ele>145.2</ele>
        <time>2020-07-03T10:06:02Z</time>
      </trkpt>
      <trkpt lat="47.5578530" lon="2.8428770">
        <ele>145.2</ele>
        <time>2020-07-03T10:06:20Z</time>
      </trkpt>
      <trkpt lat="47.5578790" lon="2.8428670">
        <ele>145.4</ele>
        <time>2020-07-03T10:06:35Z</time>
      </trkpt>
      <trkpt lat="47.5578980" lon="2.8428560">
        <ele>145.2</ele>
        <time>2020-07-03T10:06:50Z</time>
      </trkpt>
      <trkpt lat="47.5579160" lon="2.8429010">
        <ele>145.4</ele>
        <time>2020-07-03T10:07:05Z</time>
      </trkpt>
      <trkpt lat="47.5579230" lon="2.8429470">
        <ele>145.4</ele>
        <time>2020-07-03T10:07:18Z</time>
      </trkpt>
      <trkpt lat="47.5579260" lon="2.8429550">
        <ele>145.0</ele>
        <time>2020-07-03T10:07:33Z</time>
      </trkpt>
      <trkpt lat="47.5579340" lon="2.8429650">
        <ele>145.0</ele>
        <time>2020-07-03T10:07:45Z</time>
      </trkpt>
      <trkpt lat="47.5579340" lon="2.8429660">
        <ele>145.0</ele>
        <time>2020-07-03T10:07:46Z</time>
      </trkpt>
      <trkpt lat="47.5579290" lon="2.8429620">
        <ele>145.0</ele>
        <time>2020-07-03T10:07:48Z</time>
      </trkpt>
      <trkpt lat="47.5579250" lon="2.8429710">
        <ele>145.0</ele>
        <time>2020-07-03T10:07:54Z</time>
      </trkpt>
      <trkpt lat="47.5579380" lon="2.8429760">
        <ele>144.6</ele>
        <time>2020-07-03T10:08:02Z</time>
      </trkpt>
      <trkpt lat="47.5579470" lon="2.8429730">
        <ele>144.8</ele>
        <time>2020-07-03T10:08:21Z</time>
      </trkpt>
      <trkpt lat="47.5579540" lon="2.8429500">
        <ele>144.4</ele>
        <time>2020-07-03T10:08:35Z</time>
      </trkpt>
      <trkpt lat="47.5579850" lon="2.8428770">
        <ele>144.2</ele>
        <time>2020-07-03T10:08:49Z</time>
      </trkpt>
      <trkpt lat="47.5580020" lon="2.8428600">
        <ele>144.2</ele>
        <time>2020-07-03T10:08:59Z</time>
      </trkpt>
      <trkpt lat="47.5580090" lon="2.8428600">
        <ele>144.2</ele>
        <time>2020-07-03T10:09:06Z</time>
      </trkpt>
      <trkpt lat="47.5580260" lon="2.8428560">
        <ele>144.2</ele>
        <time>2020-07-03T10:09:21Z</time>
      </trkpt>
      <trkpt lat="47.5580340" lon="2.8428620">
        <ele>144.0</ele>
        <time>2020-07-03T10:09:37Z</time>
      </trkpt>
      <trkpt lat="47.5580030" lon="2.8428810">
        <ele>144.2</ele>
        <time>2020-07-03T10:09:54Z</time>
      </trkpt>
      <trkpt lat="47.5579880" lon="2.8429040">
        <ele>144.2</ele>
        <time>2020-07-03T10:10:10Z</time>
      </trkpt>
      <trkpt lat="47.5580000" lon="2.8429000">
        <ele>144.4</ele>
        <time>2020-07-03T10:10:23Z</time>
      </trkpt>
      <trkpt lat="47.5579990" lon="2.8429090">
        <ele>144.6</ele>
        <time>2020-07-03T10:10:40Z</time>
      </trkpt>
      <trkpt lat="47.5579950" lon="2.8429130">
        <ele>144.4</ele>
        <time>2020-07-03T10:10:56Z</time>
      </trkpt>
      <trkpt lat="47.5579960" lon="2.8429100">
        <ele>144.4</ele>
        <time>2020-07-03T10:10:58Z</time>
      </trkpt>
      <trkpt lat="47.5580110" lon="2.8428760">
        <ele>144.2</ele>
        <time>2020-07-03T10:11:14Z</time>
      </trkpt>
      <trkpt lat="47.5580070" lon="2.8428410">
        <ele>144.6</ele>
        <time>2020-07-03T10:11:29Z</time>
      </trkpt>
      <trkpt lat="47.5580290" lon="2.8428180">
        <ele>144.4</ele>
        <time>2020-07-03T10:11:46Z</time>
      </trkpt>
      <trkpt lat="47.5579970" lon="2.8428400">
        <ele>144.4</ele>
        <time>2020-07-03T10:12:03Z</time>
      </trkpt>
      <trkpt lat="47.5579930" lon="2.8428390">
        <ele>144.2</ele>
        <time>2020-07-03T10:12:21Z</time>
      </trkpt>
      <trkpt lat="47.5579620" lon="2.8428400">
        <ele>144.2</ele>
        <time>2020-07-03T10:12:38Z</time>
      </trkpt>
      <trkpt lat="47.5579720" lon="2.8428540">
        <ele>144.2</ele>
        <time>2020-07-03T10:12:55Z</time>
      </trkpt>
      <trkpt lat="47.5579740" lon="2.8428590">
        <ele>144.2</ele>
        <time>2020-07-03T10:13:08Z</time>
      </trkpt>
      <trkpt lat="47.5579820" lon="2.8428680">
        <ele>143.8</ele>
        <time>2020-07-03T10:13:27Z</time>
      </trkpt>
      <trkpt lat="47.5579490" lon="2.8428740">
        <ele>144.2</ele>
        <time>2020-07-03T10:13:38Z</time>
      </trkpt>
      <trkpt lat="47.5579360" lon="2.8428760">
        <ele>144.2</ele>
        <time>2020-07-03T10:13:53Z</time>
      </trkpt>
      <trkpt lat="47.5579260" lon="2.8428880">
        <ele>144.0</ele>
        <time>2020-07-03T10:14:11Z</time>
      </trkpt>
      <trkpt lat="47.5579160" lon="2.8428950">
        <ele>144.0</ele>
        <time>2020-07-03T10:14:25Z</time>
      </trkpt>
      <trkpt lat="47.5579180" lon="2.8429000">
        <ele>144.0</ele>
        <time>2020-07-03T10:14:43Z</time>
      </trkpt>
      <trkpt lat="47.5579060" lon="2.8428810">
        <ele>144.0</ele>
        <time>2020-07-03T10:15:01Z</time>
      </trkpt>
      <trkpt lat="47.5579050" lon="2.8428810">
        <ele>144.0</ele>
        <time>2020-07-03T10:15:18Z</time>
      </trkpt>
      <trkpt lat="47.5579090" lon="2.8428680">
        <ele>144.0</ele>
        <time>2020-07-03T10:15:27Z</time>
      </trkpt>
      <trkpt lat="47.5579020" lon="2.8428530">
        <ele>144.0</ele>
        <time>2020-07-03T10:15:44Z</time>
      </trkpt>
      <trkpt lat="47.5579010" lon="2.8427770">
        <ele>144.0</ele>
        <time>2020-07-03T10:15:58Z</time>
      </trkpt>
      <trkpt lat="47.5578670" lon="2.8427440">
        <ele>144.2</ele>
        <time>2020-07-03T10:16:15Z</time>
      </trkpt>
      <trkpt lat="47.5579350" lon="2.8427220">
        <ele>144.0</ele>
        <time>2020-07-03T10:16:25Z</time>
      </trkpt>
      <trkpt lat="47.5579490" lon="2.8427370">
        <ele>144.2</ele>
        <time>2020-07-03T10:16:43Z</time>
      </trkpt>
      <trkpt lat="47.5579420" lon="2.8427400">
        <ele>144.2</ele>
        <time>2020-07-03T10:16:55Z</time>
      </trkpt>
      <trkpt lat="47.5579470" lon="2.8427370">
        <ele>144.4</ele>
        <time>2020-07-03T10:16:57Z</time>
      </trkpt>
      <trkpt lat="47.5579400" lon="2.8427400">
        <ele>144.0</ele>
        <time>2020-07-03T10:17:18Z</time>
      </trkpt>
      <trkpt lat="47.5578890" lon="2.8427660">
        <ele>144.2</ele>
        <time>2020-07-03T10:17:32Z</time>
      </trkpt>
      <trkpt lat="47.5578970" lon="2.8427840">
        <ele>144.2</ele>
        <time>2020-07-03T10:17:47Z</time>
      </trkpt>
      <trkpt lat="47.5579350" lon="2.8427950">
        <ele>144.2</ele>
        <time>2020-07-03T10:18:03Z</time>
      </trkpt>
      <trkpt lat="47.5579460" lon="2.8426990">
        <ele>144.4</ele>
        <time>2020-07-03T10:18:23Z</time>
      </trkpt>
      <trkpt lat="47.5579220" lon="2.8426970">
        <ele>144.2</ele>
        <time>2020-07-03T10:18:38Z</time>
      </trkpt>
      <trkpt lat="47.5579550" lon="2.8427160">
        <ele>144.4</ele>
        <time>2020-07-03T10:18:49Z</time>
      </trkpt>
      <trkpt lat="47.5579540" lon="2.8427220">
        <ele>144.2</ele>
        <time>2020-07-03T10:18:50Z</time>
      </trkpt>
      <trkpt lat="47.5579580" lon="2.8427230">
        <ele>144.4</ele>
        <time>2020-07-03T10:18:51Z</time>
      </trkpt>
      <trkpt lat="47.5579720" lon="2.8427290">
        <ele>144.2</ele>
        <time>2020-07-03T10:18:53Z</time>
      </trkpt>
      <trkpt lat="47.5579740" lon="2.8427320">
        <ele>144.4</ele>
        <time>2020-07-03T10:18:54Z</time>
      </trkpt>
      <trkpt lat="47.5579720" lon="2.8427400">
        <ele>144.4</ele>
        <time>2020-07-03T10:18:58Z</time>
      </trkpt>
      <trkpt lat="47.5580080" lon="2.8427560">
        <ele>144.2</ele>
        <time>2020-07-03T10:19:00Z</time>
      </trkpt>
      <trkpt lat="47.5580170" lon="2.8427620">
        <ele>144.4</ele>
        <time>2020-07-03T10:19:01Z</time>
      </trkpt>
      <trkpt lat="47.5580180" lon="2.8427620">
        <ele>144.4</ele>
        <time>2020-07-03T10:19:02Z</time>
      </trkpt>
      <trkpt lat="47.5580180" lon="2.8427670">
        <ele>144.8</ele>
        <time>2020-07-03T10:19:04Z</time>
      </trkpt>
      <trkpt lat="47.5580020" lon="2.8427860">
        <ele>144.8</ele>
        <time>2020-07-03T10:19:20Z</time>
      </trkpt>
      <trkpt lat="47.5579980" lon="2.8428040">
        <ele>144.8</ele>
        <time>2020-07-03T10:19:40Z</time>
      </trkpt>
      <trkpt lat="47.5580010" lon="2.8428130">
        <ele>145.0</ele>
        <time>2020-07-03T10:19:59Z</time>
      </trkpt>
      <trkpt lat="47.5580060" lon="2.8428130">
        <ele>145.0</ele>
        <time>2020-07-03T10:20:15Z</time>
      </trkpt>
      <trkpt lat="47.5579980" lon="2.8428120">
        <ele>145.0</ele>
        <time>2020-07-03T10:20:31Z</time>
      </trkpt>
      <trkpt lat="47.5579860" lon="2.8428100">
        <ele>145.0</ele>
        <time>2020-07-03T10:20:46Z</time>
      </trkpt>
      <trkpt lat="47.5579810" lon="2.8427960">
        <ele>144.6</ele>
        <time>2020-07-03T10:21:02Z</time>
      </trkpt>
      <trkpt lat="47.5579910" lon="2.8427460">
        <ele>144.8</ele>
        <time>2020-07-03T10:21:06Z</time>
      </trkpt>
      <trkpt lat="47.5579700" lon="2.8426580">
        <ele>144.6</ele>
        <time>2020-07-03T10:21:10Z</time>
      </trkpt>
      <trkpt lat="47.5579580" lon="2.8426330">
        <ele>144.6</ele>
        <time>2020-07-03T10:21:11Z</time>
      </trkpt>
      <trkpt lat="47.5578820" lon="2.8425240">
        <ele>144.6</ele>
        <time>2020-07-03T10:21:15Z</time>
      </trkpt>
      <trkpt lat="47.5577810" lon="2.8423270">
        <ele>144.0</ele>
        <time>2020-07-03T10:21:22Z</time>
      </trkpt>
      <trkpt lat="47.5577430" lon="2.8422740">
        <ele>143.6</ele>
        <time>2020-07-03T10:21:30Z</time>
      </trkpt>
      <trkpt lat="47.5577220" lon="2.8422630">
        <ele>143.6</ele>
        <time>2020-07-03T10:21:44Z</time>
      </trkpt>
      <trkpt lat="47.5577330" lon="2.8422140">
        <ele>143.6</ele>
        <time>2020-07-03T10:22:07Z</time>
      </trkpt>
      <trkpt lat="47.5577420" lon="2.8421980">
        <ele>143.8</ele>
        <time>2020-07-03T10:22:08Z</time>
      </trkpt>
      <trkpt lat="47.5578270" lon="2.8420820">
        <ele>143.8</ele>
        <time>2020-07-03T10:22:13Z</time>
      </trkpt>
      <trkpt lat="47.5580420" lon="2.8417550">
        <ele>143.4</ele>
        <time>2020-07-03T10:22:23Z</time>
      </trkpt>
      <trkpt lat="47.5582730" lon="2.8414400">
        <ele>143.0</ele>
        <time>2020-07-03T10:22:31Z</time>
      </trkpt>
      <trkpt lat="47.5585470" lon="2.8410460">
        <ele>142.8</ele>
        <time>2020-07-03T10:22:41Z</time>
      </trkpt>
      <trkpt lat="47.5585540" lon="2.8410020">
        <ele>142.8</ele>
        <time>2020-07-03T10:22:42Z</time>
      </trkpt>
      <trkpt lat="47.5585280" lon="2.8409000">
        <ele>142.6</ele>
        <time>2020-07-03T10:22:44Z</time>
      </trkpt>
      <trkpt lat="47.5584700" lon="2.8408120">
        <ele>142.6</ele>
        <time>2020-07-03T10:22:46Z</time>
      </trkpt>
      <trkpt lat="47.5583750" lon="2.8406980">
        <ele>142.4</ele>
        <time>2020-07-03T10:22:49Z</time>
      </trkpt>
      <trkpt lat="47.5582550" lon="2.8404920">
        <ele>141.2</ele>
        <time>2020-07-03T10:22:55Z</time>
      </trkpt>
      <trkpt lat="47.5582430" lon="2.8404340">
        <ele>140.8</ele>
        <time>2020-07-03T10:22:57Z</time>
      </trkpt>
      <trkpt lat="47.5582140" lon="2.8402740">
        <ele>140.2</ele>
        <time>2020-07-03T10:23:04Z</time>
      </trkpt>
      <trkpt lat="47.5582020" lon="2.8402100">
        <ele>139.2</ele>
        <time>2020-07-03T10:23:11Z</time>
      </trkpt>
      <trkpt lat="47.5582010" lon="2.8401780">
        <ele>139.2</ele>
        <time>2020-07-03T10:23:24Z</time>
      </trkpt>
      <trkpt lat="47.5582000" lon="2.8401760">
        <ele>139.0</ele>
        <time>2020-07-03T10:23:46Z</time>
      </trkpt>
      <trkpt lat="47.5581920" lon="2.8401740">
        <ele>139.0</ele>
        <time>2020-07-03T10:24:03Z</time>
      </trkpt>
      <trkpt lat="47.5581850" lon="2.8401810">
        <ele>139.0</ele>
        <time>2020-07-03T10:24:14Z</time>
      </trkpt>
      <trkpt lat="47.5582060" lon="2.8401690">
        <ele>139.0</ele>
        <time>2020-07-03T10:24:41Z</time>
      </trkpt>
      <trkpt lat="47.5582160" lon="2.8401700">
        <ele>139.2</ele>
        <time>2020-07-03T10:25:01Z</time>
      </trkpt>
      <trkpt lat="47.5582170" lon="2.8401600">
        <ele>139.0</ele>
        <time>2020-07-03T10:25:31Z</time>
      </trkpt>
      <trkpt lat="47.5582210" lon="2.8401660">
        <ele>139.0</ele>
        <time>2020-07-03T10:25:57Z</time>
      </trkpt>
      <trkpt lat="47.5582200" lon="2.8401650">
        <ele>139.2</ele>
        <time>2020-07-03T10:26:11Z</time>
      </trkpt>
      <trkpt lat="47.5582220" lon="2.8401570">
        <ele>139.4</ele>
        <time>2020-07-03T10:26:33Z</time>
      </trkpt>
      <trkpt lat="47.5582260" lon="2.8401530">
        <ele>139.6</ele>
        <time>2020-07-03T10:26:49Z</time>
      </trkpt>
      <trkpt lat="47.5582290" lon="2.8401530">
        <ele>139.4</ele>
        <time>2020-07-03T10:27:05Z</time>
      </trkpt>
      <trkpt lat="47.5582440" lon="2.8401480">
        <ele>139.2</ele>
        <time>2020-07-03T10:27:35Z</time>
      </trkpt>
      <trkpt lat="47.5582530" lon="2.8401550">
        <ele>139.4</ele>
        <time>2020-07-03T10:28:06Z</time>
      </trkpt>
      <trkpt lat="47.5582670" lon="2.8401570">
        <ele>139.4</ele>
        <time>2020-07-03T10:28:35Z</time>
      </trkpt>
      <trkpt lat="47.5582800" lon="2.8401510">
        <ele>138.8</ele>
        <time>2020-07-03T10:29:06Z</time>
      </trkpt>
      <trkpt lat="47.5582920" lon="2.8401470">
        <ele>139.2</ele>
        <time>2020-07-03T10:29:38Z</time>
      </trkpt>
      <trkpt lat="47.5582980" lon="2.8401450">
        <ele>139.4</ele>
        <time>2020-07-03T10:30:05Z</time>
      </trkpt>
      <trkpt lat="47.5582980" lon="2.8401500">
        <ele>139.2</ele>
        <time>2020-07-03T10:30:32Z</time>
      </trkpt>
      <trkpt lat="47.5582970" lon="2.8401510">
        <ele>139.2</ele>
        <time>2020-07-03T10:30:36Z</time>
      </trkpt>
      <trkpt lat="47.5582930" lon="2.8401540">
        <ele>139.4</ele>
        <time>2020-07-03T10:31:03Z</time>
      </trkpt>
      <trkpt lat="47.5582970" lon="2.8401580">
        <ele>139.8</ele>
        <time>2020-07-03T10:31:35Z</time>
      </trkpt>
      <trkpt lat="47.5583010" lon="2.8401670">
        <ele>139.8</ele>
        <time>2020-07-03T10:32:07Z</time>
      </trkpt>
      <trkpt lat="47.5583020" lon="2.8401660">
        <ele>139.4</ele>
        <time>2020-07-03T10:32:34Z</time>
      </trkpt>
      <trkpt lat="47.5583050" lon="2.8401690">
        <ele>139.2</ele>
        <time>2020-07-03T10:33:06Z</time>
      </trkpt>
      <trkpt lat="47.5583030" lon="2.8401760">
        <ele>139.8</ele>
        <time>2020-07-03T10:33:35Z</time>
      </trkpt>
      <trkpt lat="47.5583030" lon="2.8401810">
        <ele>139.4</ele>
        <time>2020-07-03T10:34:13Z</time>
      </trkpt>
      <trkpt lat="47.5583070" lon="2.8401860">
        <ele>139.4</ele>
        <time>2020-07-03T10:34:23Z</time>
      </trkpt>
      <trkpt lat="47.5583130" lon="2.8401890">
        <ele>139.4</ele>
        <time>2020-07-03T10:34:33Z</time>
      </trkpt>
      <trkpt lat="47.5583270" lon="2.8401850">
        <ele>139.6</ele>
        <time>2020-07-03T10:34:56Z</time>
      </trkpt>
      <trkpt lat="47.5583360" lon="2.8401880">
        <ele>139.0</ele>
        <time>2020-07-03T10:35:21Z</time>
      </trkpt>
      <trkpt lat="47.5583440" lon="2.8401850">
        <ele>139.4</ele>
        <time>2020-07-03T10:35:42Z</time>
      </trkpt>
      <trkpt lat="47.5583430" lon="2.8401920">
        <ele>139.4</ele>
        <time>2020-07-03T10:36:14Z</time>
      </trkpt>
      <trkpt lat="47.5583370" lon="2.8402000">
        <ele>139.4</ele>
        <time>2020-07-03T10:36:42Z</time>
      </trkpt>
      <trkpt lat="47.5583380" lon="2.8401990">
        <ele>139.8</ele>
        <time>2020-07-03T10:37:13Z</time>
      </trkpt>
      <trkpt lat="47.5583380" lon="2.8402030">
        <ele>139.6</ele>
        <time>2020-07-03T10:37:36Z</time>
      </trkpt>
      <trkpt lat="47.5583400" lon="2.8402070">
        <ele>139.4</ele>
        <time>2020-07-03T10:38:07Z</time>
      </trkpt>
      <trkpt lat="47.5583400" lon="2.8402070">
        <ele>139.4</ele>
        <time>2020-07-03T10:38:08Z</time>
      </trkpt>
      <trkpt lat="47.5583390" lon="2.8402100">
        <ele>139.4</ele>
        <time>2020-07-03T10:38:26Z</time>
      </trkpt>
      <trkpt lat="47.5583340" lon="2.8402210">
        <ele>139.6</ele>
        <time>2020-07-03T10:39:00Z</time>
      </trkpt>
      <trkpt lat="47.5583260" lon="2.8402340">
        <ele>139.6</ele>
        <time>2020-07-03T10:39:31Z</time>
      </trkpt>
      <trkpt lat="47.5583230" lon="2.8402470">
        <ele>139.8</ele>
        <time>2020-07-03T10:40:01Z</time>
      </trkpt>
      <trkpt lat="47.5583190" lon="2.8402480">
        <ele>139.8</ele>
        <time>2020-07-03T10:40:25Z</time>
      </trkpt>
      <trkpt lat="47.5583210" lon="2.8402480">
        <ele>140.0</ele>
        <time>2020-07-03T10:40:46Z</time>
      </trkpt>
      <trkpt lat="47.5583270" lon="2.8402480">
        <ele>140.2</ele>
        <time>2020-07-03T10:41:12Z</time>
      </trkpt>
      <trkpt lat="47.5583380" lon="2.8402440">
        <ele>140.2</ele>
        <time>2020-07-03T10:41:41Z</time>
      </trkpt>
      <trkpt lat="47.5583520" lon="2.8402460">
        <ele>140.2</ele>
        <time>2020-07-03T10:42:03Z</time>
      </trkpt>
      <trkpt lat="47.5583640" lon="2.8402490">
        <ele>140.2</ele>
        <time>2020-07-03T10:42:31Z</time>
      </trkpt>
      <trkpt lat="47.5583670" lon="2.8402490">
        <ele>140.0</ele>
        <time>2020-07-03T10:42:47Z</time>
      </trkpt>
      <trkpt lat="47.5583650" lon="2.8402560">
        <ele>139.8</ele>
        <time>2020-07-03T10:43:16Z</time>
      </trkpt>
      <trkpt lat="47.5583620" lon="2.8402740">
        <ele>139.8</ele>
        <time>2020-07-03T10:43:42Z</time>
      </trkpt>
      <trkpt lat="47.5583640" lon="2.8402900">
        <ele>139.8</ele>
        <time>2020-07-03T10:44:03Z</time>
      </trkpt>
      <trkpt lat="47.5584120" lon="2.8403490">
        <ele>139.8</ele>
        <time>2020-07-03T10:44:24Z</time>
      </trkpt>
      <trkpt lat="47.5584100" lon="2.8403670">
        <ele>139.6</ele>
        <time>2020-07-03T10:44:41Z</time>
      </trkpt>
      <trkpt lat="47.5584190" lon="2.8403650">
        <ele>139.6</ele>
        <time>2020-07-03T10:44:58Z</time>
      </trkpt>
      <trkpt lat="47.5584230" lon="2.8403530">
        <ele>139.8</ele>
        <time>2020-07-03T10:45:25Z</time>
      </trkpt>
      <trkpt lat="47.5584240" lon="2.8403570">
        <ele>139.6</ele>
        <time>2020-07-03T10:45:48Z</time>
      </trkpt>
      <trkpt lat="47.5584240" lon="2.8403530">
        <ele>139.6</ele>
        <time>2020-07-03T10:46:08Z</time>
      </trkpt>
      <trkpt lat="47.5584200" lon="2.8403480">
        <ele>139.6</ele>
        <time>2020-07-03T10:46:29Z</time>
      </trkpt>
      <trkpt lat="47.5584050" lon="2.8403430">
        <ele>139.6</ele>
        <time>2020-07-03T10:46:48Z</time>
      </trkpt>
      <trkpt lat="47.5583980" lon="2.8403450">
        <ele>139.4</ele>
        <time>2020-07-03T10:47:11Z</time>
      </trkpt>
      <trkpt lat="47.5583900" lon="2.8403460">
        <ele>139.6</ele>
        <time>2020-07-03T10:47:42Z</time>
      </trkpt>
      <trkpt lat="47.5583830" lon="2.8403400">
        <ele>139.4</ele>
        <time>2020-07-03T10:48:13Z</time>
      </trkpt>
      <trkpt lat="47.5583730" lon="2.8403370">
        <ele>139.6</ele>
        <time>2020-07-03T10:48:44Z</time>
      </trkpt>
      <trkpt lat="47.5583690" lon="2.8403350">
        <ele>139.4</ele>
        <time>2020-07-03T10:49:12Z</time>
      </trkpt>
      <trkpt lat="47.5583670" lon="2.8403280">
        <ele>139.2</ele>
        <time>2020-07-03T10:49:42Z</time>
      </trkpt>
      <trkpt lat="47.5583540" lon="2.8403120">
        <ele>139.2</ele>
        <time>2020-07-03T10:49:59Z</time>
      </trkpt>
      <trkpt lat="47.5583470" lon="2.8403110">
        <ele>139.0</ele>
        <time>2020-07-03T10:50:32Z</time>
      </trkpt>
      <trkpt lat="47.5583390" lon="2.8403140">
        <ele>138.8</ele>
        <time>2020-07-03T10:50:56Z</time>
      </trkpt>
      <trkpt lat="47.5583380" lon="2.8403140">
        <ele>139.0</ele>
        <time>2020-07-03T10:50:59Z</time>
      </trkpt>
      <trkpt lat="47.5583360" lon="2.8403210">
        <ele>138.6</ele>
        <time>2020-07-03T10:51:25Z</time>
      </trkpt>
      <trkpt lat="47.5583310" lon="2.8403130">
        <ele>138.6</ele>
        <time>2020-07-03T10:51:54Z</time>
      </trkpt>
      <trkpt lat="47.5583260" lon="2.8403230">
        <ele>138.4</ele>
        <time>2020-07-03T10:52:25Z</time>
      </trkpt>
      <trkpt lat="47.5583200" lon="2.8403150">
        <ele>138.6</ele>
        <time>2020-07-03T10:52:54Z</time>
      </trkpt>
      <trkpt lat="47.5583070" lon="2.8403150">
        <ele>138.6</ele>
        <time>2020-07-03T10:53:21Z</time>
      </trkpt>
      <trkpt lat="47.5582950" lon="2.8403080">
        <ele>138.6</ele>
        <time>2020-07-03T10:53:54Z</time>
      </trkpt>
      <trkpt lat="47.5582840" lon="2.8403070">
        <ele>138.6</ele>
        <time>2020-07-03T10:54:27Z</time>
      </trkpt>
      <trkpt lat="47.5582770" lon="2.8403090">
        <ele>138.8</ele>
        <time>2020-07-03T10:55:01Z</time>
      </trkpt>
      <trkpt lat="47.5582720" lon="2.8403100">
        <ele>139.0</ele>
        <time>2020-07-03T10:55:37Z</time>
      </trkpt>
      <trkpt lat="47.5582640" lon="2.8403110">
        <ele>139.0</ele>
        <time>2020-07-03T10:56:11Z</time>
      </trkpt>
      <trkpt lat="47.5582530" lon="2.8403140">
        <ele>139.0</ele>
        <time>2020-07-03T10:56:43Z</time>
      </trkpt>
      <trkpt lat="47.5582470" lon="2.8403240">
        <ele>139.0</ele>
        <time>2020-07-03T10:57:01Z</time>
      </trkpt>
      <trkpt lat="47.5582480" lon="2.8403250">
        <ele>138.8</ele>
        <time>2020-07-03T10:57:31Z</time>
      </trkpt>
      <trkpt lat="47.5582470" lon="2.8403180">
        <ele>139.0</ele>
        <time>2020-07-03T10:57:55Z</time>
      </trkpt>
      <trkpt lat="47.5582500" lon="2.8403150">
        <ele>139.0</ele>
        <time>2020-07-03T10:58:26Z</time>
      </trkpt>
      <trkpt lat="47.5582450" lon="2.8403060">
        <ele>139.2</ele>
        <time>2020-07-03T10:58:54Z</time>
      </trkpt>
      <trkpt lat="47.5582420" lon="2.8403060">
        <ele>138.8</ele>
        <time>2020-07-03T10:59:26Z</time>
      </trkpt>
      <trkpt lat="47.5582400" lon="2.8403060">
        <ele>138.8</ele>
        <time>2020-07-03T11:00:02Z</time>
      </trkpt>
      <trkpt lat="47.5582370" lon="2.8402850">
        <ele>138.6</ele>
        <time>2020-07-03T11:00:29Z</time>
      </trkpt>
      <trkpt lat="47.5582340" lon="2.8402910">
        <ele>138.6</ele>
        <time>2020-07-03T11:01:03Z</time>
      </trkpt>
      <trkpt lat="47.5582200" lon="2.8402910">
        <ele>138.4</ele>
        <time>2020-07-03T11:01:40Z</time>
      </trkpt>
      <trkpt lat="47.5582150" lon="2.8402970">
        <ele>138.6</ele>
        <time>2020-07-03T11:02:13Z</time>
      </trkpt>
      <trkpt lat="47.5582170" lon="2.8402900">
        <ele>138.6</ele>
        <time>2020-07-03T11:02:27Z</time>
      </trkpt>
      <trkpt lat="47.5582170" lon="2.8402820">
        <ele>138.6</ele>
        <time>2020-07-03T11:02:56Z</time>
      </trkpt>
      <trkpt lat="47.5582160" lon="2.8402690">
        <ele>138.6</ele>
        <time>2020-07-03T11:03:27Z</time>
      </trkpt>
      <trkpt lat="47.5582070" lon="2.8402630">
        <ele>138.6</ele>
        <time>2020-07-03T11:04:02Z</time>
      </trkpt>
      <trkpt lat="47.5581920" lon="2.8402650">
        <ele>138.4</ele>
        <time>2020-07-03T11:04:39Z</time>
      </trkpt>
      <trkpt lat="47.5581660" lon="2.8402170">
        <ele>138.6</ele>
        <time>2020-07-03T11:05:01Z</time>
      </trkpt>
      <trkpt lat="47.5581610" lon="2.8402500">
        <ele>138.4</ele>
        <time>2020-07-03T11:05:18Z</time>
      </trkpt>
      <trkpt lat="47.5582000" lon="2.8403650">
        <ele>138.6</ele>
        <time>2020-07-03T11:05:32Z</time>
      </trkpt>
      <trkpt lat="47.5582040" lon="2.8403880">
        <ele>138.8</ele>
        <time>2020-07-03T11:05:46Z</time>
      </trkpt>
      <trkpt lat="47.5582040" lon="2.8403890">
        <ele>138.6</ele>
        <time>2020-07-03T11:05:47Z</time>
      </trkpt>
      <trkpt lat="47.5582020" lon="2.8403910">
        <ele>138.8</ele>
        <time>2020-07-03T11:05:49Z</time>
      </trkpt>
      <trkpt lat="47.5581930" lon="2.8403990">
        <ele>138.6</ele>
        <time>2020-07-03T11:06:10Z</time>
      </trkpt>
      <trkpt lat="47.5581970" lon="2.8403870">
        <ele>138.6</ele>
        <time>2020-07-03T11:06:32Z</time>
      </trkpt>
      <trkpt lat="47.5581980" lon="2.8403870">
        <ele>138.6</ele>
        <time>2020-07-03T11:06:43Z</time>
      </trkpt>
      <trkpt lat="47.5581970" lon="2.8403850">
        <ele>138.4</ele>
        <time>2020-07-03T11:07:13Z</time>
      </trkpt>
      <trkpt lat="47.5581970" lon="2.8403850">
        <ele>138.6</ele>
        <time>2020-07-03T11:07:19Z</time>
      </trkpt>
      <trkpt lat="47.5581970" lon="2.8403810">
        <ele>138.8</ele>
        <time>2020-07-03T11:07:39Z</time>
      </trkpt>
      <trkpt lat="47.5582040" lon="2.8403810">
        <ele>138.2</ele>
        <time>2020-07-03T11:08:05Z</time>
      </trkpt>
      <trkpt lat="47.5582010" lon="2.8403870">
        <ele>138.6</ele>
        <time>2020-07-03T11:08:37Z</time>
      </trkpt>
      <trkpt lat="47.5582010" lon="2.8403830">
        <ele>138.4</ele>
        <time>2020-07-03T11:08:43Z</time>
      </trkpt>
      <trkpt lat="47.5581990" lon="2.8403900">
        <ele>138.4</ele>
        <time>2020-07-03T11:09:11Z</time>
      </trkpt>
      <trkpt lat="47.5581960" lon="2.8403890">
        <ele>138.4</ele>
        <time>2020-07-03T11:09:44Z</time>
      </trkpt>
      <trkpt lat="47.5581970" lon="2.8403900">
        <ele>138.2</ele>
        <time>2020-07-03T11:09:56Z</time>
      </trkpt>
      <trkpt lat="47.5581890" lon="2.8403980">
        <ele>138.4</ele>
        <time>2020-07-03T11:10:09Z</time>
      </trkpt>
      <trkpt lat="47.5581580" lon="2.8403900">
        <ele>138.4</ele>
        <time>2020-07-03T11:10:17Z</time>
      </trkpt>
      <trkpt lat="47.5581500" lon="2.8403710">
        <ele>138.8</ele>
        <time>2020-07-03T11:10:24Z</time>
      </trkpt>
      <trkpt lat="47.5581500" lon="2.8403710">
        <ele>138.8</ele>
        <time>2020-07-03T11:10:26Z</time>
      </trkpt>
      <trkpt lat="47.5581500" lon="2.8403710">
        <ele>138.8</ele>
        <time>2020-07-03T11:10:27Z</time>
      </trkpt>
      <trkpt lat="47.5580980" lon="2.8403230">
        <ele>139.2</ele>
        <time>2020-07-03T11:10:38Z</time>
      </trkpt>
      <trkpt lat="47.5580190" lon="2.8402550">
        <ele>139.0</ele>
        <time>2020-07-03T11:10:44Z</time>
      </trkpt>
      <trkpt lat="47.5579800" lon="2.8402060">
        <ele>139.0</ele>
        <time>2020-07-03T11:10:47Z</time>
      </trkpt>
      <trkpt lat="47.5579040" lon="2.8401040">
        <ele>138.8</ele>
        <time>2020-07-03T11:10:51Z</time>
      </trkpt>
      <trkpt lat="47.5578460" lon="2.8400340">
        <ele>138.6</ele>
        <time>2020-07-03T11:10:53Z</time>
      </trkpt>
      <trkpt lat="47.5577330" lon="2.8399140">
        <ele>138.2</ele>
        <time>2020-07-03T11:10:56Z</time>
      </trkpt>
      <trkpt lat="47.5576100" lon="2.8397880">
        <ele>137.8</ele>
        <time>2020-07-03T11:10:59Z</time>
      </trkpt>
      <trkpt lat="47.5573810" lon="2.8394810">
        <ele>136.2</ele>
        <time>2020-07-03T11:11:06Z</time>
      </trkpt>
      <trkpt lat="47.5572620" lon="2.8392880">
        <ele>136.0</ele>
        <time>2020-07-03T11:11:11Z</time>
      </trkpt>
      <trkpt lat="47.5572370" lon="2.8392490">
        <ele>135.8</ele>
        <time>2020-07-03T11:11:12Z</time>
      </trkpt>
      <trkpt lat="47.5569720" lon="2.8388740">
        <ele>135.6</ele>
        <time>2020-07-03T11:11:20Z</time>
      </trkpt>
      <trkpt lat="47.5568610" lon="2.8387260">
        <ele>135.4</ele>
        <time>2020-07-03T11:11:24Z</time>
      </trkpt>
      <trkpt lat="47.5567410" lon="2.8385500">
        <ele>135.4</ele>
        <time>2020-07-03T11:11:28Z</time>
      </trkpt>
      <trkpt lat="47.5566840" lon="2.8384780">
        <ele>135.6</ele>
        <time>2020-07-03T11:11:30Z</time>
      </trkpt>
      <trkpt lat="47.5564800" lon="2.8382310">
        <ele>136.6</ele>
        <time>2020-07-03T11:11:37Z</time>
      </trkpt>
      <trkpt lat="47.5564510" lon="2.8381920">
        <ele>136.6</ele>
        <time>2020-07-03T11:11:38Z</time>
      </trkpt>
      <trkpt lat="47.5562580" lon="2.8378960">
        <ele>136.8</ele>
        <time>2020-07-03T11:11:45Z</time>
      </trkpt>
      <trkpt lat="47.5561060" lon="2.8375960">
        <ele>137.0</ele>
        <time>2020-07-03T11:11:52Z</time>
      </trkpt>
      <trkpt lat="47.5560500" lon="2.8375030">
        <ele>136.8</ele>
        <time>2020-07-03T11:11:54Z</time>
      </trkpt>
      <trkpt lat="47.5558750" lon="2.8372250">
        <ele>137.0</ele>
        <time>2020-07-03T11:12:00Z</time>
      </trkpt>
      <trkpt lat="47.5558350" lon="2.8371960">
        <ele>137.0</ele>
        <time>2020-07-03T11:12:01Z</time>
      </trkpt>
      <trkpt lat="47.5557830" lon="2.8371700">
        <ele>137.0</ele>
        <time>2020-07-03T11:12:02Z</time>
      </trkpt>
      <trkpt lat="47.5556840" lon="2.8371650">
        <ele>137.0</ele>
        <time>2020-07-03T11:12:04Z</time>
      </trkpt>
      <trkpt lat="47.5556050" lon="2.8372140">
        <ele>137.0</ele>
        <time>2020-07-03T11:12:06Z</time>
      </trkpt>
      <trkpt lat="47.5555380" lon="2.8373020">
        <ele>136.8</ele>
        <time>2020-07-03T11:12:08Z</time>
      </trkpt>
      <trkpt lat="47.5551920" lon="2.8378010">
        <ele>136.4</ele>
        <time>2020-07-03T11:12:18Z</time>
      </trkpt>
      <trkpt lat="47.5549740" lon="2.8381710">
        <ele>136.2</ele>
        <time>2020-07-03T11:12:25Z</time>
      </trkpt>
      <trkpt lat="47.5549190" lon="2.8382880">
        <ele>136.2</ele>
        <time>2020-07-03T11:12:27Z</time>
      </trkpt>
      <trkpt lat="47.5546390" lon="2.8386780">
        <ele>136.4</ele>
        <time>2020-07-03T11:12:35Z</time>
      </trkpt>
      <trkpt lat="47.5543020" lon="2.8390400">
        <ele>136.8</ele>
        <time>2020-07-03T11:12:44Z</time>
      </trkpt>
      <trkpt lat="47.5540260" lon="2.8393160">
        <ele>136.8</ele>
        <time>2020-07-03T11:12:52Z</time>
      </trkpt>
      <trkpt lat="47.5536790" lon="2.8395210">
        <ele>136.8</ele>
        <time>2020-07-03T11:13:00Z</time>
      </trkpt>
      <trkpt lat="47.5532790" lon="2.8398310">
        <ele>136.4</ele>
        <time>2020-07-03T11:13:09Z</time>
      </trkpt>
      <trkpt lat="47.5528640" lon="2.8401390">
        <ele>136.6</ele>
        <time>2020-07-03T11:13:19Z</time>
      </trkpt>
      <trkpt lat="47.5524630" lon="2.8404080">
        <ele>136.6</ele>
        <time>2020-07-03T11:13:29Z</time>
      </trkpt>
      <trkpt lat="47.5523500" lon="2.8404480">
        <ele>136.6</ele>
        <time>2020-07-03T11:13:33Z</time>
      </trkpt>
      <trkpt lat="47.5522760" lon="2.8404360">
        <ele>136.8</ele>
        <time>2020-07-03T11:13:36Z</time>
      </trkpt>
      <trkpt lat="47.5522390" lon="2.8403940">
        <ele>136.8</ele>
        <time>2020-07-03T11:13:38Z</time>
      </trkpt>
      <trkpt lat="47.5521270" lon="2.8402690">
        <ele>136.8</ele>
        <time>2020-07-03T11:13:42Z</time>
      </trkpt>
      <trkpt lat="47.5520990" lon="2.8402280">
        <ele>136.8</ele>
        <time>2020-07-03T11:13:43Z</time>
      </trkpt>
      <trkpt lat="47.5519640" lon="2.8399990">
        <ele>136.6</ele>
        <time>2020-07-03T11:13:48Z</time>
      </trkpt>
      <trkpt lat="47.5518680" lon="2.8398180">
        <ele>136.2</ele>
        <time>2020-07-03T11:13:52Z</time>
      </trkpt>
      <trkpt lat="47.5518160" lon="2.8396900">
        <ele>136.0</ele>
        <time>2020-07-03T11:13:55Z</time>
      </trkpt>
      <trkpt lat="47.5517490" lon="2.8395860">
        <ele>136.2</ele>
        <time>2020-07-03T11:13:59Z</time>
      </trkpt>
      <trkpt lat="47.5517440" lon="2.8395530">
        <ele>136.2</ele>
        <time>2020-07-03T11:14:00Z</time>
      </trkpt>
      <trkpt lat="47.5516550" lon="2.8392520">
        <ele>136.4</ele>
        <time>2020-07-03T11:14:07Z</time>
      </trkpt>
      <trkpt lat="47.5515770" lon="2.8388860">
        <ele>136.4</ele>
        <time>2020-07-03T11:14:14Z</time>
      </trkpt>
      <trkpt lat="47.5515580" lon="2.8387760">
        <ele>136.4</ele>
        <time>2020-07-03T11:14:16Z</time>
      </trkpt>
      <trkpt lat="47.5515310" lon="2.8385780">
        <ele>136.2</ele>
        <time>2020-07-03T11:14:20Z</time>
      </trkpt>
      <trkpt lat="47.5515270" lon="2.8385280">
        <ele>136.2</ele>
        <time>2020-07-03T11:14:21Z</time>
      </trkpt>
      <trkpt lat="47.5514660" lon="2.8381850">
        <ele>135.8</ele>
        <time>2020-07-03T11:14:27Z</time>
      </trkpt>
      <trkpt lat="47.5514510" lon="2.8381210">
        <ele>135.8</ele>
        <time>2020-07-03T11:14:28Z</time>
      </trkpt>
      <trkpt lat="47.5513920" lon="2.8379050">
        <ele>135.8</ele>
        <time>2020-07-03T11:14:31Z</time>
      </trkpt>
      <trkpt lat="47.5513070" lon="2.8376180">
        <ele>135.8</ele>
        <time>2020-07-03T11:14:35Z</time>
      </trkpt>
      <trkpt lat="47.5512630" lon="2.8374880">
        <ele>135.6</ele>
        <time>2020-07-03T11:14:36Z</time>
      </trkpt>
      <trkpt lat="47.5512350" lon="2.8374390">
        <ele>135.6</ele>
        <time>2020-07-03T11:14:38Z</time>
      </trkpt>
      <trkpt lat="47.5511710" lon="2.8374080">
        <ele>135.6</ele>
        <time>2020-07-03T11:14:39Z</time>
      </trkpt>
      <trkpt lat="47.5511240" lon="2.8374140">
        <ele>135.6</ele>
        <time>2020-07-03T11:14:41Z</time>
      </trkpt>
      <trkpt lat="47.5509970" lon="2.8375020">
        <ele>135.6</ele>
        <time>2020-07-03T11:14:44Z</time>
      </trkpt>
      <trkpt lat="47.5509850" lon="2.8375980">
        <ele>135.6</ele>
        <time>2020-07-03T11:14:45Z</time>
      </trkpt>
      <trkpt lat="47.5509850" lon="2.8375980">
        <ele>135.4</ele>
        <time>2020-07-03T11:14:46Z</time>
      </trkpt>
      <trkpt lat="47.5509910" lon="2.8376420">
        <ele>135.6</ele>
        <time>2020-07-03T11:14:47Z</time>
      </trkpt>
      <trkpt lat="47.5510260" lon="2.8377910">
        <ele>135.6</ele>
        <time>2020-07-03T11:14:49Z</time>
      </trkpt>
      <trkpt lat="47.5510260" lon="2.8377910">
        <ele>135.6</ele>
        <time>2020-07-03T11:14:50Z</time>
      </trkpt>
      <trkpt lat="47.5510570" lon="2.8379040">
        <ele>135.4</ele>
        <time>2020-07-03T11:14:52Z</time>
      </trkpt>
      <trkpt lat="47.5510740" lon="2.8379610">
        <ele>135.6</ele>
        <time>2020-07-03T11:14:53Z</time>
      </trkpt>
      <trkpt lat="47.5511320" lon="2.8381710">
        <ele>135.8</ele>
        <time>2020-07-03T11:14:56Z</time>
      </trkpt>
      <trkpt lat="47.5511810" lon="2.8383160">
        <ele>135.8</ele>
        <time>2020-07-03T11:14:58Z</time>
      </trkpt>
      <trkpt lat="47.5513670" lon="2.8388420">
        <ele>135.8</ele>
        <time>2020-07-03T11:15:06Z</time>
      </trkpt>
      <trkpt lat="47.5515580" lon="2.8394000">
        <ele>136.0</ele>
        <time>2020-07-03T11:15:14Z</time>
      </trkpt>
      <trkpt lat="47.5516000" lon="2.8395130">
        <ele>136.0</ele>
        <time>2020-07-03T11:15:16Z</time>
      </trkpt>
      <trkpt lat="47.5516780" lon="2.8396800">
        <ele>136.2</ele>
        <time>2020-07-03T11:15:20Z</time>
      </trkpt>
      <trkpt lat="47.5518820" lon="2.8400630">
        <ele>136.8</ele>
        <time>2020-07-03T11:15:29Z</time>
      </trkpt>
      <trkpt lat="47.5521180" lon="2.8403980">
        <ele>137.0</ele>
        <time>2020-07-03T11:15:37Z</time>
      </trkpt>
      <trkpt lat="47.5523150" lon="2.8406190">
        <ele>137.4</ele>
        <time>2020-07-03T11:15:45Z</time>
      </trkpt>
      <trkpt lat="47.5523690" lon="2.8406520">
        <ele>137.6</ele>
        <time>2020-07-03T11:15:49Z</time>
      </trkpt>
      <trkpt lat="47.5523910" lon="2.8406280">
        <ele>137.4</ele>
        <time>2020-07-03T11:15:51Z</time>
      </trkpt>
      <trkpt lat="47.5523890" lon="2.8405910">
        <ele>137.4</ele>
        <time>2020-07-03T11:15:53Z</time>
      </trkpt>
      <trkpt lat="47.5523510" lon="2.8405350">
        <ele>137.6</ele>
        <time>2020-07-03T11:15:56Z</time>
      </trkpt>
      <trkpt lat="47.5523310" lon="2.8405000">
        <ele>137.4</ele>
        <time>2020-07-03T11:16:04Z</time>
      </trkpt>
      <trkpt lat="47.5523080" lon="2.8404590">
        <ele>137.4</ele>
        <time>2020-07-03T11:16:28Z</time>
      </trkpt>
      <trkpt lat="47.5522830" lon="2.8404030">
        <ele>137.4</ele>
        <time>2020-07-03T11:16:39Z</time>
      </trkpt>
      <trkpt lat="47.5521700" lon="2.8402770">
        <ele>137.2</ele>
        <time>2020-07-03T11:16:45Z</time>
      </trkpt>
      <trkpt lat="47.5521500" lon="2.8402520">
        <ele>137.2</ele>
        <time>2020-07-03T11:16:46Z</time>
      </trkpt>
      <trkpt lat="47.5520500" lon="2.8400830">
        <ele>137.0</ele>
        <time>2020-07-03T11:16:51Z</time>
      </trkpt>
      <trkpt lat="47.5518830" lon="2.8397810">
        <ele>136.0</ele>
        <time>2020-07-03T11:16:59Z</time>
      </trkpt>
      <trkpt lat="47.5516990" lon="2.8394400">
        <ele>136.0</ele>
        <time>2020-07-03T11:17:06Z</time>
      </trkpt>
      <trkpt lat="47.5515710" lon="2.8391500">
        <ele>135.8</ele>
        <time>2020-07-03T11:17:12Z</time>
      </trkpt>
      <trkpt lat="47.5515360" lon="2.8389550">
        <ele>136.0</ele>
        <time>2020-07-03T11:17:16Z</time>
      </trkpt>
      <trkpt lat="47.5515220" lon="2.8388720">
        <ele>136.2</ele>
        <time>2020-07-03T11:17:18Z</time>
      </trkpt>
      <trkpt lat="47.5515200" lon="2.8388390">
        <ele>136.2</ele>
        <time>2020-07-03T11:17:19Z</time>
      </trkpt>
      <trkpt lat="47.5515270" lon="2.8388170">
        <ele>136.0</ele>
        <time>2020-07-03T11:17:20Z</time>
      </trkpt>
      <trkpt lat="47.5515720" lon="2.8387940">
        <ele>136.2</ele>
        <time>2020-07-03T11:17:22Z</time>
      </trkpt>
      <trkpt lat="47.5515860" lon="2.8387070">
        <ele>136.8</ele>
        <time>2020-07-03T11:17:26Z</time>
      </trkpt>
      <trkpt lat="47.5515840" lon="2.8386810">
        <ele>137.0</ele>
        <time>2020-07-03T11:17:27Z</time>
      </trkpt>
      <trkpt lat="47.5515670" lon="2.8386060">
        <ele>137.4</ele>
        <time>2020-07-03T11:17:29Z</time>
      </trkpt>
      <trkpt lat="47.5515290" lon="2.8385080">
        <ele>137.6</ele>
        <time>2020-07-03T11:17:31Z</time>
      </trkpt>
      <trkpt lat="47.5515120" lon="2.8384620">
        <ele>137.6</ele>
        <time>2020-07-03T11:17:32Z</time>
      </trkpt>
      <trkpt lat="47.5513800" lon="2.8381370">
        <ele>138.8</ele>
        <time>2020-07-03T11:17:38Z</time>
      </trkpt>
      <trkpt lat="47.5513410" lon="2.8380300">
        <ele>139.2</ele>
        <time>2020-07-03T11:17:40Z</time>
      </trkpt>
      <trkpt lat="47.5512570" lon="2.8377850">
        <ele>139.8</ele>
        <time>2020-07-03T11:17:44Z</time>
      </trkpt>
      <trkpt lat="47.5512410" lon="2.8377340">
        <ele>140.0</ele>
        <time>2020-07-03T11:17:45Z</time>
      </trkpt>
      <trkpt lat="47.5512280" lon="2.8376870">
        <ele>140.0</ele>
        <time>2020-07-03T11:17:46Z</time>
      </trkpt>
      <trkpt lat="47.5511930" lon="2.8375830">
        <ele>140.2</ele>
        <time>2020-07-03T11:17:48Z</time>
      </trkpt>
      <trkpt lat="47.5511180" lon="2.8373190">
        <ele>141.0</ele>
        <time>2020-07-03T11:17:53Z</time>
      </trkpt>
      <trkpt lat="47.5510560" lon="2.8370680">
        <ele>141.2</ele>
        <time>2020-07-03T11:17:58Z</time>
      </trkpt>
      <trkpt lat="47.5509210" lon="2.8366360">
        <ele>141.8</ele>
        <time>2020-07-03T11:18:05Z</time>
      </trkpt>
      <trkpt lat="47.5507460" lon="2.8361150">
        <ele>142.2</ele>
        <time>2020-07-03T11:18:13Z</time>
      </trkpt>
      <trkpt lat="47.5506710" lon="2.8358630">
        <ele>142.2</ele>
        <time>2020-07-03T11:18:17Z</time>
      </trkpt>
      <trkpt lat="47.5506080" lon="2.8356690">
        <ele>142.2</ele>
        <time>2020-07-03T11:18:20Z</time>
      </trkpt>
      <trkpt lat="47.5504440" lon="2.8351530">
        <ele>141.4</ele>
        <time>2020-07-03T11:18:28Z</time>
      </trkpt>
      <trkpt lat="47.5502310" lon="2.8344920">
        <ele>140.4</ele>
        <time>2020-07-03T11:18:38Z</time>
      </trkpt>
      <trkpt lat="47.5502130" lon="2.8344310">
        <ele>140.4</ele>
        <time>2020-07-03T11:18:39Z</time>
      </trkpt>
      <trkpt lat="47.5499980" lon="2.8337370">
        <ele>141.0</ele>
        <time>2020-07-03T11:18:49Z</time>
      </trkpt>
      <trkpt lat="47.5497660" lon="2.8329580">
        <ele>141.6</ele>
        <time>2020-07-03T11:19:00Z</time>
      </trkpt>
      <trkpt lat="47.5496030" lon="2.8323770">
        <ele>141.2</ele>
        <time>2020-07-03T11:19:08Z</time>
      </trkpt>
      <trkpt lat="47.5495570" lon="2.8322200">
        <ele>141.2</ele>
        <time>2020-07-03T11:19:10Z</time>
      </trkpt>
      <trkpt lat="47.5495350" lon="2.8321390">
        <ele>141.4</ele>
        <time>2020-07-03T11:19:11Z</time>
      </trkpt>
      <trkpt lat="47.5494730" lon="2.8319550">
        <ele>141.4</ele>
        <time>2020-07-03T11:19:13Z</time>
      </trkpt>
      <trkpt lat="47.5493820" lon="2.8316970">
        <ele>140.6</ele>
        <time>2020-07-03T11:19:16Z</time>
      </trkpt>
      <trkpt lat="47.5492840" lon="2.8313190">
        <ele>138.0</ele>
        <time>2020-07-03T11:19:22Z</time>
      </trkpt>
      <trkpt lat="47.5492460" lon="2.8312690">
        <ele>137.4</ele>
        <time>2020-07-03T11:19:24Z</time>
      </trkpt>
      <trkpt lat="47.5492210" lon="2.8312720">
        <ele>137.2</ele>
        <time>2020-07-03T11:19:25Z</time>
      </trkpt>
      <trkpt lat="47.5491570" lon="2.8314010">
        <ele>137.0</ele>
        <time>2020-07-03T11:19:29Z</time>
      </trkpt>
      <trkpt lat="47.5491530" lon="2.8314660">
        <ele>137.0</ele>
        <time>2020-07-03T11:19:33Z</time>
      </trkpt>
      <trkpt lat="47.5491280" lon="2.8315000">
        <ele>137.4</ele>
        <time>2020-07-03T11:19:38Z</time>
      </trkpt>
      <trkpt lat="47.5490960" lon="2.8315510">
        <ele>137.4</ele>
        <time>2020-07-03T11:19:41Z</time>
      </trkpt>
      <trkpt lat="47.5490830" lon="2.8316160">
        <ele>137.4</ele>
        <time>2020-07-03T11:19:46Z</time>
      </trkpt>
      <trkpt lat="47.5490690" lon="2.8316730">
        <ele>137.2</ele>
        <time>2020-07-03T11:19:59Z</time>
      </trkpt>
      <trkpt lat="47.5490440" lon="2.8316990">
        <ele>137.2</ele>
        <time>2020-07-03T11:20:02Z</time>
      </trkpt>
      <trkpt lat="47.5489900" lon="2.8317810">
        <ele>137.2</ele>
        <time>2020-07-03T11:20:05Z</time>
      </trkpt>
      <trkpt lat="47.5488000" lon="2.8320930">
        <ele>137.0</ele>
        <time>2020-07-03T11:20:12Z</time>
      </trkpt>
      <trkpt lat="47.5487270" lon="2.8321810">
        <ele>137.0</ele>
        <time>2020-07-03T11:20:14Z</time>
      </trkpt>
      <trkpt lat="47.5486890" lon="2.8322260">
        <ele>137.2</ele>
        <time>2020-07-03T11:20:15Z</time>
      </trkpt>
      <trkpt lat="47.5485410" lon="2.8323970">
        <ele>137.0</ele>
        <time>2020-07-03T11:20:19Z</time>
      </trkpt>
      <trkpt lat="47.5485070" lon="2.8324390">
        <ele>136.8</ele>
        <time>2020-07-03T11:20:20Z</time>
      </trkpt>
      <trkpt lat="47.5483600" lon="2.8326240">
        <ele>136.8</ele>
        <time>2020-07-03T11:20:25Z</time>
      </trkpt>
      <trkpt lat="47.5483280" lon="2.8326650">
        <ele>136.8</ele>
        <time>2020-07-03T11:20:26Z</time>
      </trkpt>
      <trkpt lat="47.5483010" lon="2.8327140">
        <ele>137.0</ele>
        <time>2020-07-03T11:20:27Z</time>
      </trkpt>
      <trkpt lat="47.5482720" lon="2.8327510">
        <ele>136.8</ele>
        <time>2020-07-03T11:20:28Z</time>
      </trkpt>
      <trkpt lat="47.5481970" lon="2.8328180">
        <ele>137.0</ele>
        <time>2020-07-03T11:20:30Z</time>
      </trkpt>
      <trkpt lat="47.5479450" lon="2.8330060">
        <ele>137.0</ele>
        <time>2020-07-03T11:20:36Z</time>
      </trkpt>
      <trkpt lat="47.5478070" lon="2.8330960">
        <ele>137.0</ele>
        <time>2020-07-03T11:20:39Z</time>
      </trkpt>
      <trkpt lat="47.5477620" lon="2.8331310">
        <ele>137.0</ele>
        <time>2020-07-03T11:20:40Z</time>
      </trkpt>
      <trkpt lat="47.5477200" lon="2.8331720">
        <ele>137.2</ele>
        <time>2020-07-03T11:20:41Z</time>
      </trkpt>
      <trkpt lat="47.5476340" lon="2.8332440">
        <ele>137.2</ele>
        <time>2020-07-03T11:20:43Z</time>
      </trkpt>
      <trkpt lat="47.5474280" lon="2.8334390">
        <ele>137.2</ele>
        <time>2020-07-03T11:20:48Z</time>
      </trkpt>
      <trkpt lat="47.5471550" lon="2.8337910">
        <ele>137.0</ele>
        <time>2020-07-03T11:20:55Z</time>
      </trkpt>
      <trkpt lat="47.5471140" lon="2.8338410">
        <ele>137.0</ele>
        <time>2020-07-03T11:20:56Z</time>
      </trkpt>
      <trkpt lat="47.5470720" lon="2.8338910">
        <ele>137.0</ele>
        <time>2020-07-03T11:20:57Z</time>
      </trkpt>
      <trkpt lat="47.5469140" lon="2.8340900">
        <ele>137.2</ele>
        <time>2020-07-03T11:21:01Z</time>
      </trkpt>
      <trkpt lat="47.5466700" lon="2.8343900">
        <ele>137.0</ele>
        <time>2020-07-03T11:21:07Z</time>
      </trkpt>
      <trkpt lat="47.5462600" lon="2.8347630">
        <ele>137.0</ele>
        <time>2020-07-03T11:21:16Z</time>
      </trkpt>
      <trkpt lat="47.5459800" lon="2.8349720">
        <ele>137.0</ele>
        <time>2020-07-03T11:21:22Z</time>
      </trkpt>
      <trkpt lat="47.5456620" lon="2.8352160">
        <ele>137.4</ele>
        <time>2020-07-03T11:21:30Z</time>
      </trkpt>
      <trkpt lat="47.5452830" lon="2.8354620">
        <ele>137.4</ele>
        <time>2020-07-03T11:21:38Z</time>
      </trkpt>
      <trkpt lat="47.5448030" lon="2.8356430">
        <ele>137.4</ele>
        <time>2020-07-03T11:21:47Z</time>
      </trkpt>
      <trkpt lat="47.5442500" lon="2.8358950">
        <ele>137.4</ele>
        <time>2020-07-03T11:21:58Z</time>
      </trkpt>
      <trkpt lat="47.5442020" lon="2.8359250">
        <ele>137.4</ele>
        <time>2020-07-03T11:21:59Z</time>
      </trkpt>
      <trkpt lat="47.5437920" lon="2.8362620">
        <ele>137.6</ele>
        <time>2020-07-03T11:22:08Z</time>
      </trkpt>
      <trkpt lat="47.5436320" lon="2.8364890">
        <ele>137.4</ele>
        <time>2020-07-03T11:22:12Z</time>
      </trkpt>
      <trkpt lat="47.5435190" lon="2.8366600">
        <ele>137.2</ele>
        <time>2020-07-03T11:22:15Z</time>
      </trkpt>
      <trkpt lat="47.5431820" lon="2.8370850">
        <ele>137.0</ele>
        <time>2020-07-03T11:22:23Z</time>
      </trkpt>
      <trkpt lat="47.5427950" lon="2.8376380">
        <ele>137.4</ele>
        <time>2020-07-03T11:22:32Z</time>
      </trkpt>
      <trkpt lat="47.5427410" lon="2.8377740">
        <ele>137.6</ele>
        <time>2020-07-03T11:22:34Z</time>
      </trkpt>
      <trkpt lat="47.5426250" lon="2.8382480">
        <ele>137.2</ele>
        <time>2020-07-03T11:22:40Z</time>
      </trkpt>
      <trkpt lat="47.5425560" lon="2.8384740">
        <ele>137.0</ele>
        <time>2020-07-03T11:22:44Z</time>
      </trkpt>
      <trkpt lat="47.5424560" lon="2.8386610">
        <ele>137.0</ele>
        <time>2020-07-03T11:22:46Z</time>
      </trkpt>
      <trkpt lat="47.5423980" lon="2.8387430">
        <ele>136.8</ele>
        <time>2020-07-03T11:22:47Z</time>
      </trkpt>
      <trkpt lat="47.5423390" lon="2.8388240">
        <ele>136.8</ele>
        <time>2020-07-03T11:22:49Z</time>
      </trkpt>
      <trkpt lat="47.5421750" lon="2.8390300">
        <ele>136.6</ele>
        <time>2020-07-03T11:22:53Z</time>
      </trkpt>
      <trkpt lat="47.5418180" lon="2.8394320">
        <ele>136.8</ele>
        <time>2020-07-03T11:23:02Z</time>
      </trkpt>
      <trkpt lat="47.5413770" lon="2.8399240">
        <ele>137.0</ele>
        <time>2020-07-03T11:23:11Z</time>
      </trkpt>
      <trkpt lat="47.5409700" lon="2.8405050">
        <ele>137.0</ele>
        <time>2020-07-03T11:23:22Z</time>
      </trkpt>
      <trkpt lat="47.5409300" lon="2.8405620">
        <ele>137.0</ele>
        <time>2020-07-03T11:23:23Z</time>
      </trkpt>
      <trkpt lat="47.5405100" lon="2.8410870">
        <ele>137.0</ele>
        <time>2020-07-03T11:23:33Z</time>
      </trkpt>
      <trkpt lat="47.5403870" lon="2.8412370">
        <ele>137.2</ele>
        <time>2020-07-03T11:23:36Z</time>
      </trkpt>
      <trkpt lat="47.5399270" lon="2.8417800">
        <ele>137.4</ele>
        <time>2020-07-03T11:23:47Z</time>
      </trkpt>
      <trkpt lat="47.5395810" lon="2.8421140">
        <ele>137.6</ele>
        <time>2020-07-03T11:23:55Z</time>
      </trkpt>
      <trkpt lat="47.5395390" lon="2.8421560">
        <ele>137.6</ele>
        <time>2020-07-03T11:23:56Z</time>
      </trkpt>
      <trkpt lat="47.5391700" lon="2.8424190">
        <ele>137.6</ele>
        <time>2020-07-03T11:24:04Z</time>
      </trkpt>
      <trkpt lat="47.5389570" lon="2.8425890">
        <ele>137.6</ele>
        <time>2020-07-03T11:24:09Z</time>
      </trkpt>
      <trkpt lat="47.5388420" lon="2.8427260">
        <ele>137.6</ele>
        <time>2020-07-03T11:24:12Z</time>
      </trkpt>
      <trkpt lat="47.5387990" lon="2.8427680">
        <ele>137.6</ele>
        <time>2020-07-03T11:24:13Z</time>
      </trkpt>
      <trkpt lat="47.5385360" lon="2.8429880">
        <ele>137.2</ele>
        <time>2020-07-03T11:24:19Z</time>
      </trkpt>
      <trkpt lat="47.5383270" lon="2.8430920">
        <ele>136.8</ele>
        <time>2020-07-03T11:24:23Z</time>
      </trkpt>
      <trkpt lat="47.5381530" lon="2.8432330">
        <ele>137.0</ele>
        <time>2020-07-03T11:24:27Z</time>
      </trkpt>
      <trkpt lat="47.5381170" lon="2.8432850">
        <ele>136.8</ele>
        <time>2020-07-03T11:24:28Z</time>
      </trkpt>
      <trkpt lat="47.5378660" lon="2.8436400">
        <ele>137.2</ele>
        <time>2020-07-03T11:24:35Z</time>
      </trkpt>
      <trkpt lat="47.5377110" lon="2.8437940">
        <ele>137.4</ele>
        <time>2020-07-03T11:24:39Z</time>
      </trkpt>
      <trkpt lat="47.5375680" lon="2.8438480">
        <ele>137.2</ele>
        <time>2020-07-03T11:24:42Z</time>
      </trkpt>
      <trkpt lat="47.5371750" lon="2.8440670">
        <ele>137.2</ele>
        <time>2020-07-03T11:24:50Z</time>
      </trkpt>
      <trkpt lat="47.5367990" lon="2.8443290">
        <ele>136.6</ele>
        <time>2020-07-03T11:24:58Z</time>
      </trkpt>
      <trkpt lat="47.5366880" lon="2.8443520">
        <ele>136.8</ele>
        <time>2020-07-03T11:24:59Z</time>
      </trkpt>
      <trkpt lat="47.5365260" lon="2.8443630">
        <ele>136.6</ele>
        <time>2020-07-03T11:25:03Z</time>
      </trkpt>
      <trkpt lat="47.5363780" lon="2.8443790">
        <ele>136.6</ele>
        <time>2020-07-03T11:25:06Z</time>
      </trkpt>
      <trkpt lat="47.5361830" lon="2.8444560">
        <ele>136.4</ele>
        <time>2020-07-03T11:25:10Z</time>
      </trkpt>
      <trkpt lat="47.5358480" lon="2.8446800">
        <ele>136.6</ele>
        <time>2020-07-03T11:25:18Z</time>
      </trkpt>
      <trkpt lat="47.5358180" lon="2.8447240">
        <ele>137.0</ele>
        <time>2020-07-03T11:25:19Z</time>
      </trkpt>
      <trkpt lat="47.5356950" lon="2.8449610">
        <ele>137.2</ele>
        <time>2020-07-03T11:25:23Z</time>
      </trkpt>
      <trkpt lat="47.5355740" lon="2.8451460">
        <ele>137.2</ele>
        <time>2020-07-03T11:25:26Z</time>
      </trkpt>
      <trkpt lat="47.5354280" lon="2.8452850">
        <ele>137.4</ele>
        <time>2020-07-03T11:25:29Z</time>
      </trkpt>
      <trkpt lat="47.5351920" lon="2.8456030">
        <ele>137.6</ele>
        <time>2020-07-03T11:25:35Z</time>
      </trkpt>
      <trkpt lat="47.5351530" lon="2.8456560">
        <ele>137.6</ele>
        <time>2020-07-03T11:25:36Z</time>
      </trkpt>
      <trkpt lat="47.5349130" lon="2.8460570">
        <ele>137.8</ele>
        <time>2020-07-03T11:25:43Z</time>
      </trkpt>
      <trkpt lat="47.5344910" lon="2.8465690">
        <ele>137.8</ele>
        <time>2020-07-03T11:25:53Z</time>
      </trkpt>
      <trkpt lat="47.5342190" lon="2.8468190">
        <ele>138.0</ele>
        <time>2020-07-03T11:26:00Z</time>
      </trkpt>
      <trkpt lat="47.5341720" lon="2.8469030">
        <ele>138.2</ele>
        <time>2020-07-03T11:26:02Z</time>
      </trkpt>
      <trkpt lat="47.5341760" lon="2.8469530">
        <ele>138.2</ele>
        <time>2020-07-03T11:26:03Z</time>
      </trkpt>
      <trkpt lat="47.5342520" lon="2.8470670">
        <ele>138.2</ele>
        <time>2020-07-03T11:26:06Z</time>
      </trkpt>
      <trkpt lat="47.5342950" lon="2.8470960">
        <ele>138.2</ele>
        <time>2020-07-03T11:26:07Z</time>
      </trkpt>
      <trkpt lat="47.5344890" lon="2.8472290">
        <ele>138.2</ele>
        <time>2020-07-03T11:26:11Z</time>
      </trkpt>
      <trkpt lat="47.5348220" lon="2.8475790">
        <ele>137.4</ele>
        <time>2020-07-03T11:26:19Z</time>
      </trkpt>
      <trkpt lat="47.5348530" lon="2.8476340">
        <ele>137.4</ele>
        <time>2020-07-03T11:26:20Z</time>
      </trkpt>
      <trkpt lat="47.5348770" lon="2.8476930">
        <ele>137.4</ele>
        <time>2020-07-03T11:26:21Z</time>
      </trkpt>
      <trkpt lat="47.5348920" lon="2.8477540">
        <ele>137.4</ele>
        <time>2020-07-03T11:26:22Z</time>
      </trkpt>
      <trkpt lat="47.5348970" lon="2.8478220">
        <ele>137.4</ele>
        <time>2020-07-03T11:26:23Z</time>
      </trkpt>
      <trkpt lat="47.5348870" lon="2.8478900">
        <ele>137.4</ele>
        <time>2020-07-03T11:26:24Z</time>
      </trkpt>
      <trkpt lat="47.5348340" lon="2.8480160">
        <ele>137.4</ele>
        <time>2020-07-03T11:26:26Z</time>
      </trkpt>
      <trkpt lat="47.5346020" lon="2.8483560">
        <ele>137.8</ele>
        <time>2020-07-03T11:26:32Z</time>
      </trkpt>
      <trkpt lat="47.5342900" lon="2.8489540">
        <ele>138.0</ele>
        <time>2020-07-03T11:26:41Z</time>
      </trkpt>
      <trkpt lat="47.5339570" lon="2.8494160">
        <ele>138.0</ele>
        <time>2020-07-03T11:26:49Z</time>
      </trkpt>
      <trkpt lat="47.5335380" lon="2.8501040">
        <ele>137.8</ele>
        <time>2020-07-03T11:26:59Z</time>
      </trkpt>
      <trkpt lat="47.5335020" lon="2.8501680">
        <ele>138.0</ele>
        <time>2020-07-03T11:27:00Z</time>
      </trkpt>
      <trkpt lat="47.5331150" lon="2.8507330">
        <ele>138.2</ele>
        <time>2020-07-03T11:27:10Z</time>
      </trkpt>
      <trkpt lat="47.5327160" lon="2.8512820">
        <ele>138.0</ele>
        <time>2020-07-03T11:27:21Z</time>
      </trkpt>
      <trkpt lat="47.5323040" lon="2.8518080">
        <ele>138.2</ele>
        <time>2020-07-03T11:27:30Z</time>
      </trkpt>
      <trkpt lat="47.5319440" lon="2.8521770">
        <ele>138.2</ele>
        <time>2020-07-03T11:27:39Z</time>
      </trkpt>
      <trkpt lat="47.5315220" lon="2.8526820">
        <ele>138.2</ele>
        <time>2020-07-03T11:27:48Z</time>
      </trkpt>
      <trkpt lat="47.5314830" lon="2.8527370">
        <ele>138.2</ele>
        <time>2020-07-03T11:27:50Z</time>
      </trkpt>
      <trkpt lat="47.5310570" lon="2.8533210">
        <ele>137.8</ele>
        <time>2020-07-03T11:28:01Z</time>
      </trkpt>
      <trkpt lat="47.5310170" lon="2.8533720">
        <ele>137.8</ele>
        <time>2020-07-03T11:28:02Z</time>
      </trkpt>
      <trkpt lat="47.5306440" lon="2.8537960">
        <ele>138.2</ele>
        <time>2020-07-03T11:28:11Z</time>
      </trkpt>
      <trkpt lat="47.5302950" lon="2.8542820">
        <ele>138.4</ele>
        <time>2020-07-03T11:28:20Z</time>
      </trkpt>
      <trkpt lat="47.5298380" lon="2.8549020">
        <ele>138.4</ele>
        <time>2020-07-03T11:28:31Z</time>
      </trkpt>
      <trkpt lat="47.5296800" lon="2.8552080">
        <ele>138.4</ele>
        <time>2020-07-03T11:28:36Z</time>
      </trkpt>
      <trkpt lat="47.5296550" lon="2.8552820">
        <ele>138.4</ele>
        <time>2020-07-03T11:28:38Z</time>
      </trkpt>
      <trkpt lat="47.5295190" lon="2.8556330">
        <ele>138.4</ele>
        <time>2020-07-03T11:28:43Z</time>
      </trkpt>
      <trkpt lat="47.5294560" lon="2.8557620">
        <ele>138.4</ele>
        <time>2020-07-03T11:28:45Z</time>
      </trkpt>
      <trkpt lat="47.5292580" lon="2.8562220">
        <ele>138.6</ele>
        <time>2020-07-03T11:28:52Z</time>
      </trkpt>
      <trkpt lat="47.5292190" lon="2.8563740">
        <ele>138.4</ele>
        <time>2020-07-03T11:28:54Z</time>
      </trkpt>
      <trkpt lat="47.5291810" lon="2.8566180">
        <ele>138.4</ele>
        <time>2020-07-03T11:28:57Z</time>
      </trkpt>
      <trkpt lat="47.5291630" lon="2.8566940">
        <ele>138.4</ele>
        <time>2020-07-03T11:28:58Z</time>
      </trkpt>
      <trkpt lat="47.5290670" lon="2.8569940">
        <ele>138.4</ele>
        <time>2020-07-03T11:29:02Z</time>
      </trkpt>
      <trkpt lat="47.5288030" lon="2.8575020">
        <ele>138.4</ele>
        <time>2020-07-03T11:29:10Z</time>
      </trkpt>
      <trkpt lat="47.5283850" lon="2.8580480">
        <ele>138.2</ele>
        <time>2020-07-03T11:29:20Z</time>
      </trkpt>
      <trkpt lat="47.5281840" lon="2.8585090">
        <ele>138.4</ele>
        <time>2020-07-03T11:29:27Z</time>
      </trkpt>
      <trkpt lat="47.5279370" lon="2.8589860">
        <ele>138.6</ele>
        <time>2020-07-03T11:29:35Z</time>
      </trkpt>
      <trkpt lat="47.5276150" lon="2.8595380">
        <ele>138.6</ele>
        <time>2020-07-03T11:29:43Z</time>
      </trkpt>
      <trkpt lat="47.5273780" lon="2.8600500">
        <ele>138.4</ele>
        <time>2020-07-03T11:29:52Z</time>
      </trkpt>
      <trkpt lat="47.5270180" lon="2.8606010">
        <ele>138.8</ele>
        <time>2020-07-03T11:30:01Z</time>
      </trkpt>
      <trkpt lat="47.5266320" lon="2.8610380">
        <ele>138.6</ele>
        <time>2020-07-03T11:30:11Z</time>
      </trkpt>
      <trkpt lat="47.5262970" lon="2.8614150">
        <ele>138.2</ele>
        <time>2020-07-03T11:30:19Z</time>
      </trkpt>
      <trkpt lat="47.5258470" lon="2.8617520">
        <ele>138.4</ele>
        <time>2020-07-03T11:30:28Z</time>
      </trkpt>
      <trkpt lat="47.5253660" lon="2.8619400">
        <ele>138.6</ele>
        <time>2020-07-03T11:30:37Z</time>
      </trkpt>
      <trkpt lat="47.5249600" lon="2.8619990">
        <ele>138.6</ele>
        <time>2020-07-03T11:30:44Z</time>
      </trkpt>
      <trkpt lat="47.5244980" lon="2.8619690">
        <ele>138.2</ele>
        <time>2020-07-03T11:30:52Z</time>
      </trkpt>
      <trkpt lat="47.5240730" lon="2.8618740">
        <ele>138.2</ele>
        <time>2020-07-03T11:31:00Z</time>
      </trkpt>
      <trkpt lat="47.5239780" lon="2.8618540">
        <ele>138.2</ele>
        <time>2020-07-03T11:31:02Z</time>
      </trkpt>
      <trkpt lat="47.5237410" lon="2.8618220">
        <ele>138.0</ele>
        <time>2020-07-03T11:31:07Z</time>
      </trkpt>
      <trkpt lat="47.5236990" lon="2.8618100">
        <ele>138.0</ele>
        <time>2020-07-03T11:31:08Z</time>
      </trkpt>
      <trkpt lat="47.5236560" lon="2.8617940">
        <ele>138.2</ele>
        <time>2020-07-03T11:31:09Z</time>
      </trkpt>
      <trkpt lat="47.5232120" lon="2.8616670">
        <ele>138.2</ele>
        <time>2020-07-03T11:31:19Z</time>
      </trkpt>
      <trkpt lat="47.5228120" lon="2.8616980">
        <ele>138.2</ele>
        <time>2020-07-03T11:31:27Z</time>
      </trkpt>
      <trkpt lat="47.5225510" lon="2.8616890">
        <ele>138.2</ele>
        <time>2020-07-03T11:31:32Z</time>
      </trkpt>
      <trkpt lat="47.5225060" lon="2.8616650">
        <ele>138.2</ele>
        <time>2020-07-03T11:31:33Z</time>
      </trkpt>
      <trkpt lat="47.5224620" lon="2.8616310">
        <ele>138.2</ele>
        <time>2020-07-03T11:31:34Z</time>
      </trkpt>
      <trkpt lat="47.5223780" lon="2.8615410">
        <ele>138.0</ele>
        <time>2020-07-03T11:31:36Z</time>
      </trkpt>
      <trkpt lat="47.5223420" lon="2.8614880">
        <ele>138.0</ele>
        <time>2020-07-03T11:31:37Z</time>
      </trkpt>
      <trkpt lat="47.5222790" lon="2.8613710">
        <ele>138.0</ele>
        <time>2020-07-03T11:31:38Z</time>
      </trkpt>
      <trkpt lat="47.5222570" lon="2.8613110">
        <ele>138.0</ele>
        <time>2020-07-03T11:31:40Z</time>
      </trkpt>
      <trkpt lat="47.5222260" lon="2.8611900">
        <ele>138.0</ele>
        <time>2020-07-03T11:31:42Z</time>
      </trkpt>
      <trkpt lat="47.5221800" lon="2.8609980">
        <ele>138.0</ele>
        <time>2020-07-03T11:31:45Z</time>
      </trkpt>
      <trkpt lat="47.5221310" lon="2.8608010">
        <ele>137.8</ele>
        <time>2020-07-03T11:31:48Z</time>
      </trkpt>
      <trkpt lat="47.5219050" lon="2.8600470">
        <ele>137.4</ele>
        <time>2020-07-03T11:31:58Z</time>
      </trkpt>
      <trkpt lat="47.5218340" lon="2.8598210">
        <ele>137.4</ele>
        <time>2020-07-03T11:32:01Z</time>
      </trkpt>
      <trkpt lat="47.5217860" lon="2.8596750">
        <ele>137.4</ele>
        <time>2020-07-03T11:32:03Z</time>
      </trkpt>
      <trkpt lat="47.5216790" lon="2.8594000">
        <ele>137.0</ele>
        <time>2020-07-03T11:32:07Z</time>
      </trkpt>
      <trkpt lat="47.5214740" lon="2.8590260">
        <ele>136.8</ele>
        <time>2020-07-03T11:32:13Z</time>
      </trkpt>
      <trkpt lat="47.5213550" lon="2.8587720">
        <ele>137.0</ele>
        <time>2020-07-03T11:32:17Z</time>
      </trkpt>
      <trkpt lat="47.5212890" lon="2.8585980">
        <ele>136.8</ele>
        <time>2020-07-03T11:32:20Z</time>
      </trkpt>
      <trkpt lat="47.5211950" lon="2.8583400">
        <ele>137.0</ele>
        <time>2020-07-03T11:32:24Z</time>
      </trkpt>
      <trkpt lat="47.5209520" lon="2.8579750">
        <ele>138.2</ele>
        <time>2020-07-03T11:32:30Z</time>
      </trkpt>
      <trkpt lat="47.5205590" lon="2.8574890">
        <ele>139.0</ele>
        <time>2020-07-03T11:32:39Z</time>
      </trkpt>
      <trkpt lat="47.5204520" lon="2.8572780">
        <ele>138.8</ele>
        <time>2020-07-03T11:32:41Z</time>
      </trkpt>
      <trkpt lat="47.5203700" lon="2.8570390">
        <ele>138.6</ele>
        <time>2020-07-03T11:32:45Z</time>
      </trkpt>
      <trkpt lat="47.5202770" lon="2.8566600">
        <ele>138.4</ele>
        <time>2020-07-03T11:32:50Z</time>
      </trkpt>
      <trkpt lat="47.5202090" lon="2.8563560">
        <ele>138.2</ele>
        <time>2020-07-03T11:32:54Z</time>
      </trkpt>
      <trkpt lat="47.5200480" lon="2.8555790">
        <ele>137.6</ele>
        <time>2020-07-03T11:33:04Z</time>
      </trkpt>
      <trkpt lat="47.5200280" lon="2.8555020">
        <ele>137.6</ele>
        <time>2020-07-03T11:33:05Z</time>
      </trkpt>
      <trkpt lat="47.5199750" lon="2.8552860">
        <ele>137.4</ele>
        <time>2020-07-03T11:33:08Z</time>
      </trkpt>
      <trkpt lat="47.5199320" lon="2.8549710">
        <ele>137.2</ele>
        <time>2020-07-03T11:33:12Z</time>
      </trkpt>
      <trkpt lat="47.5199340" lon="2.8545520">
        <ele>137.0</ele>
        <time>2020-07-03T11:33:17Z</time>
      </trkpt>
      <trkpt lat="47.5199380" lon="2.8544680">
        <ele>137.0</ele>
        <time>2020-07-03T11:33:18Z</time>
      </trkpt>
      <trkpt lat="47.5199640" lon="2.8538610">
        <ele>136.8</ele>
        <time>2020-07-03T11:33:26Z</time>
      </trkpt>
      <trkpt lat="47.5198880" lon="2.8533340">
        <ele>136.8</ele>
        <time>2020-07-03T11:33:33Z</time>
      </trkpt>
      <trkpt lat="47.5197930" lon="2.8530480">
        <ele>136.8</ele>
        <time>2020-07-03T11:33:37Z</time>
      </trkpt>
      <trkpt lat="47.5197200" lon="2.8528300">
        <ele>136.4</ele>
        <time>2020-07-03T11:33:40Z</time>
      </trkpt>
      <trkpt lat="47.5194750" lon="2.8521140">
        <ele>136.4</ele>
        <time>2020-07-03T11:33:50Z</time>
      </trkpt>
      <trkpt lat="47.5194490" lon="2.8520430">
        <ele>136.4</ele>
        <time>2020-07-03T11:33:51Z</time>
      </trkpt>
      <trkpt lat="47.5193770" lon="2.8518350">
        <ele>136.6</ele>
        <time>2020-07-03T11:33:54Z</time>
      </trkpt>
      <trkpt lat="47.5191820" lon="2.8512500">
        <ele>136.8</ele>
        <time>2020-07-03T11:34:02Z</time>
      </trkpt>
      <trkpt lat="47.5191570" lon="2.8511800">
        <ele>136.8</ele>
        <time>2020-07-03T11:34:03Z</time>
      </trkpt>
      <trkpt lat="47.5191110" lon="2.8510360">
        <ele>136.8</ele>
        <time>2020-07-03T11:34:05Z</time>
      </trkpt>
      <trkpt lat="47.5190160" lon="2.8507490">
        <ele>136.8</ele>
        <time>2020-07-03T11:34:09Z</time>
      </trkpt>
      <trkpt lat="47.5189080" lon="2.8504000">
        <ele>137.0</ele>
        <time>2020-07-03T11:34:14Z</time>
      </trkpt>
      <trkpt lat="47.5188360" lon="2.8501890">
        <ele>136.8</ele>
        <time>2020-07-03T11:34:17Z</time>
      </trkpt>
      <trkpt lat="47.5186070" lon="2.8494810">
        <ele>137.8</ele>
        <time>2020-07-03T11:34:27Z</time>
      </trkpt>
      <trkpt lat="47.5185330" lon="2.8492670">
        <ele>138.0</ele>
        <time>2020-07-03T11:34:29Z</time>
      </trkpt>
      <trkpt lat="47.5184010" lon="2.8489540">
        <ele>138.2</ele>
        <time>2020-07-03T11:34:34Z</time>
      </trkpt>
      <trkpt lat="47.5183330" lon="2.8488300">
        <ele>138.2</ele>
        <time>2020-07-03T11:34:36Z</time>
      </trkpt>
      <trkpt lat="47.5180940" lon="2.8484060">
        <ele>138.6</ele>
        <time>2020-07-03T11:34:44Z</time>
      </trkpt>
      <trkpt lat="47.5179680" lon="2.8481880">
        <ele>138.6</ele>
        <time>2020-07-03T11:34:47Z</time>
      </trkpt>
      <trkpt lat="47.5179370" lon="2.8481250">
        <ele>138.6</ele>
        <time>2020-07-03T11:34:49Z</time>
      </trkpt>
      <trkpt lat="47.5177320" lon="2.8476530">
        <ele>138.6</ele>
        <time>2020-07-03T11:34:56Z</time>
      </trkpt>
      <trkpt lat="47.5176980" lon="2.8475790">
        <ele>138.4</ele>
        <time>2020-07-03T11:34:57Z</time>
      </trkpt>
      <trkpt lat="47.5176290" lon="2.8473410">
        <ele>138.8</ele>
        <time>2020-07-03T11:35:00Z</time>
      </trkpt>
      <trkpt lat="47.5175710" lon="2.8470760">
        <ele>139.0</ele>
        <time>2020-07-03T11:35:04Z</time>
      </trkpt>
      <trkpt lat="47.5175670" lon="2.8469580">
        <ele>139.2</ele>
        <time>2020-07-03T11:35:06Z</time>
      </trkpt>
      <trkpt lat="47.5175150" lon="2.8466680">
        <ele>140.0</ele>
        <time>2020-07-03T11:35:11Z</time>
      </trkpt>
      <trkpt lat="47.5175030" lon="2.8465670">
        <ele>140.6</ele>
        <time>2020-07-03T11:35:13Z</time>
      </trkpt>
      <trkpt lat="47.5174640" lon="2.8463490">
        <ele>141.8</ele>
        <time>2020-07-03T11:35:17Z</time>
      </trkpt>
      <trkpt lat="47.5174340" lon="2.8461990">
        <ele>142.6</ele>
        <time>2020-07-03T11:35:20Z</time>
      </trkpt>
      <trkpt lat="47.5174120" lon="2.8461010">
        <ele>143.2</ele>
        <time>2020-07-03T11:35:22Z</time>
      </trkpt>
      <trkpt lat="47.5173700" lon="2.8458770">
        <ele>144.2</ele>
        <time>2020-07-03T11:35:28Z</time>
      </trkpt>
      <trkpt lat="47.5173140" lon="2.8456930">
        <ele>145.8</ele>
        <time>2020-07-03T11:35:34Z</time>
      </trkpt>
      <trkpt lat="47.5172950" lon="2.8456920">
        <ele>145.8</ele>
        <time>2020-07-03T11:35:35Z</time>
      </trkpt>
      <trkpt lat="47.5172700" lon="2.8457010">
        <ele>145.8</ele>
        <time>2020-07-03T11:35:36Z</time>
      </trkpt>
      <trkpt lat="47.5171830" lon="2.8457520">
        <ele>146.0</ele>
        <time>2020-07-03T11:35:38Z</time>
      </trkpt>
      <trkpt lat="47.5167980" lon="2.8459740">
        <ele>145.8</ele>
        <time>2020-07-03T11:35:43Z</time>
      </trkpt>
      <trkpt lat="47.5162670" lon="2.8462160">
        <ele>141.4</ele>
        <time>2020-07-03T11:35:52Z</time>
      </trkpt>
      <trkpt lat="47.5161520" lon="2.8462710">
        <ele>141.4</ele>
        <time>2020-07-03T11:35:54Z</time>
      </trkpt>
      <trkpt lat="47.5156000" lon="2.8465160">
        <ele>141.0</ele>
        <time>2020-07-03T11:36:05Z</time>
      </trkpt>
      <trkpt lat="47.5155490" lon="2.8465420">
        <ele>141.0</ele>
        <time>2020-07-03T11:36:06Z</time>
      </trkpt>
      <trkpt lat="47.5149640" lon="2.8468000">
        <ele>141.0</ele>
        <time>2020-07-03T11:36:16Z</time>
      </trkpt>
      <trkpt lat="47.5146000" lon="2.8469810">
        <ele>141.2</ele>
        <time>2020-07-03T11:36:23Z</time>
      </trkpt>
      <trkpt lat="47.5140130" lon="2.8473210">
        <ele>141.4</ele>
        <time>2020-07-03T11:36:34Z</time>
      </trkpt>
      <trkpt lat="47.5139040" lon="2.8473840">
        <ele>141.2</ele>
        <time>2020-07-03T11:36:36Z</time>
      </trkpt>
      <trkpt lat="47.5134880" lon="2.8476650">
        <ele>141.0</ele>
        <time>2020-07-03T11:36:45Z</time>
      </trkpt>
      <trkpt lat="47.5129210" lon="2.8480750">
        <ele>141.0</ele>
        <time>2020-07-03T11:36:55Z</time>
      </trkpt>
      <trkpt lat="47.5128690" lon="2.8481140">
        <ele>141.0</ele>
        <time>2020-07-03T11:36:57Z</time>
      </trkpt>
      <trkpt lat="47.5125660" lon="2.8483590">
        <ele>141.0</ele>
        <time>2020-07-03T11:37:03Z</time>
      </trkpt>
      <trkpt lat="47.5122750" lon="2.8486070">
        <ele>140.6</ele>
        <time>2020-07-03T11:37:09Z</time>
      </trkpt>
      <trkpt lat="47.5120320" lon="2.8488170">
        <ele>140.6</ele>
        <time>2020-07-03T11:37:14Z</time>
      </trkpt>
      <trkpt lat="47.5116340" lon="2.8491570">
        <ele>140.8</ele>
        <time>2020-07-03T11:37:22Z</time>
      </trkpt>
      <trkpt lat="47.5112400" lon="2.8494960">
        <ele>141.0</ele>
        <time>2020-07-03T11:37:29Z</time>
      </trkpt>
      <trkpt lat="47.5110450" lon="2.8496660">
        <ele>140.8</ele>
        <time>2020-07-03T11:37:34Z</time>
      </trkpt>
      <trkpt lat="47.5109960" lon="2.8497090">
        <ele>140.8</ele>
        <time>2020-07-03T11:37:35Z</time>
      </trkpt>
      <trkpt lat="47.5105090" lon="2.8501330">
        <ele>141.0</ele>
        <time>2020-07-03T11:37:45Z</time>
      </trkpt>
      <trkpt lat="47.5102840" lon="2.8503300">
        <ele>141.0</ele>
        <time>2020-07-03T11:37:50Z</time>
      </trkpt>
      <trkpt lat="47.5100270" lon="2.8505520">
        <ele>141.2</ele>
        <time>2020-07-03T11:37:57Z</time>
      </trkpt>
      <trkpt lat="47.5097390" lon="2.8508230">
        <ele>141.8</ele>
        <time>2020-07-03T11:38:06Z</time>
      </trkpt>
      <trkpt lat="47.5096180" lon="2.8509310">
        <ele>142.0</ele>
        <time>2020-07-03T11:38:10Z</time>
      </trkpt>
      <trkpt lat="47.5095560" lon="2.8509710">
        <ele>142.0</ele>
        <time>2020-07-03T11:38:12Z</time>
      </trkpt>
      <trkpt lat="47.5094770" lon="2.8510340">
        <ele>142.0</ele>
        <time>2020-07-03T11:38:15Z</time>
      </trkpt>
      <trkpt lat="47.5093570" lon="2.8511370">
        <ele>142.4</ele>
        <time>2020-07-03T11:38:22Z</time>
      </trkpt>
      <trkpt lat="47.5093400" lon="2.8511290">
        <ele>142.6</ele>
        <time>2020-07-03T11:38:27Z</time>
      </trkpt>
      <trkpt lat="47.5093400" lon="2.8511280">
        <ele>142.6</ele>
        <time>2020-07-03T11:38:33Z</time>
      </trkpt>
      <trkpt lat="47.5093280" lon="2.8511380">
        <ele>142.6</ele>
        <time>2020-07-03T11:38:48Z</time>
      </trkpt>
      <trkpt lat="47.5092390" lon="2.8512300">
        <ele>142.6</ele>
        <time>2020-07-03T11:38:58Z</time>
      </trkpt>
      <trkpt lat="47.5092030" lon="2.8512260">
        <ele>142.6</ele>
        <time>2020-07-03T11:39:07Z</time>
      </trkpt>
      <trkpt lat="47.5092040" lon="2.8512220">
        <ele>142.4</ele>
        <time>2020-07-03T11:39:32Z</time>
      </trkpt>
      <trkpt lat="47.5091390" lon="2.8512620">
        <ele>142.6</ele>
        <time>2020-07-03T11:39:42Z</time>
      </trkpt>
      <trkpt lat="47.5090160" lon="2.8513490">
        <ele>142.8</ele>
        <time>2020-07-03T11:39:48Z</time>
      </trkpt>
      <trkpt lat="47.5086350" lon="2.8516040">
        <ele>142.6</ele>
        <time>2020-07-03T11:40:02Z</time>
      </trkpt>
      <trkpt lat="47.5085520" lon="2.8516580">
        <ele>142.4</ele>
        <time>2020-07-03T11:40:04Z</time>
      </trkpt>
      <trkpt lat="47.5084970" lon="2.8516950">
        <ele>142.4</ele>
        <time>2020-07-03T11:40:07Z</time>
      </trkpt>
      <trkpt lat="47.5083340" lon="2.8518030">
        <ele>142.4</ele>
        <time>2020-07-03T11:40:13Z</time>
      </trkpt>
      <trkpt lat="47.5083080" lon="2.8518150">
        <ele>142.2</ele>
        <time>2020-07-03T11:40:14Z</time>
      </trkpt>
      <trkpt lat="47.5080320" lon="2.8519610">
        <ele>142.2</ele>
        <time>2020-07-03T11:40:23Z</time>
      </trkpt>
      <trkpt lat="47.5078600" lon="2.8520650">
        <ele>142.2</ele>
        <time>2020-07-03T11:40:29Z</time>
      </trkpt>
      <trkpt lat="47.5078120" lon="2.8520990">
        <ele>142.0</ele>
        <time>2020-07-03T11:40:33Z</time>
      </trkpt>
      <trkpt lat="47.5078030" lon="2.8520830">
        <ele>142.0</ele>
        <time>2020-07-03T11:40:35Z</time>
      </trkpt>
      <trkpt lat="47.5078060" lon="2.8520640">
        <ele>142.2</ele>
        <time>2020-07-03T11:40:37Z</time>
      </trkpt>
      <trkpt lat="47.5077880" lon="2.8520000">
        <ele>142.6</ele>
        <time>2020-07-03T11:40:40Z</time>
      </trkpt>
      <trkpt lat="47.5077800" lon="2.8519890">
        <ele>142.6</ele>
        <time>2020-07-03T11:40:41Z</time>
      </trkpt>
      <trkpt lat="47.5077560" lon="2.8519950">
        <ele>142.6</ele>
        <time>2020-07-03T11:40:43Z</time>
      </trkpt>
      <trkpt lat="47.5076620" lon="2.8520990">
        <ele>142.6</ele>
        <time>2020-07-03T11:40:48Z</time>
      </trkpt>
      <trkpt lat="47.5075530" lon="2.8521540">
        <ele>142.2</ele>
        <time>2020-07-03T11:40:53Z</time>
      </trkpt>
      <trkpt lat="47.5075210" lon="2.8521910">
        <ele>142.4</ele>
        <time>2020-07-03T11:40:54Z</time>
      </trkpt>
      <trkpt lat="47.5074460" lon="2.8522350">
        <ele>142.2</ele>
        <time>2020-07-03T11:40:58Z</time>
      </trkpt>
      <trkpt lat="47.5074260" lon="2.8522370">
        <ele>142.4</ele>
        <time>2020-07-03T11:41:00Z</time>
      </trkpt>
      <trkpt lat="47.5073730" lon="2.8522730">
        <ele>142.4</ele>
        <time>2020-07-03T11:41:02Z</time>
      </trkpt>
      <trkpt lat="47.5073730" lon="2.8522730">
        <ele>142.6</ele>
        <time>2020-07-03T11:41:03Z</time>
      </trkpt>
      <trkpt lat="47.5073460" lon="2.8523060">
        <ele>142.6</ele>
        <time>2020-07-03T11:41:05Z</time>
      </trkpt>
      <trkpt lat="47.5073250" lon="2.8523240">
        <ele>144.0</ele>
        <time>2020-07-03T11:41:10Z</time>
      </trkpt>
      <trkpt lat="47.5073220" lon="2.8523230">
        <ele>145.8</ele>
        <time>2020-07-03T11:41:31Z</time>
      </trkpt>
      <trkpt lat="47.5073250" lon="2.8523340">
        <ele>146.0</ele>
        <time>2020-07-03T11:41:40Z</time>
      </trkpt>
      <trkpt lat="47.5073250" lon="2.8523370">
        <ele>146.0</ele>
        <time>2020-07-03T11:41:50Z</time>
      </trkpt>
      <trkpt lat="47.5073060" lon="2.8523590">
        <ele>146.0</ele>
        <time>2020-07-03T11:42:14Z</time>
      </trkpt>
      <trkpt lat="47.5073090" lon="2.8524210">
        <ele>146.0</ele>
        <time>2020-07-03T11:42:19Z</time>
      </trkpt>
      <trkpt lat="47.5073270" lon="2.8525100">
        <ele>146.2</ele>
        <time>2020-07-03T11:42:23Z</time>
      </trkpt>
      <trkpt lat="47.5073730" lon="2.8526720">
        <ele>146.4</ele>
        <time>2020-07-03T11:42:30Z</time>
      </trkpt>
      <trkpt lat="47.5073640" lon="2.8527170">
        <ele>146.4</ele>
        <time>2020-07-03T11:42:32Z</time>
      </trkpt>
      <trkpt lat="47.5073500" lon="2.8527340">
        <ele>146.4</ele>
        <time>2020-07-03T11:42:33Z</time>
      </trkpt>
      <trkpt lat="47.5073060" lon="2.8527760">
        <ele>146.4</ele>
        <time>2020-07-03T11:42:35Z</time>
      </trkpt>
      <trkpt lat="47.5072780" lon="2.8527950">
        <ele>146.4</ele>
        <time>2020-07-03T11:42:36Z</time>
      </trkpt>
      <trkpt lat="47.5072100" lon="2.8528590">
        <ele>146.4</ele>
        <time>2020-07-03T11:42:38Z</time>
      </trkpt>
      <trkpt lat="47.5071230" lon="2.8529430">
        <ele>145.8</ele>
        <time>2020-07-03T11:42:40Z</time>
      </trkpt>
      <trkpt lat="47.5066890" lon="2.8532900">
        <ele>141.0</ele>
        <time>2020-07-03T11:42:47Z</time>
      </trkpt>
      <trkpt lat="47.5061850" lon="2.8536080">
        <ele>140.0</ele>
        <time>2020-07-03T11:42:56Z</time>
      </trkpt>
      <trkpt lat="47.5060840" lon="2.8536740">
        <ele>139.8</ele>
        <time>2020-07-03T11:42:58Z</time>
      </trkpt>
      <trkpt lat="47.5057540" lon="2.8538910">
        <ele>140.0</ele>
        <time>2020-07-03T11:43:06Z</time>
      </trkpt>
      <trkpt lat="47.5056980" lon="2.8539280">
        <ele>140.2</ele>
        <time>2020-07-03T11:43:09Z</time>
      </trkpt>
      <trkpt lat="47.5056770" lon="2.8539440">
        <ele>140.2</ele>
        <time>2020-07-03T11:43:11Z</time>
      </trkpt>
      <trkpt lat="47.5056980" lon="2.8539220">
        <ele>141.2</ele>
        <time>2020-07-03T11:43:19Z</time>
      </trkpt>
      <trkpt lat="47.5057070" lon="2.8538260">
        <ele>141.4</ele>
        <time>2020-07-03T11:43:29Z</time>
      </trkpt>
      <trkpt lat="47.5057010" lon="2.8538080">
        <ele>141.6</ele>
        <time>2020-07-03T11:43:30Z</time>
      </trkpt>
      <trkpt lat="47.5056470" lon="2.8537830">
        <ele>142.0</ele>
        <time>2020-07-03T11:43:38Z</time>
      </trkpt>
      <trkpt lat="47.5055170" lon="2.8538570">
        <ele>143.0</ele>
        <time>2020-07-03T11:43:48Z</time>
      </trkpt>
      <trkpt lat="47.5054970" lon="2.8538840">
        <ele>143.2</ele>
        <time>2020-07-03T11:43:50Z</time>
      </trkpt>
      <trkpt lat="47.5054560" lon="2.8538680">
        <ele>143.4</ele>
        <time>2020-07-03T11:43:55Z</time>
      </trkpt>
      <trkpt lat="47.5054510" lon="2.8538340">
        <ele>143.6</ele>
        <time>2020-07-03T11:43:58Z</time>
      </trkpt>
      <trkpt lat="47.5054710" lon="2.8537820">
        <ele>145.0</ele>
        <time>2020-07-03T11:44:08Z</time>
      </trkpt>
      <trkpt lat="47.5054620" lon="2.8537650">
        <ele>145.4</ele>
        <time>2020-07-03T11:44:28Z</time>
      </trkpt>
      <trkpt lat="47.5054570" lon="2.8537550">
        <ele>145.4</ele>
        <time>2020-07-03T11:44:55Z</time>
      </trkpt>
      <trkpt lat="47.5054400" lon="2.8537290">
        <ele>145.2</ele>
        <time>2020-07-03T11:45:10Z</time>
      </trkpt>
      <trkpt lat="47.5053550" lon="2.8537560">
        <ele>145.0</ele>
        <time>2020-07-03T11:45:19Z</time>
      </trkpt>
      <trkpt lat="47.5052490" lon="2.8537980">
        <ele>144.8</ele>
        <time>2020-07-03T11:45:33Z</time>
      </trkpt>
      <trkpt lat="47.5052620" lon="2.8538090">
        <ele>144.6</ele>
        <time>2020-07-03T11:45:43Z</time>
      </trkpt>
      <trkpt lat="47.5052580" lon="2.8538160">
        <ele>144.8</ele>
        <time>2020-07-03T11:46:14Z</time>
      </trkpt>
      <trkpt lat="47.5052570" lon="2.8538160">
        <ele>144.6</ele>
        <time>2020-07-03T11:46:25Z</time>
      </trkpt>
      <trkpt lat="47.5052530" lon="2.8538150">
        <ele>144.8</ele>
        <time>2020-07-03T11:46:40Z</time>
      </trkpt>
      <trkpt lat="47.5052510" lon="2.8538140">
        <ele>144.4</ele>
        <time>2020-07-03T11:46:52Z</time>
      </trkpt>
      <trkpt lat="47.5052470" lon="2.8538130">
        <ele>144.4</ele>
        <time>2020-07-03T11:47:15Z</time>
      </trkpt>
      <trkpt lat="47.5052420" lon="2.8538090">
        <ele>144.4</ele>
        <time>2020-07-03T11:47:36Z</time>
      </trkpt>
      <trkpt lat="47.5052410" lon="2.8538080">
        <ele>144.8</ele>
        <time>2020-07-03T11:47:42Z</time>
      </trkpt>
      <trkpt lat="47.5052400" lon="2.8538120">
        <ele>144.4</ele>
        <time>2020-07-03T11:48:05Z</time>
      </trkpt>
      <trkpt lat="47.5052240" lon="2.8538020">
        <ele>144.8</ele>
        <time>2020-07-03T11:48:39Z</time>
      </trkpt>
      <trkpt lat="47.5051330" lon="2.8538670">
        <ele>144.8</ele>
        <time>2020-07-03T11:48:47Z</time>
      </trkpt>
      <trkpt lat="47.5049620" lon="2.8539120">
        <ele>144.8</ele>
        <time>2020-07-03T11:48:55Z</time>
      </trkpt>
      <trkpt lat="47.5049390" lon="2.8539050">
        <ele>145.0</ele>
        <time>2020-07-03T11:48:56Z</time>
      </trkpt>
      <trkpt lat="47.5047940" lon="2.8538770">
        <ele>144.0</ele>
        <time>2020-07-03T11:49:03Z</time>
      </trkpt>
      <trkpt lat="47.5046590" lon="2.8539410">
        <ele>143.4</ele>
        <time>2020-07-03T11:49:07Z</time>
      </trkpt>
      <trkpt lat="47.5045910" lon="2.8539850">
        <ele>143.2</ele>
        <time>2020-07-03T11:49:10Z</time>
      </trkpt>
      <trkpt lat="47.5042280" lon="2.8542150">
        <ele>143.0</ele>
        <time>2020-07-03T11:49:18Z</time>
      </trkpt>
      <trkpt lat="47.5037920" lon="2.8544980">
        <ele>143.0</ele>
        <time>2020-07-03T11:49:28Z</time>
      </trkpt>
      <trkpt lat="47.5032860" lon="2.8548340">
        <ele>143.2</ele>
        <time>2020-07-03T11:49:40Z</time>
      </trkpt>
      <trkpt lat="47.5031970" lon="2.8548890">
        <ele>143.4</ele>
        <time>2020-07-03T11:49:42Z</time>
      </trkpt>
      <trkpt lat="47.5031530" lon="2.8549180">
        <ele>143.4</ele>
        <time>2020-07-03T11:49:43Z</time>
      </trkpt>
      <trkpt lat="47.5029880" lon="2.8549950">
        <ele>143.6</ele>
        <time>2020-07-03T11:49:47Z</time>
      </trkpt>
      <trkpt lat="47.5029080" lon="2.8549970">
        <ele>143.4</ele>
        <time>2020-07-03T11:49:49Z</time>
      </trkpt>
      <trkpt lat="47.5027950" lon="2.8549900">
        <ele>143.8</ele>
        <time>2020-07-03T11:49:52Z</time>
      </trkpt>
      <trkpt lat="47.5026750" lon="2.8550610">
        <ele>144.2</ele>
        <time>2020-07-03T11:49:54Z</time>
      </trkpt>
      <trkpt lat="47.5022720" lon="2.8553180">
        <ele>144.4</ele>
        <time>2020-07-03T11:50:03Z</time>
      </trkpt>
      <trkpt lat="47.5016700" lon="2.8555610">
        <ele>144.6</ele>
        <time>2020-07-03T11:50:15Z</time>
      </trkpt>
      <trkpt lat="47.5013210" lon="2.8556970">
        <ele>144.8</ele>
        <time>2020-07-03T11:50:22Z</time>
      </trkpt>
      <trkpt lat="47.5011300" lon="2.8557860">
        <ele>144.6</ele>
        <time>2020-07-03T11:50:26Z</time>
      </trkpt>
      <trkpt lat="47.5005680" lon="2.8560240">
        <ele>145.6</ele>
        <time>2020-07-03T11:50:39Z</time>
      </trkpt>
      <trkpt lat="47.5004450" lon="2.8560900">
        <ele>145.6</ele>
        <time>2020-07-03T11:50:42Z</time>
      </trkpt>
      <trkpt lat="47.5000750" lon="2.8562460">
        <ele>145.6</ele>
        <time>2020-07-03T11:50:50Z</time>
      </trkpt>
      <trkpt lat="47.4997590" lon="2.8563230">
        <ele>145.4</ele>
        <time>2020-07-03T11:50:55Z</time>
      </trkpt>
      <trkpt lat="47.4997590" lon="2.8563230">
        <ele>145.4</ele>
        <time>2020-07-03T11:50:56Z</time>
      </trkpt>
      <trkpt lat="47.4995600" lon="2.8564580">
        <ele>145.2</ele>
        <time>2020-07-03T11:50:59Z</time>
      </trkpt>
      <trkpt lat="47.4995110" lon="2.8565080">
        <ele>145.2</ele>
        <time>2020-07-03T11:51:01Z</time>
      </trkpt>
      <trkpt lat="47.4994610" lon="2.8565550">
        <ele>145.2</ele>
        <time>2020-07-03T11:51:02Z</time>
      </trkpt>
      <trkpt lat="47.4992490" lon="2.8567380">
        <ele>145.2</ele>
        <time>2020-07-03T11:51:06Z</time>
      </trkpt>
      <trkpt lat="47.4990780" lon="2.8568770">
        <ele>145.0</ele>
        <time>2020-07-03T11:51:08Z</time>
      </trkpt>
      <trkpt lat="47.4990200" lon="2.8569220">
        <ele>144.6</ele>
        <time>2020-07-03T11:51:10Z</time>
      </trkpt>
      <trkpt lat="47.4986850" lon="2.8571930">
        <ele>143.0</ele>
        <time>2020-07-03T11:51:16Z</time>
      </trkpt>
      <trkpt lat="47.4983120" lon="2.8575140">
        <ele>142.2</ele>
        <time>2020-07-03T11:51:22Z</time>
      </trkpt>
      <trkpt lat="47.4982060" lon="2.8575960">
        <ele>142.2</ele>
        <time>2020-07-03T11:51:25Z</time>
      </trkpt>
      <trkpt lat="47.4976940" lon="2.8579810">
        <ele>143.2</ele>
        <time>2020-07-03T11:51:34Z</time>
      </trkpt>
      <trkpt lat="47.4975820" lon="2.8580830">
        <ele>143.2</ele>
        <time>2020-07-03T11:51:36Z</time>
      </trkpt>
      <trkpt lat="47.4970730" lon="2.8584880">
        <ele>143.4</ele>
        <time>2020-07-03T11:51:44Z</time>
      </trkpt>
      <trkpt lat="47.4969090" lon="2.8586170">
        <ele>143.0</ele>
        <time>2020-07-03T11:51:47Z</time>
      </trkpt>
      <trkpt lat="47.4967440" lon="2.8587430">
        <ele>142.8</ele>
        <time>2020-07-03T11:51:51Z</time>
      </trkpt>
      <trkpt lat="47.4965810" lon="2.8588770">
        <ele>143.0</ele>
        <time>2020-07-03T11:51:53Z</time>
      </trkpt>
      <trkpt lat="47.4965810" lon="2.8588770">
        <ele>143.0</ele>
        <time>2020-07-03T11:51:54Z</time>
      </trkpt>
      <trkpt lat="47.4960780" lon="2.8592500">
        <ele>143.0</ele>
        <time>2020-07-03T11:52:02Z</time>
      </trkpt>
      <trkpt lat="47.4956380" lon="2.8595580">
        <ele>143.0</ele>
        <time>2020-07-03T11:52:10Z</time>
      </trkpt>
      <trkpt lat="47.4954270" lon="2.8597040">
        <ele>142.6</ele>
        <time>2020-07-03T11:52:14Z</time>
      </trkpt>
      <trkpt lat="47.4952740" lon="2.8598180">
        <ele>142.4</ele>
        <time>2020-07-03T11:52:18Z</time>
      </trkpt>
      <trkpt lat="47.4949760" lon="2.8600580">
        <ele>142.2</ele>
        <time>2020-07-03T11:52:24Z</time>
      </trkpt>
      <trkpt lat="47.4944600" lon="2.8604370">
        <ele>142.4</ele>
        <time>2020-07-03T11:52:34Z</time>
      </trkpt>
      <trkpt lat="47.4943520" lon="2.8605200">
        <ele>142.4</ele>
        <time>2020-07-03T11:52:36Z</time>
      </trkpt>
      <trkpt lat="47.4940740" lon="2.8607370">
        <ele>142.4</ele>
        <time>2020-07-03T11:52:40Z</time>
      </trkpt>
      <trkpt lat="47.4939550" lon="2.8608300">
        <ele>142.6</ele>
        <time>2020-07-03T11:52:43Z</time>
      </trkpt>
      <trkpt lat="47.4938300" lon="2.8609210">
        <ele>142.6</ele>
        <time>2020-07-03T11:52:45Z</time>
      </trkpt>
      <trkpt lat="47.4933340" lon="2.8613170">
        <ele>142.6</ele>
        <time>2020-07-03T11:52:53Z</time>
      </trkpt>
      <trkpt lat="47.4932730" lon="2.8613630">
        <ele>142.6</ele>
        <time>2020-07-03T11:52:54Z</time>
      </trkpt>
      <trkpt lat="47.4930470" lon="2.8615560">
        <ele>142.8</ele>
        <time>2020-07-03T11:52:57Z</time>
      </trkpt>
      <trkpt lat="47.4928830" lon="2.8616950">
        <ele>143.0</ele>
        <time>2020-07-03T11:53:01Z</time>
      </trkpt>
      <trkpt lat="47.4924110" lon="2.8621220">
        <ele>143.6</ele>
        <time>2020-07-03T11:53:09Z</time>
      </trkpt>
      <trkpt lat="47.4922470" lon="2.8622470">
        <ele>143.6</ele>
        <time>2020-07-03T11:53:12Z</time>
      </trkpt>
      <trkpt lat="47.4916530" lon="2.8625890">
        <ele>143.6</ele>
        <time>2020-07-03T11:53:22Z</time>
      </trkpt>
      <trkpt lat="47.4915290" lon="2.8626600">
        <ele>143.6</ele>
        <time>2020-07-03T11:53:25Z</time>
      </trkpt>
      <trkpt lat="47.4909880" lon="2.8629450">
        <ele>143.0</ele>
        <time>2020-07-03T11:53:34Z</time>
      </trkpt>
      <trkpt lat="47.4909300" lon="2.8629780">
        <ele>143.2</ele>
        <time>2020-07-03T11:53:35Z</time>
      </trkpt>
      <trkpt lat="47.4904630" lon="2.8632330">
        <ele>143.2</ele>
        <time>2020-07-03T11:53:42Z</time>
      </trkpt>
      <trkpt lat="47.4904070" lon="2.8632680">
        <ele>143.4</ele>
        <time>2020-07-03T11:53:44Z</time>
      </trkpt>
      <trkpt lat="47.4898250" lon="2.8635970">
        <ele>144.6</ele>
        <time>2020-07-03T11:53:53Z</time>
      </trkpt>
      <trkpt lat="47.4896490" lon="2.8637020">
        <ele>144.8</ele>
        <time>2020-07-03T11:53:57Z</time>
      </trkpt>
      <trkpt lat="47.4893010" lon="2.8638980">
        <ele>145.4</ele>
        <time>2020-07-03T11:54:02Z</time>
      </trkpt>
      <trkpt lat="47.4892430" lon="2.8639280">
        <ele>145.4</ele>
        <time>2020-07-03T11:54:04Z</time>
      </trkpt>
      <trkpt lat="47.4887910" lon="2.8641930">
        <ele>146.0</ele>
        <time>2020-07-03T11:54:11Z</time>
      </trkpt>
      <trkpt lat="47.4885640" lon="2.8643300">
        <ele>146.2</ele>
        <time>2020-07-03T11:54:15Z</time>
      </trkpt>
      <trkpt lat="47.4880550" lon="2.8646110">
        <ele>146.6</ele>
        <time>2020-07-03T11:54:24Z</time>
      </trkpt>
      <trkpt lat="47.4878890" lon="2.8646950">
        <ele>146.6</ele>
        <time>2020-07-03T11:54:27Z</time>
      </trkpt>
      <trkpt lat="47.4877210" lon="2.8647730">
        <ele>146.6</ele>
        <time>2020-07-03T11:54:31Z</time>
      </trkpt>
      <trkpt lat="47.4873950" lon="2.8649520">
        <ele>146.6</ele>
        <time>2020-07-03T11:54:37Z</time>
      </trkpt>
      <trkpt lat="47.4872870" lon="2.8650110">
        <ele>146.6</ele>
        <time>2020-07-03T11:54:38Z</time>
      </trkpt>
      <trkpt lat="47.4871770" lon="2.8650750">
        <ele>146.4</ele>
        <time>2020-07-03T11:54:41Z</time>
      </trkpt>
      <trkpt lat="47.4867410" lon="2.8653390">
        <ele>145.8</ele>
        <time>2020-07-03T11:54:49Z</time>
      </trkpt>
      <trkpt lat="47.4866280" lon="2.8653970">
        <ele>145.4</ele>
        <time>2020-07-03T11:54:51Z</time>
      </trkpt>
      <trkpt lat="47.4860450" lon="2.8657730">
        <ele>144.0</ele>
        <time>2020-07-03T11:55:01Z</time>
      </trkpt>
      <trkpt lat="47.4860450" lon="2.8657730">
        <ele>144.0</ele>
        <time>2020-07-03T11:55:02Z</time>
      </trkpt>
      <trkpt lat="47.4856720" lon="2.8661060">
        <ele>143.6</ele>
        <time>2020-07-03T11:55:09Z</time>
      </trkpt>
      <trkpt lat="47.4852430" lon="2.8666840">
        <ele>143.0</ele>
        <time>2020-07-03T11:55:18Z</time>
      </trkpt>
      <trkpt lat="47.4852020" lon="2.8667360">
        <ele>143.0</ele>
        <time>2020-07-03T11:55:19Z</time>
      </trkpt>
      <trkpt lat="47.4851600" lon="2.8667840">
        <ele>143.0</ele>
        <time>2020-07-03T11:55:20Z</time>
      </trkpt>
      <trkpt lat="47.4850800" lon="2.8668750">
        <ele>143.0</ele>
        <time>2020-07-03T11:55:22Z</time>
      </trkpt>
      <trkpt lat="47.4849740" lon="2.8669990">
        <ele>143.0</ele>
        <time>2020-07-03T11:55:25Z</time>
      </trkpt>
      <trkpt lat="47.4848340" lon="2.8671510">
        <ele>143.0</ele>
        <time>2020-07-03T11:55:29Z</time>
      </trkpt>
      <trkpt lat="47.4846520" lon="2.8673200">
        <ele>143.8</ele>
        <time>2020-07-03T11:55:34Z</time>
      </trkpt>
      <trkpt lat="47.4845300" lon="2.8674480">
        <ele>144.4</ele>
        <time>2020-07-03T11:55:38Z</time>
      </trkpt>
      <trkpt lat="47.4843290" lon="2.8677140">
        <ele>144.4</ele>
        <time>2020-07-03T11:55:42Z</time>
      </trkpt>
      <trkpt lat="47.4842850" lon="2.8677650">
        <ele>144.6</ele>
        <time>2020-07-03T11:55:43Z</time>
      </trkpt>
      <trkpt lat="47.4840040" lon="2.8680290">
        <ele>145.0</ele>
        <time>2020-07-03T11:55:49Z</time>
      </trkpt>
      <trkpt lat="47.4838070" lon="2.8682090">
        <ele>145.0</ele>
        <time>2020-07-03T11:55:53Z</time>
      </trkpt>
      <trkpt lat="47.4834870" lon="2.8684780">
        <ele>144.8</ele>
        <time>2020-07-03T11:55:59Z</time>
      </trkpt>
      <trkpt lat="47.4834350" lon="2.8685230">
        <ele>145.0</ele>
        <time>2020-07-03T11:56:00Z</time>
      </trkpt>
      <trkpt lat="47.4830170" lon="2.8688430">
        <ele>144.6</ele>
        <time>2020-07-03T11:56:09Z</time>
      </trkpt>
      <trkpt lat="47.4825540" lon="2.8691880">
        <ele>144.2</ele>
        <time>2020-07-03T11:56:17Z</time>
      </trkpt>
      <trkpt lat="47.4820990" lon="2.8695910">
        <ele>143.6</ele>
        <time>2020-07-03T11:56:26Z</time>
      </trkpt>
      <trkpt lat="47.4818560" lon="2.8698120">
        <ele>143.6</ele>
        <time>2020-07-03T11:56:32Z</time>
      </trkpt>
      <trkpt lat="47.4815920" lon="2.8700230">
        <ele>143.4</ele>
        <time>2020-07-03T11:56:36Z</time>
      </trkpt>
      <trkpt lat="47.4811090" lon="2.8703340">
        <ele>143.4</ele>
        <time>2020-07-03T11:56:45Z</time>
      </trkpt>
      <trkpt lat="47.4809550" lon="2.8703970">
        <ele>143.4</ele>
        <time>2020-07-03T11:56:49Z</time>
      </trkpt>
      <trkpt lat="47.4805920" lon="2.8705680">
        <ele>144.6</ele>
        <time>2020-07-03T11:56:56Z</time>
      </trkpt>
      <trkpt lat="47.4805370" lon="2.8705930">
        <ele>144.8</ele>
        <time>2020-07-03T11:56:57Z</time>
      </trkpt>
      <trkpt lat="47.4803690" lon="2.8706620">
        <ele>145.0</ele>
        <time>2020-07-03T11:57:00Z</time>
      </trkpt>
      <trkpt lat="47.4798350" lon="2.8708850">
        <ele>145.2</ele>
        <time>2020-07-03T11:57:08Z</time>
      </trkpt>
      <trkpt lat="47.4795220" lon="2.8710490">
        <ele>145.2</ele>
        <time>2020-07-03T11:57:14Z</time>
      </trkpt>
      <trkpt lat="47.4794760" lon="2.8710730">
        <ele>145.4</ele>
        <time>2020-07-03T11:57:16Z</time>
      </trkpt>
      <trkpt lat="47.4791470" lon="2.8712390">
        <ele>145.4</ele>
        <time>2020-07-03T11:57:22Z</time>
      </trkpt>
      <trkpt lat="47.4790530" lon="2.8712930">
        <ele>145.8</ele>
        <time>2020-07-03T11:57:24Z</time>
      </trkpt>
      <trkpt lat="47.4789610" lon="2.8713420">
        <ele>146.0</ele>
        <time>2020-07-03T11:57:26Z</time>
      </trkpt>
      <trkpt lat="47.4789130" lon="2.8713670">
        <ele>146.2</ele>
        <time>2020-07-03T11:57:27Z</time>
      </trkpt>
      <trkpt lat="47.4783540" lon="2.8716320">
        <ele>147.2</ele>
        <time>2020-07-03T11:57:38Z</time>
      </trkpt>
      <trkpt lat="47.4782430" lon="2.8716810">
        <ele>147.0</ele>
        <time>2020-07-03T11:57:40Z</time>
      </trkpt>
      <trkpt lat="47.4777900" lon="2.8719080">
        <ele>147.0</ele>
        <time>2020-07-03T11:57:48Z</time>
      </trkpt>
      <trkpt lat="47.4776840" lon="2.8719680">
        <ele>146.8</ele>
        <time>2020-07-03T11:57:50Z</time>
      </trkpt>
      <trkpt lat="47.4776310" lon="2.8719950">
        <ele>146.8</ele>
        <time>2020-07-03T11:57:51Z</time>
      </trkpt>
      <trkpt lat="47.4771300" lon="2.8722530">
        <ele>146.6</ele>
        <time>2020-07-03T11:58:00Z</time>
      </trkpt>
      <trkpt lat="47.4765830" lon="2.8723960">
        <ele>146.8</ele>
        <time>2020-07-03T11:58:09Z</time>
      </trkpt>
      <trkpt lat="47.4762720" lon="2.8723610">
        <ele>146.2</ele>
        <time>2020-07-03T11:58:14Z</time>
      </trkpt>
      <trkpt lat="47.4761540" lon="2.8723390">
        <ele>146.2</ele>
        <time>2020-07-03T11:58:16Z</time>
      </trkpt>
      <trkpt lat="47.4755920" lon="2.8722330">
        <ele>145.6</ele>
        <time>2020-07-03T11:58:26Z</time>
      </trkpt>
      <trkpt lat="47.4751200" lon="2.8721540">
        <ele>144.6</ele>
        <time>2020-07-03T11:58:34Z</time>
      </trkpt>
      <trkpt lat="47.4746890" lon="2.8721350">
        <ele>144.4</ele>
        <time>2020-07-03T11:58:42Z</time>
      </trkpt>
      <trkpt lat="47.4744370" lon="2.8721970">
        <ele>144.2</ele>
        <time>2020-07-03T11:58:47Z</time>
      </trkpt>
      <trkpt lat="47.4743380" lon="2.8722140">
        <ele>144.2</ele>
        <time>2020-07-03T11:58:49Z</time>
      </trkpt>
      <trkpt lat="47.4739120" lon="2.8723470">
        <ele>144.0</ele>
        <time>2020-07-03T11:58:58Z</time>
      </trkpt>
      <trkpt lat="47.4736080" lon="2.8725800">
        <ele>144.2</ele>
        <time>2020-07-03T11:59:05Z</time>
      </trkpt>
      <trkpt lat="47.4734940" lon="2.8726910">
        <ele>144.4</ele>
        <time>2020-07-03T11:59:08Z</time>
      </trkpt>
      <trkpt lat="47.4733480" lon="2.8728270">
        <ele>144.8</ele>
        <time>2020-07-03T11:59:12Z</time>
      </trkpt>
      <trkpt lat="47.4731920" lon="2.8729440">
        <ele>145.2</ele>
        <time>2020-07-03T11:59:16Z</time>
      </trkpt>
      <trkpt lat="47.4731500" lon="2.8729700">
        <ele>145.2</ele>
        <time>2020-07-03T11:59:17Z</time>
      </trkpt>
      <trkpt lat="47.4731100" lon="2.8729970">
        <ele>145.4</ele>
        <time>2020-07-03T11:59:18Z</time>
      </trkpt>
      <trkpt lat="47.4730700" lon="2.8730260">
        <ele>145.4</ele>
        <time>2020-07-03T11:59:19Z</time>
      </trkpt>
      <trkpt lat="47.4728190" lon="2.8731650">
        <ele>146.0</ele>
        <time>2020-07-03T11:59:26Z</time>
      </trkpt>
      <trkpt lat="47.4727610" lon="2.8731940">
        <ele>146.0</ele>
        <time>2020-07-03T11:59:29Z</time>
      </trkpt>
      <trkpt lat="47.4726540" lon="2.8732780">
        <ele>146.6</ele>
        <time>2020-07-03T11:59:34Z</time>
      </trkpt>
      <trkpt lat="47.4726480" lon="2.8733060">
        <ele>146.8</ele>
        <time>2020-07-03T11:59:35Z</time>
      </trkpt>
      <trkpt lat="47.4726950" lon="2.8734620">
        <ele>147.0</ele>
        <time>2020-07-03T11:59:38Z</time>
      </trkpt>
      <trkpt lat="47.4727710" lon="2.8736100">
        <ele>147.0</ele>
        <time>2020-07-03T11:59:41Z</time>
      </trkpt>
      <trkpt lat="47.4728300" lon="2.8737140">
        <ele>147.0</ele>
        <time>2020-07-03T11:59:43Z</time>
      </trkpt>
      <trkpt lat="47.4728590" lon="2.8737680">
        <ele>146.8</ele>
        <time>2020-07-03T11:59:44Z</time>
      </trkpt>
      <trkpt lat="47.4730010" lon="2.8741270">
        <ele>146.6</ele>
        <time>2020-07-03T11:59:49Z</time>
      </trkpt>
      <trkpt lat="47.4731590" lon="2.8747530">
        <ele>144.2</ele>
        <time>2020-07-03T11:59:57Z</time>
      </trkpt>
      <trkpt lat="47.4731690" lon="2.8748840">
        <ele>144.2</ele>
        <time>2020-07-03T11:59:59Z</time>
      </trkpt>
      <trkpt lat="47.4731610" lon="2.8750640">
        <ele>144.2</ele>
        <time>2020-07-03T12:00:02Z</time>
      </trkpt>
      <trkpt lat="47.4731480" lon="2.8751930">
        <ele>144.2</ele>
        <time>2020-07-03T12:00:04Z</time>
      </trkpt>
      <trkpt lat="47.4731210" lon="2.8753850">
        <ele>144.2</ele>
        <time>2020-07-03T12:00:08Z</time>
      </trkpt>
      <trkpt lat="47.4730950" lon="2.8756170">
        <ele>145.0</ele>
        <time>2020-07-03T12:00:12Z</time>
      </trkpt>
      <trkpt lat="47.4730780" lon="2.8758100">
        <ele>145.8</ele>
        <time>2020-07-03T12:00:15Z</time>
      </trkpt>
      <trkpt lat="47.4730740" lon="2.8759790">
        <ele>147.2</ele>
        <time>2020-07-03T12:00:19Z</time>
      </trkpt>
      <trkpt lat="47.4730720" lon="2.8761350">
        <ele>147.8</ele>
        <time>2020-07-03T12:00:23Z</time>
      </trkpt>
      <trkpt lat="47.4730610" lon="2.8762650">
        <ele>147.6</ele>
        <time>2020-07-03T12:00:25Z</time>
      </trkpt>
      <trkpt lat="47.4730540" lon="2.8763430">
        <ele>147.6</ele>
        <time>2020-07-03T12:00:26Z</time>
      </trkpt>
      <trkpt lat="47.4730380" lon="2.8766210">
        <ele>147.8</ele>
        <time>2020-07-03T12:00:28Z</time>
      </trkpt>
      <trkpt lat="47.4730270" lon="2.8769400">
        <ele>147.6</ele>
        <time>2020-07-03T12:00:31Z</time>
      </trkpt>
      <trkpt lat="47.4730250" lon="2.8770530">
        <ele>146.8</ele>
        <time>2020-07-03T12:00:33Z</time>
      </trkpt>
      <trkpt lat="47.4730220" lon="2.8773000">
        <ele>146.0</ele>
        <time>2020-07-03T12:00:35Z</time>
      </trkpt>
      <trkpt lat="47.4730190" lon="2.8774250">
        <ele>145.2</ele>
        <time>2020-07-03T12:00:36Z</time>
      </trkpt>
      <trkpt lat="47.4730100" lon="2.8777910">
        <ele>144.6</ele>
        <time>2020-07-03T12:00:38Z</time>
      </trkpt>
      <trkpt lat="47.4730090" lon="2.8778510">
        <ele>143.8</ele>
        <time>2020-07-03T12:00:39Z</time>
      </trkpt>
      <trkpt lat="47.4730070" lon="2.8779110">
        <ele>143.4</ele>
        <time>2020-07-03T12:00:40Z</time>
      </trkpt>
      <trkpt lat="47.4729830" lon="2.8787490">
        <ele>142.0</ele>
        <time>2020-07-03T12:00:47Z</time>
      </trkpt>
      <trkpt lat="47.4729590" lon="2.8794630">
        <ele>142.0</ele>
        <time>2020-07-03T12:00:55Z</time>
      </trkpt>
      <trkpt lat="47.4729580" lon="2.8798710">
        <ele>142.0</ele>
        <time>2020-07-03T12:01:01Z</time>
      </trkpt>
      <trkpt lat="47.4729410" lon="2.8801960">
        <ele>141.8</ele>
        <time>2020-07-03T12:01:05Z</time>
      </trkpt>
      <trkpt lat="47.4729270" lon="2.8805360">
        <ele>141.8</ele>
        <time>2020-07-03T12:01:09Z</time>
      </trkpt>
      <trkpt lat="47.4729190" lon="2.8810910">
        <ele>141.8</ele>
        <time>2020-07-03T12:01:15Z</time>
      </trkpt>
      <trkpt lat="47.4728440" lon="2.8819280">
        <ele>141.6</ele>
        <time>2020-07-03T12:01:23Z</time>
      </trkpt>
      <trkpt lat="47.4728440" lon="2.8819280">
        <ele>141.6</ele>
        <time>2020-07-03T12:01:24Z</time>
      </trkpt>
      <trkpt lat="47.4727460" lon="2.8827180">
        <ele>141.6</ele>
        <time>2020-07-03T12:01:33Z</time>
      </trkpt>
      <trkpt lat="47.4727310" lon="2.8827900">
        <ele>141.6</ele>
        <time>2020-07-03T12:01:34Z</time>
      </trkpt>
      <trkpt lat="47.4726400" lon="2.8830740">
        <ele>141.6</ele>
        <time>2020-07-03T12:01:37Z</time>
      </trkpt>
      <trkpt lat="47.4725470" lon="2.8833070">
        <ele>141.6</ele>
        <time>2020-07-03T12:01:40Z</time>
      </trkpt>
      <trkpt lat="47.4722540" lon="2.8840780">
        <ele>141.4</ele>
        <time>2020-07-03T12:01:49Z</time>
      </trkpt>
      <trkpt lat="47.4722220" lon="2.8841640">
        <ele>141.0</ele>
        <time>2020-07-03T12:01:50Z</time>
      </trkpt>
      <trkpt lat="47.4720150" lon="2.8846930">
        <ele>140.8</ele>
        <time>2020-07-03T12:01:57Z</time>
      </trkpt>
      <trkpt lat="47.4717210" lon="2.8854100">
        <ele>140.8</ele>
        <time>2020-07-03T12:02:07Z</time>
      </trkpt>
      <trkpt lat="47.4716900" lon="2.8854800">
        <ele>141.0</ele>
        <time>2020-07-03T12:02:08Z</time>
      </trkpt>
      <trkpt lat="47.4716590" lon="2.8855540">
        <ele>141.0</ele>
        <time>2020-07-03T12:02:09Z</time>
      </trkpt>
      <trkpt lat="47.4713950" lon="2.8862430">
        <ele>141.2</ele>
        <time>2020-07-03T12:02:18Z</time>
      </trkpt>
      <trkpt lat="47.4713640" lon="2.8863180">
        <ele>141.2</ele>
        <time>2020-07-03T12:02:20Z</time>
      </trkpt>
      <trkpt lat="47.4713140" lon="2.8864640">
        <ele>141.4</ele>
        <time>2020-07-03T12:02:21Z</time>
      </trkpt>
      <trkpt lat="47.4712680" lon="2.8867120">
        <ele>141.4</ele>
        <time>2020-07-03T12:02:24Z</time>
      </trkpt>
      <trkpt lat="47.4712080" lon="2.8872680">
        <ele>142.0</ele>
        <time>2020-07-03T12:02:32Z</time>
      </trkpt>
      <trkpt lat="47.4710870" lon="2.8879050">
        <ele>141.8</ele>
        <time>2020-07-03T12:02:39Z</time>
      </trkpt>
      <trkpt lat="47.4708900" lon="2.8884600">
        <ele>141.8</ele>
        <time>2020-07-03T12:02:46Z</time>
      </trkpt>
      <trkpt lat="47.4708000" lon="2.8887070">
        <ele>141.6</ele>
        <time>2020-07-03T12:02:49Z</time>
      </trkpt>
      <trkpt lat="47.4707460" lon="2.8888710">
        <ele>141.6</ele>
        <time>2020-07-03T12:02:51Z</time>
      </trkpt>
      <trkpt lat="47.4705990" lon="2.8892360">
        <ele>141.6</ele>
        <time>2020-07-03T12:02:56Z</time>
      </trkpt>
      <trkpt lat="47.4705680" lon="2.8893080">
        <ele>141.6</ele>
        <time>2020-07-03T12:02:57Z</time>
      </trkpt>
      <trkpt lat="47.4703040" lon="2.8900260">
        <ele>141.4</ele>
        <time>2020-07-03T12:03:06Z</time>
      </trkpt>
      <trkpt lat="47.4700370" lon="2.8907140">
        <ele>141.2</ele>
        <time>2020-07-03T12:03:14Z</time>
      </trkpt>
      <trkpt lat="47.4699710" lon="2.8908750">
        <ele>141.2</ele>
        <time>2020-07-03T12:03:16Z</time>
      </trkpt>
      <trkpt lat="47.4698370" lon="2.8911860">
        <ele>141.2</ele>
        <time>2020-07-03T12:03:20Z</time>
      </trkpt>
      <trkpt lat="47.4696590" lon="2.8915500">
        <ele>141.4</ele>
        <time>2020-07-03T12:03:25Z</time>
      </trkpt>
      <trkpt lat="47.4693320" lon="2.8920240">
        <ele>142.0</ele>
        <time>2020-07-03T12:03:33Z</time>
      </trkpt>
      <trkpt lat="47.4692500" lon="2.8921300">
        <ele>141.8</ele>
        <time>2020-07-03T12:03:35Z</time>
      </trkpt>
      <trkpt lat="47.4689610" lon="2.8924590">
        <ele>141.6</ele>
        <time>2020-07-03T12:03:41Z</time>
      </trkpt>
      <trkpt lat="47.4685130" lon="2.8929700">
        <ele>141.6</ele>
        <time>2020-07-03T12:03:50Z</time>
      </trkpt>
      <trkpt lat="47.4683660" lon="2.8930890">
        <ele>141.6</ele>
        <time>2020-07-03T12:03:53Z</time>
      </trkpt>
      <trkpt lat="47.4680770" lon="2.8933120">
        <ele>141.8</ele>
        <time>2020-07-03T12:03:59Z</time>
      </trkpt>
      <trkpt lat="47.4677540" lon="2.8934700">
        <ele>141.8</ele>
        <time>2020-07-03T12:04:05Z</time>
      </trkpt>
      <trkpt lat="47.4674550" lon="2.8935680">
        <ele>142.2</ele>
        <time>2020-07-03T12:04:11Z</time>
      </trkpt>
      <trkpt lat="47.4674100" lon="2.8936000">
        <ele>142.2</ele>
        <time>2020-07-03T12:04:13Z</time>
      </trkpt>
      <trkpt lat="47.4673730" lon="2.8936430">
        <ele>142.2</ele>
        <time>2020-07-03T12:04:14Z</time>
      </trkpt>
      <trkpt lat="47.4673210" lon="2.8937620">
        <ele>142.2</ele>
        <time>2020-07-03T12:04:16Z</time>
      </trkpt>
      <trkpt lat="47.4672960" lon="2.8939210">
        <ele>142.0</ele>
        <time>2020-07-03T12:04:17Z</time>
      </trkpt>
      <trkpt lat="47.4672640" lon="2.8941830">
        <ele>142.0</ele>
        <time>2020-07-03T12:04:20Z</time>
      </trkpt>
      <trkpt lat="47.4672090" lon="2.8947030">
        <ele>141.8</ele>
        <time>2020-07-03T12:04:26Z</time>
      </trkpt>
      <trkpt lat="47.4671690" lon="2.8952310">
        <ele>141.8</ele>
        <time>2020-07-03T12:04:32Z</time>
      </trkpt>
      <trkpt lat="47.4671560" lon="2.8954100">
        <ele>141.8</ele>
        <time>2020-07-03T12:04:34Z</time>
      </trkpt>
      <trkpt lat="47.4671520" lon="2.8954940">
        <ele>141.8</ele>
        <time>2020-07-03T12:04:35Z</time>
      </trkpt>
      <trkpt lat="47.4671320" lon="2.8956410">
        <ele>141.8</ele>
        <time>2020-07-03T12:04:37Z</time>
      </trkpt>
      <trkpt lat="47.4671150" lon="2.8956930">
        <ele>141.8</ele>
        <time>2020-07-03T12:04:38Z</time>
      </trkpt>
      <trkpt lat="47.4670930" lon="2.8957300">
        <ele>142.0</ele>
        <time>2020-07-03T12:04:39Z</time>
      </trkpt>
      <trkpt lat="47.4670370" lon="2.8957420">
        <ele>142.0</ele>
        <time>2020-07-03T12:04:41Z</time>
      </trkpt>
      <trkpt lat="47.4669720" lon="2.8956260">
        <ele>142.0</ele>
        <time>2020-07-03T12:04:44Z</time>
      </trkpt>
      <trkpt lat="47.4667770" lon="2.8952630">
        <ele>142.0</ele>
        <time>2020-07-03T12:04:50Z</time>
      </trkpt>
      <trkpt lat="47.4666790" lon="2.8951790">
        <ele>142.0</ele>
        <time>2020-07-03T12:04:52Z</time>
      </trkpt>
      <trkpt lat="47.4665710" lon="2.8951420">
        <ele>142.2</ele>
        <time>2020-07-03T12:04:54Z</time>
      </trkpt>
      <trkpt lat="47.4663050" lon="2.8951570">
        <ele>141.8</ele>
        <time>2020-07-03T12:04:59Z</time>
      </trkpt>
      <trkpt lat="47.4662520" lon="2.8951460">
        <ele>142.0</ele>
        <time>2020-07-03T12:05:00Z</time>
      </trkpt>
      <trkpt lat="47.4659900" lon="2.8949900">
        <ele>141.8</ele>
        <time>2020-07-03T12:05:05Z</time>
      </trkpt>
      <trkpt lat="47.4658860" lon="2.8949020">
        <ele>141.8</ele>
        <time>2020-07-03T12:05:07Z</time>
      </trkpt>
      <trkpt lat="47.4655600" lon="2.8946300">
        <ele>141.8</ele>
        <time>2020-07-03T12:05:14Z</time>
      </trkpt>
      <trkpt lat="47.4652620" lon="2.8943190">
        <ele>141.4</ele>
        <time>2020-07-03T12:05:22Z</time>
      </trkpt>
      <trkpt lat="47.4648330" lon="2.8938110">
        <ele>141.6</ele>
        <time>2020-07-03T12:05:31Z</time>
      </trkpt>
      <trkpt lat="47.4647450" lon="2.8937110">
        <ele>141.4</ele>
        <time>2020-07-03T12:05:33Z</time>
      </trkpt>
      <trkpt lat="47.4642820" lon="2.8931930">
        <ele>141.4</ele>
        <time>2020-07-03T12:05:43Z</time>
      </trkpt>
      <trkpt lat="47.4642820" lon="2.8931930">
        <ele>141.4</ele>
        <time>2020-07-03T12:05:44Z</time>
      </trkpt>
      <trkpt lat="47.4637720" lon="2.8926540">
        <ele>141.6</ele>
        <time>2020-07-03T12:05:54Z</time>
      </trkpt>
      <trkpt lat="47.4633400" lon="2.8922390">
        <ele>141.8</ele>
        <time>2020-07-03T12:06:03Z</time>
      </trkpt>
      <trkpt lat="47.4631060" lon="2.8919860">
        <ele>141.8</ele>
        <time>2020-07-03T12:06:08Z</time>
      </trkpt>
      <trkpt lat="47.4629750" lon="2.8918460">
        <ele>142.0</ele>
        <time>2020-07-03T12:06:11Z</time>
      </trkpt>
      <trkpt lat="47.4625940" lon="2.8915150">
        <ele>142.4</ele>
        <time>2020-07-03T12:06:19Z</time>
      </trkpt>
      <trkpt lat="47.4624980" lon="2.8914540">
        <ele>142.2</ele>
        <time>2020-07-03T12:06:21Z</time>
      </trkpt>
      <trkpt lat="47.4623770" lon="2.8913370">
        <ele>142.4</ele>
        <time>2020-07-03T12:06:24Z</time>
      </trkpt>
      <trkpt lat="47.4623510" lon="2.8912820">
        <ele>142.4</ele>
        <time>2020-07-03T12:06:25Z</time>
      </trkpt>
      <trkpt lat="47.4623340" lon="2.8912260">
        <ele>142.6</ele>
        <time>2020-07-03T12:06:26Z</time>
      </trkpt>
      <trkpt lat="47.4623130" lon="2.8910930">
        <ele>142.6</ele>
        <time>2020-07-03T12:06:29Z</time>
      </trkpt>
      <trkpt lat="47.4623100" lon="2.8909460">
        <ele>142.4</ele>
        <time>2020-07-03T12:06:30Z</time>
      </trkpt>
      <trkpt lat="47.4623310" lon="2.8908070">
        <ele>142.4</ele>
        <time>2020-07-03T12:06:33Z</time>
      </trkpt>
      <trkpt lat="47.4624080" lon="2.8901210">
        <ele>142.4</ele>
        <time>2020-07-03T12:06:41Z</time>
      </trkpt>
      <trkpt lat="47.4623960" lon="2.8900380">
        <ele>142.4</ele>
        <time>2020-07-03T12:06:42Z</time>
      </trkpt>
      <trkpt lat="47.4623760" lon="2.8899570">
        <ele>142.2</ele>
        <time>2020-07-03T12:06:43Z</time>
      </trkpt>
      <trkpt lat="47.4623160" lon="2.8898210">
        <ele>142.0</ele>
        <time>2020-07-03T12:06:45Z</time>
      </trkpt>
      <trkpt lat="47.4622380" lon="2.8897200">
        <ele>142.0</ele>
        <time>2020-07-03T12:06:47Z</time>
      </trkpt>
      <trkpt lat="47.4620960" lon="2.8895890">
        <ele>141.8</ele>
        <time>2020-07-03T12:06:50Z</time>
      </trkpt>
      <trkpt lat="47.4620480" lon="2.8895480">
        <ele>141.8</ele>
        <time>2020-07-03T12:06:51Z</time>
      </trkpt>
      <trkpt lat="47.4619010" lon="2.8894290">
        <ele>141.6</ele>
        <time>2020-07-03T12:06:54Z</time>
      </trkpt>
      <trkpt lat="47.4618510" lon="2.8893880">
        <ele>141.6</ele>
        <time>2020-07-03T12:06:55Z</time>
      </trkpt>
      <trkpt lat="47.4618040" lon="2.8893530">
        <ele>141.6</ele>
        <time>2020-07-03T12:06:56Z</time>
      </trkpt>
      <trkpt lat="47.4616760" lon="2.8892560">
        <ele>141.6</ele>
        <time>2020-07-03T12:06:59Z</time>
      </trkpt>
      <trkpt lat="47.4613370" lon="2.8890360">
        <ele>141.4</ele>
        <time>2020-07-03T12:07:06Z</time>
      </trkpt>
      <trkpt lat="47.4609900" lon="2.8887700">
        <ele>141.4</ele>
        <time>2020-07-03T12:07:12Z</time>
      </trkpt>
      <trkpt lat="47.4606250" lon="2.8886410">
        <ele>141.6</ele>
        <time>2020-07-03T12:07:18Z</time>
      </trkpt>
      <trkpt lat="47.4602240" lon="2.8885450">
        <ele>142.2</ele>
        <time>2020-07-03T12:07:25Z</time>
      </trkpt>
      <trkpt lat="47.4601170" lon="2.8884720">
        <ele>142.4</ele>
        <time>2020-07-03T12:07:27Z</time>
      </trkpt>
      <trkpt lat="47.4600370" lon="2.8883580">
        <ele>142.8</ele>
        <time>2020-07-03T12:07:29Z</time>
      </trkpt>
      <trkpt lat="47.4599900" lon="2.8882110">
        <ele>142.6</ele>
        <time>2020-07-03T12:07:31Z</time>
      </trkpt>
      <trkpt lat="47.4599740" lon="2.8880490">
        <ele>142.6</ele>
        <time>2020-07-03T12:07:33Z</time>
      </trkpt>
      <trkpt lat="47.4599830" lon="2.8875510">
        <ele>143.0</ele>
        <time>2020-07-03T12:07:39Z</time>
      </trkpt>
      <trkpt lat="47.4599630" lon="2.8873950">
        <ele>142.8</ele>
        <time>2020-07-03T12:07:41Z</time>
      </trkpt>
      <trkpt lat="47.4599120" lon="2.8872520">
        <ele>143.0</ele>
        <time>2020-07-03T12:07:43Z</time>
      </trkpt>
      <trkpt lat="47.4596700" lon="2.8868560">
        <ele>143.0</ele>
        <time>2020-07-03T12:07:49Z</time>
      </trkpt>
      <trkpt lat="47.4594880" lon="2.8866540">
        <ele>143.0</ele>
        <time>2020-07-03T12:07:53Z</time>
      </trkpt>
      <trkpt lat="47.4593870" lon="2.8865860">
        <ele>143.0</ele>
        <time>2020-07-03T12:07:55Z</time>
      </trkpt>
      <trkpt lat="47.4590650" lon="2.8864510">
        <ele>143.0</ele>
        <time>2020-07-03T12:08:01Z</time>
      </trkpt>
      <trkpt lat="47.4589550" lon="2.8864410">
        <ele>143.0</ele>
        <time>2020-07-03T12:08:03Z</time>
      </trkpt>
      <trkpt lat="47.4588430" lon="2.8864710">
        <ele>142.8</ele>
        <time>2020-07-03T12:08:05Z</time>
      </trkpt>
      <trkpt lat="47.4586900" lon="2.8865730">
        <ele>142.8</ele>
        <time>2020-07-03T12:08:08Z</time>
      </trkpt>
      <trkpt lat="47.4581970" lon="2.8869100">
        <ele>142.6</ele>
        <time>2020-07-03T12:08:17Z</time>
      </trkpt>
      <trkpt lat="47.4580870" lon="2.8869790">
        <ele>142.6</ele>
        <time>2020-07-03T12:08:19Z</time>
      </trkpt>
      <trkpt lat="47.4578420" lon="2.8871650">
        <ele>142.6</ele>
        <time>2020-07-03T12:08:24Z</time>
      </trkpt>
      <trkpt lat="47.4578020" lon="2.8872100">
        <ele>142.6</ele>
        <time>2020-07-03T12:08:25Z</time>
      </trkpt>
      <trkpt lat="47.4575670" lon="2.8875680">
        <ele>142.4</ele>
        <time>2020-07-03T12:08:31Z</time>
      </trkpt>
      <trkpt lat="47.4571570" lon="2.8881780">
        <ele>142.4</ele>
        <time>2020-07-03T12:08:41Z</time>
      </trkpt>
      <trkpt lat="47.4571570" lon="2.8881780">
        <ele>142.4</ele>
        <time>2020-07-03T12:08:42Z</time>
      </trkpt>
      <trkpt lat="47.4568780" lon="2.8886170">
        <ele>142.4</ele>
        <time>2020-07-03T12:08:48Z</time>
      </trkpt>
      <trkpt lat="47.4566290" lon="2.8890370">
        <ele>143.2</ele>
        <time>2020-07-03T12:08:54Z</time>
      </trkpt>
      <trkpt lat="47.4565920" lon="2.8891090">
        <ele>143.2</ele>
        <time>2020-07-03T12:08:55Z</time>
      </trkpt>
      <trkpt lat="47.4565640" lon="2.8891830">
        <ele>143.2</ele>
        <time>2020-07-03T12:08:56Z</time>
      </trkpt>
      <trkpt lat="47.4565550" lon="2.8892210">
        <ele>143.4</ele>
        <time>2020-07-03T12:08:57Z</time>
      </trkpt>
      <trkpt lat="47.4565450" lon="2.8892590">
        <ele>143.4</ele>
        <time>2020-07-03T12:08:58Z</time>
      </trkpt>
      <trkpt lat="47.4565340" lon="2.8894070">
        <ele>143.4</ele>
        <time>2020-07-03T12:09:00Z</time>
      </trkpt>
      <trkpt lat="47.4565430" lon="2.8894800">
        <ele>143.2</ele>
        <time>2020-07-03T12:09:01Z</time>
      </trkpt>
      <trkpt lat="47.4565580" lon="2.8895530">
        <ele>143.2</ele>
        <time>2020-07-03T12:09:02Z</time>
      </trkpt>
      <trkpt lat="47.4565730" lon="2.8896270">
        <ele>143.4</ele>
        <time>2020-07-03T12:09:03Z</time>
      </trkpt>
      <trkpt lat="47.4565900" lon="2.8896990">
        <ele>143.4</ele>
        <time>2020-07-03T12:09:04Z</time>
      </trkpt>
      <trkpt lat="47.4566920" lon="2.8900830">
        <ele>143.6</ele>
        <time>2020-07-03T12:09:08Z</time>
      </trkpt>
      <trkpt lat="47.4567030" lon="2.8901220">
        <ele>143.6</ele>
        <time>2020-07-03T12:09:09Z</time>
      </trkpt>
      <trkpt lat="47.4567130" lon="2.8901620">
        <ele>143.6</ele>
        <time>2020-07-03T12:09:10Z</time>
      </trkpt>
      <trkpt lat="47.4569140" lon="2.8909070">
        <ele>143.6</ele>
        <time>2020-07-03T12:09:18Z</time>
      </trkpt>
      <trkpt lat="47.4569370" lon="2.8909980">
        <ele>143.6</ele>
        <time>2020-07-03T12:09:19Z</time>
      </trkpt>
      <trkpt lat="47.4571210" lon="2.8917790">
        <ele>143.4</ele>
        <time>2020-07-03T12:09:27Z</time>
      </trkpt>
      <trkpt lat="47.4571710" lon="2.8919930">
        <ele>143.2</ele>
        <time>2020-07-03T12:09:29Z</time>
      </trkpt>
      <trkpt lat="47.4573670" lon="2.8927840">
        <ele>142.6</ele>
        <time>2020-07-03T12:09:37Z</time>
      </trkpt>
      <trkpt lat="47.4575410" lon="2.8935650">
        <ele>142.6</ele>
        <time>2020-07-03T12:09:46Z</time>
      </trkpt>
      <trkpt lat="47.4575540" lon="2.8936500">
        <ele>142.6</ele>
        <time>2020-07-03T12:09:47Z</time>
      </trkpt>
      <trkpt lat="47.4575960" lon="2.8942690">
        <ele>142.6</ele>
        <time>2020-07-03T12:09:54Z</time>
      </trkpt>
      <trkpt lat="47.4575960" lon="2.8945350">
        <ele>143.0</ele>
        <time>2020-07-03T12:09:57Z</time>
      </trkpt>
      <trkpt lat="47.4575970" lon="2.8951820">
        <ele>143.4</ele>
        <time>2020-07-03T12:10:04Z</time>
      </trkpt>
      <trkpt lat="47.4575880" lon="2.8960310">
        <ele>143.8</ele>
        <time>2020-07-03T12:10:13Z</time>
      </trkpt>
      <trkpt lat="47.4575890" lon="2.8962240">
        <ele>143.8</ele>
        <time>2020-07-03T12:10:15Z</time>
      </trkpt>
      <trkpt lat="47.4575940" lon="2.8970930">
        <ele>143.6</ele>
        <time>2020-07-03T12:10:24Z</time>
      </trkpt>
      <trkpt lat="47.4576110" lon="2.8972700">
        <ele>143.8</ele>
        <time>2020-07-03T12:10:26Z</time>
      </trkpt>
      <trkpt lat="47.4576530" lon="2.8975100">
        <ele>143.6</ele>
        <time>2020-07-03T12:10:29Z</time>
      </trkpt>
      <trkpt lat="47.4576970" lon="2.8976450">
        <ele>143.6</ele>
        <time>2020-07-03T12:10:31Z</time>
      </trkpt>
      <trkpt lat="47.4579520" lon="2.8983340">
        <ele>144.0</ele>
        <time>2020-07-03T12:10:41Z</time>
      </trkpt>
      <trkpt lat="47.4579520" lon="2.8983340">
        <ele>144.2</ele>
        <time>2020-07-03T12:10:42Z</time>
      </trkpt>
      <trkpt lat="47.4581200" lon="2.8987520">
        <ele>144.6</ele>
        <time>2020-07-03T12:10:48Z</time>
      </trkpt>
      <trkpt lat="47.4581620" lon="2.8988060">
        <ele>144.8</ele>
        <time>2020-07-03T12:10:52Z</time>
      </trkpt>
      <trkpt lat="47.4581740" lon="2.8987990">
        <ele>145.0</ele>
        <time>2020-07-03T12:10:54Z</time>
      </trkpt>
      <trkpt lat="47.4582350" lon="2.8988060">
        <ele>145.2</ele>
        <time>2020-07-03T12:10:59Z</time>
      </trkpt>
      <trkpt lat="47.4583460" lon="2.8988800">
        <ele>145.2</ele>
        <time>2020-07-03T12:11:04Z</time>
      </trkpt>
      <trkpt lat="47.4584740" lon="2.8989680">
        <ele>145.2</ele>
        <time>2020-07-03T12:11:06Z</time>
      </trkpt>
      <trkpt lat="47.4585640" lon="2.8990440">
        <ele>145.2</ele>
        <time>2020-07-03T12:11:08Z</time>
      </trkpt>
      <trkpt lat="47.4586080" lon="2.8990900">
        <ele>145.2</ele>
        <time>2020-07-03T12:11:10Z</time>
      </trkpt>
      <trkpt lat="47.4586940" lon="2.8991990">
        <ele>145.2</ele>
        <time>2020-07-03T12:11:11Z</time>
      </trkpt>
      <trkpt lat="47.4587680" lon="2.8993350">
        <ele>144.6</ele>
        <time>2020-07-03T12:11:13Z</time>
      </trkpt>
      <trkpt lat="47.4588000" lon="2.8994100">
        <ele>144.6</ele>
        <time>2020-07-03T12:11:14Z</time>
      </trkpt>
      <trkpt lat="47.4588840" lon="2.8996440">
        <ele>143.8</ele>
        <time>2020-07-03T12:11:17Z</time>
      </trkpt>
      <trkpt lat="47.4589740" lon="2.8999420">
        <ele>143.4</ele>
        <time>2020-07-03T12:11:21Z</time>
      </trkpt>
      <trkpt lat="47.4591350" lon="2.9004350">
        <ele>143.6</ele>
        <time>2020-07-03T12:11:28Z</time>
      </trkpt>
      <trkpt lat="47.4591710" lon="2.9004980">
        <ele>143.8</ele>
        <time>2020-07-03T12:11:29Z</time>
      </trkpt>
      <trkpt lat="47.4592120" lon="2.9005540">
        <ele>143.8</ele>
        <time>2020-07-03T12:11:30Z</time>
      </trkpt>
      <trkpt lat="47.4593910" lon="2.9007510">
        <ele>143.8</ele>
        <time>2020-07-03T12:11:34Z</time>
      </trkpt>
      <trkpt lat="47.4596790" lon="2.9011110">
        <ele>143.8</ele>
        <time>2020-07-03T12:11:41Z</time>
      </trkpt>
      <trkpt lat="47.4597140" lon="2.9011760">
        <ele>143.8</ele>
        <time>2020-07-03T12:11:42Z</time>
      </trkpt>
      <trkpt lat="47.4598730" lon="2.9016440">
        <ele>143.6</ele>
        <time>2020-07-03T12:11:48Z</time>
      </trkpt>
      <trkpt lat="47.4600050" lon="2.9023300">
        <ele>143.4</ele>
        <time>2020-07-03T12:11:56Z</time>
      </trkpt>
      <trkpt lat="47.4600650" lon="2.9028490">
        <ele>143.6</ele>
        <time>2020-07-03T12:12:02Z</time>
      </trkpt>
      <trkpt lat="47.4600820" lon="2.9028820">
        <ele>143.6</ele>
        <time>2020-07-03T12:12:03Z</time>
      </trkpt>
      <trkpt lat="47.4600980" lon="2.9029160">
        <ele>143.4</ele>
        <time>2020-07-03T12:12:04Z</time>
      </trkpt>
      <trkpt lat="47.4601980" lon="2.9031180">
        <ele>143.6</ele>
        <time>2020-07-03T12:12:07Z</time>
      </trkpt>
      <trkpt lat="47.4604920" lon="2.9034440">
        <ele>143.6</ele>
        <time>2020-07-03T12:12:12Z</time>
      </trkpt>
      <trkpt lat="47.4605460" lon="2.9034780">
        <ele>143.6</ele>
        <time>2020-07-03T12:12:13Z</time>
      </trkpt>
      <trkpt lat="47.4607090" lon="2.9035930">
        <ele>143.4</ele>
        <time>2020-07-03T12:12:16Z</time>
      </trkpt>
      <trkpt lat="47.4608020" lon="2.9037100">
        <ele>143.4</ele>
        <time>2020-07-03T12:12:18Z</time>
      </trkpt>
      <trkpt lat="47.4608730" lon="2.9038460">
        <ele>143.6</ele>
        <time>2020-07-03T12:12:20Z</time>
      </trkpt>
      <trkpt lat="47.4609180" lon="2.9039990">
        <ele>143.4</ele>
        <time>2020-07-03T12:12:22Z</time>
      </trkpt>
      <trkpt lat="47.4609480" lon="2.9041570">
        <ele>143.6</ele>
        <time>2020-07-03T12:12:24Z</time>
      </trkpt>
      <trkpt lat="47.4609900" lon="2.9045730">
        <ele>143.6</ele>
        <time>2020-07-03T12:12:29Z</time>
      </trkpt>
      <trkpt lat="47.4610580" lon="2.9050850">
        <ele>144.0</ele>
        <time>2020-07-03T12:12:35Z</time>
      </trkpt>
      <trkpt lat="47.4610790" lon="2.9051680">
        <ele>144.0</ele>
        <time>2020-07-03T12:12:36Z</time>
      </trkpt>
      <trkpt lat="47.4612590" lon="2.9057340">
        <ele>144.0</ele>
        <time>2020-07-03T12:12:43Z</time>
      </trkpt>
      <trkpt lat="47.4613110" lon="2.9058920">
        <ele>144.0</ele>
        <time>2020-07-03T12:12:45Z</time>
      </trkpt>
      <trkpt lat="47.4615280" lon="2.9066240">
        <ele>144.4</ele>
        <time>2020-07-03T12:12:54Z</time>
      </trkpt>
      <trkpt lat="47.4616310" lon="2.9069390">
        <ele>144.4</ele>
        <time>2020-07-03T12:12:58Z</time>
      </trkpt>
      <trkpt lat="47.4618390" lon="2.9076320">
        <ele>144.6</ele>
        <time>2020-07-03T12:13:08Z</time>
      </trkpt>
      <trkpt lat="47.4620260" lon="2.9083050">
        <ele>144.4</ele>
        <time>2020-07-03T12:13:17Z</time>
      </trkpt>
      <trkpt lat="47.4621580" lon="2.9087350">
        <ele>144.4</ele>
        <time>2020-07-03T12:13:23Z</time>
      </trkpt>
      <trkpt lat="47.4622250" lon="2.9089580">
        <ele>144.2</ele>
        <time>2020-07-03T12:13:26Z</time>
      </trkpt>
      <trkpt lat="47.4623330" lon="2.9093080">
        <ele>143.8</ele>
        <time>2020-07-03T12:13:31Z</time>
      </trkpt>
      <trkpt lat="47.4624850" lon="2.9097840">
        <ele>144.2</ele>
        <time>2020-07-03T12:13:38Z</time>
      </trkpt>
      <trkpt lat="47.4625650" lon="2.9100300">
        <ele>144.4</ele>
        <time>2020-07-03T12:13:42Z</time>
      </trkpt>
      <trkpt lat="47.4626170" lon="2.9101950">
        <ele>144.6</ele>
        <time>2020-07-03T12:13:45Z</time>
      </trkpt>
      <trkpt lat="47.4626340" lon="2.9102420">
        <ele>144.6</ele>
        <time>2020-07-03T12:13:46Z</time>
      </trkpt>
      <trkpt lat="47.4626480" lon="2.9103800">
        <ele>145.0</ele>
        <time>2020-07-03T12:13:50Z</time>
      </trkpt>
      <trkpt lat="47.4625480" lon="2.9105180">
        <ele>147.0</ele>
        <time>2020-07-03T12:13:56Z</time>
      </trkpt>
      <trkpt lat="47.4624450" lon="2.9106030">
        <ele>147.4</ele>
        <time>2020-07-03T12:13:59Z</time>
      </trkpt>
      <trkpt lat="47.4623260" lon="2.9107130">
        <ele>147.6</ele>
        <time>2020-07-03T12:14:02Z</time>
      </trkpt>
      <trkpt lat="47.4619440" lon="2.9110640">
        <ele>147.4</ele>
        <time>2020-07-03T12:14:11Z</time>
      </trkpt>
      <trkpt lat="47.4615430" lon="2.9114600">
        <ele>147.2</ele>
        <time>2020-07-03T12:14:20Z</time>
      </trkpt>
      <trkpt lat="47.4613590" lon="2.9116410">
        <ele>147.2</ele>
        <time>2020-07-03T12:14:24Z</time>
      </trkpt>
      <trkpt lat="47.4610820" lon="2.9119340">
        <ele>147.0</ele>
        <time>2020-07-03T12:14:30Z</time>
      </trkpt>
      <trkpt lat="47.4606120" lon="2.9124140">
        <ele>146.2</ele>
        <time>2020-07-03T12:14:40Z</time>
      </trkpt>
      <trkpt lat="47.4605660" lon="2.9124600">
        <ele>146.2</ele>
        <time>2020-07-03T12:14:41Z</time>
      </trkpt>
      <trkpt lat="47.4601730" lon="2.9128370">
        <ele>146.2</ele>
        <time>2020-07-03T12:14:49Z</time>
      </trkpt>
      <trkpt lat="47.4597030" lon="2.9132170">
        <ele>146.2</ele>
        <time>2020-07-03T12:14:58Z</time>
      </trkpt>
      <trkpt lat="47.4591600" lon="2.9135190">
        <ele>146.2</ele>
        <time>2020-07-03T12:15:08Z</time>
      </trkpt>
      <trkpt lat="47.4586350" lon="2.9138090">
        <ele>146.0</ele>
        <time>2020-07-03T12:15:18Z</time>
      </trkpt>
      <trkpt lat="47.4584780" lon="2.9138930">
        <ele>146.0</ele>
        <time>2020-07-03T12:15:21Z</time>
      </trkpt>
      <trkpt lat="47.4579500" lon="2.9141640">
        <ele>146.0</ele>
        <time>2020-07-03T12:15:31Z</time>
      </trkpt>
      <trkpt lat="47.4578420" lon="2.9142120">
        <ele>146.0</ele>
        <time>2020-07-03T12:15:33Z</time>
      </trkpt>
      <trkpt lat="47.4572830" lon="2.9144250">
        <ele>146.2</ele>
        <time>2020-07-03T12:15:43Z</time>
      </trkpt>
      <trkpt lat="47.4571710" lon="2.9144620">
        <ele>146.4</ele>
        <time>2020-07-03T12:15:45Z</time>
      </trkpt>
      <trkpt lat="47.4566070" lon="2.9146440">
        <ele>146.2</ele>
        <time>2020-07-03T12:15:55Z</time>
      </trkpt>
      <trkpt lat="47.4562640" lon="2.9147590">
        <ele>146.4</ele>
        <time>2020-07-03T12:16:01Z</time>
      </trkpt>
      <trkpt lat="47.4556990" lon="2.9149430">
        <ele>146.6</ele>
        <time>2020-07-03T12:16:11Z</time>
      </trkpt>
      <trkpt lat="47.4554870" lon="2.9150090">
        <ele>146.8</ele>
        <time>2020-07-03T12:16:15Z</time>
      </trkpt>
      <trkpt lat="47.4551990" lon="2.9150970">
        <ele>147.0</ele>
        <time>2020-07-03T12:16:20Z</time>
      </trkpt>
      <trkpt lat="47.4547570" lon="2.9152470">
        <ele>147.0</ele>
        <time>2020-07-03T12:16:28Z</time>
      </trkpt>
      <trkpt lat="47.4541800" lon="2.9154460">
        <ele>147.0</ele>
        <time>2020-07-03T12:16:38Z</time>
      </trkpt>
      <trkpt lat="47.4541220" lon="2.9154660">
        <ele>147.0</ele>
        <time>2020-07-03T12:16:39Z</time>
      </trkpt>
      <trkpt lat="47.4535500" lon="2.9156510">
        <ele>147.0</ele>
        <time>2020-07-03T12:16:49Z</time>
      </trkpt>
      <trkpt lat="47.4532140" lon="2.9157530">
        <ele>146.8</ele>
        <time>2020-07-03T12:16:55Z</time>
      </trkpt>
      <trkpt lat="47.4527030" lon="2.9159170">
        <ele>147.0</ele>
        <time>2020-07-03T12:17:04Z</time>
      </trkpt>
      <trkpt lat="47.4524160" lon="2.9160120">
        <ele>147.0</ele>
        <time>2020-07-03T12:17:09Z</time>
      </trkpt>
      <trkpt lat="47.4523010" lon="2.9160520">
        <ele>147.0</ele>
        <time>2020-07-03T12:17:11Z</time>
      </trkpt>
      <trkpt lat="47.4517290" lon="2.9162390">
        <ele>147.0</ele>
        <time>2020-07-03T12:17:21Z</time>
      </trkpt>
      <trkpt lat="47.4515020" lon="2.9163190">
        <ele>146.8</ele>
        <time>2020-07-03T12:17:25Z</time>
      </trkpt>
      <trkpt lat="47.4509360" lon="2.9165070">
        <ele>147.0</ele>
        <time>2020-07-03T12:17:35Z</time>
      </trkpt>
      <trkpt lat="47.4508790" lon="2.9165270">
        <ele>147.0</ele>
        <time>2020-07-03T12:17:36Z</time>
      </trkpt>
      <trkpt lat="47.4502970" lon="2.9167240">
        <ele>147.0</ele>
        <time>2020-07-03T12:17:46Z</time>
      </trkpt>
      <trkpt lat="47.4497330" lon="2.9169140">
        <ele>146.8</ele>
        <time>2020-07-03T12:17:56Z</time>
      </trkpt>
      <trkpt lat="47.4496230" lon="2.9169500">
        <ele>146.6</ele>
        <time>2020-07-03T12:17:58Z</time>
      </trkpt>
      <trkpt lat="47.4490570" lon="2.9171370">
        <ele>146.8</ele>
        <time>2020-07-03T12:18:08Z</time>
      </trkpt>
      <trkpt lat="47.4489420" lon="2.9171720">
        <ele>146.8</ele>
        <time>2020-07-03T12:18:10Z</time>
      </trkpt>
      <trkpt lat="47.4484080" lon="2.9173590">
        <ele>147.0</ele>
        <time>2020-07-03T12:18:19Z</time>
      </trkpt>
      <trkpt lat="47.4483500" lon="2.9173810">
        <ele>147.0</ele>
        <time>2020-07-03T12:18:20Z</time>
      </trkpt>
      <trkpt lat="47.4481720" lon="2.9174470">
        <ele>147.0</ele>
        <time>2020-07-03T12:18:23Z</time>
      </trkpt>
      <trkpt lat="47.4479320" lon="2.9175290">
        <ele>147.2</ele>
        <time>2020-07-03T12:18:27Z</time>
      </trkpt>
      <trkpt lat="47.4476900" lon="2.9175900">
        <ele>147.0</ele>
        <time>2020-07-03T12:18:31Z</time>
      </trkpt>
      <trkpt lat="47.4475710" lon="2.9176120">
        <ele>147.0</ele>
        <time>2020-07-03T12:18:33Z</time>
      </trkpt>
      <trkpt lat="47.4472870" lon="2.9176620">
        <ele>147.2</ele>
        <time>2020-07-03T12:18:38Z</time>
      </trkpt>
      <trkpt lat="47.4469980" lon="2.9177120">
        <ele>147.2</ele>
        <time>2020-07-03T12:18:43Z</time>
      </trkpt>
      <trkpt lat="47.4464730" lon="2.9178050">
        <ele>147.6</ele>
        <time>2020-07-03T12:18:52Z</time>
      </trkpt>
      <trkpt lat="47.4464100" lon="2.9178200">
        <ele>147.6</ele>
        <time>2020-07-03T12:18:53Z</time>
      </trkpt>
      <trkpt lat="47.4458670" lon="2.9179220">
        <ele>146.8</ele>
        <time>2020-07-03T12:19:02Z</time>
      </trkpt>
      <trkpt lat="47.4458120" lon="2.9179320">
        <ele>146.6</ele>
        <time>2020-07-03T12:19:03Z</time>
      </trkpt>
      <trkpt lat="47.4457010" lon="2.9179530">
        <ele>146.6</ele>
        <time>2020-07-03T12:19:05Z</time>
      </trkpt>
      <trkpt lat="47.4454650" lon="2.9179900">
        <ele>146.2</ele>
        <time>2020-07-03T12:19:09Z</time>
      </trkpt>
      <trkpt lat="47.4452260" lon="2.9180230">
        <ele>146.4</ele>
        <time>2020-07-03T12:19:13Z</time>
      </trkpt>
      <trkpt lat="47.4446330" lon="2.9181160">
        <ele>146.8</ele>
        <time>2020-07-03T12:19:23Z</time>
      </trkpt>
      <trkpt lat="47.4445740" lon="2.9181260">
        <ele>146.8</ele>
        <time>2020-07-03T12:19:24Z</time>
      </trkpt>
      <trkpt lat="47.4439880" lon="2.9182340">
        <ele>146.6</ele>
        <time>2020-07-03T12:19:34Z</time>
      </trkpt>
      <trkpt lat="47.4438720" lon="2.9182570">
        <ele>146.6</ele>
        <time>2020-07-03T12:19:36Z</time>
      </trkpt>
      <trkpt lat="47.4438140" lon="2.9182660">
        <ele>146.6</ele>
        <time>2020-07-03T12:19:37Z</time>
      </trkpt>
      <trkpt lat="47.4432230" lon="2.9183610">
        <ele>147.0</ele>
        <time>2020-07-03T12:19:47Z</time>
      </trkpt>
      <trkpt lat="47.4426810" lon="2.9184520">
        <ele>147.4</ele>
        <time>2020-07-03T12:19:56Z</time>
      </trkpt>
      <trkpt lat="47.4424990" lon="2.9184740">
        <ele>147.6</ele>
        <time>2020-07-03T12:19:59Z</time>
      </trkpt>
      <trkpt lat="47.4419570" lon="2.9185030">
        <ele>147.4</ele>
        <time>2020-07-03T12:20:08Z</time>
      </trkpt>
      <trkpt lat="47.4417830" lon="2.9185040">
        <ele>147.4</ele>
        <time>2020-07-03T12:20:11Z</time>
      </trkpt>
      <trkpt lat="47.4414810" lon="2.9185030">
        <ele>147.2</ele>
        <time>2020-07-03T12:20:16Z</time>
      </trkpt>
      <trkpt lat="47.4410610" lon="2.9185040">
        <ele>146.8</ele>
        <time>2020-07-03T12:20:23Z</time>
      </trkpt>
      <trkpt lat="47.4404710" lon="2.9185130">
        <ele>147.2</ele>
        <time>2020-07-03T12:20:33Z</time>
      </trkpt>
      <trkpt lat="47.4404120" lon="2.9185160">
        <ele>147.4</ele>
        <time>2020-07-03T12:20:34Z</time>
      </trkpt>
      <trkpt lat="47.4398690" lon="2.9185280">
        <ele>147.4</ele>
        <time>2020-07-03T12:20:43Z</time>
      </trkpt>
      <trkpt lat="47.4395600" lon="2.9185310">
        <ele>147.6</ele>
        <time>2020-07-03T12:20:48Z</time>
      </trkpt>
      <trkpt lat="47.4389640" lon="2.9185560">
        <ele>147.4</ele>
        <time>2020-07-03T12:20:58Z</time>
      </trkpt>
      <trkpt lat="47.4383700" lon="2.9185500">
        <ele>147.4</ele>
        <time>2020-07-03T12:21:08Z</time>
      </trkpt>
      <trkpt lat="47.4381870" lon="2.9185490">
        <ele>147.4</ele>
        <time>2020-07-03T12:21:11Z</time>
      </trkpt>
      <trkpt lat="47.4375940" lon="2.9185730">
        <ele>147.6</ele>
        <time>2020-07-03T12:21:21Z</time>
      </trkpt>
      <trkpt lat="47.4375350" lon="2.9185780">
        <ele>147.4</ele>
        <time>2020-07-03T12:21:22Z</time>
      </trkpt>
      <trkpt lat="47.4370420" lon="2.9185810">
        <ele>147.2</ele>
        <time>2020-07-03T12:21:30Z</time>
      </trkpt>
      <trkpt lat="47.4364730" lon="2.9185660">
        <ele>147.0</ele>
        <time>2020-07-03T12:21:39Z</time>
      </trkpt>
      <trkpt lat="47.4363460" lon="2.9185500">
        <ele>147.2</ele>
        <time>2020-07-03T12:21:41Z</time>
      </trkpt>
      <trkpt lat="47.4357860" lon="2.9184780">
        <ele>147.4</ele>
        <time>2020-07-03T12:21:50Z</time>
      </trkpt>
      <trkpt lat="47.4357260" lon="2.9184730">
        <ele>147.2</ele>
        <time>2020-07-03T12:21:51Z</time>
      </trkpt>
      <trkpt lat="47.4352480" lon="2.9184050">
        <ele>147.0</ele>
        <time>2020-07-03T12:21:59Z</time>
      </trkpt>
      <trkpt lat="47.4348900" lon="2.9183680">
        <ele>147.0</ele>
        <time>2020-07-03T12:22:05Z</time>
      </trkpt>
      <trkpt lat="47.4347070" lon="2.9183620">
        <ele>147.0</ele>
        <time>2020-07-03T12:22:08Z</time>
      </trkpt>
      <trkpt lat="47.4345870" lon="2.9183610">
        <ele>147.0</ele>
        <time>2020-07-03T12:22:10Z</time>
      </trkpt>
      <trkpt lat="47.4340130" lon="2.9183800">
        <ele>147.0</ele>
        <time>2020-07-03T12:22:20Z</time>
      </trkpt>
      <trkpt lat="47.4339550" lon="2.9183820">
        <ele>147.2</ele>
        <time>2020-07-03T12:22:21Z</time>
      </trkpt>
      <trkpt lat="47.4333640" lon="2.9183950">
        <ele>147.4</ele>
        <time>2020-07-03T12:22:31Z</time>
      </trkpt>
      <trkpt lat="47.4333050" lon="2.9183850">
        <ele>147.4</ele>
        <time>2020-07-03T12:22:32Z</time>
      </trkpt>
      <trkpt lat="47.4327750" lon="2.9181990">
        <ele>147.6</ele>
        <time>2020-07-03T12:22:41Z</time>
      </trkpt>
      <trkpt lat="47.4327170" lon="2.9181750">
        <ele>147.4</ele>
        <time>2020-07-03T12:22:42Z</time>
      </trkpt>
      <trkpt lat="47.4321520" lon="2.9179470">
        <ele>147.6</ele>
        <time>2020-07-03T12:22:52Z</time>
      </trkpt>
      <trkpt lat="47.4320980" lon="2.9179250">
        <ele>147.6</ele>
        <time>2020-07-03T12:22:53Z</time>
      </trkpt>
      <trkpt lat="47.4318780" lon="2.9178390">
        <ele>147.8</ele>
        <time>2020-07-03T12:22:57Z</time>
      </trkpt>
      <trkpt lat="47.4316280" lon="2.9177320">
        <ele>148.0</ele>
        <time>2020-07-03T12:23:02Z</time>
      </trkpt>
      <trkpt lat="47.4312520" lon="2.9174490">
        <ele>148.4</ele>
        <time>2020-07-03T12:23:10Z</time>
      </trkpt>
      <trkpt lat="47.4311570" lon="2.9173610">
        <ele>148.4</ele>
        <time>2020-07-03T12:23:12Z</time>
      </trkpt>
      <trkpt lat="47.4309230" lon="2.9171110">
        <ele>148.0</ele>
        <time>2020-07-03T12:23:17Z</time>
      </trkpt>
      <trkpt lat="47.4308740" lon="2.9170620">
        <ele>148.0</ele>
        <time>2020-07-03T12:23:18Z</time>
      </trkpt>
      <trkpt lat="47.4306140" lon="2.9168030">
        <ele>148.0</ele>
        <time>2020-07-03T12:23:23Z</time>
      </trkpt>
      <trkpt lat="47.4304100" lon="2.9166030">
        <ele>148.0</ele>
        <time>2020-07-03T12:23:27Z</time>
      </trkpt>
      <trkpt lat="47.4299530" lon="2.9161590">
        <ele>147.8</ele>
        <time>2020-07-03T12:23:36Z</time>
      </trkpt>
      <trkpt lat="47.4297480" lon="2.9159530">
        <ele>148.0</ele>
        <time>2020-07-03T12:23:40Z</time>
      </trkpt>
      <trkpt lat="47.4292940" lon="2.9154910">
        <ele>147.8</ele>
        <time>2020-07-03T12:23:49Z</time>
      </trkpt>
      <trkpt lat="47.4290880" lon="2.9152800">
        <ele>148.0</ele>
        <time>2020-07-03T12:23:53Z</time>
      </trkpt>
      <trkpt lat="47.4287850" lon="2.9149840">
        <ele>148.0</ele>
        <time>2020-07-03T12:23:59Z</time>
      </trkpt>
      <trkpt lat="47.4285880" lon="2.9148030">
        <ele>148.0</ele>
        <time>2020-07-03T12:24:03Z</time>
      </trkpt>
      <trkpt lat="47.4283930" lon="2.9146130">
        <ele>148.0</ele>
        <time>2020-07-03T12:24:07Z</time>
      </trkpt>
      <trkpt lat="47.4279620" lon="2.9141840">
        <ele>148.0</ele>
        <time>2020-07-03T12:24:16Z</time>
      </trkpt>
      <trkpt lat="47.4279140" lon="2.9141390">
        <ele>148.2</ele>
        <time>2020-07-03T12:24:17Z</time>
      </trkpt>
      <trkpt lat="47.4274830" lon="2.9137390">
        <ele>148.2</ele>
        <time>2020-07-03T12:24:26Z</time>
      </trkpt>
      <trkpt lat="47.4271030" lon="2.9133340">
        <ele>148.6</ele>
        <time>2020-07-03T12:24:34Z</time>
      </trkpt>
      <trkpt lat="47.4266730" lon="2.9129920">
        <ele>148.8</ele>
        <time>2020-07-03T12:24:42Z</time>
      </trkpt>
      <trkpt lat="47.4261390" lon="2.9126990">
        <ele>149.0</ele>
        <time>2020-07-03T12:24:51Z</time>
      </trkpt>
      <trkpt lat="47.4257890" lon="2.9124980">
        <ele>149.2</ele>
        <time>2020-07-03T12:24:57Z</time>
      </trkpt>
      <trkpt lat="47.4252570" lon="2.9121820">
        <ele>149.0</ele>
        <time>2020-07-03T12:25:06Z</time>
      </trkpt>
      <trkpt lat="47.4248920" lon="2.9119670">
        <ele>149.0</ele>
        <time>2020-07-03T12:25:12Z</time>
      </trkpt>
      <trkpt lat="47.4243380" lon="2.9116360">
        <ele>148.8</ele>
        <time>2020-07-03T12:25:21Z</time>
      </trkpt>
      <trkpt lat="47.4240420" lon="2.9114590">
        <ele>148.4</ele>
        <time>2020-07-03T12:25:26Z</time>
      </trkpt>
      <trkpt lat="47.4234990" lon="2.9111430">
        <ele>148.6</ele>
        <time>2020-07-03T12:25:35Z</time>
      </trkpt>
      <trkpt lat="47.4232070" lon="2.9109490">
        <ele>148.8</ele>
        <time>2020-07-03T12:25:40Z</time>
      </trkpt>
      <trkpt lat="47.4230910" lon="2.9108690">
        <ele>148.8</ele>
        <time>2020-07-03T12:25:42Z</time>
      </trkpt>
      <trkpt lat="47.4229730" lon="2.9107890">
        <ele>148.8</ele>
        <time>2020-07-03T12:25:44Z</time>
      </trkpt>
      <trkpt lat="47.4224430" lon="2.9104250">
        <ele>148.8</ele>
        <time>2020-07-03T12:25:53Z</time>
      </trkpt>
      <trkpt lat="47.4220120" lon="2.9100590">
        <ele>149.0</ele>
        <time>2020-07-03T12:26:01Z</time>
      </trkpt>
      <trkpt lat="47.4219620" lon="2.9100130">
        <ele>149.0</ele>
        <time>2020-07-03T12:26:02Z</time>
      </trkpt>
      <trkpt lat="47.4215040" lon="2.9095350">
        <ele>149.2</ele>
        <time>2020-07-03T12:26:11Z</time>
      </trkpt>
      <trkpt lat="47.4214480" lon="2.9094790">
        <ele>149.4</ele>
        <time>2020-07-03T12:26:12Z</time>
      </trkpt>
      <trkpt lat="47.4209520" lon="2.9089980">
        <ele>149.0</ele>
        <time>2020-07-03T12:26:21Z</time>
      </trkpt>
      <trkpt lat="47.4204510" lon="2.9086050">
        <ele>148.6</ele>
        <time>2020-07-03T12:26:30Z</time>
      </trkpt>
      <trkpt lat="47.4202860" lon="2.9084830">
        <ele>148.4</ele>
        <time>2020-07-03T12:26:33Z</time>
      </trkpt>
      <trkpt lat="47.4198160" lon="2.9081850">
        <ele>148.6</ele>
        <time>2020-07-03T12:26:41Z</time>
      </trkpt>
      <trkpt lat="47.4193150" lon="2.9078650">
        <ele>148.6</ele>
        <time>2020-07-03T12:26:50Z</time>
      </trkpt>
      <trkpt lat="47.4187750" lon="2.9075900">
        <ele>148.4</ele>
        <time>2020-07-03T12:26:59Z</time>
      </trkpt>
      <trkpt lat="47.4185970" lon="2.9075060">
        <ele>148.6</ele>
        <time>2020-07-03T12:27:02Z</time>
      </trkpt>
      <trkpt lat="47.4181340" lon="2.9072930">
        <ele>148.6</ele>
        <time>2020-07-03T12:27:11Z</time>
      </trkpt>
      <trkpt lat="47.4177190" lon="2.9071310">
        <ele>148.6</ele>
        <time>2020-07-03T12:27:20Z</time>
      </trkpt>
      <trkpt lat="47.4176690" lon="2.9071190">
        <ele>148.6</ele>
        <time>2020-07-03T12:27:21Z</time>
      </trkpt>
      <trkpt lat="47.4174520" lon="2.9071090">
        <ele>148.6</ele>
        <time>2020-07-03T12:27:25Z</time>
      </trkpt>
      <trkpt lat="47.4169970" lon="2.9070270">
        <ele>148.6</ele>
        <time>2020-07-03T12:27:33Z</time>
      </trkpt>
      <trkpt lat="47.4165420" lon="2.9069490">
        <ele>147.8</ele>
        <time>2020-07-03T12:27:41Z</time>
      </trkpt>
      <trkpt lat="47.4163790" lon="2.9069300">
        <ele>147.6</ele>
        <time>2020-07-03T12:27:44Z</time>
      </trkpt>
      <trkpt lat="47.4158410" lon="2.9068350">
        <ele>147.8</ele>
        <time>2020-07-03T12:27:54Z</time>
      </trkpt>
      <trkpt lat="47.4157310" lon="2.9068130">
        <ele>148.0</ele>
        <time>2020-07-03T12:27:56Z</time>
      </trkpt>
      <trkpt lat="47.4156220" lon="2.9067920">
        <ele>148.0</ele>
        <time>2020-07-03T12:27:58Z</time>
      </trkpt>
      <trkpt lat="47.4153990" lon="2.9067460">
        <ele>148.2</ele>
        <time>2020-07-03T12:28:02Z</time>
      </trkpt>
      <trkpt lat="47.4149980" lon="2.9066620">
        <ele>148.0</ele>
        <time>2020-07-03T12:28:09Z</time>
      </trkpt>
      <trkpt lat="47.4144440" lon="2.9065440">
        <ele>148.0</ele>
        <time>2020-07-03T12:28:19Z</time>
      </trkpt>
      <trkpt lat="47.4142210" lon="2.9065010">
        <ele>148.0</ele>
        <time>2020-07-03T12:28:23Z</time>
      </trkpt>
      <trkpt lat="47.4136550" lon="2.9063850">
        <ele>148.0</ele>
        <time>2020-07-03T12:28:33Z</time>
      </trkpt>
      <trkpt lat="47.4133650" lon="2.9063280">
        <ele>148.2</ele>
        <time>2020-07-03T12:28:38Z</time>
      </trkpt>
      <trkpt lat="47.4127970" lon="2.9062050">
        <ele>148.6</ele>
        <time>2020-07-03T12:28:48Z</time>
      </trkpt>
      <trkpt lat="47.4126270" lon="2.9061710">
        <ele>148.8</ele>
        <time>2020-07-03T12:28:51Z</time>
      </trkpt>
      <trkpt lat="47.4120830" lon="2.9060570">
        <ele>149.2</ele>
        <time>2020-07-03T12:29:01Z</time>
      </trkpt>
      <trkpt lat="47.4119920" lon="2.9060380">
        <ele>149.2</ele>
        <time>2020-07-03T12:29:03Z</time>
      </trkpt>
      <trkpt lat="47.4119540" lon="2.9060320">
        <ele>149.0</ele>
        <time>2020-07-03T12:29:04Z</time>
      </trkpt>
      <trkpt lat="47.4118890" lon="2.9060300">
        <ele>149.2</ele>
        <time>2020-07-03T12:29:07Z</time>
      </trkpt>
      <trkpt lat="47.4118770" lon="2.9060370">
        <ele>149.4</ele>
        <time>2020-07-03T12:29:09Z</time>
      </trkpt>
      <trkpt lat="47.4118360" lon="2.9060600">
        <ele>149.6</ele>
        <time>2020-07-03T12:29:12Z</time>
      </trkpt>
      <trkpt lat="47.4116760" lon="2.9060370">
        <ele>150.4</ele>
        <time>2020-07-03T12:29:17Z</time>
      </trkpt>
      <trkpt lat="47.4112890" lon="2.9059320">
        <ele>150.6</ele>
        <time>2020-07-03T12:29:27Z</time>
      </trkpt>
      <trkpt lat="47.4112100" lon="2.9059090">
        <ele>150.6</ele>
        <time>2020-07-03T12:29:30Z</time>
      </trkpt>
      <trkpt lat="47.4111830" lon="2.9059050">
        <ele>150.8</ele>
        <time>2020-07-03T12:29:32Z</time>
      </trkpt>
      <trkpt lat="47.4111550" lon="2.9058840">
        <ele>151.0</ele>
        <time>2020-07-03T12:29:38Z</time>
      </trkpt>
      <trkpt lat="47.4111120" lon="2.9058820">
        <ele>151.4</ele>
        <time>2020-07-03T12:29:46Z</time>
      </trkpt>
      <trkpt lat="47.4109170" lon="2.9059260">
        <ele>151.2</ele>
        <time>2020-07-03T12:29:53Z</time>
      </trkpt>
      <trkpt lat="47.4106420" lon="2.9058840">
        <ele>150.8</ele>
        <time>2020-07-03T12:30:00Z</time>
      </trkpt>
      <trkpt lat="47.4101760" lon="2.9057910">
        <ele>150.0</ele>
        <time>2020-07-03T12:30:09Z</time>
      </trkpt>
      <trkpt lat="47.4095890" lon="2.9056620">
        <ele>149.8</ele>
        <time>2020-07-03T12:30:19Z</time>
      </trkpt>
      <trkpt lat="47.4095280" lon="2.9056520">
        <ele>149.8</ele>
        <time>2020-07-03T12:30:20Z</time>
      </trkpt>
      <trkpt lat="47.4092250" lon="2.9055990">
        <ele>149.8</ele>
        <time>2020-07-03T12:30:25Z</time>
      </trkpt>
      <trkpt lat="47.4086860" lon="2.9055120">
        <ele>149.8</ele>
        <time>2020-07-03T12:30:34Z</time>
      </trkpt>
      <trkpt lat="47.4081010" lon="2.9054180">
        <ele>149.8</ele>
        <time>2020-07-03T12:30:44Z</time>
      </trkpt>
      <trkpt lat="47.4078690" lon="2.9053810">
        <ele>150.0</ele>
        <time>2020-07-03T12:30:48Z</time>
      </trkpt>
      <trkpt lat="47.4072900" lon="2.9052740">
        <ele>150.2</ele>
        <time>2020-07-03T12:30:58Z</time>
      </trkpt>
      <trkpt lat="47.4069390" lon="2.9052070">
        <ele>150.2</ele>
        <time>2020-07-03T12:31:04Z</time>
      </trkpt>
      <trkpt lat="47.4063620" lon="2.9051040">
        <ele>150.4</ele>
        <time>2020-07-03T12:31:14Z</time>
      </trkpt>
      <trkpt lat="47.4061340" lon="2.9050700">
        <ele>150.6</ele>
        <time>2020-07-03T12:31:18Z</time>
      </trkpt>
      <trkpt lat="47.4057200" lon="2.9050000">
        <ele>150.6</ele>
        <time>2020-07-03T12:31:25Z</time>
      </trkpt>
      <trkpt lat="47.4054200" lon="2.9049550">
        <ele>150.8</ele>
        <time>2020-07-03T12:31:30Z</time>
      </trkpt>
      <trkpt lat="47.4048730" lon="2.9048700">
        <ele>151.0</ele>
        <time>2020-07-03T12:31:39Z</time>
      </trkpt>
      <trkpt lat="47.4045230" lon="2.9048020">
        <ele>151.2</ele>
        <time>2020-07-03T12:31:45Z</time>
      </trkpt>
      <trkpt lat="47.4042550" lon="2.9047460">
        <ele>151.2</ele>
        <time>2020-07-03T12:31:50Z</time>
      </trkpt>
      <trkpt lat="47.4040130" lon="2.9047030">
        <ele>151.6</ele>
        <time>2020-07-03T12:31:55Z</time>
      </trkpt>
      <trkpt lat="47.4039650" lon="2.9046950">
        <ele>151.4</ele>
        <time>2020-07-03T12:31:56Z</time>
      </trkpt>
      <trkpt lat="47.4034330" lon="2.9045910">
        <ele>152.0</ele>
        <time>2020-07-03T12:32:07Z</time>
      </trkpt>
      <trkpt lat="47.4030190" lon="2.9044370">
        <ele>151.8</ele>
        <time>2020-07-03T12:32:17Z</time>
      </trkpt>
      <trkpt lat="47.4025790" lon="2.9041990">
        <ele>151.8</ele>
        <time>2020-07-03T12:32:27Z</time>
      </trkpt>
      <trkpt lat="47.4021100" lon="2.9039420">
        <ele>151.2</ele>
        <time>2020-07-03T12:32:38Z</time>
      </trkpt>
      <trkpt lat="47.4018170" lon="2.9037830">
        <ele>151.0</ele>
        <time>2020-07-03T12:32:45Z</time>
      </trkpt>
      <trkpt lat="47.4015980" lon="2.9036670">
        <ele>151.0</ele>
        <time>2020-07-03T12:32:50Z</time>
      </trkpt>
      <trkpt lat="47.4010600" lon="2.9033460">
        <ele>150.8</ele>
        <time>2020-07-03T12:33:02Z</time>
      </trkpt>
      <trkpt lat="47.4009750" lon="2.9032850">
        <ele>150.6</ele>
        <time>2020-07-03T12:33:04Z</time>
      </trkpt>
      <trkpt lat="47.4006400" lon="2.9029470">
        <ele>150.8</ele>
        <time>2020-07-03T12:33:12Z</time>
      </trkpt>
      <trkpt lat="47.4002530" lon="2.9024600">
        <ele>150.8</ele>
        <time>2020-07-03T12:33:22Z</time>
      </trkpt>
      <trkpt lat="47.3998190" lon="2.9019040">
        <ele>150.6</ele>
        <time>2020-07-03T12:33:33Z</time>
      </trkpt>
      <trkpt lat="47.3997390" lon="2.9018010">
        <ele>150.6</ele>
        <time>2020-07-03T12:33:35Z</time>
      </trkpt>
      <trkpt lat="47.3996200" lon="2.9016450">
        <ele>150.8</ele>
        <time>2020-07-03T12:33:38Z</time>
      </trkpt>
      <trkpt lat="47.3995400" lon="2.9015440">
        <ele>150.6</ele>
        <time>2020-07-03T12:33:40Z</time>
      </trkpt>
      <trkpt lat="47.3994610" lon="2.9014410">
        <ele>150.8</ele>
        <time>2020-07-03T12:33:42Z</time>
      </trkpt>
      <trkpt lat="47.3993080" lon="2.9012410">
        <ele>151.0</ele>
        <time>2020-07-03T12:33:46Z</time>
      </trkpt>
      <trkpt lat="47.3988620" lon="2.9006860">
        <ele>151.2</ele>
        <time>2020-07-03T12:33:57Z</time>
      </trkpt>
      <trkpt lat="47.3986870" lon="2.9005210">
        <ele>151.0</ele>
        <time>2020-07-03T12:34:01Z</time>
      </trkpt>
      <trkpt lat="47.3985560" lon="2.9004020">
        <ele>151.2</ele>
        <time>2020-07-03T12:34:04Z</time>
      </trkpt>
      <trkpt lat="47.3985150" lon="2.9003570">
        <ele>151.0</ele>
        <time>2020-07-03T12:34:05Z</time>
      </trkpt>
      <trkpt lat="47.3983460" lon="2.9001470">
        <ele>151.2</ele>
        <time>2020-07-03T12:34:09Z</time>
      </trkpt>
      <trkpt lat="47.3982680" lon="2.9000520">
        <ele>151.2</ele>
        <time>2020-07-03T12:34:11Z</time>
      </trkpt>
      <trkpt lat="47.3982310" lon="2.9000040">
        <ele>151.0</ele>
        <time>2020-07-03T12:34:12Z</time>
      </trkpt>
      <trkpt lat="47.3979820" lon="2.8997230">
        <ele>151.0</ele>
        <time>2020-07-03T12:34:18Z</time>
      </trkpt>
      <trkpt lat="47.3979440" lon="2.8996810">
        <ele>151.0</ele>
        <time>2020-07-03T12:34:19Z</time>
      </trkpt>
      <trkpt lat="47.3976780" lon="2.8993130">
        <ele>151.2</ele>
        <time>2020-07-03T12:34:26Z</time>
      </trkpt>
      <trkpt lat="47.3976050" lon="2.8992080">
        <ele>151.4</ele>
        <time>2020-07-03T12:34:28Z</time>
      </trkpt>
      <trkpt lat="47.3974020" lon="2.8989200">
        <ele>151.6</ele>
        <time>2020-07-03T12:34:34Z</time>
      </trkpt>
      <trkpt lat="47.3970910" lon="2.8984840">
        <ele>152.0</ele>
        <time>2020-07-03T12:34:44Z</time>
      </trkpt>
      <trkpt lat="47.3969050" lon="2.8981980">
        <ele>152.0</ele>
        <time>2020-07-03T12:34:52Z</time>
      </trkpt>
      <trkpt lat="47.3968950" lon="2.8981540">
        <ele>152.2</ele>
        <time>2020-07-03T12:34:54Z</time>
      </trkpt>
      <trkpt lat="47.3968950" lon="2.8981200">
        <ele>152.2</ele>
        <time>2020-07-03T12:34:57Z</time>
      </trkpt>
      <trkpt lat="47.3969040" lon="2.8981050">
        <ele>153.2</ele>
        <time>2020-07-03T12:35:11Z</time>
      </trkpt>
      <trkpt lat="47.3969050" lon="2.8981050">
        <ele>153.4</ele>
        <time>2020-07-03T12:35:32Z</time>
      </trkpt>
      <trkpt lat="47.3969010" lon="2.8981100">
        <ele>153.4</ele>
        <time>2020-07-03T12:36:01Z</time>
      </trkpt>
      <trkpt lat="47.3969030" lon="2.8981180">
        <ele>153.2</ele>
        <time>2020-07-03T12:36:15Z</time>
      </trkpt>
      <trkpt lat="47.3969080" lon="2.8981260">
        <ele>153.2</ele>
        <time>2020-07-03T12:36:40Z</time>
      </trkpt>
      <trkpt lat="47.3969160" lon="2.8981260">
        <ele>153.2</ele>
        <time>2020-07-03T12:37:15Z</time>
      </trkpt>
      <trkpt lat="47.3968900" lon="2.8981770">
        <ele>153.4</ele>
        <time>2020-07-03T12:37:27Z</time>
      </trkpt>
      <trkpt lat="47.3968440" lon="2.8981230">
        <ele>153.2</ele>
        <time>2020-07-03T12:37:41Z</time>
      </trkpt>
      <trkpt lat="47.3968150" lon="2.8980950">
        <ele>153.2</ele>
        <time>2020-07-03T12:37:44Z</time>
      </trkpt>
      <trkpt lat="47.3967340" lon="2.8980250">
        <ele>153.0</ele>
        <time>2020-07-03T12:37:49Z</time>
      </trkpt>
      <trkpt lat="47.3966460" lon="2.8979160">
        <ele>153.0</ele>
        <time>2020-07-03T12:37:53Z</time>
      </trkpt>
      <trkpt lat="47.3965440" lon="2.8977820">
        <ele>152.8</ele>
        <time>2020-07-03T12:37:57Z</time>
      </trkpt>
      <trkpt lat="47.3961760" lon="2.8973070">
        <ele>152.2</ele>
        <time>2020-07-03T12:38:09Z</time>
      </trkpt>
      <trkpt lat="47.3957870" lon="2.8968320">
        <ele>152.0</ele>
        <time>2020-07-03T12:38:20Z</time>
      </trkpt>
      <trkpt lat="47.3953550" lon="2.8962930">
        <ele>152.2</ele>
        <time>2020-07-03T12:38:32Z</time>
      </trkpt>
      <trkpt lat="47.3949440" lon="2.8957690">
        <ele>152.0</ele>
        <time>2020-07-03T12:38:43Z</time>
      </trkpt>
      <trkpt lat="47.3948700" lon="2.8956740">
        <ele>152.0</ele>
        <time>2020-07-03T12:38:45Z</time>
      </trkpt>
      <trkpt lat="47.3945510" lon="2.8952570">
        <ele>152.2</ele>
        <time>2020-07-03T12:38:54Z</time>
      </trkpt>
      <trkpt lat="47.3944430" lon="2.8951170">
        <ele>152.0</ele>
        <time>2020-07-03T12:38:57Z</time>
      </trkpt>
      <trkpt lat="47.3942650" lon="2.8948870">
        <ele>152.0</ele>
        <time>2020-07-03T12:39:02Z</time>
      </trkpt>
      <trkpt lat="47.3940690" lon="2.8946540">
        <ele>151.8</ele>
        <time>2020-07-03T12:39:07Z</time>
      </trkpt>
      <trkpt lat="47.3936940" lon="2.8941810">
        <ele>152.2</ele>
        <time>2020-07-03T12:39:17Z</time>
      </trkpt>
      <trkpt lat="47.3935410" lon="2.8939230">
        <ele>152.8</ele>
        <time>2020-07-03T12:39:22Z</time>
      </trkpt>
      <trkpt lat="47.3933970" lon="2.8936580">
        <ele>152.8</ele>
        <time>2020-07-03T12:39:27Z</time>
      </trkpt>
      <trkpt lat="47.3931550" lon="2.8931790">
        <ele>153.0</ele>
        <time>2020-07-03T12:39:35Z</time>
      </trkpt>
      <trkpt lat="47.3930230" lon="2.8929490">
        <ele>153.0</ele>
        <time>2020-07-03T12:39:39Z</time>
      </trkpt>
      <trkpt lat="47.3926910" lon="2.8923120">
        <ele>152.6</ele>
        <time>2020-07-03T12:39:50Z</time>
      </trkpt>
      <trkpt lat="47.3925430" lon="2.8920360">
        <ele>152.6</ele>
        <time>2020-07-03T12:39:55Z</time>
      </trkpt>
      <trkpt lat="47.3922260" lon="2.8915430">
        <ele>152.8</ele>
        <time>2020-07-03T12:40:05Z</time>
      </trkpt>
      <trkpt lat="47.3921720" lon="2.8914170">
        <ele>152.8</ele>
        <time>2020-07-03T12:40:07Z</time>
      </trkpt>
      <trkpt lat="47.3921380" lon="2.8912510">
        <ele>152.8</ele>
        <time>2020-07-03T12:40:09Z</time>
      </trkpt>
      <trkpt lat="47.3921490" lon="2.8910450">
        <ele>152.8</ele>
        <time>2020-07-03T12:40:11Z</time>
      </trkpt>
      <trkpt lat="47.3921720" lon="2.8909300">
        <ele>152.8</ele>
        <time>2020-07-03T12:40:12Z</time>
      </trkpt>
      <trkpt lat="47.3922090" lon="2.8907050">
        <ele>152.8</ele>
        <time>2020-07-03T12:40:14Z</time>
      </trkpt>
      <trkpt lat="47.3922450" lon="2.8904860">
        <ele>152.6</ele>
        <time>2020-07-03T12:40:16Z</time>
      </trkpt>
      <trkpt lat="47.3923110" lon="2.8900640">
        <ele>151.2</ele>
        <time>2020-07-03T12:40:20Z</time>
      </trkpt>
      <trkpt lat="47.3923170" lon="2.8899680">
        <ele>150.6</ele>
        <time>2020-07-03T12:40:21Z</time>
      </trkpt>
      <trkpt lat="47.3923160" lon="2.8897960">
        <ele>150.0</ele>
        <time>2020-07-03T12:40:23Z</time>
      </trkpt>
      <trkpt lat="47.3923080" lon="2.8897170">
        <ele>150.0</ele>
        <time>2020-07-03T12:40:24Z</time>
      </trkpt>
      <trkpt lat="47.3922930" lon="2.8896460">
        <ele>149.8</ele>
        <time>2020-07-03T12:40:25Z</time>
      </trkpt>
      <trkpt lat="47.3922420" lon="2.8895330">
        <ele>149.6</ele>
        <time>2020-07-03T12:40:27Z</time>
      </trkpt>
      <trkpt lat="47.3922080" lon="2.8894890">
        <ele>149.6</ele>
        <time>2020-07-03T12:40:28Z</time>
      </trkpt>
      <trkpt lat="47.3921700" lon="2.8894590">
        <ele>149.6</ele>
        <time>2020-07-03T12:40:29Z</time>
      </trkpt>
      <trkpt lat="47.3920710" lon="2.8893950">
        <ele>149.4</ele>
        <time>2020-07-03T12:40:32Z</time>
      </trkpt>
      <trkpt lat="47.3918290" lon="2.8893240">
        <ele>149.6</ele>
        <time>2020-07-03T12:40:37Z</time>
      </trkpt>
      <trkpt lat="47.3917770" lon="2.8893070">
        <ele>149.6</ele>
        <time>2020-07-03T12:40:38Z</time>
      </trkpt>
      <trkpt lat="47.3915320" lon="2.8891970">
        <ele>149.2</ele>
        <time>2020-07-03T12:40:43Z</time>
      </trkpt>
      <trkpt lat="47.3913460" lon="2.8890830">
        <ele>149.4</ele>
        <time>2020-07-03T12:40:47Z</time>
      </trkpt>
      <trkpt lat="47.3910720" lon="2.8888470">
        <ele>149.4</ele>
        <time>2020-07-03T12:40:54Z</time>
      </trkpt>
      <trkpt lat="47.3910410" lon="2.8888120">
        <ele>149.4</ele>
        <time>2020-07-03T12:40:55Z</time>
      </trkpt>
      <trkpt lat="47.3909060" lon="2.8886250">
        <ele>149.6</ele>
        <time>2020-07-03T12:41:00Z</time>
      </trkpt>
      <trkpt lat="47.3908190" lon="2.8885300">
        <ele>150.0</ele>
        <time>2020-07-03T12:41:03Z</time>
      </trkpt>
      <trkpt lat="47.3906010" lon="2.8883720">
        <ele>151.6</ele>
        <time>2020-07-03T12:41:11Z</time>
      </trkpt>
      <trkpt lat="47.3905750" lon="2.8883540">
        <ele>151.8</ele>
        <time>2020-07-03T12:41:12Z</time>
      </trkpt>
      <trkpt lat="47.3904730" lon="2.8882940">
        <ele>152.4</ele>
        <time>2020-07-03T12:41:16Z</time>
      </trkpt>
      <trkpt lat="47.3904310" lon="2.8882510">
        <ele>152.4</ele>
        <time>2020-07-03T12:41:18Z</time>
      </trkpt>
      <trkpt lat="47.3904070" lon="2.8881510">
        <ele>152.6</ele>
        <time>2020-07-03T12:41:21Z</time>
      </trkpt>
      <trkpt lat="47.3904190" lon="2.8881120">
        <ele>152.8</ele>
        <time>2020-07-03T12:41:22Z</time>
      </trkpt>
      <trkpt lat="47.3904590" lon="2.8879300">
        <ele>153.8</ele>
        <time>2020-07-03T12:41:29Z</time>
      </trkpt>
      <trkpt lat="47.3904570" lon="2.8879070">
        <ele>154.2</ele>
        <time>2020-07-03T12:41:30Z</time>
      </trkpt>
      <trkpt lat="47.3904460" lon="2.8878860">
        <ele>154.2</ele>
        <time>2020-07-03T12:41:31Z</time>
      </trkpt>
      <trkpt lat="47.3904030" lon="2.8878460">
        <ele>154.4</ele>
        <time>2020-07-03T12:41:33Z</time>
      </trkpt>
      <trkpt lat="47.3901890" lon="2.8876710">
        <ele>154.2</ele>
        <time>2020-07-03T12:41:40Z</time>
      </trkpt>
      <trkpt lat="47.3900230" lon="2.8875530">
        <ele>153.4</ele>
        <time>2020-07-03T12:41:44Z</time>
      </trkpt>
      <trkpt lat="47.3898180" lon="2.8873760">
        <ele>153.2</ele>
        <time>2020-07-03T12:41:49Z</time>
      </trkpt>
      <trkpt lat="47.3893630" lon="2.8870530">
        <ele>152.8</ele>
        <time>2020-07-03T12:42:00Z</time>
      </trkpt>
      <trkpt lat="47.3893250" lon="2.8870270">
        <ele>152.8</ele>
        <time>2020-07-03T12:42:01Z</time>
      </trkpt>
      <trkpt lat="47.3888930" lon="2.8867710">
        <ele>153.0</ele>
        <time>2020-07-03T12:42:11Z</time>
      </trkpt>
      <trkpt lat="47.3887010" lon="2.8866640">
        <ele>153.2</ele>
        <time>2020-07-03T12:42:15Z</time>
      </trkpt>
      <trkpt lat="47.3885800" lon="2.8865820">
        <ele>153.2</ele>
        <time>2020-07-03T12:42:18Z</time>
      </trkpt>
      <trkpt lat="47.3883580" lon="2.8864770">
        <ele>153.6</ele>
        <time>2020-07-03T12:42:23Z</time>
      </trkpt>
      <trkpt lat="47.3883050" lon="2.8864530">
        <ele>153.6</ele>
        <time>2020-07-03T12:42:24Z</time>
      </trkpt>
      <trkpt lat="47.3878990" lon="2.8863180">
        <ele>153.8</ele>
        <time>2020-07-03T12:42:31Z</time>
      </trkpt>
      <trkpt lat="47.3876980" lon="2.8862520">
        <ele>153.6</ele>
        <time>2020-07-03T12:42:35Z</time>
      </trkpt>
      <trkpt lat="47.3876330" lon="2.8862120">
        <ele>153.6</ele>
        <time>2020-07-03T12:42:37Z</time>
      </trkpt>
      <trkpt lat="47.3873580" lon="2.8860030">
        <ele>154.2</ele>
        <time>2020-07-03T12:42:47Z</time>
      </trkpt>
      <trkpt lat="47.3872700" lon="2.8859440">
        <ele>154.4</ele>
        <time>2020-07-03T12:42:51Z</time>
      </trkpt>
      <trkpt lat="47.3872200" lon="2.8859060">
        <ele>155.0</ele>
        <time>2020-07-03T12:42:54Z</time>
      </trkpt>
      <trkpt lat="47.3871960" lon="2.8858810">
        <ele>155.2</ele>
        <time>2020-07-03T12:42:56Z</time>
      </trkpt>
      <trkpt lat="47.3871150" lon="2.8858850">
        <ele>157.6</ele>
        <time>2020-07-03T12:43:02Z</time>
      </trkpt>
      <trkpt lat="47.3870210" lon="2.8857990">
        <ele>158.6</ele>
        <time>2020-07-03T12:43:08Z</time>
      </trkpt>
      <trkpt lat="47.3869270" lon="2.8857160">
        <ele>158.8</ele>
        <time>2020-07-03T12:43:12Z</time>
      </trkpt>
      <trkpt lat="47.3868240" lon="2.8856550">
        <ele>159.0</ele>
        <time>2020-07-03T12:43:16Z</time>
      </trkpt>
      <trkpt lat="47.3866270" lon="2.8855460">
        <ele>159.2</ele>
        <time>2020-07-03T12:43:23Z</time>
      </trkpt>
      <trkpt lat="47.3863560" lon="2.8854280">
        <ele>159.2</ele>
        <time>2020-07-03T12:43:30Z</time>
      </trkpt>
      <trkpt lat="47.3860960" lon="2.8853220">
        <ele>159.4</ele>
        <time>2020-07-03T12:43:37Z</time>
      </trkpt>
      <trkpt lat="47.3860080" lon="2.8852910">
        <ele>159.4</ele>
        <time>2020-07-03T12:43:39Z</time>
      </trkpt>
      <trkpt lat="47.3859300" lon="2.8852420">
        <ele>159.4</ele>
        <time>2020-07-03T12:43:41Z</time>
      </trkpt>
      <trkpt lat="47.3858910" lon="2.8852220">
        <ele>159.4</ele>
        <time>2020-07-03T12:43:42Z</time>
      </trkpt>
      <trkpt lat="47.3856610" lon="2.8850760">
        <ele>159.0</ele>
        <time>2020-07-03T12:43:48Z</time>
      </trkpt>
      <trkpt lat="47.3854580" lon="2.8848380">
        <ele>158.6</ele>
        <time>2020-07-03T12:43:54Z</time>
      </trkpt>
      <trkpt lat="47.3854170" lon="2.8848040">
        <ele>158.6</ele>
        <time>2020-07-03T12:43:55Z</time>
      </trkpt>
      <trkpt lat="47.3853780" lon="2.8847740">
        <ele>158.8</ele>
        <time>2020-07-03T12:43:56Z</time>
      </trkpt>
      <trkpt lat="47.3851960" lon="2.8846560">
        <ele>158.4</ele>
        <time>2020-07-03T12:44:01Z</time>
      </trkpt>
      <trkpt lat="47.3849920" lon="2.8846180">
        <ele>158.8</ele>
        <time>2020-07-03T12:44:06Z</time>
      </trkpt>
      <trkpt lat="47.3848070" lon="2.8844850">
        <ele>158.8</ele>
        <time>2020-07-03T12:44:12Z</time>
      </trkpt>
      <trkpt lat="47.3846300" lon="2.8843200">
        <ele>158.6</ele>
        <time>2020-07-03T12:44:18Z</time>
      </trkpt>
      <trkpt lat="47.3845980" lon="2.8842900">
        <ele>158.8</ele>
        <time>2020-07-03T12:44:19Z</time>
      </trkpt>
      <trkpt lat="47.3844470" lon="2.8841880">
        <ele>158.6</ele>
        <time>2020-07-03T12:44:23Z</time>
      </trkpt>
      <trkpt lat="47.3844380" lon="2.8840740">
        <ele>158.4</ele>
        <time>2020-07-03T12:44:24Z</time>
      </trkpt>
      <trkpt lat="47.3844280" lon="2.8839700">
        <ele>158.0</ele>
        <time>2020-07-03T12:44:25Z</time>
      </trkpt>
      <trkpt lat="47.3843360" lon="2.8836910">
        <ele>157.4</ele>
        <time>2020-07-03T12:44:29Z</time>
      </trkpt>
      <trkpt lat="47.3842530" lon="2.8835090">
        <ele>157.0</ele>
        <time>2020-07-03T12:44:32Z</time>
      </trkpt>
      <trkpt lat="47.3841720" lon="2.8833250">
        <ele>156.0</ele>
        <time>2020-07-03T12:44:35Z</time>
      </trkpt>
      <trkpt lat="47.3841030" lon="2.8831210">
        <ele>155.2</ele>
        <time>2020-07-03T12:44:38Z</time>
      </trkpt>
      <trkpt lat="47.3840800" lon="2.8830460">
        <ele>155.0</ele>
        <time>2020-07-03T12:44:39Z</time>
      </trkpt>
      <trkpt lat="47.3840300" lon="2.8828920">
        <ele>154.4</ele>
        <time>2020-07-03T12:44:41Z</time>
      </trkpt>
      <trkpt lat="47.3840030" lon="2.8828060">
        <ele>154.4</ele>
        <time>2020-07-03T12:44:42Z</time>
      </trkpt>
      <trkpt lat="47.3839290" lon="2.8825840">
        <ele>153.6</ele>
        <time>2020-07-03T12:44:45Z</time>
      </trkpt>
      <trkpt lat="47.3838710" lon="2.8824810">
        <ele>153.0</ele>
        <time>2020-07-03T12:44:47Z</time>
      </trkpt>
      <trkpt lat="47.3838010" lon="2.8824070">
        <ele>152.2</ele>
        <time>2020-07-03T12:44:49Z</time>
      </trkpt>
      <trkpt lat="47.3837320" lon="2.8823420">
        <ele>152.0</ele>
        <time>2020-07-03T12:44:51Z</time>
      </trkpt>
      <trkpt lat="47.3835930" lon="2.8822060">
        <ele>151.8</ele>
        <time>2020-07-03T12:44:56Z</time>
      </trkpt>
      <trkpt lat="47.3834910" lon="2.8821070">
        <ele>152.2</ele>
        <time>2020-07-03T12:45:01Z</time>
      </trkpt>
      <trkpt lat="47.3834420" lon="2.8820700">
        <ele>152.8</ele>
        <time>2020-07-03T12:45:04Z</time>
      </trkpt>
      <trkpt lat="47.3834030" lon="2.8820290">
        <ele>153.4</ele>
        <time>2020-07-03T12:45:10Z</time>
      </trkpt>
      <trkpt lat="47.3833630" lon="2.8820290">
        <ele>154.2</ele>
        <time>2020-07-03T12:45:20Z</time>
      </trkpt>
      <trkpt lat="47.3833510" lon="2.8820240">
        <ele>154.0</ele>
        <time>2020-07-03T12:45:21Z</time>
      </trkpt>
      <trkpt lat="47.3832540" lon="2.8819790">
        <ele>154.2</ele>
        <time>2020-07-03T12:45:27Z</time>
      </trkpt>
      <trkpt lat="47.3832340" lon="2.8819810">
        <ele>154.2</ele>
        <time>2020-07-03T12:45:28Z</time>
      </trkpt>
      <trkpt lat="47.3831440" lon="2.8819700">
        <ele>154.8</ele>
        <time>2020-07-03T12:45:32Z</time>
      </trkpt>
      <trkpt lat="47.3831310" lon="2.8819590">
        <ele>154.8</ele>
        <time>2020-07-03T12:45:33Z</time>
      </trkpt>
      <trkpt lat="47.3830380" lon="2.8819720">
        <ele>155.8</ele>
        <time>2020-07-03T12:45:38Z</time>
      </trkpt>
      <trkpt lat="47.3830220" lon="2.8819690">
        <ele>156.0</ele>
        <time>2020-07-03T12:45:39Z</time>
      </trkpt>
      <trkpt lat="47.3829550" lon="2.8819810">
        <ele>156.8</ele>
        <time>2020-07-03T12:45:43Z</time>
      </trkpt>
      <trkpt lat="47.3829110" lon="2.8819850">
        <ele>157.2</ele>
        <time>2020-07-03T12:45:45Z</time>
      </trkpt>
      <trkpt lat="47.3828650" lon="2.8819430">
        <ele>157.6</ele>
        <time>2020-07-03T12:45:48Z</time>
      </trkpt>
      <trkpt lat="47.3827680" lon="2.8818960">
        <ele>158.4</ele>
        <time>2020-07-03T12:45:53Z</time>
      </trkpt>
      <trkpt lat="47.3827290" lon="2.8819020">
        <ele>159.4</ele>
        <time>2020-07-03T12:45:55Z</time>
      </trkpt>
      <trkpt lat="47.3826730" lon="2.8818790">
        <ele>160.0</ele>
        <time>2020-07-03T12:45:58Z</time>
      </trkpt>
      <trkpt lat="47.3826480" lon="2.8818400">
        <ele>160.0</ele>
        <time>2020-07-03T12:46:00Z</time>
      </trkpt>
      <trkpt lat="47.3825880" lon="2.8817620">
        <ele>160.8</ele>
        <time>2020-07-03T12:46:05Z</time>
      </trkpt>
      <trkpt lat="47.3825160" lon="2.8817020">
        <ele>162.0</ele>
        <time>2020-07-03T12:46:10Z</time>
      </trkpt>
      <trkpt lat="47.3823830" lon="2.8816570">
        <ele>163.0</ele>
        <time>2020-07-03T12:46:18Z</time>
      </trkpt>
      <trkpt lat="47.3823690" lon="2.8816550">
        <ele>163.0</ele>
        <time>2020-07-03T12:46:19Z</time>
      </trkpt>
      <trkpt lat="47.3822220" lon="2.8816050">
        <ele>163.6</ele>
        <time>2020-07-03T12:46:27Z</time>
      </trkpt>
      <trkpt lat="47.3820800" lon="2.8816080">
        <ele>163.6</ele>
        <time>2020-07-03T12:46:33Z</time>
      </trkpt>
      <trkpt lat="47.3820500" lon="2.8817790">
        <ele>163.6</ele>
        <time>2020-07-03T12:46:38Z</time>
      </trkpt>
      <trkpt lat="47.3820630" lon="2.8818960">
        <ele>163.0</ele>
        <time>2020-07-03T12:46:43Z</time>
      </trkpt>
      <trkpt lat="47.3820680" lon="2.8819360">
        <ele>162.8</ele>
        <time>2020-07-03T12:46:51Z</time>
      </trkpt>
      <trkpt lat="47.3820750" lon="2.8819580">
        <ele>163.0</ele>
        <time>2020-07-03T12:47:12Z</time>
      </trkpt>
      <trkpt lat="47.3820590" lon="2.8819770">
        <ele>163.2</ele>
        <time>2020-07-03T12:47:35Z</time>
      </trkpt>
      <trkpt lat="47.3820620" lon="2.8819820">
        <ele>163.2</ele>
        <time>2020-07-03T12:47:56Z</time>
      </trkpt>
      <trkpt lat="47.3820630" lon="2.8819810">
        <ele>163.0</ele>
        <time>2020-07-03T12:48:28Z</time>
      </trkpt>
      <trkpt lat="47.3820580" lon="2.8819740">
        <ele>163.2</ele>
        <time>2020-07-03T12:48:47Z</time>
      </trkpt>
      <trkpt lat="47.3820400" lon="2.8819810">
        <ele>163.4</ele>
        <time>2020-07-03T12:49:10Z</time>
      </trkpt>
      <trkpt lat="47.3820190" lon="2.8819930">
        <ele>163.4</ele>
        <time>2020-07-03T12:49:33Z</time>
      </trkpt>
      <trkpt lat="47.3819560" lon="2.8820020">
        <ele>163.4</ele>
        <time>2020-07-03T12:49:55Z</time>
      </trkpt>
      <trkpt lat="47.3819590" lon="2.8820060">
        <ele>163.4</ele>
        <time>2020-07-03T12:50:14Z</time>
      </trkpt>
      <trkpt lat="47.3819550" lon="2.8820030">
        <ele>163.6</ele>
        <time>2020-07-03T12:50:41Z</time>
      </trkpt>
      <trkpt lat="47.3819580" lon="2.8819970">
        <ele>163.6</ele>
        <time>2020-07-03T12:51:06Z</time>
      </trkpt>
      <trkpt lat="47.3819890" lon="2.8819680">
        <ele>163.8</ele>
        <time>2020-07-03T12:51:36Z</time>
      </trkpt>
      <trkpt lat="47.3819940" lon="2.8819630">
        <ele>163.8</ele>
        <time>2020-07-03T12:52:01Z</time>
      </trkpt>
      <trkpt lat="47.3820000" lon="2.8819560">
        <ele>163.8</ele>
        <time>2020-07-03T12:52:21Z</time>
      </trkpt>
      <trkpt lat="47.3820150" lon="2.8819510">
        <ele>164.0</ele>
        <time>2020-07-03T12:52:39Z</time>
      </trkpt>
      <trkpt lat="47.3820180" lon="2.8819580">
        <ele>163.8</ele>
        <time>2020-07-03T12:52:50Z</time>
      </trkpt>
      <trkpt lat="47.3820070" lon="2.8819650">
        <ele>164.0</ele>
        <time>2020-07-03T12:52:59Z</time>
      </trkpt>
      <trkpt lat="47.3819950" lon="2.8819820">
        <ele>164.2</ele>
        <time>2020-07-03T12:53:18Z</time>
      </trkpt>
      <trkpt lat="47.3820510" lon="2.8819840">
        <ele>164.0</ele>
        <time>2020-07-03T12:53:35Z</time>
      </trkpt>
      <trkpt lat="47.3820530" lon="2.8819810">
        <ele>164.2</ele>
        <time>2020-07-03T12:54:04Z</time>
      </trkpt>
      <trkpt lat="47.3820510" lon="2.8819570">
        <ele>164.2</ele>
        <time>2020-07-03T12:54:22Z</time>
      </trkpt>
      <trkpt lat="47.3820450" lon="2.8819610">
        <ele>164.2</ele>
        <time>2020-07-03T12:54:45Z</time>
      </trkpt>
      <trkpt lat="47.3820500" lon="2.8819540">
        <ele>164.2</ele>
        <time>2020-07-03T12:55:06Z</time>
      </trkpt>
      <trkpt lat="47.3820370" lon="2.8819440">
        <ele>164.0</ele>
        <time>2020-07-03T12:55:28Z</time>
      </trkpt>
      <trkpt lat="47.3820620" lon="2.8819080">
        <ele>164.2</ele>
        <time>2020-07-03T12:55:44Z</time>
      </trkpt>
      <trkpt lat="47.3820740" lon="2.8818800">
        <ele>164.0</ele>
        <time>2020-07-03T12:55:59Z</time>
      </trkpt>
      <trkpt lat="47.3820710" lon="2.8818210">
        <ele>164.2</ele>
        <time>2020-07-03T12:56:03Z</time>
      </trkpt>
      <trkpt lat="47.3820760" lon="2.8816960">
        <ele>164.0</ele>
        <time>2020-07-03T12:56:09Z</time>
      </trkpt>
      <trkpt lat="47.3820090" lon="2.8815570">
        <ele>164.0</ele>
        <time>2020-07-03T12:56:17Z</time>
      </trkpt>
      <trkpt lat="47.3818100" lon="2.8815120">
        <ele>163.8</ele>
        <time>2020-07-03T12:56:24Z</time>
      </trkpt>
      <trkpt lat="47.3816450" lon="2.8815310">
        <ele>163.8</ele>
        <time>2020-07-03T12:56:30Z</time>
      </trkpt>
      <trkpt lat="47.3816040" lon="2.8816110">
        <ele>163.8</ele>
        <time>2020-07-03T12:56:32Z</time>
      </trkpt>
      <trkpt lat="47.3815890" lon="2.8816650">
        <ele>163.6</ele>
        <time>2020-07-03T12:56:33Z</time>
      </trkpt>
      <trkpt lat="47.3815750" lon="2.8817260">
        <ele>163.6</ele>
        <time>2020-07-03T12:56:34Z</time>
      </trkpt>
      <trkpt lat="47.3815470" lon="2.8819230">
        <ele>163.4</ele>
        <time>2020-07-03T12:56:37Z</time>
      </trkpt>
      <trkpt lat="47.3815250" lon="2.8820970">
        <ele>162.6</ele>
        <time>2020-07-03T12:56:40Z</time>
      </trkpt>
      <trkpt lat="47.3814750" lon="2.8823180">
        <ele>160.6</ele>
        <time>2020-07-03T12:56:45Z</time>
      </trkpt>
      <trkpt lat="47.3813970" lon="2.8823500">
        <ele>158.8</ele>
        <time>2020-07-03T12:56:50Z</time>
      </trkpt>
      <trkpt lat="47.3812560" lon="2.8822290">
        <ele>157.8</ele>
        <time>2020-07-03T12:56:55Z</time>
      </trkpt>
      <trkpt lat="47.3811830" lon="2.8821630">
        <ele>157.8</ele>
        <time>2020-07-03T12:56:57Z</time>
      </trkpt>
      <trkpt lat="47.3809610" lon="2.8819890">
        <ele>157.6</ele>
        <time>2020-07-03T12:57:02Z</time>
      </trkpt>
      <trkpt lat="47.3804660" lon="2.8816480">
        <ele>157.0</ele>
        <time>2020-07-03T12:57:12Z</time>
      </trkpt>
      <trkpt lat="47.3802650" lon="2.8815130">
        <ele>156.8</ele>
        <time>2020-07-03T12:57:16Z</time>
      </trkpt>
      <trkpt lat="47.3797470" lon="2.8811830">
        <ele>156.8</ele>
        <time>2020-07-03T12:57:27Z</time>
      </trkpt>
      <trkpt lat="47.3797000" lon="2.8811520">
        <ele>156.6</ele>
        <time>2020-07-03T12:57:28Z</time>
      </trkpt>
      <trkpt lat="47.3791910" lon="2.8808140">
        <ele>156.4</ele>
        <time>2020-07-03T12:57:38Z</time>
      </trkpt>
      <trkpt lat="47.3790850" lon="2.8807430">
        <ele>156.4</ele>
        <time>2020-07-03T12:57:40Z</time>
      </trkpt>
      <trkpt lat="47.3788710" lon="2.8806050">
        <ele>156.4</ele>
        <time>2020-07-03T12:57:44Z</time>
      </trkpt>
      <trkpt lat="47.3785220" lon="2.8803800">
        <ele>156.2</ele>
        <time>2020-07-03T12:57:51Z</time>
      </trkpt>
      <trkpt lat="47.3779860" lon="2.8800490">
        <ele>156.0</ele>
        <time>2020-07-03T12:58:02Z</time>
      </trkpt>
      <trkpt lat="47.3778930" lon="2.8799950">
        <ele>156.0</ele>
        <time>2020-07-03T12:58:04Z</time>
      </trkpt>
      <trkpt lat="47.3774370" lon="2.8797210">
        <ele>156.4</ele>
        <time>2020-07-03T12:58:14Z</time>
      </trkpt>
      <trkpt lat="47.3772960" lon="2.8796310">
        <ele>156.8</ele>
        <time>2020-07-03T12:58:17Z</time>
      </trkpt>
      <trkpt lat="47.3768450" lon="2.8793690">
        <ele>157.2</ele>
        <time>2020-07-03T12:58:26Z</time>
      </trkpt>
      <trkpt lat="47.3766910" lon="2.8792740">
        <ele>157.4</ele>
        <time>2020-07-03T12:58:29Z</time>
      </trkpt>
      <trkpt lat="47.3764860" lon="2.8791440">
        <ele>157.4</ele>
        <time>2020-07-03T12:58:33Z</time>
      </trkpt>
      <trkpt lat="47.3761010" lon="2.8789050">
        <ele>156.6</ele>
        <time>2020-07-03T12:58:40Z</time>
      </trkpt>
      <trkpt lat="47.3755860" lon="2.8785880">
        <ele>155.4</ele>
        <time>2020-07-03T12:58:49Z</time>
      </trkpt>
      <trkpt lat="47.3754710" lon="2.8785160">
        <ele>155.2</ele>
        <time>2020-07-03T12:58:51Z</time>
      </trkpt>
      <trkpt lat="47.3750880" lon="2.8782940">
        <ele>155.0</ele>
        <time>2020-07-03T12:58:58Z</time>
      </trkpt>
      <trkpt lat="47.3748700" lon="2.8781770">
        <ele>155.0</ele>
        <time>2020-07-03T12:59:02Z</time>
      </trkpt>
      <trkpt lat="47.3743350" lon="2.8779570">
        <ele>156.2</ele>
        <time>2020-07-03T12:59:12Z</time>
      </trkpt>
      <trkpt lat="47.3740020" lon="2.8778540">
        <ele>156.4</ele>
        <time>2020-07-03T12:59:18Z</time>
      </trkpt>
      <trkpt lat="47.3736660" lon="2.8777640">
        <ele>156.4</ele>
        <time>2020-07-03T12:59:24Z</time>
      </trkpt>
      <trkpt lat="47.3731150" lon="2.8776000">
        <ele>156.4</ele>
        <time>2020-07-03T12:59:34Z</time>
      </trkpt>
      <trkpt lat="47.3730090" lon="2.8775630">
        <ele>156.4</ele>
        <time>2020-07-03T12:59:36Z</time>
      </trkpt>
      <trkpt lat="47.3725080" lon="2.8774100">
        <ele>156.4</ele>
        <time>2020-07-03T12:59:45Z</time>
      </trkpt>
      <trkpt lat="47.3723950" lon="2.8773740">
        <ele>156.4</ele>
        <time>2020-07-03T12:59:47Z</time>
      </trkpt>
      <trkpt lat="47.3718510" lon="2.8772060">
        <ele>155.8</ele>
        <time>2020-07-03T12:59:57Z</time>
      </trkpt>
      <trkpt lat="47.3717450" lon="2.8771730">
        <ele>155.8</ele>
        <time>2020-07-03T12:59:59Z</time>
      </trkpt>
      <trkpt lat="47.3711940" lon="2.8770450">
        <ele>155.6</ele>
        <time>2020-07-03T13:00:09Z</time>
      </trkpt>
      <trkpt lat="47.3711370" lon="2.8770310">
        <ele>155.6</ele>
        <time>2020-07-03T13:00:10Z</time>
      </trkpt>
      <trkpt lat="47.3705970" lon="2.8769280">
        <ele>155.4</ele>
        <time>2020-07-03T13:00:20Z</time>
      </trkpt>
      <trkpt lat="47.3703750" lon="2.8768870">
        <ele>155.4</ele>
        <time>2020-07-03T13:00:24Z</time>
      </trkpt>
      <trkpt lat="47.3699700" lon="2.8767950">
        <ele>156.2</ele>
        <time>2020-07-03T13:00:32Z</time>
      </trkpt>
      <trkpt lat="47.3698720" lon="2.8767600">
        <ele>156.6</ele>
        <time>2020-07-03T13:00:34Z</time>
      </trkpt>
      <trkpt lat="47.3693280" lon="2.8765840">
        <ele>157.4</ele>
        <time>2020-07-03T13:00:45Z</time>
      </trkpt>
      <trkpt lat="47.3687870" lon="2.8763320">
        <ele>158.0</ele>
        <time>2020-07-03T13:00:56Z</time>
      </trkpt>
      <trkpt lat="47.3686880" lon="2.8762850">
        <ele>158.4</ele>
        <time>2020-07-03T13:00:58Z</time>
      </trkpt>
      <trkpt lat="47.3681780" lon="2.8760070">
        <ele>158.6</ele>
        <time>2020-07-03T13:01:08Z</time>
      </trkpt>
      <trkpt lat="47.3681290" lon="2.8759810">
        <ele>158.8</ele>
        <time>2020-07-03T13:01:09Z</time>
      </trkpt>
      <trkpt lat="47.3676590" lon="2.8756910">
        <ele>158.8</ele>
        <time>2020-07-03T13:01:18Z</time>
      </trkpt>
      <trkpt lat="47.3671270" lon="2.8752980">
        <ele>158.2</ele>
        <time>2020-07-03T13:01:28Z</time>
      </trkpt>
      <trkpt lat="47.3667030" lon="2.8749510">
        <ele>157.8</ele>
        <time>2020-07-03T13:01:36Z</time>
      </trkpt>
      <trkpt lat="47.3664830" lon="2.8747770">
        <ele>157.4</ele>
        <time>2020-07-03T13:01:40Z</time>
      </trkpt>
      <trkpt lat="47.3664280" lon="2.8747280">
        <ele>157.2</ele>
        <time>2020-07-03T13:01:41Z</time>
      </trkpt>
      <trkpt lat="47.3663740" lon="2.8746810">
        <ele>157.2</ele>
        <time>2020-07-03T13:01:42Z</time>
      </trkpt>
      <trkpt lat="47.3659540" lon="2.8743410">
        <ele>157.0</ele>
        <time>2020-07-03T13:01:50Z</time>
      </trkpt>
      <trkpt lat="47.3659010" lon="2.8743070">
        <ele>157.2</ele>
        <time>2020-07-03T13:01:51Z</time>
      </trkpt>
      <trkpt lat="47.3653740" lon="2.8739990">
        <ele>157.6</ele>
        <time>2020-07-03T13:02:01Z</time>
      </trkpt>
      <trkpt lat="47.3651660" lon="2.8738750">
        <ele>158.0</ele>
        <time>2020-07-03T13:02:05Z</time>
      </trkpt>
      <trkpt lat="47.3646470" lon="2.8735970">
        <ele>158.8</ele>
        <time>2020-07-03T13:02:15Z</time>
      </trkpt>
      <trkpt lat="47.3641310" lon="2.8732880">
        <ele>159.2</ele>
        <time>2020-07-03T13:02:25Z</time>
      </trkpt>
      <trkpt lat="47.3640270" lon="2.8732210">
        <ele>159.2</ele>
        <time>2020-07-03T13:02:27Z</time>
      </trkpt>
      <trkpt lat="47.3638640" lon="2.8731220">
        <ele>159.2</ele>
        <time>2020-07-03T13:02:30Z</time>
      </trkpt>
      <trkpt lat="47.3637580" lon="2.8730540">
        <ele>159.0</ele>
        <time>2020-07-03T13:02:32Z</time>
      </trkpt>
      <trkpt lat="47.3634930" lon="2.8728920">
        <ele>158.8</ele>
        <time>2020-07-03T13:02:37Z</time>
      </trkpt>
      <trkpt lat="47.3633870" lon="2.8728260">
        <ele>158.8</ele>
        <time>2020-07-03T13:02:39Z</time>
      </trkpt>
      <trkpt lat="47.3629350" lon="2.8725180">
        <ele>158.2</ele>
        <time>2020-07-03T13:02:48Z</time>
      </trkpt>
      <trkpt lat="47.3624450" lon="2.8721310">
        <ele>158.0</ele>
        <time>2020-07-03T13:02:58Z</time>
      </trkpt>
      <trkpt lat="47.3619600" lon="2.8717340">
        <ele>158.0</ele>
        <time>2020-07-03T13:03:08Z</time>
      </trkpt>
      <trkpt lat="47.3618570" lon="2.8716680">
        <ele>158.0</ele>
        <time>2020-07-03T13:03:10Z</time>
      </trkpt>
      <trkpt lat="47.3616970" lon="2.8715870">
        <ele>158.0</ele>
        <time>2020-07-03T13:03:13Z</time>
      </trkpt>
      <trkpt lat="47.3612690" lon="2.8713650">
        <ele>157.8</ele>
        <time>2020-07-03T13:03:21Z</time>
      </trkpt>
      <trkpt lat="47.3610050" lon="2.8712290">
        <ele>157.8</ele>
        <time>2020-07-03T13:03:26Z</time>
      </trkpt>
      <trkpt lat="47.3608380" lon="2.8711650">
        <ele>157.8</ele>
        <time>2020-07-03T13:03:29Z</time>
      </trkpt>
      <trkpt lat="47.3603680" lon="2.8709540">
        <ele>157.8</ele>
        <time>2020-07-03T13:03:38Z</time>
      </trkpt>
      <trkpt lat="47.3603180" lon="2.8709270">
        <ele>157.6</ele>
        <time>2020-07-03T13:03:39Z</time>
      </trkpt>
      <trkpt lat="47.3598610" lon="2.8706780">
        <ele>158.0</ele>
        <time>2020-07-03T13:03:48Z</time>
      </trkpt>
      <trkpt lat="47.3594550" lon="2.8704730">
        <ele>158.8</ele>
        <time>2020-07-03T13:03:56Z</time>
      </trkpt>
      <trkpt lat="47.3593140" lon="2.8703720">
        <ele>159.2</ele>
        <time>2020-07-03T13:03:59Z</time>
      </trkpt>
      <trkpt lat="47.3589840" lon="2.8701700">
        <ele>159.4</ele>
        <time>2020-07-03T13:04:06Z</time>
      </trkpt>
      <trkpt lat="47.3587540" lon="2.8700260">
        <ele>159.8</ele>
        <time>2020-07-03T13:04:11Z</time>
      </trkpt>
      <trkpt lat="47.3585340" lon="2.8698640">
        <ele>160.4</ele>
        <time>2020-07-03T13:04:16Z</time>
      </trkpt>
      <trkpt lat="47.3580880" lon="2.8694740">
        <ele>161.0</ele>
        <time>2020-07-03T13:04:26Z</time>
      </trkpt>
      <trkpt lat="47.3576940" lon="2.8690860">
        <ele>160.6</ele>
        <time>2020-07-03T13:04:35Z</time>
      </trkpt>
      <trkpt lat="47.3575570" lon="2.8689580">
        <ele>160.6</ele>
        <time>2020-07-03T13:04:38Z</time>
      </trkpt>
      <trkpt lat="47.3573720" lon="2.8687790">
        <ele>160.6</ele>
        <time>2020-07-03T13:04:42Z</time>
      </trkpt>
      <trkpt lat="47.3570930" lon="2.8685020">
        <ele>160.4</ele>
        <time>2020-07-03T13:04:48Z</time>
      </trkpt>
      <trkpt lat="47.3566770" lon="2.8681180">
        <ele>160.6</ele>
        <time>2020-07-03T13:04:57Z</time>
      </trkpt>
      <trkpt lat="47.3562400" lon="2.8677660">
        <ele>160.6</ele>
        <time>2020-07-03T13:05:07Z</time>
      </trkpt>
      <trkpt lat="47.3558770" lon="2.8675080">
        <ele>160.6</ele>
        <time>2020-07-03T13:05:15Z</time>
      </trkpt>
      <trkpt lat="47.3557840" lon="2.8674390">
        <ele>160.6</ele>
        <time>2020-07-03T13:05:17Z</time>
      </trkpt>
      <trkpt lat="47.3553890" lon="2.8672110">
        <ele>159.8</ele>
        <time>2020-07-03T13:05:24Z</time>
      </trkpt>
      <trkpt lat="47.3548840" lon="2.8669200">
        <ele>159.0</ele>
        <time>2020-07-03T13:05:32Z</time>
      </trkpt>
      <trkpt lat="47.3548260" lon="2.8668820">
        <ele>159.0</ele>
        <time>2020-07-03T13:05:33Z</time>
      </trkpt>
      <trkpt lat="47.3546050" lon="2.8667380">
        <ele>158.8</ele>
        <time>2020-07-03T13:05:37Z</time>
      </trkpt>
      <trkpt lat="47.3544080" lon="2.8665860">
        <ele>159.0</ele>
        <time>2020-07-03T13:05:41Z</time>
      </trkpt>
      <trkpt lat="47.3541830" lon="2.8663750">
        <ele>159.4</ele>
        <time>2020-07-03T13:05:46Z</time>
      </trkpt>
      <trkpt lat="47.3540240" lon="2.8661670">
        <ele>159.4</ele>
        <time>2020-07-03T13:05:50Z</time>
      </trkpt>
      <trkpt lat="47.3537950" lon="2.8658290">
        <ele>159.6</ele>
        <time>2020-07-03T13:05:56Z</time>
      </trkpt>
      <trkpt lat="47.3537180" lon="2.8656950">
        <ele>159.6</ele>
        <time>2020-07-03T13:05:58Z</time>
      </trkpt>
      <trkpt lat="47.3536080" lon="2.8654700">
        <ele>159.6</ele>
        <time>2020-07-03T13:06:01Z</time>
      </trkpt>
      <trkpt lat="47.3532730" lon="2.8649140">
        <ele>157.6</ele>
        <time>2020-07-03T13:06:09Z</time>
      </trkpt>
      <trkpt lat="47.3528690" lon="2.8643160">
        <ele>156.4</ele>
        <time>2020-07-03T13:06:19Z</time>
      </trkpt>
      <trkpt lat="47.3527590" lon="2.8641550">
        <ele>156.6</ele>
        <time>2020-07-03T13:06:22Z</time>
      </trkpt>
      <trkpt lat="47.3524440" lon="2.8637090">
        <ele>157.2</ele>
        <time>2020-07-03T13:06:31Z</time>
      </trkpt>
      <trkpt lat="47.3524060" lon="2.8636640">
        <ele>157.2</ele>
        <time>2020-07-03T13:06:32Z</time>
      </trkpt>
      <trkpt lat="47.3519500" lon="2.8632030">
        <ele>157.8</ele>
        <time>2020-07-03T13:06:43Z</time>
      </trkpt>
      <trkpt lat="47.3514700" lon="2.8628120">
        <ele>157.6</ele>
        <time>2020-07-03T13:06:53Z</time>
      </trkpt>
      <trkpt lat="47.3513740" lon="2.8627380">
        <ele>157.6</ele>
        <time>2020-07-03T13:06:55Z</time>
      </trkpt>
      <trkpt lat="47.3510280" lon="2.8624930">
        <ele>157.0</ele>
        <time>2020-07-03T13:07:02Z</time>
      </trkpt>
      <trkpt lat="47.3509770" lon="2.8624560">
        <ele>157.0</ele>
        <time>2020-07-03T13:07:03Z</time>
      </trkpt>
      <trkpt lat="47.3505370" lon="2.8621880">
        <ele>156.0</ele>
        <time>2020-07-03T13:07:11Z</time>
      </trkpt>
      <trkpt lat="47.3504260" lon="2.8621250">
        <ele>155.4</ele>
        <time>2020-07-03T13:07:13Z</time>
      </trkpt>
      <trkpt lat="47.3501580" lon="2.8619750">
        <ele>154.8</ele>
        <time>2020-07-03T13:07:18Z</time>
      </trkpt>
      <trkpt lat="47.3498380" lon="2.8617880">
        <ele>154.8</ele>
        <time>2020-07-03T13:07:24Z</time>
      </trkpt>
      <trkpt lat="47.3493200" lon="2.8614920">
        <ele>155.4</ele>
        <time>2020-07-03T13:07:34Z</time>
      </trkpt>
      <trkpt lat="47.3491120" lon="2.8613790">
        <ele>155.2</ele>
        <time>2020-07-03T13:07:38Z</time>
      </trkpt>
      <trkpt lat="47.3486910" lon="2.8611220">
        <ele>155.0</ele>
        <time>2020-07-03T13:07:46Z</time>
      </trkpt>
      <trkpt lat="47.3484810" lon="2.8609920">
        <ele>155.2</ele>
        <time>2020-07-03T13:07:50Z</time>
      </trkpt>
      <trkpt lat="47.3479740" lon="2.8606760">
        <ele>155.2</ele>
        <time>2020-07-03T13:08:00Z</time>
      </trkpt>
      <trkpt lat="47.3478260" lon="2.8605780">
        <ele>155.2</ele>
        <time>2020-07-03T13:08:03Z</time>
      </trkpt>
      <trkpt lat="47.3473320" lon="2.8602850">
        <ele>155.8</ele>
        <time>2020-07-03T13:08:13Z</time>
      </trkpt>
      <trkpt lat="47.3472850" lon="2.8602580">
        <ele>156.0</ele>
        <time>2020-07-03T13:08:14Z</time>
      </trkpt>
      <trkpt lat="47.3468810" lon="2.8600100">
        <ele>156.2</ele>
        <time>2020-07-03T13:08:22Z</time>
      </trkpt>
      <trkpt lat="47.3467740" lon="2.8599490">
        <ele>156.2</ele>
        <time>2020-07-03T13:08:24Z</time>
      </trkpt>
      <trkpt lat="47.3467210" lon="2.8599190">
        <ele>156.2</ele>
        <time>2020-07-03T13:08:25Z</time>
      </trkpt>
      <trkpt lat="47.3466680" lon="2.8598870">
        <ele>156.2</ele>
        <time>2020-07-03T13:08:26Z</time>
      </trkpt>
      <trkpt lat="47.3461590" lon="2.8595580">
        <ele>156.2</ele>
        <time>2020-07-03T13:08:36Z</time>
      </trkpt>
      <trkpt lat="47.3460590" lon="2.8594930">
        <ele>156.2</ele>
        <time>2020-07-03T13:08:38Z</time>
      </trkpt>
      <trkpt lat="47.3460080" lon="2.8594610">
        <ele>156.2</ele>
        <time>2020-07-03T13:08:39Z</time>
      </trkpt>
      <trkpt lat="47.3454860" lon="2.8591580">
        <ele>156.2</ele>
        <time>2020-07-03T13:08:49Z</time>
      </trkpt>
      <trkpt lat="47.3449800" lon="2.8589570">
        <ele>156.8</ele>
        <time>2020-07-03T13:08:59Z</time>
      </trkpt>
      <trkpt lat="47.3448460" lon="2.8588960">
        <ele>157.0</ele>
        <time>2020-07-03T13:09:02Z</time>
      </trkpt>
      <trkpt lat="47.3445240" lon="2.8587780">
        <ele>157.4</ele>
        <time>2020-07-03T13:09:09Z</time>
      </trkpt>
      <trkpt lat="47.3441220" lon="2.8585830">
        <ele>158.0</ele>
        <time>2020-07-03T13:09:17Z</time>
      </trkpt>
      <trkpt lat="47.3440680" lon="2.8585510">
        <ele>158.0</ele>
        <time>2020-07-03T13:09:18Z</time>
      </trkpt>
      <trkpt lat="47.3435650" lon="2.8582290">
        <ele>157.0</ele>
        <time>2020-07-03T13:09:27Z</time>
      </trkpt>
      <trkpt lat="47.3435060" lon="2.8581950">
        <ele>157.0</ele>
        <time>2020-07-03T13:09:28Z</time>
      </trkpt>
      <trkpt lat="47.3432620" lon="2.8580790">
        <ele>156.6</ele>
        <time>2020-07-03T13:09:32Z</time>
      </trkpt>
      <trkpt lat="47.3430300" lon="2.8579410">
        <ele>156.4</ele>
        <time>2020-07-03T13:09:36Z</time>
      </trkpt>
      <trkpt lat="47.3425100" lon="2.8576750">
        <ele>156.0</ele>
        <time>2020-07-03T13:09:45Z</time>
      </trkpt>
      <trkpt lat="47.3424550" lon="2.8576530">
        <ele>155.8</ele>
        <time>2020-07-03T13:09:46Z</time>
      </trkpt>
      <trkpt lat="47.3421990" lon="2.8575750">
        <ele>156.0</ele>
        <time>2020-07-03T13:09:51Z</time>
      </trkpt>
      <trkpt lat="47.3420450" lon="2.8575250">
        <ele>156.0</ele>
        <time>2020-07-03T13:09:54Z</time>
      </trkpt>
      <trkpt lat="47.3419920" lon="2.8575080">
        <ele>156.0</ele>
        <time>2020-07-03T13:09:55Z</time>
      </trkpt>
      <trkpt lat="47.3416740" lon="2.8573980">
        <ele>156.0</ele>
        <time>2020-07-03T13:10:01Z</time>
      </trkpt>
      <trkpt lat="47.3416220" lon="2.8573750">
        <ele>156.0</ele>
        <time>2020-07-03T13:10:02Z</time>
      </trkpt>
      <trkpt lat="47.3414300" lon="2.8572670">
        <ele>156.2</ele>
        <time>2020-07-03T13:10:06Z</time>
      </trkpt>
      <trkpt lat="47.3413420" lon="2.8572300">
        <ele>156.0</ele>
        <time>2020-07-03T13:10:08Z</time>
      </trkpt>
      <trkpt lat="47.3413000" lon="2.8572140">
        <ele>156.0</ele>
        <time>2020-07-03T13:10:09Z</time>
      </trkpt>
      <trkpt lat="47.3411430" lon="2.8570860">
        <ele>156.0</ele>
        <time>2020-07-03T13:10:13Z</time>
      </trkpt>
      <trkpt lat="47.3410090" lon="2.8569240">
        <ele>156.2</ele>
        <time>2020-07-03T13:10:17Z</time>
      </trkpt>
      <trkpt lat="47.3409300" lon="2.8568920">
        <ele>156.4</ele>
        <time>2020-07-03T13:10:19Z</time>
      </trkpt>
      <trkpt lat="47.3408420" lon="2.8569230">
        <ele>156.4</ele>
        <time>2020-07-03T13:10:21Z</time>
      </trkpt>
      <trkpt lat="47.3407530" lon="2.8569700">
        <ele>156.6</ele>
        <time>2020-07-03T13:10:23Z</time>
      </trkpt>
      <trkpt lat="47.3406520" lon="2.8569830">
        <ele>156.6</ele>
        <time>2020-07-03T13:10:25Z</time>
      </trkpt>
      <trkpt lat="47.3405480" lon="2.8569600">
        <ele>156.6</ele>
        <time>2020-07-03T13:10:27Z</time>
      </trkpt>
      <trkpt lat="47.3402960" lon="2.8568780">
        <ele>156.8</ele>
        <time>2020-07-03T13:10:32Z</time>
      </trkpt>
      <trkpt lat="47.3399980" lon="2.8568020">
        <ele>157.0</ele>
        <time>2020-07-03T13:10:38Z</time>
      </trkpt>
      <trkpt lat="47.3397820" lon="2.8568110">
        <ele>157.0</ele>
        <time>2020-07-03T13:10:42Z</time>
      </trkpt>
      <trkpt lat="47.3396800" lon="2.8568360">
        <ele>156.8</ele>
        <time>2020-07-03T13:10:44Z</time>
      </trkpt>
      <trkpt lat="47.3393860" lon="2.8568700">
        <ele>156.8</ele>
        <time>2020-07-03T13:10:50Z</time>
      </trkpt>
      <trkpt lat="47.3390430" lon="2.8569170">
        <ele>156.2</ele>
        <time>2020-07-03T13:10:57Z</time>
      </trkpt>
      <trkpt lat="47.3389010" lon="2.8569580">
        <ele>156.2</ele>
        <time>2020-07-03T13:11:00Z</time>
      </trkpt>
      <trkpt lat="47.3388590" lon="2.8569860">
        <ele>156.0</ele>
        <time>2020-07-03T13:11:01Z</time>
      </trkpt>
      <trkpt lat="47.3388180" lon="2.8570260">
        <ele>156.2</ele>
        <time>2020-07-03T13:11:02Z</time>
      </trkpt>
      <trkpt lat="47.3387480" lon="2.8571340">
        <ele>156.0</ele>
        <time>2020-07-03T13:11:04Z</time>
      </trkpt>
      <trkpt lat="47.3386950" lon="2.8572720">
        <ele>156.0</ele>
        <time>2020-07-03T13:11:06Z</time>
      </trkpt>
      <trkpt lat="47.3386150" lon="2.8577200">
        <ele>156.2</ele>
        <time>2020-07-03T13:11:12Z</time>
      </trkpt>
      <trkpt lat="47.3385870" lon="2.8581050">
        <ele>156.6</ele>
        <time>2020-07-03T13:11:17Z</time>
      </trkpt>
      <trkpt lat="47.3385910" lon="2.8582470">
        <ele>156.6</ele>
        <time>2020-07-03T13:11:19Z</time>
      </trkpt>
      <trkpt lat="47.3385890" lon="2.8583150">
        <ele>156.6</ele>
        <time>2020-07-03T13:11:20Z</time>
      </trkpt>
      <trkpt lat="47.3385970" lon="2.8585620">
        <ele>156.8</ele>
        <time>2020-07-03T13:11:24Z</time>
      </trkpt>
      <trkpt lat="47.3385970" lon="2.8587150">
        <ele>157.0</ele>
        <time>2020-07-03T13:11:27Z</time>
      </trkpt>
      <trkpt lat="47.3386210" lon="2.8591920">
        <ele>159.6</ele>
        <time>2020-07-03T13:11:37Z</time>
      </trkpt>
      <trkpt lat="47.3385530" lon="2.8593350">
        <ele>159.8</ele>
        <time>2020-07-03T13:11:41Z</time>
      </trkpt>
      <trkpt lat="47.3384630" lon="2.8593530">
        <ele>159.8</ele>
        <time>2020-07-03T13:11:43Z</time>
      </trkpt>
      <trkpt lat="47.3383670" lon="2.8593560">
        <ele>159.8</ele>
        <time>2020-07-03T13:11:45Z</time>
      </trkpt>
      <trkpt lat="47.3383160" lon="2.8593530">
        <ele>159.6</ele>
        <time>2020-07-03T13:11:46Z</time>
      </trkpt>
      <trkpt lat="47.3381660" lon="2.8593460">
        <ele>159.6</ele>
        <time>2020-07-03T13:11:49Z</time>
      </trkpt>
      <trkpt lat="47.3380670" lon="2.8593410">
        <ele>158.8</ele>
        <time>2020-07-03T13:11:51Z</time>
      </trkpt>
      <trkpt lat="47.3378590" lon="2.8593240">
        <ele>158.0</ele>
        <time>2020-07-03T13:11:55Z</time>
      </trkpt>
      <trkpt lat="47.3374360" lon="2.8592700">
        <ele>155.4</ele>
        <time>2020-07-03T13:12:03Z</time>
      </trkpt>
      <trkpt lat="47.3369120" lon="2.8592160">
        <ele>154.8</ele>
        <time>2020-07-03T13:12:13Z</time>
      </trkpt>
      <trkpt lat="47.3368180" lon="2.8591930">
        <ele>154.8</ele>
        <time>2020-07-03T13:12:15Z</time>
      </trkpt>
      <trkpt lat="47.3366570" lon="2.8591030">
        <ele>154.8</ele>
        <time>2020-07-03T13:12:19Z</time>
      </trkpt>
      <trkpt lat="47.3363610" lon="2.8588770">
        <ele>154.6</ele>
        <time>2020-07-03T13:12:28Z</time>
      </trkpt>
      <trkpt lat="47.3360340" lon="2.8588290">
        <ele>154.6</ele>
        <time>2020-07-03T13:12:36Z</time>
      </trkpt>
      <trkpt lat="47.3356640" lon="2.8587310">
        <ele>154.8</ele>
        <time>2020-07-03T13:12:45Z</time>
      </trkpt>
      <trkpt lat="47.3354640" lon="2.8586510">
        <ele>154.6</ele>
        <time>2020-07-03T13:12:51Z</time>
      </trkpt>
      <trkpt lat="47.3353960" lon="2.8586000">
        <ele>155.0</ele>
        <time>2020-07-03T13:12:56Z</time>
      </trkpt>
      <trkpt lat="47.3354080" lon="2.8586000">
        <ele>155.4</ele>
        <time>2020-07-03T13:13:05Z</time>
      </trkpt>
      <trkpt lat="47.3354580" lon="2.8586340">
        <ele>155.6</ele>
        <time>2020-07-03T13:13:11Z</time>
      </trkpt>
      <trkpt lat="47.3354860" lon="2.8586580">
        <ele>155.6</ele>
        <time>2020-07-03T13:13:13Z</time>
      </trkpt>
      <trkpt lat="47.3354980" lon="2.8586990">
        <ele>155.6</ele>
        <time>2020-07-03T13:13:15Z</time>
      </trkpt>
      <trkpt lat="47.3354700" lon="2.8587340">
        <ele>155.6</ele>
        <time>2020-07-03T13:13:17Z</time>
      </trkpt>
      <trkpt lat="47.3353480" lon="2.8588850">
        <ele>155.6</ele>
        <time>2020-07-03T13:13:24Z</time>
      </trkpt>
      <trkpt lat="47.3353100" lon="2.8591230">
        <ele>155.4</ele>
        <time>2020-07-03T13:13:32Z</time>
      </trkpt>
      <trkpt lat="47.3353560" lon="2.8594640">
        <ele>155.6</ele>
        <time>2020-07-03T13:13:39Z</time>
      </trkpt>
      <trkpt lat="47.3354500" lon="2.8600430">
        <ele>155.4</ele>
        <time>2020-07-03T13:13:52Z</time>
      </trkpt>
      <trkpt lat="47.3354350" lon="2.8602570">
        <ele>155.6</ele>
        <time>2020-07-03T13:13:59Z</time>
      </trkpt>
      <trkpt lat="47.3353900" lon="2.8604770">
        <ele>155.6</ele>
        <time>2020-07-03T13:14:05Z</time>
      </trkpt>
      <trkpt lat="47.3352900" lon="2.8609280">
        <ele>155.6</ele>
        <time>2020-07-03T13:14:13Z</time>
      </trkpt>
      <trkpt lat="47.3351920" lon="2.8613100">
        <ele>155.4</ele>
        <time>2020-07-03T13:14:21Z</time>
      </trkpt>
      <trkpt lat="47.3350970" lon="2.8617650">
        <ele>155.4</ele>
        <time>2020-07-03T13:14:30Z</time>
      </trkpt>
      <trkpt lat="47.3350030" lon="2.8620990">
        <ele>155.6</ele>
        <time>2020-07-03T13:14:37Z</time>
      </trkpt>
      <trkpt lat="47.3350030" lon="2.8624810">
        <ele>155.6</ele>
        <time>2020-07-03T13:14:44Z</time>
      </trkpt>
      <trkpt lat="47.3350750" lon="2.8627780">
        <ele>155.6</ele>
        <time>2020-07-03T13:14:49Z</time>
      </trkpt>
      <trkpt lat="47.3350920" lon="2.8628330">
        <ele>155.6</ele>
        <time>2020-07-03T13:14:50Z</time>
      </trkpt>
      <trkpt lat="47.3351110" lon="2.8628890">
        <ele>155.8</ele>
        <time>2020-07-03T13:14:51Z</time>
      </trkpt>
      <trkpt lat="47.3351440" lon="2.8630890">
        <ele>155.8</ele>
        <time>2020-07-03T13:14:55Z</time>
      </trkpt>
      <trkpt lat="47.3351230" lon="2.8631150">
        <ele>155.8</ele>
        <time>2020-07-03T13:14:56Z</time>
      </trkpt>
      <trkpt lat="47.3350560" lon="2.8631090">
        <ele>155.6</ele>
        <time>2020-07-03T13:14:58Z</time>
      </trkpt>
      <trkpt lat="47.3350210" lon="2.8630890">
        <ele>155.6</ele>
        <time>2020-07-03T13:14:59Z</time>
      </trkpt>
      <trkpt lat="47.3347390" lon="2.8628840">
        <ele>155.6</ele>
        <time>2020-07-03T13:15:06Z</time>
      </trkpt>
      <trkpt lat="47.3343720" lon="2.8626760">
        <ele>154.0</ele>
        <time>2020-07-03T13:15:14Z</time>
      </trkpt>
      <trkpt lat="47.3339370" lon="2.8625870">
        <ele>153.8</ele>
        <time>2020-07-03T13:15:21Z</time>
      </trkpt>
      <trkpt lat="47.3334280" lon="2.8626130">
        <ele>154.0</ele>
        <time>2020-07-03T13:15:30Z</time>
      </trkpt>
      <trkpt lat="47.3331520" lon="2.8626690">
        <ele>153.8</ele>
        <time>2020-07-03T13:15:35Z</time>
      </trkpt>
      <trkpt lat="47.3328650" lon="2.8627300">
        <ele>153.6</ele>
        <time>2020-07-03T13:15:40Z</time>
      </trkpt>
      <trkpt lat="47.3328070" lon="2.8627440">
        <ele>153.8</ele>
        <time>2020-07-03T13:15:41Z</time>
      </trkpt>
      <trkpt lat="47.3323160" lon="2.8629230">
        <ele>153.8</ele>
        <time>2020-07-03T13:15:50Z</time>
      </trkpt>
      <trkpt lat="47.3320890" lon="2.8630270">
        <ele>154.0</ele>
        <time>2020-07-03T13:15:54Z</time>
      </trkpt>
      <trkpt lat="47.3319780" lon="2.8630680">
        <ele>154.0</ele>
        <time>2020-07-03T13:15:56Z</time>
      </trkpt>
      <trkpt lat="47.3318700" lon="2.8631030">
        <ele>153.8</ele>
        <time>2020-07-03T13:15:58Z</time>
      </trkpt>
      <trkpt lat="47.3315470" lon="2.8631480">
        <ele>154.0</ele>
        <time>2020-07-03T13:16:04Z</time>
      </trkpt>
      <trkpt lat="47.3310550" lon="2.8630980">
        <ele>154.0</ele>
        <time>2020-07-03T13:16:13Z</time>
      </trkpt>
      <trkpt lat="47.3305060" lon="2.8630700">
        <ele>154.2</ele>
        <time>2020-07-03T13:16:23Z</time>
      </trkpt>
      <trkpt lat="47.3304560" lon="2.8630710">
        <ele>154.2</ele>
        <time>2020-07-03T13:16:24Z</time>
      </trkpt>
      <trkpt lat="47.3300900" lon="2.8631000">
        <ele>154.4</ele>
        <time>2020-07-03T13:16:32Z</time>
      </trkpt>
      <trkpt lat="47.3298170" lon="2.8631730">
        <ele>154.8</ele>
        <time>2020-07-03T13:16:39Z</time>
      </trkpt>
      <trkpt lat="47.3295630" lon="2.8632080">
        <ele>154.8</ele>
        <time>2020-07-03T13:16:45Z</time>
      </trkpt>
      <trkpt lat="47.3293510" lon="2.8632530">
        <ele>155.0</ele>
        <time>2020-07-03T13:16:50Z</time>
      </trkpt>
      <trkpt lat="47.3292620" lon="2.8632790">
        <ele>155.2</ele>
        <time>2020-07-03T13:16:52Z</time>
      </trkpt>
      <trkpt lat="47.3289940" lon="2.8633210">
        <ele>155.2</ele>
        <time>2020-07-03T13:16:58Z</time>
      </trkpt>
      <trkpt lat="47.3288660" lon="2.8633390">
        <ele>155.4</ele>
        <time>2020-07-03T13:17:01Z</time>
      </trkpt>
      <trkpt lat="47.3284710" lon="2.8633510">
        <ele>155.8</ele>
        <time>2020-07-03T13:17:10Z</time>
      </trkpt>
      <trkpt lat="47.3281440" lon="2.8632450">
        <ele>155.6</ele>
        <time>2020-07-03T13:17:17Z</time>
      </trkpt>
      <trkpt lat="47.3281040" lon="2.8632180">
        <ele>155.6</ele>
        <time>2020-07-03T13:17:18Z</time>
      </trkpt>
      <trkpt lat="47.3280040" lon="2.8631010">
        <ele>155.6</ele>
        <time>2020-07-03T13:17:21Z</time>
      </trkpt>
      <trkpt lat="47.3277010" lon="2.8626260">
        <ele>155.4</ele>
        <time>2020-07-03T13:17:31Z</time>
      </trkpt>
      <trkpt lat="47.3276680" lon="2.8625870">
        <ele>155.6</ele>
        <time>2020-07-03T13:17:32Z</time>
      </trkpt>
      <trkpt lat="47.3275870" lon="2.8625290">
        <ele>155.4</ele>
        <time>2020-07-03T13:17:34Z</time>
      </trkpt>
      <trkpt lat="47.3275440" lon="2.8625210">
        <ele>155.6</ele>
        <time>2020-07-03T13:17:35Z</time>
      </trkpt>
      <trkpt lat="47.3275010" lon="2.8625270">
        <ele>155.6</ele>
        <time>2020-07-03T13:17:36Z</time>
      </trkpt>
      <trkpt lat="47.3274180" lon="2.8625800">
        <ele>155.4</ele>
        <time>2020-07-03T13:17:38Z</time>
      </trkpt>
      <trkpt lat="47.3273770" lon="2.8626230">
        <ele>155.2</ele>
        <time>2020-07-03T13:17:39Z</time>
      </trkpt>
      <trkpt lat="47.3271300" lon="2.8629630">
        <ele>155.0</ele>
        <time>2020-07-03T13:17:46Z</time>
      </trkpt>
      <trkpt lat="47.3269660" lon="2.8631970">
        <ele>155.0</ele>
        <time>2020-07-03T13:17:52Z</time>
      </trkpt>
      <trkpt lat="47.3269460" lon="2.8632240">
        <ele>155.0</ele>
        <time>2020-07-03T13:17:53Z</time>
      </trkpt>
      <trkpt lat="47.3268240" lon="2.8634320">
        <ele>155.2</ele>
        <time>2020-07-03T13:17:59Z</time>
      </trkpt>
      <trkpt lat="47.3268040" lon="2.8634810">
        <ele>155.2</ele>
        <time>2020-07-03T13:18:00Z</time>
      </trkpt>
      <trkpt lat="47.3265720" lon="2.8639820">
        <ele>155.2</ele>
        <time>2020-07-03T13:18:09Z</time>
      </trkpt>
      <trkpt lat="47.3264740" lon="2.8641640">
        <ele>155.0</ele>
        <time>2020-07-03T13:18:12Z</time>
      </trkpt>
      <trkpt lat="47.3262930" lon="2.8645320">
        <ele>154.6</ele>
        <time>2020-07-03T13:18:18Z</time>
      </trkpt>
      <trkpt lat="47.3259440" lon="2.8651800">
        <ele>154.4</ele>
        <time>2020-07-03T13:18:29Z</time>
      </trkpt>
      <trkpt lat="47.3259150" lon="2.8652310">
        <ele>154.6</ele>
        <time>2020-07-03T13:18:30Z</time>
      </trkpt>
      <trkpt lat="47.3257180" lon="2.8655250">
        <ele>154.6</ele>
        <time>2020-07-03T13:18:36Z</time>
      </trkpt>
      <trkpt lat="47.3256720" lon="2.8655620">
        <ele>154.6</ele>
        <time>2020-07-03T13:18:37Z</time>
      </trkpt>
      <trkpt lat="47.3256270" lon="2.8655940">
        <ele>154.6</ele>
        <time>2020-07-03T13:18:38Z</time>
      </trkpt>
      <trkpt lat="47.3253700" lon="2.8657380">
        <ele>154.6</ele>
        <time>2020-07-03T13:18:43Z</time>
      </trkpt>
      <trkpt lat="47.3253160" lon="2.8657700">
        <ele>154.8</ele>
        <time>2020-07-03T13:18:44Z</time>
      </trkpt>
      <trkpt lat="47.3250260" lon="2.8659560">
        <ele>154.4</ele>
        <time>2020-07-03T13:18:50Z</time>
      </trkpt>
      <trkpt lat="47.3249430" lon="2.8660110">
        <ele>154.4</ele>
        <time>2020-07-03T13:18:52Z</time>
      </trkpt>
      <trkpt lat="47.3245720" lon="2.8662840">
        <ele>154.6</ele>
        <time>2020-07-03T13:19:00Z</time>
      </trkpt>
      <trkpt lat="47.3244690" lon="2.8663670">
        <ele>154.4</ele>
        <time>2020-07-03T13:19:02Z</time>
      </trkpt>
      <trkpt lat="47.3241370" lon="2.8666350">
        <ele>154.4</ele>
        <time>2020-07-03T13:19:08Z</time>
      </trkpt>
      <trkpt lat="47.3236300" lon="2.8669720">
        <ele>154.0</ele>
        <time>2020-07-03T13:19:16Z</time>
      </trkpt>
      <trkpt lat="47.3231740" lon="2.8671760">
        <ele>154.0</ele>
        <time>2020-07-03T13:19:24Z</time>
      </trkpt>
      <trkpt lat="47.3226250" lon="2.8674170">
        <ele>154.0</ele>
        <time>2020-07-03T13:19:34Z</time>
      </trkpt>
      <trkpt lat="47.3221660" lon="2.8676650">
        <ele>154.0</ele>
        <time>2020-07-03T13:19:44Z</time>
      </trkpt>
      <trkpt lat="47.3219980" lon="2.8677340">
        <ele>154.4</ele>
        <time>2020-07-03T13:19:50Z</time>
      </trkpt>
      <trkpt lat="47.3218250" lon="2.8679070">
        <ele>154.8</ele>
        <time>2020-07-03T13:19:55Z</time>
      </trkpt>
      <trkpt lat="47.3215210" lon="2.8681090">
        <ele>155.0</ele>
        <time>2020-07-03T13:20:01Z</time>
      </trkpt>
      <trkpt lat="47.3210290" lon="2.8684490">
        <ele>155.2</ele>
        <time>2020-07-03T13:20:11Z</time>
      </trkpt>
      <trkpt lat="47.3207380" lon="2.8686900">
        <ele>155.2</ele>
        <time>2020-07-03T13:20:17Z</time>
      </trkpt>
      <trkpt lat="47.3205760" lon="2.8688140">
        <ele>155.0</ele>
        <time>2020-07-03T13:20:20Z</time>
      </trkpt>
      <trkpt lat="47.3201040" lon="2.8691630">
        <ele>154.0</ele>
        <time>2020-07-03T13:20:29Z</time>
      </trkpt>
      <trkpt lat="47.3196890" lon="2.8695470">
        <ele>154.0</ele>
        <time>2020-07-03T13:20:38Z</time>
      </trkpt>
      <trkpt lat="47.3193170" lon="2.8700010">
        <ele>154.2</ele>
        <time>2020-07-03T13:20:47Z</time>
      </trkpt>
      <trkpt lat="47.3192730" lon="2.8700540">
        <ele>154.4</ele>
        <time>2020-07-03T13:20:48Z</time>
      </trkpt>
      <trkpt lat="47.3189760" lon="2.8702640">
        <ele>154.4</ele>
        <time>2020-07-03T13:20:54Z</time>
      </trkpt>
      <trkpt lat="47.3187040" lon="2.8703740">
        <ele>153.6</ele>
        <time>2020-07-03T13:20:59Z</time>
      </trkpt>
      <trkpt lat="47.3184980" lon="2.8704910">
        <ele>153.6</ele>
        <time>2020-07-03T13:21:03Z</time>
      </trkpt>
      <trkpt lat="47.3182330" lon="2.8707620">
        <ele>154.0</ele>
        <time>2020-07-03T13:21:09Z</time>
      </trkpt>
      <trkpt lat="47.3181910" lon="2.8708120">
        <ele>154.2</ele>
        <time>2020-07-03T13:21:10Z</time>
      </trkpt>
      <trkpt lat="47.3180240" lon="2.8710190">
        <ele>154.2</ele>
        <time>2020-07-03T13:21:14Z</time>
      </trkpt>
      <trkpt lat="47.3177740" lon="2.8713570">
        <ele>154.2</ele>
        <time>2020-07-03T13:21:20Z</time>
      </trkpt>
      <trkpt lat="47.3174960" lon="2.8719110">
        <ele>154.4</ele>
        <time>2020-07-03T13:21:28Z</time>
      </trkpt>
      <trkpt lat="47.3171430" lon="2.8725550">
        <ele>154.4</ele>
        <time>2020-07-03T13:21:38Z</time>
      </trkpt>
      <trkpt lat="47.3169690" lon="2.8728720">
        <ele>154.8</ele>
        <time>2020-07-03T13:21:43Z</time>
      </trkpt>
      <trkpt lat="47.3168800" lon="2.8730480">
        <ele>154.6</ele>
        <time>2020-07-03T13:21:46Z</time>
      </trkpt>
      <trkpt lat="47.3165910" lon="2.8736100">
        <ele>155.2</ele>
        <time>2020-07-03T13:21:55Z</time>
      </trkpt>
      <trkpt lat="47.3163500" lon="2.8741360">
        <ele>155.6</ele>
        <time>2020-07-03T13:22:03Z</time>
      </trkpt>
      <trkpt lat="47.3163240" lon="2.8742040">
        <ele>155.8</ele>
        <time>2020-07-03T13:22:04Z</time>
      </trkpt>
      <trkpt lat="47.3161170" lon="2.8747750">
        <ele>156.0</ele>
        <time>2020-07-03T13:22:12Z</time>
      </trkpt>
      <trkpt lat="47.3159770" lon="2.8750560">
        <ele>156.0</ele>
        <time>2020-07-03T13:22:16Z</time>
      </trkpt>
      <trkpt lat="47.3159070" lon="2.8751890">
        <ele>156.0</ele>
        <time>2020-07-03T13:22:18Z</time>
      </trkpt>
      <trkpt lat="47.3158090" lon="2.8753960">
        <ele>156.0</ele>
        <time>2020-07-03T13:22:21Z</time>
      </trkpt>
      <trkpt lat="47.3156060" lon="2.8760150">
        <ele>156.0</ele>
        <time>2020-07-03T13:22:29Z</time>
      </trkpt>
      <trkpt lat="47.3154230" lon="2.8764850">
        <ele>156.4</ele>
        <time>2020-07-03T13:22:36Z</time>
      </trkpt>
      <trkpt lat="47.3152290" lon="2.8767730">
        <ele>156.4</ele>
        <time>2020-07-03T13:22:41Z</time>
      </trkpt>
      <trkpt lat="47.3150930" lon="2.8769420">
        <ele>156.2</ele>
        <time>2020-07-03T13:22:44Z</time>
      </trkpt>
      <trkpt lat="47.3148500" lon="2.8772940">
        <ele>156.2</ele>
        <time>2020-07-03T13:22:50Z</time>
      </trkpt>
      <trkpt lat="47.3147040" lon="2.8775550">
        <ele>156.2</ele>
        <time>2020-07-03T13:22:54Z</time>
      </trkpt>
      <trkpt lat="47.3145720" lon="2.8778250">
        <ele>156.2</ele>
        <time>2020-07-03T13:22:58Z</time>
      </trkpt>
      <trkpt lat="47.3145070" lon="2.8779640">
        <ele>156.2</ele>
        <time>2020-07-03T13:23:00Z</time>
      </trkpt>
      <trkpt lat="47.3142740" lon="2.8785870">
        <ele>156.0</ele>
        <time>2020-07-03T13:23:09Z</time>
      </trkpt>
      <trkpt lat="47.3141080" lon="2.8792430">
        <ele>155.8</ele>
        <time>2020-07-03T13:23:17Z</time>
      </trkpt>
      <trkpt lat="47.3140850" lon="2.8793220">
        <ele>155.8</ele>
        <time>2020-07-03T13:23:18Z</time>
      </trkpt>
      <trkpt lat="47.3138280" lon="2.8801060">
        <ele>155.2</ele>
        <time>2020-07-03T13:23:28Z</time>
      </trkpt>
      <trkpt lat="47.3136220" lon="2.8805870">
        <ele>154.6</ele>
        <time>2020-07-03T13:23:35Z</time>
      </trkpt>
      <trkpt lat="47.3135360" lon="2.8807930">
        <ele>154.8</ele>
        <time>2020-07-03T13:23:38Z</time>
      </trkpt>
      <trkpt lat="47.3135110" lon="2.8808620">
        <ele>154.8</ele>
        <time>2020-07-03T13:23:39Z</time>
      </trkpt>
      <trkpt lat="47.3133400" lon="2.8813250">
        <ele>155.2</ele>
        <time>2020-07-03T13:23:46Z</time>
      </trkpt>
      <trkpt lat="47.3131240" lon="2.8818270">
        <ele>155.0</ele>
        <time>2020-07-03T13:23:54Z</time>
      </trkpt>
      <trkpt lat="47.3127910" lon="2.8824820">
        <ele>154.6</ele>
        <time>2020-07-03T13:24:04Z</time>
      </trkpt>
      <trkpt lat="47.3125670" lon="2.8829790">
        <ele>154.8</ele>
        <time>2020-07-03T13:24:11Z</time>
      </trkpt>
      <trkpt lat="47.3122580" lon="2.8837090">
        <ele>154.6</ele>
        <time>2020-07-03T13:24:21Z</time>
      </trkpt>
      <trkpt lat="47.3121560" lon="2.8839320">
        <ele>154.8</ele>
        <time>2020-07-03T13:24:24Z</time>
      </trkpt>
      <trkpt lat="47.3118660" lon="2.8846360">
        <ele>154.8</ele>
        <time>2020-07-03T13:24:34Z</time>
      </trkpt>
      <trkpt lat="47.3118050" lon="2.8847570">
        <ele>154.8</ele>
        <time>2020-07-03T13:24:36Z</time>
      </trkpt>
      <trkpt lat="47.3117690" lon="2.8848020">
        <ele>154.6</ele>
        <time>2020-07-03T13:24:37Z</time>
      </trkpt>
      <trkpt lat="47.3117320" lon="2.8848370">
        <ele>154.8</ele>
        <time>2020-07-03T13:24:38Z</time>
      </trkpt>
      <trkpt lat="47.3116450" lon="2.8848700">
        <ele>154.8</ele>
        <time>2020-07-03T13:24:40Z</time>
      </trkpt>
      <trkpt lat="47.3115510" lon="2.8848720">
        <ele>154.8</ele>
        <time>2020-07-03T13:24:42Z</time>
      </trkpt>
      <trkpt lat="47.3113550" lon="2.8848540">
        <ele>155.6</ele>
        <time>2020-07-03T13:24:47Z</time>
      </trkpt>
      <trkpt lat="47.3113320" lon="2.8848830">
        <ele>155.8</ele>
        <time>2020-07-03T13:24:48Z</time>
      </trkpt>
      <trkpt lat="47.3113040" lon="2.8850860">
        <ele>156.2</ele>
        <time>2020-07-03T13:24:52Z</time>
      </trkpt>
      <trkpt lat="47.3112830" lon="2.8856820">
        <ele>156.4</ele>
        <time>2020-07-03T13:25:01Z</time>
      </trkpt>
      <trkpt lat="47.3112430" lon="2.8864100">
        <ele>156.0</ele>
        <time>2020-07-03T13:25:11Z</time>
      </trkpt>
      <trkpt lat="47.3112050" lon="2.8871610">
        <ele>156.4</ele>
        <time>2020-07-03T13:25:22Z</time>
      </trkpt>
      <trkpt lat="47.3111550" lon="2.8878910">
        <ele>156.0</ele>
        <time>2020-07-03T13:25:33Z</time>
      </trkpt>
      <trkpt lat="47.3110800" lon="2.8883510">
        <ele>156.2</ele>
        <time>2020-07-03T13:25:41Z</time>
      </trkpt>
      <trkpt lat="47.3109690" lon="2.8889380">
        <ele>156.4</ele>
        <time>2020-07-03T13:25:50Z</time>
      </trkpt>
      <trkpt lat="47.3108540" lon="2.8894740">
        <ele>156.6</ele>
        <time>2020-07-03T13:25:59Z</time>
      </trkpt>
      <trkpt lat="47.3108460" lon="2.8895300">
        <ele>156.8</ele>
        <time>2020-07-03T13:26:00Z</time>
      </trkpt>
      <trkpt lat="47.3107240" lon="2.8899090">
        <ele>156.8</ele>
        <time>2020-07-03T13:26:08Z</time>
      </trkpt>
      <trkpt lat="47.3106650" lon="2.8900540">
        <ele>156.8</ele>
        <time>2020-07-03T13:26:11Z</time>
      </trkpt>
      <trkpt lat="47.3106050" lon="2.8902150">
        <ele>157.0</ele>
        <time>2020-07-03T13:26:14Z</time>
      </trkpt>
      <trkpt lat="47.3105470" lon="2.8903470">
        <ele>157.0</ele>
        <time>2020-07-03T13:26:16Z</time>
      </trkpt>
      <trkpt lat="47.3103130" lon="2.8908010">
        <ele>156.8</ele>
        <time>2020-07-03T13:26:23Z</time>
      </trkpt>
      <trkpt lat="47.3100530" lon="2.8912990">
        <ele>156.2</ele>
        <time>2020-07-03T13:26:30Z</time>
      </trkpt>
      <trkpt lat="47.3097880" lon="2.8918080">
        <ele>156.2</ele>
        <time>2020-07-03T13:26:38Z</time>
      </trkpt>
      <trkpt lat="47.3095570" lon="2.8923650">
        <ele>155.8</ele>
        <time>2020-07-03T13:26:46Z</time>
      </trkpt>
      <trkpt lat="47.3092880" lon="2.8929620">
        <ele>156.0</ele>
        <time>2020-07-03T13:26:55Z</time>
      </trkpt>
      <trkpt lat="47.3090830" lon="2.8933950">
        <ele>156.0</ele>
        <time>2020-07-03T13:27:02Z</time>
      </trkpt>
      <trkpt lat="47.3087560" lon="2.8938620">
        <ele>155.8</ele>
        <time>2020-07-03T13:27:11Z</time>
      </trkpt>
      <trkpt lat="47.3084150" lon="2.8942700">
        <ele>155.8</ele>
        <time>2020-07-03T13:27:18Z</time>
      </trkpt>
      <trkpt lat="47.3080630" lon="2.8947030">
        <ele>156.0</ele>
        <time>2020-07-03T13:27:26Z</time>
      </trkpt>
      <trkpt lat="47.3078490" lon="2.8951020">
        <ele>156.0</ele>
        <time>2020-07-03T13:27:32Z</time>
      </trkpt>
      <trkpt lat="47.3075480" lon="2.8957800">
        <ele>156.0</ele>
        <time>2020-07-03T13:27:41Z</time>
      </trkpt>
      <trkpt lat="47.3073450" lon="2.8963990">
        <ele>156.2</ele>
        <time>2020-07-03T13:27:49Z</time>
      </trkpt>
      <trkpt lat="47.3071890" lon="2.8970100">
        <ele>156.2</ele>
        <time>2020-07-03T13:27:57Z</time>
      </trkpt>
      <trkpt lat="47.3070220" lon="2.8975800">
        <ele>156.4</ele>
        <time>2020-07-03T13:28:05Z</time>
      </trkpt>
      <trkpt lat="47.3068070" lon="2.8981140">
        <ele>156.6</ele>
        <time>2020-07-03T13:28:12Z</time>
      </trkpt>
      <trkpt lat="47.3065320" lon="2.8985890">
        <ele>156.4</ele>
        <time>2020-07-03T13:28:19Z</time>
      </trkpt>
      <trkpt lat="47.3062900" lon="2.8990870">
        <ele>156.6</ele>
        <time>2020-07-03T13:28:26Z</time>
      </trkpt>
      <trkpt lat="47.3062560" lon="2.8991710">
        <ele>156.6</ele>
        <time>2020-07-03T13:28:27Z</time>
      </trkpt>
      <trkpt lat="47.3062190" lon="2.8992600">
        <ele>156.6</ele>
        <time>2020-07-03T13:28:28Z</time>
      </trkpt>
      <trkpt lat="47.3060970" lon="2.8995190">
        <ele>156.6</ele>
        <time>2020-07-03T13:28:31Z</time>
      </trkpt>
      <trkpt lat="47.3060140" lon="2.8996780">
        <ele>156.4</ele>
        <time>2020-07-03T13:28:33Z</time>
      </trkpt>
      <trkpt lat="47.3056730" lon="2.9003330">
        <ele>155.6</ele>
        <time>2020-07-03T13:28:42Z</time>
      </trkpt>
      <trkpt lat="47.3053330" lon="2.9010570">
        <ele>155.8</ele>
        <time>2020-07-03T13:28:52Z</time>
      </trkpt>
      <trkpt lat="47.3052940" lon="2.9011290">
        <ele>155.8</ele>
        <time>2020-07-03T13:28:53Z</time>
      </trkpt>
      <trkpt lat="47.3050560" lon="2.9016440">
        <ele>155.8</ele>
        <time>2020-07-03T13:29:00Z</time>
      </trkpt>
      <trkpt lat="47.3049950" lon="2.9017950">
        <ele>155.8</ele>
        <time>2020-07-03T13:29:02Z</time>
      </trkpt>
      <trkpt lat="47.3048470" lon="2.9021350">
        <ele>156.2</ele>
        <time>2020-07-03T13:29:07Z</time>
      </trkpt>
      <trkpt lat="47.3047250" lon="2.9023820">
        <ele>155.8</ele>
        <time>2020-07-03T13:29:11Z</time>
      </trkpt>
      <trkpt lat="47.3046900" lon="2.9024390">
        <ele>156.0</ele>
        <time>2020-07-03T13:29:12Z</time>
      </trkpt>
      <trkpt lat="47.3046210" lon="2.9025380">
        <ele>155.8</ele>
        <time>2020-07-03T13:29:14Z</time>
      </trkpt>
      <trkpt lat="47.3045230" lon="2.9026060">
        <ele>155.8</ele>
        <time>2020-07-03T13:29:16Z</time>
      </trkpt>
      <trkpt lat="47.3044710" lon="2.9026280">
        <ele>155.8</ele>
        <time>2020-07-03T13:29:17Z</time>
      </trkpt>
      <trkpt lat="47.3043180" lon="2.9026960">
        <ele>156.0</ele>
        <time>2020-07-03T13:29:20Z</time>
      </trkpt>
      <trkpt lat="47.3042640" lon="2.9027810">
        <ele>155.8</ele>
        <time>2020-07-03T13:29:22Z</time>
      </trkpt>
      <trkpt lat="47.3042800" lon="2.9029970">
        <ele>156.0</ele>
        <time>2020-07-03T13:29:26Z</time>
      </trkpt>
      <trkpt lat="47.3043270" lon="2.9031410">
        <ele>156.0</ele>
        <time>2020-07-03T13:29:28Z</time>
      </trkpt>
      <trkpt lat="47.3043970" lon="2.9032790">
        <ele>156.0</ele>
        <time>2020-07-03T13:29:30Z</time>
      </trkpt>
      <trkpt lat="47.3045130" lon="2.9034660">
        <ele>156.2</ele>
        <time>2020-07-03T13:29:33Z</time>
      </trkpt>
      <trkpt lat="47.3045490" lon="2.9035280">
        <ele>156.2</ele>
        <time>2020-07-03T13:29:34Z</time>
      </trkpt>
      <trkpt lat="47.3047110" lon="2.9038390">
        <ele>156.6</ele>
        <time>2020-07-03T13:29:39Z</time>
      </trkpt>
      <trkpt lat="47.3050160" lon="2.9045390">
        <ele>155.8</ele>
        <time>2020-07-03T13:29:50Z</time>
      </trkpt>
      <trkpt lat="47.3050660" lon="2.9046680">
        <ele>156.0</ele>
        <time>2020-07-03T13:29:52Z</time>
      </trkpt>
      <trkpt lat="47.3051860" lon="2.9050220">
        <ele>156.0</ele>
        <time>2020-07-03T13:29:58Z</time>
      </trkpt>
      <trkpt lat="47.3052290" lon="2.9051460">
        <ele>155.8</ele>
        <time>2020-07-03T13:30:00Z</time>
      </trkpt>
      <trkpt lat="47.3053290" lon="2.9053890">
        <ele>155.8</ele>
        <time>2020-07-03T13:30:04Z</time>
      </trkpt>
      <trkpt lat="47.3055040" lon="2.9057770">
        <ele>156.2</ele>
        <time>2020-07-03T13:30:11Z</time>
      </trkpt>
      <trkpt lat="47.3057480" lon="2.9063270">
        <ele>156.6</ele>
        <time>2020-07-03T13:30:20Z</time>
      </trkpt>
      <trkpt lat="47.3060200" lon="2.9069480">
        <ele>156.4</ele>
        <time>2020-07-03T13:30:30Z</time>
      </trkpt>
      <trkpt lat="47.3063030" lon="2.9076720">
        <ele>156.2</ele>
        <time>2020-07-03T13:30:41Z</time>
      </trkpt>
      <trkpt lat="47.3065240" lon="2.9081880">
        <ele>156.4</ele>
        <time>2020-07-03T13:30:50Z</time>
      </trkpt>
      <trkpt lat="47.3067270" lon="2.9086960">
        <ele>156.6</ele>
        <time>2020-07-03T13:30:58Z</time>
      </trkpt>
      <trkpt lat="47.3069720" lon="2.9092810">
        <ele>156.2</ele>
        <time>2020-07-03T13:31:07Z</time>
      </trkpt>
      <trkpt lat="47.3071930" lon="2.9096320">
        <ele>156.0</ele>
        <time>2020-07-03T13:31:14Z</time>
      </trkpt>
      <trkpt lat="47.3072380" lon="2.9097070">
        <ele>156.2</ele>
        <time>2020-07-03T13:31:16Z</time>
      </trkpt>
      <trkpt lat="47.3072640" lon="2.9098420">
        <ele>156.4</ele>
        <time>2020-07-03T13:31:19Z</time>
      </trkpt>
      <trkpt lat="47.3072600" lon="2.9099560">
        <ele>156.6</ele>
        <time>2020-07-03T13:31:21Z</time>
      </trkpt>
      <trkpt lat="47.3072510" lon="2.9100280">
        <ele>156.6</ele>
        <time>2020-07-03T13:31:22Z</time>
      </trkpt>
      <trkpt lat="47.3072250" lon="2.9101900">
        <ele>156.6</ele>
        <time>2020-07-03T13:31:24Z</time>
      </trkpt>
      <trkpt lat="47.3071100" lon="2.9107450">
        <ele>156.8</ele>
        <time>2020-07-03T13:31:31Z</time>
      </trkpt>
      <trkpt lat="47.3070820" lon="2.9108220">
        <ele>156.8</ele>
        <time>2020-07-03T13:31:32Z</time>
      </trkpt>
      <trkpt lat="47.3070560" lon="2.9108870">
        <ele>156.8</ele>
        <time>2020-07-03T13:31:33Z</time>
      </trkpt>
      <trkpt lat="47.3069400" lon="2.9110820">
        <ele>156.8</ele>
        <time>2020-07-03T13:31:36Z</time>
      </trkpt>
      <trkpt lat="47.3067130" lon="2.9114690">
        <ele>156.8</ele>
        <time>2020-07-03T13:31:43Z</time>
      </trkpt>
      <trkpt lat="47.3064760" lon="2.9117760">
        <ele>156.6</ele>
        <time>2020-07-03T13:31:50Z</time>
      </trkpt>
      <trkpt lat="47.3062280" lon="2.9120340">
        <ele>156.8</ele>
        <time>2020-07-03T13:31:57Z</time>
      </trkpt>
      <trkpt lat="47.3060150" lon="2.9122040">
        <ele>156.8</ele>
        <time>2020-07-03T13:32:02Z</time>
      </trkpt>
      <trkpt lat="47.3059560" lon="2.9122370">
        <ele>157.0</ele>
        <time>2020-07-03T13:32:03Z</time>
      </trkpt>
      <trkpt lat="47.3058010" lon="2.9123040">
        <ele>157.0</ele>
        <time>2020-07-03T13:32:06Z</time>
      </trkpt>
      <trkpt lat="47.3057170" lon="2.9123520">
        <ele>157.2</ele>
        <time>2020-07-03T13:32:08Z</time>
      </trkpt>
      <trkpt lat="47.3052980" lon="2.9125720">
        <ele>157.4</ele>
        <time>2020-07-03T13:32:16Z</time>
      </trkpt>
      <trkpt lat="47.3049340" lon="2.9128370">
        <ele>156.8</ele>
        <time>2020-07-03T13:32:23Z</time>
      </trkpt>
      <trkpt lat="47.3046940" lon="2.9131720">
        <ele>156.2</ele>
        <time>2020-07-03T13:32:29Z</time>
      </trkpt>
      <trkpt lat="47.3043490" lon="2.9136930">
        <ele>156.4</ele>
        <time>2020-07-03T13:32:38Z</time>
      </trkpt>
      <trkpt lat="47.3041880" lon="2.9138610">
        <ele>156.6</ele>
        <time>2020-07-03T13:32:42Z</time>
      </trkpt>
      <trkpt lat="47.3041500" lon="2.9138950">
        <ele>156.6</ele>
        <time>2020-07-03T13:32:43Z</time>
      </trkpt>
      <trkpt lat="47.3041100" lon="2.9139240">
        <ele>156.6</ele>
        <time>2020-07-03T13:32:44Z</time>
      </trkpt>
      <trkpt lat="47.3039370" lon="2.9139530">
        <ele>156.8</ele>
        <time>2020-07-03T13:32:48Z</time>
      </trkpt>
      <trkpt lat="47.3037750" lon="2.9139830">
        <ele>157.0</ele>
        <time>2020-07-03T13:32:53Z</time>
      </trkpt>
      <trkpt lat="47.3036440" lon="2.9142010">
        <ele>157.6</ele>
        <time>2020-07-03T13:32:58Z</time>
      </trkpt>
      <trkpt lat="47.3036110" lon="2.9142460">
        <ele>157.6</ele>
        <time>2020-07-03T13:32:59Z</time>
      </trkpt>
      <trkpt lat="47.3033640" lon="2.9144840">
        <ele>157.4</ele>
        <time>2020-07-03T13:33:05Z</time>
      </trkpt>
      <trkpt lat="47.3030660" lon="2.9148060">
        <ele>157.2</ele>
        <time>2020-07-03T13:33:12Z</time>
      </trkpt>
      <trkpt lat="47.3028080" lon="2.9151970">
        <ele>157.2</ele>
        <time>2020-07-03T13:33:19Z</time>
      </trkpt>
      <trkpt lat="47.3026740" lon="2.9154350">
        <ele>157.0</ele>
        <time>2020-07-03T13:33:23Z</time>
      </trkpt>
      <trkpt lat="47.3025990" lon="2.9155700">
        <ele>157.0</ele>
        <time>2020-07-03T13:33:25Z</time>
      </trkpt>
      <trkpt lat="47.3023940" lon="2.9159130">
        <ele>157.2</ele>
        <time>2020-07-03T13:33:31Z</time>
      </trkpt>
      <trkpt lat="47.3023650" lon="2.9159690">
        <ele>157.0</ele>
        <time>2020-07-03T13:33:32Z</time>
      </trkpt>
      <trkpt lat="47.3020950" lon="2.9164550">
        <ele>157.0</ele>
        <time>2020-07-03T13:33:40Z</time>
      </trkpt>
      <trkpt lat="47.3020530" lon="2.9165140">
        <ele>157.0</ele>
        <time>2020-07-03T13:33:41Z</time>
      </trkpt>
      <trkpt lat="47.3018640" lon="2.9167230">
        <ele>157.2</ele>
        <time>2020-07-03T13:33:45Z</time>
      </trkpt>
      <trkpt lat="47.3015170" lon="2.9171200">
        <ele>157.0</ele>
        <time>2020-07-03T13:33:53Z</time>
      </trkpt>
      <trkpt lat="47.3010970" lon="2.9175880">
        <ele>156.6</ele>
        <time>2020-07-03T13:34:02Z</time>
      </trkpt>
      <trkpt lat="47.3009240" lon="2.9177630">
        <ele>156.6</ele>
        <time>2020-07-03T13:34:06Z</time>
      </trkpt>
      <trkpt lat="47.3007230" lon="2.9179940">
        <ele>156.8</ele>
        <time>2020-07-03T13:34:11Z</time>
      </trkpt>
      <trkpt lat="47.3003620" lon="2.9184060">
        <ele>157.4</ele>
        <time>2020-07-03T13:34:20Z</time>
      </trkpt>
      <trkpt lat="47.3002940" lon="2.9184780">
        <ele>157.8</ele>
        <time>2020-07-03T13:34:22Z</time>
      </trkpt>
      <trkpt lat="47.3002650" lon="2.9185160">
        <ele>157.8</ele>
        <time>2020-07-03T13:34:23Z</time>
      </trkpt>
      <trkpt lat="47.3001900" lon="2.9186170">
        <ele>158.0</ele>
        <time>2020-07-03T13:34:26Z</time>
      </trkpt>
      <trkpt lat="47.2999850" lon="2.9188150">
        <ele>158.4</ele>
        <time>2020-07-03T13:34:32Z</time>
      </trkpt>
      <trkpt lat="47.2998120" lon="2.9189560">
        <ele>158.2</ele>
        <time>2020-07-03T13:34:36Z</time>
      </trkpt>
      <trkpt lat="47.2996500" lon="2.9191110">
        <ele>158.2</ele>
        <time>2020-07-03T13:34:40Z</time>
      </trkpt>
      <trkpt lat="47.2993230" lon="2.9194390">
        <ele>158.2</ele>
        <time>2020-07-03T13:34:47Z</time>
      </trkpt>
      <trkpt lat="47.2992210" lon="2.9195180">
        <ele>158.4</ele>
        <time>2020-07-03T13:34:49Z</time>
      </trkpt>
      <trkpt lat="47.2990840" lon="2.9196460">
        <ele>158.4</ele>
        <time>2020-07-03T13:34:52Z</time>
      </trkpt>
      <trkpt lat="47.2989280" lon="2.9198050">
        <ele>158.4</ele>
        <time>2020-07-03T13:34:55Z</time>
      </trkpt>
      <trkpt lat="47.2985110" lon="2.9202320">
        <ele>157.8</ele>
        <time>2020-07-03T13:35:04Z</time>
      </trkpt>
      <trkpt lat="47.2982320" lon="2.9205940">
        <ele>157.6</ele>
        <time>2020-07-03T13:35:12Z</time>
      </trkpt>
      <trkpt lat="47.2979700" lon="2.9209880">
        <ele>157.8</ele>
        <time>2020-07-03T13:35:19Z</time>
      </trkpt>
      <trkpt lat="47.2977360" lon="2.9213180">
        <ele>157.6</ele>
        <time>2020-07-03T13:35:25Z</time>
      </trkpt>
      <trkpt lat="47.2976640" lon="2.9214270">
        <ele>157.6</ele>
        <time>2020-07-03T13:35:27Z</time>
      </trkpt>
      <trkpt lat="47.2975170" lon="2.9216400">
        <ele>157.8</ele>
        <time>2020-07-03T13:35:31Z</time>
      </trkpt>
      <trkpt lat="47.2974080" lon="2.9218250">
        <ele>157.8</ele>
        <time>2020-07-03T13:35:34Z</time>
      </trkpt>
      <trkpt lat="47.2972640" lon="2.9221100">
        <ele>158.0</ele>
        <time>2020-07-03T13:35:38Z</time>
      </trkpt>
      <trkpt lat="47.2971580" lon="2.9223070">
        <ele>158.0</ele>
        <time>2020-07-03T13:35:41Z</time>
      </trkpt>
      <trkpt lat="47.2971170" lon="2.9223700">
        <ele>158.0</ele>
        <time>2020-07-03T13:35:42Z</time>
      </trkpt>
      <trkpt lat="47.2968460" lon="2.9227330">
        <ele>157.6</ele>
        <time>2020-07-03T13:35:49Z</time>
      </trkpt>
      <trkpt lat="47.2965730" lon="2.9230660">
        <ele>157.6</ele>
        <time>2020-07-03T13:35:57Z</time>
      </trkpt>
      <trkpt lat="47.2963650" lon="2.9233270">
        <ele>157.8</ele>
        <time>2020-07-03T13:36:04Z</time>
      </trkpt>
      <trkpt lat="47.2961140" lon="2.9236540">
        <ele>157.8</ele>
        <time>2020-07-03T13:36:11Z</time>
      </trkpt>
      <trkpt lat="47.2957570" lon="2.9241280">
        <ele>157.6</ele>
        <time>2020-07-03T13:36:20Z</time>
      </trkpt>
      <trkpt lat="47.2954640" lon="2.9245220">
        <ele>157.4</ele>
        <time>2020-07-03T13:36:27Z</time>
      </trkpt>
      <trkpt lat="47.2953420" lon="2.9246880">
        <ele>157.4</ele>
        <time>2020-07-03T13:36:30Z</time>
      </trkpt>
      <trkpt lat="47.2950440" lon="2.9250580">
        <ele>157.2</ele>
        <time>2020-07-03T13:36:37Z</time>
      </trkpt>
      <trkpt lat="47.2947680" lon="2.9253180">
        <ele>157.0</ele>
        <time>2020-07-03T13:36:43Z</time>
      </trkpt>
      <trkpt lat="47.2946700" lon="2.9254000">
        <ele>157.0</ele>
        <time>2020-07-03T13:36:45Z</time>
      </trkpt>
      <trkpt lat="47.2943400" lon="2.9257170">
        <ele>157.4</ele>
        <time>2020-07-03T13:36:52Z</time>
      </trkpt>
      <trkpt lat="47.2939170" lon="2.9262210">
        <ele>157.4</ele>
        <time>2020-07-03T13:37:02Z</time>
      </trkpt>
      <trkpt lat="47.2934800" lon="2.9267410">
        <ele>157.0</ele>
        <time>2020-07-03T13:37:13Z</time>
      </trkpt>
      <trkpt lat="47.2934390" lon="2.9267910">
        <ele>156.8</ele>
        <time>2020-07-03T13:37:14Z</time>
      </trkpt>
      <trkpt lat="47.2931050" lon="2.9272050">
        <ele>157.0</ele>
        <time>2020-07-03T13:37:22Z</time>
      </trkpt>
      <trkpt lat="47.2927630" lon="2.9276200">
        <ele>157.0</ele>
        <time>2020-07-03T13:37:30Z</time>
      </trkpt>
      <trkpt lat="47.2923700" lon="2.9281160">
        <ele>157.0</ele>
        <time>2020-07-03T13:37:40Z</time>
      </trkpt>
      <trkpt lat="47.2921060" lon="2.9284560">
        <ele>157.2</ele>
        <time>2020-07-03T13:37:47Z</time>
      </trkpt>
      <trkpt lat="47.2920280" lon="2.9285540">
        <ele>157.4</ele>
        <time>2020-07-03T13:37:49Z</time>
      </trkpt>
      <trkpt lat="47.2918270" lon="2.9287590">
        <ele>157.6</ele>
        <time>2020-07-03T13:37:54Z</time>
      </trkpt>
      <trkpt lat="47.2914550" lon="2.9290770">
        <ele>157.8</ele>
        <time>2020-07-03T13:38:02Z</time>
      </trkpt>
      <trkpt lat="47.2911630" lon="2.9293440">
        <ele>158.2</ele>
        <time>2020-07-03T13:38:10Z</time>
      </trkpt>
      <trkpt lat="47.2909780" lon="2.9294910">
        <ele>158.6</ele>
        <time>2020-07-03T13:38:16Z</time>
      </trkpt>
      <trkpt lat="47.2909130" lon="2.9295460">
        <ele>158.8</ele>
        <time>2020-07-03T13:38:18Z</time>
      </trkpt>
      <trkpt lat="47.2906130" lon="2.9298170">
        <ele>158.8</ele>
        <time>2020-07-03T13:38:25Z</time>
      </trkpt>
      <trkpt lat="47.2901580" lon="2.9302150">
        <ele>158.2</ele>
        <time>2020-07-03T13:38:35Z</time>
      </trkpt>
      <trkpt lat="47.2901210" lon="2.9302580">
        <ele>158.4</ele>
        <time>2020-07-03T13:38:36Z</time>
      </trkpt>
      <trkpt lat="47.2899570" lon="2.9305100">
        <ele>158.2</ele>
        <time>2020-07-03T13:38:41Z</time>
      </trkpt>
      <trkpt lat="47.2896660" lon="2.9309130">
        <ele>158.2</ele>
        <time>2020-07-03T13:38:49Z</time>
      </trkpt>
      <trkpt lat="47.2893520" lon="2.9313490">
        <ele>158.0</ele>
        <time>2020-07-03T13:38:57Z</time>
      </trkpt>
      <trkpt lat="47.2891670" lon="2.9316510">
        <ele>158.0</ele>
        <time>2020-07-03T13:39:02Z</time>
      </trkpt>
      <trkpt lat="47.2890670" lon="2.9318360">
        <ele>158.0</ele>
        <time>2020-07-03T13:39:05Z</time>
      </trkpt>
      <trkpt lat="47.2890340" lon="2.9319000">
        <ele>157.8</ele>
        <time>2020-07-03T13:39:06Z</time>
      </trkpt>
      <trkpt lat="47.2888220" lon="2.9323150">
        <ele>157.8</ele>
        <time>2020-07-03T13:39:12Z</time>
      </trkpt>
      <trkpt lat="47.2887900" lon="2.9323840">
        <ele>157.8</ele>
        <time>2020-07-03T13:39:13Z</time>
      </trkpt>
      <trkpt lat="47.2887620" lon="2.9324520">
        <ele>157.8</ele>
        <time>2020-07-03T13:39:14Z</time>
      </trkpt>
      <trkpt lat="47.2885520" lon="2.9328550">
        <ele>158.0</ele>
        <time>2020-07-03T13:39:20Z</time>
      </trkpt>
      <trkpt lat="47.2885150" lon="2.9329160">
        <ele>157.8</ele>
        <time>2020-07-03T13:39:21Z</time>
      </trkpt>
      <trkpt lat="47.2881330" lon="2.9335010">
        <ele>157.6</ele>
        <time>2020-07-03T13:39:31Z</time>
      </trkpt>
      <trkpt lat="47.2880920" lon="2.9335610">
        <ele>157.6</ele>
        <time>2020-07-03T13:39:32Z</time>
      </trkpt>
      <trkpt lat="47.2877190" lon="2.9340620">
        <ele>157.6</ele>
        <time>2020-07-03T13:39:41Z</time>
      </trkpt>
      <trkpt lat="47.2876800" lon="2.9341130">
        <ele>157.6</ele>
        <time>2020-07-03T13:39:42Z</time>
      </trkpt>
      <trkpt lat="47.2874170" lon="2.9344720">
        <ele>158.0</ele>
        <time>2020-07-03T13:39:49Z</time>
      </trkpt>
      <trkpt lat="47.2870870" lon="2.9348090">
        <ele>158.4</ele>
        <time>2020-07-03T13:39:57Z</time>
      </trkpt>
      <trkpt lat="47.2868220" lon="2.9350350">
        <ele>158.4</ele>
        <time>2020-07-03T13:40:03Z</time>
      </trkpt>
      <trkpt lat="47.2866940" lon="2.9351630">
        <ele>158.8</ele>
        <time>2020-07-03T13:40:06Z</time>
      </trkpt>
      <trkpt lat="47.2862140" lon="2.9356320">
        <ele>158.2</ele>
        <time>2020-07-03T13:40:17Z</time>
      </trkpt>
      <trkpt lat="47.2861600" lon="2.9356690">
        <ele>158.0</ele>
        <time>2020-07-03T13:40:18Z</time>
      </trkpt>
      <trkpt lat="47.2859290" lon="2.9358810">
        <ele>158.0</ele>
        <time>2020-07-03T13:40:23Z</time>
      </trkpt>
      <trkpt lat="47.2858420" lon="2.9359820">
        <ele>157.8</ele>
        <time>2020-07-03T13:40:25Z</time>
      </trkpt>
      <trkpt lat="47.2854860" lon="2.9364440">
        <ele>157.8</ele>
        <time>2020-07-03T13:40:34Z</time>
      </trkpt>
      <trkpt lat="47.2852000" lon="2.9368770">
        <ele>157.8</ele>
        <time>2020-07-03T13:40:41Z</time>
      </trkpt>
      <trkpt lat="47.2849180" lon="2.9373790">
        <ele>158.0</ele>
        <time>2020-07-03T13:40:49Z</time>
      </trkpt>
      <trkpt lat="47.2848550" lon="2.9374930">
        <ele>158.0</ele>
        <time>2020-07-03T13:40:51Z</time>
      </trkpt>
      <trkpt lat="47.2847860" lon="2.9376100">
        <ele>158.0</ele>
        <time>2020-07-03T13:40:53Z</time>
      </trkpt>
      <trkpt lat="47.2845370" lon="2.9380250">
        <ele>158.0</ele>
        <time>2020-07-03T13:41:00Z</time>
      </trkpt>
      <trkpt lat="47.2842940" lon="2.9382950">
        <ele>158.2</ele>
        <time>2020-07-03T13:41:06Z</time>
      </trkpt>
      <trkpt lat="47.2840070" lon="2.9384590">
        <ele>158.4</ele>
        <time>2020-07-03T13:41:12Z</time>
      </trkpt>
      <trkpt lat="47.2835280" lon="2.9387050">
        <ele>158.4</ele>
        <time>2020-07-03T13:41:21Z</time>
      </trkpt>
      <trkpt lat="47.2832500" lon="2.9388970">
        <ele>158.6</ele>
        <time>2020-07-03T13:41:27Z</time>
      </trkpt>
      <trkpt lat="47.2829000" lon="2.9391700">
        <ele>158.4</ele>
        <time>2020-07-03T13:41:34Z</time>
      </trkpt>
      <trkpt lat="47.2828470" lon="2.9392110">
        <ele>158.4</ele>
        <time>2020-07-03T13:41:35Z</time>
      </trkpt>
      <trkpt lat="47.2826870" lon="2.9393150">
        <ele>158.4</ele>
        <time>2020-07-03T13:41:38Z</time>
      </trkpt>
      <trkpt lat="47.2823170" lon="2.9395290">
        <ele>158.2</ele>
        <time>2020-07-03T13:41:45Z</time>
      </trkpt>
      <trkpt lat="47.2818910" lon="2.9397600">
        <ele>158.2</ele>
        <time>2020-07-03T13:41:53Z</time>
      </trkpt>
      <trkpt lat="47.2813870" lon="2.9400570">
        <ele>158.4</ele>
        <time>2020-07-03T13:42:02Z</time>
      </trkpt>
      <trkpt lat="47.2812830" lon="2.9401240">
        <ele>158.4</ele>
        <time>2020-07-03T13:42:04Z</time>
      </trkpt>
      <trkpt lat="47.2808390" lon="2.9405020">
        <ele>158.2</ele>
        <time>2020-07-03T13:42:13Z</time>
      </trkpt>
      <trkpt lat="47.2804940" lon="2.9407780">
        <ele>158.2</ele>
        <time>2020-07-03T13:42:20Z</time>
      </trkpt>
      <trkpt lat="47.2801570" lon="2.9409010">
        <ele>158.2</ele>
        <time>2020-07-03T13:42:26Z</time>
      </trkpt>
      <trkpt lat="47.2801010" lon="2.9409310">
        <ele>158.2</ele>
        <time>2020-07-03T13:42:27Z</time>
      </trkpt>
      <trkpt lat="47.2800470" lon="2.9409640">
        <ele>158.2</ele>
        <time>2020-07-03T13:42:28Z</time>
      </trkpt>
      <trkpt lat="47.2796230" lon="2.9412640">
        <ele>158.4</ele>
        <time>2020-07-03T13:42:37Z</time>
      </trkpt>
      <trkpt lat="47.2793930" lon="2.9414410">
        <ele>158.4</ele>
        <time>2020-07-03T13:42:42Z</time>
      </trkpt>
      <trkpt lat="47.2792460" lon="2.9415560">
        <ele>158.6</ele>
        <time>2020-07-03T13:42:45Z</time>
      </trkpt>
      <trkpt lat="47.2787980" lon="2.9419520">
        <ele>159.2</ele>
        <time>2020-07-03T13:42:54Z</time>
      </trkpt>
      <trkpt lat="47.2786490" lon="2.9420810">
        <ele>159.2</ele>
        <time>2020-07-03T13:42:57Z</time>
      </trkpt>
      <trkpt lat="47.2784690" lon="2.9422460">
        <ele>159.4</ele>
        <time>2020-07-03T13:43:01Z</time>
      </trkpt>
      <trkpt lat="47.2780290" lon="2.9425720">
        <ele>158.8</ele>
        <time>2020-07-03T13:43:10Z</time>
      </trkpt>
      <trkpt lat="47.2776930" lon="2.9428080">
        <ele>158.8</ele>
        <time>2020-07-03T13:43:17Z</time>
      </trkpt>
      <trkpt lat="47.2776120" lon="2.9428950">
        <ele>158.8</ele>
        <time>2020-07-03T13:43:19Z</time>
      </trkpt>
      <trkpt lat="47.2774120" lon="2.9430960">
        <ele>158.8</ele>
        <time>2020-07-03T13:43:24Z</time>
      </trkpt>
      <trkpt lat="47.2770720" lon="2.9433610">
        <ele>159.0</ele>
        <time>2020-07-03T13:43:31Z</time>
      </trkpt>
      <trkpt lat="47.2767730" lon="2.9435430">
        <ele>158.8</ele>
        <time>2020-07-03T13:43:37Z</time>
      </trkpt>
      <trkpt lat="47.2766330" lon="2.9436510">
        <ele>159.4</ele>
        <time>2020-07-03T13:43:40Z</time>
      </trkpt>
      <trkpt lat="47.2764210" lon="2.9438750">
        <ele>159.2</ele>
        <time>2020-07-03T13:43:45Z</time>
      </trkpt>
      <trkpt lat="47.2763370" lon="2.9439790">
        <ele>159.4</ele>
        <time>2020-07-03T13:43:47Z</time>
      </trkpt>
      <trkpt lat="47.2762170" lon="2.9441540">
        <ele>159.4</ele>
        <time>2020-07-03T13:43:50Z</time>
      </trkpt>
      <trkpt lat="47.2759580" lon="2.9444970">
        <ele>159.8</ele>
        <time>2020-07-03T13:43:56Z</time>
      </trkpt>
      <trkpt lat="47.2756530" lon="2.9449670">
        <ele>160.0</ele>
        <time>2020-07-03T13:44:04Z</time>
      </trkpt>
      <trkpt lat="47.2755050" lon="2.9451720">
        <ele>160.0</ele>
        <time>2020-07-03T13:44:08Z</time>
      </trkpt>
      <trkpt lat="47.2753360" lon="2.9454070">
        <ele>160.0</ele>
        <time>2020-07-03T13:44:12Z</time>
      </trkpt>
      <trkpt lat="47.2749870" lon="2.9459800">
        <ele>160.8</ele>
        <time>2020-07-03T13:44:21Z</time>
      </trkpt>
      <trkpt lat="47.2747150" lon="2.9464290">
        <ele>161.0</ele>
        <time>2020-07-03T13:44:28Z</time>
      </trkpt>
      <trkpt lat="47.2745120" lon="2.9467400">
        <ele>160.6</ele>
        <time>2020-07-03T13:44:33Z</time>
      </trkpt>
      <trkpt lat="47.2744720" lon="2.9468040">
        <ele>160.6</ele>
        <time>2020-07-03T13:44:34Z</time>
      </trkpt>
      <trkpt lat="47.2743970" lon="2.9469360">
        <ele>160.4</ele>
        <time>2020-07-03T13:44:36Z</time>
      </trkpt>
      <trkpt lat="47.2741910" lon="2.9473240">
        <ele>160.2</ele>
        <time>2020-07-03T13:44:42Z</time>
      </trkpt>
      <trkpt lat="47.2738850" lon="2.9478520">
        <ele>160.2</ele>
        <time>2020-07-03T13:44:51Z</time>
      </trkpt>
      <trkpt lat="47.2737670" lon="2.9480490">
        <ele>160.4</ele>
        <time>2020-07-03T13:44:55Z</time>
      </trkpt>
      <trkpt lat="47.2737220" lon="2.9481650">
        <ele>160.4</ele>
        <time>2020-07-03T13:44:57Z</time>
      </trkpt>
      <trkpt lat="47.2735580" lon="2.9486060">
        <ele>160.2</ele>
        <time>2020-07-03T13:45:04Z</time>
      </trkpt>
      <trkpt lat="47.2734370" lon="2.9488360">
        <ele>160.4</ele>
        <time>2020-07-03T13:45:08Z</time>
      </trkpt>
      <trkpt lat="47.2734070" lon="2.9488890">
        <ele>160.2</ele>
        <time>2020-07-03T13:45:09Z</time>
      </trkpt>
      <trkpt lat="47.2733460" lon="2.9489950">
        <ele>160.2</ele>
        <time>2020-07-03T13:45:11Z</time>
      </trkpt>
      <trkpt lat="47.2730110" lon="2.9494530">
        <ele>160.2</ele>
        <time>2020-07-03T13:45:20Z</time>
      </trkpt>
      <trkpt lat="47.2726780" lon="2.9497740">
        <ele>160.2</ele>
        <time>2020-07-03T13:45:28Z</time>
      </trkpt>
      <trkpt lat="47.2724010" lon="2.9500150">
        <ele>160.2</ele>
        <time>2020-07-03T13:45:35Z</time>
      </trkpt>
      <trkpt lat="47.2721510" lon="2.9501920">
        <ele>160.0</ele>
        <time>2020-07-03T13:45:41Z</time>
      </trkpt>
      <trkpt lat="47.2719080" lon="2.9503500">
        <ele>160.4</ele>
        <time>2020-07-03T13:45:48Z</time>
      </trkpt>
      <trkpt lat="47.2717580" lon="2.9504480">
        <ele>160.4</ele>
        <time>2020-07-03T13:45:52Z</time>
      </trkpt>
      <trkpt lat="47.2716780" lon="2.9505040">
        <ele>160.4</ele>
        <time>2020-07-03T13:45:54Z</time>
      </trkpt>
      <trkpt lat="47.2715980" lon="2.9505630">
        <ele>160.6</ele>
        <time>2020-07-03T13:45:56Z</time>
      </trkpt>
      <trkpt lat="47.2713480" lon="2.9507720">
        <ele>160.6</ele>
        <time>2020-07-03T13:46:02Z</time>
      </trkpt>
      <trkpt lat="47.2710460" lon="2.9510830">
        <ele>160.4</ele>
        <time>2020-07-03T13:46:09Z</time>
      </trkpt>
      <trkpt lat="47.2706580" lon="2.9514680">
        <ele>160.4</ele>
        <time>2020-07-03T13:46:17Z</time>
      </trkpt>
      <trkpt lat="47.2701560" lon="2.9518130">
        <ele>159.4</ele>
        <time>2020-07-03T13:46:26Z</time>
      </trkpt>
      <trkpt lat="47.2698720" lon="2.9519800">
        <ele>159.0</ele>
        <time>2020-07-03T13:46:32Z</time>
      </trkpt>
      <trkpt lat="47.2698250" lon="2.9519910">
        <ele>159.0</ele>
        <time>2020-07-03T13:46:33Z</time>
      </trkpt>
      <trkpt lat="47.2693660" lon="2.9520390">
        <ele>159.0</ele>
        <time>2020-07-03T13:46:42Z</time>
      </trkpt>
      <trkpt lat="47.2692040" lon="2.9520680">
        <ele>159.2</ele>
        <time>2020-07-03T13:46:45Z</time>
      </trkpt>
      <trkpt lat="47.2691520" lon="2.9520710">
        <ele>159.2</ele>
        <time>2020-07-03T13:46:46Z</time>
      </trkpt>
      <trkpt lat="47.2691010" lon="2.9520850">
        <ele>159.2</ele>
        <time>2020-07-03T13:46:47Z</time>
      </trkpt>
      <trkpt lat="47.2690010" lon="2.9521290">
        <ele>159.2</ele>
        <time>2020-07-03T13:46:49Z</time>
      </trkpt>
      <trkpt lat="47.2688210" lon="2.9522580">
        <ele>159.2</ele>
        <time>2020-07-03T13:46:53Z</time>
      </trkpt>
      <trkpt lat="47.2687370" lon="2.9523560">
        <ele>159.4</ele>
        <time>2020-07-03T13:46:55Z</time>
      </trkpt>
      <trkpt lat="47.2686080" lon="2.9525320">
        <ele>159.2</ele>
        <time>2020-07-03T13:46:58Z</time>
      </trkpt>
      <trkpt lat="47.2684310" lon="2.9528030">
        <ele>159.0</ele>
        <time>2020-07-03T13:47:02Z</time>
      </trkpt>
      <trkpt lat="47.2681120" lon="2.9532970">
        <ele>158.2</ele>
        <time>2020-07-03T13:47:10Z</time>
      </trkpt>
      <trkpt lat="47.2678300" lon="2.9538210">
        <ele>158.0</ele>
        <time>2020-07-03T13:47:18Z</time>
      </trkpt>
      <trkpt lat="47.2674670" lon="2.9544630">
        <ele>158.2</ele>
        <time>2020-07-03T13:47:28Z</time>
      </trkpt>
      <trkpt lat="47.2673900" lon="2.9545950">
        <ele>158.4</ele>
        <time>2020-07-03T13:47:30Z</time>
      </trkpt>
      <trkpt lat="47.2670390" lon="2.9552540">
        <ele>158.8</ele>
        <time>2020-07-03T13:47:40Z</time>
      </trkpt>
      <trkpt lat="47.2670030" lon="2.9553140">
        <ele>159.0</ele>
        <time>2020-07-03T13:47:41Z</time>
      </trkpt>
      <trkpt lat="47.2666690" lon="2.9558390">
        <ele>159.2</ele>
        <time>2020-07-03T13:47:50Z</time>
      </trkpt>
      <trkpt lat="47.2662760" lon="2.9564270">
        <ele>159.2</ele>
        <time>2020-07-03T13:48:00Z</time>
      </trkpt>
      <trkpt lat="47.2662300" lon="2.9564760">
        <ele>159.4</ele>
        <time>2020-07-03T13:48:01Z</time>
      </trkpt>
      <trkpt lat="47.2660920" lon="2.9566210">
        <ele>159.6</ele>
        <time>2020-07-03T13:48:04Z</time>
      </trkpt>
      <trkpt lat="47.2657080" lon="2.9569720">
        <ele>159.8</ele>
        <time>2020-07-03T13:48:12Z</time>
      </trkpt>
      <trkpt lat="47.2653190" lon="2.9573200">
        <ele>159.6</ele>
        <time>2020-07-03T13:48:20Z</time>
      </trkpt>
      <trkpt lat="47.2650750" lon="2.9575430">
        <ele>159.4</ele>
        <time>2020-07-03T13:48:25Z</time>
      </trkpt>
      <trkpt lat="47.2650260" lon="2.9575870">
        <ele>159.6</ele>
        <time>2020-07-03T13:48:26Z</time>
      </trkpt>
      <trkpt lat="47.2647880" lon="2.9578320">
        <ele>159.4</ele>
        <time>2020-07-03T13:48:31Z</time>
      </trkpt>
      <trkpt lat="47.2646080" lon="2.9580620">
        <ele>159.2</ele>
        <time>2020-07-03T13:48:35Z</time>
      </trkpt>
      <trkpt lat="47.2643560" lon="2.9585080">
        <ele>158.8</ele>
        <time>2020-07-03T13:48:42Z</time>
      </trkpt>
      <trkpt lat="47.2641310" lon="2.9589740">
        <ele>158.8</ele>
        <time>2020-07-03T13:48:49Z</time>
      </trkpt>
      <trkpt lat="47.2640640" lon="2.9591040">
        <ele>158.6</ele>
        <time>2020-07-03T13:48:51Z</time>
      </trkpt>
      <trkpt lat="47.2637350" lon="2.9597540">
        <ele>159.4</ele>
        <time>2020-07-03T13:49:01Z</time>
      </trkpt>
      <trkpt lat="47.2636690" lon="2.9598850">
        <ele>159.4</ele>
        <time>2020-07-03T13:49:03Z</time>
      </trkpt>
      <trkpt lat="47.2636350" lon="2.9599500">
        <ele>159.4</ele>
        <time>2020-07-03T13:49:04Z</time>
      </trkpt>
      <trkpt lat="47.2633040" lon="2.9606210">
        <ele>159.4</ele>
        <time>2020-07-03T13:49:14Z</time>
      </trkpt>
      <trkpt lat="47.2632320" lon="2.9607550">
        <ele>159.4</ele>
        <time>2020-07-03T13:49:16Z</time>
      </trkpt>
      <trkpt lat="47.2628880" lon="2.9614140">
        <ele>159.4</ele>
        <time>2020-07-03T13:49:26Z</time>
      </trkpt>
      <trkpt lat="47.2628200" lon="2.9615420">
        <ele>159.4</ele>
        <time>2020-07-03T13:49:28Z</time>
      </trkpt>
      <trkpt lat="47.2624640" lon="2.9622130">
        <ele>159.0</ele>
        <time>2020-07-03T13:49:38Z</time>
      </trkpt>
      <trkpt lat="47.2624310" lon="2.9622760">
        <ele>159.2</ele>
        <time>2020-07-03T13:49:39Z</time>
      </trkpt>
      <trkpt lat="47.2623090" lon="2.9625060">
        <ele>158.8</ele>
        <time>2020-07-03T13:49:43Z</time>
      </trkpt>
      <trkpt lat="47.2621620" lon="2.9627390">
        <ele>158.6</ele>
        <time>2020-07-03T13:49:47Z</time>
      </trkpt>
      <trkpt lat="47.2618710" lon="2.9630550">
        <ele>158.6</ele>
        <time>2020-07-03T13:49:53Z</time>
      </trkpt>
      <trkpt lat="47.2615610" lon="2.9632630">
        <ele>158.6</ele>
        <time>2020-07-03T13:49:59Z</time>
      </trkpt>
      <trkpt lat="47.2615080" lon="2.9632950">
        <ele>158.6</ele>
        <time>2020-07-03T13:50:00Z</time>
      </trkpt>
      <trkpt lat="47.2609850" lon="2.9635980">
        <ele>159.2</ele>
        <time>2020-07-03T13:50:10Z</time>
      </trkpt>
      <trkpt lat="47.2609310" lon="2.9636290">
        <ele>159.4</ele>
        <time>2020-07-03T13:50:11Z</time>
      </trkpt>
      <trkpt lat="47.2608270" lon="2.9636930">
        <ele>159.4</ele>
        <time>2020-07-03T13:50:13Z</time>
      </trkpt>
      <trkpt lat="47.2607250" lon="2.9637500">
        <ele>159.4</ele>
        <time>2020-07-03T13:50:15Z</time>
      </trkpt>
      <trkpt lat="47.2603680" lon="2.9639740">
        <ele>159.6</ele>
        <time>2020-07-03T13:50:22Z</time>
      </trkpt>
      <trkpt lat="47.2598540" lon="2.9642770">
        <ele>160.0</ele>
        <time>2020-07-03T13:50:32Z</time>
      </trkpt>
      <trkpt lat="47.2596460" lon="2.9644050">
        <ele>160.2</ele>
        <time>2020-07-03T13:50:36Z</time>
      </trkpt>
      <trkpt lat="47.2591690" lon="2.9647060">
        <ele>160.0</ele>
        <time>2020-07-03T13:50:45Z</time>
      </trkpt>
      <trkpt lat="47.2589580" lon="2.9648370">
        <ele>159.8</ele>
        <time>2020-07-03T13:50:49Z</time>
      </trkpt>
      <trkpt lat="47.2584330" lon="2.9651650">
        <ele>159.4</ele>
        <time>2020-07-03T13:50:59Z</time>
      </trkpt>
      <trkpt lat="47.2579230" lon="2.9654900">
        <ele>159.2</ele>
        <time>2020-07-03T13:51:09Z</time>
      </trkpt>
      <trkpt lat="47.2578250" lon="2.9655480">
        <ele>159.2</ele>
        <time>2020-07-03T13:51:11Z</time>
      </trkpt>
      <trkpt lat="47.2575710" lon="2.9656870">
        <ele>159.4</ele>
        <time>2020-07-03T13:51:16Z</time>
      </trkpt>
      <trkpt lat="47.2574120" lon="2.9657860">
        <ele>159.4</ele>
        <time>2020-07-03T13:51:19Z</time>
      </trkpt>
      <trkpt lat="47.2569730" lon="2.9659900">
        <ele>159.6</ele>
        <time>2020-07-03T13:51:27Z</time>
      </trkpt>
      <trkpt lat="47.2568650" lon="2.9660070">
        <ele>159.8</ele>
        <time>2020-07-03T13:51:29Z</time>
      </trkpt>
      <trkpt lat="47.2567560" lon="2.9660100">
        <ele>159.6</ele>
        <time>2020-07-03T13:51:31Z</time>
      </trkpt>
      <trkpt lat="47.2565980" lon="2.9659890">
        <ele>159.8</ele>
        <time>2020-07-03T13:51:34Z</time>
      </trkpt>
      <trkpt lat="47.2564910" lon="2.9659690">
        <ele>159.8</ele>
        <time>2020-07-03T13:51:36Z</time>
      </trkpt>
      <trkpt lat="47.2559230" lon="2.9658570">
        <ele>160.4</ele>
        <time>2020-07-03T13:51:46Z</time>
      </trkpt>
      <trkpt lat="47.2558090" lon="2.9658360">
        <ele>160.6</ele>
        <time>2020-07-03T13:51:48Z</time>
      </trkpt>
      <trkpt lat="47.2552410" lon="2.9657110">
        <ele>160.8</ele>
        <time>2020-07-03T13:51:58Z</time>
      </trkpt>
      <trkpt lat="47.2550090" lon="2.9656580">
        <ele>160.6</ele>
        <time>2020-07-03T13:52:02Z</time>
      </trkpt>
      <trkpt lat="47.2544240" lon="2.9655600">
        <ele>160.8</ele>
        <time>2020-07-03T13:52:12Z</time>
      </trkpt>
      <trkpt lat="47.2543080" lon="2.9655390">
        <ele>160.6</ele>
        <time>2020-07-03T13:52:14Z</time>
      </trkpt>
      <trkpt lat="47.2537300" lon="2.9654270">
        <ele>160.6</ele>
        <time>2020-07-03T13:52:24Z</time>
      </trkpt>
      <trkpt lat="47.2535010" lon="2.9653750">
        <ele>160.6</ele>
        <time>2020-07-03T13:52:28Z</time>
      </trkpt>
      <trkpt lat="47.2529650" lon="2.9652770">
        <ele>160.4</ele>
        <time>2020-07-03T13:52:37Z</time>
      </trkpt>
      <trkpt lat="47.2527880" lon="2.9652430">
        <ele>160.4</ele>
        <time>2020-07-03T13:52:40Z</time>
      </trkpt>
      <trkpt lat="47.2526080" lon="2.9652210">
        <ele>160.2</ele>
        <time>2020-07-03T13:52:43Z</time>
      </trkpt>
      <trkpt lat="47.2521470" lon="2.9651390">
        <ele>160.0</ele>
        <time>2020-07-03T13:52:51Z</time>
      </trkpt>
      <trkpt lat="47.2515690" lon="2.9650320">
        <ele>160.0</ele>
        <time>2020-07-03T13:53:01Z</time>
      </trkpt>
      <trkpt lat="47.2515100" lon="2.9650190">
        <ele>160.0</ele>
        <time>2020-07-03T13:53:02Z</time>
      </trkpt>
      <trkpt lat="47.2509500" lon="2.9649060">
        <ele>160.2</ele>
        <time>2020-07-03T13:53:12Z</time>
      </trkpt>
      <trkpt lat="47.2508880" lon="2.9648960">
        <ele>160.2</ele>
        <time>2020-07-03T13:53:13Z</time>
      </trkpt>
      <trkpt lat="47.2503060" lon="2.9648210">
        <ele>159.8</ele>
        <time>2020-07-03T13:53:23Z</time>
      </trkpt>
      <trkpt lat="47.2498890" lon="2.9647200">
        <ele>159.8</ele>
        <time>2020-07-03T13:53:31Z</time>
      </trkpt>
      <trkpt lat="47.2493800" lon="2.9646340">
        <ele>160.0</ele>
        <time>2020-07-03T13:53:40Z</time>
      </trkpt>
      <trkpt lat="47.2488250" lon="2.9645420">
        <ele>160.0</ele>
        <time>2020-07-03T13:53:50Z</time>
      </trkpt>
      <trkpt lat="47.2482450" lon="2.9644390">
        <ele>159.8</ele>
        <time>2020-07-03T13:54:00Z</time>
      </trkpt>
      <trkpt lat="47.2481260" lon="2.9644210">
        <ele>160.0</ele>
        <time>2020-07-03T13:54:02Z</time>
      </trkpt>
      <trkpt lat="47.2475680" lon="2.9643270">
        <ele>159.6</ele>
        <time>2020-07-03T13:54:11Z</time>
      </trkpt>
      <trkpt lat="47.2473850" lon="2.9642830">
        <ele>159.6</ele>
        <time>2020-07-03T13:54:14Z</time>
      </trkpt>
      <trkpt lat="47.2468400" lon="2.9641780">
        <ele>159.4</ele>
        <time>2020-07-03T13:54:23Z</time>
      </trkpt>
      <trkpt lat="47.2465270" lon="2.9641220">
        <ele>159.4</ele>
        <time>2020-07-03T13:54:28Z</time>
      </trkpt>
      <trkpt lat="47.2459580" lon="2.9640050">
        <ele>160.0</ele>
        <time>2020-07-03T13:54:37Z</time>
      </trkpt>
      <trkpt lat="47.2455650" lon="2.9639430">
        <ele>159.8</ele>
        <time>2020-07-03T13:54:43Z</time>
      </trkpt>
      <trkpt lat="47.2450240" lon="2.9638590">
        <ele>159.6</ele>
        <time>2020-07-03T13:54:51Z</time>
      </trkpt>
      <trkpt lat="47.2446140" lon="2.9637950">
        <ele>159.6</ele>
        <time>2020-07-03T13:54:57Z</time>
      </trkpt>
      <trkpt lat="47.2440680" lon="2.9637030">
        <ele>159.4</ele>
        <time>2020-07-03T13:55:05Z</time>
      </trkpt>
      <trkpt lat="47.2435950" lon="2.9636170">
        <ele>159.2</ele>
        <time>2020-07-03T13:55:12Z</time>
      </trkpt>
      <trkpt lat="47.2429990" lon="2.9634870">
        <ele>159.6</ele>
        <time>2020-07-03T13:55:21Z</time>
      </trkpt>
      <trkpt lat="47.2429340" lon="2.9634760">
        <ele>159.4</ele>
        <time>2020-07-03T13:55:22Z</time>
      </trkpt>
      <trkpt lat="47.2423480" lon="2.9633880">
        <ele>159.6</ele>
        <time>2020-07-03T13:55:31Z</time>
      </trkpt>
      <trkpt lat="47.2421500" lon="2.9633560">
        <ele>159.6</ele>
        <time>2020-07-03T13:55:34Z</time>
      </trkpt>
      <trkpt lat="47.2416040" lon="2.9632480">
        <ele>160.2</ele>
        <time>2020-07-03T13:55:43Z</time>
      </trkpt>
      <trkpt lat="47.2411650" lon="2.9631690">
        <ele>160.0</ele>
        <time>2020-07-03T13:55:50Z</time>
      </trkpt>
      <trkpt lat="47.2406040" lon="2.9630980">
        <ele>160.0</ele>
        <time>2020-07-03T13:55:58Z</time>
      </trkpt>
      <trkpt lat="47.2404700" lon="2.9630880">
        <ele>159.8</ele>
        <time>2020-07-03T13:56:00Z</time>
      </trkpt>
      <trkpt lat="47.2400200" lon="2.9630280">
        <ele>159.8</ele>
        <time>2020-07-03T13:56:07Z</time>
      </trkpt>
      <trkpt lat="47.2399690" lon="2.9629940">
        <ele>159.6</ele>
        <time>2020-07-03T13:56:08Z</time>
      </trkpt>
      <trkpt lat="47.2399270" lon="2.9629480">
        <ele>159.8</ele>
        <time>2020-07-03T13:56:09Z</time>
      </trkpt>
      <trkpt lat="47.2398620" lon="2.9628280">
        <ele>159.8</ele>
        <time>2020-07-03T13:56:11Z</time>
      </trkpt>
      <trkpt lat="47.2396960" lon="2.9623830">
        <ele>159.8</ele>
        <time>2020-07-03T13:56:17Z</time>
      </trkpt>
      <trkpt lat="47.2396520" lon="2.9623140">
        <ele>159.8</ele>
        <time>2020-07-03T13:56:18Z</time>
      </trkpt>
      <trkpt lat="47.2395600" lon="2.9622180">
        <ele>160.0</ele>
        <time>2020-07-03T13:56:20Z</time>
      </trkpt>
      <trkpt lat="47.2395040" lon="2.9621730">
        <ele>160.0</ele>
        <time>2020-07-03T13:56:21Z</time>
      </trkpt>
      <trkpt lat="47.2391450" lon="2.9619800">
        <ele>160.4</ele>
        <time>2020-07-03T13:56:27Z</time>
      </trkpt>
      <trkpt lat="47.2387650" lon="2.9618690">
        <ele>160.8</ele>
        <time>2020-07-03T13:56:33Z</time>
      </trkpt>
      <trkpt lat="47.2384190" lon="2.9617490">
        <ele>160.6</ele>
        <time>2020-07-03T13:56:39Z</time>
      </trkpt>
      <trkpt lat="47.2379500" lon="2.9616340">
        <ele>160.4</ele>
        <time>2020-07-03T13:56:47Z</time>
      </trkpt>
      <trkpt lat="47.2375360" lon="2.9616490">
        <ele>160.4</ele>
        <time>2020-07-03T13:56:54Z</time>
      </trkpt>
      <trkpt lat="47.2370600" lon="2.9617090">
        <ele>160.4</ele>
        <time>2020-07-03T13:57:02Z</time>
      </trkpt>
      <trkpt lat="47.2368840" lon="2.9617460">
        <ele>160.8</ele>
        <time>2020-07-03T13:57:05Z</time>
      </trkpt>
      <trkpt lat="47.2363260" lon="2.9618990">
        <ele>161.0</ele>
        <time>2020-07-03T13:57:14Z</time>
      </trkpt>
      <trkpt lat="47.2362680" lon="2.9619140">
        <ele>161.2</ele>
        <time>2020-07-03T13:57:15Z</time>
      </trkpt>
      <trkpt lat="47.2357490" lon="2.9620700">
        <ele>161.4</ele>
        <time>2020-07-03T13:57:24Z</time>
      </trkpt>
      <trkpt lat="47.2352510" lon="2.9623610">
        <ele>161.2</ele>
        <time>2020-07-03T13:57:33Z</time>
      </trkpt>
      <trkpt lat="47.2347150" lon="2.9627470">
        <ele>161.0</ele>
        <time>2020-07-03T13:57:43Z</time>
      </trkpt>
      <trkpt lat="47.2342130" lon="2.9631560">
        <ele>161.0</ele>
        <time>2020-07-03T13:57:53Z</time>
      </trkpt>
      <trkpt lat="47.2337430" lon="2.9636320">
        <ele>160.8</ele>
        <time>2020-07-03T13:58:02Z</time>
      </trkpt>
      <trkpt lat="47.2336330" lon="2.9637460">
        <ele>160.8</ele>
        <time>2020-07-03T13:58:04Z</time>
      </trkpt>
      <trkpt lat="47.2335790" lon="2.9638000">
        <ele>160.6</ele>
        <time>2020-07-03T13:58:05Z</time>
      </trkpt>
      <trkpt lat="47.2331400" lon="2.9641570">
        <ele>160.2</ele>
        <time>2020-07-03T13:58:13Z</time>
      </trkpt>
      <trkpt lat="47.2329740" lon="2.9642270">
        <ele>160.0</ele>
        <time>2020-07-03T13:58:16Z</time>
      </trkpt>
      <trkpt lat="47.2328050" lon="2.9642420">
        <ele>160.0</ele>
        <time>2020-07-03T13:58:19Z</time>
      </trkpt>
      <trkpt lat="47.2322200" lon="2.9642100">
        <ele>161.2</ele>
        <time>2020-07-03T13:58:29Z</time>
      </trkpt>
      <trkpt lat="47.2320410" lon="2.9642050">
        <ele>161.2</ele>
        <time>2020-07-03T13:58:32Z</time>
      </trkpt>
      <trkpt lat="47.2318090" lon="2.9642020">
        <ele>161.6</ele>
        <time>2020-07-03T13:58:36Z</time>
      </trkpt>
      <trkpt lat="47.2314310" lon="2.9642410">
        <ele>161.6</ele>
        <time>2020-07-03T13:58:43Z</time>
      </trkpt>
      <trkpt lat="47.2311330" lon="2.9644340">
        <ele>161.8</ele>
        <time>2020-07-03T13:58:49Z</time>
      </trkpt>
      <trkpt lat="47.2307370" lon="2.9649060">
        <ele>162.0</ele>
        <time>2020-07-03T13:58:58Z</time>
      </trkpt>
      <trkpt lat="47.2302750" lon="2.9654440">
        <ele>161.8</ele>
        <time>2020-07-03T13:59:08Z</time>
      </trkpt>
      <trkpt lat="47.2301810" lon="2.9655520">
        <ele>161.8</ele>
        <time>2020-07-03T13:59:10Z</time>
      </trkpt>
      <trkpt lat="47.2297750" lon="2.9659160">
        <ele>161.8</ele>
        <time>2020-07-03T13:59:18Z</time>
      </trkpt>
      <trkpt lat="47.2296630" lon="2.9659770">
        <ele>161.8</ele>
        <time>2020-07-03T13:59:20Z</time>
      </trkpt>
      <trkpt lat="47.2295520" lon="2.9660310">
        <ele>161.8</ele>
        <time>2020-07-03T13:59:22Z</time>
      </trkpt>
      <trkpt lat="47.2292810" lon="2.9661480">
        <ele>161.6</ele>
        <time>2020-07-03T13:59:27Z</time>
      </trkpt>
      <trkpt lat="47.2287500" lon="2.9663740">
        <ele>161.2</ele>
        <time>2020-07-03T13:59:36Z</time>
      </trkpt>
      <trkpt lat="47.2282010" lon="2.9666090">
        <ele>161.4</ele>
        <time>2020-07-03T13:59:45Z</time>
      </trkpt>
      <trkpt lat="47.2281400" lon="2.9666370">
        <ele>161.4</ele>
        <time>2020-07-03T13:59:46Z</time>
      </trkpt>
      <trkpt lat="47.2280140" lon="2.9666930">
        <ele>161.6</ele>
        <time>2020-07-03T13:59:48Z</time>
      </trkpt>
      <trkpt lat="47.2274960" lon="2.9669250">
        <ele>161.2</ele>
        <time>2020-07-03T13:59:56Z</time>
      </trkpt>
      <trkpt lat="47.2274300" lon="2.9669550">
        <ele>161.4</ele>
        <time>2020-07-03T13:59:57Z</time>
      </trkpt>
      <trkpt lat="47.2269050" lon="2.9671730">
        <ele>161.4</ele>
        <time>2020-07-03T14:00:05Z</time>
      </trkpt>
      <trkpt lat="47.2267690" lon="2.9672020">
        <ele>161.2</ele>
        <time>2020-07-03T14:00:07Z</time>
      </trkpt>
      <trkpt lat="47.2262130" lon="2.9672350">
        <ele>161.2</ele>
        <time>2020-07-03T14:00:15Z</time>
      </trkpt>
      <trkpt lat="47.2256600" lon="2.9672570">
        <ele>161.2</ele>
        <time>2020-07-03T14:00:23Z</time>
      </trkpt>
      <trkpt lat="47.2255200" lon="2.9672590">
        <ele>161.2</ele>
        <time>2020-07-03T14:00:25Z</time>
      </trkpt>
      <trkpt lat="47.2249570" lon="2.9672850">
        <ele>161.4</ele>
        <time>2020-07-03T14:00:33Z</time>
      </trkpt>
      <trkpt lat="47.2248190" lon="2.9672880">
        <ele>161.4</ele>
        <time>2020-07-03T14:00:35Z</time>
      </trkpt>
      <trkpt lat="47.2242700" lon="2.9673090">
        <ele>161.2</ele>
        <time>2020-07-03T14:00:43Z</time>
      </trkpt>
      <trkpt lat="47.2237850" lon="2.9673400">
        <ele>161.4</ele>
        <time>2020-07-03T14:00:50Z</time>
      </trkpt>
      <trkpt lat="47.2232260" lon="2.9673710">
        <ele>161.2</ele>
        <time>2020-07-03T14:00:58Z</time>
      </trkpt>
      <trkpt lat="47.2228800" lon="2.9674020">
        <ele>161.0</ele>
        <time>2020-07-03T14:01:03Z</time>
      </trkpt>
      <trkpt lat="47.2223250" lon="2.9674440">
        <ele>161.0</ele>
        <time>2020-07-03T14:01:11Z</time>
      </trkpt>
      <trkpt lat="47.2221840" lon="2.9674510">
        <ele>160.8</ele>
        <time>2020-07-03T14:01:13Z</time>
      </trkpt>
      <trkpt lat="47.2220440" lon="2.9674610">
        <ele>161.0</ele>
        <time>2020-07-03T14:01:15Z</time>
      </trkpt>
      <trkpt lat="47.2217690" lon="2.9674830">
        <ele>161.0</ele>
        <time>2020-07-03T14:01:19Z</time>
      </trkpt>
      <trkpt lat="47.2215660" lon="2.9674980">
        <ele>161.0</ele>
        <time>2020-07-03T14:01:22Z</time>
      </trkpt>
      <trkpt lat="47.2213120" lon="2.9674930">
        <ele>160.4</ele>
        <time>2020-07-03T14:01:26Z</time>
      </trkpt>
      <trkpt lat="47.2212510" lon="2.9674750">
        <ele>160.4</ele>
        <time>2020-07-03T14:01:27Z</time>
      </trkpt>
      <trkpt lat="47.2210800" lon="2.9673720">
        <ele>160.4</ele>
        <time>2020-07-03T14:01:30Z</time>
      </trkpt>
      <trkpt lat="47.2210280" lon="2.9673290">
        <ele>160.2</ele>
        <time>2020-07-03T14:01:31Z</time>
      </trkpt>
      <trkpt lat="47.2208760" lon="2.9671880">
        <ele>160.2</ele>
        <time>2020-07-03T14:01:34Z</time>
      </trkpt>
      <trkpt lat="47.2207260" lon="2.9670550">
        <ele>160.4</ele>
        <time>2020-07-03T14:01:37Z</time>
      </trkpt>
      <trkpt lat="47.2204730" lon="2.9668390">
        <ele>161.4</ele>
        <time>2020-07-03T14:01:42Z</time>
      </trkpt>
      <trkpt lat="47.2202740" lon="2.9666630">
        <ele>161.6</ele>
        <time>2020-07-03T14:01:46Z</time>
      </trkpt>
      <trkpt lat="47.2201880" lon="2.9665660">
        <ele>161.8</ele>
        <time>2020-07-03T14:01:48Z</time>
      </trkpt>
      <trkpt lat="47.2199950" lon="2.9663010">
        <ele>162.2</ele>
        <time>2020-07-03T14:01:53Z</time>
      </trkpt>
      <trkpt lat="47.2197550" lon="2.9659090">
        <ele>161.8</ele>
        <time>2020-07-03T14:02:00Z</time>
      </trkpt>
      <trkpt lat="47.2197260" lon="2.9658540">
        <ele>161.8</ele>
        <time>2020-07-03T14:02:01Z</time>
      </trkpt>
      <trkpt lat="47.2195330" lon="2.9654770">
        <ele>162.4</ele>
        <time>2020-07-03T14:02:09Z</time>
      </trkpt>
      <trkpt lat="47.2194250" lon="2.9651730">
        <ele>162.4</ele>
        <time>2020-07-03T14:02:14Z</time>
      </trkpt>
      <trkpt lat="47.2193960" lon="2.9651020">
        <ele>162.4</ele>
        <time>2020-07-03T14:02:15Z</time>
      </trkpt>
      <trkpt lat="47.2192180" lon="2.9645650">
        <ele>162.6</ele>
        <time>2020-07-03T14:02:22Z</time>
      </trkpt>
      <trkpt lat="47.2190380" lon="2.9638880">
        <ele>162.4</ele>
        <time>2020-07-03T14:02:31Z</time>
      </trkpt>
      <trkpt lat="47.2189200" lon="2.9633410">
        <ele>161.8</ele>
        <time>2020-07-03T14:02:38Z</time>
      </trkpt>
      <trkpt lat="47.2188830" lon="2.9631140">
        <ele>161.6</ele>
        <time>2020-07-03T14:02:41Z</time>
      </trkpt>
      <trkpt lat="47.2188580" lon="2.9628950">
        <ele>161.6</ele>
        <time>2020-07-03T14:02:44Z</time>
      </trkpt>
      <trkpt lat="47.2188490" lon="2.9625960">
        <ele>161.6</ele>
        <time>2020-07-03T14:02:48Z</time>
      </trkpt>
      <trkpt lat="47.2188420" lon="2.9619140">
        <ele>161.8</ele>
        <time>2020-07-03T14:02:57Z</time>
      </trkpt>
      <trkpt lat="47.2187730" lon="2.9614570">
        <ele>162.2</ele>
        <time>2020-07-03T14:03:04Z</time>
      </trkpt>
      <trkpt lat="47.2187450" lon="2.9613630">
        <ele>162.2</ele>
        <time>2020-07-03T14:03:06Z</time>
      </trkpt>
      <trkpt lat="47.2187080" lon="2.9613210">
        <ele>162.2</ele>
        <time>2020-07-03T14:03:08Z</time>
      </trkpt>
      <trkpt lat="47.2186070" lon="2.9613990">
        <ele>162.4</ele>
        <time>2020-07-03T14:03:12Z</time>
      </trkpt>
      <trkpt lat="47.2183750" lon="2.9617410">
        <ele>162.8</ele>
        <time>2020-07-03T14:03:20Z</time>
      </trkpt>
      <trkpt lat="47.2181270" lon="2.9620300">
        <ele>162.8</ele>
        <time>2020-07-03T14:03:27Z</time>
      </trkpt>
      <trkpt lat="47.2178690" lon="2.9621690">
        <ele>162.6</ele>
        <time>2020-07-03T14:03:32Z</time>
      </trkpt>
      <trkpt lat="47.2178150" lon="2.9621890">
        <ele>162.6</ele>
        <time>2020-07-03T14:03:33Z</time>
      </trkpt>
      <trkpt lat="47.2172400" lon="2.9623460">
        <ele>162.2</ele>
        <time>2020-07-03T14:03:44Z</time>
      </trkpt>
      <trkpt lat="47.2167820" lon="2.9624430">
        <ele>162.2</ele>
        <time>2020-07-03T14:03:52Z</time>
      </trkpt>
      <trkpt lat="47.2163460" lon="2.9626850">
        <ele>162.0</ele>
        <time>2020-07-03T14:04:00Z</time>
      </trkpt>
      <trkpt lat="47.2159450" lon="2.9629710">
        <ele>162.0</ele>
        <time>2020-07-03T14:04:08Z</time>
      </trkpt>
      <trkpt lat="47.2158940" lon="2.9630160">
        <ele>162.2</ele>
        <time>2020-07-03T14:04:09Z</time>
      </trkpt>
      <trkpt lat="47.2154730" lon="2.9633990">
        <ele>162.4</ele>
        <time>2020-07-03T14:04:17Z</time>
      </trkpt>
      <trkpt lat="47.2153750" lon="2.9635030">
        <ele>162.4</ele>
        <time>2020-07-03T14:04:19Z</time>
      </trkpt>
      <trkpt lat="47.2148800" lon="2.9639010">
        <ele>162.4</ele>
        <time>2020-07-03T14:04:29Z</time>
      </trkpt>
      <trkpt lat="47.2147830" lon="2.9639720">
        <ele>162.4</ele>
        <time>2020-07-03T14:04:31Z</time>
      </trkpt>
      <trkpt lat="47.2144400" lon="2.9641830">
        <ele>162.8</ele>
        <time>2020-07-03T14:04:38Z</time>
      </trkpt>
      <trkpt lat="47.2143550" lon="2.9642530">
        <ele>163.0</ele>
        <time>2020-07-03T14:04:40Z</time>
      </trkpt>
      <trkpt lat="47.2142920" lon="2.9643520">
        <ele>163.2</ele>
        <time>2020-07-03T14:04:42Z</time>
      </trkpt>
      <trkpt lat="47.2142710" lon="2.9644180">
        <ele>163.4</ele>
        <time>2020-07-03T14:04:43Z</time>
      </trkpt>
      <trkpt lat="47.2142580" lon="2.9644900">
        <ele>163.4</ele>
        <time>2020-07-03T14:04:44Z</time>
      </trkpt>
      <trkpt lat="47.2142410" lon="2.9647260">
        <ele>163.6</ele>
        <time>2020-07-03T14:04:47Z</time>
      </trkpt>
      <trkpt lat="47.2142340" lon="2.9648090">
        <ele>163.4</ele>
        <time>2020-07-03T14:04:48Z</time>
      </trkpt>
      <trkpt lat="47.2141950" lon="2.9651630">
        <ele>163.6</ele>
        <time>2020-07-03T14:04:52Z</time>
      </trkpt>
      <trkpt lat="47.2141560" lon="2.9653280">
        <ele>163.4</ele>
        <time>2020-07-03T14:04:54Z</time>
      </trkpt>
      <trkpt lat="47.2140950" lon="2.9654890">
        <ele>163.4</ele>
        <time>2020-07-03T14:04:56Z</time>
      </trkpt>
      <trkpt lat="47.2140120" lon="2.9656340">
        <ele>163.0</ele>
        <time>2020-07-03T14:04:58Z</time>
      </trkpt>
      <trkpt lat="47.2139110" lon="2.9657490">
        <ele>162.8</ele>
        <time>2020-07-03T14:05:00Z</time>
      </trkpt>
      <trkpt lat="47.2137400" lon="2.9658750">
        <ele>162.8</ele>
        <time>2020-07-03T14:05:03Z</time>
      </trkpt>
      <trkpt lat="47.2132640" lon="2.9661630">
        <ele>162.4</ele>
        <time>2020-07-03T14:05:12Z</time>
      </trkpt>
      <trkpt lat="47.2131580" lon="2.9662320">
        <ele>162.4</ele>
        <time>2020-07-03T14:05:14Z</time>
      </trkpt>
      <trkpt lat="47.2128440" lon="2.9664520">
        <ele>162.6</ele>
        <time>2020-07-03T14:05:20Z</time>
      </trkpt>
      <trkpt lat="47.2127920" lon="2.9664860">
        <ele>162.6</ele>
        <time>2020-07-03T14:05:21Z</time>
      </trkpt>
      <trkpt lat="47.2124260" lon="2.9667210">
        <ele>162.4</ele>
        <time>2020-07-03T14:05:29Z</time>
      </trkpt>
      <trkpt lat="47.2119510" lon="2.9670890">
        <ele>162.4</ele>
        <time>2020-07-03T14:05:39Z</time>
      </trkpt>
      <trkpt lat="47.2114580" lon="2.9675190">
        <ele>162.6</ele>
        <time>2020-07-03T14:05:49Z</time>
      </trkpt>
      <trkpt lat="47.2110230" lon="2.9679560">
        <ele>162.6</ele>
        <time>2020-07-03T14:05:59Z</time>
      </trkpt>
      <trkpt lat="47.2106960" lon="2.9682850">
        <ele>162.6</ele>
        <time>2020-07-03T14:06:06Z</time>
      </trkpt>
      <trkpt lat="47.2104060" lon="2.9685570">
        <ele>163.0</ele>
        <time>2020-07-03T14:06:13Z</time>
      </trkpt>
      <trkpt lat="47.2101530" lon="2.9686880">
        <ele>162.8</ele>
        <time>2020-07-03T14:06:18Z</time>
      </trkpt>
      <trkpt lat="47.2100500" lon="2.9687180">
        <ele>163.0</ele>
        <time>2020-07-03T14:06:20Z</time>
      </trkpt>
      <trkpt lat="47.2098390" lon="2.9688340">
        <ele>163.0</ele>
        <time>2020-07-03T14:06:24Z</time>
      </trkpt>
      <trkpt lat="47.2097360" lon="2.9689330">
        <ele>163.0</ele>
        <time>2020-07-03T14:06:26Z</time>
      </trkpt>
      <trkpt lat="47.2096010" lon="2.9690900">
        <ele>163.2</ele>
        <time>2020-07-03T14:06:29Z</time>
      </trkpt>
      <trkpt lat="47.2094190" lon="2.9693140">
        <ele>163.6</ele>
        <time>2020-07-03T14:06:33Z</time>
      </trkpt>
      <trkpt lat="47.2091510" lon="2.9697000">
        <ele>163.8</ele>
        <time>2020-07-03T14:06:40Z</time>
      </trkpt>
      <trkpt lat="47.2087300" lon="2.9702970">
        <ele>164.0</ele>
        <time>2020-07-03T14:06:51Z</time>
      </trkpt>
      <trkpt lat="47.2086410" lon="2.9704030">
        <ele>164.2</ele>
        <time>2020-07-03T14:06:53Z</time>
      </trkpt>
      <trkpt lat="47.2082860" lon="2.9707900">
        <ele>163.8</ele>
        <time>2020-07-03T14:07:01Z</time>
      </trkpt>
      <trkpt lat="47.2081980" lon="2.9708890">
        <ele>163.6</ele>
        <time>2020-07-03T14:07:03Z</time>
      </trkpt>
      <trkpt lat="47.2080170" lon="2.9710790">
        <ele>163.2</ele>
        <time>2020-07-03T14:07:07Z</time>
      </trkpt>
      <trkpt lat="47.2077540" lon="2.9713500">
        <ele>163.0</ele>
        <time>2020-07-03T14:07:13Z</time>
      </trkpt>
      <trkpt lat="47.2073020" lon="2.9718080">
        <ele>163.0</ele>
        <time>2020-07-03T14:07:23Z</time>
      </trkpt>
      <trkpt lat="47.2071600" lon="2.9719530">
        <ele>163.0</ele>
        <time>2020-07-03T14:07:26Z</time>
      </trkpt>
      <trkpt lat="47.2069180" lon="2.9722040">
        <ele>163.2</ele>
        <time>2020-07-03T14:07:31Z</time>
      </trkpt>
      <trkpt lat="47.2065920" lon="2.9725350">
        <ele>163.4</ele>
        <time>2020-07-03T14:07:38Z</time>
      </trkpt>
      <trkpt lat="47.2064540" lon="2.9726710">
        <ele>163.4</ele>
        <time>2020-07-03T14:07:41Z</time>
      </trkpt>
      <trkpt lat="47.2061300" lon="2.9729880">
        <ele>163.6</ele>
        <time>2020-07-03T14:07:48Z</time>
      </trkpt>
      <trkpt lat="47.2057330" lon="2.9733890">
        <ele>163.4</ele>
        <time>2020-07-03T14:07:56Z</time>
      </trkpt>
      <trkpt lat="47.2053220" lon="2.9737860">
        <ele>163.4</ele>
        <time>2020-07-03T14:08:05Z</time>
      </trkpt>
      <trkpt lat="47.2048500" lon="2.9741390">
        <ele>163.0</ele>
        <time>2020-07-03T14:08:14Z</time>
      </trkpt>
      <trkpt lat="47.2043830" lon="2.9745380">
        <ele>163.0</ele>
        <time>2020-07-03T14:08:23Z</time>
      </trkpt>
      <trkpt lat="47.2043380" lon="2.9745920">
        <ele>163.0</ele>
        <time>2020-07-03T14:08:24Z</time>
      </trkpt>
      <trkpt lat="47.2039400" lon="2.9749910">
        <ele>163.2</ele>
        <time>2020-07-03T14:08:32Z</time>
      </trkpt>
      <trkpt lat="47.2034840" lon="2.9753640">
        <ele>163.6</ele>
        <time>2020-07-03T14:08:41Z</time>
      </trkpt>
      <trkpt lat="47.2031010" lon="2.9757720">
        <ele>164.0</ele>
        <time>2020-07-03T14:08:49Z</time>
      </trkpt>
      <trkpt lat="47.2027040" lon="2.9760540">
        <ele>164.0</ele>
        <time>2020-07-03T14:08:56Z</time>
      </trkpt>
      <trkpt lat="47.2023000" lon="2.9763500">
        <ele>164.0</ele>
        <time>2020-07-03T14:09:04Z</time>
      </trkpt>
      <trkpt lat="47.2017970" lon="2.9767570">
        <ele>164.0</ele>
        <time>2020-07-03T14:09:14Z</time>
      </trkpt>
      <trkpt lat="47.2015960" lon="2.9769050">
        <ele>164.0</ele>
        <time>2020-07-03T14:09:18Z</time>
      </trkpt>
      <trkpt lat="47.2010570" lon="2.9772460">
        <ele>163.8</ele>
        <time>2020-07-03T14:09:28Z</time>
      </trkpt>
      <trkpt lat="47.2009530" lon="2.9773100">
        <ele>164.0</ele>
        <time>2020-07-03T14:09:30Z</time>
      </trkpt>
      <trkpt lat="47.2009040" lon="2.9773370">
        <ele>164.0</ele>
        <time>2020-07-03T14:09:31Z</time>
      </trkpt>
      <trkpt lat="47.2008550" lon="2.9773640">
        <ele>163.8</ele>
        <time>2020-07-03T14:09:32Z</time>
      </trkpt>
      <trkpt lat="47.2008080" lon="2.9773890">
        <ele>163.8</ele>
        <time>2020-07-03T14:09:33Z</time>
      </trkpt>
      <trkpt lat="47.2007620" lon="2.9774110">
        <ele>163.8</ele>
        <time>2020-07-03T14:09:34Z</time>
      </trkpt>
      <trkpt lat="47.2006330" lon="2.9774650">
        <ele>163.8</ele>
        <time>2020-07-03T14:09:37Z</time>
      </trkpt>
      <trkpt lat="47.2004840" lon="2.9774730">
        <ele>163.8</ele>
        <time>2020-07-03T14:09:42Z</time>
      </trkpt>
      <trkpt lat="47.2004640" lon="2.9774710">
        <ele>163.8</ele>
        <time>2020-07-03T14:09:43Z</time>
      </trkpt>
      <trkpt lat="47.2004090" lon="2.9775220">
        <ele>164.2</ele>
        <time>2020-07-03T14:09:47Z</time>
      </trkpt>
      <trkpt lat="47.2003550" lon="2.9775700">
        <ele>165.4</ele>
        <time>2020-07-03T14:09:54Z</time>
      </trkpt>
      <trkpt lat="47.2003570" lon="2.9775690">
        <ele>166.2</ele>
        <time>2020-07-03T14:10:04Z</time>
      </trkpt>
      <trkpt lat="47.2003590" lon="2.9775700">
        <ele>166.2</ele>
        <time>2020-07-03T14:10:11Z</time>
      </trkpt>
      <trkpt lat="47.2003640" lon="2.9775660">
        <ele>166.2</ele>
        <time>2020-07-03T14:10:23Z</time>
      </trkpt>
      <trkpt lat="47.2003710" lon="2.9775660">
        <ele>166.0</ele>
        <time>2020-07-03T14:10:40Z</time>
      </trkpt>
      <trkpt lat="47.2003710" lon="2.9775660">
        <ele>166.0</ele>
        <time>2020-07-03T14:10:41Z</time>
      </trkpt>
      <trkpt lat="47.2003720" lon="2.9775660">
        <ele>166.0</ele>
        <time>2020-07-03T14:10:43Z</time>
      </trkpt>
      <trkpt lat="47.2003750" lon="2.9775610">
        <ele>165.8</ele>
        <time>2020-07-03T14:11:11Z</time>
      </trkpt>
      <trkpt lat="47.2003780" lon="2.9775610">
        <ele>165.8</ele>
        <time>2020-07-03T14:11:20Z</time>
      </trkpt>
      <trkpt lat="47.2003780" lon="2.9775610">
        <ele>166.0</ele>
        <time>2020-07-03T14:11:21Z</time>
      </trkpt>
      <trkpt lat="47.2003790" lon="2.9775610">
        <ele>166.0</ele>
        <time>2020-07-03T14:11:22Z</time>
      </trkpt>
      <trkpt lat="47.2003790" lon="2.9775610">
        <ele>166.0</ele>
        <time>2020-07-03T14:11:24Z</time>
      </trkpt>
      <trkpt lat="47.2003830" lon="2.9775580">
        <ele>165.8</ele>
        <time>2020-07-03T14:11:39Z</time>
      </trkpt>
      <trkpt lat="47.2003610" lon="2.9776200">
        <ele>165.8</ele>
        <time>2020-07-03T14:11:49Z</time>
      </trkpt>
      <trkpt lat="47.2003580" lon="2.9776270">
        <ele>165.8</ele>
        <time>2020-07-03T14:12:02Z</time>
      </trkpt>
      <trkpt lat="47.2003600" lon="2.9776290">
        <ele>165.6</ele>
        <time>2020-07-03T14:12:29Z</time>
      </trkpt>
      <trkpt lat="47.2003670" lon="2.9776300">
        <ele>165.6</ele>
        <time>2020-07-03T14:12:48Z</time>
      </trkpt>
      <trkpt lat="47.2003670" lon="2.9776300">
        <ele>165.6</ele>
        <time>2020-07-03T14:12:49Z</time>
      </trkpt>
      <trkpt lat="47.2003670" lon="2.9776320">
        <ele>165.6</ele>
        <time>2020-07-03T14:12:55Z</time>
      </trkpt>
      <trkpt lat="47.2003660" lon="2.9776410">
        <ele>165.6</ele>
        <time>2020-07-03T14:13:20Z</time>
      </trkpt>
      <trkpt lat="47.2003490" lon="2.9776560">
        <ele>165.6</ele>
        <time>2020-07-03T14:13:22Z</time>
      </trkpt>
      <trkpt lat="47.2002850" lon="2.9776990">
        <ele>165.6</ele>
        <time>2020-07-03T14:13:26Z</time>
      </trkpt>
      <trkpt lat="47.2002660" lon="2.9777090">
        <ele>165.4</ele>
        <time>2020-07-03T14:13:27Z</time>
      </trkpt>
      <trkpt lat="47.2000560" lon="2.9778280">
        <ele>165.4</ele>
        <time>2020-07-03T14:13:34Z</time>
      </trkpt>
      <trkpt lat="47.1999380" lon="2.9779070">
        <ele>165.2</ele>
        <time>2020-07-03T14:13:38Z</time>
      </trkpt>
      <trkpt lat="47.1999110" lon="2.9779270">
        <ele>165.0</ele>
        <time>2020-07-03T14:13:39Z</time>
      </trkpt>
      <trkpt lat="47.1998820" lon="2.9779450">
        <ele>165.0</ele>
        <time>2020-07-03T14:13:40Z</time>
      </trkpt>
      <trkpt lat="47.1997230" lon="2.9780680">
        <ele>164.8</ele>
        <time>2020-07-03T14:13:46Z</time>
      </trkpt>
      <trkpt lat="47.1994720" lon="2.9782130">
        <ele>164.6</ele>
        <time>2020-07-03T14:13:53Z</time>
      </trkpt>
      <trkpt lat="47.1991810" lon="2.9784120">
        <ele>164.8</ele>
        <time>2020-07-03T14:14:02Z</time>
      </trkpt>
      <trkpt lat="47.1988430" lon="2.9787050">
        <ele>164.4</ele>
        <time>2020-07-03T14:14:11Z</time>
      </trkpt>
      <trkpt lat="47.1984390" lon="2.9792120">
        <ele>164.8</ele>
        <time>2020-07-03T14:14:21Z</time>
      </trkpt>
      <trkpt lat="47.1980650" lon="2.9797140">
        <ele>164.8</ele>
        <time>2020-07-03T14:14:29Z</time>
      </trkpt>
      <trkpt lat="47.1978590" lon="2.9800080">
        <ele>164.6</ele>
        <time>2020-07-03T14:14:33Z</time>
      </trkpt>
      <trkpt lat="47.1976350" lon="2.9803190">
        <ele>164.6</ele>
        <time>2020-07-03T14:14:37Z</time>
      </trkpt>
      <trkpt lat="47.1972440" lon="2.9808690">
        <ele>163.6</ele>
        <time>2020-07-03T14:14:44Z</time>
      </trkpt>
      <trkpt lat="47.1969140" lon="2.9813450">
        <ele>163.2</ele>
        <time>2020-07-03T14:14:50Z</time>
      </trkpt>
      <trkpt lat="47.1965280" lon="2.9820360">
        <ele>163.2</ele>
        <time>2020-07-03T14:14:58Z</time>
      </trkpt>
      <trkpt lat="47.1964800" lon="2.9821270">
        <ele>163.2</ele>
        <time>2020-07-03T14:14:59Z</time>
      </trkpt>
      <trkpt lat="47.1961540" lon="2.9827660">
        <ele>163.2</ele>
        <time>2020-07-03T14:15:06Z</time>
      </trkpt>
      <trkpt lat="47.1959490" lon="2.9832000">
        <ele>163.4</ele>
        <time>2020-07-03T14:15:11Z</time>
      </trkpt>
      <trkpt lat="47.1957370" lon="2.9836280">
        <ele>163.2</ele>
        <time>2020-07-03T14:15:17Z</time>
      </trkpt>
      <trkpt lat="47.1955130" lon="2.9840580">
        <ele>163.6</ele>
        <time>2020-07-03T14:15:22Z</time>
      </trkpt>
      <trkpt lat="47.1954240" lon="2.9842290">
        <ele>164.0</ele>
        <time>2020-07-03T14:15:24Z</time>
      </trkpt>
      <trkpt lat="47.1950770" lon="2.9848990">
        <ele>163.8</ele>
        <time>2020-07-03T14:15:32Z</time>
      </trkpt>
      <trkpt lat="47.1950370" lon="2.9849810">
        <ele>163.8</ele>
        <time>2020-07-03T14:15:33Z</time>
      </trkpt>
      <trkpt lat="47.1947020" lon="2.9856470">
        <ele>163.8</ele>
        <time>2020-07-03T14:15:41Z</time>
      </trkpt>
      <trkpt lat="47.1946580" lon="2.9857320">
        <ele>163.8</ele>
        <time>2020-07-03T14:15:42Z</time>
      </trkpt>
      <trkpt lat="47.1945340" lon="2.9859860">
        <ele>163.8</ele>
        <time>2020-07-03T14:15:45Z</time>
      </trkpt>
      <trkpt lat="47.1941870" lon="2.9866460">
        <ele>164.2</ele>
        <time>2020-07-03T14:15:53Z</time>
      </trkpt>
      <trkpt lat="47.1941460" lon="2.9867270">
        <ele>164.2</ele>
        <time>2020-07-03T14:15:54Z</time>
      </trkpt>
      <trkpt lat="47.1938080" lon="2.9873640">
        <ele>164.8</ele>
        <time>2020-07-03T14:16:02Z</time>
      </trkpt>
      <trkpt lat="47.1935730" lon="2.9878520">
        <ele>164.8</ele>
        <time>2020-07-03T14:16:08Z</time>
      </trkpt>
      <trkpt lat="47.1932360" lon="2.9884990">
        <ele>164.4</ele>
        <time>2020-07-03T14:16:16Z</time>
      </trkpt>
      <trkpt lat="47.1930350" lon="2.9888950">
        <ele>164.4</ele>
        <time>2020-07-03T14:16:21Z</time>
      </trkpt>
      <trkpt lat="47.1926940" lon="2.9895430">
        <ele>164.4</ele>
        <time>2020-07-03T14:16:30Z</time>
      </trkpt>
      <trkpt lat="47.1925440" lon="2.9898350">
        <ele>164.8</ele>
        <time>2020-07-03T14:16:34Z</time>
      </trkpt>
      <trkpt lat="47.1922290" lon="2.9904430">
        <ele>165.6</ele>
        <time>2020-07-03T14:16:42Z</time>
      </trkpt>
      <trkpt lat="47.1919010" lon="2.9911090">
        <ele>166.0</ele>
        <time>2020-07-03T14:16:50Z</time>
      </trkpt>
      <trkpt lat="47.1917770" lon="2.9913540">
        <ele>166.0</ele>
        <time>2020-07-03T14:16:53Z</time>
      </trkpt>
      <trkpt lat="47.1914350" lon="2.9919730">
        <ele>165.8</ele>
        <time>2020-07-03T14:17:01Z</time>
      </trkpt>
      <trkpt lat="47.1912700" lon="2.9922920">
        <ele>165.8</ele>
        <time>2020-07-03T14:17:05Z</time>
      </trkpt>
      <trkpt lat="47.1910820" lon="2.9926960">
        <ele>165.6</ele>
        <time>2020-07-03T14:17:10Z</time>
      </trkpt>
      <trkpt lat="47.1908950" lon="2.9930900">
        <ele>165.8</ele>
        <time>2020-07-03T14:17:15Z</time>
      </trkpt>
      <trkpt lat="47.1907770" lon="2.9933270">
        <ele>165.6</ele>
        <time>2020-07-03T14:17:18Z</time>
      </trkpt>
      <trkpt lat="47.1904570" lon="2.9940410">
        <ele>166.0</ele>
        <time>2020-07-03T14:17:27Z</time>
      </trkpt>
      <trkpt lat="47.1903930" lon="2.9942130">
        <ele>166.0</ele>
        <time>2020-07-03T14:17:29Z</time>
      </trkpt>
      <trkpt lat="47.1901090" lon="2.9949990">
        <ele>166.2</ele>
        <time>2020-07-03T14:17:38Z</time>
      </trkpt>
      <trkpt lat="47.1899620" lon="2.9954460">
        <ele>166.0</ele>
        <time>2020-07-03T14:17:43Z</time>
      </trkpt>
      <trkpt lat="47.1897230" lon="2.9961770">
        <ele>166.0</ele>
        <time>2020-07-03T14:17:51Z</time>
      </trkpt>
      <trkpt lat="47.1895120" lon="2.9967960">
        <ele>165.8</ele>
        <time>2020-07-03T14:17:58Z</time>
      </trkpt>
      <trkpt lat="47.1892880" lon="2.9975160">
        <ele>165.8</ele>
        <time>2020-07-03T14:18:06Z</time>
      </trkpt>
      <trkpt lat="47.1892640" lon="2.9976070">
        <ele>165.6</ele>
        <time>2020-07-03T14:18:07Z</time>
      </trkpt>
      <trkpt lat="47.1891890" lon="2.9978770">
        <ele>165.8</ele>
        <time>2020-07-03T14:18:10Z</time>
      </trkpt>
      <trkpt lat="47.1889380" lon="2.9986710">
        <ele>166.0</ele>
        <time>2020-07-03T14:18:19Z</time>
      </trkpt>
      <trkpt lat="47.1888400" lon="2.9989190">
        <ele>166.2</ele>
        <time>2020-07-03T14:18:22Z</time>
      </trkpt>
      <trkpt lat="47.1886360" lon="2.9992730">
        <ele>166.4</ele>
        <time>2020-07-03T14:18:27Z</time>
      </trkpt>
      <trkpt lat="47.1882790" lon="2.9996380">
        <ele>166.4</ele>
        <time>2020-07-03T14:18:34Z</time>
      </trkpt>
      <trkpt lat="47.1877490" lon="2.9999570">
        <ele>166.8</ele>
        <time>2020-07-03T14:18:43Z</time>
      </trkpt>
      <trkpt lat="47.1872570" lon="3.0002680">
        <ele>166.8</ele>
        <time>2020-07-03T14:18:51Z</time>
      </trkpt>
      <trkpt lat="47.1871340" lon="3.0003410">
        <ele>166.8</ele>
        <time>2020-07-03T14:18:53Z</time>
      </trkpt>
      <trkpt lat="47.1865890" lon="3.0006730">
        <ele>166.4</ele>
        <time>2020-07-03T14:19:02Z</time>
      </trkpt>
      <trkpt lat="47.1864000" lon="3.0007880">
        <ele>166.0</ele>
        <time>2020-07-03T14:19:05Z</time>
      </trkpt>
      <trkpt lat="47.1858910" lon="3.0011010">
        <ele>165.8</ele>
        <time>2020-07-03T14:19:13Z</time>
      </trkpt>
      <trkpt lat="47.1857020" lon="3.0012150">
        <ele>165.8</ele>
        <time>2020-07-03T14:19:16Z</time>
      </trkpt>
      <trkpt lat="47.1851960" lon="3.0015280">
        <ele>165.4</ele>
        <time>2020-07-03T14:19:24Z</time>
      </trkpt>
      <trkpt lat="47.1850680" lon="3.0016110">
        <ele>165.6</ele>
        <time>2020-07-03T14:19:26Z</time>
      </trkpt>
      <trkpt lat="47.1848740" lon="3.0017400">
        <ele>165.6</ele>
        <time>2020-07-03T14:19:29Z</time>
      </trkpt>
      <trkpt lat="47.1846110" lon="3.0019110">
        <ele>166.0</ele>
        <time>2020-07-03T14:19:33Z</time>
      </trkpt>
      <trkpt lat="47.1840680" lon="3.0022640">
        <ele>166.0</ele>
        <time>2020-07-03T14:19:41Z</time>
      </trkpt>
      <trkpt lat="47.1840010" lon="3.0023070">
        <ele>166.0</ele>
        <time>2020-07-03T14:19:42Z</time>
      </trkpt>
      <trkpt lat="47.1834630" lon="3.0026400">
        <ele>165.8</ele>
        <time>2020-07-03T14:19:50Z</time>
      </trkpt>
      <trkpt lat="47.1832520" lon="3.0027650">
        <ele>165.8</ele>
        <time>2020-07-03T14:19:53Z</time>
      </trkpt>
      <trkpt lat="47.1827690" lon="3.0030710">
        <ele>165.8</ele>
        <time>2020-07-03T14:20:00Z</time>
      </trkpt>
      <trkpt lat="47.1825570" lon="3.0032120">
        <ele>166.0</ele>
        <time>2020-07-03T14:20:03Z</time>
      </trkpt>
      <trkpt lat="47.1820110" lon="3.0035770">
        <ele>166.0</ele>
        <time>2020-07-03T14:20:11Z</time>
      </trkpt>
      <trkpt lat="47.1816690" lon="3.0038060">
        <ele>166.2</ele>
        <time>2020-07-03T14:20:16Z</time>
      </trkpt>
      <trkpt lat="47.1811220" lon="3.0041520">
        <ele>166.0</ele>
        <time>2020-07-03T14:20:24Z</time>
      </trkpt>
      <trkpt lat="47.1809200" lon="3.0042810">
        <ele>165.8</ele>
        <time>2020-07-03T14:20:27Z</time>
      </trkpt>
      <trkpt lat="47.1803780" lon="3.0046080">
        <ele>165.6</ele>
        <time>2020-07-03T14:20:35Z</time>
      </trkpt>
      <trkpt lat="47.1800530" lon="3.0048240">
        <ele>165.6</ele>
        <time>2020-07-03T14:20:40Z</time>
      </trkpt>
      <trkpt lat="47.1795970" lon="3.0051400">
        <ele>165.6</ele>
        <time>2020-07-03T14:20:47Z</time>
      </trkpt>
      <trkpt lat="47.1792490" lon="3.0053540">
        <ele>166.0</ele>
        <time>2020-07-03T14:20:52Z</time>
      </trkpt>
      <trkpt lat="47.1786920" lon="3.0057230">
        <ele>166.6</ele>
        <time>2020-07-03T14:21:00Z</time>
      </trkpt>
      <trkpt lat="47.1784810" lon="3.0058590">
        <ele>166.8</ele>
        <time>2020-07-03T14:21:03Z</time>
      </trkpt>
      <trkpt lat="47.1779790" lon="3.0061620">
        <ele>166.8</ele>
        <time>2020-07-03T14:21:10Z</time>
      </trkpt>
      <trkpt lat="47.1777020" lon="3.0063560">
        <ele>166.8</ele>
        <time>2020-07-03T14:21:14Z</time>
      </trkpt>
      <trkpt lat="47.1774940" lon="3.0064900">
        <ele>166.4</ele>
        <time>2020-07-03T14:21:17Z</time>
      </trkpt>
      <trkpt lat="47.1769660" lon="3.0068380">
        <ele>166.4</ele>
        <time>2020-07-03T14:21:25Z</time>
      </trkpt>
      <trkpt lat="47.1767080" lon="3.0070020">
        <ele>166.2</ele>
        <time>2020-07-03T14:21:29Z</time>
      </trkpt>
      <trkpt lat="47.1761760" lon="3.0073450">
        <ele>166.4</ele>
        <time>2020-07-03T14:21:37Z</time>
      </trkpt>
      <trkpt lat="47.1760430" lon="3.0074310">
        <ele>166.6</ele>
        <time>2020-07-03T14:21:39Z</time>
      </trkpt>
      <trkpt lat="47.1755460" lon="3.0077430">
        <ele>167.0</ele>
        <time>2020-07-03T14:21:47Z</time>
      </trkpt>
      <trkpt lat="47.1754260" lon="3.0078110">
        <ele>167.2</ele>
        <time>2020-07-03T14:21:49Z</time>
      </trkpt>
      <trkpt lat="47.1749440" lon="3.0080490">
        <ele>167.8</ele>
        <time>2020-07-03T14:21:58Z</time>
      </trkpt>
      <trkpt lat="47.1748460" lon="3.0080780">
        <ele>168.0</ele>
        <time>2020-07-03T14:22:00Z</time>
      </trkpt>
      <trkpt lat="47.1747540" lon="3.0080920">
        <ele>168.2</ele>
        <time>2020-07-03T14:22:02Z</time>
      </trkpt>
      <trkpt lat="47.1746840" lon="3.0081120">
        <ele>168.2</ele>
        <time>2020-07-03T14:22:04Z</time>
      </trkpt>
      <trkpt lat="47.1746610" lon="3.0081160">
        <ele>168.4</ele>
        <time>2020-07-03T14:22:05Z</time>
      </trkpt>
      <trkpt lat="47.1746280" lon="3.0081320">
        <ele>168.8</ele>
        <time>2020-07-03T14:22:08Z</time>
      </trkpt>
      <trkpt lat="47.1746260" lon="3.0081360">
        <ele>169.6</ele>
        <time>2020-07-03T14:22:14Z</time>
      </trkpt>
      <trkpt lat="47.1746050" lon="3.0081890">
        <ele>170.0</ele>
        <time>2020-07-03T14:22:31Z</time>
      </trkpt>
      <trkpt lat="47.1746390" lon="3.0083370">
        <ele>170.0</ele>
        <time>2020-07-03T14:22:37Z</time>
      </trkpt>
      <trkpt lat="47.1747780" lon="3.0086500">
        <ele>170.2</ele>
        <time>2020-07-03T14:22:45Z</time>
      </trkpt>
      <trkpt lat="47.1748930" lon="3.0089310">
        <ele>171.0</ele>
        <time>2020-07-03T14:22:50Z</time>
      </trkpt>
      <trkpt lat="47.1749760" lon="3.0091340">
        <ele>171.2</ele>
        <time>2020-07-03T14:22:53Z</time>
      </trkpt>
      <trkpt lat="47.1752650" lon="3.0098530">
        <ele>171.6</ele>
        <time>2020-07-03T14:23:05Z</time>
      </trkpt>
      <trkpt lat="47.1752860" lon="3.0099070">
        <ele>171.8</ele>
        <time>2020-07-03T14:23:06Z</time>
      </trkpt>
      <trkpt lat="47.1755560" lon="3.0105930">
        <ele>172.0</ele>
        <time>2020-07-03T14:23:19Z</time>
      </trkpt>
      <trkpt lat="47.1755750" lon="3.0106430">
        <ele>172.0</ele>
        <time>2020-07-03T14:23:20Z</time>
      </trkpt>
      <trkpt lat="47.1755940" lon="3.0106940">
        <ele>172.0</ele>
        <time>2020-07-03T14:23:21Z</time>
      </trkpt>
      <trkpt lat="47.1756360" lon="3.0108090">
        <ele>171.8</ele>
        <time>2020-07-03T14:23:23Z</time>
      </trkpt>
      <trkpt lat="47.1757220" lon="3.0110850">
        <ele>171.4</ele>
        <time>2020-07-03T14:23:27Z</time>
      </trkpt>
      <trkpt lat="47.1757730" lon="3.0112560">
        <ele>171.0</ele>
        <time>2020-07-03T14:23:29Z</time>
      </trkpt>
      <trkpt lat="47.1758580" lon="3.0115550">
        <ele>170.0</ele>
        <time>2020-07-03T14:23:32Z</time>
      </trkpt>
      <trkpt lat="47.1759500" lon="3.0118190">
        <ele>169.4</ele>
        <time>2020-07-03T14:23:35Z</time>
      </trkpt>
      <trkpt lat="47.1760360" lon="3.0120560">
        <ele>168.6</ele>
        <time>2020-07-03T14:23:38Z</time>
      </trkpt>
      <trkpt lat="47.1760960" lon="3.0121800">
        <ele>168.4</ele>
        <time>2020-07-03T14:23:40Z</time>
      </trkpt>
      <trkpt lat="47.1762200" lon="3.0124980">
        <ele>168.4</ele>
        <time>2020-07-03T14:23:45Z</time>
      </trkpt>
      <trkpt lat="47.1762880" lon="3.0126200">
        <ele>168.4</ele>
        <time>2020-07-03T14:23:47Z</time>
      </trkpt>
      <trkpt lat="47.1763900" lon="3.0127960">
        <ele>169.0</ele>
        <time>2020-07-03T14:23:51Z</time>
      </trkpt>
      <trkpt lat="47.1764500" lon="3.0129540">
        <ele>169.4</ele>
        <time>2020-07-03T14:23:56Z</time>
      </trkpt>
      <trkpt lat="47.1765100" lon="3.0130730">
        <ele>170.6</ele>
        <time>2020-07-03T14:23:59Z</time>
      </trkpt>
      <trkpt lat="47.1766570" lon="3.0134040">
        <ele>171.6</ele>
        <time>2020-07-03T14:24:06Z</time>
      </trkpt>
      <trkpt lat="47.1767850" lon="3.0137050">
        <ele>172.2</ele>
        <time>2020-07-03T14:24:12Z</time>
      </trkpt>
      <trkpt lat="47.1769230" lon="3.0140940">
        <ele>173.0</ele>
        <time>2020-07-03T14:24:20Z</time>
      </trkpt>
      <trkpt lat="47.1770090" lon="3.0143320">
        <ele>173.4</ele>
        <time>2020-07-03T14:24:25Z</time>
      </trkpt>
      <trkpt lat="47.1771690" lon="3.0147920">
        <ele>173.8</ele>
        <time>2020-07-03T14:24:34Z</time>
      </trkpt>
      <trkpt lat="47.1771880" lon="3.0148470">
        <ele>173.8</ele>
        <time>2020-07-03T14:24:35Z</time>
      </trkpt>
      <trkpt lat="47.1773340" lon="3.0152880">
        <ele>173.2</ele>
        <time>2020-07-03T14:24:44Z</time>
      </trkpt>
      <trkpt lat="47.1773710" lon="3.0154420">
        <ele>172.6</ele>
        <time>2020-07-03T14:24:49Z</time>
      </trkpt>
      <trkpt lat="47.1773840" lon="3.0154970">
        <ele>172.6</ele>
        <time>2020-07-03T14:24:51Z</time>
      </trkpt>
      <trkpt lat="47.1774710" lon="3.0156260">
        <ele>172.2</ele>
        <time>2020-07-03T14:24:58Z</time>
      </trkpt>
      <trkpt lat="47.1774770" lon="3.0158220">
        <ele>171.6</ele>
        <time>2020-07-03T14:25:05Z</time>
      </trkpt>
      <trkpt lat="47.1774910" lon="3.0160960">
        <ele>171.6</ele>
        <time>2020-07-03T14:25:12Z</time>
      </trkpt>
      <trkpt lat="47.1775040" lon="3.0162640">
        <ele>172.0</ele>
        <time>2020-07-03T14:25:18Z</time>
      </trkpt>
      <trkpt lat="47.1775020" lon="3.0162960">
        <ele>172.0</ele>
        <time>2020-07-03T14:25:20Z</time>
      </trkpt>
      <trkpt lat="47.1775040" lon="3.0163130">
        <ele>172.2</ele>
        <time>2020-07-03T14:25:21Z</time>
      </trkpt>
      <trkpt lat="47.1775110" lon="3.0163330">
        <ele>172.6</ele>
        <time>2020-07-03T14:25:24Z</time>
      </trkpt>
      <trkpt lat="47.1774210" lon="3.0163080">
        <ele>173.4</ele>
        <time>2020-07-03T14:25:35Z</time>
      </trkpt>
      <trkpt lat="47.1774490" lon="3.0163110">
        <ele>173.4</ele>
        <time>2020-07-03T14:25:45Z</time>
      </trkpt>
      <trkpt lat="47.1774480" lon="3.0163190">
        <ele>173.6</ele>
        <time>2020-07-03T14:26:13Z</time>
      </trkpt>
      <trkpt lat="47.1774470" lon="3.0163220">
        <ele>173.6</ele>
        <time>2020-07-03T14:26:15Z</time>
      </trkpt>
      <trkpt lat="47.1774480" lon="3.0163240">
        <ele>173.8</ele>
        <time>2020-07-03T14:26:34Z</time>
      </trkpt>
      <trkpt lat="47.1774390" lon="3.0163390">
        <ele>174.0</ele>
        <time>2020-07-03T14:26:50Z</time>
      </trkpt>
      <trkpt lat="47.1774550" lon="3.0163500">
        <ele>174.0</ele>
        <time>2020-07-03T14:27:14Z</time>
      </trkpt>
      <trkpt lat="47.1774770" lon="3.0163600">
        <ele>173.8</ele>
        <time>2020-07-03T14:27:31Z</time>
      </trkpt>
      <trkpt lat="47.1774930" lon="3.0163660">
        <ele>173.8</ele>
        <time>2020-07-03T14:27:46Z</time>
      </trkpt>
      <trkpt lat="47.1775100" lon="3.0163570">
        <ele>174.2</ele>
        <time>2020-07-03T14:28:13Z</time>
      </trkpt>
      <trkpt lat="47.1775380" lon="3.0163310">
        <ele>174.2</ele>
        <time>2020-07-03T14:28:38Z</time>
      </trkpt>
      <trkpt lat="47.1775690" lon="3.0163640">
        <ele>174.2</ele>
        <time>2020-07-03T14:28:48Z</time>
      </trkpt>
      <trkpt lat="47.1775710" lon="3.0163810">
        <ele>174.2</ele>
        <time>2020-07-03T14:28:51Z</time>
      </trkpt>
      <trkpt lat="47.1775760" lon="3.0163830">
        <ele>174.4</ele>
        <time>2020-07-03T14:29:04Z</time>
      </trkpt>
      <trkpt lat="47.1775860" lon="3.0163870">
        <ele>174.6</ele>
        <time>2020-07-03T14:29:09Z</time>
      </trkpt>
      <trkpt lat="47.1775720" lon="3.0163400">
        <ele>174.4</ele>
        <time>2020-07-03T14:29:22Z</time>
      </trkpt>
      <trkpt lat="47.1775420" lon="3.0163170">
        <ele>174.2</ele>
        <time>2020-07-03T14:29:37Z</time>
      </trkpt>
      <trkpt lat="47.1775270" lon="3.0162660">
        <ele>174.2</ele>
        <time>2020-07-03T14:29:51Z</time>
      </trkpt>
      <trkpt lat="47.1775070" lon="3.0162690">
        <ele>174.4</ele>
        <time>2020-07-03T14:30:11Z</time>
      </trkpt>
      <trkpt lat="47.1774890" lon="3.0162730">
        <ele>174.6</ele>
        <time>2020-07-03T14:30:22Z</time>
      </trkpt>
      <trkpt lat="47.1775210" lon="3.0162090">
        <ele>174.4</ele>
        <time>2020-07-03T14:30:37Z</time>
      </trkpt>
      <trkpt lat="47.1775210" lon="3.0161490">
        <ele>174.4</ele>
        <time>2020-07-03T14:30:45Z</time>
      </trkpt>
      <trkpt lat="47.1775210" lon="3.0161490">
        <ele>174.6</ele>
        <time>2020-07-03T14:30:55Z</time>
      </trkpt>
      <trkpt lat="47.1775420" lon="3.0161170">
        <ele>174.2</ele>
        <time>2020-07-03T14:31:13Z</time>
      </trkpt>
      <trkpt lat="47.1775400" lon="3.0161240">
        <ele>174.0</ele>
        <time>2020-07-03T14:31:34Z</time>
      </trkpt>
      <trkpt lat="47.1775370" lon="3.0161350">
        <ele>174.2</ele>
        <time>2020-07-03T14:31:41Z</time>
      </trkpt>
      <trkpt lat="47.1775230" lon="3.0161560">
        <ele>174.4</ele>
        <time>2020-07-03T14:32:00Z</time>
      </trkpt>
      <trkpt lat="47.1775280" lon="3.0161500">
        <ele>174.2</ele>
        <time>2020-07-03T14:32:22Z</time>
      </trkpt>
      <trkpt lat="47.1775300" lon="3.0161460">
        <ele>174.2</ele>
        <time>2020-07-03T14:32:25Z</time>
      </trkpt>
      <trkpt lat="47.1775270" lon="3.0161580">
        <ele>174.2</ele>
        <time>2020-07-03T14:32:39Z</time>
      </trkpt>
      <trkpt lat="47.1775200" lon="3.0161720">
        <ele>174.2</ele>
        <time>2020-07-03T14:32:55Z</time>
      </trkpt>
      <trkpt lat="47.1775250" lon="3.0161780">
        <ele>174.6</ele>
        <time>2020-07-03T14:33:09Z</time>
      </trkpt>
      <trkpt lat="47.1775280" lon="3.0161810">
        <ele>174.4</ele>
        <time>2020-07-03T14:33:19Z</time>
      </trkpt>
      <trkpt lat="47.1775170" lon="3.0162580">
        <ele>174.4</ele>
        <time>2020-07-03T14:33:32Z</time>
      </trkpt>
      <trkpt lat="47.1774960" lon="3.0163310">
        <ele>174.2</ele>
        <time>2020-07-03T14:33:48Z</time>
      </trkpt>
      <trkpt lat="47.1774900" lon="3.0163270">
        <ele>174.2</ele>
        <time>2020-07-03T14:33:54Z</time>
      </trkpt>
      <trkpt lat="47.1774920" lon="3.0163190">
        <ele>174.2</ele>
        <time>2020-07-03T14:34:07Z</time>
      </trkpt>
      <trkpt lat="47.1775020" lon="3.0163220">
        <ele>174.4</ele>
        <time>2020-07-03T14:34:36Z</time>
      </trkpt>
      <trkpt lat="47.1775050" lon="3.0163160">
        <ele>174.2</ele>
        <time>2020-07-03T14:34:44Z</time>
      </trkpt>
      <trkpt lat="47.1775060" lon="3.0163110">
        <ele>174.2</ele>
        <time>2020-07-03T14:34:55Z</time>
      </trkpt>
      <trkpt lat="47.1775090" lon="3.0163080">
        <ele>174.2</ele>
        <time>2020-07-03T14:35:14Z</time>
      </trkpt>
      <trkpt lat="47.1775100" lon="3.0163040">
        <ele>174.2</ele>
        <time>2020-07-03T14:35:16Z</time>
      </trkpt>
      <trkpt lat="47.1775100" lon="3.0162960">
        <ele>174.4</ele>
        <time>2020-07-03T14:35:35Z</time>
      </trkpt>
      <trkpt lat="47.1775120" lon="3.0162950">
        <ele>174.2</ele>
        <time>2020-07-03T14:35:46Z</time>
      </trkpt>
      <trkpt lat="47.1775170" lon="3.0162940">
        <ele>174.8</ele>
        <time>2020-07-03T14:36:07Z</time>
      </trkpt>
      <trkpt lat="47.1775210" lon="3.0162900">
        <ele>174.8</ele>
        <time>2020-07-03T14:36:24Z</time>
      </trkpt>
      <trkpt lat="47.1775240" lon="3.0162840">
        <ele>174.6</ele>
        <time>2020-07-03T14:36:45Z</time>
      </trkpt>
      <trkpt lat="47.1775250" lon="3.0162870">
        <ele>174.6</ele>
        <time>2020-07-03T14:37:08Z</time>
      </trkpt>
      <trkpt lat="47.1775130" lon="3.0162590">
        <ele>174.6</ele>
        <time>2020-07-03T14:37:14Z</time>
      </trkpt>
      <trkpt lat="47.1775010" lon="3.0161880">
        <ele>174.6</ele>
        <time>2020-07-03T14:37:27Z</time>
      </trkpt>
      <trkpt lat="47.1775040" lon="3.0161900">
        <ele>174.2</ele>
        <time>2020-07-03T14:37:36Z</time>
      </trkpt>
      <trkpt lat="47.1775040" lon="3.0161900">
        <ele>174.2</ele>
        <time>2020-07-03T14:37:37Z</time>
      </trkpt>
      <trkpt lat="47.1775060" lon="3.0161900">
        <ele>174.2</ele>
        <time>2020-07-03T14:37:49Z</time>
      </trkpt>
      <trkpt lat="47.1775070" lon="3.0161810">
        <ele>174.2</ele>
        <time>2020-07-03T14:38:06Z</time>
      </trkpt>
      <trkpt lat="47.1775010" lon="3.0161760">
        <ele>174.4</ele>
        <time>2020-07-03T14:38:25Z</time>
      </trkpt>
      <trkpt lat="47.1775010" lon="3.0161770">
        <ele>174.4</ele>
        <time>2020-07-03T14:38:48Z</time>
      </trkpt>
      <trkpt lat="47.1775010" lon="3.0161810">
        <ele>174.8</ele>
        <time>2020-07-03T14:39:19Z</time>
      </trkpt>
      <trkpt lat="47.1775060" lon="3.0161860">
        <ele>174.6</ele>
        <time>2020-07-03T14:39:53Z</time>
      </trkpt>
      <trkpt lat="47.1775100" lon="3.0161930">
        <ele>175.0</ele>
        <time>2020-07-03T14:40:21Z</time>
      </trkpt>
      <trkpt lat="47.1775120" lon="3.0162020">
        <ele>174.4</ele>
        <time>2020-07-03T14:40:44Z</time>
      </trkpt>
      <trkpt lat="47.1775160" lon="3.0162030">
        <ele>174.6</ele>
        <time>2020-07-03T14:41:13Z</time>
      </trkpt>
      <trkpt lat="47.1775130" lon="3.0162150">
        <ele>174.6</ele>
        <time>2020-07-03T14:41:29Z</time>
      </trkpt>
      <trkpt lat="47.1775090" lon="3.0162460">
        <ele>174.8</ele>
        <time>2020-07-03T14:41:51Z</time>
      </trkpt>
      <trkpt lat="47.1774970" lon="3.0162940">
        <ele>174.8</ele>
        <time>2020-07-03T14:42:07Z</time>
      </trkpt>
      <trkpt lat="47.1775000" lon="3.0163100">
        <ele>174.8</ele>
        <time>2020-07-03T14:42:30Z</time>
      </trkpt>
      <trkpt lat="47.1774980" lon="3.0163190">
        <ele>174.8</ele>
        <time>2020-07-03T14:42:44Z</time>
      </trkpt>
      <trkpt lat="47.1774990" lon="3.0163180">
        <ele>174.8</ele>
        <time>2020-07-03T14:42:51Z</time>
      </trkpt>
      <trkpt lat="47.1774940" lon="3.0163230">
        <ele>175.2</ele>
        <time>2020-07-03T14:43:09Z</time>
      </trkpt>
      <trkpt lat="47.1774930" lon="3.0163220">
        <ele>175.2</ele>
        <time>2020-07-03T14:43:34Z</time>
      </trkpt>
      <trkpt lat="47.1774980" lon="3.0163160">
        <ele>175.2</ele>
        <time>2020-07-03T14:43:54Z</time>
      </trkpt>
      <trkpt lat="47.1775110" lon="3.0163190">
        <ele>175.4</ele>
        <time>2020-07-03T14:44:13Z</time>
      </trkpt>
      <trkpt lat="47.1775070" lon="3.0162880">
        <ele>175.4</ele>
        <time>2020-07-03T14:44:31Z</time>
      </trkpt>
      <trkpt lat="47.1775170" lon="3.0162930">
        <ele>175.2</ele>
        <time>2020-07-03T14:44:52Z</time>
      </trkpt>
      <trkpt lat="47.1775030" lon="3.0162470">
        <ele>175.2</ele>
        <time>2020-07-03T14:45:09Z</time>
      </trkpt>
      <trkpt lat="47.1775070" lon="3.0162340">
        <ele>175.2</ele>
        <time>2020-07-03T14:45:29Z</time>
      </trkpt>
      <trkpt lat="47.1775130" lon="3.0162330">
        <ele>175.2</ele>
        <time>2020-07-03T14:45:52Z</time>
      </trkpt>
      <trkpt lat="47.1775080" lon="3.0162500">
        <ele>175.4</ele>
        <time>2020-07-03T14:46:18Z</time>
      </trkpt>
      <trkpt lat="47.1775130" lon="3.0162500">
        <ele>175.6</ele>
        <time>2020-07-03T14:46:55Z</time>
      </trkpt>
      <trkpt lat="47.1775160" lon="3.0162060">
        <ele>175.6</ele>
        <time>2020-07-03T14:47:13Z</time>
      </trkpt>
      <trkpt lat="47.1775190" lon="3.0161820">
        <ele>175.0</ele>
        <time>2020-07-03T14:47:36Z</time>
      </trkpt>
      <trkpt lat="47.1775200" lon="3.0161850">
        <ele>175.2</ele>
        <time>2020-07-03T14:48:10Z</time>
      </trkpt>
      <trkpt lat="47.1775150" lon="3.0161930">
        <ele>175.2</ele>
        <time>2020-07-03T14:48:30Z</time>
      </trkpt>
      <trkpt lat="47.1775170" lon="3.0162130">
        <ele>175.2</ele>
        <time>2020-07-03T14:48:52Z</time>
      </trkpt>
      <trkpt lat="47.1775200" lon="3.0162190">
        <ele>175.4</ele>
        <time>2020-07-03T14:49:19Z</time>
      </trkpt>
      <trkpt lat="47.1775210" lon="3.0162180">
        <ele>175.4</ele>
        <time>2020-07-03T14:49:34Z</time>
      </trkpt>
      <trkpt lat="47.1775230" lon="3.0162180">
        <ele>175.4</ele>
        <time>2020-07-03T14:49:45Z</time>
      </trkpt>
      <trkpt lat="47.1775300" lon="3.0162300">
        <ele>175.6</ele>
        <time>2020-07-03T14:50:09Z</time>
      </trkpt>
      <trkpt lat="47.1775290" lon="3.0162320">
        <ele>175.4</ele>
        <time>2020-07-03T14:50:41Z</time>
      </trkpt>
      <trkpt lat="47.1775300" lon="3.0162420">
        <ele>175.4</ele>
        <time>2020-07-03T14:51:18Z</time>
      </trkpt>
      <trkpt lat="47.1775300" lon="3.0162430">
        <ele>175.4</ele>
        <time>2020-07-03T14:51:19Z</time>
      </trkpt>
      <trkpt lat="47.1775300" lon="3.0162430">
        <ele>175.4</ele>
        <time>2020-07-03T14:51:21Z</time>
      </trkpt>
      <trkpt lat="47.1775280" lon="3.0162270">
        <ele>175.4</ele>
        <time>2020-07-03T14:51:31Z</time>
      </trkpt>
      <trkpt lat="47.1775140" lon="3.0162320">
        <ele>175.4</ele>
        <time>2020-07-03T14:51:50Z</time>
      </trkpt>
      <trkpt lat="47.1775130" lon="3.0162350">
        <ele>175.4</ele>
        <time>2020-07-03T14:51:55Z</time>
      </trkpt>
      <trkpt lat="47.1775130" lon="3.0162360">
        <ele>175.4</ele>
        <time>2020-07-03T14:52:01Z</time>
      </trkpt>
      <trkpt lat="47.1775060" lon="3.0162460">
        <ele>175.6</ele>
        <time>2020-07-03T14:52:17Z</time>
      </trkpt>
      <trkpt lat="47.1775060" lon="3.0162630">
        <ele>175.6</ele>
        <time>2020-07-03T14:52:40Z</time>
      </trkpt>
      <trkpt lat="47.1775080" lon="3.0162720">
        <ele>175.6</ele>
        <time>2020-07-03T14:53:12Z</time>
      </trkpt>
      <trkpt lat="47.1774860" lon="3.0162700">
        <ele>175.6</ele>
        <time>2020-07-03T14:53:28Z</time>
      </trkpt>
      <trkpt lat="47.1775100" lon="3.0163030">
        <ele>175.6</ele>
        <time>2020-07-03T14:53:48Z</time>
      </trkpt>
      <trkpt lat="47.1775330" lon="3.0163130">
        <ele>175.6</ele>
        <time>2020-07-03T14:54:05Z</time>
      </trkpt>
      <trkpt lat="47.1775420" lon="3.0162950">
        <ele>175.6</ele>
        <time>2020-07-03T14:54:20Z</time>
      </trkpt>
      <trkpt lat="47.1775620" lon="3.0162820">
        <ele>175.6</ele>
        <time>2020-07-03T14:54:39Z</time>
      </trkpt>
      <trkpt lat="47.1775700" lon="3.0162920">
        <ele>175.6</ele>
        <time>2020-07-03T14:55:11Z</time>
      </trkpt>
      <trkpt lat="47.1775790" lon="3.0162830">
        <ele>175.6</ele>
        <time>2020-07-03T14:55:28Z</time>
      </trkpt>
      <trkpt lat="47.1775830" lon="3.0163040">
        <ele>175.4</ele>
        <time>2020-07-03T14:55:44Z</time>
      </trkpt>
      <trkpt lat="47.1775790" lon="3.0162940">
        <ele>175.6</ele>
        <time>2020-07-03T14:56:01Z</time>
      </trkpt>
      <trkpt lat="47.1775560" lon="3.0162670">
        <ele>175.6</ele>
        <time>2020-07-03T14:56:16Z</time>
      </trkpt>
      <trkpt lat="47.1775590" lon="3.0162690">
        <ele>175.6</ele>
        <time>2020-07-03T14:56:32Z</time>
      </trkpt>
      <trkpt lat="47.1775720" lon="3.0162770">
        <ele>175.8</ele>
        <time>2020-07-03T14:56:53Z</time>
      </trkpt>
      <trkpt lat="47.1775780" lon="3.0162830">
        <ele>175.8</ele>
        <time>2020-07-03T14:57:20Z</time>
      </trkpt>
      <trkpt lat="47.1775790" lon="3.0162850">
        <ele>175.8</ele>
        <time>2020-07-03T14:57:28Z</time>
      </trkpt>
      <trkpt lat="47.1775850" lon="3.0163430">
        <ele>176.0</ele>
        <time>2020-07-03T14:57:45Z</time>
      </trkpt>
      <trkpt lat="47.1775840" lon="3.0164180">
        <ele>176.2</ele>
        <time>2020-07-03T14:58:03Z</time>
      </trkpt>
      <trkpt lat="47.1775910" lon="3.0164300">
        <ele>176.2</ele>
        <time>2020-07-03T14:58:25Z</time>
      </trkpt>
      <trkpt lat="47.1775930" lon="3.0164490">
        <ele>175.8</ele>
        <time>2020-07-03T14:58:42Z</time>
      </trkpt>
      <trkpt lat="47.1775940" lon="3.0164540">
        <ele>175.8</ele>
        <time>2020-07-03T14:59:05Z</time>
      </trkpt>
      <trkpt lat="47.1775910" lon="3.0164110">
        <ele>175.6</ele>
        <time>2020-07-03T14:59:21Z</time>
      </trkpt>
      <trkpt lat="47.1775710" lon="3.0163610">
        <ele>175.8</ele>
        <time>2020-07-03T14:59:40Z</time>
      </trkpt>
      <trkpt lat="47.1775660" lon="3.0163650">
        <ele>176.0</ele>
        <time>2020-07-03T14:59:57Z</time>
      </trkpt>
      <trkpt lat="47.1775690" lon="3.0163410">
        <ele>175.8</ele>
        <time>2020-07-03T15:00:13Z</time>
      </trkpt>
      <trkpt lat="47.1775740" lon="3.0163250">
        <ele>176.0</ele>
        <time>2020-07-03T15:00:31Z</time>
      </trkpt>
      <trkpt lat="47.1775710" lon="3.0162660">
        <ele>176.0</ele>
        <time>2020-07-03T15:00:47Z</time>
      </trkpt>
      <trkpt lat="47.1775750" lon="3.0162190">
        <ele>176.0</ele>
        <time>2020-07-03T15:01:01Z</time>
      </trkpt>
      <trkpt lat="47.1775280" lon="3.0161730">
        <ele>176.0</ele>
        <time>2020-07-03T15:01:15Z</time>
      </trkpt>
      <trkpt lat="47.1775400" lon="3.0161530">
        <ele>176.0</ele>
        <time>2020-07-03T15:01:30Z</time>
      </trkpt>
      <trkpt lat="47.1775460" lon="3.0162060">
        <ele>176.0</ele>
        <time>2020-07-03T15:01:41Z</time>
      </trkpt>
      <trkpt lat="47.1775380" lon="3.0162090">
        <ele>176.0</ele>
        <time>2020-07-03T15:01:56Z</time>
      </trkpt>
      <trkpt lat="47.1775270" lon="3.0161820">
        <ele>176.0</ele>
        <time>2020-07-03T15:02:12Z</time>
      </trkpt>
      <trkpt lat="47.1775040" lon="3.0161310">
        <ele>176.2</ele>
        <time>2020-07-03T15:02:31Z</time>
      </trkpt>
      <trkpt lat="47.1774990" lon="3.0161390">
        <ele>175.8</ele>
        <time>2020-07-03T15:02:46Z</time>
      </trkpt>
      <trkpt lat="47.1775440" lon="3.0161370">
        <ele>175.8</ele>
        <time>2020-07-03T15:03:02Z</time>
      </trkpt>
      <trkpt lat="47.1775620" lon="3.0161260">
        <ele>175.6</ele>
        <time>2020-07-03T15:03:16Z</time>
      </trkpt>
      <trkpt lat="47.1775910" lon="3.0161070">
        <ele>176.0</ele>
        <time>2020-07-03T15:03:29Z</time>
      </trkpt>
      <trkpt lat="47.1776100" lon="3.0161550">
        <ele>175.8</ele>
        <time>2020-07-03T15:03:40Z</time>
      </trkpt>
      <trkpt lat="47.1776140" lon="3.0162380">
        <ele>176.0</ele>
        <time>2020-07-03T15:03:56Z</time>
      </trkpt>
      <trkpt lat="47.1776420" lon="3.0163170">
        <ele>176.2</ele>
        <time>2020-07-03T15:04:11Z</time>
      </trkpt>
      <trkpt lat="47.1776550" lon="3.0162960">
        <ele>176.2</ele>
        <time>2020-07-03T15:04:25Z</time>
      </trkpt>
      <trkpt lat="47.1776830" lon="3.0164190">
        <ele>176.4</ele>
        <time>2020-07-03T15:04:39Z</time>
      </trkpt>
      <trkpt lat="47.1776900" lon="3.0163840">
        <ele>176.4</ele>
        <time>2020-07-03T15:04:49Z</time>
      </trkpt>
      <trkpt lat="47.1776470" lon="3.0162470">
        <ele>176.6</ele>
        <time>2020-07-03T15:05:01Z</time>
      </trkpt>
      <trkpt lat="47.1776300" lon="3.0162250">
        <ele>176.4</ele>
        <time>2020-07-03T15:05:14Z</time>
      </trkpt>
      <trkpt lat="47.1776000" lon="3.0162530">
        <ele>176.4</ele>
        <time>2020-07-03T15:05:28Z</time>
      </trkpt>
      <trkpt lat="47.1775990" lon="3.0162580">
        <ele>176.6</ele>
        <time>2020-07-03T15:05:43Z</time>
      </trkpt>
      <trkpt lat="47.1776100" lon="3.0162580">
        <ele>176.6</ele>
        <time>2020-07-03T15:05:47Z</time>
      </trkpt>
      <trkpt lat="47.1776360" lon="3.0162400">
        <ele>176.8</ele>
        <time>2020-07-03T15:05:51Z</time>
      </trkpt>
      <trkpt lat="47.1776310" lon="3.0162430">
        <ele>176.8</ele>
        <time>2020-07-03T15:05:54Z</time>
      </trkpt>
      <trkpt lat="47.1776270" lon="3.0162480">
        <ele>176.6</ele>
        <time>2020-07-03T15:05:55Z</time>
      </trkpt>
      <trkpt lat="47.1776230" lon="3.0162470">
        <ele>176.6</ele>
        <time>2020-07-03T15:05:56Z</time>
      </trkpt>
      <trkpt lat="47.1776210" lon="3.0162580">
        <ele>176.6</ele>
        <time>2020-07-03T15:05:57Z</time>
      </trkpt>
      <trkpt lat="47.1776470" lon="3.0162840">
        <ele>176.8</ele>
        <time>2020-07-03T15:06:04Z</time>
      </trkpt>
      <trkpt lat="47.1776560" lon="3.0162300">
        <ele>176.8</ele>
        <time>2020-07-03T15:06:14Z</time>
      </trkpt>
      <trkpt lat="47.1776340" lon="3.0160730">
        <ele>176.6</ele>
        <time>2020-07-03T15:06:28Z</time>
      </trkpt>
      <trkpt lat="47.1776300" lon="3.0160310">
        <ele>176.6</ele>
        <time>2020-07-03T15:06:30Z</time>
      </trkpt>
      <trkpt lat="47.1776300" lon="3.0158780">
        <ele>176.6</ele>
        <time>2020-07-03T15:06:39Z</time>
      </trkpt>
      <trkpt lat="47.1776220" lon="3.0158570">
        <ele>176.4</ele>
        <time>2020-07-03T15:06:46Z</time>
      </trkpt>
      <trkpt lat="47.1776150" lon="3.0160060">
        <ele>176.4</ele>
        <time>2020-07-03T15:06:58Z</time>
      </trkpt>
      <trkpt lat="47.1775870" lon="3.0160450">
        <ele>176.4</ele>
        <time>2020-07-03T15:07:14Z</time>
      </trkpt>
      <trkpt lat="47.1775780" lon="3.0160530">
        <ele>176.2</ele>
        <time>2020-07-03T15:07:31Z</time>
      </trkpt>
      <trkpt lat="47.1775770" lon="3.0160520">
        <ele>176.0</ele>
        <time>2020-07-03T15:07:34Z</time>
      </trkpt>
      <trkpt lat="47.1775830" lon="3.0160500">
        <ele>176.2</ele>
        <time>2020-07-03T15:07:49Z</time>
      </trkpt>
      <trkpt lat="47.1775770" lon="3.0160620">
        <ele>176.4</ele>
        <time>2020-07-03T15:08:06Z</time>
      </trkpt>
      <trkpt lat="47.1775510" lon="3.0161040">
        <ele>176.2</ele>
        <time>2020-07-03T15:08:15Z</time>
      </trkpt>
      <trkpt lat="47.1775550" lon="3.0161110">
        <ele>176.0</ele>
        <time>2020-07-03T15:08:26Z</time>
      </trkpt>
      <trkpt lat="47.1775810" lon="3.0160950">
        <ele>176.0</ele>
        <time>2020-07-03T15:08:37Z</time>
      </trkpt>
      <trkpt lat="47.1775950" lon="3.0160840">
        <ele>175.8</ele>
        <time>2020-07-03T15:08:58Z</time>
      </trkpt>
      <trkpt lat="47.1775630" lon="3.0160620">
        <ele>176.0</ele>
        <time>2020-07-03T15:09:12Z</time>
      </trkpt>
      <trkpt lat="47.1775540" lon="3.0160300">
        <ele>176.0</ele>
        <time>2020-07-03T15:09:13Z</time>
      </trkpt>
      <trkpt lat="47.1775420" lon="3.0160050">
        <ele>176.0</ele>
        <time>2020-07-03T15:09:14Z</time>
      </trkpt>
      <trkpt lat="47.1775190" lon="3.0159510">
        <ele>175.8</ele>
        <time>2020-07-03T15:09:17Z</time>
      </trkpt>
      <trkpt lat="47.1775170" lon="3.0159250">
        <ele>175.8</ele>
        <time>2020-07-03T15:09:18Z</time>
      </trkpt>
      <trkpt lat="47.1775400" lon="3.0158240">
        <ele>175.2</ele>
        <time>2020-07-03T15:09:22Z</time>
      </trkpt>
      <trkpt lat="47.1775470" lon="3.0157650">
        <ele>174.4</ele>
        <time>2020-07-03T15:09:24Z</time>
      </trkpt>
      <trkpt lat="47.1775410" lon="3.0156800">
        <ele>173.8</ele>
        <time>2020-07-03T15:09:27Z</time>
      </trkpt>
      <trkpt lat="47.1775470" lon="3.0155990">
        <ele>173.2</ele>
        <time>2020-07-03T15:09:33Z</time>
      </trkpt>
      <trkpt lat="47.1775480" lon="3.0155410">
        <ele>173.2</ele>
        <time>2020-07-03T15:09:38Z</time>
      </trkpt>
      <trkpt lat="47.1775550" lon="3.0155050">
        <ele>173.4</ele>
        <time>2020-07-03T15:09:40Z</time>
      </trkpt>
      <trkpt lat="47.1775540" lon="3.0154610">
        <ele>173.4</ele>
        <time>2020-07-03T15:09:43Z</time>
      </trkpt>
      <trkpt lat="47.1775580" lon="3.0154580">
        <ele>173.2</ele>
        <time>2020-07-03T15:09:44Z</time>
      </trkpt>
      <trkpt lat="47.1775100" lon="3.0154120">
        <ele>174.0</ele>
        <time>2020-07-03T15:09:52Z</time>
      </trkpt>
      <trkpt lat="47.1774730" lon="3.0153450">
        <ele>174.2</ele>
        <time>2020-07-03T15:09:59Z</time>
      </trkpt>
      <trkpt lat="47.1774470" lon="3.0153140">
        <ele>174.2</ele>
        <time>2020-07-03T15:10:01Z</time>
      </trkpt>
      <trkpt lat="47.1774150" lon="3.0152280">
        <ele>174.4</ele>
        <time>2020-07-03T15:10:07Z</time>
      </trkpt>
      <trkpt lat="47.1774200" lon="3.0152070">
        <ele>174.4</ele>
        <time>2020-07-03T15:10:08Z</time>
      </trkpt>
      <trkpt lat="47.1774100" lon="3.0151700">
        <ele>174.6</ele>
        <time>2020-07-03T15:10:10Z</time>
      </trkpt>
      <trkpt lat="47.1773770" lon="3.0151150">
        <ele>174.6</ele>
        <time>2020-07-03T15:10:12Z</time>
      </trkpt>
      <trkpt lat="47.1773640" lon="3.0150890">
        <ele>174.8</ele>
        <time>2020-07-03T15:10:13Z</time>
      </trkpt>
      <trkpt lat="47.1772880" lon="3.0148980">
        <ele>175.0</ele>
        <time>2020-07-03T15:10:17Z</time>
      </trkpt>
      <trkpt lat="47.1771260" lon="3.0144800">
        <ele>175.4</ele>
        <time>2020-07-03T15:10:23Z</time>
      </trkpt>
      <trkpt lat="47.1768840" lon="3.0138210">
        <ele>175.8</ele>
        <time>2020-07-03T15:10:33Z</time>
      </trkpt>
      <trkpt lat="47.1766930" lon="3.0133280">
        <ele>175.8</ele>
        <time>2020-07-03T15:10:40Z</time>
      </trkpt>
      <trkpt lat="47.1766080" lon="3.0131200">
        <ele>175.6</ele>
        <time>2020-07-03T15:10:43Z</time>
      </trkpt>
      <trkpt lat="47.1763770" lon="3.0124880">
        <ele>174.6</ele>
        <time>2020-07-03T15:10:53Z</time>
      </trkpt>
      <trkpt lat="47.1763350" lon="3.0123650">
        <ele>174.4</ele>
        <time>2020-07-03T15:10:55Z</time>
      </trkpt>
      <trkpt lat="47.1762530" lon="3.0121520">
        <ele>174.2</ele>
        <time>2020-07-03T15:10:58Z</time>
      </trkpt>
      <trkpt lat="47.1762230" lon="3.0120720">
        <ele>174.2</ele>
        <time>2020-07-03T15:10:59Z</time>
      </trkpt>
      <trkpt lat="47.1761980" lon="3.0119880">
        <ele>174.0</ele>
        <time>2020-07-03T15:11:00Z</time>
      </trkpt>
      <trkpt lat="47.1761390" lon="3.0118190">
        <ele>173.6</ele>
        <time>2020-07-03T15:11:02Z</time>
      </trkpt>
      <trkpt lat="47.1761070" lon="3.0117350">
        <ele>173.4</ele>
        <time>2020-07-03T15:11:03Z</time>
      </trkpt>
      <trkpt lat="47.1760480" lon="3.0115610">
        <ele>172.4</ele>
        <time>2020-07-03T15:11:05Z</time>
      </trkpt>
      <trkpt lat="47.1759940" lon="3.0113860">
        <ele>171.2</ele>
        <time>2020-07-03T15:11:07Z</time>
      </trkpt>
      <trkpt lat="47.1759800" lon="3.0112910">
        <ele>170.8</ele>
        <time>2020-07-03T15:11:08Z</time>
      </trkpt>
      <trkpt lat="47.1759600" lon="3.0111200">
        <ele>170.2</ele>
        <time>2020-07-03T15:11:10Z</time>
      </trkpt>
      <trkpt lat="47.1758400" lon="3.0107380">
        <ele>170.0</ele>
        <time>2020-07-03T15:11:16Z</time>
      </trkpt>
      <trkpt lat="47.1757040" lon="3.0105150">
        <ele>170.2</ele>
        <time>2020-07-03T15:11:21Z</time>
      </trkpt>
      <trkpt lat="47.1756670" lon="3.0104480">
        <ele>170.6</ele>
        <time>2020-07-03T15:11:23Z</time>
      </trkpt>
      <trkpt lat="47.1756170" lon="3.0104290">
        <ele>172.0</ele>
        <time>2020-07-03T15:11:27Z</time>
      </trkpt>
      <trkpt lat="47.1756030" lon="3.0104580">
        <ele>174.0</ele>
        <time>2020-07-03T15:11:40Z</time>
      </trkpt>
      <trkpt lat="47.1755840" lon="3.0104260">
        <ele>174.0</ele>
        <time>2020-07-03T15:12:01Z</time>
      </trkpt>
      <trkpt lat="47.1755750" lon="3.0104040">
        <ele>173.8</ele>
        <time>2020-07-03T15:12:02Z</time>
      </trkpt>
      <trkpt lat="47.1755210" lon="3.0102680">
        <ele>174.0</ele>
        <time>2020-07-03T15:12:06Z</time>
      </trkpt>
      <trkpt lat="47.1753530" lon="3.0098500">
        <ele>173.8</ele>
        <time>2020-07-03T15:12:16Z</time>
      </trkpt>
      <trkpt lat="47.1751420" lon="3.0093270">
        <ele>173.6</ele>
        <time>2020-07-03T15:12:27Z</time>
      </trkpt>
      <trkpt lat="47.1751200" lon="3.0092730">
        <ele>173.6</ele>
        <time>2020-07-03T15:12:28Z</time>
      </trkpt>
      <trkpt lat="47.1750970" lon="3.0092200">
        <ele>173.6</ele>
        <time>2020-07-03T15:12:29Z</time>
      </trkpt>
      <trkpt lat="47.1750490" lon="3.0091100">
        <ele>173.4</ele>
        <time>2020-07-03T15:12:31Z</time>
      </trkpt>
      <trkpt lat="47.1749070" lon="3.0087500">
        <ele>173.0</ele>
        <time>2020-07-03T15:12:37Z</time>
      </trkpt>
      <trkpt lat="47.1747470" lon="3.0083790">
        <ele>172.4</ele>
        <time>2020-07-03T15:12:43Z</time>
      </trkpt>
      <trkpt lat="47.1746520" lon="3.0082060">
        <ele>172.2</ele>
        <time>2020-07-03T15:12:46Z</time>
      </trkpt>
      <trkpt lat="47.1745790" lon="3.0081160">
        <ele>172.2</ele>
        <time>2020-07-03T15:12:48Z</time>
      </trkpt>
      <trkpt lat="47.1744940" lon="3.0080740">
        <ele>172.0</ele>
        <time>2020-07-03T15:12:50Z</time>
      </trkpt>
      <trkpt lat="47.1743950" lon="3.0080840">
        <ele>171.8</ele>
        <time>2020-07-03T15:12:52Z</time>
      </trkpt>
      <trkpt lat="47.1743440" lon="3.0081010">
        <ele>172.0</ele>
        <time>2020-07-03T15:12:53Z</time>
      </trkpt>
      <trkpt lat="47.1742900" lon="3.0081210">
        <ele>171.8</ele>
        <time>2020-07-03T15:12:54Z</time>
      </trkpt>
      <trkpt lat="47.1741710" lon="3.0081590">
        <ele>171.8</ele>
        <time>2020-07-03T15:12:56Z</time>
      </trkpt>
      <trkpt lat="47.1739190" lon="3.0082020">
        <ele>171.4</ele>
        <time>2020-07-03T15:13:00Z</time>
      </trkpt>
      <trkpt lat="47.1733220" lon="3.0082750">
        <ele>168.6</ele>
        <time>2020-07-03T15:13:09Z</time>
      </trkpt>
      <trkpt lat="47.1731890" lon="3.0082890">
        <ele>168.4</ele>
        <time>2020-07-03T15:13:11Z</time>
      </trkpt>
      <trkpt lat="47.1726280" lon="3.0083330">
        <ele>168.4</ele>
        <time>2020-07-03T15:13:19Z</time>
      </trkpt>
      <trkpt lat="47.1724950" lon="3.0083440">
        <ele>168.4</ele>
        <time>2020-07-03T15:13:21Z</time>
      </trkpt>
      <trkpt lat="47.1719420" lon="3.0084680">
        <ele>168.4</ele>
        <time>2020-07-03T15:13:29Z</time>
      </trkpt>
      <trkpt lat="47.1718680" lon="3.0084830">
        <ele>168.2</ele>
        <time>2020-07-03T15:13:30Z</time>
      </trkpt>
      <trkpt lat="47.1712710" lon="3.0086070">
        <ele>168.4</ele>
        <time>2020-07-03T15:13:38Z</time>
      </trkpt>
      <trkpt lat="47.1711170" lon="3.0086360">
        <ele>168.2</ele>
        <time>2020-07-03T15:13:40Z</time>
      </trkpt>
      <trkpt lat="47.1705580" lon="3.0087430">
        <ele>168.0</ele>
        <time>2020-07-03T15:13:47Z</time>
      </trkpt>
      <trkpt lat="47.1703980" lon="3.0087680">
        <ele>168.0</ele>
        <time>2020-07-03T15:13:49Z</time>
      </trkpt>
      <trkpt lat="47.1702400" lon="3.0088020">
        <ele>168.0</ele>
        <time>2020-07-03T15:13:51Z</time>
      </trkpt>
      <trkpt lat="47.1698630" lon="3.0088670">
        <ele>167.8</ele>
        <time>2020-07-03T15:13:56Z</time>
      </trkpt>
      <trkpt lat="47.1692840" lon="3.0089510">
        <ele>168.6</ele>
        <time>2020-07-03T15:14:04Z</time>
      </trkpt>
      <trkpt lat="47.1687210" lon="3.0090540">
        <ele>169.0</ele>
        <time>2020-07-03T15:14:12Z</time>
      </trkpt>
      <trkpt lat="47.1682990" lon="3.0091210">
        <ele>169.0</ele>
        <time>2020-07-03T15:14:18Z</time>
      </trkpt>
      <trkpt lat="47.1678180" lon="3.0091150">
        <ele>169.0</ele>
        <time>2020-07-03T15:14:25Z</time>
      </trkpt>
      <trkpt lat="47.1673380" lon="3.0089740">
        <ele>168.8</ele>
        <time>2020-07-03T15:14:32Z</time>
      </trkpt>
      <trkpt lat="47.1670000" lon="3.0088190">
        <ele>168.6</ele>
        <time>2020-07-03T15:14:37Z</time>
      </trkpt>
      <trkpt lat="47.1668030" lon="3.0087240">
        <ele>168.6</ele>
        <time>2020-07-03T15:14:40Z</time>
      </trkpt>
      <trkpt lat="47.1665510" lon="3.0086090">
        <ele>168.6</ele>
        <time>2020-07-03T15:14:44Z</time>
      </trkpt>
      <trkpt lat="47.1661050" lon="3.0085200">
        <ele>168.4</ele>
        <time>2020-07-03T15:14:51Z</time>
      </trkpt>
      <trkpt lat="47.1655580" lon="3.0085590">
        <ele>168.8</ele>
        <time>2020-07-03T15:14:59Z</time>
      </trkpt>
      <trkpt lat="47.1654220" lon="3.0085860">
        <ele>168.6</ele>
        <time>2020-07-03T15:15:01Z</time>
      </trkpt>
      <trkpt lat="47.1648220" lon="3.0086940">
        <ele>168.6</ele>
        <time>2020-07-03T15:15:10Z</time>
      </trkpt>
      <trkpt lat="47.1646260" lon="3.0087280">
        <ele>168.6</ele>
        <time>2020-07-03T15:15:13Z</time>
      </trkpt>
      <trkpt lat="47.1645600" lon="3.0087400">
        <ele>168.4</ele>
        <time>2020-07-03T15:15:14Z</time>
      </trkpt>
      <trkpt lat="47.1644970" lon="3.0087510">
        <ele>168.4</ele>
        <time>2020-07-03T15:15:15Z</time>
      </trkpt>
      <trkpt lat="47.1644350" lon="3.0087610">
        <ele>168.4</ele>
        <time>2020-07-03T15:15:16Z</time>
      </trkpt>
      <trkpt lat="47.1643720" lon="3.0087700">
        <ele>168.6</ele>
        <time>2020-07-03T15:15:17Z</time>
      </trkpt>
      <trkpt lat="47.1642460" lon="3.0087870">
        <ele>168.6</ele>
        <time>2020-07-03T15:15:19Z</time>
      </trkpt>
      <trkpt lat="47.1641830" lon="3.0087980">
        <ele>168.8</ele>
        <time>2020-07-03T15:15:20Z</time>
      </trkpt>
      <trkpt lat="47.1637590" lon="3.0088370">
        <ele>168.8</ele>
        <time>2020-07-03T15:15:27Z</time>
      </trkpt>
      <trkpt lat="47.1633920" lon="3.0088220">
        <ele>168.8</ele>
        <time>2020-07-03T15:15:33Z</time>
      </trkpt>
      <trkpt lat="47.1629600" lon="3.0087880">
        <ele>169.0</ele>
        <time>2020-07-03T15:15:40Z</time>
      </trkpt>
      <trkpt lat="47.1628370" lon="3.0087840">
        <ele>168.8</ele>
        <time>2020-07-03T15:15:42Z</time>
      </trkpt>
      <trkpt lat="47.1623340" lon="3.0087590">
        <ele>169.0</ele>
        <time>2020-07-03T15:15:50Z</time>
      </trkpt>
      <trkpt lat="47.1621390" lon="3.0087450">
        <ele>169.0</ele>
        <time>2020-07-03T15:15:53Z</time>
      </trkpt>
      <trkpt lat="47.1615420" lon="3.0087130">
        <ele>169.0</ele>
        <time>2020-07-03T15:16:02Z</time>
      </trkpt>
      <trkpt lat="47.1614100" lon="3.0087070">
        <ele>168.8</ele>
        <time>2020-07-03T15:16:04Z</time>
      </trkpt>
      <trkpt lat="47.1612820" lon="3.0086980">
        <ele>169.0</ele>
        <time>2020-07-03T15:16:06Z</time>
      </trkpt>
      <trkpt lat="47.1607140" lon="3.0086730">
        <ele>168.8</ele>
        <time>2020-07-03T15:16:15Z</time>
      </trkpt>
      <trkpt lat="47.1605240" lon="3.0086500">
        <ele>168.8</ele>
        <time>2020-07-03T15:16:18Z</time>
      </trkpt>
      <trkpt lat="47.1599590" lon="3.0085540">
        <ele>169.0</ele>
        <time>2020-07-03T15:16:27Z</time>
      </trkpt>
      <trkpt lat="47.1596580" lon="3.0085190">
        <ele>168.8</ele>
        <time>2020-07-03T15:16:32Z</time>
      </trkpt>
      <trkpt lat="47.1594930" lon="3.0084970">
        <ele>169.0</ele>
        <time>2020-07-03T15:16:35Z</time>
      </trkpt>
      <trkpt lat="47.1593760" lon="3.0085150">
        <ele>169.0</ele>
        <time>2020-07-03T15:16:38Z</time>
      </trkpt>
      <trkpt lat="47.1593090" lon="3.0086360">
        <ele>169.2</ele>
        <time>2020-07-03T15:16:41Z</time>
      </trkpt>
      <trkpt lat="47.1592960" lon="3.0086980">
        <ele>169.2</ele>
        <time>2020-07-03T15:16:42Z</time>
      </trkpt>
      <trkpt lat="47.1592720" lon="3.0089850">
        <ele>170.0</ele>
        <time>2020-07-03T15:16:46Z</time>
      </trkpt>
      <trkpt lat="47.1592310" lon="3.0097750">
        <ele>170.6</ele>
        <time>2020-07-03T15:16:57Z</time>
      </trkpt>
      <trkpt lat="47.1592310" lon="3.0104050">
        <ele>170.6</ele>
        <time>2020-07-03T15:17:07Z</time>
      </trkpt>
      <trkpt lat="47.1592610" lon="3.0106600">
        <ele>170.8</ele>
        <time>2020-07-03T15:17:12Z</time>
      </trkpt>
      <trkpt lat="47.1592740" lon="3.0107060">
        <ele>170.8</ele>
        <time>2020-07-03T15:17:13Z</time>
      </trkpt>
      <trkpt lat="47.1593000" lon="3.0107850">
        <ele>170.8</ele>
        <time>2020-07-03T15:17:15Z</time>
      </trkpt>
      <trkpt lat="47.1593150" lon="3.0108210">
        <ele>170.8</ele>
        <time>2020-07-03T15:17:16Z</time>
      </trkpt>
      <trkpt lat="47.1593350" lon="3.0109390">
        <ele>171.0</ele>
        <time>2020-07-03T15:17:20Z</time>
      </trkpt>
      <trkpt lat="47.1592600" lon="3.0110210">
        <ele>172.2</ele>
        <time>2020-07-03T15:17:26Z</time>
      </trkpt>
      <trkpt lat="47.1592210" lon="3.0110360">
        <ele>173.6</ele>
        <time>2020-07-03T15:17:32Z</time>
      </trkpt>
      <trkpt lat="47.1592250" lon="3.0110470">
        <ele>173.6</ele>
        <time>2020-07-03T15:17:46Z</time>
      </trkpt>
      <trkpt lat="47.1592190" lon="3.0110460">
        <ele>173.8</ele>
        <time>2020-07-03T15:18:10Z</time>
      </trkpt>
      <trkpt lat="47.1592110" lon="3.0110380">
        <ele>173.8</ele>
        <time>2020-07-03T15:18:38Z</time>
      </trkpt>
      <trkpt lat="47.1591620" lon="3.0110250">
        <ele>173.8</ele>
        <time>2020-07-03T15:18:54Z</time>
      </trkpt>
      <trkpt lat="47.1590370" lon="3.0110620">
        <ele>174.0</ele>
        <time>2020-07-03T15:18:59Z</time>
      </trkpt>
      <trkpt lat="47.1587820" lon="3.0111510">
        <ele>173.8</ele>
        <time>2020-07-03T15:19:06Z</time>
      </trkpt>
      <trkpt lat="47.1585910" lon="3.0112070">
        <ele>173.6</ele>
        <time>2020-07-03T15:19:10Z</time>
      </trkpt>
      <trkpt lat="47.1583840" lon="3.0112570">
        <ele>173.6</ele>
        <time>2020-07-03T15:19:14Z</time>
      </trkpt>
      <trkpt lat="47.1583300" lon="3.0112670">
        <ele>173.6</ele>
        <time>2020-07-03T15:19:15Z</time>
      </trkpt>
      <trkpt lat="47.1577510" lon="3.0114370">
        <ele>173.6</ele>
        <time>2020-07-03T15:19:26Z</time>
      </trkpt>
      <trkpt lat="47.1572140" lon="3.0116470">
        <ele>173.4</ele>
        <time>2020-07-03T15:19:36Z</time>
      </trkpt>
      <trkpt lat="47.1569890" lon="3.0117380">
        <ele>173.2</ele>
        <time>2020-07-03T15:19:40Z</time>
      </trkpt>
      <trkpt lat="47.1565180" lon="3.0118890">
        <ele>172.6</ele>
        <time>2020-07-03T15:19:48Z</time>
      </trkpt>
      <trkpt lat="47.1559470" lon="3.0120430">
        <ele>172.2</ele>
        <time>2020-07-03T15:19:58Z</time>
      </trkpt>
      <trkpt lat="47.1554550" lon="3.0119780">
        <ele>172.4</ele>
        <time>2020-07-03T15:20:06Z</time>
      </trkpt>
      <trkpt lat="47.1550220" lon="3.0120050">
        <ele>172.6</ele>
        <time>2020-07-03T15:20:13Z</time>
      </trkpt>
      <trkpt lat="47.1546220" lon="3.0122220">
        <ele>172.4</ele>
        <time>2020-07-03T15:20:20Z</time>
      </trkpt>
      <trkpt lat="47.1544610" lon="3.0123410">
        <ele>172.6</ele>
        <time>2020-07-03T15:20:23Z</time>
      </trkpt>
      <trkpt lat="47.1539820" lon="3.0127140">
        <ele>172.8</ele>
        <time>2020-07-03T15:20:32Z</time>
      </trkpt>
      <trkpt lat="47.1534670" lon="3.0131450">
        <ele>173.0</ele>
        <time>2020-07-03T15:20:42Z</time>
      </trkpt>
      <trkpt lat="47.1533620" lon="3.0132190">
        <ele>172.8</ele>
        <time>2020-07-03T15:20:44Z</time>
      </trkpt>
      <trkpt lat="47.1530150" lon="3.0133390">
        <ele>172.8</ele>
        <time>2020-07-03T15:20:50Z</time>
      </trkpt>
      <trkpt lat="47.1527720" lon="3.0133610">
        <ele>172.8</ele>
        <time>2020-07-03T15:20:54Z</time>
      </trkpt>
      <trkpt lat="47.1524640" lon="3.0133500">
        <ele>172.6</ele>
        <time>2020-07-03T15:20:59Z</time>
      </trkpt>
      <trkpt lat="47.1519220" lon="3.0132530">
        <ele>172.6</ele>
        <time>2020-07-03T15:21:08Z</time>
      </trkpt>
      <trkpt lat="47.1518050" lon="3.0132220">
        <ele>172.6</ele>
        <time>2020-07-03T15:21:10Z</time>
      </trkpt>
      <trkpt lat="47.1512290" lon="3.0131280">
        <ele>172.6</ele>
        <time>2020-07-03T15:21:20Z</time>
      </trkpt>
      <trkpt lat="47.1507770" lon="3.0132390">
        <ele>172.6</ele>
        <time>2020-07-03T15:21:28Z</time>
      </trkpt>
      <trkpt lat="47.1507180" lon="3.0132580">
        <ele>172.4</ele>
        <time>2020-07-03T15:21:29Z</time>
      </trkpt>
      <trkpt lat="47.1501860" lon="3.0134250">
        <ele>172.6</ele>
        <time>2020-07-03T15:21:38Z</time>
      </trkpt>
      <trkpt lat="47.1498920" lon="3.0135150">
        <ele>172.4</ele>
        <time>2020-07-03T15:21:43Z</time>
      </trkpt>
      <trkpt lat="47.1493100" lon="3.0137070">
        <ele>172.6</ele>
        <time>2020-07-03T15:21:53Z</time>
      </trkpt>
      <trkpt lat="47.1491970" lon="3.0137410">
        <ele>172.4</ele>
        <time>2020-07-03T15:21:55Z</time>
      </trkpt>
      <trkpt lat="47.1486310" lon="3.0139310">
        <ele>172.6</ele>
        <time>2020-07-03T15:22:05Z</time>
      </trkpt>
      <trkpt lat="47.1483440" lon="3.0140210">
        <ele>172.8</ele>
        <time>2020-07-03T15:22:10Z</time>
      </trkpt>
      <trkpt lat="47.1481740" lon="3.0140740">
        <ele>172.8</ele>
        <time>2020-07-03T15:22:13Z</time>
      </trkpt>
      <trkpt lat="47.1476010" lon="3.0142510">
        <ele>173.0</ele>
        <time>2020-07-03T15:22:23Z</time>
      </trkpt>
      <trkpt lat="47.1473730" lon="3.0143200">
        <ele>172.8</ele>
        <time>2020-07-03T15:22:27Z</time>
      </trkpt>
      <trkpt lat="47.1467950" lon="3.0144910">
        <ele>172.8</ele>
        <time>2020-07-03T15:22:37Z</time>
      </trkpt>
      <trkpt lat="47.1466200" lon="3.0145400">
        <ele>173.0</ele>
        <time>2020-07-03T15:22:40Z</time>
      </trkpt>
      <trkpt lat="47.1465030" lon="3.0145770">
        <ele>172.8</ele>
        <time>2020-07-03T15:22:42Z</time>
      </trkpt>
      <trkpt lat="47.1459710" lon="3.0147450">
        <ele>172.8</ele>
        <time>2020-07-03T15:22:51Z</time>
      </trkpt>
      <trkpt lat="47.1458470" lon="3.0147790">
        <ele>172.6</ele>
        <time>2020-07-03T15:22:53Z</time>
      </trkpt>
      <trkpt lat="47.1454150" lon="3.0148100">
        <ele>172.2</ele>
        <time>2020-07-03T15:23:00Z</time>
      </trkpt>
      <trkpt lat="47.1448260" lon="3.0147540">
        <ele>172.6</ele>
        <time>2020-07-03T15:23:10Z</time>
      </trkpt>
      <trkpt lat="47.1446440" lon="3.0147350">
        <ele>172.6</ele>
        <time>2020-07-03T15:23:13Z</time>
      </trkpt>
      <trkpt lat="47.1440560" lon="3.0146770">
        <ele>172.6</ele>
        <time>2020-07-03T15:23:23Z</time>
      </trkpt>
      <trkpt lat="47.1439390" lon="3.0146650">
        <ele>172.8</ele>
        <time>2020-07-03T15:23:25Z</time>
      </trkpt>
      <trkpt lat="47.1437720" lon="3.0146490">
        <ele>172.8</ele>
        <time>2020-07-03T15:23:28Z</time>
      </trkpt>
      <trkpt lat="47.1436050" lon="3.0146340">
        <ele>173.0</ele>
        <time>2020-07-03T15:23:31Z</time>
      </trkpt>
      <trkpt lat="47.1433730" lon="3.0146140">
        <ele>173.2</ele>
        <time>2020-07-03T15:23:35Z</time>
      </trkpt>
      <trkpt lat="47.1428000" lon="3.0145620">
        <ele>173.2</ele>
        <time>2020-07-03T15:23:45Z</time>
      </trkpt>
      <trkpt lat="47.1426840" lon="3.0145450">
        <ele>173.2</ele>
        <time>2020-07-03T15:23:47Z</time>
      </trkpt>
      <trkpt lat="47.1421350" lon="3.0144950">
        <ele>173.2</ele>
        <time>2020-07-03T15:23:56Z</time>
      </trkpt>
      <trkpt lat="47.1418960" lon="3.0144650">
        <ele>173.0</ele>
        <time>2020-07-03T15:24:00Z</time>
      </trkpt>
      <trkpt lat="47.1413760" lon="3.0144910">
        <ele>173.0</ele>
        <time>2020-07-03T15:24:09Z</time>
      </trkpt>
      <trkpt lat="47.1408350" lon="3.0147030">
        <ele>173.2</ele>
        <time>2020-07-03T15:24:18Z</time>
      </trkpt>
      <trkpt lat="47.1407780" lon="3.0147290">
        <ele>173.2</ele>
        <time>2020-07-03T15:24:19Z</time>
      </trkpt>
      <trkpt lat="47.1402420" lon="3.0149580">
        <ele>173.4</ele>
        <time>2020-07-03T15:24:28Z</time>
      </trkpt>
      <trkpt lat="47.1399480" lon="3.0150740">
        <ele>173.2</ele>
        <time>2020-07-03T15:24:33Z</time>
      </trkpt>
      <trkpt lat="47.1394160" lon="3.0152890">
        <ele>173.2</ele>
        <time>2020-07-03T15:24:42Z</time>
      </trkpt>
      <trkpt lat="47.1391230" lon="3.0154080">
        <ele>173.2</ele>
        <time>2020-07-03T15:24:47Z</time>
      </trkpt>
      <trkpt lat="47.1387090" lon="3.0155830">
        <ele>173.2</ele>
        <time>2020-07-03T15:24:54Z</time>
      </trkpt>
      <trkpt lat="47.1384230" lon="3.0157140">
        <ele>173.2</ele>
        <time>2020-07-03T15:24:59Z</time>
      </trkpt>
      <trkpt lat="47.1378550" lon="3.0159640">
        <ele>173.0</ele>
        <time>2020-07-03T15:25:09Z</time>
      </trkpt>
      <trkpt lat="47.1375060" lon="3.0161040">
        <ele>173.0</ele>
        <time>2020-07-03T15:25:15Z</time>
      </trkpt>
      <trkpt lat="47.1369770" lon="3.0163200">
        <ele>172.8</ele>
        <time>2020-07-03T15:25:24Z</time>
      </trkpt>
      <trkpt lat="47.1366260" lon="3.0164520">
        <ele>172.8</ele>
        <time>2020-07-03T15:25:30Z</time>
      </trkpt>
      <trkpt lat="47.1360490" lon="3.0166990">
        <ele>172.8</ele>
        <time>2020-07-03T15:25:40Z</time>
      </trkpt>
      <trkpt lat="47.1359370" lon="3.0167720">
        <ele>172.8</ele>
        <time>2020-07-03T15:25:42Z</time>
      </trkpt>
      <trkpt lat="47.1355680" lon="3.0170990">
        <ele>173.0</ele>
        <time>2020-07-03T15:25:49Z</time>
      </trkpt>
      <trkpt lat="47.1351080" lon="3.0175230">
        <ele>173.0</ele>
        <time>2020-07-03T15:25:57Z</time>
      </trkpt>
      <trkpt lat="47.1349350" lon="3.0176850">
        <ele>173.0</ele>
        <time>2020-07-03T15:26:00Z</time>
      </trkpt>
      <trkpt lat="47.1346930" lon="3.0179120">
        <ele>173.0</ele>
        <time>2020-07-03T15:26:04Z</time>
      </trkpt>
      <trkpt lat="47.1342610" lon="3.0182970">
        <ele>172.8</ele>
        <time>2020-07-03T15:26:11Z</time>
      </trkpt>
      <trkpt lat="47.1337370" lon="3.0187640">
        <ele>172.8</ele>
        <time>2020-07-03T15:26:19Z</time>
      </trkpt>
      <trkpt lat="47.1336020" lon="3.0188840">
        <ele>172.8</ele>
        <time>2020-07-03T15:26:21Z</time>
      </trkpt>
      <trkpt lat="47.1335370" lon="3.0189410">
        <ele>172.8</ele>
        <time>2020-07-03T15:26:22Z</time>
      </trkpt>
      <trkpt lat="47.1332710" lon="3.0191760">
        <ele>173.0</ele>
        <time>2020-07-03T15:26:26Z</time>
      </trkpt>
      <trkpt lat="47.1327990" lon="3.0196100">
        <ele>173.0</ele>
        <time>2020-07-03T15:26:33Z</time>
      </trkpt>
      <trkpt lat="47.1323290" lon="3.0200270">
        <ele>172.8</ele>
        <time>2020-07-03T15:26:40Z</time>
      </trkpt>
      <trkpt lat="47.1320520" lon="3.0202590">
        <ele>172.6</ele>
        <time>2020-07-03T15:26:44Z</time>
      </trkpt>
      <trkpt lat="47.1319140" lon="3.0203830">
        <ele>172.8</ele>
        <time>2020-07-03T15:26:46Z</time>
      </trkpt>
      <trkpt lat="47.1314500" lon="3.0207900">
        <ele>172.4</ele>
        <time>2020-07-03T15:26:53Z</time>
      </trkpt>
      <trkpt lat="47.1313250" lon="3.0209000">
        <ele>172.4</ele>
        <time>2020-07-03T15:26:55Z</time>
      </trkpt>
      <trkpt lat="47.1312660" lon="3.0209560">
        <ele>172.4</ele>
        <time>2020-07-03T15:26:56Z</time>
      </trkpt>
      <trkpt lat="47.1307630" lon="3.0214060">
        <ele>172.6</ele>
        <time>2020-07-03T15:27:04Z</time>
      </trkpt>
      <trkpt lat="47.1302430" lon="3.0218690">
        <ele>172.8</ele>
        <time>2020-07-03T15:27:12Z</time>
      </trkpt>
      <trkpt lat="47.1301780" lon="3.0219280">
        <ele>172.8</ele>
        <time>2020-07-03T15:27:13Z</time>
      </trkpt>
      <trkpt lat="47.1297170" lon="3.0223390">
        <ele>173.0</ele>
        <time>2020-07-03T15:27:20Z</time>
      </trkpt>
      <trkpt lat="47.1294640" lon="3.0225640">
        <ele>172.8</ele>
        <time>2020-07-03T15:27:24Z</time>
      </trkpt>
      <trkpt lat="47.1292760" lon="3.0227240">
        <ele>172.8</ele>
        <time>2020-07-03T15:27:27Z</time>
      </trkpt>
      <trkpt lat="47.1290690" lon="3.0228280">
        <ele>172.8</ele>
        <time>2020-07-03T15:27:30Z</time>
      </trkpt>
      <trkpt lat="47.1289950" lon="3.0228460">
        <ele>172.8</ele>
        <time>2020-07-03T15:27:31Z</time>
      </trkpt>
      <trkpt lat="47.1286220" lon="3.0228880">
        <ele>172.8</ele>
        <time>2020-07-03T15:27:36Z</time>
      </trkpt>
      <trkpt lat="47.1280270" lon="3.0229670">
        <ele>172.6</ele>
        <time>2020-07-03T15:27:44Z</time>
      </trkpt>
      <trkpt lat="47.1276580" lon="3.0230210">
        <ele>172.8</ele>
        <time>2020-07-03T15:27:49Z</time>
      </trkpt>
      <trkpt lat="47.1270820" lon="3.0231200">
        <ele>172.8</ele>
        <time>2020-07-03T15:27:57Z</time>
      </trkpt>
      <trkpt lat="47.1267880" lon="3.0231630">
        <ele>172.8</ele>
        <time>2020-07-03T15:28:01Z</time>
      </trkpt>
      <trkpt lat="47.1261950" lon="3.0232470">
        <ele>172.6</ele>
        <time>2020-07-03T15:28:09Z</time>
      </trkpt>
      <trkpt lat="47.1259680" lon="3.0232800">
        <ele>172.6</ele>
        <time>2020-07-03T15:28:12Z</time>
      </trkpt>
      <trkpt lat="47.1253610" lon="3.0233760">
        <ele>172.8</ele>
        <time>2020-07-03T15:28:20Z</time>
      </trkpt>
      <trkpt lat="47.1252150" lon="3.0234010">
        <ele>173.0</ele>
        <time>2020-07-03T15:28:22Z</time>
      </trkpt>
      <trkpt lat="47.1251390" lon="3.0234150">
        <ele>172.8</ele>
        <time>2020-07-03T15:28:23Z</time>
      </trkpt>
      <trkpt lat="47.1245270" lon="3.0235040">
        <ele>173.0</ele>
        <time>2020-07-03T15:28:31Z</time>
      </trkpt>
      <trkpt lat="47.1242210" lon="3.0235470">
        <ele>173.0</ele>
        <time>2020-07-03T15:28:35Z</time>
      </trkpt>
      <trkpt lat="47.1239130" lon="3.0235930">
        <ele>173.0</ele>
        <time>2020-07-03T15:28:39Z</time>
      </trkpt>
      <trkpt lat="47.1235950" lon="3.0236420">
        <ele>173.2</ele>
        <time>2020-07-03T15:28:43Z</time>
      </trkpt>
      <trkpt lat="47.1233510" lon="3.0236880">
        <ele>173.2</ele>
        <time>2020-07-03T15:28:46Z</time>
      </trkpt>
      <trkpt lat="47.1227810" lon="3.0237940">
        <ele>173.2</ele>
        <time>2020-07-03T15:28:53Z</time>
      </trkpt>
      <trkpt lat="47.1221940" lon="3.0238610">
        <ele>173.0</ele>
        <time>2020-07-03T15:29:01Z</time>
      </trkpt>
      <trkpt lat="47.1216460" lon="3.0240300">
        <ele>173.0</ele>
        <time>2020-07-03T15:29:08Z</time>
      </trkpt>
      <trkpt lat="47.1212460" lon="3.0240660">
        <ele>173.0</ele>
        <time>2020-07-03T15:29:13Z</time>
      </trkpt>
      <trkpt lat="47.1206780" lon="3.0241190">
        <ele>173.0</ele>
        <time>2020-07-03T15:29:20Z</time>
      </trkpt>
      <trkpt lat="47.1205180" lon="3.0241380">
        <ele>173.2</ele>
        <time>2020-07-03T15:29:22Z</time>
      </trkpt>
      <trkpt lat="47.1199670" lon="3.0242140">
        <ele>172.8</ele>
        <time>2020-07-03T15:29:29Z</time>
      </trkpt>
      <trkpt lat="47.1194260" lon="3.0243070">
        <ele>172.8</ele>
        <time>2020-07-03T15:29:36Z</time>
      </trkpt>
      <trkpt lat="47.1188150" lon="3.0244000">
        <ele>173.0</ele>
        <time>2020-07-03T15:29:44Z</time>
      </trkpt>
      <trkpt lat="47.1185150" lon="3.0244430">
        <ele>173.0</ele>
        <time>2020-07-03T15:29:48Z</time>
      </trkpt>
      <trkpt lat="47.1179730" lon="3.0245230">
        <ele>173.0</ele>
        <time>2020-07-03T15:29:55Z</time>
      </trkpt>
      <trkpt lat="47.1177400" lon="3.0245560">
        <ele>173.0</ele>
        <time>2020-07-03T15:29:58Z</time>
      </trkpt>
      <trkpt lat="47.1171320" lon="3.0246160">
        <ele>173.2</ele>
        <time>2020-07-03T15:30:06Z</time>
      </trkpt>
      <trkpt lat="47.1168210" lon="3.0246220">
        <ele>173.2</ele>
        <time>2020-07-03T15:30:10Z</time>
      </trkpt>
      <trkpt lat="47.1162690" lon="3.0246220">
        <ele>173.2</ele>
        <time>2020-07-03T15:30:17Z</time>
      </trkpt>
      <trkpt lat="47.1159610" lon="3.0246500">
        <ele>173.4</ele>
        <time>2020-07-03T15:30:21Z</time>
      </trkpt>
      <trkpt lat="47.1158060" lon="3.0246580">
        <ele>173.4</ele>
        <time>2020-07-03T15:30:23Z</time>
      </trkpt>
      <trkpt lat="47.1155700" lon="3.0246610">
        <ele>173.2</ele>
        <time>2020-07-03T15:30:26Z</time>
      </trkpt>
      <trkpt lat="47.1150970" lon="3.0246930">
        <ele>173.4</ele>
        <time>2020-07-03T15:30:32Z</time>
      </trkpt>
      <trkpt lat="47.1145410" lon="3.0247220">
        <ele>173.4</ele>
        <time>2020-07-03T15:30:39Z</time>
      </trkpt>
      <trkpt lat="47.1139810" lon="3.0247470">
        <ele>173.6</ele>
        <time>2020-07-03T15:30:46Z</time>
      </trkpt>
      <trkpt lat="47.1138260" lon="3.0247570">
        <ele>173.6</ele>
        <time>2020-07-03T15:30:48Z</time>
      </trkpt>
      <trkpt lat="47.1132840" lon="3.0247680">
        <ele>173.4</ele>
        <time>2020-07-03T15:30:55Z</time>
      </trkpt>
      <trkpt lat="47.1128960" lon="3.0247870">
        <ele>173.4</ele>
        <time>2020-07-03T15:31:00Z</time>
      </trkpt>
      <trkpt lat="47.1123490" lon="3.0247970">
        <ele>173.4</ele>
        <time>2020-07-03T15:31:07Z</time>
      </trkpt>
      <trkpt lat="47.1119540" lon="3.0248090">
        <ele>173.4</ele>
        <time>2020-07-03T15:31:12Z</time>
      </trkpt>
      <trkpt lat="47.1114080" lon="3.0248300">
        <ele>173.2</ele>
        <time>2020-07-03T15:31:19Z</time>
      </trkpt>
      <trkpt lat="47.1109420" lon="3.0248610">
        <ele>173.0</ele>
        <time>2020-07-03T15:31:25Z</time>
      </trkpt>
      <trkpt lat="47.1103930" lon="3.0248760">
        <ele>173.4</ele>
        <time>2020-07-03T15:31:32Z</time>
      </trkpt>
      <trkpt lat="47.1100830" lon="3.0248840">
        <ele>173.6</ele>
        <time>2020-07-03T15:31:36Z</time>
      </trkpt>
      <trkpt lat="47.1094840" lon="3.0248940">
        <ele>173.4</ele>
        <time>2020-07-03T15:31:44Z</time>
      </trkpt>
      <trkpt lat="47.1093350" lon="3.0249030">
        <ele>173.4</ele>
        <time>2020-07-03T15:31:46Z</time>
      </trkpt>
      <trkpt lat="47.1092630" lon="3.0249070">
        <ele>173.4</ele>
        <time>2020-07-03T15:31:47Z</time>
      </trkpt>
      <trkpt lat="47.1091900" lon="3.0249100">
        <ele>173.6</ele>
        <time>2020-07-03T15:31:48Z</time>
      </trkpt>
      <trkpt lat="47.1091190" lon="3.0249140">
        <ele>173.4</ele>
        <time>2020-07-03T15:31:49Z</time>
      </trkpt>
      <trkpt lat="47.1085620" lon="3.0249340">
        <ele>173.6</ele>
        <time>2020-07-03T15:31:57Z</time>
      </trkpt>
      <trkpt lat="47.1084250" lon="3.0249410">
        <ele>173.8</ele>
        <time>2020-07-03T15:31:59Z</time>
      </trkpt>
      <trkpt lat="47.1080090" lon="3.0249640">
        <ele>173.8</ele>
        <time>2020-07-03T15:32:05Z</time>
      </trkpt>
      <trkpt lat="47.1075030" lon="3.0249860">
        <ele>174.2</ele>
        <time>2020-07-03T15:32:12Z</time>
      </trkpt>
      <trkpt lat="47.1073560" lon="3.0249960">
        <ele>174.6</ele>
        <time>2020-07-03T15:32:14Z</time>
      </trkpt>
      <trkpt lat="47.1068000" lon="3.0250390">
        <ele>174.6</ele>
        <time>2020-07-03T15:32:22Z</time>
      </trkpt>
      <trkpt lat="47.1066620" lon="3.0250460">
        <ele>174.4</ele>
        <time>2020-07-03T15:32:24Z</time>
      </trkpt>
      <trkpt lat="47.1063050" lon="3.0250340">
        <ele>174.0</ele>
        <time>2020-07-03T15:32:29Z</time>
      </trkpt>
      <trkpt lat="47.1058770" lon="3.0250070">
        <ele>174.0</ele>
        <time>2020-07-03T15:32:35Z</time>
      </trkpt>
      <trkpt lat="47.1053210" lon="3.0250110">
        <ele>174.2</ele>
        <time>2020-07-03T15:32:43Z</time>
      </trkpt>
      <trkpt lat="47.1051810" lon="3.0250200">
        <ele>174.2</ele>
        <time>2020-07-03T15:32:45Z</time>
      </trkpt>
      <trkpt lat="47.1047780" lon="3.0250160">
        <ele>174.4</ele>
        <time>2020-07-03T15:32:51Z</time>
      </trkpt>
      <trkpt lat="47.1044250" lon="3.0250130">
        <ele>174.4</ele>
        <time>2020-07-03T15:32:56Z</time>
      </trkpt>
      <trkpt lat="47.1038600" lon="3.0250120">
        <ele>175.6</ele>
        <time>2020-07-03T15:33:04Z</time>
      </trkpt>
      <trkpt lat="47.1036550" lon="3.0250100">
        <ele>175.8</ele>
        <time>2020-07-03T15:33:07Z</time>
      </trkpt>
      <trkpt lat="47.1035860" lon="3.0250060">
        <ele>175.6</ele>
        <time>2020-07-03T15:33:08Z</time>
      </trkpt>
      <trkpt lat="47.1030290" lon="3.0249940">
        <ele>175.2</ele>
        <time>2020-07-03T15:33:16Z</time>
      </trkpt>
      <trkpt lat="47.1026070" lon="3.0249980">
        <ele>174.8</ele>
        <time>2020-07-03T15:33:22Z</time>
      </trkpt>
      <trkpt lat="47.1023090" lon="3.0249980">
        <ele>174.6</ele>
        <time>2020-07-03T15:33:26Z</time>
      </trkpt>
      <trkpt lat="47.1017970" lon="3.0250090">
        <ele>175.0</ele>
        <time>2020-07-03T15:33:33Z</time>
      </trkpt>
      <trkpt lat="47.1012060" lon="3.0250090">
        <ele>175.6</ele>
        <time>2020-07-03T15:33:41Z</time>
      </trkpt>
      <trkpt lat="47.1009190" lon="3.0250000">
        <ele>175.8</ele>
        <time>2020-07-03T15:33:45Z</time>
      </trkpt>
      <trkpt lat="47.1003400" lon="3.0249860">
        <ele>175.6</ele>
        <time>2020-07-03T15:33:53Z</time>
      </trkpt>
      <trkpt lat="47.1002680" lon="3.0249850">
        <ele>175.6</ele>
        <time>2020-07-03T15:33:54Z</time>
      </trkpt>
      <trkpt lat="47.0996920" lon="3.0249610">
        <ele>175.6</ele>
        <time>2020-07-03T15:34:02Z</time>
      </trkpt>
      <trkpt lat="47.0996200" lon="3.0249560">
        <ele>175.6</ele>
        <time>2020-07-03T15:34:03Z</time>
      </trkpt>
      <trkpt lat="47.0994050" lon="3.0249420">
        <ele>175.6</ele>
        <time>2020-07-03T15:34:06Z</time>
      </trkpt>
      <trkpt lat="47.0991180" lon="3.0249470">
        <ele>175.4</ele>
        <time>2020-07-03T15:34:10Z</time>
      </trkpt>
      <trkpt lat="47.0990450" lon="3.0249480">
        <ele>175.6</ele>
        <time>2020-07-03T15:34:11Z</time>
      </trkpt>
      <trkpt lat="47.0985400" lon="3.0249760">
        <ele>175.4</ele>
        <time>2020-07-03T15:34:18Z</time>
      </trkpt>
      <trkpt lat="47.0984050" lon="3.0249740">
        <ele>175.4</ele>
        <time>2020-07-03T15:34:20Z</time>
      </trkpt>
      <trkpt lat="47.0983390" lon="3.0249710">
        <ele>175.6</ele>
        <time>2020-07-03T15:34:21Z</time>
      </trkpt>
      <trkpt lat="47.0977610" lon="3.0249640">
        <ele>175.8</ele>
        <time>2020-07-03T15:34:29Z</time>
      </trkpt>
      <trkpt lat="47.0976150" lon="3.0249640">
        <ele>175.6</ele>
        <time>2020-07-03T15:34:31Z</time>
      </trkpt>
      <trkpt lat="47.0974740" lon="3.0249700">
        <ele>175.6</ele>
        <time>2020-07-03T15:34:33Z</time>
      </trkpt>
      <trkpt lat="47.0970600" lon="3.0249880">
        <ele>175.8</ele>
        <time>2020-07-03T15:34:39Z</time>
      </trkpt>
      <trkpt lat="47.0964790" lon="3.0249880">
        <ele>175.8</ele>
        <time>2020-07-03T15:34:47Z</time>
      </trkpt>
      <trkpt lat="47.0963310" lon="3.0249890">
        <ele>175.8</ele>
        <time>2020-07-03T15:34:49Z</time>
      </trkpt>
      <trkpt lat="47.0957570" lon="3.0249940">
        <ele>175.8</ele>
        <time>2020-07-03T15:34:57Z</time>
      </trkpt>
      <trkpt lat="47.0951730" lon="3.0250040">
        <ele>175.6</ele>
        <time>2020-07-03T15:35:05Z</time>
      </trkpt>
      <trkpt lat="47.0945920" lon="3.0250130">
        <ele>175.6</ele>
        <time>2020-07-03T15:35:13Z</time>
      </trkpt>
      <trkpt lat="47.0940810" lon="3.0250190">
        <ele>175.4</ele>
        <time>2020-07-03T15:35:20Z</time>
      </trkpt>
      <trkpt lat="47.0940090" lon="3.0250200">
        <ele>175.4</ele>
        <time>2020-07-03T15:35:21Z</time>
      </trkpt>
      <trkpt lat="47.0935710" lon="3.0250230">
        <ele>175.6</ele>
        <time>2020-07-03T15:35:27Z</time>
      </trkpt>
      <trkpt lat="47.0932410" lon="3.0250390">
        <ele>175.6</ele>
        <time>2020-07-03T15:35:32Z</time>
      </trkpt>
      <trkpt lat="47.0930160" lon="3.0250480">
        <ele>175.4</ele>
        <time>2020-07-03T15:35:36Z</time>
      </trkpt>
      <trkpt lat="47.0928650" lon="3.0250550">
        <ele>175.6</ele>
        <time>2020-07-03T15:35:39Z</time>
      </trkpt>
      <trkpt lat="47.0925350" lon="3.0250580">
        <ele>176.0</ele>
        <time>2020-07-03T15:35:46Z</time>
      </trkpt>
      <trkpt lat="47.0922640" lon="3.0250450">
        <ele>176.0</ele>
        <time>2020-07-03T15:35:51Z</time>
      </trkpt>
      <trkpt lat="47.0920330" lon="3.0250360">
        <ele>176.0</ele>
        <time>2020-07-03T15:35:55Z</time>
      </trkpt>
      <trkpt lat="47.0916480" lon="3.0249970">
        <ele>175.4</ele>
        <time>2020-07-03T15:36:01Z</time>
      </trkpt>
      <trkpt lat="47.0911010" lon="3.0248690">
        <ele>175.2</ele>
        <time>2020-07-03T15:36:09Z</time>
      </trkpt>
      <trkpt lat="47.0910300" lon="3.0248520">
        <ele>175.2</ele>
        <time>2020-07-03T15:36:10Z</time>
      </trkpt>
      <trkpt lat="47.0907290" lon="3.0247800">
        <ele>175.6</ele>
        <time>2020-07-03T15:36:14Z</time>
      </trkpt>
      <trkpt lat="47.0902860" lon="3.0246620">
        <ele>175.6</ele>
        <time>2020-07-03T15:36:20Z</time>
      </trkpt>
      <trkpt lat="47.0897370" lon="3.0245130">
        <ele>174.6</ele>
        <time>2020-07-03T15:36:28Z</time>
      </trkpt>
      <trkpt lat="47.0895260" lon="3.0244610">
        <ele>174.6</ele>
        <time>2020-07-03T15:36:31Z</time>
      </trkpt>
      <trkpt lat="47.0889630" lon="3.0243080">
        <ele>174.8</ele>
        <time>2020-07-03T15:36:39Z</time>
      </trkpt>
      <trkpt lat="47.0888950" lon="3.0242880">
        <ele>174.6</ele>
        <time>2020-07-03T15:36:40Z</time>
      </trkpt>
      <trkpt lat="47.0884750" lon="3.0241740">
        <ele>175.0</ele>
        <time>2020-07-03T15:36:46Z</time>
      </trkpt>
      <trkpt lat="47.0881820" lon="3.0240910">
        <ele>175.8</ele>
        <time>2020-07-03T15:36:50Z</time>
      </trkpt>
      <trkpt lat="47.0877280" lon="3.0239020">
        <ele>176.4</ele>
        <time>2020-07-03T15:36:56Z</time>
      </trkpt>
      <trkpt lat="47.0875750" lon="3.0238320">
        <ele>176.2</ele>
        <time>2020-07-03T15:36:58Z</time>
      </trkpt>
      <trkpt lat="47.0870100" lon="3.0235800">
        <ele>175.6</ele>
        <time>2020-07-03T15:37:06Z</time>
      </trkpt>
      <trkpt lat="47.0864720" lon="3.0233580">
        <ele>174.8</ele>
        <time>2020-07-03T15:37:14Z</time>
      </trkpt>
      <trkpt lat="47.0862700" lon="3.0232670">
        <ele>175.0</ele>
        <time>2020-07-03T15:37:17Z</time>
      </trkpt>
      <trkpt lat="47.0862030" lon="3.0232340">
        <ele>175.0</ele>
        <time>2020-07-03T15:37:18Z</time>
      </trkpt>
      <trkpt lat="47.0856520" lon="3.0229280">
        <ele>175.2</ele>
        <time>2020-07-03T15:37:26Z</time>
      </trkpt>
      <trkpt lat="47.0855880" lon="3.0228830">
        <ele>175.4</ele>
        <time>2020-07-03T15:37:27Z</time>
      </trkpt>
      <trkpt lat="47.0852350" lon="3.0225740">
        <ele>175.6</ele>
        <time>2020-07-03T15:37:33Z</time>
      </trkpt>
      <trkpt lat="47.0851730" lon="3.0225180">
        <ele>175.6</ele>
        <time>2020-07-03T15:37:34Z</time>
      </trkpt>
      <trkpt lat="47.0846890" lon="3.0220690">
        <ele>175.6</ele>
        <time>2020-07-03T15:37:42Z</time>
      </trkpt>
      <trkpt lat="47.0845080" lon="3.0218810">
        <ele>175.4</ele>
        <time>2020-07-03T15:37:45Z</time>
      </trkpt>
      <trkpt lat="47.0844500" lon="3.0218160">
        <ele>175.4</ele>
        <time>2020-07-03T15:37:46Z</time>
      </trkpt>
      <trkpt lat="47.0840540" lon="3.0213600">
        <ele>175.6</ele>
        <time>2020-07-03T15:37:53Z</time>
      </trkpt>
      <trkpt lat="47.0839390" lon="3.0212370">
        <ele>175.6</ele>
        <time>2020-07-03T15:37:55Z</time>
      </trkpt>
      <trkpt lat="47.0837250" lon="3.0209830">
        <ele>175.6</ele>
        <time>2020-07-03T15:37:59Z</time>
      </trkpt>
      <trkpt lat="47.0835150" lon="3.0207300">
        <ele>175.6</ele>
        <time>2020-07-03T15:38:03Z</time>
      </trkpt>
      <trkpt lat="47.0834640" lon="3.0206650">
        <ele>175.6</ele>
        <time>2020-07-03T15:38:04Z</time>
      </trkpt>
      <trkpt lat="47.0834110" lon="3.0206000">
        <ele>175.6</ele>
        <time>2020-07-03T15:38:05Z</time>
      </trkpt>
      <trkpt lat="47.0832580" lon="3.0203970">
        <ele>175.2</ele>
        <time>2020-07-03T15:38:08Z</time>
      </trkpt>
      <trkpt lat="47.0828310" lon="3.0198500">
        <ele>175.2</ele>
        <time>2020-07-03T15:38:16Z</time>
      </trkpt>
      <trkpt lat="47.0826750" lon="3.0196470">
        <ele>175.2</ele>
        <time>2020-07-03T15:38:19Z</time>
      </trkpt>
      <trkpt lat="47.0825170" lon="3.0194350">
        <ele>175.2</ele>
        <time>2020-07-03T15:38:22Z</time>
      </trkpt>
      <trkpt lat="47.0820820" lon="3.0188750">
        <ele>175.8</ele>
        <time>2020-07-03T15:38:30Z</time>
      </trkpt>
      <trkpt lat="47.0817490" lon="3.0184440">
        <ele>176.2</ele>
        <time>2020-07-03T15:38:36Z</time>
      </trkpt>
      <trkpt lat="47.0813070" lon="3.0179640">
        <ele>176.4</ele>
        <time>2020-07-03T15:38:44Z</time>
      </trkpt>
      <trkpt lat="47.0811230" lon="3.0177880">
        <ele>176.2</ele>
        <time>2020-07-03T15:38:47Z</time>
      </trkpt>
      <trkpt lat="47.0807010" lon="3.0174020">
        <ele>176.4</ele>
        <time>2020-07-03T15:38:54Z</time>
      </trkpt>
      <trkpt lat="47.0806380" lon="3.0173460">
        <ele>176.2</ele>
        <time>2020-07-03T15:38:55Z</time>
      </trkpt>
      <trkpt lat="47.0801380" lon="3.0168750">
        <ele>176.2</ele>
        <time>2020-07-03T15:39:03Z</time>
      </trkpt>
      <trkpt lat="47.0798900" lon="3.0166380">
        <ele>176.2</ele>
        <time>2020-07-03T15:39:07Z</time>
      </trkpt>
      <trkpt lat="47.0795400" lon="3.0164130">
        <ele>176.0</ele>
        <time>2020-07-03T15:39:12Z</time>
      </trkpt>
      <trkpt lat="47.0789790" lon="3.0161140">
        <ele>175.8</ele>
        <time>2020-07-03T15:39:20Z</time>
      </trkpt>
      <trkpt lat="47.0788380" lon="3.0160320">
        <ele>175.8</ele>
        <time>2020-07-03T15:39:22Z</time>
      </trkpt>
      <trkpt lat="47.0784940" lon="3.0158690">
        <ele>175.8</ele>
        <time>2020-07-03T15:39:27Z</time>
      </trkpt>
      <trkpt lat="47.0782230" lon="3.0157300">
        <ele>175.6</ele>
        <time>2020-07-03T15:39:31Z</time>
      </trkpt>
      <trkpt lat="47.0776840" lon="3.0154160">
        <ele>175.4</ele>
        <time>2020-07-03T15:39:39Z</time>
      </trkpt>
      <trkpt lat="47.0775650" lon="3.0153400">
        <ele>175.2</ele>
        <time>2020-07-03T15:39:41Z</time>
      </trkpt>
      <trkpt lat="47.0774030" lon="3.0152340">
        <ele>175.2</ele>
        <time>2020-07-03T15:39:44Z</time>
      </trkpt>
      <trkpt lat="47.0770660" lon="3.0150260">
        <ele>175.2</ele>
        <time>2020-07-03T15:39:50Z</time>
      </trkpt>
      <trkpt lat="47.0769490" lon="3.0149530">
        <ele>175.4</ele>
        <time>2020-07-03T15:39:52Z</time>
      </trkpt>
      <trkpt lat="47.0765370" lon="3.0146880">
        <ele>175.4</ele>
        <time>2020-07-03T15:39:59Z</time>
      </trkpt>
      <trkpt lat="47.0763570" lon="3.0145700">
        <ele>175.8</ele>
        <time>2020-07-03T15:40:02Z</time>
      </trkpt>
      <trkpt lat="47.0762970" lon="3.0145310">
        <ele>175.8</ele>
        <time>2020-07-03T15:40:03Z</time>
      </trkpt>
      <trkpt lat="47.0761180" lon="3.0144300">
        <ele>175.6</ele>
        <time>2020-07-03T15:40:06Z</time>
      </trkpt>
      <trkpt lat="47.0760000" lon="3.0143660">
        <ele>175.4</ele>
        <time>2020-07-03T15:40:08Z</time>
      </trkpt>
      <trkpt lat="47.0759420" lon="3.0143330">
        <ele>175.4</ele>
        <time>2020-07-03T15:40:09Z</time>
      </trkpt>
      <trkpt lat="47.0757090" lon="3.0141890">
        <ele>175.8</ele>
        <time>2020-07-03T15:40:13Z</time>
      </trkpt>
      <trkpt lat="47.0756530" lon="3.0141550">
        <ele>176.0</ele>
        <time>2020-07-03T15:40:14Z</time>
      </trkpt>
      <trkpt lat="47.0755970" lon="3.0141210">
        <ele>175.8</ele>
        <time>2020-07-03T15:40:15Z</time>
      </trkpt>
      <trkpt lat="47.0750990" lon="3.0138000">
        <ele>175.6</ele>
        <time>2020-07-03T15:40:24Z</time>
      </trkpt>
      <trkpt lat="47.0748230" lon="3.0136180">
        <ele>175.8</ele>
        <time>2020-07-03T15:40:29Z</time>
      </trkpt>
      <trkpt lat="47.0747690" lon="3.0135810">
        <ele>175.8</ele>
        <time>2020-07-03T15:40:30Z</time>
      </trkpt>
      <trkpt lat="47.0746030" lon="3.0134710">
        <ele>175.8</ele>
        <time>2020-07-03T15:40:33Z</time>
      </trkpt>
      <trkpt lat="47.0742740" lon="3.0132650">
        <ele>175.8</ele>
        <time>2020-07-03T15:40:39Z</time>
      </trkpt>
      <trkpt lat="47.0741160" lon="3.0131650">
        <ele>176.0</ele>
        <time>2020-07-03T15:40:42Z</time>
      </trkpt>
      <trkpt lat="47.0740630" lon="3.0131330">
        <ele>176.0</ele>
        <time>2020-07-03T15:40:43Z</time>
      </trkpt>
      <trkpt lat="47.0737490" lon="3.0129400">
        <ele>176.0</ele>
        <time>2020-07-03T15:40:49Z</time>
      </trkpt>
      <trkpt lat="47.0734890" lon="3.0127910">
        <ele>176.2</ele>
        <time>2020-07-03T15:40:54Z</time>
      </trkpt>
      <trkpt lat="47.0729640" lon="3.0124610">
        <ele>176.6</ele>
        <time>2020-07-03T15:41:04Z</time>
      </trkpt>
      <trkpt lat="47.0728030" lon="3.0123590">
        <ele>176.4</ele>
        <time>2020-07-03T15:41:07Z</time>
      </trkpt>
      <trkpt lat="47.0726560" lon="3.0122720">
        <ele>176.4</ele>
        <time>2020-07-03T15:41:10Z</time>
      </trkpt>
      <trkpt lat="47.0724690" lon="3.0121670">
        <ele>176.4</ele>
        <time>2020-07-03T15:41:14Z</time>
      </trkpt>
      <trkpt lat="47.0723280" lon="3.0120770">
        <ele>177.2</ele>
        <time>2020-07-03T15:41:19Z</time>
      </trkpt>
      <trkpt lat="47.0722340" lon="3.0120570">
        <ele>177.6</ele>
        <time>2020-07-03T15:41:25Z</time>
      </trkpt>
      <trkpt lat="47.0720530" lon="3.0121890">
        <ele>177.4</ele>
        <time>2020-07-03T15:41:30Z</time>
      </trkpt>
      <trkpt lat="47.0720070" lon="3.0122250">
        <ele>177.4</ele>
        <time>2020-07-03T15:41:31Z</time>
      </trkpt>
      <trkpt lat="47.0717490" lon="3.0124180">
        <ele>177.2</ele>
        <time>2020-07-03T15:41:36Z</time>
      </trkpt>
      <trkpt lat="47.0716920" lon="3.0124570">
        <ele>177.2</ele>
        <time>2020-07-03T15:41:37Z</time>
      </trkpt>
      <trkpt lat="47.0711650" lon="3.0127800">
        <ele>176.2</ele>
        <time>2020-07-03T15:41:46Z</time>
      </trkpt>
      <trkpt lat="47.0711070" lon="3.0128150">
        <ele>176.2</ele>
        <time>2020-07-03T15:41:47Z</time>
      </trkpt>
      <trkpt lat="47.0709380" lon="3.0129220">
        <ele>176.2</ele>
        <time>2020-07-03T15:41:50Z</time>
      </trkpt>
      <trkpt lat="47.0706450" lon="3.0130940">
        <ele>176.2</ele>
        <time>2020-07-03T15:41:56Z</time>
      </trkpt>
      <trkpt lat="47.0706090" lon="3.0131080">
        <ele>176.2</ele>
        <time>2020-07-03T15:41:57Z</time>
      </trkpt>
      <trkpt lat="47.0705360" lon="3.0130970">
        <ele>176.2</ele>
        <time>2020-07-03T15:42:00Z</time>
      </trkpt>
      <trkpt lat="47.0705260" lon="3.0130390">
        <ele>176.8</ele>
        <time>2020-07-03T15:42:02Z</time>
      </trkpt>
      <trkpt lat="47.0705390" lon="3.0129630">
        <ele>177.2</ele>
        <time>2020-07-03T15:42:04Z</time>
      </trkpt>
      <trkpt lat="47.0705450" lon="3.0128530">
        <ele>177.4</ele>
        <time>2020-07-03T15:42:07Z</time>
      </trkpt>
      <trkpt lat="47.0705380" lon="3.0128590">
        <ele>177.4</ele>
        <time>2020-07-03T15:42:09Z</time>
      </trkpt>
      <trkpt lat="47.0705290" lon="3.0129920">
        <ele>177.8</ele>
        <time>2020-07-03T15:42:14Z</time>
      </trkpt>
      <trkpt lat="47.0705170" lon="3.0130310">
        <ele>177.8</ele>
        <time>2020-07-03T15:42:16Z</time>
      </trkpt>
      <trkpt lat="47.0704460" lon="3.0130990">
        <ele>177.6</ele>
        <time>2020-07-03T15:42:19Z</time>
      </trkpt>
      <trkpt lat="47.0704080" lon="3.0131180">
        <ele>177.6</ele>
        <time>2020-07-03T15:42:20Z</time>
      </trkpt>
      <trkpt lat="47.0702210" lon="3.0132190">
        <ele>177.6</ele>
        <time>2020-07-03T15:42:24Z</time>
      </trkpt>
      <trkpt lat="47.0699190" lon="3.0132610">
        <ele>177.0</ele>
        <time>2020-07-03T15:42:29Z</time>
      </trkpt>
      <trkpt lat="47.0696860" lon="3.0133320">
        <ele>177.0</ele>
        <time>2020-07-03T15:42:33Z</time>
      </trkpt>
      <trkpt lat="47.0695210" lon="3.0133960">
        <ele>176.8</ele>
        <time>2020-07-03T15:42:36Z</time>
      </trkpt>
      <trkpt lat="47.0691060" lon="3.0135950">
        <ele>176.2</ele>
        <time>2020-07-03T15:42:43Z</time>
      </trkpt>
      <trkpt lat="47.0690440" lon="3.0136260">
        <ele>176.0</ele>
        <time>2020-07-03T15:42:44Z</time>
      </trkpt>
      <trkpt lat="47.0689260" lon="3.0136820">
        <ele>176.2</ele>
        <time>2020-07-03T15:42:46Z</time>
      </trkpt>
      <trkpt lat="47.0687500" lon="3.0137910">
        <ele>176.0</ele>
        <time>2020-07-03T15:42:50Z</time>
      </trkpt>
      <trkpt lat="47.0685650" lon="3.0138980">
        <ele>176.8</ele>
        <time>2020-07-03T15:42:55Z</time>
      </trkpt>
      <trkpt lat="47.0684600" lon="3.0139570">
        <ele>178.2</ele>
        <time>2020-07-03T15:42:58Z</time>
      </trkpt>
      <trkpt lat="47.0684290" lon="3.0139760">
        <ele>178.6</ele>
        <time>2020-07-03T15:42:59Z</time>
      </trkpt>
      <trkpt lat="47.0684010" lon="3.0139960">
        <ele>178.8</ele>
        <time>2020-07-03T15:43:00Z</time>
      </trkpt>
      <trkpt lat="47.0683300" lon="3.0140440">
        <ele>179.6</ele>
        <time>2020-07-03T15:43:03Z</time>
      </trkpt>
      <trkpt lat="47.0682910" lon="3.0140650">
        <ele>179.8</ele>
        <time>2020-07-03T15:43:05Z</time>
      </trkpt>
      <trkpt lat="47.0681930" lon="3.0141220">
        <ele>180.8</ele>
        <time>2020-07-03T15:43:09Z</time>
      </trkpt>
      <trkpt lat="47.0681260" lon="3.0141750">
        <ele>181.2</ele>
        <time>2020-07-03T15:43:11Z</time>
      </trkpt>
      <trkpt lat="47.0680240" lon="3.0142700">
        <ele>181.4</ele>
        <time>2020-07-03T15:43:14Z</time>
      </trkpt>
      <trkpt lat="47.0679850" lon="3.0143010">
        <ele>181.6</ele>
        <time>2020-07-03T15:43:15Z</time>
      </trkpt>
      <trkpt lat="47.0679450" lon="3.0143310">
        <ele>181.6</ele>
        <time>2020-07-03T15:43:16Z</time>
      </trkpt>
      <trkpt lat="47.0679060" lon="3.0143640">
        <ele>181.6</ele>
        <time>2020-07-03T15:43:17Z</time>
      </trkpt>
      <trkpt lat="47.0678390" lon="3.0144340">
        <ele>181.6</ele>
        <time>2020-07-03T15:43:19Z</time>
      </trkpt>
      <trkpt lat="47.0677700" lon="3.0144990">
        <ele>181.6</ele>
        <time>2020-07-03T15:43:21Z</time>
      </trkpt>
      <trkpt lat="47.0677380" lon="3.0145300">
        <ele>181.6</ele>
        <time>2020-07-03T15:43:22Z</time>
      </trkpt>
      <trkpt lat="47.0677060" lon="3.0145590">
        <ele>181.6</ele>
        <time>2020-07-03T15:43:23Z</time>
      </trkpt>
      <trkpt lat="47.0675900" lon="3.0146740">
        <ele>181.2</ele>
        <time>2020-07-03T15:43:27Z</time>
      </trkpt>
      <trkpt lat="47.0675590" lon="3.0147050">
        <ele>181.4</ele>
        <time>2020-07-03T15:43:28Z</time>
      </trkpt>
      <trkpt lat="47.0675260" lon="3.0147260">
        <ele>181.2</ele>
        <time>2020-07-03T15:43:29Z</time>
      </trkpt>
      <trkpt lat="47.0674910" lon="3.0147440">
        <ele>181.2</ele>
        <time>2020-07-03T15:43:30Z</time>
      </trkpt>
      <trkpt lat="47.0673420" lon="3.0148590">
        <ele>181.0</ele>
        <time>2020-07-03T15:43:35Z</time>
      </trkpt>
      <trkpt lat="47.0673140" lon="3.0148830">
        <ele>181.2</ele>
        <time>2020-07-03T15:43:36Z</time>
      </trkpt>
      <trkpt lat="47.0671470" lon="3.0150430">
        <ele>181.2</ele>
        <time>2020-07-03T15:43:42Z</time>
      </trkpt>
      <trkpt lat="47.0670420" lon="3.0151100">
        <ele>181.2</ele>
        <time>2020-07-03T15:43:45Z</time>
      </trkpt>
      <trkpt lat="47.0666630" lon="3.0153720">
        <ele>181.2</ele>
        <time>2020-07-03T15:43:54Z</time>
      </trkpt>
      <trkpt lat="47.0662140" lon="3.0156520">
        <ele>181.0</ele>
        <time>2020-07-03T15:44:04Z</time>
      </trkpt>
      <trkpt lat="47.0657530" lon="3.0159540">
        <ele>180.8</ele>
        <time>2020-07-03T15:44:14Z</time>
      </trkpt>
      <trkpt lat="47.0654560" lon="3.0161200">
        <ele>180.6</ele>
        <time>2020-07-03T15:44:21Z</time>
      </trkpt>
      <trkpt lat="47.0651830" lon="3.0163230">
        <ele>181.0</ele>
        <time>2020-07-03T15:44:29Z</time>
      </trkpt>
      <trkpt lat="47.0648740" lon="3.0165180">
        <ele>181.0</ele>
        <time>2020-07-03T15:44:37Z</time>
      </trkpt>
      <trkpt lat="47.0647980" lon="3.0165560">
        <ele>181.0</ele>
        <time>2020-07-03T15:44:39Z</time>
      </trkpt>
      <trkpt lat="47.0645670" lon="3.0166800">
        <ele>181.0</ele>
        <time>2020-07-03T15:44:45Z</time>
      </trkpt>
      <trkpt lat="47.0642510" lon="3.0168580">
        <ele>181.0</ele>
        <time>2020-07-03T15:44:54Z</time>
      </trkpt>
      <trkpt lat="47.0640050" lon="3.0170260">
        <ele>181.2</ele>
        <time>2020-07-03T15:45:03Z</time>
      </trkpt>
      <trkpt lat="47.0637540" lon="3.0171660">
        <ele>181.4</ele>
        <time>2020-07-03T15:45:11Z</time>
      </trkpt>
      <trkpt lat="47.0636000" lon="3.0172530">
        <ele>181.4</ele>
        <time>2020-07-03T15:45:17Z</time>
      </trkpt>
      <trkpt lat="47.0636100" lon="3.0172560">
        <ele>181.4</ele>
        <time>2020-07-03T15:45:25Z</time>
      </trkpt>
      <trkpt lat="47.0636150" lon="3.0172680">
        <ele>181.6</ele>
        <time>2020-07-03T15:45:51Z</time>
      </trkpt>
      <trkpt lat="47.0636150" lon="3.0172700">
        <ele>181.6</ele>
        <time>2020-07-03T15:45:56Z</time>
      </trkpt>
      <trkpt lat="47.0635810" lon="3.0173020">
        <ele>181.6</ele>
        <time>2020-07-03T15:46:02Z</time>
      </trkpt>
      <trkpt lat="47.0635700" lon="3.0173110">
        <ele>181.6</ele>
        <time>2020-07-03T15:46:03Z</time>
      </trkpt>
      <trkpt lat="47.0634440" lon="3.0173870">
        <ele>181.6</ele>
        <time>2020-07-03T15:46:10Z</time>
      </trkpt>
      <trkpt lat="47.0633590" lon="3.0174320">
        <ele>181.4</ele>
        <time>2020-07-03T15:46:13Z</time>
      </trkpt>
      <trkpt lat="47.0633000" lon="3.0174690">
        <ele>181.4</ele>
        <time>2020-07-03T15:46:15Z</time>
      </trkpt>
      <trkpt lat="47.0632380" lon="3.0175100">
        <ele>181.4</ele>
        <time>2020-07-03T15:46:17Z</time>
      </trkpt>
      <trkpt lat="47.0631780" lon="3.0175520">
        <ele>181.4</ele>
        <time>2020-07-03T15:46:19Z</time>
      </trkpt>
      <trkpt lat="47.0631180" lon="3.0175940">
        <ele>181.4</ele>
        <time>2020-07-03T15:46:21Z</time>
      </trkpt>
      <trkpt lat="47.0630880" lon="3.0176120">
        <ele>181.6</ele>
        <time>2020-07-03T15:46:22Z</time>
      </trkpt>
      <trkpt lat="47.0630290" lon="3.0176450">
        <ele>181.4</ele>
        <time>2020-07-03T15:46:24Z</time>
      </trkpt>
      <trkpt lat="47.0629230" lon="3.0177180">
        <ele>181.4</ele>
        <time>2020-07-03T15:46:28Z</time>
      </trkpt>
      <trkpt lat="47.0627190" lon="3.0178520">
        <ele>181.6</ele>
        <time>2020-07-03T15:46:38Z</time>
      </trkpt>
      <trkpt lat="47.0627190" lon="3.0178540">
        <ele>181.6</ele>
        <time>2020-07-03T15:46:43Z</time>
      </trkpt>
      <trkpt lat="47.0627190" lon="3.0178540">
        <ele>181.6</ele>
        <time>2020-07-03T15:46:44Z</time>
      </trkpt>
      <trkpt lat="47.0627200" lon="3.0178540">
        <ele>181.6</ele>
        <time>2020-07-03T15:46:46Z</time>
      </trkpt>
      <trkpt lat="47.0627200" lon="3.0178540">
        <ele>181.6</ele>
        <time>2020-07-03T15:46:47Z</time>
      </trkpt>
      <trkpt lat="47.0627240" lon="3.0178560">
        <ele>182.0</ele>
        <time>2020-07-03T15:47:02Z</time>
      </trkpt>
      <trkpt lat="47.0627280" lon="3.0178530">
        <ele>181.8</ele>
        <time>2020-07-03T15:47:20Z</time>
      </trkpt>
      <trkpt lat="47.0627660" lon="3.0178830">
        <ele>182.0</ele>
        <time>2020-07-03T15:47:26Z</time>
      </trkpt>
      <trkpt lat="47.0627890" lon="3.0179060">
        <ele>182.0</ele>
        <time>2020-07-03T15:47:29Z</time>
      </trkpt>
      <trkpt lat="47.0628140" lon="3.0179250">
        <ele>181.8</ele>
        <time>2020-07-03T15:47:33Z</time>
      </trkpt>
      <trkpt lat="47.0628490" lon="3.0178860">
        <ele>181.6</ele>
        <time>2020-07-03T15:47:38Z</time>
      </trkpt>
      <trkpt lat="47.0628560" lon="3.0178650">
        <ele>181.8</ele>
        <time>2020-07-03T15:47:39Z</time>
      </trkpt>
      <trkpt lat="47.0629280" lon="3.0177160">
        <ele>181.6</ele>
        <time>2020-07-03T15:47:45Z</time>
      </trkpt>
      <trkpt lat="47.0631130" lon="3.0175870">
        <ele>181.4</ele>
        <time>2020-07-03T15:47:53Z</time>
      </trkpt>
      <trkpt lat="47.0632630" lon="3.0174520">
        <ele>181.0</ele>
        <time>2020-07-03T15:47:59Z</time>
      </trkpt>
      <trkpt lat="47.0633830" lon="3.0173630">
        <ele>180.8</ele>
        <time>2020-07-03T15:48:03Z</time>
      </trkpt>
      <trkpt lat="47.0635470" lon="3.0172650">
        <ele>181.0</ele>
        <time>2020-07-03T15:48:08Z</time>
      </trkpt>
      <trkpt lat="47.0638040" lon="3.0171050">
        <ele>180.8</ele>
        <time>2020-07-03T15:48:16Z</time>
      </trkpt>
      <trkpt lat="47.0640860" lon="3.0169210">
        <ele>180.8</ele>
        <time>2020-07-03T15:48:26Z</time>
      </trkpt>
      <trkpt lat="47.0644180" lon="3.0167320">
        <ele>181.0</ele>
        <time>2020-07-03T15:48:36Z</time>
      </trkpt>
      <trkpt lat="47.0647490" lon="3.0165320">
        <ele>181.0</ele>
        <time>2020-07-03T15:48:47Z</time>
      </trkpt>
      <trkpt lat="47.0649240" lon="3.0164810">
        <ele>180.8</ele>
        <time>2020-07-03T15:48:53Z</time>
      </trkpt>
      <trkpt lat="47.0652050" lon="3.0163120">
        <ele>180.4</ele>
        <time>2020-07-03T15:49:02Z</time>
      </trkpt>
      <trkpt lat="47.0653870" lon="3.0162020">
        <ele>180.2</ele>
        <time>2020-07-03T15:49:08Z</time>
      </trkpt>
      <trkpt lat="47.0654740" lon="3.0161230">
        <ele>180.2</ele>
        <time>2020-07-03T15:49:11Z</time>
      </trkpt>
      <trkpt lat="47.0656960" lon="3.0159330">
        <ele>180.2</ele>
        <time>2020-07-03T15:49:18Z</time>
      </trkpt>
      <trkpt lat="47.0657350" lon="3.0159040">
        <ele>180.2</ele>
        <time>2020-07-03T15:49:19Z</time>
      </trkpt>
      <trkpt lat="47.0657770" lon="3.0158770">
        <ele>180.2</ele>
        <time>2020-07-03T15:49:20Z</time>
      </trkpt>
      <trkpt lat="47.0659520" lon="3.0157780">
        <ele>180.4</ele>
        <time>2020-07-03T15:49:24Z</time>
      </trkpt>
      <trkpt lat="47.0662300" lon="3.0155970">
        <ele>180.4</ele>
        <time>2020-07-03T15:49:31Z</time>
      </trkpt>
      <trkpt lat="47.0663160" lon="3.0155650">
        <ele>180.6</ele>
        <time>2020-07-03T15:49:33Z</time>
      </trkpt>
      <trkpt lat="47.0664200" lon="3.0154850">
        <ele>180.6</ele>
        <time>2020-07-03T15:49:36Z</time>
      </trkpt>
      <trkpt lat="47.0667120" lon="3.0152690">
        <ele>180.4</ele>
        <time>2020-07-03T15:49:44Z</time>
      </trkpt>
      <trkpt lat="47.0670270" lon="3.0150880">
        <ele>180.4</ele>
        <time>2020-07-03T15:49:52Z</time>
      </trkpt>
      <trkpt lat="47.0672480" lon="3.0149720">
        <ele>180.6</ele>
        <time>2020-07-03T15:49:59Z</time>
      </trkpt>
      <trkpt lat="47.0674390" lon="3.0148240">
        <ele>181.2</ele>
        <time>2020-07-03T15:50:06Z</time>
      </trkpt>
      <trkpt lat="47.0675810" lon="3.0146920">
        <ele>181.4</ele>
        <time>2020-07-03T15:50:12Z</time>
      </trkpt>
      <trkpt lat="47.0676640" lon="3.0146420">
        <ele>181.6</ele>
        <time>2020-07-03T15:50:15Z</time>
      </trkpt>
      <trkpt lat="47.0678940" lon="3.0144350">
        <ele>181.6</ele>
        <time>2020-07-03T15:50:23Z</time>
      </trkpt>
      <trkpt lat="47.0680180" lon="3.0142880">
        <ele>181.6</ele>
        <time>2020-07-03T15:50:27Z</time>
      </trkpt>
      <trkpt lat="47.0681420" lon="3.0141390">
        <ele>181.4</ele>
        <time>2020-07-03T15:50:31Z</time>
      </trkpt>
      <trkpt lat="47.0681660" lon="3.0141110">
        <ele>181.4</ele>
        <time>2020-07-03T15:50:32Z</time>
      </trkpt>
      <trkpt lat="47.0682960" lon="3.0140230">
        <ele>181.4</ele>
        <time>2020-07-03T15:50:38Z</time>
      </trkpt>
      <trkpt lat="47.0683850" lon="3.0140060">
        <ele>181.4</ele>
        <time>2020-07-03T15:50:42Z</time>
      </trkpt>
      <trkpt lat="47.0684480" lon="3.0139870">
        <ele>181.4</ele>
        <time>2020-07-03T15:50:44Z</time>
      </trkpt>
      <trkpt lat="47.0684810" lon="3.0139790">
        <ele>181.4</ele>
        <time>2020-07-03T15:50:45Z</time>
      </trkpt>
      <trkpt lat="47.0685210" lon="3.0139700">
        <ele>181.4</ele>
        <time>2020-07-03T15:50:46Z</time>
      </trkpt>
      <trkpt lat="47.0685600" lon="3.0139550">
        <ele>181.2</ele>
        <time>2020-07-03T15:50:47Z</time>
      </trkpt>
      <trkpt lat="47.0687470" lon="3.0138520">
        <ele>181.2</ele>
        <time>2020-07-03T15:50:52Z</time>
      </trkpt>
      <trkpt lat="47.0688230" lon="3.0138110">
        <ele>181.2</ele>
        <time>2020-07-03T15:50:54Z</time>
      </trkpt>
      <trkpt lat="47.0689890" lon="3.0137170">
        <ele>180.2</ele>
        <time>2020-07-03T15:50:59Z</time>
      </trkpt>
      <trkpt lat="47.0690210" lon="3.0136910">
        <ele>180.0</ele>
        <time>2020-07-03T15:51:00Z</time>
      </trkpt>
      <trkpt lat="47.0690680" lon="3.0136780">
        <ele>179.4</ele>
        <time>2020-07-03T15:51:02Z</time>
      </trkpt>
      <trkpt lat="47.0690780" lon="3.0136940">
        <ele>179.2</ele>
        <time>2020-07-03T15:51:03Z</time>
      </trkpt>
      <trkpt lat="47.0690290" lon="3.0138230">
        <ele>178.0</ele>
        <time>2020-07-03T15:51:07Z</time>
      </trkpt>
      <trkpt lat="47.0687760" lon="3.0141030">
        <ele>177.2</ele>
        <time>2020-07-03T15:51:15Z</time>
      </trkpt>
      <trkpt lat="47.0683670" lon="3.0144450">
        <ele>177.2</ele>
        <time>2020-07-03T15:51:25Z</time>
      </trkpt>
      <trkpt lat="47.0682330" lon="3.0145540">
        <ele>177.2</ele>
        <time>2020-07-03T15:51:28Z</time>
      </trkpt>
      <trkpt lat="47.0679850" lon="3.0147260">
        <ele>176.8</ele>
        <time>2020-07-03T15:51:33Z</time>
      </trkpt>
      <trkpt lat="47.0676350" lon="3.0149430">
        <ele>176.4</ele>
        <time>2020-07-03T15:51:41Z</time>
      </trkpt>
      <trkpt lat="47.0673170" lon="3.0151510">
        <ele>176.4</ele>
        <time>2020-07-03T15:51:48Z</time>
      </trkpt>
      <trkpt lat="47.0669590" lon="3.0154000">
        <ele>176.8</ele>
        <time>2020-07-03T15:51:56Z</time>
      </trkpt>
      <trkpt lat="47.0667090" lon="3.0155760">
        <ele>176.8</ele>
        <time>2020-07-03T15:52:01Z</time>
      </trkpt>
      <trkpt lat="47.0664810" lon="3.0157300">
        <ele>176.8</ele>
        <time>2020-07-03T15:52:06Z</time>
      </trkpt>
      <trkpt lat="47.0663900" lon="3.0158060">
        <ele>176.8</ele>
        <time>2020-07-03T15:52:08Z</time>
      </trkpt>
      <trkpt lat="47.0660570" lon="3.0160520">
        <ele>176.8</ele>
        <time>2020-07-03T15:52:15Z</time>
      </trkpt>
      <trkpt lat="47.0655870" lon="3.0163930">
        <ele>176.4</ele>
        <time>2020-07-03T15:52:24Z</time>
      </trkpt>
      <trkpt lat="47.0652330" lon="3.0165770">
        <ele>176.2</ele>
        <time>2020-07-03T15:52:31Z</time>
      </trkpt>
      <trkpt lat="47.0651330" lon="3.0166270">
        <ele>176.4</ele>
        <time>2020-07-03T15:52:33Z</time>
      </trkpt>
      <trkpt lat="47.0647160" lon="3.0169570">
        <ele>177.0</ele>
        <time>2020-07-03T15:52:41Z</time>
      </trkpt>
      <trkpt lat="47.0641950" lon="3.0173300">
        <ele>177.2</ele>
        <time>2020-07-03T15:52:51Z</time>
      </trkpt>
      <trkpt lat="47.0641400" lon="3.0173720">
        <ele>177.2</ele>
        <time>2020-07-03T15:52:52Z</time>
      </trkpt>
      <trkpt lat="47.0636510" lon="3.0177200">
        <ele>177.6</ele>
        <time>2020-07-03T15:53:01Z</time>
      </trkpt>
      <trkpt lat="47.0635990" lon="3.0177580">
        <ele>177.4</ele>
        <time>2020-07-03T15:53:02Z</time>
      </trkpt>
      <trkpt lat="47.0630990" lon="3.0181190">
        <ele>177.4</ele>
        <time>2020-07-03T15:53:11Z</time>
      </trkpt>
      <trkpt lat="47.0630430" lon="3.0181660">
        <ele>177.4</ele>
        <time>2020-07-03T15:53:12Z</time>
      </trkpt>
      <trkpt lat="47.0625550" lon="3.0185050">
        <ele>177.2</ele>
        <time>2020-07-03T15:53:21Z</time>
      </trkpt>
      <trkpt lat="47.0624460" lon="3.0185730">
        <ele>177.2</ele>
        <time>2020-07-03T15:53:23Z</time>
      </trkpt>
      <trkpt lat="47.0620720" lon="3.0189610">
        <ele>176.8</ele>
        <time>2020-07-03T15:53:31Z</time>
      </trkpt>
      <trkpt lat="47.0617070" lon="3.0194080">
        <ele>176.8</ele>
        <time>2020-07-03T15:53:39Z</time>
      </trkpt>
      <trkpt lat="47.0613650" lon="3.0197880">
        <ele>176.4</ele>
        <time>2020-07-03T15:53:46Z</time>
      </trkpt>
      <trkpt lat="47.0612160" lon="3.0199560">
        <ele>176.4</ele>
        <time>2020-07-03T15:53:49Z</time>
      </trkpt>
      <trkpt lat="47.0607760" lon="3.0204730">
        <ele>176.2</ele>
        <time>2020-07-03T15:53:58Z</time>
      </trkpt>
      <trkpt lat="47.0607300" lon="3.0205310">
        <ele>176.2</ele>
        <time>2020-07-03T15:53:59Z</time>
      </trkpt>
      <trkpt lat="47.0603040" lon="3.0210240">
        <ele>176.0</ele>
        <time>2020-07-03T15:54:08Z</time>
      </trkpt>
      <trkpt lat="47.0602550" lon="3.0210850">
        <ele>175.8</ele>
        <time>2020-07-03T15:54:09Z</time>
      </trkpt>
      <trkpt lat="47.0601590" lon="3.0212010">
        <ele>176.0</ele>
        <time>2020-07-03T15:54:11Z</time>
      </trkpt>
      <trkpt lat="47.0599760" lon="3.0214250">
        <ele>175.8</ele>
        <time>2020-07-03T15:54:15Z</time>
      </trkpt>
      <trkpt lat="47.0598320" lon="3.0215920">
        <ele>175.6</ele>
        <time>2020-07-03T15:54:18Z</time>
      </trkpt>
      <trkpt lat="47.0594900" lon="3.0220120">
        <ele>175.6</ele>
        <time>2020-07-03T15:54:25Z</time>
      </trkpt>
      <trkpt lat="47.0592410" lon="3.0222740">
        <ele>175.2</ele>
        <time>2020-07-03T15:54:30Z</time>
      </trkpt>
      <trkpt lat="47.0591640" lon="3.0223750">
        <ele>175.2</ele>
        <time>2020-07-03T15:54:32Z</time>
      </trkpt>
      <trkpt lat="47.0591030" lon="3.0224730">
        <ele>175.4</ele>
        <time>2020-07-03T15:54:34Z</time>
      </trkpt>
      <trkpt lat="47.0588740" lon="3.0227780">
        <ele>175.6</ele>
        <time>2020-07-03T15:54:40Z</time>
      </trkpt>
      <trkpt lat="47.0587420" lon="3.0229590">
        <ele>175.6</ele>
        <time>2020-07-03T15:54:44Z</time>
      </trkpt>
      <trkpt lat="47.0586700" lon="3.0230860">
        <ele>175.8</ele>
        <time>2020-07-03T15:54:47Z</time>
      </trkpt>
      <trkpt lat="47.0585700" lon="3.0232190">
        <ele>175.8</ele>
        <time>2020-07-03T15:54:50Z</time>
      </trkpt>
      <trkpt lat="47.0584520" lon="3.0233350">
        <ele>176.0</ele>
        <time>2020-07-03T15:54:53Z</time>
      </trkpt>
      <trkpt lat="47.0581800" lon="3.0236440">
        <ele>176.2</ele>
        <time>2020-07-03T15:54:59Z</time>
      </trkpt>
      <trkpt lat="47.0580490" lon="3.0238400">
        <ele>176.4</ele>
        <time>2020-07-03T15:55:03Z</time>
      </trkpt>
      <trkpt lat="47.0579850" lon="3.0238990">
        <ele>176.4</ele>
        <time>2020-07-03T15:55:05Z</time>
      </trkpt>
      <trkpt lat="47.0578540" lon="3.0240820">
        <ele>176.4</ele>
        <time>2020-07-03T15:55:10Z</time>
      </trkpt>
      <trkpt lat="47.0577760" lon="3.0242000">
        <ele>176.4</ele>
        <time>2020-07-03T15:55:13Z</time>
      </trkpt>
      <trkpt lat="47.0576450" lon="3.0243580">
        <ele>176.4</ele>
        <time>2020-07-03T15:55:17Z</time>
      </trkpt>
      <trkpt lat="47.0574130" lon="3.0246740">
        <ele>176.6</ele>
        <time>2020-07-03T15:55:25Z</time>
      </trkpt>
      <trkpt lat="47.0573830" lon="3.0247050">
        <ele>176.6</ele>
        <time>2020-07-03T15:55:26Z</time>
      </trkpt>
      <trkpt lat="47.0573550" lon="3.0247360">
        <ele>176.4</ele>
        <time>2020-07-03T15:55:27Z</time>
      </trkpt>
      <trkpt lat="47.0573280" lon="3.0247680">
        <ele>176.2</ele>
        <time>2020-07-03T15:55:28Z</time>
      </trkpt>
      <trkpt lat="47.0572770" lon="3.0248310">
        <ele>176.4</ele>
        <time>2020-07-03T15:55:30Z</time>
      </trkpt>
      <trkpt lat="47.0572510" lon="3.0248650">
        <ele>176.2</ele>
        <time>2020-07-03T15:55:31Z</time>
      </trkpt>
      <trkpt lat="47.0571700" lon="3.0249580">
        <ele>176.4</ele>
        <time>2020-07-03T15:55:34Z</time>
      </trkpt>
      <trkpt lat="47.0570070" lon="3.0250920">
        <ele>176.4</ele>
        <time>2020-07-03T15:55:40Z</time>
      </trkpt>
      <trkpt lat="47.0568170" lon="3.0253090">
        <ele>176.4</ele>
        <time>2020-07-03T15:55:48Z</time>
      </trkpt>
      <trkpt lat="47.0566110" lon="3.0255520">
        <ele>176.2</ele>
        <time>2020-07-03T15:55:54Z</time>
      </trkpt>
      <trkpt lat="47.0563470" lon="3.0258830">
        <ele>176.0</ele>
        <time>2020-07-03T15:56:01Z</time>
      </trkpt>
      <trkpt lat="47.0559480" lon="3.0263330">
        <ele>176.0</ele>
        <time>2020-07-03T15:56:10Z</time>
      </trkpt>
      <trkpt lat="47.0555330" lon="3.0269250">
        <ele>176.4</ele>
        <time>2020-07-03T15:56:20Z</time>
      </trkpt>
      <trkpt lat="47.0554920" lon="3.0269800">
        <ele>176.4</ele>
        <time>2020-07-03T15:56:21Z</time>
      </trkpt>
      <trkpt lat="47.0553760" lon="3.0271250">
        <ele>176.6</ele>
        <time>2020-07-03T15:56:24Z</time>
      </trkpt>
      <trkpt lat="47.0552800" lon="3.0272400">
        <ele>176.6</ele>
        <time>2020-07-03T15:56:27Z</time>
      </trkpt>
      <trkpt lat="47.0550600" lon="3.0275780">
        <ele>178.6</ele>
        <time>2020-07-03T15:56:35Z</time>
      </trkpt>
      <trkpt lat="47.0549120" lon="3.0278460">
        <ele>179.2</ele>
        <time>2020-07-03T15:56:40Z</time>
      </trkpt>
      <trkpt lat="47.0547170" lon="3.0282020">
        <ele>179.2</ele>
        <time>2020-07-03T15:56:46Z</time>
      </trkpt>
      <trkpt lat="47.0543700" lon="3.0288240">
        <ele>179.2</ele>
        <time>2020-07-03T15:56:57Z</time>
      </trkpt>
      <trkpt lat="47.0540660" lon="3.0293050">
        <ele>179.0</ele>
        <time>2020-07-03T15:57:06Z</time>
      </trkpt>
      <trkpt lat="47.0537690" lon="3.0298210">
        <ele>179.0</ele>
        <time>2020-07-03T15:57:16Z</time>
      </trkpt>
      <trkpt lat="47.0535010" lon="3.0302570">
        <ele>179.4</ele>
        <time>2020-07-03T15:57:25Z</time>
      </trkpt>
      <trkpt lat="47.0532640" lon="3.0306880">
        <ele>179.2</ele>
        <time>2020-07-03T15:57:32Z</time>
      </trkpt>
      <trkpt lat="47.0529160" lon="3.0313910">
        <ele>179.2</ele>
        <time>2020-07-03T15:57:41Z</time>
      </trkpt>
      <trkpt lat="47.0527930" lon="3.0316530">
        <ele>179.0</ele>
        <time>2020-07-03T15:57:44Z</time>
      </trkpt>
      <trkpt lat="47.0525940" lon="3.0321400">
        <ele>178.8</ele>
        <time>2020-07-03T15:57:49Z</time>
      </trkpt>
      <trkpt lat="47.0523600" lon="3.0328950">
        <ele>178.2</ele>
        <time>2020-07-03T15:57:56Z</time>
      </trkpt>
      <trkpt lat="47.0523190" lon="3.0329970">
        <ele>178.0</ele>
        <time>2020-07-03T15:57:57Z</time>
      </trkpt>
      <trkpt lat="47.0519750" lon="3.0336830">
        <ele>177.6</ele>
        <time>2020-07-03T15:58:04Z</time>
      </trkpt>
      <trkpt lat="47.0516620" lon="3.0343100">
        <ele>177.6</ele>
        <time>2020-07-03T15:58:11Z</time>
      </trkpt>
      <trkpt lat="47.0513190" lon="3.0348740">
        <ele>178.0</ele>
        <time>2020-07-03T15:58:19Z</time>
      </trkpt>
      <trkpt lat="47.0509290" lon="3.0354580">
        <ele>178.2</ele>
        <time>2020-07-03T15:58:29Z</time>
      </trkpt>
      <trkpt lat="47.0505720" lon="3.0360320">
        <ele>178.4</ele>
        <time>2020-07-03T15:58:38Z</time>
      </trkpt>
      <trkpt lat="47.0502270" lon="3.0366880">
        <ele>178.6</ele>
        <time>2020-07-03T15:58:47Z</time>
      </trkpt>
      <trkpt lat="47.0498760" lon="3.0373740">
        <ele>178.4</ele>
        <time>2020-07-03T15:58:56Z</time>
      </trkpt>
      <trkpt lat="47.0495450" lon="3.0380020">
        <ele>178.2</ele>
        <time>2020-07-03T15:59:04Z</time>
      </trkpt>
      <trkpt lat="47.0494620" lon="3.0381670">
        <ele>178.0</ele>
        <time>2020-07-03T15:59:06Z</time>
      </trkpt>
      <trkpt lat="47.0491560" lon="3.0386260">
        <ele>178.0</ele>
        <time>2020-07-03T15:59:12Z</time>
      </trkpt>
      <trkpt lat="47.0490970" lon="3.0387010">
        <ele>178.0</ele>
        <time>2020-07-03T15:59:13Z</time>
      </trkpt>
      <trkpt lat="47.0486710" lon="3.0392110">
        <ele>177.6</ele>
        <time>2020-07-03T15:59:20Z</time>
      </trkpt>
      <trkpt lat="47.0486070" lon="3.0392750">
        <ele>177.6</ele>
        <time>2020-07-03T15:59:21Z</time>
      </trkpt>
      <trkpt lat="47.0481190" lon="3.0398090">
        <ele>177.4</ele>
        <time>2020-07-03T15:59:29Z</time>
      </trkpt>
      <trkpt lat="47.0479920" lon="3.0399470">
        <ele>177.4</ele>
        <time>2020-07-03T15:59:31Z</time>
      </trkpt>
      <trkpt lat="47.0477250" lon="3.0403650">
        <ele>177.6</ele>
        <time>2020-07-03T15:59:36Z</time>
      </trkpt>
      <trkpt lat="47.0473900" lon="3.0411110">
        <ele>177.6</ele>
        <time>2020-07-03T15:59:44Z</time>
      </trkpt>
      <trkpt lat="47.0472200" lon="3.0415010">
        <ele>177.8</ele>
        <time>2020-07-03T15:59:48Z</time>
      </trkpt>
      <trkpt lat="47.0469200" lon="3.0421740">
        <ele>178.0</ele>
        <time>2020-07-03T15:59:55Z</time>
      </trkpt>
      <trkpt lat="47.0467000" lon="3.0426430">
        <ele>178.0</ele>
        <time>2020-07-03T16:00:00Z</time>
      </trkpt>
      <trkpt lat="47.0464070" lon="3.0433120">
        <ele>178.2</ele>
        <time>2020-07-03T16:00:07Z</time>
      </trkpt>
      <trkpt lat="47.0462580" lon="3.0437070">
        <ele>178.0</ele>
        <time>2020-07-03T16:00:11Z</time>
      </trkpt>
      <trkpt lat="47.0459560" lon="3.0444800">
        <ele>177.8</ele>
        <time>2020-07-03T16:00:19Z</time>
      </trkpt>
      <trkpt lat="47.0458450" lon="3.0447650">
        <ele>177.8</ele>
        <time>2020-07-03T16:00:22Z</time>
      </trkpt>
      <trkpt lat="47.0455380" lon="3.0455020">
        <ele>177.6</ele>
        <time>2020-07-03T16:00:30Z</time>
      </trkpt>
      <trkpt lat="47.0454650" lon="3.0456950">
        <ele>177.6</ele>
        <time>2020-07-03T16:00:32Z</time>
      </trkpt>
      <trkpt lat="47.0452680" lon="3.0461710">
        <ele>177.8</ele>
        <time>2020-07-03T16:00:37Z</time>
      </trkpt>
      <trkpt lat="47.0450000" lon="3.0468260">
        <ele>177.6</ele>
        <time>2020-07-03T16:00:44Z</time>
      </trkpt>
      <trkpt lat="47.0446970" lon="3.0475800">
        <ele>177.4</ele>
        <time>2020-07-03T16:00:52Z</time>
      </trkpt>
      <trkpt lat="47.0445750" lon="3.0478650">
        <ele>177.4</ele>
        <time>2020-07-03T16:00:55Z</time>
      </trkpt>
      <trkpt lat="47.0443470" lon="3.0484390">
        <ele>177.4</ele>
        <time>2020-07-03T16:01:01Z</time>
      </trkpt>
      <trkpt lat="47.0441140" lon="3.0490220">
        <ele>177.4</ele>
        <time>2020-07-03T16:01:07Z</time>
      </trkpt>
      <trkpt lat="47.0440770" lon="3.0491190">
        <ele>177.4</ele>
        <time>2020-07-03T16:01:08Z</time>
      </trkpt>
      <trkpt lat="47.0440390" lon="3.0492160">
        <ele>177.4</ele>
        <time>2020-07-03T16:01:09Z</time>
      </trkpt>
      <trkpt lat="47.0437320" lon="3.0499790">
        <ele>177.4</ele>
        <time>2020-07-03T16:01:17Z</time>
      </trkpt>
      <trkpt lat="47.0436210" lon="3.0502610">
        <ele>177.2</ele>
        <time>2020-07-03T16:01:20Z</time>
      </trkpt>
      <trkpt lat="47.0433170" lon="3.0509990">
        <ele>177.4</ele>
        <time>2020-07-03T16:01:28Z</time>
      </trkpt>
      <trkpt lat="47.0431250" lon="3.0514860">
        <ele>177.6</ele>
        <time>2020-07-03T16:01:33Z</time>
      </trkpt>
      <trkpt lat="47.0428590" lon="3.0521950">
        <ele>177.6</ele>
        <time>2020-07-03T16:01:40Z</time>
      </trkpt>
      <trkpt lat="47.0427010" lon="3.0525970">
        <ele>177.6</ele>
        <time>2020-07-03T16:01:44Z</time>
      </trkpt>
      <trkpt lat="47.0424260" lon="3.0532860">
        <ele>177.8</ele>
        <time>2020-07-03T16:01:51Z</time>
      </trkpt>
      <trkpt lat="47.0423420" lon="3.0534770">
        <ele>177.8</ele>
        <time>2020-07-03T16:01:53Z</time>
      </trkpt>
      <trkpt lat="47.0421700" lon="3.0538570">
        <ele>177.6</ele>
        <time>2020-07-03T16:01:57Z</time>
      </trkpt>
      <trkpt lat="47.0419750" lon="3.0542110">
        <ele>177.8</ele>
        <time>2020-07-03T16:02:01Z</time>
      </trkpt>
      <trkpt lat="47.0418660" lon="3.0543750">
        <ele>177.8</ele>
        <time>2020-07-03T16:02:03Z</time>
      </trkpt>
      <trkpt lat="47.0417030" lon="3.0546320">
        <ele>178.0</ele>
        <time>2020-07-03T16:02:06Z</time>
      </trkpt>
      <trkpt lat="47.0413660" lon="3.0551450">
        <ele>178.2</ele>
        <time>2020-07-03T16:02:12Z</time>
      </trkpt>
      <trkpt lat="47.0409620" lon="3.0557400">
        <ele>178.2</ele>
        <time>2020-07-03T16:02:19Z</time>
      </trkpt>
      <trkpt lat="47.0409070" lon="3.0558270">
        <ele>178.2</ele>
        <time>2020-07-03T16:02:20Z</time>
      </trkpt>
      <trkpt lat="47.0408510" lon="3.0559140">
        <ele>178.2</ele>
        <time>2020-07-03T16:02:21Z</time>
      </trkpt>
      <trkpt lat="47.0404440" lon="3.0565310">
        <ele>178.0</ele>
        <time>2020-07-03T16:02:28Z</time>
      </trkpt>
      <trkpt lat="47.0402100" lon="3.0568820">
        <ele>177.8</ele>
        <time>2020-07-03T16:02:32Z</time>
      </trkpt>
      <trkpt lat="47.0398010" lon="3.0574770">
        <ele>177.8</ele>
        <time>2020-07-03T16:02:39Z</time>
      </trkpt>
      <trkpt lat="47.0396300" lon="3.0577430">
        <ele>177.8</ele>
        <time>2020-07-03T16:02:42Z</time>
      </trkpt>
      <trkpt lat="47.0392340" lon="3.0583590">
        <ele>177.6</ele>
        <time>2020-07-03T16:02:49Z</time>
      </trkpt>
      <trkpt lat="47.0390670" lon="3.0586170">
        <ele>177.6</ele>
        <time>2020-07-03T16:02:52Z</time>
      </trkpt>
      <trkpt lat="47.0389600" lon="3.0587880">
        <ele>177.6</ele>
        <time>2020-07-03T16:02:54Z</time>
      </trkpt>
      <trkpt lat="47.0385750" lon="3.0593770">
        <ele>178.2</ele>
        <time>2020-07-03T16:03:01Z</time>
      </trkpt>
      <trkpt lat="47.0383140" lon="3.0597920">
        <ele>178.6</ele>
        <time>2020-07-03T16:03:06Z</time>
      </trkpt>
      <trkpt lat="47.0379390" lon="3.0603850">
        <ele>179.0</ele>
        <time>2020-07-03T16:03:13Z</time>
      </trkpt>
      <trkpt lat="47.0376590" lon="3.0608230">
        <ele>179.0</ele>
        <time>2020-07-03T16:03:18Z</time>
      </trkpt>
      <trkpt lat="47.0372560" lon="3.0614440">
        <ele>178.8</ele>
        <time>2020-07-03T16:03:25Z</time>
      </trkpt>
      <trkpt lat="47.0369730" lon="3.0618920">
        <ele>179.0</ele>
        <time>2020-07-03T16:03:30Z</time>
      </trkpt>
      <trkpt lat="47.0368550" lon="3.0620620">
        <ele>178.8</ele>
        <time>2020-07-03T16:03:32Z</time>
      </trkpt>
      <trkpt lat="47.0365230" lon="3.0624210">
        <ele>178.4</ele>
        <time>2020-07-03T16:03:37Z</time>
      </trkpt>
      <trkpt lat="47.0364580" lon="3.0624870">
        <ele>178.4</ele>
        <time>2020-07-03T16:03:38Z</time>
      </trkpt>
      <trkpt lat="47.0359820" lon="3.0629210">
        <ele>178.4</ele>
        <time>2020-07-03T16:03:45Z</time>
      </trkpt>
      <trkpt lat="47.0355570" lon="3.0632730">
        <ele>178.6</ele>
        <time>2020-07-03T16:03:51Z</time>
      </trkpt>
      <trkpt lat="47.0354160" lon="3.0633960">
        <ele>178.8</ele>
        <time>2020-07-03T16:03:53Z</time>
      </trkpt>
      <trkpt lat="47.0350650" lon="3.0636990">
        <ele>178.8</ele>
        <time>2020-07-03T16:03:58Z</time>
      </trkpt>
      <trkpt lat="47.0348550" lon="3.0638730">
        <ele>179.0</ele>
        <time>2020-07-03T16:04:01Z</time>
      </trkpt>
      <trkpt lat="47.0345070" lon="3.0641740">
        <ele>178.8</ele>
        <time>2020-07-03T16:04:06Z</time>
      </trkpt>
      <trkpt lat="47.0340380" lon="3.0645830">
        <ele>178.4</ele>
        <time>2020-07-03T16:04:13Z</time>
      </trkpt>
      <trkpt lat="47.0337760" lon="3.0648200">
        <ele>178.4</ele>
        <time>2020-07-03T16:04:17Z</time>
      </trkpt>
      <trkpt lat="47.0335200" lon="3.0650560">
        <ele>178.2</ele>
        <time>2020-07-03T16:04:21Z</time>
      </trkpt>
      <trkpt lat="47.0333290" lon="3.0652380">
        <ele>178.2</ele>
        <time>2020-07-03T16:04:24Z</time>
      </trkpt>
      <trkpt lat="47.0330170" lon="3.0655550">
        <ele>178.4</ele>
        <time>2020-07-03T16:04:29Z</time>
      </trkpt>
      <trkpt lat="47.0325550" lon="3.0661140">
        <ele>178.4</ele>
        <time>2020-07-03T16:04:37Z</time>
      </trkpt>
      <trkpt lat="47.0323840" lon="3.0663250">
        <ele>178.4</ele>
        <time>2020-07-03T16:04:40Z</time>
      </trkpt>
      <trkpt lat="47.0319720" lon="3.0668400">
        <ele>179.2</ele>
        <time>2020-07-03T16:04:47Z</time>
      </trkpt>
      <trkpt lat="47.0317440" lon="3.0671390">
        <ele>180.0</ele>
        <time>2020-07-03T16:04:51Z</time>
      </trkpt>
      <trkpt lat="47.0312930" lon="3.0677180">
        <ele>180.4</ele>
        <time>2020-07-03T16:04:59Z</time>
      </trkpt>
      <trkpt lat="47.0311680" lon="3.0678590">
        <ele>180.2</ele>
        <time>2020-07-03T16:05:01Z</time>
      </trkpt>
      <trkpt lat="47.0308130" lon="3.0680980">
        <ele>179.8</ele>
        <time>2020-07-03T16:05:06Z</time>
      </trkpt>
      <trkpt lat="47.0306710" lon="3.0681720">
        <ele>179.8</ele>
        <time>2020-07-03T16:05:08Z</time>
      </trkpt>
      <trkpt lat="47.0302680" lon="3.0683860">
        <ele>179.4</ele>
        <time>2020-07-03T16:05:14Z</time>
      </trkpt>
      <trkpt lat="47.0302020" lon="3.0684240">
        <ele>179.4</ele>
        <time>2020-07-03T16:05:15Z</time>
      </trkpt>
      <trkpt lat="47.0296810" lon="3.0687340">
        <ele>179.0</ele>
        <time>2020-07-03T16:05:23Z</time>
      </trkpt>
      <trkpt lat="47.0292870" lon="3.0689680">
        <ele>179.2</ele>
        <time>2020-07-03T16:05:29Z</time>
      </trkpt>
      <trkpt lat="47.0287740" lon="3.0692720">
        <ele>179.2</ele>
        <time>2020-07-03T16:05:37Z</time>
      </trkpt>
      <trkpt lat="47.0287150" lon="3.0693070">
        <ele>179.2</ele>
        <time>2020-07-03T16:05:38Z</time>
      </trkpt>
      <trkpt lat="47.0286610" lon="3.0693360">
        <ele>179.2</ele>
        <time>2020-07-03T16:05:39Z</time>
      </trkpt>
      <trkpt lat="47.0286110" lon="3.0693530">
        <ele>179.2</ele>
        <time>2020-07-03T16:05:40Z</time>
      </trkpt>
      <trkpt lat="47.0284630" lon="3.0693570">
        <ele>179.4</ele>
        <time>2020-07-03T16:05:43Z</time>
      </trkpt>
      <trkpt lat="47.0284150" lon="3.0693430">
        <ele>179.4</ele>
        <time>2020-07-03T16:05:44Z</time>
      </trkpt>
      <trkpt lat="47.0282440" lon="3.0692560">
        <ele>179.8</ele>
        <time>2020-07-03T16:05:48Z</time>
      </trkpt>
      <trkpt lat="47.0280280" lon="3.0691320">
        <ele>181.0</ele>
        <time>2020-07-03T16:05:55Z</time>
      </trkpt>
      <trkpt lat="47.0278770" lon="3.0690980">
        <ele>181.0</ele>
        <time>2020-07-03T16:06:00Z</time>
      </trkpt>
      <trkpt lat="47.0275720" lon="3.0690760">
        <ele>180.8</ele>
        <time>2020-07-03T16:06:06Z</time>
      </trkpt>
      <trkpt lat="47.0274510" lon="3.0690640">
        <ele>180.8</ele>
        <time>2020-07-03T16:06:08Z</time>
      </trkpt>
      <trkpt lat="47.0269690" lon="3.0690060">
        <ele>180.4</ele>
        <time>2020-07-03T16:06:16Z</time>
      </trkpt>
      <trkpt lat="47.0264160" lon="3.0689530">
        <ele>180.2</ele>
        <time>2020-07-03T16:06:25Z</time>
      </trkpt>
      <trkpt lat="47.0263470" lon="3.0689470">
        <ele>180.2</ele>
        <time>2020-07-03T16:06:26Z</time>
      </trkpt>
      <trkpt lat="47.0261300" lon="3.0689180">
        <ele>180.2</ele>
        <time>2020-07-03T16:06:29Z</time>
      </trkpt>
      <trkpt lat="47.0256770" lon="3.0688750">
        <ele>179.6</ele>
        <time>2020-07-03T16:06:35Z</time>
      </trkpt>
      <trkpt lat="47.0251200" lon="3.0688020">
        <ele>179.0</ele>
        <time>2020-07-03T16:06:42Z</time>
      </trkpt>
      <trkpt lat="47.0248760" lon="3.0688050">
        <ele>178.8</ele>
        <time>2020-07-03T16:06:45Z</time>
      </trkpt>
      <trkpt lat="47.0243120" lon="3.0688920">
        <ele>178.8</ele>
        <time>2020-07-03T16:06:52Z</time>
      </trkpt>
      <trkpt lat="47.0241590" lon="3.0689180">
        <ele>178.8</ele>
        <time>2020-07-03T16:06:54Z</time>
      </trkpt>
      <trkpt lat="47.0235550" lon="3.0690310">
        <ele>179.0</ele>
        <time>2020-07-03T16:07:02Z</time>
      </trkpt>
      <trkpt lat="47.0229640" lon="3.0691480">
        <ele>179.0</ele>
        <time>2020-07-03T16:07:10Z</time>
      </trkpt>
      <trkpt lat="47.0228180" lon="3.0691730">
        <ele>179.0</ele>
        <time>2020-07-03T16:07:12Z</time>
      </trkpt>
      <trkpt lat="47.0226740" lon="3.0692000">
        <ele>179.0</ele>
        <time>2020-07-03T16:07:14Z</time>
      </trkpt>
      <trkpt lat="47.0224580" lon="3.0692400">
        <ele>179.2</ele>
        <time>2020-07-03T16:07:17Z</time>
      </trkpt>
      <trkpt lat="47.0218930" lon="3.0693560">
        <ele>180.2</ele>
        <time>2020-07-03T16:07:25Z</time>
      </trkpt>
      <trkpt lat="47.0218230" lon="3.0693720">
        <ele>180.6</ele>
        <time>2020-07-03T16:07:26Z</time>
      </trkpt>
      <trkpt lat="47.0212560" lon="3.0694830">
        <ele>181.6</ele>
        <time>2020-07-03T16:07:34Z</time>
      </trkpt>
      <trkpt lat="47.0209650" lon="3.0695270">
        <ele>181.6</ele>
        <time>2020-07-03T16:07:38Z</time>
      </trkpt>
      <trkpt lat="47.0208200" lon="3.0695530">
        <ele>181.4</ele>
        <time>2020-07-03T16:07:40Z</time>
      </trkpt>
      <trkpt lat="47.0207490" lon="3.0695660">
        <ele>181.4</ele>
        <time>2020-07-03T16:07:41Z</time>
      </trkpt>
      <trkpt lat="47.0206040" lon="3.0695900">
        <ele>181.6</ele>
        <time>2020-07-03T16:07:43Z</time>
      </trkpt>
      <trkpt lat="47.0205330" lon="3.0696040">
        <ele>181.4</ele>
        <time>2020-07-03T16:07:44Z</time>
      </trkpt>
      <trkpt lat="47.0200340" lon="3.0696940">
        <ele>180.6</ele>
        <time>2020-07-03T16:07:51Z</time>
      </trkpt>
      <trkpt lat="47.0197580" lon="3.0697560">
        <ele>180.6</ele>
        <time>2020-07-03T16:07:55Z</time>
      </trkpt>
      <trkpt lat="47.0196890" lon="3.0697690">
        <ele>180.4</ele>
        <time>2020-07-03T16:07:56Z</time>
      </trkpt>
      <trkpt lat="47.0195480" lon="3.0697940">
        <ele>180.6</ele>
        <time>2020-07-03T16:07:58Z</time>
      </trkpt>
      <trkpt lat="47.0189810" lon="3.0699100">
        <ele>181.0</ele>
        <time>2020-07-03T16:08:06Z</time>
      </trkpt>
      <trkpt lat="47.0189120" lon="3.0699220">
        <ele>181.2</ele>
        <time>2020-07-03T16:08:07Z</time>
      </trkpt>
      <trkpt lat="47.0183630" lon="3.0700220">
        <ele>181.4</ele>
        <time>2020-07-03T16:08:15Z</time>
      </trkpt>
      <trkpt lat="47.0180080" lon="3.0700810">
        <ele>181.2</ele>
        <time>2020-07-03T16:08:20Z</time>
      </trkpt>
      <trkpt lat="47.0178660" lon="3.0701040">
        <ele>181.2</ele>
        <time>2020-07-03T16:08:22Z</time>
      </trkpt>
      <trkpt lat="47.0174530" lon="3.0701930">
        <ele>181.0</ele>
        <time>2020-07-03T16:08:28Z</time>
      </trkpt>
      <trkpt lat="47.0171270" lon="3.0702610">
        <ele>181.2</ele>
        <time>2020-07-03T16:08:33Z</time>
      </trkpt>
      <trkpt lat="47.0166940" lon="3.0703780">
        <ele>182.0</ele>
        <time>2020-07-03T16:08:40Z</time>
      </trkpt>
      <trkpt lat="47.0166420" lon="3.0704170">
        <ele>182.0</ele>
        <time>2020-07-03T16:08:41Z</time>
      </trkpt>
      <trkpt lat="47.0165960" lon="3.0704660">
        <ele>182.2</ele>
        <time>2020-07-03T16:08:42Z</time>
      </trkpt>
      <trkpt lat="47.0165230" lon="3.0706020">
        <ele>182.0</ele>
        <time>2020-07-03T16:08:44Z</time>
      </trkpt>
      <trkpt lat="47.0164940" lon="3.0706810">
        <ele>182.2</ele>
        <time>2020-07-03T16:08:45Z</time>
      </trkpt>
      <trkpt lat="47.0163510" lon="3.0711130">
        <ele>182.0</ele>
        <time>2020-07-03T16:08:50Z</time>
      </trkpt>
      <trkpt lat="47.0163110" lon="3.0711830">
        <ele>182.2</ele>
        <time>2020-07-03T16:08:51Z</time>
      </trkpt>
      <trkpt lat="47.0162640" lon="3.0712450">
        <ele>182.2</ele>
        <time>2020-07-03T16:08:52Z</time>
      </trkpt>
      <trkpt lat="47.0161100" lon="3.0713920">
        <ele>182.4</ele>
        <time>2020-07-03T16:08:55Z</time>
      </trkpt>
      <trkpt lat="47.0159560" lon="3.0715010">
        <ele>182.4</ele>
        <time>2020-07-03T16:08:58Z</time>
      </trkpt>
      <trkpt lat="47.0158240" lon="3.0715770">
        <ele>182.4</ele>
        <time>2020-07-03T16:09:01Z</time>
      </trkpt>
      <trkpt lat="47.0157080" lon="3.0716530">
        <ele>182.6</ele>
        <time>2020-07-03T16:09:04Z</time>
      </trkpt>
      <trkpt lat="47.0156670" lon="3.0716820">
        <ele>182.6</ele>
        <time>2020-07-03T16:09:05Z</time>
      </trkpt>
      <trkpt lat="47.0154940" lon="3.0717930">
        <ele>182.8</ele>
        <time>2020-07-03T16:09:09Z</time>
      </trkpt>
      <trkpt lat="47.0154090" lon="3.0718270">
        <ele>182.8</ele>
        <time>2020-07-03T16:09:11Z</time>
      </trkpt>
      <trkpt lat="47.0152800" lon="3.0718380">
        <ele>182.6</ele>
        <time>2020-07-03T16:09:14Z</time>
      </trkpt>
      <trkpt lat="47.0152380" lon="3.0718360">
        <ele>182.6</ele>
        <time>2020-07-03T16:09:15Z</time>
      </trkpt>
      <trkpt lat="47.0150810" lon="3.0717980">
        <ele>182.8</ele>
        <time>2020-07-03T16:09:19Z</time>
      </trkpt>
      <trkpt lat="47.0149740" lon="3.0717590">
        <ele>182.8</ele>
        <time>2020-07-03T16:09:22Z</time>
      </trkpt>
      <trkpt lat="47.0147770" lon="3.0716970">
        <ele>182.8</ele>
        <time>2020-07-03T16:09:28Z</time>
      </trkpt>
      <trkpt lat="47.0147420" lon="3.0716920">
        <ele>182.8</ele>
        <time>2020-07-03T16:09:29Z</time>
      </trkpt>
      <trkpt lat="47.0145050" lon="3.0716030">
        <ele>182.8</ele>
        <time>2020-07-03T16:09:35Z</time>
      </trkpt>
      <trkpt lat="47.0140060" lon="3.0714320">
        <ele>182.0</ele>
        <time>2020-07-03T16:09:45Z</time>
      </trkpt>
      <trkpt lat="47.0136650" lon="3.0713230">
        <ele>182.2</ele>
        <time>2020-07-03T16:09:53Z</time>
      </trkpt>
      <trkpt lat="47.0135370" lon="3.0712740">
        <ele>182.2</ele>
        <time>2020-07-03T16:09:56Z</time>
      </trkpt>
      <trkpt lat="47.0134920" lon="3.0712600">
        <ele>182.2</ele>
        <time>2020-07-03T16:09:57Z</time>
      </trkpt>
      <trkpt lat="47.0133020" lon="3.0711910">
        <ele>182.4</ele>
        <time>2020-07-03T16:10:01Z</time>
      </trkpt>
      <trkpt lat="47.0131580" lon="3.0711130">
        <ele>182.2</ele>
        <time>2020-07-03T16:10:04Z</time>
      </trkpt>
      <trkpt lat="47.0128590" lon="3.0709470">
        <ele>182.4</ele>
        <time>2020-07-03T16:10:10Z</time>
      </trkpt>
      <trkpt lat="47.0126290" lon="3.0708210">
        <ele>182.2</ele>
        <time>2020-07-03T16:10:16Z</time>
      </trkpt>
      <trkpt lat="47.0125360" lon="3.0708000">
        <ele>182.2</ele>
        <time>2020-07-03T16:10:22Z</time>
      </trkpt>
      <trkpt lat="47.0125360" lon="3.0707960">
        <ele>182.2</ele>
        <time>2020-07-03T16:10:23Z</time>
      </trkpt>
      <trkpt lat="47.0125450" lon="3.0707920">
        <ele>182.2</ele>
        <time>2020-07-03T16:10:31Z</time>
      </trkpt>
      <trkpt lat="47.0125720" lon="3.0707980">
        <ele>182.2</ele>
        <time>2020-07-03T16:10:49Z</time>
      </trkpt>
      <trkpt lat="47.0125950" lon="3.0708050">
        <ele>182.4</ele>
        <time>2020-07-03T16:11:15Z</time>
      </trkpt>
      <trkpt lat="47.0126280" lon="3.0708140">
        <ele>182.4</ele>
        <time>2020-07-03T16:11:43Z</time>
      </trkpt>
      <trkpt lat="47.0126530" lon="3.0708020">
        <ele>182.4</ele>
        <time>2020-07-03T16:12:04Z</time>
      </trkpt>
      <trkpt lat="47.0126600" lon="3.0708030">
        <ele>182.4</ele>
        <time>2020-07-03T16:12:28Z</time>
      </trkpt>
      <trkpt lat="47.0126790" lon="3.0708170">
        <ele>182.2</ele>
        <time>2020-07-03T16:12:49Z</time>
      </trkpt>
      <trkpt lat="47.0126960" lon="3.0708060">
        <ele>182.2</ele>
        <time>2020-07-03T16:13:15Z</time>
      </trkpt>
      <trkpt lat="47.0127010" lon="3.0708070">
        <ele>182.4</ele>
        <time>2020-07-03T16:13:39Z</time>
      </trkpt>
      <trkpt lat="47.0127130" lon="3.0708130">
        <ele>182.2</ele>
        <time>2020-07-03T16:14:07Z</time>
      </trkpt>
      <trkpt lat="47.0127160" lon="3.0708200">
        <ele>182.2</ele>
        <time>2020-07-03T16:14:33Z</time>
      </trkpt>
      <trkpt lat="47.0127130" lon="3.0708220">
        <ele>182.2</ele>
        <time>2020-07-03T16:15:10Z</time>
      </trkpt>
      <trkpt lat="47.0126930" lon="3.0708320">
        <ele>182.4</ele>
        <time>2020-07-03T16:17:16Z</time>
      </trkpt>
      <trkpt lat="47.0126870" lon="3.0708330">
        <ele>182.4</ele>
        <time>2020-07-03T16:17:40Z</time>
      </trkpt>
      <trkpt lat="47.0126720" lon="3.0708510">
        <ele>182.6</ele>
        <time>2020-07-03T16:19:05Z</time>
      </trkpt>
      <trkpt lat="47.0126270" lon="3.0708070">
        <ele>182.8</ele>
        <time>2020-07-03T16:19:26Z</time>
      </trkpt>
      <trkpt lat="47.0126130" lon="3.0707910">
        <ele>182.8</ele>
        <time>2020-07-03T16:19:27Z</time>
      </trkpt>
      <trkpt lat="47.0125350" lon="3.0706700">
        <ele>182.6</ele>
        <time>2020-07-03T16:19:33Z</time>
      </trkpt>
      <trkpt lat="47.0124750" lon="3.0706330">
        <ele>183.0</ele>
        <time>2020-07-03T16:19:40Z</time>
      </trkpt>
      <trkpt lat="47.0124540" lon="3.0706230">
        <ele>183.4</ele>
        <time>2020-07-03T16:19:41Z</time>
      </trkpt>
      <trkpt lat="47.0123660" lon="3.0706550">
        <ele>184.0</ele>
        <time>2020-07-03T16:19:48Z</time>
      </trkpt>
      <trkpt lat="47.0123530" lon="3.0706860">
        <ele>184.4</ele>
        <time>2020-07-03T16:19:52Z</time>
      </trkpt>
      <trkpt lat="47.0123480" lon="3.0706950">
        <ele>184.8</ele>
        <time>2020-07-03T16:19:56Z</time>
      </trkpt>
      <trkpt lat="47.0123500" lon="3.0707640">
        <ele>185.0</ele>
        <time>2020-07-03T16:20:08Z</time>
      </trkpt>
      <trkpt lat="47.0123540" lon="3.0710830">
        <ele>184.8</ele>
        <time>2020-07-03T16:20:17Z</time>
      </trkpt>
      <trkpt lat="47.0123640" lon="3.0714110">
        <ele>184.6</ele>
        <time>2020-07-03T16:20:22Z</time>
      </trkpt>
      <trkpt lat="47.0123660" lon="3.0714850">
        <ele>184.8</ele>
        <time>2020-07-03T16:20:23Z</time>
      </trkpt>
      <trkpt lat="47.0123860" lon="3.0721480">
        <ele>184.2</ele>
        <time>2020-07-03T16:20:31Z</time>
      </trkpt>
      <trkpt lat="47.0123960" lon="3.0729410">
        <ele>184.0</ele>
        <time>2020-07-03T16:20:40Z</time>
      </trkpt>
      <trkpt lat="47.0123940" lon="3.0733030">
        <ele>184.0</ele>
        <time>2020-07-03T16:20:44Z</time>
      </trkpt>
      <trkpt lat="47.0123920" lon="3.0741520">
        <ele>183.8</ele>
        <time>2020-07-03T16:20:53Z</time>
      </trkpt>
      <trkpt lat="47.0123910" lon="3.0742490">
        <ele>183.8</ele>
        <time>2020-07-03T16:20:54Z</time>
      </trkpt>
      <trkpt lat="47.0123850" lon="3.0751230">
        <ele>183.4</ele>
        <time>2020-07-03T16:21:03Z</time>
      </trkpt>
      <trkpt lat="47.0123810" lon="3.0753910">
        <ele>183.4</ele>
        <time>2020-07-03T16:21:06Z</time>
      </trkpt>
      <trkpt lat="47.0123880" lon="3.0762460">
        <ele>184.0</ele>
        <time>2020-07-03T16:21:15Z</time>
      </trkpt>
      <trkpt lat="47.0123800" lon="3.0766160">
        <ele>183.8</ele>
        <time>2020-07-03T16:21:19Z</time>
      </trkpt>
      <trkpt lat="47.0123830" lon="3.0771910">
        <ele>183.8</ele>
        <time>2020-07-03T16:21:25Z</time>
      </trkpt>
      <trkpt lat="47.0123840" lon="3.0773860">
        <ele>183.6</ele>
        <time>2020-07-03T16:21:27Z</time>
      </trkpt>
      <trkpt lat="47.0123920" lon="3.0780190">
        <ele>182.4</ele>
        <time>2020-07-03T16:21:34Z</time>
      </trkpt>
      <trkpt lat="47.0123580" lon="3.0784480">
        <ele>182.0</ele>
        <time>2020-07-03T16:21:39Z</time>
      </trkpt>
      <trkpt lat="47.0123610" lon="3.0785310">
        <ele>181.8</ele>
        <time>2020-07-03T16:21:40Z</time>
      </trkpt>
      <trkpt lat="47.0123730" lon="3.0786150">
        <ele>181.8</ele>
        <time>2020-07-03T16:21:41Z</time>
      </trkpt>
      <trkpt lat="47.0124330" lon="3.0788690">
        <ele>181.8</ele>
        <time>2020-07-03T16:21:44Z</time>
      </trkpt>
      <trkpt lat="47.0125130" lon="3.0793340">
        <ele>181.6</ele>
        <time>2020-07-03T16:21:49Z</time>
      </trkpt>
      <trkpt lat="47.0125440" lon="3.0795980">
        <ele>181.8</ele>
        <time>2020-07-03T16:21:52Z</time>
      </trkpt>
      <trkpt lat="47.0125580" lon="3.0797650">
        <ele>182.2</ele>
        <time>2020-07-03T16:21:54Z</time>
      </trkpt>
      <trkpt lat="47.0126180" lon="3.0803100">
        <ele>183.2</ele>
        <time>2020-07-03T16:22:01Z</time>
      </trkpt>
      <trkpt lat="47.0126550" lon="3.0806060">
        <ele>184.2</ele>
        <time>2020-07-03T16:22:05Z</time>
      </trkpt>
      <trkpt lat="47.0126840" lon="3.0809430">
        <ele>185.0</ele>
        <time>2020-07-03T16:22:10Z</time>
      </trkpt>
      <trkpt lat="47.0127100" lon="3.0812020">
        <ele>186.0</ele>
        <time>2020-07-03T16:22:14Z</time>
      </trkpt>
      <trkpt lat="47.0127550" lon="3.0816460">
        <ele>187.6</ele>
        <time>2020-07-03T16:22:21Z</time>
      </trkpt>
      <trkpt lat="47.0127650" lon="3.0817730">
        <ele>188.4</ele>
        <time>2020-07-03T16:22:23Z</time>
      </trkpt>
      <trkpt lat="47.0127740" lon="3.0818960">
        <ele>188.8</ele>
        <time>2020-07-03T16:22:25Z</time>
      </trkpt>
      <trkpt lat="47.0128380" lon="3.0823230">
        <ele>189.4</ele>
        <time>2020-07-03T16:22:32Z</time>
      </trkpt>
      <trkpt lat="47.0128470" lon="3.0823800">
        <ele>189.8</ele>
        <time>2020-07-03T16:22:33Z</time>
      </trkpt>
      <trkpt lat="47.0129080" lon="3.0829920">
        <ele>192.0</ele>
        <time>2020-07-03T16:22:42Z</time>
      </trkpt>
      <trkpt lat="47.0129960" lon="3.0834800">
        <ele>192.0</ele>
        <time>2020-07-03T16:22:48Z</time>
      </trkpt>
      <trkpt lat="47.0130570" lon="3.0839010">
        <ele>191.8</ele>
        <time>2020-07-03T16:22:53Z</time>
      </trkpt>
      <trkpt lat="47.0130840" lon="3.0840760">
        <ele>191.6</ele>
        <time>2020-07-03T16:22:55Z</time>
      </trkpt>
      <trkpt lat="47.0131130" lon="3.0842610">
        <ele>191.2</ele>
        <time>2020-07-03T16:22:57Z</time>
      </trkpt>
      <trkpt lat="47.0131560" lon="3.0845620">
        <ele>191.0</ele>
        <time>2020-07-03T16:23:00Z</time>
      </trkpt>
      <trkpt lat="47.0131700" lon="3.0846700">
        <ele>191.0</ele>
        <time>2020-07-03T16:23:01Z</time>
      </trkpt>
      <trkpt lat="47.0132330" lon="3.0851250">
        <ele>190.4</ele>
        <time>2020-07-03T16:23:05Z</time>
      </trkpt>
      <trkpt lat="47.0132880" lon="3.0852380">
        <ele>190.0</ele>
        <time>2020-07-03T16:23:06Z</time>
      </trkpt>
      <trkpt lat="47.0133000" lon="3.0853650">
        <ele>189.6</ele>
        <time>2020-07-03T16:23:07Z</time>
      </trkpt>
      <trkpt lat="47.0133450" lon="3.0862190">
        <ele>186.8</ele>
        <time>2020-07-03T16:23:14Z</time>
      </trkpt>
      <trkpt lat="47.0132700" lon="3.0869130">
        <ele>185.2</ele>
        <time>2020-07-03T16:23:20Z</time>
      </trkpt>
      <trkpt lat="47.0131360" lon="3.0873960">
        <ele>185.0</ele>
        <time>2020-07-03T16:23:25Z</time>
      </trkpt>
      <trkpt lat="47.0128870" lon="3.0878810">
        <ele>185.0</ele>
        <time>2020-07-03T16:23:31Z</time>
      </trkpt>
      <trkpt lat="47.0125350" lon="3.0883140">
        <ele>185.4</ele>
        <time>2020-07-03T16:23:37Z</time>
      </trkpt>
      <trkpt lat="47.0121030" lon="3.0887820">
        <ele>185.4</ele>
        <time>2020-07-03T16:23:44Z</time>
      </trkpt>
      <trkpt lat="47.0118740" lon="3.0890360">
        <ele>185.4</ele>
        <time>2020-07-03T16:23:48Z</time>
      </trkpt>
      <trkpt lat="47.0114220" lon="3.0895270">
        <ele>185.6</ele>
        <time>2020-07-03T16:23:56Z</time>
      </trkpt>
      <trkpt lat="47.0113110" lon="3.0896500">
        <ele>185.8</ele>
        <time>2020-07-03T16:23:58Z</time>
      </trkpt>
      <trkpt lat="47.0108750" lon="3.0901410">
        <ele>185.8</ele>
        <time>2020-07-03T16:24:06Z</time>
      </trkpt>
      <trkpt lat="47.0105900" lon="3.0904390">
        <ele>185.8</ele>
        <time>2020-07-03T16:24:11Z</time>
      </trkpt>
      <trkpt lat="47.0101450" lon="3.0909240">
        <ele>185.8</ele>
        <time>2020-07-03T16:24:19Z</time>
      </trkpt>
      <trkpt lat="47.0097750" lon="3.0913470">
        <ele>186.4</ele>
        <time>2020-07-03T16:24:26Z</time>
      </trkpt>
      <trkpt lat="47.0093470" lon="3.0918400">
        <ele>187.6</ele>
        <time>2020-07-03T16:24:34Z</time>
      </trkpt>
      <trkpt lat="47.0091790" lon="3.0920280">
        <ele>187.8</ele>
        <time>2020-07-03T16:24:37Z</time>
      </trkpt>
      <trkpt lat="47.0087600" lon="3.0924720">
        <ele>188.2</ele>
        <time>2020-07-03T16:24:45Z</time>
      </trkpt>
      <trkpt lat="47.0086310" lon="3.0925830">
        <ele>188.4</ele>
        <time>2020-07-03T16:24:48Z</time>
      </trkpt>
      <trkpt lat="47.0085170" lon="3.0926980">
        <ele>188.8</ele>
        <time>2020-07-03T16:24:51Z</time>
      </trkpt>
      <trkpt lat="47.0081930" lon="3.0930460">
        <ele>189.2</ele>
        <time>2020-07-03T16:25:01Z</time>
      </trkpt>
      <trkpt lat="47.0078400" lon="3.0934500">
        <ele>189.6</ele>
        <time>2020-07-03T16:25:11Z</time>
      </trkpt>
      <trkpt lat="47.0074810" lon="3.0938310">
        <ele>189.6</ele>
        <time>2020-07-03T16:25:20Z</time>
      </trkpt>
      <trkpt lat="47.0072330" lon="3.0940540">
        <ele>189.4</ele>
        <time>2020-07-03T16:25:27Z</time>
      </trkpt>
      <trkpt lat="47.0071500" lon="3.0940960">
        <ele>189.6</ele>
        <time>2020-07-03T16:25:31Z</time>
      </trkpt>
      <trkpt lat="47.0070750" lon="3.0941270">
        <ele>190.0</ele>
        <time>2020-07-03T16:25:39Z</time>
      </trkpt>
      <trkpt lat="47.0070550" lon="3.0941500">
        <ele>190.2</ele>
        <time>2020-07-03T16:25:41Z</time>
      </trkpt>
      <trkpt lat="47.0069530" lon="3.0942390">
        <ele>190.2</ele>
        <time>2020-07-03T16:25:46Z</time>
      </trkpt>
      <trkpt lat="47.0066950" lon="3.0944170">
        <ele>190.0</ele>
        <time>2020-07-03T16:25:55Z</time>
      </trkpt>
      <trkpt lat="47.0064420" lon="3.0945600">
        <ele>189.8</ele>
        <time>2020-07-03T16:26:05Z</time>
      </trkpt>
      <trkpt lat="47.0061870" lon="3.0947020">
        <ele>189.8</ele>
        <time>2020-07-03T16:26:15Z</time>
      </trkpt>
      <trkpt lat="47.0059900" lon="3.0948150">
        <ele>189.8</ele>
        <time>2020-07-03T16:26:23Z</time>
      </trkpt>
      <trkpt lat="47.0058500" lon="3.0948660">
        <ele>189.8</ele>
        <time>2020-07-03T16:26:30Z</time>
      </trkpt>
      <trkpt lat="47.0056720" lon="3.0948170">
        <ele>190.0</ele>
        <time>2020-07-03T16:26:38Z</time>
      </trkpt>
      <trkpt lat="47.0054770" lon="3.0948090">
        <ele>190.0</ele>
        <time>2020-07-03T16:26:45Z</time>
      </trkpt>
      <trkpt lat="47.0052810" lon="3.0948930">
        <ele>190.0</ele>
        <time>2020-07-03T16:26:52Z</time>
      </trkpt>
      <trkpt lat="47.0052320" lon="3.0950070">
        <ele>189.6</ele>
        <time>2020-07-03T16:26:58Z</time>
      </trkpt>
      <trkpt lat="47.0052300" lon="3.0950780">
        <ele>189.8</ele>
        <time>2020-07-03T16:27:03Z</time>
      </trkpt>
      <trkpt lat="47.0052320" lon="3.0950880">
        <ele>190.0</ele>
        <time>2020-07-03T16:27:19Z</time>
      </trkpt>
      <trkpt lat="47.0052420" lon="3.0950860">
        <ele>190.0</ele>
        <time>2020-07-03T16:27:41Z</time>
      </trkpt>
      <trkpt lat="47.0052140" lon="3.0951850">
        <ele>190.0</ele>
        <time>2020-07-03T16:27:52Z</time>
      </trkpt>
      <trkpt lat="47.0051640" lon="3.0953530">
        <ele>190.0</ele>
        <time>2020-07-03T16:27:57Z</time>
      </trkpt>
      <trkpt lat="47.0049940" lon="3.0955530">
        <ele>190.0</ele>
        <time>2020-07-03T16:28:02Z</time>
      </trkpt>
      <trkpt lat="47.0046350" lon="3.0959220">
        <ele>188.8</ele>
        <time>2020-07-03T16:28:10Z</time>
      </trkpt>
      <trkpt lat="47.0042330" lon="3.0962940">
        <ele>188.8</ele>
        <time>2020-07-03T16:28:19Z</time>
      </trkpt>
      <trkpt lat="47.0037400" lon="3.0967700">
        <ele>188.8</ele>
        <time>2020-07-03T16:28:30Z</time>
      </trkpt>
      <trkpt lat="47.0036960" lon="3.0968150">
        <ele>188.8</ele>
        <time>2020-07-03T16:28:31Z</time>
      </trkpt>
      <trkpt lat="47.0035170" lon="3.0969920">
        <ele>189.2</ele>
        <time>2020-07-03T16:28:35Z</time>
      </trkpt>
      <trkpt lat="47.0030900" lon="3.0974080">
        <ele>189.8</ele>
        <time>2020-07-03T16:28:44Z</time>
      </trkpt>
      <trkpt lat="47.0026090" lon="3.0978970">
        <ele>190.0</ele>
        <time>2020-07-03T16:28:54Z</time>
      </trkpt>
      <trkpt lat="47.0025160" lon="3.0979970">
        <ele>190.2</ele>
        <time>2020-07-03T16:28:56Z</time>
      </trkpt>
      <trkpt lat="47.0022530" lon="3.0983140">
        <ele>190.4</ele>
        <time>2020-07-03T16:29:02Z</time>
      </trkpt>
      <trkpt lat="47.0020450" lon="3.0985950">
        <ele>190.8</ele>
        <time>2020-07-03T16:29:07Z</time>
      </trkpt>
      <trkpt lat="47.0016460" lon="3.0991920">
        <ele>191.2</ele>
        <time>2020-07-03T16:29:17Z</time>
      </trkpt>
      <trkpt lat="47.0015710" lon="3.0993300">
        <ele>191.4</ele>
        <time>2020-07-03T16:29:19Z</time>
      </trkpt>
      <trkpt lat="47.0012350" lon="3.0999360">
        <ele>191.4</ele>
        <time>2020-07-03T16:29:28Z</time>
      </trkpt>
      <trkpt lat="47.0011670" lon="3.1000740">
        <ele>191.4</ele>
        <time>2020-07-03T16:29:30Z</time>
      </trkpt>
      <trkpt lat="47.0009160" lon="3.1005270">
        <ele>192.0</ele>
        <time>2020-07-03T16:29:37Z</time>
      </trkpt>
      <trkpt lat="47.0007810" lon="3.1010030">
        <ele>192.6</ele>
        <time>2020-07-03T16:29:43Z</time>
      </trkpt>
      <trkpt lat="47.0005060" lon="3.1017500">
        <ele>193.4</ele>
        <time>2020-07-03T16:29:53Z</time>
      </trkpt>
      <trkpt lat="47.0004780" lon="3.1018260">
        <ele>193.4</ele>
        <time>2020-07-03T16:29:54Z</time>
      </trkpt>
      <trkpt lat="47.0002530" lon="3.1026380">
        <ele>194.0</ele>
        <time>2020-07-03T16:30:04Z</time>
      </trkpt>
      <trkpt lat="47.0000490" lon="3.1033750">
        <ele>194.2</ele>
        <time>2020-07-03T16:30:13Z</time>
      </trkpt>
      <trkpt lat="46.9999690" lon="3.1036210">
        <ele>194.0</ele>
        <time>2020-07-03T16:30:16Z</time>
      </trkpt>
      <trkpt lat="46.9997600" lon="3.1043830">
        <ele>194.2</ele>
        <time>2020-07-03T16:30:25Z</time>
      </trkpt>
      <trkpt lat="46.9997340" lon="3.1044710">
        <ele>194.0</ele>
        <time>2020-07-03T16:30:26Z</time>
      </trkpt>
      <trkpt lat="46.9997090" lon="3.1045580">
        <ele>194.0</ele>
        <time>2020-07-03T16:30:27Z</time>
      </trkpt>
      <trkpt lat="46.9994900" lon="3.1053010">
        <ele>192.8</ele>
        <time>2020-07-03T16:30:35Z</time>
      </trkpt>
      <trkpt lat="46.9994610" lon="3.1053960">
        <ele>192.6</ele>
        <time>2020-07-03T16:30:36Z</time>
      </trkpt>
      <trkpt lat="46.9993120" lon="3.1058540">
        <ele>192.0</ele>
        <time>2020-07-03T16:30:41Z</time>
      </trkpt>
      <trkpt lat="46.9991140" lon="3.1064490">
        <ele>191.8</ele>
        <time>2020-07-03T16:30:48Z</time>
      </trkpt>
      <trkpt lat="46.9990050" lon="3.1067460">
        <ele>191.6</ele>
        <time>2020-07-03T16:30:52Z</time>
      </trkpt>
      <trkpt lat="46.9989070" lon="3.1070070">
        <ele>191.6</ele>
        <time>2020-07-03T16:30:56Z</time>
      </trkpt>
      <trkpt lat="46.9988470" lon="3.1071040">
        <ele>191.6</ele>
        <time>2020-07-03T16:30:58Z</time>
      </trkpt>
      <trkpt lat="46.9987670" lon="3.1071670">
        <ele>191.8</ele>
        <time>2020-07-03T16:31:00Z</time>
      </trkpt>
      <trkpt lat="46.9987260" lon="3.1071820">
        <ele>192.0</ele>
        <time>2020-07-03T16:31:01Z</time>
      </trkpt>
      <trkpt lat="46.9985890" lon="3.1072880">
        <ele>192.2</ele>
        <time>2020-07-03T16:31:06Z</time>
      </trkpt>
      <trkpt lat="46.9985860" lon="3.1074640">
        <ele>192.2</ele>
        <time>2020-07-03T16:31:10Z</time>
      </trkpt>
      <trkpt lat="46.9986220" lon="3.1076400">
        <ele>192.4</ele>
        <time>2020-07-03T16:31:13Z</time>
      </trkpt>
      <trkpt lat="46.9986180" lon="3.1077670">
        <ele>192.4</ele>
        <time>2020-07-03T16:31:15Z</time>
      </trkpt>
      <trkpt lat="46.9985880" lon="3.1078950">
        <ele>192.6</ele>
        <time>2020-07-03T16:31:17Z</time>
      </trkpt>
      <trkpt lat="46.9985180" lon="3.1080880">
        <ele>192.8</ele>
        <time>2020-07-03T16:31:20Z</time>
      </trkpt>
      <trkpt lat="46.9982600" lon="3.1086490">
        <ele>193.0</ele>
        <time>2020-07-03T16:31:28Z</time>
      </trkpt>
      <trkpt lat="46.9978560" lon="3.1093000">
        <ele>192.6</ele>
        <time>2020-07-03T16:31:37Z</time>
      </trkpt>
      <trkpt lat="46.9975500" lon="3.1097000">
        <ele>192.2</ele>
        <time>2020-07-03T16:31:43Z</time>
      </trkpt>
      <trkpt lat="46.9973860" lon="3.1098870">
        <ele>191.8</ele>
        <time>2020-07-03T16:31:46Z</time>
      </trkpt>
      <trkpt lat="46.9968990" lon="3.1104080">
        <ele>191.6</ele>
        <time>2020-07-03T16:31:55Z</time>
      </trkpt>
      <trkpt lat="46.9966910" lon="3.1106470">
        <ele>191.4</ele>
        <time>2020-07-03T16:31:59Z</time>
      </trkpt>
      <trkpt lat="46.9965910" lon="3.1107640">
        <ele>191.4</ele>
        <time>2020-07-03T16:32:01Z</time>
      </trkpt>
      <trkpt lat="46.9963220" lon="3.1111410">
        <ele>191.8</ele>
        <time>2020-07-03T16:32:07Z</time>
      </trkpt>
      <trkpt lat="46.9962850" lon="3.1112070">
        <ele>191.8</ele>
        <time>2020-07-03T16:32:08Z</time>
      </trkpt>
      <trkpt lat="46.9960690" lon="3.1115250">
        <ele>192.6</ele>
        <time>2020-07-03T16:32:13Z</time>
      </trkpt>
      <trkpt lat="46.9957490" lon="3.1120820">
        <ele>193.2</ele>
        <time>2020-07-03T16:32:21Z</time>
      </trkpt>
      <trkpt lat="46.9956170" lon="3.1123520">
        <ele>193.4</ele>
        <time>2020-07-03T16:32:25Z</time>
      </trkpt>
      <trkpt lat="46.9955310" lon="3.1124510">
        <ele>193.2</ele>
        <time>2020-07-03T16:32:27Z</time>
      </trkpt>
      <trkpt lat="46.9954940" lon="3.1125050">
        <ele>193.4</ele>
        <time>2020-07-03T16:32:28Z</time>
      </trkpt>
      <trkpt lat="46.9954410" lon="3.1126280">
        <ele>193.4</ele>
        <time>2020-07-03T16:32:30Z</time>
      </trkpt>
      <trkpt lat="46.9954220" lon="3.1126920">
        <ele>193.6</ele>
        <time>2020-07-03T16:32:31Z</time>
      </trkpt>
      <trkpt lat="46.9953220" lon="3.1130110">
        <ele>193.8</ele>
        <time>2020-07-03T16:32:36Z</time>
      </trkpt>
      <trkpt lat="46.9953100" lon="3.1131600">
        <ele>193.6</ele>
        <time>2020-07-03T16:32:38Z</time>
      </trkpt>
      <trkpt lat="46.9953000" lon="3.1133230">
        <ele>193.8</ele>
        <time>2020-07-03T16:32:40Z</time>
      </trkpt>
      <trkpt lat="46.9952370" lon="3.1136670">
        <ele>193.8</ele>
        <time>2020-07-03T16:32:44Z</time>
      </trkpt>
      <trkpt lat="46.9951370" lon="3.1145380">
        <ele>193.4</ele>
        <time>2020-07-03T16:32:53Z</time>
      </trkpt>
      <trkpt lat="46.9951350" lon="3.1154200">
        <ele>193.2</ele>
        <time>2020-07-03T16:33:02Z</time>
      </trkpt>
      <trkpt lat="46.9951380" lon="3.1155130">
        <ele>193.2</ele>
        <time>2020-07-03T16:33:03Z</time>
      </trkpt>
      <trkpt lat="46.9952330" lon="3.1161540">
        <ele>193.2</ele>
        <time>2020-07-03T16:33:10Z</time>
      </trkpt>
      <trkpt lat="46.9952590" lon="3.1163230">
        <ele>193.4</ele>
        <time>2020-07-03T16:33:12Z</time>
      </trkpt>
      <trkpt lat="46.9954460" lon="3.1171530">
        <ele>194.2</ele>
        <time>2020-07-03T16:33:22Z</time>
      </trkpt>
      <trkpt lat="46.9956730" lon="3.1179180">
        <ele>194.6</ele>
        <time>2020-07-03T16:33:31Z</time>
      </trkpt>
      <trkpt lat="46.9957280" lon="3.1180770">
        <ele>194.6</ele>
        <time>2020-07-03T16:33:33Z</time>
      </trkpt>
      <trkpt lat="46.9958840" lon="3.1185610">
        <ele>194.6</ele>
        <time>2020-07-03T16:33:39Z</time>
      </trkpt>
      <trkpt lat="46.9960720" lon="3.1191900">
        <ele>194.8</ele>
        <time>2020-07-03T16:33:47Z</time>
      </trkpt>
      <trkpt lat="46.9960960" lon="3.1192660">
        <ele>195.0</ele>
        <time>2020-07-03T16:33:48Z</time>
      </trkpt>
      <trkpt lat="46.9962960" lon="3.1199870">
        <ele>196.4</ele>
        <time>2020-07-03T16:33:57Z</time>
      </trkpt>
      <trkpt lat="46.9963560" lon="3.1203440">
        <ele>196.4</ele>
        <time>2020-07-03T16:34:01Z</time>
      </trkpt>
      <trkpt lat="46.9963860" lon="3.1207000">
        <ele>196.4</ele>
        <time>2020-07-03T16:34:05Z</time>
      </trkpt>
      <trkpt lat="46.9963700" lon="3.1212570">
        <ele>196.4</ele>
        <time>2020-07-03T16:34:12Z</time>
      </trkpt>
      <trkpt lat="46.9963380" lon="3.1215580">
        <ele>196.4</ele>
        <time>2020-07-03T16:34:16Z</time>
      </trkpt>
      <trkpt lat="46.9962960" lon="3.1219900">
        <ele>196.6</ele>
        <time>2020-07-03T16:34:22Z</time>
      </trkpt>
      <trkpt lat="46.9962880" lon="3.1220570">
        <ele>196.8</ele>
        <time>2020-07-03T16:34:23Z</time>
      </trkpt>
      <trkpt lat="46.9961860" lon="3.1224880">
        <ele>198.0</ele>
        <time>2020-07-03T16:34:31Z</time>
      </trkpt>
      <trkpt lat="46.9960390" lon="3.1226020">
        <ele>199.0</ele>
        <time>2020-07-03T16:34:36Z</time>
      </trkpt>
      <trkpt lat="46.9960110" lon="3.1226220">
        <ele>199.2</ele>
        <time>2020-07-03T16:34:37Z</time>
      </trkpt>
      <trkpt lat="46.9959560" lon="3.1227380">
        <ele>199.4</ele>
        <time>2020-07-03T16:34:41Z</time>
      </trkpt>
      <trkpt lat="46.9959930" lon="3.1229290">
        <ele>199.8</ele>
        <time>2020-07-03T16:34:47Z</time>
      </trkpt>
      <trkpt lat="46.9960720" lon="3.1230290">
        <ele>200.2</ele>
        <time>2020-07-03T16:34:50Z</time>
      </trkpt>
      <trkpt lat="46.9961550" lon="3.1232110">
        <ele>200.6</ele>
        <time>2020-07-03T16:34:54Z</time>
      </trkpt>
      <trkpt lat="46.9961650" lon="3.1232670">
        <ele>200.6</ele>
        <time>2020-07-03T16:34:55Z</time>
      </trkpt>
      <trkpt lat="46.9961690" lon="3.1234970">
        <ele>200.8</ele>
        <time>2020-07-03T16:34:59Z</time>
      </trkpt>
      <trkpt lat="46.9961430" lon="3.1240150">
        <ele>202.2</ele>
        <time>2020-07-03T16:35:07Z</time>
      </trkpt>
      <trkpt lat="46.9961280" lon="3.1241330">
        <ele>202.4</ele>
        <time>2020-07-03T16:35:09Z</time>
      </trkpt>
      <trkpt lat="46.9961200" lon="3.1244830">
        <ele>202.8</ele>
        <time>2020-07-03T16:35:15Z</time>
      </trkpt>
      <trkpt lat="46.9961470" lon="3.1251930">
        <ele>204.4</ele>
        <time>2020-07-03T16:35:26Z</time>
      </trkpt>
      <trkpt lat="46.9961610" lon="3.1254030">
        <ele>204.4</ele>
        <time>2020-07-03T16:35:29Z</time>
      </trkpt>
      <trkpt lat="46.9961800" lon="3.1258250">
        <ele>204.8</ele>
        <time>2020-07-03T16:35:35Z</time>
      </trkpt>
      <trkpt lat="46.9962020" lon="3.1262430">
        <ele>205.2</ele>
        <time>2020-07-03T16:35:42Z</time>
      </trkpt>
      <trkpt lat="46.9961820" lon="3.1263630">
        <ele>205.4</ele>
        <time>2020-07-03T16:35:44Z</time>
      </trkpt>
      <trkpt lat="46.9961670" lon="3.1264950">
        <ele>205.6</ele>
        <time>2020-07-03T16:35:46Z</time>
      </trkpt>
      <trkpt lat="46.9961670" lon="3.1267090">
        <ele>205.8</ele>
        <time>2020-07-03T16:35:49Z</time>
      </trkpt>
      <trkpt lat="46.9961910" lon="3.1275090">
        <ele>206.6</ele>
        <time>2020-07-03T16:36:00Z</time>
      </trkpt>
      <trkpt lat="46.9961950" lon="3.1275770">
        <ele>206.8</ele>
        <time>2020-07-03T16:36:01Z</time>
      </trkpt>
      <trkpt lat="46.9962000" lon="3.1277200">
        <ele>206.8</ele>
        <time>2020-07-03T16:36:03Z</time>
      </trkpt>
      <trkpt lat="46.9962060" lon="3.1280550">
        <ele>207.2</ele>
        <time>2020-07-03T16:36:09Z</time>
      </trkpt>
      <trkpt lat="46.9962080" lon="3.1280230">
        <ele>207.4</ele>
        <time>2020-07-03T16:36:12Z</time>
      </trkpt>
      <trkpt lat="46.9961840" lon="3.1279050">
        <ele>207.8</ele>
        <time>2020-07-03T16:36:17Z</time>
      </trkpt>
      <trkpt lat="46.9961790" lon="3.1278740">
        <ele>208.0</ele>
        <time>2020-07-03T16:36:28Z</time>
      </trkpt>
      <trkpt lat="46.9961720" lon="3.1278670">
        <ele>208.2</ele>
        <time>2020-07-03T16:37:01Z</time>
      </trkpt>
      <trkpt lat="46.9961720" lon="3.1278590">
        <ele>208.2</ele>
        <time>2020-07-03T16:37:34Z</time>
      </trkpt>
      <trkpt lat="46.9961620" lon="3.1278480">
        <ele>208.2</ele>
        <time>2020-07-03T16:38:04Z</time>
      </trkpt>
      <trkpt lat="46.9961580" lon="3.1278690">
        <ele>208.0</ele>
        <time>2020-07-03T16:38:28Z</time>
      </trkpt>
      <trkpt lat="46.9961550" lon="3.1279000">
        <ele>208.0</ele>
        <time>2020-07-03T16:38:30Z</time>
      </trkpt>
      <trkpt lat="46.9961450" lon="3.1280060">
        <ele>208.0</ele>
        <time>2020-07-03T16:38:34Z</time>
      </trkpt>
      <trkpt lat="46.9961460" lon="3.1284140">
        <ele>208.2</ele>
        <time>2020-07-03T16:38:45Z</time>
      </trkpt>
      <trkpt lat="46.9961250" lon="3.1287410">
        <ele>208.2</ele>
        <time>2020-07-03T16:38:52Z</time>
      </trkpt>
      <trkpt lat="46.9960700" lon="3.1291210">
        <ele>208.2</ele>
        <time>2020-07-03T16:38:59Z</time>
      </trkpt>
      <trkpt lat="46.9960710" lon="3.1291690">
        <ele>208.2</ele>
        <time>2020-07-03T16:39:00Z</time>
      </trkpt>
      <trkpt lat="46.9960840" lon="3.1294250">
        <ele>208.4</ele>
        <time>2020-07-03T16:39:05Z</time>
      </trkpt>
      <trkpt lat="46.9960230" lon="3.1298400">
        <ele>209.0</ele>
        <time>2020-07-03T16:39:12Z</time>
      </trkpt>
      <trkpt lat="46.9959780" lon="3.1300970">
        <ele>209.0</ele>
        <time>2020-07-03T16:39:16Z</time>
      </trkpt>
      <trkpt lat="46.9959460" lon="3.1302190">
        <ele>209.2</ele>
        <time>2020-07-03T16:39:18Z</time>
      </trkpt>
      <trkpt lat="46.9958440" lon="3.1305670">
        <ele>209.0</ele>
        <time>2020-07-03T16:39:23Z</time>
      </trkpt>
      <trkpt lat="46.9957760" lon="3.1307920">
        <ele>208.6</ele>
        <time>2020-07-03T16:39:26Z</time>
      </trkpt>
      <trkpt lat="46.9956300" lon="3.1312540">
        <ele>208.0</ele>
        <time>2020-07-03T16:39:32Z</time>
      </trkpt>
      <trkpt lat="46.9955400" lon="3.1315560">
        <ele>207.4</ele>
        <time>2020-07-03T16:39:36Z</time>
      </trkpt>
      <trkpt lat="46.9953510" lon="3.1320810">
        <ele>207.0</ele>
        <time>2020-07-03T16:39:43Z</time>
      </trkpt>
      <trkpt lat="46.9953280" lon="3.1321640">
        <ele>207.0</ele>
        <time>2020-07-03T16:39:44Z</time>
      </trkpt>
      <trkpt lat="46.9952580" lon="3.1324130">
        <ele>207.0</ele>
        <time>2020-07-03T16:39:47Z</time>
      </trkpt>
      <trkpt lat="46.9950850" lon="3.1329760">
        <ele>207.2</ele>
        <time>2020-07-03T16:39:54Z</time>
      </trkpt>
      <trkpt lat="46.9950330" lon="3.1331360">
        <ele>207.0</ele>
        <time>2020-07-03T16:39:56Z</time>
      </trkpt>
      <trkpt lat="46.9947930" lon="3.1338570">
        <ele>207.8</ele>
        <time>2020-07-03T16:40:05Z</time>
      </trkpt>
      <trkpt lat="46.9947420" lon="3.1340140">
        <ele>208.0</ele>
        <time>2020-07-03T16:40:07Z</time>
      </trkpt>
      <trkpt lat="46.9945120" lon="3.1347360">
        <ele>208.2</ele>
        <time>2020-07-03T16:40:16Z</time>
      </trkpt>
      <trkpt lat="46.9944660" lon="3.1349000">
        <ele>208.4</ele>
        <time>2020-07-03T16:40:18Z</time>
      </trkpt>
      <trkpt lat="46.9942500" lon="3.1357090">
        <ele>208.2</ele>
        <time>2020-07-03T16:40:28Z</time>
      </trkpt>
      <trkpt lat="46.9942290" lon="3.1357800">
        <ele>208.2</ele>
        <time>2020-07-03T16:40:29Z</time>
      </trkpt>
      <trkpt lat="46.9941560" lon="3.1360120">
        <ele>208.2</ele>
        <time>2020-07-03T16:40:33Z</time>
      </trkpt>
      <trkpt lat="46.9941320" lon="3.1360640">
        <ele>208.2</ele>
        <time>2020-07-03T16:40:34Z</time>
      </trkpt>
      <trkpt lat="46.9940880" lon="3.1361690">
        <ele>208.2</ele>
        <time>2020-07-03T16:40:36Z</time>
      </trkpt>
      <trkpt lat="46.9940640" lon="3.1363010">
        <ele>208.0</ele>
        <time>2020-07-03T16:40:38Z</time>
      </trkpt>
      <trkpt lat="46.9939200" lon="3.1368490">
        <ele>208.0</ele>
        <time>2020-07-03T16:40:45Z</time>
      </trkpt>
      <trkpt lat="46.9938950" lon="3.1369300">
        <ele>208.0</ele>
        <time>2020-07-03T16:40:46Z</time>
      </trkpt>
      <trkpt lat="46.9937920" lon="3.1373320">
        <ele>207.4</ele>
        <time>2020-07-03T16:40:51Z</time>
      </trkpt>
      <trkpt lat="46.9936460" lon="3.1378450">
        <ele>207.2</ele>
        <time>2020-07-03T16:40:58Z</time>
      </trkpt>
      <trkpt lat="46.9934250" lon="3.1385700">
        <ele>207.2</ele>
        <time>2020-07-03T16:41:07Z</time>
      </trkpt>
      <trkpt lat="46.9933960" lon="3.1386580">
        <ele>207.2</ele>
        <time>2020-07-03T16:41:08Z</time>
      </trkpt>
      <trkpt lat="46.9933090" lon="3.1389190">
        <ele>207.2</ele>
        <time>2020-07-03T16:41:11Z</time>
      </trkpt>
      <trkpt lat="46.9932520" lon="3.1390890">
        <ele>207.2</ele>
        <time>2020-07-03T16:41:13Z</time>
      </trkpt>
      <trkpt lat="46.9930730" lon="3.1396080">
        <ele>206.6</ele>
        <time>2020-07-03T16:41:19Z</time>
      </trkpt>
      <trkpt lat="46.9929730" lon="3.1399370">
        <ele>206.6</ele>
        <time>2020-07-03T16:41:23Z</time>
      </trkpt>
      <trkpt lat="46.9929180" lon="3.1400840">
        <ele>206.6</ele>
        <time>2020-07-03T16:41:25Z</time>
      </trkpt>
      <trkpt lat="46.9927890" lon="3.1404450">
        <ele>207.2</ele>
        <time>2020-07-03T16:41:30Z</time>
      </trkpt>
      <trkpt lat="46.9926880" lon="3.1407180">
        <ele>207.4</ele>
        <time>2020-07-03T16:41:34Z</time>
      </trkpt>
      <trkpt lat="46.9925570" lon="3.1409540">
        <ele>208.0</ele>
        <time>2020-07-03T16:41:38Z</time>
      </trkpt>
      <trkpt lat="46.9924790" lon="3.1410570">
        <ele>208.4</ele>
        <time>2020-07-03T16:41:40Z</time>
      </trkpt>
      <trkpt lat="46.9922230" lon="3.1413780">
        <ele>209.0</ele>
        <time>2020-07-03T16:41:46Z</time>
      </trkpt>
      <trkpt lat="46.9920730" lon="3.1416070">
        <ele>209.2</ele>
        <time>2020-07-03T16:41:50Z</time>
      </trkpt>
      <trkpt lat="46.9920420" lon="3.1416730">
        <ele>209.2</ele>
        <time>2020-07-03T16:41:51Z</time>
      </trkpt>
      <trkpt lat="46.9918950" lon="3.1421830">
        <ele>208.8</ele>
        <time>2020-07-03T16:41:58Z</time>
      </trkpt>
      <trkpt lat="46.9918460" lon="3.1423630">
        <ele>208.4</ele>
        <time>2020-07-03T16:42:01Z</time>
      </trkpt>
      <trkpt lat="46.9918740" lon="3.1424790">
        <ele>208.2</ele>
        <time>2020-07-03T16:42:03Z</time>
      </trkpt>
      <trkpt lat="46.9920030" lon="3.1427260">
        <ele>208.2</ele>
        <time>2020-07-03T16:42:08Z</time>
      </trkpt>
      <trkpt lat="46.9920170" lon="3.1427820">
        <ele>208.0</ele>
        <time>2020-07-03T16:42:09Z</time>
      </trkpt>
      <trkpt lat="46.9920540" lon="3.1429670">
        <ele>208.0</ele>
        <time>2020-07-03T16:42:12Z</time>
      </trkpt>
      <trkpt lat="46.9920730" lon="3.1432410">
        <ele>207.8</ele>
        <time>2020-07-03T16:42:16Z</time>
      </trkpt>
      <trkpt lat="46.9921290" lon="3.1438310">
        <ele>206.2</ele>
        <time>2020-07-03T16:42:24Z</time>
      </trkpt>
      <trkpt lat="46.9921520" lon="3.1440650">
        <ele>206.0</ele>
        <time>2020-07-03T16:42:27Z</time>
      </trkpt>
      <trkpt lat="46.9922200" lon="3.1445790">
        <ele>205.6</ele>
        <time>2020-07-03T16:42:34Z</time>
      </trkpt>
      <trkpt lat="46.9923090" lon="3.1451630">
        <ele>205.0</ele>
        <time>2020-07-03T16:42:42Z</time>
      </trkpt>
      <trkpt lat="46.9923340" lon="3.1455410">
        <ele>204.8</ele>
        <time>2020-07-03T16:42:48Z</time>
      </trkpt>
      <trkpt lat="46.9923390" lon="3.1457580">
        <ele>204.8</ele>
        <time>2020-07-03T16:42:51Z</time>
      </trkpt>
      <trkpt lat="46.9923590" lon="3.1460580">
        <ele>204.6</ele>
        <time>2020-07-03T16:42:55Z</time>
      </trkpt>
      <trkpt lat="46.9924110" lon="3.1467670">
        <ele>204.2</ele>
        <time>2020-07-03T16:43:04Z</time>
      </trkpt>
      <trkpt lat="46.9924810" lon="3.1476080">
        <ele>204.2</ele>
        <time>2020-07-03T16:43:14Z</time>
      </trkpt>
      <trkpt lat="46.9924960" lon="3.1478460">
        <ele>204.2</ele>
        <time>2020-07-03T16:43:17Z</time>
      </trkpt>
      <trkpt lat="46.9925040" lon="3.1479260">
        <ele>204.4</ele>
        <time>2020-07-03T16:43:18Z</time>
      </trkpt>
      <trkpt lat="46.9925380" lon="3.1483370">
        <ele>204.6</ele>
        <time>2020-07-03T16:43:23Z</time>
      </trkpt>
      <trkpt lat="46.9925400" lon="3.1484250">
        <ele>204.8</ele>
        <time>2020-07-03T16:43:24Z</time>
      </trkpt>
      <trkpt lat="46.9925330" lon="3.1485160">
        <ele>204.6</ele>
        <time>2020-07-03T16:43:25Z</time>
      </trkpt>
      <trkpt lat="46.9925170" lon="3.1486070">
        <ele>204.6</ele>
        <time>2020-07-03T16:43:26Z</time>
      </trkpt>
      <trkpt lat="46.9924540" lon="3.1487670">
        <ele>204.6</ele>
        <time>2020-07-03T16:43:28Z</time>
      </trkpt>
      <trkpt lat="46.9923590" lon="3.1488810">
        <ele>204.8</ele>
        <time>2020-07-03T16:43:30Z</time>
      </trkpt>
      <trkpt lat="46.9922480" lon="3.1489630">
        <ele>204.6</ele>
        <time>2020-07-03T16:43:32Z</time>
      </trkpt>
      <trkpt lat="46.9920720" lon="3.1490520">
        <ele>203.6</ele>
        <time>2020-07-03T16:43:35Z</time>
      </trkpt>
      <trkpt lat="46.9917900" lon="3.1492130">
        <ele>203.0</ele>
        <time>2020-07-03T16:43:40Z</time>
      </trkpt>
      <trkpt lat="46.9917300" lon="3.1492490">
        <ele>203.0</ele>
        <time>2020-07-03T16:43:41Z</time>
      </trkpt>
      <trkpt lat="46.9916020" lon="3.1493170">
        <ele>203.0</ele>
        <time>2020-07-03T16:43:43Z</time>
      </trkpt>
      <trkpt lat="46.9912890" lon="3.1495200">
        <ele>202.6</ele>
        <time>2020-07-03T16:43:48Z</time>
      </trkpt>
      <trkpt lat="46.9911580" lon="3.1495880">
        <ele>201.8</ele>
        <time>2020-07-03T16:43:50Z</time>
      </trkpt>
      <trkpt lat="46.9908320" lon="3.1497380">
        <ele>200.8</ele>
        <time>2020-07-03T16:43:55Z</time>
      </trkpt>
      <trkpt lat="46.9903750" lon="3.1499210">
        <ele>199.6</ele>
        <time>2020-07-03T16:44:02Z</time>
      </trkpt>
      <trkpt lat="46.9901890" lon="3.1500300">
        <ele>199.2</ele>
        <time>2020-07-03T16:44:05Z</time>
      </trkpt>
      <trkpt lat="46.9899990" lon="3.1501430">
        <ele>198.8</ele>
        <time>2020-07-03T16:44:08Z</time>
      </trkpt>
      <trkpt lat="46.9895700" lon="3.1503980">
        <ele>197.0</ele>
        <time>2020-07-03T16:44:15Z</time>
      </trkpt>
      <trkpt lat="46.9894070" lon="3.1504560">
        <ele>196.8</ele>
        <time>2020-07-03T16:44:18Z</time>
      </trkpt>
      <trkpt lat="46.9893630" lon="3.1504500">
        <ele>196.8</ele>
        <time>2020-07-03T16:44:19Z</time>
      </trkpt>
      <trkpt lat="46.9893230" lon="3.1504290">
        <ele>196.8</ele>
        <time>2020-07-03T16:44:20Z</time>
      </trkpt>
      <trkpt lat="46.9892080" lon="3.1503980">
        <ele>196.6</ele>
        <time>2020-07-03T16:44:23Z</time>
      </trkpt>
      <trkpt lat="46.9890770" lon="3.1503970">
        <ele>196.6</ele>
        <time>2020-07-03T16:44:26Z</time>
      </trkpt>
      <trkpt lat="46.9889300" lon="3.1504240">
        <ele>196.6</ele>
        <time>2020-07-03T16:44:29Z</time>
      </trkpt>
      <trkpt lat="46.9883960" lon="3.1506230">
        <ele>197.4</ele>
        <time>2020-07-03T16:44:40Z</time>
      </trkpt>
      <trkpt lat="46.9880230" lon="3.1508130">
        <ele>198.0</ele>
        <time>2020-07-03T16:44:49Z</time>
      </trkpt>
      <trkpt lat="46.9876430" lon="3.1509960">
        <ele>198.2</ele>
        <time>2020-07-03T16:44:58Z</time>
      </trkpt>
      <trkpt lat="46.9875950" lon="3.1510190">
        <ele>198.0</ele>
        <time>2020-07-03T16:44:59Z</time>
      </trkpt>
      <trkpt lat="46.9872960" lon="3.1511680">
        <ele>198.2</ele>
        <time>2020-07-03T16:45:05Z</time>
      </trkpt>
      <trkpt lat="46.9872420" lon="3.1511860">
        <ele>198.0</ele>
        <time>2020-07-03T16:45:06Z</time>
      </trkpt>
      <trkpt lat="46.9871400" lon="3.1512170">
        <ele>198.2</ele>
        <time>2020-07-03T16:45:08Z</time>
      </trkpt>
      <trkpt lat="46.9869380" lon="3.1512940">
        <ele>198.2</ele>
        <time>2020-07-03T16:45:12Z</time>
      </trkpt>
      <trkpt lat="46.9868510" lon="3.1513450">
        <ele>198.2</ele>
        <time>2020-07-03T16:45:14Z</time>
      </trkpt>
      <trkpt lat="46.9867390" lon="3.1513920">
        <ele>198.4</ele>
        <time>2020-07-03T16:45:17Z</time>
      </trkpt>
      <trkpt lat="46.9867080" lon="3.1514030">
        <ele>198.2</ele>
        <time>2020-07-03T16:45:18Z</time>
      </trkpt>
      <trkpt lat="46.9865680" lon="3.1514830">
        <ele>199.2</ele>
        <time>2020-07-03T16:45:23Z</time>
      </trkpt>
      <trkpt lat="46.9864910" lon="3.1515500">
        <ele>200.0</ele>
        <time>2020-07-03T16:45:26Z</time>
      </trkpt>
      <trkpt lat="46.9863370" lon="3.1516230">
        <ele>201.0</ele>
        <time>2020-07-03T16:45:30Z</time>
      </trkpt>
      <trkpt lat="46.9862510" lon="3.1516850">
        <ele>201.4</ele>
        <time>2020-07-03T16:45:32Z</time>
      </trkpt>
      <trkpt lat="46.9861620" lon="3.1517640">
        <ele>201.2</ele>
        <time>2020-07-03T16:45:34Z</time>
      </trkpt>
      <trkpt lat="46.9860840" lon="3.1518800">
        <ele>201.4</ele>
        <time>2020-07-03T16:45:36Z</time>
      </trkpt>
      <trkpt lat="46.9860210" lon="3.1520520">
        <ele>201.2</ele>
        <time>2020-07-03T16:45:38Z</time>
      </trkpt>
      <trkpt lat="46.9859760" lon="3.1522560">
        <ele>201.4</ele>
        <time>2020-07-03T16:45:40Z</time>
      </trkpt>
      <trkpt lat="46.9859340" lon="3.1524550">
        <ele>201.2</ele>
        <time>2020-07-03T16:45:42Z</time>
      </trkpt>
      <trkpt lat="46.9858990" lon="3.1525410">
        <ele>201.0</ele>
        <time>2020-07-03T16:45:43Z</time>
      </trkpt>
      <trkpt lat="46.9858490" lon="3.1526210">
        <ele>200.4</ele>
        <time>2020-07-03T16:45:44Z</time>
      </trkpt>
      <trkpt lat="46.9857930" lon="3.1527020">
        <ele>199.8</ele>
        <time>2020-07-03T16:45:45Z</time>
      </trkpt>
      <trkpt lat="46.9856730" lon="3.1528460">
        <ele>198.0</ele>
        <time>2020-07-03T16:45:47Z</time>
      </trkpt>
      <trkpt lat="46.9856080" lon="3.1529160">
        <ele>197.2</ele>
        <time>2020-07-03T16:45:48Z</time>
      </trkpt>
      <trkpt lat="46.9855370" lon="3.1529820">
        <ele>196.2</ele>
        <time>2020-07-03T16:45:49Z</time>
      </trkpt>
      <trkpt lat="46.9852350" lon="3.1532060">
        <ele>194.8</ele>
        <time>2020-07-03T16:45:53Z</time>
      </trkpt>
      <trkpt lat="46.9850010" lon="3.1533710">
        <ele>193.2</ele>
        <time>2020-07-03T16:45:56Z</time>
      </trkpt>
      <trkpt lat="46.9849240" lon="3.1534260">
        <ele>192.8</ele>
        <time>2020-07-03T16:45:57Z</time>
      </trkpt>
      <trkpt lat="46.9843880" lon="3.1537740">
        <ele>189.8</ele>
        <time>2020-07-03T16:46:04Z</time>
      </trkpt>
      <trkpt lat="46.9841480" lon="3.1539260">
        <ele>188.6</ele>
        <time>2020-07-03T16:46:08Z</time>
      </trkpt>
      <trkpt lat="46.9839860" lon="3.1539850">
        <ele>188.4</ele>
        <time>2020-07-03T16:46:12Z</time>
      </trkpt>
      <trkpt lat="46.9839300" lon="3.1539870">
        <ele>188.0</ele>
        <time>2020-07-03T16:46:14Z</time>
      </trkpt>
      <trkpt lat="46.9838360" lon="3.1539810">
        <ele>188.0</ele>
        <time>2020-07-03T16:46:17Z</time>
      </trkpt>
      <trkpt lat="46.9838020" lon="3.1540450">
        <ele>187.8</ele>
        <time>2020-07-03T16:46:19Z</time>
      </trkpt>
      <trkpt lat="46.9838050" lon="3.1540980">
        <ele>187.8</ele>
        <time>2020-07-03T16:46:20Z</time>
      </trkpt>
      <trkpt lat="46.9838180" lon="3.1541660">
        <ele>187.8</ele>
        <time>2020-07-03T16:46:21Z</time>
      </trkpt>
      <trkpt lat="46.9838610" lon="3.1543330">
        <ele>187.8</ele>
        <time>2020-07-03T16:46:23Z</time>
      </trkpt>
      <trkpt lat="46.9839650" lon="3.1546850">
        <ele>187.2</ele>
        <time>2020-07-03T16:46:27Z</time>
      </trkpt>
      <trkpt lat="46.9840630" lon="3.1550410">
        <ele>186.8</ele>
        <time>2020-07-03T16:46:31Z</time>
      </trkpt>
      <trkpt lat="46.9842280" lon="3.1555990">
        <ele>186.4</ele>
        <time>2020-07-03T16:46:38Z</time>
      </trkpt>
      <trkpt lat="46.9844230" lon="3.1564310">
        <ele>186.0</ele>
        <time>2020-07-03T16:46:47Z</time>
      </trkpt>
      <trkpt lat="46.9844770" lon="3.1566010">
        <ele>186.2</ele>
        <time>2020-07-03T16:46:49Z</time>
      </trkpt>
      <trkpt lat="46.9845060" lon="3.1566810">
        <ele>186.0</ele>
        <time>2020-07-03T16:46:50Z</time>
      </trkpt>
      <trkpt lat="46.9845750" lon="3.1568180">
        <ele>186.0</ele>
        <time>2020-07-03T16:46:52Z</time>
      </trkpt>
      <trkpt lat="46.9846680" lon="3.1569010">
        <ele>186.2</ele>
        <time>2020-07-03T16:46:54Z</time>
      </trkpt>
      <trkpt lat="46.9847590" lon="3.1568730">
        <ele>186.0</ele>
        <time>2020-07-03T16:46:56Z</time>
      </trkpt>
      <trkpt lat="46.9848060" lon="3.1568480">
        <ele>186.2</ele>
        <time>2020-07-03T16:46:57Z</time>
      </trkpt>
      <trkpt lat="46.9848520" lon="3.1568280">
        <ele>186.2</ele>
        <time>2020-07-03T16:46:58Z</time>
      </trkpt>
      <trkpt lat="46.9849380" lon="3.1568260">
        <ele>186.8</ele>
        <time>2020-07-03T16:47:00Z</time>
      </trkpt>
      <trkpt lat="46.9849700" lon="3.1568410">
        <ele>187.0</ele>
        <time>2020-07-03T16:47:01Z</time>
      </trkpt>
      <trkpt lat="46.9850380" lon="3.1569920">
        <ele>187.6</ele>
        <time>2020-07-03T16:47:05Z</time>
      </trkpt>
      <trkpt lat="46.9851120" lon="3.1572260">
        <ele>189.8</ele>
        <time>2020-07-03T16:47:10Z</time>
      </trkpt>
      <trkpt lat="46.9851390" lon="3.1573350">
        <ele>190.2</ele>
        <time>2020-07-03T16:47:12Z</time>
      </trkpt>
      <trkpt lat="46.9851410" lon="3.1575280">
        <ele>190.8</ele>
        <time>2020-07-03T16:47:16Z</time>
      </trkpt>
      <trkpt lat="46.9849900" lon="3.1577180">
        <ele>191.8</ele>
        <time>2020-07-03T16:47:21Z</time>
      </trkpt>
      <trkpt lat="46.9846650" lon="3.1579850">
        <ele>192.0</ele>
        <time>2020-07-03T16:47:28Z</time>
      </trkpt>
      <trkpt lat="46.9841860" lon="3.1583580">
        <ele>192.2</ele>
        <time>2020-07-03T16:47:37Z</time>
      </trkpt>
      <trkpt lat="46.9841300" lon="3.1584020">
        <ele>192.2</ele>
        <time>2020-07-03T16:47:38Z</time>
      </trkpt>
      <trkpt lat="46.9836040" lon="3.1588240">
        <ele>192.2</ele>
        <time>2020-07-03T16:47:47Z</time>
      </trkpt>
      <trkpt lat="46.9833040" lon="3.1590610">
        <ele>192.2</ele>
        <time>2020-07-03T16:47:52Z</time>
      </trkpt>
      <trkpt lat="46.9828030" lon="3.1594630">
        <ele>192.4</ele>
        <time>2020-07-03T16:48:00Z</time>
      </trkpt>
      <trkpt lat="46.9824220" lon="3.1597700">
        <ele>192.4</ele>
        <time>2020-07-03T16:48:06Z</time>
      </trkpt>
      <trkpt lat="46.9819160" lon="3.1601530">
        <ele>192.4</ele>
        <time>2020-07-03T16:48:14Z</time>
      </trkpt>
      <trkpt lat="46.9817860" lon="3.1602470">
        <ele>192.2</ele>
        <time>2020-07-03T16:48:16Z</time>
      </trkpt>
      <trkpt lat="46.9815030" lon="3.1603710">
        <ele>192.0</ele>
        <time>2020-07-03T16:48:20Z</time>
      </trkpt>
      <trkpt lat="46.9814280" lon="3.1603830">
        <ele>192.0</ele>
        <time>2020-07-03T16:48:21Z</time>
      </trkpt>
      <trkpt lat="46.9811180" lon="3.1603380">
        <ele>191.2</ele>
        <time>2020-07-03T16:48:25Z</time>
      </trkpt>
      <trkpt lat="46.9806620" lon="3.1601920">
        <ele>190.2</ele>
        <time>2020-07-03T16:48:31Z</time>
      </trkpt>
      <trkpt lat="46.9805920" lon="3.1601680">
        <ele>190.0</ele>
        <time>2020-07-03T16:48:32Z</time>
      </trkpt>
      <trkpt lat="46.9802430" lon="3.1600430">
        <ele>189.6</ele>
        <time>2020-07-03T16:48:37Z</time>
      </trkpt>
      <trkpt lat="46.9801070" lon="3.1599970">
        <ele>189.2</ele>
        <time>2020-07-03T16:48:39Z</time>
      </trkpt>
      <trkpt lat="46.9799690" lon="3.1599500">
        <ele>189.4</ele>
        <time>2020-07-03T16:48:41Z</time>
      </trkpt>
      <trkpt lat="46.9796190" lon="3.1598320">
        <ele>189.0</ele>
        <time>2020-07-03T16:48:46Z</time>
      </trkpt>
      <trkpt lat="46.9793960" lon="3.1597640">
        <ele>188.8</ele>
        <time>2020-07-03T16:48:49Z</time>
      </trkpt>
      <trkpt lat="46.9792460" lon="3.1597160">
        <ele>188.8</ele>
        <time>2020-07-03T16:48:51Z</time>
      </trkpt>
      <trkpt lat="46.9787030" lon="3.1595840">
        <ele>187.8</ele>
        <time>2020-07-03T16:48:58Z</time>
      </trkpt>
      <trkpt lat="46.9786290" lon="3.1595610">
        <ele>187.6</ele>
        <time>2020-07-03T16:48:59Z</time>
      </trkpt>
      <trkpt lat="46.9783360" lon="3.1594720">
        <ele>187.2</ele>
        <time>2020-07-03T16:49:03Z</time>
      </trkpt>
      <trkpt lat="46.9782630" lon="3.1594510">
        <ele>187.0</ele>
        <time>2020-07-03T16:49:04Z</time>
      </trkpt>
      <trkpt lat="46.9779160" lon="3.1593320">
        <ele>186.8</ele>
        <time>2020-07-03T16:49:09Z</time>
      </trkpt>
      <trkpt lat="46.9774760" lon="3.1591680">
        <ele>186.8</ele>
        <time>2020-07-03T16:49:16Z</time>
      </trkpt>
      <trkpt lat="46.9771220" lon="3.1590450">
        <ele>186.8</ele>
        <time>2020-07-03T16:49:22Z</time>
      </trkpt>
      <trkpt lat="46.9769370" lon="3.1589840">
        <ele>187.0</ele>
        <time>2020-07-03T16:49:25Z</time>
      </trkpt>
      <trkpt lat="46.9763750" lon="3.1587850">
        <ele>187.2</ele>
        <time>2020-07-03T16:49:34Z</time>
      </trkpt>
      <trkpt lat="46.9761800" lon="3.1587280">
        <ele>187.2</ele>
        <time>2020-07-03T16:49:37Z</time>
      </trkpt>
      <trkpt lat="46.9759840" lon="3.1586620">
        <ele>187.2</ele>
        <time>2020-07-03T16:49:40Z</time>
      </trkpt>
      <trkpt lat="46.9754510" lon="3.1585010">
        <ele>187.0</ele>
        <time>2020-07-03T16:49:48Z</time>
      </trkpt>
      <trkpt lat="46.9753840" lon="3.1584810">
        <ele>187.0</ele>
        <time>2020-07-03T16:49:49Z</time>
      </trkpt>
      <trkpt lat="46.9748430" lon="3.1583080">
        <ele>187.2</ele>
        <time>2020-07-03T16:49:57Z</time>
      </trkpt>
      <trkpt lat="46.9744190" lon="3.1581770">
        <ele>187.4</ele>
        <time>2020-07-03T16:50:03Z</time>
      </trkpt>
      <trkpt lat="46.9742070" lon="3.1581110">
        <ele>187.4</ele>
        <time>2020-07-03T16:50:06Z</time>
      </trkpt>
      <trkpt lat="46.9736330" lon="3.1579350">
        <ele>187.2</ele>
        <time>2020-07-03T16:50:14Z</time>
      </trkpt>
      <trkpt lat="46.9732160" lon="3.1577900">
        <ele>186.8</ele>
        <time>2020-07-03T16:50:20Z</time>
      </trkpt>
      <trkpt lat="46.9726730" lon="3.1576220">
        <ele>187.0</ele>
        <time>2020-07-03T16:50:28Z</time>
      </trkpt>
      <trkpt lat="46.9726070" lon="3.1576010">
        <ele>187.0</ele>
        <time>2020-07-03T16:50:29Z</time>
      </trkpt>
      <trkpt lat="46.9723030" lon="3.1575100">
        <ele>187.4</ele>
        <time>2020-07-03T16:50:34Z</time>
      </trkpt>
      <trkpt lat="46.9721420" lon="3.1574580">
        <ele>187.4</ele>
        <time>2020-07-03T16:50:37Z</time>
      </trkpt>
      <trkpt lat="46.9715700" lon="3.1572650">
        <ele>188.0</ele>
        <time>2020-07-03T16:50:47Z</time>
      </trkpt>
      <trkpt lat="46.9715080" lon="3.1572450">
        <ele>188.0</ele>
        <time>2020-07-03T16:50:48Z</time>
      </trkpt>
      <trkpt lat="46.9709480" lon="3.1570560">
        <ele>188.0</ele>
        <time>2020-07-03T16:50:57Z</time>
      </trkpt>
      <trkpt lat="46.9704930" lon="3.1569090">
        <ele>188.0</ele>
        <time>2020-07-03T16:51:05Z</time>
      </trkpt>
      <trkpt lat="46.9701040" lon="3.1567980">
        <ele>188.2</ele>
        <time>2020-07-03T16:51:13Z</time>
      </trkpt>
      <trkpt lat="46.9697930" lon="3.1566760">
        <ele>188.0</ele>
        <time>2020-07-03T16:51:20Z</time>
      </trkpt>
      <trkpt lat="46.9697200" lon="3.1566230">
        <ele>188.0</ele>
        <time>2020-07-03T16:51:22Z</time>
      </trkpt>
      <trkpt lat="46.9696120" lon="3.1565270">
        <ele>187.8</ele>
        <time>2020-07-03T16:51:25Z</time>
      </trkpt>
      <trkpt lat="46.9695750" lon="3.1564880">
        <ele>187.6</ele>
        <time>2020-07-03T16:51:26Z</time>
      </trkpt>
      <trkpt lat="46.9695340" lon="3.1564470">
        <ele>187.6</ele>
        <time>2020-07-03T16:51:27Z</time>
      </trkpt>
      <trkpt lat="46.9692780" lon="3.1562400">
        <ele>186.6</ele>
        <time>2020-07-03T16:51:33Z</time>
      </trkpt>
      <trkpt lat="46.9692010" lon="3.1561860">
        <ele>186.4</ele>
        <time>2020-07-03T16:51:35Z</time>
      </trkpt>
      <trkpt lat="46.9689580" lon="3.1559410">
        <ele>186.0</ele>
        <time>2020-07-03T16:51:42Z</time>
      </trkpt>
      <trkpt lat="46.9686600" lon="3.1556260">
        <ele>185.8</ele>
        <time>2020-07-03T16:51:51Z</time>
      </trkpt>
      <trkpt lat="46.9684390" lon="3.1554690">
        <ele>186.0</ele>
        <time>2020-07-03T16:51:58Z</time>
      </trkpt>
      <trkpt lat="46.9683360" lon="3.1553860">
        <ele>186.2</ele>
        <time>2020-07-03T16:52:03Z</time>
      </trkpt>
      <trkpt lat="46.9683340" lon="3.1553580">
        <ele>186.4</ele>
        <time>2020-07-03T16:52:04Z</time>
      </trkpt>
      <trkpt lat="46.9683410" lon="3.1553200">
        <ele>186.4</ele>
        <time>2020-07-03T16:52:06Z</time>
      </trkpt>
      <trkpt lat="46.9683420" lon="3.1553100">
        <ele>186.4</ele>
        <time>2020-07-03T16:52:09Z</time>
      </trkpt>
      <trkpt lat="46.9683130" lon="3.1553390">
        <ele>186.8</ele>
        <time>2020-07-03T16:52:22Z</time>
      </trkpt>
      <trkpt lat="46.9683050" lon="3.1553510">
        <ele>186.8</ele>
        <time>2020-07-03T16:52:23Z</time>
      </trkpt>
      <trkpt lat="46.9682710" lon="3.1553670">
        <ele>186.8</ele>
        <time>2020-07-03T16:52:25Z</time>
      </trkpt>
      <trkpt lat="46.9682210" lon="3.1553650">
        <ele>186.6</ele>
        <time>2020-07-03T16:52:27Z</time>
      </trkpt>
      <trkpt lat="46.9680150" lon="3.1553310">
        <ele>186.6</ele>
        <time>2020-07-03T16:52:34Z</time>
      </trkpt>
      <trkpt lat="46.9676840" lon="3.1552840">
        <ele>186.6</ele>
        <time>2020-07-03T16:52:45Z</time>
      </trkpt>
      <trkpt lat="46.9676530" lon="3.1552940">
        <ele>186.6</ele>
        <time>2020-07-03T16:52:47Z</time>
      </trkpt>
      <trkpt lat="46.9676630" lon="3.1553170">
        <ele>186.6</ele>
        <time>2020-07-03T16:52:49Z</time>
      </trkpt>
      <trkpt lat="46.9677980" lon="3.1553140">
        <ele>186.6</ele>
        <time>2020-07-03T16:52:55Z</time>
      </trkpt>
      <trkpt lat="46.9679840" lon="3.1553380">
        <ele>186.6</ele>
        <time>2020-07-03T16:53:01Z</time>
      </trkpt>
      <trkpt lat="46.9682710" lon="3.1553910">
        <ele>186.4</ele>
        <time>2020-07-03T16:53:09Z</time>
      </trkpt>
      <trkpt lat="46.9683460" lon="3.1553350">
        <ele>186.2</ele>
        <time>2020-07-03T16:53:12Z</time>
      </trkpt>
      <trkpt lat="46.9683610" lon="3.1552990">
        <ele>186.2</ele>
        <time>2020-07-03T16:53:13Z</time>
      </trkpt>
      <trkpt lat="46.9684230" lon="3.1550000">
        <ele>186.0</ele>
        <time>2020-07-03T16:53:19Z</time>
      </trkpt>
      <trkpt lat="46.9684500" lon="3.1545420">
        <ele>186.0</ele>
        <time>2020-07-03T16:53:27Z</time>
      </trkpt>
      <trkpt lat="46.9683980" lon="3.1539330">
        <ele>185.6</ele>
        <time>2020-07-03T16:53:37Z</time>
      </trkpt>
      <trkpt lat="46.9682720" lon="3.1536150">
        <ele>185.6</ele>
        <time>2020-07-03T16:53:43Z</time>
      </trkpt>
      <trkpt lat="46.9680660" lon="3.1534150">
        <ele>185.6</ele>
        <time>2020-07-03T16:53:49Z</time>
      </trkpt>
      <trkpt lat="46.9677600" lon="3.1532470">
        <ele>186.4</ele>
        <time>2020-07-03T16:53:57Z</time>
      </trkpt>
      <trkpt lat="46.9675400" lon="3.1531120">
        <ele>186.6</ele>
        <time>2020-07-03T16:54:04Z</time>
      </trkpt>
      <trkpt lat="46.9674950" lon="3.1530600">
        <ele>186.6</ele>
        <time>2020-07-03T16:54:09Z</time>
      </trkpt>
      <trkpt lat="46.9675080" lon="3.1529960">
        <ele>186.4</ele>
        <time>2020-07-03T16:54:16Z</time>
      </trkpt>
      <trkpt lat="46.9675140" lon="3.1529610">
        <ele>186.4</ele>
        <time>2020-07-03T16:54:17Z</time>
      </trkpt>
      <trkpt lat="46.9675170" lon="3.1529200">
        <ele>186.4</ele>
        <time>2020-07-03T16:54:18Z</time>
      </trkpt>
      <trkpt lat="46.9675140" lon="3.1526810">
        <ele>186.2</ele>
        <time>2020-07-03T16:54:22Z</time>
      </trkpt>
      <trkpt lat="46.9674240" lon="3.1522410">
        <ele>185.4</ele>
        <time>2020-07-03T16:54:30Z</time>
      </trkpt>
      <trkpt lat="46.9673180" lon="3.1517330">
        <ele>185.4</ele>
        <time>2020-07-03T16:54:40Z</time>
      </trkpt>
      <trkpt lat="46.9672550" lon="3.1513800">
        <ele>185.6</ele>
        <time>2020-07-03T16:54:49Z</time>
      </trkpt>
      <trkpt lat="46.9672320" lon="3.1512830">
        <ele>185.8</ele>
        <time>2020-07-03T16:54:51Z</time>
      </trkpt>
      <trkpt lat="46.9671380" lon="3.1509570">
        <ele>185.8</ele>
        <time>2020-07-03T16:54:58Z</time>
      </trkpt>
      <trkpt lat="46.9670400" lon="3.1505850">
        <ele>186.2</ele>
        <time>2020-07-03T16:55:05Z</time>
      </trkpt>
      <trkpt lat="46.9670250" lon="3.1505270">
        <ele>186.0</ele>
        <time>2020-07-03T16:55:06Z</time>
      </trkpt>
      <trkpt lat="46.9668800" lon="3.1500050">
        <ele>186.0</ele>
        <time>2020-07-03T16:55:16Z</time>
      </trkpt>
      <trkpt lat="46.9668200" lon="3.1497420">
        <ele>186.0</ele>
        <time>2020-07-03T16:55:23Z</time>
      </trkpt>
      <trkpt lat="46.9667380" lon="3.1494420">
        <ele>186.8</ele>
        <time>2020-07-03T16:55:30Z</time>
      </trkpt>
      <trkpt lat="46.9666190" lon="3.1490110">
        <ele>186.8</ele>
        <time>2020-07-03T16:55:39Z</time>
      </trkpt>
      <trkpt lat="46.9664290" lon="3.1486690">
        <ele>186.8</ele>
        <time>2020-07-03T16:55:46Z</time>
      </trkpt>
      <trkpt lat="46.9662010" lon="3.1483720">
        <ele>186.8</ele>
        <time>2020-07-03T16:55:54Z</time>
      </trkpt>
      <trkpt lat="46.9660300" lon="3.1483040">
        <ele>187.0</ele>
        <time>2020-07-03T16:56:01Z</time>
      </trkpt>
      <trkpt lat="46.9658650" lon="3.1482910">
        <ele>187.2</ele>
        <time>2020-07-03T16:56:10Z</time>
      </trkpt>
      <trkpt lat="46.9658540" lon="3.1482800">
        <ele>187.2</ele>
        <time>2020-07-03T16:56:16Z</time>
      </trkpt>
      <trkpt lat="46.9658170" lon="3.1482750">
        <ele>187.2</ele>
        <time>2020-07-03T16:56:27Z</time>
      </trkpt>
      <trkpt lat="46.9658120" lon="3.1482740">
        <ele>187.2</ele>
        <time>2020-07-03T16:56:28Z</time>
      </trkpt>
      <trkpt lat="46.9658060" lon="3.1482760">
        <ele>187.4</ele>
        <time>2020-07-03T16:56:40Z</time>
      </trkpt>
      <trkpt lat="46.9658160" lon="3.1482740">
        <ele>187.2</ele>
        <time>2020-07-03T16:57:20Z</time>
      </trkpt>
      <trkpt lat="46.9658570" lon="3.1482800">
        <ele>187.2</ele>
        <time>2020-07-03T16:57:27Z</time>
      </trkpt>
      <trkpt lat="46.9658790" lon="3.1482750">
        <ele>187.2</ele>
        <time>2020-07-03T16:57:28Z</time>
      </trkpt>
      <trkpt lat="46.9661000" lon="3.1482770">
        <ele>187.0</ele>
        <time>2020-07-03T16:57:35Z</time>
      </trkpt>
      <trkpt lat="46.9662390" lon="3.1482270">
        <ele>187.0</ele>
        <time>2020-07-03T16:57:40Z</time>
      </trkpt>
      <trkpt lat="46.9664270" lon="3.1480370">
        <ele>186.8</ele>
        <time>2020-07-03T16:57:48Z</time>
      </trkpt>
      <trkpt lat="46.9664830" lon="3.1480070">
        <ele>186.8</ele>
        <time>2020-07-03T16:57:52Z</time>
      </trkpt>
      <trkpt lat="46.9665200" lon="3.1479830">
        <ele>187.0</ele>
        <time>2020-07-03T16:58:04Z</time>
      </trkpt>
      <trkpt lat="46.9666120" lon="3.1479180">
        <ele>186.8</ele>
        <time>2020-07-03T16:58:12Z</time>
      </trkpt>
      <trkpt lat="46.9665770" lon="3.1479270">
        <ele>187.0</ele>
        <time>2020-07-03T16:58:18Z</time>
      </trkpt>
      <trkpt lat="46.9665100" lon="3.1480340">
        <ele>187.0</ele>
        <time>2020-07-03T16:58:26Z</time>
      </trkpt>
      <trkpt lat="46.9665350" lon="3.1481170">
        <ele>187.2</ele>
        <time>2020-07-03T16:58:39Z</time>
      </trkpt>
      <trkpt lat="46.9665300" lon="3.1480760">
        <ele>187.6</ele>
        <time>2020-07-03T16:58:48Z</time>
      </trkpt>
      <trkpt lat="46.9665150" lon="3.1480640">
        <ele>187.2</ele>
        <time>2020-07-03T16:59:00Z</time>
      </trkpt>
      <trkpt lat="46.9664880" lon="3.1480290">
        <ele>187.2</ele>
        <time>2020-07-03T16:59:13Z</time>
      </trkpt>
      <trkpt lat="46.9665240" lon="3.1480320">
        <ele>187.2</ele>
        <time>2020-07-03T16:59:24Z</time>
      </trkpt>
      <trkpt lat="46.9665340" lon="3.1480280">
        <ele>187.2</ele>
        <time>2020-07-03T16:59:45Z</time>
      </trkpt>
      <trkpt lat="46.9665380" lon="3.1480270">
        <ele>187.4</ele>
        <time>2020-07-03T17:00:13Z</time>
      </trkpt>
      <trkpt lat="46.9665420" lon="3.1480330">
        <ele>187.0</ele>
        <time>2020-07-03T17:00:44Z</time>
      </trkpt>
      <trkpt lat="46.9665460" lon="3.1480330">
        <ele>187.0</ele>
        <time>2020-07-03T17:01:03Z</time>
      </trkpt>
      <trkpt lat="46.9665500" lon="3.1480350">
        <ele>187.2</ele>
        <time>2020-07-03T17:01:16Z</time>
      </trkpt>
      <trkpt lat="46.9665620" lon="3.1480460">
        <ele>187.4</ele>
        <time>2020-07-03T17:01:52Z</time>
      </trkpt>
      <trkpt lat="46.9665690" lon="3.1480510">
        <ele>187.8</ele>
        <time>2020-07-03T17:02:30Z</time>
      </trkpt>
      <trkpt lat="46.9665700" lon="3.1480540">
        <ele>187.8</ele>
        <time>2020-07-03T17:03:07Z</time>
      </trkpt>
      <trkpt lat="46.9665720" lon="3.1480400">
        <ele>187.4</ele>
        <time>2020-07-03T17:03:36Z</time>
      </trkpt>
      <trkpt lat="46.9665780" lon="3.1480390">
        <ele>187.4</ele>
        <time>2020-07-03T17:04:10Z</time>
      </trkpt>
      <trkpt lat="46.9665810" lon="3.1480370">
        <ele>187.2</ele>
        <time>2020-07-03T17:04:39Z</time>
      </trkpt>
      <trkpt lat="46.9665810" lon="3.1480370">
        <ele>187.2</ele>
        <time>2020-07-03T17:04:42Z</time>
      </trkpt>
      <trkpt lat="46.9665820" lon="3.1480390">
        <ele>187.2</ele>
        <time>2020-07-03T17:05:25Z</time>
      </trkpt>
      <trkpt lat="46.9665740" lon="3.1480410">
        <ele>187.2</ele>
        <time>2020-07-03T17:08:37Z</time>
      </trkpt>
      <trkpt lat="46.9665710" lon="3.1480420">
        <ele>187.2</ele>
        <time>2020-07-03T17:09:33Z</time>
      </trkpt>
      <trkpt lat="46.9665690" lon="3.1480440">
        <ele>187.4</ele>
        <time>2020-07-03T17:10:22Z</time>
      </trkpt>
      <trkpt lat="46.9665740" lon="3.1480470">
        <ele>187.4</ele>
        <time>2020-07-03T17:10:56Z</time>
      </trkpt>
      <trkpt lat="46.9665530" lon="3.1480370">
        <ele>187.6</ele>
        <time>2020-07-03T17:11:32Z</time>
      </trkpt>
      <trkpt lat="46.9664800" lon="3.1480430">
        <ele>187.4</ele>
        <time>2020-07-03T17:11:43Z</time>
      </trkpt>
      <trkpt lat="46.9664260" lon="3.1480450">
        <ele>187.6</ele>
        <time>2020-07-03T17:11:53Z</time>
      </trkpt>
      <trkpt lat="46.9664850" lon="3.1486460">
        <ele>169.6</ele>
        <time>2020-07-04T07:02:38Z</time>
      </trkpt>
      <trkpt lat="46.9666340" lon="3.1489450">
        <ele>169.8</ele>
        <time>2020-07-04T07:02:47Z</time>
      </trkpt>
      <trkpt lat="46.9666570" lon="3.1490210">
        <ele>169.8</ele>
        <time>2020-07-04T07:02:49Z</time>
      </trkpt>
      <trkpt lat="46.9667070" lon="3.1492540">
        <ele>169.8</ele>
        <time>2020-07-04T07:02:54Z</time>
      </trkpt>
      <trkpt lat="46.9668020" lon="3.1496390">
        <ele>169.8</ele>
        <time>2020-07-04T07:03:02Z</time>
      </trkpt>
      <trkpt lat="46.9668770" lon="3.1499970">
        <ele>169.8</ele>
        <time>2020-07-04T07:03:09Z</time>
      </trkpt>
      <trkpt lat="46.9668880" lon="3.1500530">
        <ele>169.8</ele>
        <time>2020-07-04T07:03:10Z</time>
      </trkpt>
      <trkpt lat="46.9669830" lon="3.1504940">
        <ele>169.6</ele>
        <time>2020-07-04T07:03:18Z</time>
      </trkpt>
      <trkpt lat="46.9670930" lon="3.1510010">
        <ele>169.2</ele>
        <time>2020-07-04T07:03:27Z</time>
      </trkpt>
      <trkpt lat="46.9671160" lon="3.1511070">
        <ele>169.2</ele>
        <time>2020-07-04T07:03:29Z</time>
      </trkpt>
      <trkpt lat="46.9671950" lon="3.1513780">
        <ele>169.2</ele>
        <time>2020-07-04T07:03:34Z</time>
      </trkpt>
      <trkpt lat="46.9672120" lon="3.1514370">
        <ele>169.2</ele>
        <time>2020-07-04T07:03:35Z</time>
      </trkpt>
      <trkpt lat="46.9673550" lon="3.1519690">
        <ele>169.0</ele>
        <time>2020-07-04T07:03:44Z</time>
      </trkpt>
      <trkpt lat="46.9674830" lon="3.1524220">
        <ele>168.8</ele>
        <time>2020-07-04T07:03:52Z</time>
      </trkpt>
      <trkpt lat="46.9674970" lon="3.1524810">
        <ele>168.8</ele>
        <time>2020-07-04T07:03:53Z</time>
      </trkpt>
      <trkpt lat="46.9675590" lon="3.1527130">
        <ele>168.6</ele>
        <time>2020-07-04T07:03:57Z</time>
      </trkpt>
      <trkpt lat="46.9675710" lon="3.1528320">
        <ele>168.6</ele>
        <time>2020-07-04T07:03:59Z</time>
      </trkpt>
      <trkpt lat="46.9675220" lon="3.1530680">
        <ele>168.6</ele>
        <time>2020-07-04T07:04:04Z</time>
      </trkpt>
      <trkpt lat="46.9675270" lon="3.1531050">
        <ele>168.6</ele>
        <time>2020-07-04T07:04:05Z</time>
      </trkpt>
      <trkpt lat="46.9675600" lon="3.1531790">
        <ele>168.8</ele>
        <time>2020-07-04T07:04:07Z</time>
      </trkpt>
      <trkpt lat="46.9677030" lon="3.1532750">
        <ele>168.8</ele>
        <time>2020-07-04T07:04:11Z</time>
      </trkpt>
      <trkpt lat="46.9679960" lon="3.1534400">
        <ele>169.0</ele>
        <time>2020-07-04T07:04:19Z</time>
      </trkpt>
      <trkpt lat="46.9681890" lon="3.1536120">
        <ele>169.0</ele>
        <time>2020-07-04T07:04:24Z</time>
      </trkpt>
      <trkpt lat="46.9682540" lon="3.1537060">
        <ele>169.0</ele>
        <time>2020-07-04T07:04:26Z</time>
      </trkpt>
      <trkpt lat="46.9682780" lon="3.1537620">
        <ele>169.0</ele>
        <time>2020-07-04T07:04:27Z</time>
      </trkpt>
      <trkpt lat="46.9683160" lon="3.1538870">
        <ele>169.0</ele>
        <time>2020-07-04T07:04:29Z</time>
      </trkpt>
      <trkpt lat="46.9683280" lon="3.1539550">
        <ele>169.0</ele>
        <time>2020-07-04T07:04:30Z</time>
      </trkpt>
      <trkpt lat="46.9683360" lon="3.1540230">
        <ele>168.8</ele>
        <time>2020-07-04T07:04:31Z</time>
      </trkpt>
      <trkpt lat="46.9683670" lon="3.1543680">
        <ele>168.6</ele>
        <time>2020-07-04T07:04:36Z</time>
      </trkpt>
      <trkpt lat="46.9684040" lon="3.1550080">
        <ele>168.6</ele>
        <time>2020-07-04T07:04:46Z</time>
      </trkpt>
      <trkpt lat="46.9684960" lon="3.1554110">
        <ele>169.0</ele>
        <time>2020-07-04T07:04:53Z</time>
      </trkpt>
      <trkpt lat="46.9685180" lon="3.1554660">
        <ele>169.0</ele>
        <time>2020-07-04T07:04:54Z</time>
      </trkpt>
      <trkpt lat="46.9687150" lon="3.1558100">
        <ele>169.2</ele>
        <time>2020-07-04T07:05:01Z</time>
      </trkpt>
      <trkpt lat="46.9688510" lon="3.1559160">
        <ele>169.4</ele>
        <time>2020-07-04T07:05:04Z</time>
      </trkpt>
      <trkpt lat="46.9688960" lon="3.1559510">
        <ele>169.2</ele>
        <time>2020-07-04T07:05:05Z</time>
      </trkpt>
      <trkpt lat="46.9689840" lon="3.1560170">
        <ele>169.6</ele>
        <time>2020-07-04T07:05:07Z</time>
      </trkpt>
      <trkpt lat="46.9691580" lon="3.1561610">
        <ele>169.6</ele>
        <time>2020-07-04T07:05:11Z</time>
      </trkpt>
      <trkpt lat="46.9694250" lon="3.1563650">
        <ele>169.0</ele>
        <time>2020-07-04T07:05:18Z</time>
      </trkpt>
      <trkpt lat="46.9695660" lon="3.1564880">
        <ele>169.0</ele>
        <time>2020-07-04T07:05:23Z</time>
      </trkpt>
      <trkpt lat="46.9696320" lon="3.1565520">
        <ele>169.0</ele>
        <time>2020-07-04T07:05:26Z</time>
      </trkpt>
      <trkpt lat="46.9696590" lon="3.1566910">
        <ele>169.4</ele>
        <time>2020-07-04T07:05:32Z</time>
      </trkpt>
      <trkpt lat="46.9696300" lon="3.1567070">
        <ele>169.6</ele>
        <time>2020-07-04T07:05:34Z</time>
      </trkpt>
      <trkpt lat="46.9695730" lon="3.1567070">
        <ele>170.0</ele>
        <time>2020-07-04T07:05:37Z</time>
      </trkpt>
      <trkpt lat="46.9693290" lon="3.1566610">
        <ele>170.4</ele>
        <time>2020-07-04T07:05:45Z</time>
      </trkpt>
      <trkpt lat="46.9690260" lon="3.1566850">
        <ele>170.4</ele>
        <time>2020-07-04T07:05:55Z</time>
      </trkpt>
      <trkpt lat="46.9689960" lon="3.1566870">
        <ele>170.4</ele>
        <time>2020-07-04T07:05:56Z</time>
      </trkpt>
      <trkpt lat="46.9689290" lon="3.1566880">
        <ele>170.6</ele>
        <time>2020-07-04T07:05:58Z</time>
      </trkpt>
      <trkpt lat="46.9688950" lon="3.1566920">
        <ele>170.4</ele>
        <time>2020-07-04T07:05:59Z</time>
      </trkpt>
      <trkpt lat="46.9686630" lon="3.1567050">
        <ele>170.4</ele>
        <time>2020-07-04T07:06:06Z</time>
      </trkpt>
      <trkpt lat="46.9681720" lon="3.1567240">
        <ele>170.4</ele>
        <time>2020-07-04T07:06:19Z</time>
      </trkpt>
      <trkpt lat="46.9680450" lon="3.1567330">
        <ele>170.4</ele>
        <time>2020-07-04T07:06:22Z</time>
      </trkpt>
      <trkpt lat="46.9680040" lon="3.1567370">
        <ele>170.2</ele>
        <time>2020-07-04T07:06:23Z</time>
      </trkpt>
      <trkpt lat="46.9679230" lon="3.1567410">
        <ele>170.4</ele>
        <time>2020-07-04T07:06:25Z</time>
      </trkpt>
      <trkpt lat="46.9677150" lon="3.1567520">
        <ele>170.0</ele>
        <time>2020-07-04T07:06:30Z</time>
      </trkpt>
      <trkpt lat="46.9675910" lon="3.1567540">
        <ele>169.8</ele>
        <time>2020-07-04T07:06:33Z</time>
      </trkpt>
      <trkpt lat="46.9674240" lon="3.1567510">
        <ele>170.0</ele>
        <time>2020-07-04T07:06:37Z</time>
      </trkpt>
      <trkpt lat="46.9673820" lon="3.1567560">
        <ele>170.0</ele>
        <time>2020-07-04T07:06:38Z</time>
      </trkpt>
      <trkpt lat="46.9671520" lon="3.1567740">
        <ele>170.2</ele>
        <time>2020-07-04T07:06:43Z</time>
      </trkpt>
      <trkpt lat="46.9668580" lon="3.1567960">
        <ele>170.4</ele>
        <time>2020-07-04T07:06:49Z</time>
      </trkpt>
      <trkpt lat="46.9667160" lon="3.1568060">
        <ele>170.4</ele>
        <time>2020-07-04T07:06:52Z</time>
      </trkpt>
      <trkpt lat="46.9665710" lon="3.1568180">
        <ele>170.4</ele>
        <time>2020-07-04T07:06:55Z</time>
      </trkpt>
      <trkpt lat="46.9665250" lon="3.1568210">
        <ele>170.4</ele>
        <time>2020-07-04T07:06:56Z</time>
      </trkpt>
      <trkpt lat="46.9663880" lon="3.1568270">
        <ele>170.4</ele>
        <time>2020-07-04T07:06:59Z</time>
      </trkpt>
      <trkpt lat="46.9660060" lon="3.1568530">
        <ele>169.8</ele>
        <time>2020-07-04T07:07:07Z</time>
      </trkpt>
      <trkpt lat="46.9659130" lon="3.1568550">
        <ele>169.8</ele>
        <time>2020-07-04T07:07:09Z</time>
      </trkpt>
      <trkpt lat="46.9654450" lon="3.1568830">
        <ele>169.6</ele>
        <time>2020-07-04T07:07:19Z</time>
      </trkpt>
      <trkpt lat="46.9648890" lon="3.1569280">
        <ele>169.6</ele>
        <time>2020-07-04T07:07:31Z</time>
      </trkpt>
      <trkpt lat="46.9645460" lon="3.1569340">
        <ele>169.4</ele>
        <time>2020-07-04T07:07:39Z</time>
      </trkpt>
      <trkpt lat="46.9643330" lon="3.1569380">
        <ele>169.6</ele>
        <time>2020-07-04T07:07:44Z</time>
      </trkpt>
      <trkpt lat="46.9641550" lon="3.1569480">
        <ele>169.4</ele>
        <time>2020-07-04T07:07:48Z</time>
      </trkpt>
      <trkpt lat="46.9640650" lon="3.1569560">
        <ele>169.6</ele>
        <time>2020-07-04T07:07:50Z</time>
      </trkpt>
      <trkpt lat="46.9637140" lon="3.1569790">
        <ele>169.4</ele>
        <time>2020-07-04T07:07:58Z</time>
      </trkpt>
      <trkpt lat="46.9632580" lon="3.1570020">
        <ele>169.6</ele>
        <time>2020-07-04T07:08:09Z</time>
      </trkpt>
      <trkpt lat="46.9632120" lon="3.1570030">
        <ele>169.6</ele>
        <time>2020-07-04T07:08:10Z</time>
      </trkpt>
      <trkpt lat="46.9628220" lon="3.1570230">
        <ele>169.8</ele>
        <time>2020-07-04T07:08:19Z</time>
      </trkpt>
      <trkpt lat="46.9627740" lon="3.1570240">
        <ele>169.8</ele>
        <time>2020-07-04T07:08:20Z</time>
      </trkpt>
      <trkpt lat="46.9621890" lon="3.1570690">
        <ele>169.8</ele>
        <time>2020-07-04T07:08:32Z</time>
      </trkpt>
      <trkpt lat="46.9621410" lon="3.1570740">
        <ele>169.6</ele>
        <time>2020-07-04T07:08:33Z</time>
      </trkpt>
      <trkpt lat="46.9616780" lon="3.1570960">
        <ele>169.6</ele>
        <time>2020-07-04T07:08:43Z</time>
      </trkpt>
      <trkpt lat="46.9612790" lon="3.1571070">
        <ele>169.8</ele>
        <time>2020-07-04T07:08:52Z</time>
      </trkpt>
      <trkpt lat="46.9611630" lon="3.1570940">
        <ele>169.6</ele>
        <time>2020-07-04T07:08:55Z</time>
      </trkpt>
      <trkpt lat="46.9610380" lon="3.1570080">
        <ele>170.0</ele>
        <time>2020-07-04T07:09:00Z</time>
      </trkpt>
      <trkpt lat="46.9609930" lon="3.1569030">
        <ele>170.4</ele>
        <time>2020-07-04T07:09:07Z</time>
      </trkpt>
      <trkpt lat="46.9610080" lon="3.1568950">
        <ele>170.4</ele>
        <time>2020-07-04T07:09:09Z</time>
      </trkpt>
      <trkpt lat="46.9610550" lon="3.1569010">
        <ele>170.6</ele>
        <time>2020-07-04T07:09:14Z</time>
      </trkpt>
      <trkpt lat="46.9610790" lon="3.1569120">
        <ele>171.0</ele>
        <time>2020-07-04T07:09:23Z</time>
      </trkpt>
      <trkpt lat="46.9610860" lon="3.1569120">
        <ele>171.0</ele>
        <time>2020-07-04T07:09:33Z</time>
      </trkpt>
      <trkpt lat="46.9610890" lon="3.1569130">
        <ele>171.4</ele>
        <time>2020-07-04T07:09:40Z</time>
      </trkpt>
      <trkpt lat="46.9610940" lon="3.1569050">
        <ele>171.4</ele>
        <time>2020-07-04T07:10:01Z</time>
      </trkpt>
      <trkpt lat="46.9610950" lon="3.1568920">
        <ele>171.4</ele>
        <time>2020-07-04T07:10:24Z</time>
      </trkpt>
      <trkpt lat="46.9611160" lon="3.1568650">
        <ele>171.4</ele>
        <time>2020-07-04T07:10:45Z</time>
      </trkpt>
      <trkpt lat="46.9611210" lon="3.1568670">
        <ele>171.8</ele>
        <time>2020-07-04T07:11:13Z</time>
      </trkpt>
      <trkpt lat="46.9611210" lon="3.1568730">
        <ele>171.8</ele>
        <time>2020-07-04T07:11:43Z</time>
      </trkpt>
      <trkpt lat="46.9611260" lon="3.1568700">
        <ele>171.6</ele>
        <time>2020-07-04T07:12:14Z</time>
      </trkpt>
      <trkpt lat="46.9611380" lon="3.1568720">
        <ele>171.4</ele>
        <time>2020-07-04T07:12:37Z</time>
      </trkpt>
      <trkpt lat="46.9611470" lon="3.1568700">
        <ele>171.4</ele>
        <time>2020-07-04T07:12:58Z</time>
      </trkpt>
      <trkpt lat="46.9611540" lon="3.1568550">
        <ele>171.6</ele>
        <time>2020-07-04T07:13:20Z</time>
      </trkpt>
      <trkpt lat="46.9611500" lon="3.1568510">
        <ele>171.4</ele>
        <time>2020-07-04T07:13:48Z</time>
      </trkpt>
      <trkpt lat="46.9611570" lon="3.1568470">
        <ele>171.4</ele>
        <time>2020-07-04T07:14:04Z</time>
      </trkpt>
      <trkpt lat="46.9611730" lon="3.1568520">
        <ele>171.2</ele>
        <time>2020-07-04T07:14:26Z</time>
      </trkpt>
      <trkpt lat="46.9611800" lon="3.1568290">
        <ele>171.2</ele>
        <time>2020-07-04T07:14:42Z</time>
      </trkpt>
      <trkpt lat="46.9611400" lon="3.1568210">
        <ele>171.0</ele>
        <time>2020-07-04T07:14:57Z</time>
      </trkpt>
      <trkpt lat="46.9611090" lon="3.1568220">
        <ele>171.0</ele>
        <time>2020-07-04T07:14:59Z</time>
      </trkpt>
      <trkpt lat="46.9610280" lon="3.1568500">
        <ele>170.8</ele>
        <time>2020-07-04T07:15:04Z</time>
      </trkpt>
      <trkpt lat="46.9609520" lon="3.1569880">
        <ele>170.6</ele>
        <time>2020-07-04T07:15:09Z</time>
      </trkpt>
      <trkpt lat="46.9608370" lon="3.1571020">
        <ele>170.4</ele>
        <time>2020-07-04T07:15:16Z</time>
      </trkpt>
      <trkpt lat="46.9608080" lon="3.1571110">
        <ele>170.4</ele>
        <time>2020-07-04T07:15:17Z</time>
      </trkpt>
      <trkpt lat="46.9606290" lon="3.1571450">
        <ele>170.6</ele>
        <time>2020-07-04T07:15:22Z</time>
      </trkpt>
      <trkpt lat="46.9605880" lon="3.1571540">
        <ele>170.6</ele>
        <time>2020-07-04T07:15:23Z</time>
      </trkpt>
      <trkpt lat="46.9601400" lon="3.1572000">
        <ele>170.8</ele>
        <time>2020-07-04T07:15:35Z</time>
      </trkpt>
      <trkpt lat="46.9597950" lon="3.1572250">
        <ele>171.2</ele>
        <time>2020-07-04T07:15:45Z</time>
      </trkpt>
      <trkpt lat="46.9593490" lon="3.1572610">
        <ele>171.2</ele>
        <time>2020-07-04T07:15:57Z</time>
      </trkpt>
      <trkpt lat="46.9590810" lon="3.1572750">
        <ele>171.2</ele>
        <time>2020-07-04T07:16:04Z</time>
      </trkpt>
      <trkpt lat="46.9588350" lon="3.1572870">
        <ele>171.2</ele>
        <time>2020-07-04T07:16:10Z</time>
      </trkpt>
      <trkpt lat="46.9585440" lon="3.1572810">
        <ele>171.2</ele>
        <time>2020-07-04T07:16:17Z</time>
      </trkpt>
      <trkpt lat="46.9583690" lon="3.1573020">
        <ele>171.2</ele>
        <time>2020-07-04T07:16:21Z</time>
      </trkpt>
      <trkpt lat="46.9582050" lon="3.1573100">
        <ele>171.0</ele>
        <time>2020-07-04T07:16:25Z</time>
      </trkpt>
      <trkpt lat="46.9579020" lon="3.1573280">
        <ele>171.0</ele>
        <time>2020-07-04T07:16:32Z</time>
      </trkpt>
      <trkpt lat="46.9573520" lon="3.1573540">
        <ele>171.4</ele>
        <time>2020-07-04T07:16:45Z</time>
      </trkpt>
      <trkpt lat="46.9572670" lon="3.1573610">
        <ele>171.2</ele>
        <time>2020-07-04T07:16:47Z</time>
      </trkpt>
      <trkpt lat="46.9570090" lon="3.1573750">
        <ele>171.4</ele>
        <time>2020-07-04T07:16:53Z</time>
      </trkpt>
      <trkpt lat="46.9569650" lon="3.1573780">
        <ele>171.4</ele>
        <time>2020-07-04T07:16:54Z</time>
      </trkpt>
      <trkpt lat="46.9566130" lon="3.1573860">
        <ele>171.6</ele>
        <time>2020-07-04T07:17:02Z</time>
      </trkpt>
      <trkpt lat="46.9563110" lon="3.1573190">
        <ele>171.8</ele>
        <time>2020-07-04T07:17:09Z</time>
      </trkpt>
      <trkpt lat="46.9562730" lon="3.1572880">
        <ele>171.6</ele>
        <time>2020-07-04T07:17:10Z</time>
      </trkpt>
      <trkpt lat="46.9562380" lon="3.1572520">
        <ele>171.6</ele>
        <time>2020-07-04T07:17:11Z</time>
      </trkpt>
      <trkpt lat="46.9561510" lon="3.1570460">
        <ele>171.8</ele>
        <time>2020-07-04T07:17:15Z</time>
      </trkpt>
      <trkpt lat="46.9561360" lon="3.1569170">
        <ele>171.8</ele>
        <time>2020-07-04T07:17:17Z</time>
      </trkpt>
      <trkpt lat="46.9561510" lon="3.1567100">
        <ele>171.8</ele>
        <time>2020-07-04T07:17:20Z</time>
      </trkpt>
      <trkpt lat="46.9561730" lon="3.1565680">
        <ele>171.8</ele>
        <time>2020-07-04T07:17:22Z</time>
      </trkpt>
      <trkpt lat="46.9562970" lon="3.1560050">
        <ele>171.0</ele>
        <time>2020-07-04T07:17:30Z</time>
      </trkpt>
      <trkpt lat="46.9563110" lon="3.1559330">
        <ele>171.0</ele>
        <time>2020-07-04T07:17:31Z</time>
      </trkpt>
      <trkpt lat="46.9564740" lon="3.1551960">
        <ele>170.0</ele>
        <time>2020-07-04T07:17:41Z</time>
      </trkpt>
      <trkpt lat="46.9566770" lon="3.1544470">
        <ele>169.8</ele>
        <time>2020-07-04T07:17:51Z</time>
      </trkpt>
      <trkpt lat="46.9567020" lon="3.1543740">
        <ele>169.8</ele>
        <time>2020-07-04T07:17:52Z</time>
      </trkpt>
      <trkpt lat="46.9568000" lon="3.1540820">
        <ele>169.8</ele>
        <time>2020-07-04T07:17:56Z</time>
      </trkpt>
      <trkpt lat="46.9570400" lon="3.1534100">
        <ele>170.0</ele>
        <time>2020-07-04T07:18:05Z</time>
      </trkpt>
      <trkpt lat="46.9572300" lon="3.1529020">
        <ele>170.0</ele>
        <time>2020-07-04T07:18:12Z</time>
      </trkpt>
      <trkpt lat="46.9573900" lon="3.1525590">
        <ele>169.8</ele>
        <time>2020-07-04T07:18:17Z</time>
      </trkpt>
      <trkpt lat="46.9577120" lon="3.1518790">
        <ele>169.6</ele>
        <time>2020-07-04T07:18:27Z</time>
      </trkpt>
      <trkpt lat="46.9577470" lon="3.1518120">
        <ele>169.6</ele>
        <time>2020-07-04T07:18:28Z</time>
      </trkpt>
      <trkpt lat="46.9578520" lon="3.1516140">
        <ele>169.8</ele>
        <time>2020-07-04T07:18:31Z</time>
      </trkpt>
      <trkpt lat="46.9579840" lon="3.1513500">
        <ele>169.8</ele>
        <time>2020-07-04T07:18:35Z</time>
      </trkpt>
      <trkpt lat="46.9581180" lon="3.1511220">
        <ele>169.6</ele>
        <time>2020-07-04T07:18:39Z</time>
      </trkpt>
      <trkpt lat="46.9581870" lon="3.1510260">
        <ele>169.8</ele>
        <time>2020-07-04T07:18:41Z</time>
      </trkpt>
      <trkpt lat="46.9582670" lon="3.1509660">
        <ele>169.8</ele>
        <time>2020-07-04T07:18:43Z</time>
      </trkpt>
      <trkpt lat="46.9583090" lon="3.1509450">
        <ele>169.8</ele>
        <time>2020-07-04T07:18:44Z</time>
      </trkpt>
      <trkpt lat="46.9584290" lon="3.1508780">
        <ele>170.0</ele>
        <time>2020-07-04T07:18:47Z</time>
      </trkpt>
      <trkpt lat="46.9584960" lon="3.1507950">
        <ele>169.8</ele>
        <time>2020-07-04T07:18:49Z</time>
      </trkpt>
      <trkpt lat="46.9585200" lon="3.1507390">
        <ele>169.8</ele>
        <time>2020-07-04T07:18:50Z</time>
      </trkpt>
      <trkpt lat="46.9585340" lon="3.1506790">
        <ele>170.0</ele>
        <time>2020-07-04T07:18:51Z</time>
      </trkpt>
      <trkpt lat="46.9585350" lon="3.1505460">
        <ele>170.0</ele>
        <time>2020-07-04T07:18:53Z</time>
      </trkpt>
      <trkpt lat="46.9585220" lon="3.1504830">
        <ele>170.0</ele>
        <time>2020-07-04T07:18:54Z</time>
      </trkpt>
      <trkpt lat="46.9584980" lon="3.1504240">
        <ele>170.0</ele>
        <time>2020-07-04T07:18:55Z</time>
      </trkpt>
      <trkpt lat="46.9584310" lon="3.1503200">
        <ele>170.0</ele>
        <time>2020-07-04T07:18:57Z</time>
      </trkpt>
      <trkpt lat="46.9583900" lon="3.1502710">
        <ele>169.8</ele>
        <time>2020-07-04T07:18:58Z</time>
      </trkpt>
      <trkpt lat="46.9582790" lon="3.1500930">
        <ele>169.6</ele>
        <time>2020-07-04T07:19:01Z</time>
      </trkpt>
      <trkpt lat="46.9582200" lon="3.1499470">
        <ele>169.8</ele>
        <time>2020-07-04T07:19:03Z</time>
      </trkpt>
      <trkpt lat="46.9579470" lon="3.1491890">
        <ele>169.0</ele>
        <time>2020-07-04T07:19:14Z</time>
      </trkpt>
      <trkpt lat="46.9578450" lon="3.1489170">
        <ele>169.0</ele>
        <time>2020-07-04T07:19:18Z</time>
      </trkpt>
      <trkpt lat="46.9576430" lon="3.1484240">
        <ele>168.8</ele>
        <time>2020-07-04T07:19:25Z</time>
      </trkpt>
      <trkpt lat="46.9575310" lon="3.1481320">
        <ele>168.8</ele>
        <time>2020-07-04T07:19:29Z</time>
      </trkpt>
      <trkpt lat="46.9573920" lon="3.1477710">
        <ele>169.0</ele>
        <time>2020-07-04T07:19:34Z</time>
      </trkpt>
      <trkpt lat="46.9571920" lon="3.1472190">
        <ele>169.2</ele>
        <time>2020-07-04T07:19:42Z</time>
      </trkpt>
      <trkpt lat="46.9568800" lon="3.1464790">
        <ele>169.2</ele>
        <time>2020-07-04T07:19:52Z</time>
      </trkpt>
      <trkpt lat="46.9568510" lon="3.1464050">
        <ele>169.2</ele>
        <time>2020-07-04T07:19:53Z</time>
      </trkpt>
      <trkpt lat="46.9565660" lon="3.1456700">
        <ele>169.4</ele>
        <time>2020-07-04T07:20:03Z</time>
      </trkpt>
      <trkpt lat="46.9564560" lon="3.1453760">
        <ele>169.8</ele>
        <time>2020-07-04T07:20:07Z</time>
      </trkpt>
      <trkpt lat="46.9564280" lon="3.1453030">
        <ele>169.8</ele>
        <time>2020-07-04T07:20:08Z</time>
      </trkpt>
      <trkpt lat="46.9561530" lon="3.1445940">
        <ele>170.2</ele>
        <time>2020-07-04T07:20:18Z</time>
      </trkpt>
      <trkpt lat="46.9560420" lon="3.1443210">
        <ele>170.2</ele>
        <time>2020-07-04T07:20:22Z</time>
      </trkpt>
      <trkpt lat="46.9559340" lon="3.1440500">
        <ele>170.4</ele>
        <time>2020-07-04T07:20:26Z</time>
      </trkpt>
      <trkpt lat="46.9558490" lon="3.1438460">
        <ele>170.6</ele>
        <time>2020-07-04T07:20:29Z</time>
      </trkpt>
      <trkpt lat="46.9556550" lon="3.1433640">
        <ele>170.8</ele>
        <time>2020-07-04T07:20:36Z</time>
      </trkpt>
      <trkpt lat="46.9554020" lon="3.1426730">
        <ele>170.6</ele>
        <time>2020-07-04T07:20:46Z</time>
      </trkpt>
      <trkpt lat="46.9551090" lon="3.1419340">
        <ele>171.0</ele>
        <time>2020-07-04T07:20:57Z</time>
      </trkpt>
      <trkpt lat="46.9550840" lon="3.1418680">
        <ele>170.8</ele>
        <time>2020-07-04T07:20:58Z</time>
      </trkpt>
      <trkpt lat="46.9549490" lon="3.1415380">
        <ele>171.2</ele>
        <time>2020-07-04T07:21:03Z</time>
      </trkpt>
      <trkpt lat="46.9548700" lon="3.1413370">
        <ele>171.2</ele>
        <time>2020-07-04T07:21:06Z</time>
      </trkpt>
      <trkpt lat="46.9548430" lon="3.1412700">
        <ele>171.2</ele>
        <time>2020-07-04T07:21:07Z</time>
      </trkpt>
      <trkpt lat="46.9548180" lon="3.1412060">
        <ele>171.2</ele>
        <time>2020-07-04T07:21:08Z</time>
      </trkpt>
      <trkpt lat="46.9547650" lon="3.1410810">
        <ele>171.2</ele>
        <time>2020-07-04T07:21:10Z</time>
      </trkpt>
      <trkpt lat="46.9544850" lon="3.1403770">
        <ele>171.2</ele>
        <time>2020-07-04T07:21:21Z</time>
      </trkpt>
      <trkpt lat="46.9544600" lon="3.1403110">
        <ele>171.2</ele>
        <time>2020-07-04T07:21:22Z</time>
      </trkpt>
      <trkpt lat="46.9544350" lon="3.1402450">
        <ele>171.2</ele>
        <time>2020-07-04T07:21:23Z</time>
      </trkpt>
      <trkpt lat="46.9543860" lon="3.1401160">
        <ele>171.4</ele>
        <time>2020-07-04T07:21:25Z</time>
      </trkpt>
      <trkpt lat="46.9542170" lon="3.1397240">
        <ele>171.4</ele>
        <time>2020-07-04T07:21:32Z</time>
      </trkpt>
      <trkpt lat="46.9541670" lon="3.1396210">
        <ele>172.2</ele>
        <time>2020-07-04T07:21:34Z</time>
      </trkpt>
      <trkpt lat="46.9540490" lon="3.1393910">
        <ele>173.6</ele>
        <time>2020-07-04T07:21:39Z</time>
      </trkpt>
      <trkpt lat="46.9539570" lon="3.1392150">
        <ele>174.2</ele>
        <time>2020-07-04T07:21:43Z</time>
      </trkpt>
      <trkpt lat="46.9538890" lon="3.1390830">
        <ele>174.8</ele>
        <time>2020-07-04T07:21:46Z</time>
      </trkpt>
      <trkpt lat="46.9537410" lon="3.1388310">
        <ele>176.4</ele>
        <time>2020-07-04T07:21:52Z</time>
      </trkpt>
      <trkpt lat="46.9535960" lon="3.1385670">
        <ele>177.4</ele>
        <time>2020-07-04T07:21:58Z</time>
      </trkpt>
      <trkpt lat="46.9534940" lon="3.1383900">
        <ele>177.8</ele>
        <time>2020-07-04T07:22:02Z</time>
      </trkpt>
      <trkpt lat="46.9532280" lon="3.1379670">
        <ele>179.2</ele>
        <time>2020-07-04T07:22:12Z</time>
      </trkpt>
      <trkpt lat="46.9531700" lon="3.1378820">
        <ele>179.6</ele>
        <time>2020-07-04T07:22:14Z</time>
      </trkpt>
      <trkpt lat="46.9529570" lon="3.1375900">
        <ele>180.4</ele>
        <time>2020-07-04T07:22:21Z</time>
      </trkpt>
      <trkpt lat="46.9527830" lon="3.1373890">
        <ele>181.2</ele>
        <time>2020-07-04T07:22:26Z</time>
      </trkpt>
      <trkpt lat="46.9523160" lon="3.1369070">
        <ele>181.4</ele>
        <time>2020-07-04T07:22:38Z</time>
      </trkpt>
      <trkpt lat="46.9522730" lon="3.1368630">
        <ele>181.4</ele>
        <time>2020-07-04T07:22:39Z</time>
      </trkpt>
      <trkpt lat="46.9521360" lon="3.1367350">
        <ele>181.2</ele>
        <time>2020-07-04T07:22:42Z</time>
      </trkpt>
      <trkpt lat="46.9519440" lon="3.1365540">
        <ele>180.8</ele>
        <time>2020-07-04T07:22:46Z</time>
      </trkpt>
      <trkpt lat="46.9514530" lon="3.1360660">
        <ele>180.2</ele>
        <time>2020-07-04T07:22:56Z</time>
      </trkpt>
      <trkpt lat="46.9512530" lon="3.1358520">
        <ele>179.6</ele>
        <time>2020-07-04T07:23:00Z</time>
      </trkpt>
      <trkpt lat="46.9511550" lon="3.1357470">
        <ele>179.6</ele>
        <time>2020-07-04T07:23:02Z</time>
      </trkpt>
      <trkpt lat="46.9509660" lon="3.1355360">
        <ele>179.2</ele>
        <time>2020-07-04T07:23:06Z</time>
      </trkpt>
      <trkpt lat="46.9508740" lon="3.1354260">
        <ele>179.4</ele>
        <time>2020-07-04T07:23:08Z</time>
      </trkpt>
      <trkpt lat="46.9506380" lon="3.1351300">
        <ele>178.2</ele>
        <time>2020-07-04T07:23:13Z</time>
      </trkpt>
      <trkpt lat="46.9504270" lon="3.1348130">
        <ele>177.4</ele>
        <time>2020-07-04T07:23:18Z</time>
      </trkpt>
      <trkpt lat="46.9500410" lon="3.1341880">
        <ele>177.0</ele>
        <time>2020-07-04T07:23:27Z</time>
      </trkpt>
      <trkpt lat="46.9499560" lon="3.1340480">
        <ele>176.8</ele>
        <time>2020-07-04T07:23:29Z</time>
      </trkpt>
      <trkpt lat="46.9495830" lon="3.1334220">
        <ele>176.4</ele>
        <time>2020-07-04T07:23:38Z</time>
      </trkpt>
      <trkpt lat="46.9494030" lon="3.1331410">
        <ele>176.0</ele>
        <time>2020-07-04T07:23:42Z</time>
      </trkpt>
      <trkpt lat="46.9490200" lon="3.1325100">
        <ele>175.4</ele>
        <time>2020-07-04T07:23:51Z</time>
      </trkpt>
      <trkpt lat="46.9489340" lon="3.1323750">
        <ele>175.2</ele>
        <time>2020-07-04T07:23:53Z</time>
      </trkpt>
      <trkpt lat="46.9488970" lon="3.1323050">
        <ele>175.2</ele>
        <time>2020-07-04T07:23:54Z</time>
      </trkpt>
      <trkpt lat="46.9485570" lon="3.1316890">
        <ele>174.6</ele>
        <time>2020-07-04T07:24:03Z</time>
      </trkpt>
      <trkpt lat="46.9484910" lon="3.1315540">
        <ele>174.6</ele>
        <time>2020-07-04T07:24:05Z</time>
      </trkpt>
      <trkpt lat="46.9481240" lon="3.1309270">
        <ele>174.4</ele>
        <time>2020-07-04T07:24:15Z</time>
      </trkpt>
      <trkpt lat="46.9478020" lon="3.1303470">
        <ele>174.6</ele>
        <time>2020-07-04T07:24:24Z</time>
      </trkpt>
      <trkpt lat="46.9474800" lon="3.1296290">
        <ele>174.8</ele>
        <time>2020-07-04T07:24:34Z</time>
      </trkpt>
      <trkpt lat="46.9474020" lon="3.1294100">
        <ele>174.6</ele>
        <time>2020-07-04T07:24:37Z</time>
      </trkpt>
      <trkpt lat="46.9471810" lon="3.1286590">
        <ele>174.8</ele>
        <time>2020-07-04T07:24:47Z</time>
      </trkpt>
      <trkpt lat="46.9471620" lon="3.1285780">
        <ele>174.6</ele>
        <time>2020-07-04T07:24:48Z</time>
      </trkpt>
      <trkpt lat="46.9469730" lon="3.1277740">
        <ele>174.8</ele>
        <time>2020-07-04T07:24:58Z</time>
      </trkpt>
      <trkpt lat="46.9469310" lon="3.1275330">
        <ele>174.8</ele>
        <time>2020-07-04T07:25:01Z</time>
      </trkpt>
      <trkpt lat="46.9467780" lon="3.1267200">
        <ele>174.8</ele>
        <time>2020-07-04T07:25:11Z</time>
      </trkpt>
      <trkpt lat="46.9467160" lon="3.1263810">
        <ele>174.6</ele>
        <time>2020-07-04T07:25:15Z</time>
      </trkpt>
      <trkpt lat="46.9466030" lon="3.1258010">
        <ele>174.8</ele>
        <time>2020-07-04T07:25:22Z</time>
      </trkpt>
      <trkpt lat="46.9465150" lon="3.1253170">
        <ele>175.0</ele>
        <time>2020-07-04T07:25:28Z</time>
      </trkpt>
      <trkpt lat="46.9463380" lon="3.1245270">
        <ele>174.8</ele>
        <time>2020-07-04T07:25:38Z</time>
      </trkpt>
      <trkpt lat="46.9462820" lon="3.1242930">
        <ele>175.0</ele>
        <time>2020-07-04T07:25:41Z</time>
      </trkpt>
      <trkpt lat="46.9461090" lon="3.1235000">
        <ele>175.0</ele>
        <time>2020-07-04T07:25:51Z</time>
      </trkpt>
      <trkpt lat="46.9460210" lon="3.1231190">
        <ele>175.2</ele>
        <time>2020-07-04T07:25:56Z</time>
      </trkpt>
      <trkpt lat="46.9460050" lon="3.1230420">
        <ele>175.0</ele>
        <time>2020-07-04T07:25:57Z</time>
      </trkpt>
      <trkpt lat="46.9458250" lon="3.1222480">
        <ele>174.8</ele>
        <time>2020-07-04T07:26:07Z</time>
      </trkpt>
      <trkpt lat="46.9458070" lon="3.1221670">
        <ele>175.0</ele>
        <time>2020-07-04T07:26:08Z</time>
      </trkpt>
      <trkpt lat="46.9457110" lon="3.1216940">
        <ele>174.8</ele>
        <time>2020-07-04T07:26:14Z</time>
      </trkpt>
      <trkpt lat="46.9456340" lon="3.1212220">
        <ele>174.8</ele>
        <time>2020-07-04T07:26:20Z</time>
      </trkpt>
      <trkpt lat="46.9455320" lon="3.1206980">
        <ele>174.8</ele>
        <time>2020-07-04T07:26:27Z</time>
      </trkpt>
      <trkpt lat="46.9454850" lon="3.1204730">
        <ele>174.8</ele>
        <time>2020-07-04T07:26:30Z</time>
      </trkpt>
      <trkpt lat="46.9453700" lon="3.1197770">
        <ele>174.0</ele>
        <time>2020-07-04T07:26:39Z</time>
      </trkpt>
      <trkpt lat="46.9453650" lon="3.1191330">
        <ele>174.0</ele>
        <time>2020-07-04T07:26:48Z</time>
      </trkpt>
      <trkpt lat="46.9453680" lon="3.1188610">
        <ele>174.2</ele>
        <time>2020-07-04T07:26:52Z</time>
      </trkpt>
      <trkpt lat="46.9453440" lon="3.1185870">
        <ele>174.2</ele>
        <time>2020-07-04T07:26:56Z</time>
      </trkpt>
      <trkpt lat="46.9453260" lon="3.1182430">
        <ele>174.4</ele>
        <time>2020-07-04T07:27:01Z</time>
      </trkpt>
      <trkpt lat="46.9453100" lon="3.1178990">
        <ele>175.0</ele>
        <time>2020-07-04T07:27:06Z</time>
      </trkpt>
      <trkpt lat="46.9452990" lon="3.1176980">
        <ele>175.4</ele>
        <time>2020-07-04T07:27:09Z</time>
      </trkpt>
      <trkpt lat="46.9452750" lon="3.1168750">
        <ele>176.8</ele>
        <time>2020-07-04T07:27:21Z</time>
      </trkpt>
      <trkpt lat="46.9452780" lon="3.1167340">
        <ele>177.0</ele>
        <time>2020-07-04T07:27:23Z</time>
      </trkpt>
      <trkpt lat="46.9452790" lon="3.1165930">
        <ele>177.0</ele>
        <time>2020-07-04T07:27:25Z</time>
      </trkpt>
      <trkpt lat="46.9452920" lon="3.1158500">
        <ele>177.6</ele>
        <time>2020-07-04T07:27:35Z</time>
      </trkpt>
      <trkpt lat="46.9452690" lon="3.1152210">
        <ele>177.4</ele>
        <time>2020-07-04T07:27:43Z</time>
      </trkpt>
      <trkpt lat="46.9452650" lon="3.1151380">
        <ele>177.6</ele>
        <time>2020-07-04T07:27:44Z</time>
      </trkpt>
      <trkpt lat="46.9452390" lon="3.1143000">
        <ele>178.4</ele>
        <time>2020-07-04T07:27:54Z</time>
      </trkpt>
      <trkpt lat="46.9452390" lon="3.1142130">
        <ele>178.4</ele>
        <time>2020-07-04T07:27:55Z</time>
      </trkpt>
      <trkpt lat="46.9452160" lon="3.1133630">
        <ele>178.6</ele>
        <time>2020-07-04T07:28:05Z</time>
      </trkpt>
      <trkpt lat="46.9451900" lon="3.1127790">
        <ele>178.6</ele>
        <time>2020-07-04T07:28:12Z</time>
      </trkpt>
      <trkpt lat="46.9451740" lon="3.1123690">
        <ele>178.8</ele>
        <time>2020-07-04T07:28:17Z</time>
      </trkpt>
      <trkpt lat="46.9451400" lon="3.1118700">
        <ele>178.8</ele>
        <time>2020-07-04T07:28:23Z</time>
      </trkpt>
      <trkpt lat="46.9451240" lon="3.1112790">
        <ele>178.6</ele>
        <time>2020-07-04T07:28:30Z</time>
      </trkpt>
      <trkpt lat="46.9450900" lon="3.1105020">
        <ele>177.6</ele>
        <time>2020-07-04T07:28:39Z</time>
      </trkpt>
      <trkpt lat="46.9450490" lon="3.1096770">
        <ele>177.4</ele>
        <time>2020-07-04T07:28:49Z</time>
      </trkpt>
      <trkpt lat="46.9450200" lon="3.1093500">
        <ele>177.4</ele>
        <time>2020-07-04T07:28:53Z</time>
      </trkpt>
      <trkpt lat="46.9450090" lon="3.1092730">
        <ele>177.2</ele>
        <time>2020-07-04T07:28:54Z</time>
      </trkpt>
      <trkpt lat="46.9449690" lon="3.1087820">
        <ele>177.2</ele>
        <time>2020-07-04T07:29:00Z</time>
      </trkpt>
      <trkpt lat="46.9449600" lon="3.1086960">
        <ele>177.2</ele>
        <time>2020-07-04T07:29:01Z</time>
      </trkpt>
      <trkpt lat="46.9448560" lon="3.1078580">
        <ele>177.2</ele>
        <time>2020-07-04T07:29:11Z</time>
      </trkpt>
      <trkpt lat="46.9448470" lon="3.1077700">
        <ele>177.2</ele>
        <time>2020-07-04T07:29:12Z</time>
      </trkpt>
      <trkpt lat="46.9447760" lon="3.1069210">
        <ele>177.4</ele>
        <time>2020-07-04T07:29:22Z</time>
      </trkpt>
      <trkpt lat="46.9447700" lon="3.1067550">
        <ele>177.2</ele>
        <time>2020-07-04T07:29:24Z</time>
      </trkpt>
      <trkpt lat="46.9447680" lon="3.1066740">
        <ele>177.4</ele>
        <time>2020-07-04T07:29:25Z</time>
      </trkpt>
      <trkpt lat="46.9447650" lon="3.1062640">
        <ele>177.4</ele>
        <time>2020-07-04T07:29:30Z</time>
      </trkpt>
      <trkpt lat="46.9447750" lon="3.1059380">
        <ele>177.4</ele>
        <time>2020-07-04T07:29:34Z</time>
      </trkpt>
      <trkpt lat="46.9448450" lon="3.1050690">
        <ele>177.6</ele>
        <time>2020-07-04T07:29:44Z</time>
      </trkpt>
      <trkpt lat="46.9448530" lon="3.1049790">
        <ele>177.6</ele>
        <time>2020-07-04T07:29:45Z</time>
      </trkpt>
      <trkpt lat="46.9448960" lon="3.1044480">
        <ele>177.4</ele>
        <time>2020-07-04T07:29:51Z</time>
      </trkpt>
      <trkpt lat="46.9449160" lon="3.1040990">
        <ele>177.6</ele>
        <time>2020-07-04T07:29:55Z</time>
      </trkpt>
      <trkpt lat="46.9449330" lon="3.1038270">
        <ele>177.2</ele>
        <time>2020-07-04T07:29:58Z</time>
      </trkpt>
      <trkpt lat="46.9449590" lon="3.1030360">
        <ele>175.4</ele>
        <time>2020-07-04T07:30:07Z</time>
      </trkpt>
      <trkpt lat="46.9450380" lon="3.1021800">
        <ele>174.8</ele>
        <time>2020-07-04T07:30:17Z</time>
      </trkpt>
      <trkpt lat="46.9450550" lon="3.1019420">
        <ele>174.8</ele>
        <time>2020-07-04T07:30:20Z</time>
      </trkpt>
      <trkpt lat="46.9451560" lon="3.1011060">
        <ele>174.8</ele>
        <time>2020-07-04T07:30:31Z</time>
      </trkpt>
      <trkpt lat="46.9451660" lon="3.1010320">
        <ele>174.8</ele>
        <time>2020-07-04T07:30:32Z</time>
      </trkpt>
      <trkpt lat="46.9452000" lon="3.1006740">
        <ele>174.8</ele>
        <time>2020-07-04T07:30:37Z</time>
      </trkpt>
      <trkpt lat="46.9452720" lon="3.1001480">
        <ele>175.8</ele>
        <time>2020-07-04T07:30:45Z</time>
      </trkpt>
      <trkpt lat="46.9452910" lon="3.0999590">
        <ele>176.6</ele>
        <time>2020-07-04T07:30:48Z</time>
      </trkpt>
      <trkpt lat="46.9453020" lon="3.0995300">
        <ele>177.2</ele>
        <time>2020-07-04T07:30:55Z</time>
      </trkpt>
      <trkpt lat="46.9452990" lon="3.0992220">
        <ele>177.6</ele>
        <time>2020-07-04T07:31:00Z</time>
      </trkpt>
      <trkpt lat="46.9453210" lon="3.0988030">
        <ele>178.0</ele>
        <time>2020-07-04T07:31:07Z</time>
      </trkpt>
      <trkpt lat="46.9453010" lon="3.0984070">
        <ele>178.6</ele>
        <time>2020-07-04T07:31:14Z</time>
      </trkpt>
      <trkpt lat="46.9452490" lon="3.0983160">
        <ele>178.6</ele>
        <time>2020-07-04T07:31:16Z</time>
      </trkpt>
      <trkpt lat="46.9451680" lon="3.0982380">
        <ele>178.8</ele>
        <time>2020-07-04T07:31:18Z</time>
      </trkpt>
      <trkpt lat="46.9450290" lon="3.0980840">
        <ele>178.6</ele>
        <time>2020-07-04T07:31:21Z</time>
      </trkpt>
      <trkpt lat="46.9449400" lon="3.0979460">
        <ele>178.8</ele>
        <time>2020-07-04T07:31:23Z</time>
      </trkpt>
      <trkpt lat="46.9448930" lon="3.0978680">
        <ele>178.8</ele>
        <time>2020-07-04T07:31:24Z</time>
      </trkpt>
      <trkpt lat="46.9447960" lon="3.0977100">
        <ele>178.8</ele>
        <time>2020-07-04T07:31:26Z</time>
      </trkpt>
      <trkpt lat="46.9446350" lon="3.0974800">
        <ele>178.4</ele>
        <time>2020-07-04T07:31:29Z</time>
      </trkpt>
      <trkpt lat="46.9443080" lon="3.0971180">
        <ele>176.0</ele>
        <time>2020-07-04T07:31:35Z</time>
      </trkpt>
      <trkpt lat="46.9442180" lon="3.0970150">
        <ele>175.4</ele>
        <time>2020-07-04T07:31:37Z</time>
      </trkpt>
      <trkpt lat="46.9440730" lon="3.0968520">
        <ele>175.0</ele>
        <time>2020-07-04T07:31:41Z</time>
      </trkpt>
      <trkpt lat="46.9437530" lon="3.0964630">
        <ele>176.4</ele>
        <time>2020-07-04T07:31:51Z</time>
      </trkpt>
      <trkpt lat="46.9436240" lon="3.0963310">
        <ele>176.6</ele>
        <time>2020-07-04T07:31:55Z</time>
      </trkpt>
      <trkpt lat="46.9433790" lon="3.0960990">
        <ele>178.2</ele>
        <time>2020-07-04T07:32:03Z</time>
      </trkpt>
      <trkpt lat="46.9432320" lon="3.0959480">
        <ele>179.0</ele>
        <time>2020-07-04T07:32:08Z</time>
      </trkpt>
      <trkpt lat="46.9431990" lon="3.0959170">
        <ele>179.4</ele>
        <time>2020-07-04T07:32:09Z</time>
      </trkpt>
      <trkpt lat="46.9431010" lon="3.0957940">
        <ele>179.6</ele>
        <time>2020-07-04T07:32:13Z</time>
      </trkpt>
      <trkpt lat="46.9430130" lon="3.0956740">
        <ele>180.0</ele>
        <time>2020-07-04T07:32:17Z</time>
      </trkpt>
      <trkpt lat="46.9429080" lon="3.0955480">
        <ele>181.0</ele>
        <time>2020-07-04T07:32:22Z</time>
      </trkpt>
      <trkpt lat="46.9428660" lon="3.0954930">
        <ele>181.2</ele>
        <time>2020-07-04T07:32:24Z</time>
      </trkpt>
      <trkpt lat="46.9427160" lon="3.0953390">
        <ele>182.4</ele>
        <time>2020-07-04T07:32:30Z</time>
      </trkpt>
      <trkpt lat="46.9426680" lon="3.0952920">
        <ele>182.4</ele>
        <time>2020-07-04T07:32:32Z</time>
      </trkpt>
      <trkpt lat="46.9424940" lon="3.0951150">
        <ele>187.2</ele>
        <time>2020-07-04T07:32:39Z</time>
      </trkpt>
      <trkpt lat="46.9421760" lon="3.0948420">
        <ele>185.4</ele>
        <time>2020-07-04T07:32:49Z</time>
      </trkpt>
      <trkpt lat="46.9421380" lon="3.0948160">
        <ele>185.8</ele>
        <time>2020-07-04T07:32:50Z</time>
      </trkpt>
      <trkpt lat="46.9418280" lon="3.0945760">
        <ele>186.4</ele>
        <time>2020-07-04T07:32:58Z</time>
      </trkpt>
      <trkpt lat="46.9415130" lon="3.0942870">
        <ele>187.0</ele>
        <time>2020-07-04T07:33:08Z</time>
      </trkpt>
      <trkpt lat="46.9414850" lon="3.0942610">
        <ele>187.2</ele>
        <time>2020-07-04T07:33:09Z</time>
      </trkpt>
      <trkpt lat="46.9412970" lon="3.0940430">
        <ele>187.4</ele>
        <time>2020-07-04T07:33:16Z</time>
      </trkpt>
      <trkpt lat="46.9411080" lon="3.0938260">
        <ele>188.2</ele>
        <time>2020-07-04T07:33:23Z</time>
      </trkpt>
      <trkpt lat="46.9410330" lon="3.0937350">
        <ele>188.4</ele>
        <time>2020-07-04T07:33:26Z</time>
      </trkpt>
      <trkpt lat="46.9410090" lon="3.0937040">
        <ele>188.4</ele>
        <time>2020-07-04T07:33:27Z</time>
      </trkpt>
      <trkpt lat="46.9407890" lon="3.0934660">
        <ele>189.8</ele>
        <time>2020-07-04T07:33:35Z</time>
      </trkpt>
      <trkpt lat="46.9407320" lon="3.0934120">
        <ele>190.2</ele>
        <time>2020-07-04T07:33:37Z</time>
      </trkpt>
      <trkpt lat="46.9405000" lon="3.0931870">
        <ele>191.4</ele>
        <time>2020-07-04T07:33:46Z</time>
      </trkpt>
      <trkpt lat="46.9404140" lon="3.0931220">
        <ele>192.0</ele>
        <time>2020-07-04T07:33:49Z</time>
      </trkpt>
      <trkpt lat="46.9402830" lon="3.0930120">
        <ele>192.4</ele>
        <time>2020-07-04T07:33:54Z</time>
      </trkpt>
      <trkpt lat="46.9401470" lon="3.0929170">
        <ele>193.2</ele>
        <time>2020-07-04T07:33:59Z</time>
      </trkpt>
      <trkpt lat="46.9398310" lon="3.0927440">
        <ele>193.6</ele>
        <time>2020-07-04T07:34:09Z</time>
      </trkpt>
      <trkpt lat="46.9396420" lon="3.0926460">
        <ele>193.6</ele>
        <time>2020-07-04T07:34:14Z</time>
      </trkpt>
      <trkpt lat="46.9395520" lon="3.0925950">
        <ele>193.6</ele>
        <time>2020-07-04T07:34:16Z</time>
      </trkpt>
      <trkpt lat="46.9394480" lon="3.0925280">
        <ele>193.6</ele>
        <time>2020-07-04T07:34:18Z</time>
      </trkpt>
      <trkpt lat="46.9392690" lon="3.0924070">
        <ele>193.4</ele>
        <time>2020-07-04T07:34:21Z</time>
      </trkpt>
      <trkpt lat="46.9392060" lon="3.0923610">
        <ele>193.0</ele>
        <time>2020-07-04T07:34:22Z</time>
      </trkpt>
      <trkpt lat="46.9389680" lon="3.0921730">
        <ele>191.6</ele>
        <time>2020-07-04T07:34:26Z</time>
      </trkpt>
      <trkpt lat="46.9389040" lon="3.0921250">
        <ele>190.8</ele>
        <time>2020-07-04T07:34:27Z</time>
      </trkpt>
      <trkpt lat="46.9387450" lon="3.0919740">
        <ele>189.6</ele>
        <time>2020-07-04T07:34:30Z</time>
      </trkpt>
      <trkpt lat="46.9384500" lon="3.0916660">
        <ele>188.6</ele>
        <time>2020-07-04T07:34:37Z</time>
      </trkpt>
      <trkpt lat="46.9383400" lon="3.0915870">
        <ele>188.8</ele>
        <time>2020-07-04T07:34:40Z</time>
      </trkpt>
      <trkpt lat="46.9382300" lon="3.0915050">
        <ele>189.0</ele>
        <time>2020-07-04T07:34:44Z</time>
      </trkpt>
      <trkpt lat="46.9381810" lon="3.0914610">
        <ele>189.4</ele>
        <time>2020-07-04T07:34:49Z</time>
      </trkpt>
      <trkpt lat="46.9381720" lon="3.0914770">
        <ele>191.0</ele>
        <time>2020-07-04T07:35:00Z</time>
      </trkpt>
      <trkpt lat="46.9381750" lon="3.0914970">
        <ele>191.0</ele>
        <time>2020-07-04T07:35:19Z</time>
      </trkpt>
      <trkpt lat="46.9381640" lon="3.0915110">
        <ele>190.8</ele>
        <time>2020-07-04T07:35:41Z</time>
      </trkpt>
      <trkpt lat="46.9381810" lon="3.0914990">
        <ele>191.2</ele>
        <time>2020-07-04T07:36:00Z</time>
      </trkpt>
      <trkpt lat="46.9381840" lon="3.0915130">
        <ele>191.0</ele>
        <time>2020-07-04T07:36:20Z</time>
      </trkpt>
      <trkpt lat="46.9381210" lon="3.0914630">
        <ele>191.2</ele>
        <time>2020-07-04T07:36:32Z</time>
      </trkpt>
      <trkpt lat="46.9379860" lon="3.0913760">
        <ele>191.6</ele>
        <time>2020-07-04T07:36:42Z</time>
      </trkpt>
      <trkpt lat="46.9377890" lon="3.0912590">
        <ele>192.0</ele>
        <time>2020-07-04T07:36:51Z</time>
      </trkpt>
      <trkpt lat="46.9376310" lon="3.0911400">
        <ele>192.4</ele>
        <time>2020-07-04T07:36:58Z</time>
      </trkpt>
      <trkpt lat="46.9375930" lon="3.0911130">
        <ele>192.4</ele>
        <time>2020-07-04T07:37:00Z</time>
      </trkpt>
      <trkpt lat="46.9374230" lon="3.0910160">
        <ele>192.6</ele>
        <time>2020-07-04T07:37:06Z</time>
      </trkpt>
      <trkpt lat="46.9372830" lon="3.0908880">
        <ele>192.8</ele>
        <time>2020-07-04T07:37:12Z</time>
      </trkpt>
      <trkpt lat="46.9371850" lon="3.0908410">
        <ele>193.2</ele>
        <time>2020-07-04T07:37:15Z</time>
      </trkpt>
      <trkpt lat="46.9370500" lon="3.0907740">
        <ele>193.4</ele>
        <time>2020-07-04T07:37:19Z</time>
      </trkpt>
      <trkpt lat="46.9370230" lon="3.0907510">
        <ele>193.6</ele>
        <time>2020-07-04T07:37:20Z</time>
      </trkpt>
      <trkpt lat="46.9368790" lon="3.0906650">
        <ele>194.0</ele>
        <time>2020-07-04T07:37:24Z</time>
      </trkpt>
      <trkpt lat="46.9366860" lon="3.0905410">
        <ele>195.2</ele>
        <time>2020-07-04T07:37:30Z</time>
      </trkpt>
      <trkpt lat="46.9365590" lon="3.0904490">
        <ele>196.4</ele>
        <time>2020-07-04T07:37:34Z</time>
      </trkpt>
      <trkpt lat="46.9363780" lon="3.0903290">
        <ele>197.2</ele>
        <time>2020-07-04T07:37:39Z</time>
      </trkpt>
      <trkpt lat="46.9360890" lon="3.0900780">
        <ele>197.4</ele>
        <time>2020-07-04T07:37:47Z</time>
      </trkpt>
      <trkpt lat="46.9360400" lon="3.0900360">
        <ele>197.4</ele>
        <time>2020-07-04T07:37:48Z</time>
      </trkpt>
      <trkpt lat="46.9359430" lon="3.0899480">
        <ele>197.4</ele>
        <time>2020-07-04T07:37:50Z</time>
      </trkpt>
      <trkpt lat="46.9358380" lon="3.0898470">
        <ele>197.2</ele>
        <time>2020-07-04T07:37:52Z</time>
      </trkpt>
      <trkpt lat="46.9357870" lon="3.0897890">
        <ele>197.2</ele>
        <time>2020-07-04T07:37:53Z</time>
      </trkpt>
      <trkpt lat="46.9355900" lon="3.0895690">
        <ele>196.6</ele>
        <time>2020-07-04T07:37:57Z</time>
      </trkpt>
      <trkpt lat="46.9355540" lon="3.0894790">
        <ele>195.8</ele>
        <time>2020-07-04T07:37:59Z</time>
      </trkpt>
      <trkpt lat="46.9353820" lon="3.0891010">
        <ele>193.2</ele>
        <time>2020-07-04T07:38:06Z</time>
      </trkpt>
      <trkpt lat="46.9352340" lon="3.0887980">
        <ele>192.8</ele>
        <time>2020-07-04T07:38:12Z</time>
      </trkpt>
      <trkpt lat="46.9352150" lon="3.0887480">
        <ele>192.8</ele>
        <time>2020-07-04T07:38:13Z</time>
      </trkpt>
      <trkpt lat="46.9351360" lon="3.0885380">
        <ele>193.0</ele>
        <time>2020-07-04T07:38:18Z</time>
      </trkpt>
      <trkpt lat="46.9351070" lon="3.0884660">
        <ele>193.0</ele>
        <time>2020-07-04T07:38:20Z</time>
      </trkpt>
      <trkpt lat="46.9349930" lon="3.0882430">
        <ele>194.4</ele>
        <time>2020-07-04T07:38:27Z</time>
      </trkpt>
      <trkpt lat="46.9349240" lon="3.0881360">
        <ele>194.8</ele>
        <time>2020-07-04T07:38:31Z</time>
      </trkpt>
      <trkpt lat="46.9348540" lon="3.0880080">
        <ele>195.2</ele>
        <time>2020-07-04T07:38:36Z</time>
      </trkpt>
      <trkpt lat="46.9347740" lon="3.0878550">
        <ele>197.0</ele>
        <time>2020-07-04T07:38:42Z</time>
      </trkpt>
      <trkpt lat="46.9347570" lon="3.0878310">
        <ele>197.2</ele>
        <time>2020-07-04T07:38:43Z</time>
      </trkpt>
      <trkpt lat="46.9346930" lon="3.0877200">
        <ele>198.2</ele>
        <time>2020-07-04T07:38:47Z</time>
      </trkpt>
      <trkpt lat="46.9346440" lon="3.0876390">
        <ele>198.4</ele>
        <time>2020-07-04T07:38:50Z</time>
      </trkpt>
      <trkpt lat="46.9345730" lon="3.0875370">
        <ele>199.0</ele>
        <time>2020-07-04T07:38:54Z</time>
      </trkpt>
      <trkpt lat="46.9345040" lon="3.0874060">
        <ele>200.6</ele>
        <time>2020-07-04T07:38:59Z</time>
      </trkpt>
      <trkpt lat="46.9343650" lon="3.0872200">
        <ele>201.6</ele>
        <time>2020-07-04T07:39:07Z</time>
      </trkpt>
      <trkpt lat="46.9343450" lon="3.0871990">
        <ele>201.6</ele>
        <time>2020-07-04T07:39:08Z</time>
      </trkpt>
      <trkpt lat="46.9340940" lon="3.0870290">
        <ele>202.6</ele>
        <time>2020-07-04T07:39:18Z</time>
      </trkpt>
      <trkpt lat="46.9338660" lon="3.0869680">
        <ele>203.0</ele>
        <time>2020-07-04T07:39:25Z</time>
      </trkpt>
      <trkpt lat="46.9337900" lon="3.0869570">
        <ele>203.2</ele>
        <time>2020-07-04T07:39:27Z</time>
      </trkpt>
      <trkpt lat="46.9334370" lon="3.0869290">
        <ele>203.4</ele>
        <time>2020-07-04T07:39:36Z</time>
      </trkpt>
      <trkpt lat="46.9330910" lon="3.0869020">
        <ele>203.4</ele>
        <time>2020-07-04T07:39:44Z</time>
      </trkpt>
      <trkpt lat="46.9330070" lon="3.0868980">
        <ele>203.6</ele>
        <time>2020-07-04T07:39:46Z</time>
      </trkpt>
      <trkpt lat="46.9326970" lon="3.0868750">
        <ele>204.4</ele>
        <time>2020-07-04T07:39:54Z</time>
      </trkpt>
      <trkpt lat="46.9326270" lon="3.0868700">
        <ele>204.6</ele>
        <time>2020-07-04T07:39:56Z</time>
      </trkpt>
      <trkpt lat="46.9323580" lon="3.0868430">
        <ele>205.6</ele>
        <time>2020-07-04T07:40:04Z</time>
      </trkpt>
      <trkpt lat="46.9321800" lon="3.0868120">
        <ele>206.0</ele>
        <time>2020-07-04T07:40:09Z</time>
      </trkpt>
      <trkpt lat="46.9317190" lon="3.0866430">
        <ele>207.2</ele>
        <time>2020-07-04T07:40:22Z</time>
      </trkpt>
      <trkpt lat="46.9315400" lon="3.0865830">
        <ele>207.4</ele>
        <time>2020-07-04T07:40:27Z</time>
      </trkpt>
      <trkpt lat="46.9314730" lon="3.0865580">
        <ele>207.6</ele>
        <time>2020-07-04T07:40:29Z</time>
      </trkpt>
      <trkpt lat="46.9313020" lon="3.0865060">
        <ele>207.8</ele>
        <time>2020-07-04T07:40:34Z</time>
      </trkpt>
      <trkpt lat="46.9311730" lon="3.0864520">
        <ele>209.0</ele>
        <time>2020-07-04T07:40:38Z</time>
      </trkpt>
      <trkpt lat="46.9309360" lon="3.0863700">
        <ele>209.8</ele>
        <time>2020-07-04T07:40:45Z</time>
      </trkpt>
      <trkpt lat="46.9305030" lon="3.0862270">
        <ele>210.6</ele>
        <time>2020-07-04T07:40:57Z</time>
      </trkpt>
      <trkpt lat="46.9303930" lon="3.0861860">
        <ele>210.6</ele>
        <time>2020-07-04T07:41:00Z</time>
      </trkpt>
      <trkpt lat="46.9300800" lon="3.0861030">
        <ele>211.2</ele>
        <time>2020-07-04T07:41:09Z</time>
      </trkpt>
      <trkpt lat="46.9299460" lon="3.0860770">
        <ele>211.6</ele>
        <time>2020-07-04T07:41:13Z</time>
      </trkpt>
      <trkpt lat="46.9297940" lon="3.0860440">
        <ele>212.2</ele>
        <time>2020-07-04T07:41:18Z</time>
      </trkpt>
      <trkpt lat="46.9297680" lon="3.0860380">
        <ele>212.4</ele>
        <time>2020-07-04T07:41:19Z</time>
      </trkpt>
      <trkpt lat="46.9294980" lon="3.0859910">
        <ele>213.4</ele>
        <time>2020-07-04T07:41:27Z</time>
      </trkpt>
      <trkpt lat="46.9290950" lon="3.0858720">
        <ele>214.0</ele>
        <time>2020-07-04T07:41:38Z</time>
      </trkpt>
      <trkpt lat="46.9289230" lon="3.0858170">
        <ele>214.2</ele>
        <time>2020-07-04T07:41:43Z</time>
      </trkpt>
      <trkpt lat="46.9287830" lon="3.0857700">
        <ele>214.2</ele>
        <time>2020-07-04T07:41:47Z</time>
      </trkpt>
      <trkpt lat="46.9283500" lon="3.0856310">
        <ele>215.2</ele>
        <time>2020-07-04T07:41:58Z</time>
      </trkpt>
      <trkpt lat="46.9277950" lon="3.0854310">
        <ele>216.6</ele>
        <time>2020-07-04T07:42:11Z</time>
      </trkpt>
      <trkpt lat="46.9274890" lon="3.0853170">
        <ele>216.6</ele>
        <time>2020-07-04T07:42:18Z</time>
      </trkpt>
      <trkpt lat="46.9270980" lon="3.0851870">
        <ele>217.2</ele>
        <time>2020-07-04T07:42:27Z</time>
      </trkpt>
      <trkpt lat="46.9267650" lon="3.0850750">
        <ele>217.2</ele>
        <time>2020-07-04T07:42:35Z</time>
      </trkpt>
      <trkpt lat="46.9266370" lon="3.0850320">
        <ele>217.2</ele>
        <time>2020-07-04T07:42:38Z</time>
      </trkpt>
      <trkpt lat="46.9264650" lon="3.0849770">
        <ele>217.2</ele>
        <time>2020-07-04T07:42:42Z</time>
      </trkpt>
      <trkpt lat="46.9260980" lon="3.0848600">
        <ele>217.6</ele>
        <time>2020-07-04T07:42:51Z</time>
      </trkpt>
      <trkpt lat="46.9258830" lon="3.0848000">
        <ele>218.2</ele>
        <time>2020-07-04T07:42:56Z</time>
      </trkpt>
      <trkpt lat="46.9256720" lon="3.0847440">
        <ele>218.4</ele>
        <time>2020-07-04T07:43:01Z</time>
      </trkpt>
      <trkpt lat="46.9253050" lon="3.0846460">
        <ele>219.4</ele>
        <time>2020-07-04T07:43:10Z</time>
      </trkpt>
      <trkpt lat="46.9248090" lon="3.0845430">
        <ele>220.0</ele>
        <time>2020-07-04T07:43:22Z</time>
      </trkpt>
      <trkpt lat="46.9246850" lon="3.0845100">
        <ele>220.0</ele>
        <time>2020-07-04T07:43:25Z</time>
      </trkpt>
      <trkpt lat="46.9243840" lon="3.0844490">
        <ele>220.2</ele>
        <time>2020-07-04T07:43:32Z</time>
      </trkpt>
      <trkpt lat="46.9240350" lon="3.0843940">
        <ele>221.2</ele>
        <time>2020-07-04T07:43:40Z</time>
      </trkpt>
      <trkpt lat="46.9239920" lon="3.0843850">
        <ele>221.2</ele>
        <time>2020-07-04T07:43:41Z</time>
      </trkpt>
      <trkpt lat="46.9236590" lon="3.0843260">
        <ele>221.8</ele>
        <time>2020-07-04T07:43:49Z</time>
      </trkpt>
      <trkpt lat="46.9235880" lon="3.0843160">
        <ele>221.8</ele>
        <time>2020-07-04T07:43:51Z</time>
      </trkpt>
      <trkpt lat="46.9233040" lon="3.0842550">
        <ele>222.6</ele>
        <time>2020-07-04T07:43:59Z</time>
      </trkpt>
      <trkpt lat="46.9232640" lon="3.0842480">
        <ele>222.8</ele>
        <time>2020-07-04T07:44:00Z</time>
      </trkpt>
      <trkpt lat="46.9229770" lon="3.0841620">
        <ele>223.2</ele>
        <time>2020-07-04T07:44:07Z</time>
      </trkpt>
      <trkpt lat="46.9228350" lon="3.0840880">
        <ele>223.4</ele>
        <time>2020-07-04T07:44:11Z</time>
      </trkpt>
      <trkpt lat="46.9227210" lon="3.0840580">
        <ele>223.4</ele>
        <time>2020-07-04T07:44:14Z</time>
      </trkpt>
      <trkpt lat="46.9226780" lon="3.0840420">
        <ele>223.4</ele>
        <time>2020-07-04T07:44:15Z</time>
      </trkpt>
      <trkpt lat="46.9224940" lon="3.0839560">
        <ele>223.2</ele>
        <time>2020-07-04T07:44:19Z</time>
      </trkpt>
      <trkpt lat="46.9223820" lon="3.0838930">
        <ele>223.0</ele>
        <time>2020-07-04T07:44:21Z</time>
      </trkpt>
      <trkpt lat="46.9222530" lon="3.0838240">
        <ele>222.4</ele>
        <time>2020-07-04T07:44:23Z</time>
      </trkpt>
      <trkpt lat="46.9220420" lon="3.0836930">
        <ele>221.2</ele>
        <time>2020-07-04T07:44:26Z</time>
      </trkpt>
      <trkpt lat="46.9219710" lon="3.0836440">
        <ele>221.0</ele>
        <time>2020-07-04T07:44:27Z</time>
      </trkpt>
      <trkpt lat="46.9218930" lon="3.0835840">
        <ele>220.8</ele>
        <time>2020-07-04T07:44:28Z</time>
      </trkpt>
      <trkpt lat="46.9218180" lon="3.0835190">
        <ele>220.0</ele>
        <time>2020-07-04T07:44:29Z</time>
      </trkpt>
      <trkpt lat="46.9215940" lon="3.0832710">
        <ele>218.2</ele>
        <time>2020-07-04T07:44:32Z</time>
      </trkpt>
      <trkpt lat="46.9214380" lon="3.0830850">
        <ele>217.6</ele>
        <time>2020-07-04T07:44:34Z</time>
      </trkpt>
      <trkpt lat="46.9212010" lon="3.0828040">
        <ele>216.6</ele>
        <time>2020-07-04T07:44:37Z</time>
      </trkpt>
      <trkpt lat="46.9210460" lon="3.0826160">
        <ele>214.8</ele>
        <time>2020-07-04T07:44:39Z</time>
      </trkpt>
      <trkpt lat="46.9209670" lon="3.0825250">
        <ele>214.2</ele>
        <time>2020-07-04T07:44:40Z</time>
      </trkpt>
      <trkpt lat="46.9208140" lon="3.0823450">
        <ele>213.0</ele>
        <time>2020-07-04T07:44:42Z</time>
      </trkpt>
      <trkpt lat="46.9206590" lon="3.0821740">
        <ele>211.4</ele>
        <time>2020-07-04T07:44:44Z</time>
      </trkpt>
      <trkpt lat="46.9205810" lon="3.0820910">
        <ele>210.6</ele>
        <time>2020-07-04T07:44:45Z</time>
      </trkpt>
      <trkpt lat="46.9205010" lon="3.0820110">
        <ele>210.0</ele>
        <time>2020-07-04T07:44:46Z</time>
      </trkpt>
      <trkpt lat="46.9202510" lon="3.0817880">
        <ele>207.6</ele>
        <time>2020-07-04T07:44:49Z</time>
      </trkpt>
      <trkpt lat="46.9200660" lon="3.0816600">
        <ele>205.6</ele>
        <time>2020-07-04T07:44:51Z</time>
      </trkpt>
      <trkpt lat="46.9198620" lon="3.0815560">
        <ele>204.0</ele>
        <time>2020-07-04T07:44:53Z</time>
      </trkpt>
      <trkpt lat="46.9197520" lon="3.0815210">
        <ele>203.0</ele>
        <time>2020-07-04T07:44:54Z</time>
      </trkpt>
      <trkpt lat="46.9195180" lon="3.0814880">
        <ele>200.8</ele>
        <time>2020-07-04T07:44:56Z</time>
      </trkpt>
      <trkpt lat="46.9192860" lon="3.0814780">
        <ele>200.4</ele>
        <time>2020-07-04T07:44:58Z</time>
      </trkpt>
      <trkpt lat="46.9190480" lon="3.0814950">
        <ele>198.8</ele>
        <time>2020-07-04T07:45:00Z</time>
      </trkpt>
      <trkpt lat="46.9185040" lon="3.0815410">
        <ele>193.6</ele>
        <time>2020-07-04T07:45:05Z</time>
      </trkpt>
      <trkpt lat="46.9182250" lon="3.0815650">
        <ele>192.0</ele>
        <time>2020-07-04T07:45:08Z</time>
      </trkpt>
      <trkpt lat="46.9180600" lon="3.0815850">
        <ele>191.6</ele>
        <time>2020-07-04T07:45:10Z</time>
      </trkpt>
      <trkpt lat="46.9179160" lon="3.0815900">
        <ele>191.6</ele>
        <time>2020-07-04T07:45:12Z</time>
      </trkpt>
      <trkpt lat="46.9177290" lon="3.0815870">
        <ele>191.4</ele>
        <time>2020-07-04T07:45:15Z</time>
      </trkpt>
      <trkpt lat="46.9172780" lon="3.0815760">
        <ele>193.2</ele>
        <time>2020-07-04T07:45:23Z</time>
      </trkpt>
      <trkpt lat="46.9171730" lon="3.0815570">
        <ele>193.8</ele>
        <time>2020-07-04T07:45:25Z</time>
      </trkpt>
      <trkpt lat="46.9167410" lon="3.0814890">
        <ele>194.8</ele>
        <time>2020-07-04T07:45:33Z</time>
      </trkpt>
      <trkpt lat="46.9161740" lon="3.0813130">
        <ele>195.2</ele>
        <time>2020-07-04T07:45:43Z</time>
      </trkpt>
      <trkpt lat="46.9156340" lon="3.0810980">
        <ele>195.2</ele>
        <time>2020-07-04T07:45:53Z</time>
      </trkpt>
      <trkpt lat="46.9155800" lon="3.0810760">
        <ele>195.2</ele>
        <time>2020-07-04T07:45:54Z</time>
      </trkpt>
      <trkpt lat="46.9154720" lon="3.0810300">
        <ele>195.4</ele>
        <time>2020-07-04T07:45:56Z</time>
      </trkpt>
      <trkpt lat="46.9150680" lon="3.0808650">
        <ele>195.8</ele>
        <time>2020-07-04T07:46:04Z</time>
      </trkpt>
      <trkpt lat="46.9145310" lon="3.0806670">
        <ele>196.2</ele>
        <time>2020-07-04T07:46:15Z</time>
      </trkpt>
      <trkpt lat="46.9144320" lon="3.0806330">
        <ele>196.2</ele>
        <time>2020-07-04T07:46:17Z</time>
      </trkpt>
      <trkpt lat="46.9138820" lon="3.0804690">
        <ele>196.0</ele>
        <time>2020-07-04T07:46:28Z</time>
      </trkpt>
      <trkpt lat="46.9137440" lon="3.0804230">
        <ele>196.0</ele>
        <time>2020-07-04T07:46:31Z</time>
      </trkpt>
      <trkpt lat="46.9134210" lon="3.0802910">
        <ele>196.2</ele>
        <time>2020-07-04T07:46:39Z</time>
      </trkpt>
      <trkpt lat="46.9133820" lon="3.0802770">
        <ele>196.2</ele>
        <time>2020-07-04T07:46:40Z</time>
      </trkpt>
      <trkpt lat="46.9131650" lon="3.0802200">
        <ele>196.6</ele>
        <time>2020-07-04T07:46:45Z</time>
      </trkpt>
      <trkpt lat="46.9130420" lon="3.0801940">
        <ele>197.0</ele>
        <time>2020-07-04T07:46:48Z</time>
      </trkpt>
      <trkpt lat="46.9127270" lon="3.0801710">
        <ele>197.6</ele>
        <time>2020-07-04T07:46:54Z</time>
      </trkpt>
      <trkpt lat="46.9123750" lon="3.0801550">
        <ele>197.6</ele>
        <time>2020-07-04T07:47:00Z</time>
      </trkpt>
      <trkpt lat="46.9122610" lon="3.0801400">
        <ele>197.8</ele>
        <time>2020-07-04T07:47:02Z</time>
      </trkpt>
      <trkpt lat="46.9118130" lon="3.0801410">
        <ele>197.4</ele>
        <time>2020-07-04T07:47:10Z</time>
      </trkpt>
      <trkpt lat="46.9113230" lon="3.0802550">
        <ele>197.2</ele>
        <time>2020-07-04T07:47:19Z</time>
      </trkpt>
      <trkpt lat="46.9110610" lon="3.0803120">
        <ele>197.4</ele>
        <time>2020-07-04T07:47:24Z</time>
      </trkpt>
      <trkpt lat="46.9108570" lon="3.0803420">
        <ele>197.6</ele>
        <time>2020-07-04T07:47:28Z</time>
      </trkpt>
      <trkpt lat="46.9108100" lon="3.0803510">
        <ele>197.6</ele>
        <time>2020-07-04T07:47:29Z</time>
      </trkpt>
      <trkpt lat="46.9104280" lon="3.0804460">
        <ele>198.4</ele>
        <time>2020-07-04T07:47:37Z</time>
      </trkpt>
      <trkpt lat="46.9101300" lon="3.0805270">
        <ele>198.8</ele>
        <time>2020-07-04T07:47:43Z</time>
      </trkpt>
      <trkpt lat="46.9100260" lon="3.0805530">
        <ele>198.6</ele>
        <time>2020-07-04T07:47:45Z</time>
      </trkpt>
      <trkpt lat="46.9095380" lon="3.0806280">
        <ele>198.2</ele>
        <time>2020-07-04T07:47:54Z</time>
      </trkpt>
      <trkpt lat="46.9091560" lon="3.0806110">
        <ele>198.4</ele>
        <time>2020-07-04T07:48:02Z</time>
      </trkpt>
      <trkpt lat="46.9087560" lon="3.0805860">
        <ele>198.2</ele>
        <time>2020-07-04T07:48:10Z</time>
      </trkpt>
      <trkpt lat="46.9083570" lon="3.0805870">
        <ele>198.0</ele>
        <time>2020-07-04T07:48:17Z</time>
      </trkpt>
      <trkpt lat="46.9081800" lon="3.0805830">
        <ele>198.0</ele>
        <time>2020-07-04T07:48:20Z</time>
      </trkpt>
      <trkpt lat="46.9076890" lon="3.0805440">
        <ele>197.0</ele>
        <time>2020-07-04T07:48:28Z</time>
      </trkpt>
      <trkpt lat="46.9072780" lon="3.0804940">
        <ele>196.6</ele>
        <time>2020-07-04T07:48:34Z</time>
      </trkpt>
      <trkpt lat="46.9071430" lon="3.0804710">
        <ele>196.6</ele>
        <time>2020-07-04T07:48:36Z</time>
      </trkpt>
      <trkpt lat="46.9067750" lon="3.0804020">
        <ele>196.2</ele>
        <time>2020-07-04T07:48:42Z</time>
      </trkpt>
      <trkpt lat="46.9066050" lon="3.0803780">
        <ele>196.0</ele>
        <time>2020-07-04T07:48:45Z</time>
      </trkpt>
      <trkpt lat="46.9060860" lon="3.0803810">
        <ele>195.0</ele>
        <time>2020-07-04T07:48:54Z</time>
      </trkpt>
      <trkpt lat="46.9060260" lon="3.0803780">
        <ele>195.0</ele>
        <time>2020-07-04T07:48:55Z</time>
      </trkpt>
      <trkpt lat="46.9056300" lon="3.0802720">
        <ele>194.6</ele>
        <time>2020-07-04T07:49:02Z</time>
      </trkpt>
      <trkpt lat="46.9052540" lon="3.0801250">
        <ele>193.8</ele>
        <time>2020-07-04T07:49:09Z</time>
      </trkpt>
      <trkpt lat="46.9049960" lon="3.0800170">
        <ele>193.8</ele>
        <time>2020-07-04T07:49:14Z</time>
      </trkpt>
      <trkpt lat="46.9044490" lon="3.0798140">
        <ele>194.2</ele>
        <time>2020-07-04T07:49:24Z</time>
      </trkpt>
      <trkpt lat="46.9042340" lon="3.0797390">
        <ele>194.2</ele>
        <time>2020-07-04T07:49:28Z</time>
      </trkpt>
      <trkpt lat="46.9039020" lon="3.0796290">
        <ele>194.6</ele>
        <time>2020-07-04T07:49:34Z</time>
      </trkpt>
      <trkpt lat="46.9036610" lon="3.0795410">
        <ele>194.6</ele>
        <time>2020-07-04T07:49:38Z</time>
      </trkpt>
      <trkpt lat="46.9035970" lon="3.0795170">
        <ele>194.6</ele>
        <time>2020-07-04T07:49:39Z</time>
      </trkpt>
      <trkpt lat="46.9035330" lon="3.0794930">
        <ele>194.6</ele>
        <time>2020-07-04T07:49:40Z</time>
      </trkpt>
      <trkpt lat="46.9034020" lon="3.0794380">
        <ele>194.2</ele>
        <time>2020-07-04T07:49:42Z</time>
      </trkpt>
      <trkpt lat="46.9031970" lon="3.0793450">
        <ele>193.6</ele>
        <time>2020-07-04T07:49:45Z</time>
      </trkpt>
      <trkpt lat="46.9031240" lon="3.0793140">
        <ele>193.2</ele>
        <time>2020-07-04T07:49:46Z</time>
      </trkpt>
      <trkpt lat="46.9028930" lon="3.0792210">
        <ele>191.2</ele>
        <time>2020-07-04T07:49:49Z</time>
      </trkpt>
      <trkpt lat="46.9024140" lon="3.0790200">
        <ele>188.2</ele>
        <time>2020-07-04T07:49:55Z</time>
      </trkpt>
      <trkpt lat="46.9022560" lon="3.0789550">
        <ele>187.8</ele>
        <time>2020-07-04T07:49:57Z</time>
      </trkpt>
      <trkpt lat="46.9017440" lon="3.0787540">
        <ele>186.4</ele>
        <time>2020-07-04T07:50:04Z</time>
      </trkpt>
      <trkpt lat="46.9015900" lon="3.0787120">
        <ele>186.0</ele>
        <time>2020-07-04T07:50:06Z</time>
      </trkpt>
      <trkpt lat="46.9011650" lon="3.0786650">
        <ele>184.8</ele>
        <time>2020-07-04T07:50:12Z</time>
      </trkpt>
      <trkpt lat="46.9010990" lon="3.0786620">
        <ele>184.6</ele>
        <time>2020-07-04T07:50:13Z</time>
      </trkpt>
      <trkpt lat="46.9010350" lon="3.0786600">
        <ele>184.6</ele>
        <time>2020-07-04T07:50:14Z</time>
      </trkpt>
      <trkpt lat="46.9009730" lon="3.0786600">
        <ele>184.6</ele>
        <time>2020-07-04T07:50:15Z</time>
      </trkpt>
      <trkpt lat="46.9007370" lon="3.0786540">
        <ele>184.2</ele>
        <time>2020-07-04T07:50:19Z</time>
      </trkpt>
      <trkpt lat="46.9005170" lon="3.0786990">
        <ele>184.2</ele>
        <time>2020-07-04T07:50:24Z</time>
      </trkpt>
      <trkpt lat="46.9004900" lon="3.0787130">
        <ele>184.2</ele>
        <time>2020-07-04T07:50:25Z</time>
      </trkpt>
      <trkpt lat="46.9004290" lon="3.0787590">
        <ele>184.6</ele>
        <time>2020-07-04T07:50:28Z</time>
      </trkpt>
      <trkpt lat="46.9003020" lon="3.0789270">
        <ele>185.0</ele>
        <time>2020-07-04T07:50:33Z</time>
      </trkpt>
      <trkpt lat="46.9000150" lon="3.0791550">
        <ele>185.0</ele>
        <time>2020-07-04T07:50:40Z</time>
      </trkpt>
      <trkpt lat="46.8996470" lon="3.0793140">
        <ele>185.4</ele>
        <time>2020-07-04T07:50:48Z</time>
      </trkpt>
      <trkpt lat="46.8993160" lon="3.0794530">
        <ele>185.8</ele>
        <time>2020-07-04T07:50:55Z</time>
      </trkpt>
      <trkpt lat="46.8991230" lon="3.0795230">
        <ele>186.0</ele>
        <time>2020-07-04T07:50:59Z</time>
      </trkpt>
      <trkpt lat="46.8987470" lon="3.0797370">
        <ele>186.8</ele>
        <time>2020-07-04T07:51:07Z</time>
      </trkpt>
      <trkpt lat="46.8986630" lon="3.0798050">
        <ele>187.0</ele>
        <time>2020-07-04T07:51:09Z</time>
      </trkpt>
      <trkpt lat="46.8984110" lon="3.0800960">
        <ele>187.2</ele>
        <time>2020-07-04T07:51:16Z</time>
      </trkpt>
      <trkpt lat="46.8983770" lon="3.0801370">
        <ele>187.4</ele>
        <time>2020-07-04T07:51:17Z</time>
      </trkpt>
      <trkpt lat="46.8980830" lon="3.0804860">
        <ele>189.0</ele>
        <time>2020-07-04T07:51:26Z</time>
      </trkpt>
      <trkpt lat="46.8979300" lon="3.0806910">
        <ele>188.8</ele>
        <time>2020-07-04T07:51:30Z</time>
      </trkpt>
      <trkpt lat="46.8978220" lon="3.0808790">
        <ele>189.0</ele>
        <time>2020-07-04T07:51:33Z</time>
      </trkpt>
      <trkpt lat="46.8977870" lon="3.0809470">
        <ele>189.0</ele>
        <time>2020-07-04T07:51:34Z</time>
      </trkpt>
      <trkpt lat="46.8976370" lon="3.0812420">
        <ele>188.6</ele>
        <time>2020-07-04T07:51:38Z</time>
      </trkpt>
      <trkpt lat="46.8975040" lon="3.0814830">
        <ele>187.6</ele>
        <time>2020-07-04T07:51:41Z</time>
      </trkpt>
      <trkpt lat="46.8973870" lon="3.0816490">
        <ele>187.0</ele>
        <time>2020-07-04T07:51:43Z</time>
      </trkpt>
      <trkpt lat="46.8972450" lon="3.0817990">
        <ele>186.2</ele>
        <time>2020-07-04T07:51:45Z</time>
      </trkpt>
      <trkpt lat="46.8971580" lon="3.0818650">
        <ele>186.0</ele>
        <time>2020-07-04T07:51:46Z</time>
      </trkpt>
      <trkpt lat="46.8970600" lon="3.0819190">
        <ele>185.4</ele>
        <time>2020-07-04T07:51:47Z</time>
      </trkpt>
      <trkpt lat="46.8967490" lon="3.0820160">
        <ele>184.2</ele>
        <time>2020-07-04T07:51:50Z</time>
      </trkpt>
      <trkpt lat="46.8961480" lon="3.0820870">
        <ele>179.0</ele>
        <time>2020-07-04T07:51:56Z</time>
      </trkpt>
      <trkpt lat="46.8960570" lon="3.0821010">
        <ele>178.0</ele>
        <time>2020-07-04T07:51:57Z</time>
      </trkpt>
      <trkpt lat="46.8954950" lon="3.0822470">
        <ele>175.0</ele>
        <time>2020-07-04T07:52:04Z</time>
      </trkpt>
      <trkpt lat="46.8950340" lon="3.0824680">
        <ele>174.8</ele>
        <time>2020-07-04T07:52:11Z</time>
      </trkpt>
      <trkpt lat="46.8944980" lon="3.0827110">
        <ele>174.8</ele>
        <time>2020-07-04T07:52:20Z</time>
      </trkpt>
      <trkpt lat="46.8940450" lon="3.0830190">
        <ele>174.6</ele>
        <time>2020-07-04T07:52:28Z</time>
      </trkpt>
      <trkpt lat="46.8939540" lon="3.0831450">
        <ele>174.4</ele>
        <time>2020-07-04T07:52:30Z</time>
      </trkpt>
      <trkpt lat="46.8938300" lon="3.0833670">
        <ele>174.4</ele>
        <time>2020-07-04T07:52:33Z</time>
      </trkpt>
      <trkpt lat="46.8935200" lon="3.0839700">
        <ele>174.0</ele>
        <time>2020-07-04T07:52:41Z</time>
      </trkpt>
      <trkpt lat="46.8934220" lon="3.0840650">
        <ele>173.8</ele>
        <time>2020-07-04T07:52:43Z</time>
      </trkpt>
      <trkpt lat="46.8933660" lon="3.0840920">
        <ele>173.6</ele>
        <time>2020-07-04T07:52:44Z</time>
      </trkpt>
      <trkpt lat="46.8933100" lon="3.0841070">
        <ele>173.8</ele>
        <time>2020-07-04T07:52:45Z</time>
      </trkpt>
      <trkpt lat="46.8932030" lon="3.0840990">
        <ele>173.6</ele>
        <time>2020-07-04T07:52:47Z</time>
      </trkpt>
      <trkpt lat="46.8931110" lon="3.0840550">
        <ele>173.6</ele>
        <time>2020-07-04T07:52:49Z</time>
      </trkpt>
      <trkpt lat="46.8930140" lon="3.0839880">
        <ele>173.4</ele>
        <time>2020-07-04T07:52:51Z</time>
      </trkpt>
      <trkpt lat="46.8929680" lon="3.0839610">
        <ele>173.6</ele>
        <time>2020-07-04T07:52:52Z</time>
      </trkpt>
      <trkpt lat="46.8928730" lon="3.0839460">
        <ele>173.6</ele>
        <time>2020-07-04T07:52:54Z</time>
      </trkpt>
      <trkpt lat="46.8927730" lon="3.0839630">
        <ele>173.4</ele>
        <time>2020-07-04T07:52:56Z</time>
      </trkpt>
      <trkpt lat="46.8926210" lon="3.0840310">
        <ele>173.4</ele>
        <time>2020-07-04T07:52:59Z</time>
      </trkpt>
      <trkpt lat="46.8922680" lon="3.0842510">
        <ele>173.0</ele>
        <time>2020-07-04T07:53:06Z</time>
      </trkpt>
      <trkpt lat="46.8920600" lon="3.0843730">
        <ele>172.6</ele>
        <time>2020-07-04T07:53:10Z</time>
      </trkpt>
      <trkpt lat="46.8920080" lon="3.0844070">
        <ele>172.4</ele>
        <time>2020-07-04T07:53:11Z</time>
      </trkpt>
      <trkpt lat="46.8918590" lon="3.0845190">
        <ele>172.2</ele>
        <time>2020-07-04T07:53:14Z</time>
      </trkpt>
      <trkpt lat="46.8916190" lon="3.0847600">
        <ele>172.0</ele>
        <time>2020-07-04T07:53:19Z</time>
      </trkpt>
      <trkpt lat="46.8915750" lon="3.0848130">
        <ele>171.8</ele>
        <time>2020-07-04T07:53:20Z</time>
      </trkpt>
      <trkpt lat="46.8912640" lon="3.0852020">
        <ele>172.0</ele>
        <time>2020-07-04T07:53:27Z</time>
      </trkpt>
      <trkpt lat="46.8911180" lon="3.0853640">
        <ele>172.0</ele>
        <time>2020-07-04T07:53:30Z</time>
      </trkpt>
      <trkpt lat="46.8906900" lon="3.0856780">
        <ele>171.6</ele>
        <time>2020-07-04T07:53:38Z</time>
      </trkpt>
      <trkpt lat="46.8902820" lon="3.0858380">
        <ele>171.0</ele>
        <time>2020-07-04T07:53:45Z</time>
      </trkpt>
      <trkpt lat="46.8901660" lon="3.0858680">
        <ele>170.8</ele>
        <time>2020-07-04T07:53:47Z</time>
      </trkpt>
      <trkpt lat="46.8899990" lon="3.0859170">
        <ele>170.8</ele>
        <time>2020-07-04T07:53:50Z</time>
      </trkpt>
      <trkpt lat="46.8898920" lon="3.0859540">
        <ele>170.8</ele>
        <time>2020-07-04T07:53:52Z</time>
      </trkpt>
      <trkpt lat="46.8897870" lon="3.0859920">
        <ele>170.8</ele>
        <time>2020-07-04T07:53:54Z</time>
      </trkpt>
      <trkpt lat="46.8894080" lon="3.0861210">
        <ele>170.4</ele>
        <time>2020-07-04T07:54:01Z</time>
      </trkpt>
      <trkpt lat="46.8888500" lon="3.0863250">
        <ele>169.8</ele>
        <time>2020-07-04T07:54:11Z</time>
      </trkpt>
      <trkpt lat="46.8887960" lon="3.0863430">
        <ele>169.8</ele>
        <time>2020-07-04T07:54:12Z</time>
      </trkpt>
      <trkpt lat="46.8885820" lon="3.0864190">
        <ele>169.8</ele>
        <time>2020-07-04T07:54:16Z</time>
      </trkpt>
      <trkpt lat="46.8880460" lon="3.0866210">
        <ele>170.0</ele>
        <time>2020-07-04T07:54:26Z</time>
      </trkpt>
      <trkpt lat="46.8879920" lon="3.0866390">
        <ele>170.2</ele>
        <time>2020-07-04T07:54:27Z</time>
      </trkpt>
      <trkpt lat="46.8876690" lon="3.0867600">
        <ele>170.2</ele>
        <time>2020-07-04T07:54:33Z</time>
      </trkpt>
      <trkpt lat="46.8875580" lon="3.0868120">
        <ele>170.4</ele>
        <time>2020-07-04T07:54:35Z</time>
      </trkpt>
      <trkpt lat="46.8873940" lon="3.0869010">
        <ele>170.2</ele>
        <time>2020-07-04T07:54:38Z</time>
      </trkpt>
      <trkpt lat="46.8869550" lon="3.0872550">
        <ele>170.4</ele>
        <time>2020-07-04T07:54:47Z</time>
      </trkpt>
      <trkpt lat="46.8866300" lon="3.0875860">
        <ele>170.4</ele>
        <time>2020-07-04T07:54:54Z</time>
      </trkpt>
      <trkpt lat="46.8864430" lon="3.0877560">
        <ele>170.6</ele>
        <time>2020-07-04T07:54:58Z</time>
      </trkpt>
      <trkpt lat="46.8859390" lon="3.0881900">
        <ele>171.2</ele>
        <time>2020-07-04T07:55:08Z</time>
      </trkpt>
      <trkpt lat="46.8858900" lon="3.0882290">
        <ele>171.0</ele>
        <time>2020-07-04T07:55:09Z</time>
      </trkpt>
      <trkpt lat="46.8858410" lon="3.0882690">
        <ele>171.2</ele>
        <time>2020-07-04T07:55:10Z</time>
      </trkpt>
      <trkpt lat="46.8856950" lon="3.0883870">
        <ele>171.0</ele>
        <time>2020-07-04T07:55:13Z</time>
      </trkpt>
      <trkpt lat="46.8853180" lon="3.0886500">
        <ele>170.0</ele>
        <time>2020-07-04T07:55:20Z</time>
      </trkpt>
      <trkpt lat="46.8849320" lon="3.0887700">
        <ele>169.2</ele>
        <time>2020-07-04T07:55:27Z</time>
      </trkpt>
      <trkpt lat="46.8843810" lon="3.0888470">
        <ele>169.0</ele>
        <time>2020-07-04T07:55:37Z</time>
      </trkpt>
      <trkpt lat="46.8843230" lon="3.0888520">
        <ele>169.0</ele>
        <time>2020-07-04T07:55:38Z</time>
      </trkpt>
      <trkpt lat="46.8837430" lon="3.0888580">
        <ele>169.2</ele>
        <time>2020-07-04T07:55:48Z</time>
      </trkpt>
      <trkpt lat="46.8834310" lon="3.0889620">
        <ele>169.2</ele>
        <time>2020-07-04T07:55:54Z</time>
      </trkpt>
      <trkpt lat="46.8833820" lon="3.0889990">
        <ele>169.2</ele>
        <time>2020-07-04T07:55:55Z</time>
      </trkpt>
      <trkpt lat="46.8832970" lon="3.0890780">
        <ele>169.2</ele>
        <time>2020-07-04T07:55:57Z</time>
      </trkpt>
      <trkpt lat="46.8832600" lon="3.0891260">
        <ele>169.2</ele>
        <time>2020-07-04T07:55:58Z</time>
      </trkpt>
      <trkpt lat="46.8831560" lon="3.0892850">
        <ele>169.6</ele>
        <time>2020-07-04T07:56:01Z</time>
      </trkpt>
      <trkpt lat="46.8827920" lon="3.0897770">
        <ele>170.0</ele>
        <time>2020-07-04T07:56:10Z</time>
      </trkpt>
      <trkpt lat="46.8824430" lon="3.0900010">
        <ele>170.2</ele>
        <time>2020-07-04T07:56:17Z</time>
      </trkpt>
      <trkpt lat="46.8821990" lon="3.0901530">
        <ele>170.4</ele>
        <time>2020-07-04T07:56:22Z</time>
      </trkpt>
      <trkpt lat="46.8820070" lon="3.0902840">
        <ele>170.6</ele>
        <time>2020-07-04T07:56:26Z</time>
      </trkpt>
      <trkpt lat="46.8819600" lon="3.0903150">
        <ele>170.6</ele>
        <time>2020-07-04T07:56:27Z</time>
      </trkpt>
      <trkpt lat="46.8819120" lon="3.0903420">
        <ele>170.8</ele>
        <time>2020-07-04T07:56:28Z</time>
      </trkpt>
      <trkpt lat="46.8817420" lon="3.0904380">
        <ele>171.0</ele>
        <time>2020-07-04T07:56:32Z</time>
      </trkpt>
      <trkpt lat="46.8816990" lon="3.0904670">
        <ele>171.0</ele>
        <time>2020-07-04T07:56:33Z</time>
      </trkpt>
      <trkpt lat="46.8813950" lon="3.0907310">
        <ele>171.2</ele>
        <time>2020-07-04T07:56:40Z</time>
      </trkpt>
      <trkpt lat="46.8813510" lon="3.0907740">
        <ele>171.2</ele>
        <time>2020-07-04T07:56:41Z</time>
      </trkpt>
      <trkpt lat="46.8811710" lon="3.0909220">
        <ele>171.6</ele>
        <time>2020-07-04T07:56:45Z</time>
      </trkpt>
      <trkpt lat="46.8811210" lon="3.0909400">
        <ele>171.6</ele>
        <time>2020-07-04T07:56:46Z</time>
      </trkpt>
      <trkpt lat="46.8810700" lon="3.0909390">
        <ele>171.4</ele>
        <time>2020-07-04T07:56:47Z</time>
      </trkpt>
      <trkpt lat="46.8809710" lon="3.0908790">
        <ele>171.2</ele>
        <time>2020-07-04T07:56:49Z</time>
      </trkpt>
      <trkpt lat="46.8809290" lon="3.0908280">
        <ele>171.2</ele>
        <time>2020-07-04T07:56:50Z</time>
      </trkpt>
      <trkpt lat="46.8808950" lon="3.0907610">
        <ele>171.2</ele>
        <time>2020-07-04T07:56:51Z</time>
      </trkpt>
      <trkpt lat="46.8808470" lon="3.0905960">
        <ele>171.0</ele>
        <time>2020-07-04T07:56:53Z</time>
      </trkpt>
      <trkpt lat="46.8807770" lon="3.0902310">
        <ele>171.0</ele>
        <time>2020-07-04T07:56:57Z</time>
      </trkpt>
      <trkpt lat="46.8807520" lon="3.0900410">
        <ele>170.8</ele>
        <time>2020-07-04T07:56:59Z</time>
      </trkpt>
      <trkpt lat="46.8807410" lon="3.0899490">
        <ele>170.6</ele>
        <time>2020-07-04T07:57:00Z</time>
      </trkpt>
      <trkpt lat="46.8806310" lon="3.0892650">
        <ele>170.0</ele>
        <time>2020-07-04T07:57:08Z</time>
      </trkpt>
      <trkpt lat="46.8806150" lon="3.0891830">
        <ele>170.0</ele>
        <time>2020-07-04T07:57:09Z</time>
      </trkpt>
      <trkpt lat="46.8804810" lon="3.0885220">
        <ele>170.0</ele>
        <time>2020-07-04T07:57:18Z</time>
      </trkpt>
      <trkpt lat="46.8803120" lon="3.0877940">
        <ele>170.0</ele>
        <time>2020-07-04T07:57:28Z</time>
      </trkpt>
      <trkpt lat="46.8802390" lon="3.0877020">
        <ele>169.8</ele>
        <time>2020-07-04T07:57:30Z</time>
      </trkpt>
      <trkpt lat="46.8801900" lon="3.0876810">
        <ele>169.8</ele>
        <time>2020-07-04T07:57:31Z</time>
      </trkpt>
      <trkpt lat="46.8801390" lon="3.0876740">
        <ele>170.0</ele>
        <time>2020-07-04T07:57:32Z</time>
      </trkpt>
      <trkpt lat="46.8799850" lon="3.0877170">
        <ele>169.8</ele>
        <time>2020-07-04T07:57:35Z</time>
      </trkpt>
      <trkpt lat="46.8794150" lon="3.0879500">
        <ele>169.8</ele>
        <time>2020-07-04T07:57:45Z</time>
      </trkpt>
      <trkpt lat="46.8788810" lon="3.0880700">
        <ele>169.8</ele>
        <time>2020-07-04T07:57:54Z</time>
      </trkpt>
      <trkpt lat="46.8787130" lon="3.0880920">
        <ele>169.6</ele>
        <time>2020-07-04T07:57:57Z</time>
      </trkpt>
      <trkpt lat="46.8786580" lon="3.0880930">
        <ele>169.4</ele>
        <time>2020-07-04T07:57:58Z</time>
      </trkpt>
      <trkpt lat="46.8784920" lon="3.0880860">
        <ele>169.4</ele>
        <time>2020-07-04T07:58:01Z</time>
      </trkpt>
      <trkpt lat="46.8782070" lon="3.0880760">
        <ele>169.6</ele>
        <time>2020-07-04T07:58:06Z</time>
      </trkpt>
      <trkpt lat="46.8779740" lon="3.0880430">
        <ele>169.4</ele>
        <time>2020-07-04T07:58:10Z</time>
      </trkpt>
      <trkpt lat="46.8776340" lon="3.0879750">
        <ele>169.4</ele>
        <time>2020-07-04T07:58:16Z</time>
      </trkpt>
      <trkpt lat="46.8772010" lon="3.0879110">
        <ele>169.4</ele>
        <time>2020-07-04T07:58:24Z</time>
      </trkpt>
      <trkpt lat="46.8769910" lon="3.0878910">
        <ele>169.4</ele>
        <time>2020-07-04T07:58:28Z</time>
      </trkpt>
      <trkpt lat="46.8764310" lon="3.0877980">
        <ele>170.0</ele>
        <time>2020-07-04T07:58:39Z</time>
      </trkpt>
      <trkpt lat="46.8763820" lon="3.0877840">
        <ele>170.0</ele>
        <time>2020-07-04T07:58:40Z</time>
      </trkpt>
      <trkpt lat="46.8762240" lon="3.0877440">
        <ele>170.2</ele>
        <time>2020-07-04T07:58:43Z</time>
      </trkpt>
      <trkpt lat="46.8758990" lon="3.0876650">
        <ele>170.8</ele>
        <time>2020-07-04T07:58:49Z</time>
      </trkpt>
      <trkpt lat="46.8757910" lon="3.0876310">
        <ele>171.0</ele>
        <time>2020-07-04T07:58:51Z</time>
      </trkpt>
      <trkpt lat="46.8752770" lon="3.0874460">
        <ele>171.0</ele>
        <time>2020-07-04T07:59:01Z</time>
      </trkpt>
      <trkpt lat="46.8752250" lon="3.0874270">
        <ele>171.0</ele>
        <time>2020-07-04T07:59:02Z</time>
      </trkpt>
      <trkpt lat="46.8749600" lon="3.0873360">
        <ele>171.2</ele>
        <time>2020-07-04T07:59:07Z</time>
      </trkpt>
      <trkpt lat="46.8745410" lon="3.0871960">
        <ele>171.0</ele>
        <time>2020-07-04T07:59:15Z</time>
      </trkpt>
      <trkpt lat="46.8741370" lon="3.0870320">
        <ele>170.6</ele>
        <time>2020-07-04T07:59:23Z</time>
      </trkpt>
      <trkpt lat="46.8740310" lon="3.0869890">
        <ele>170.4</ele>
        <time>2020-07-04T07:59:25Z</time>
      </trkpt>
      <trkpt lat="46.8736230" lon="3.0868710">
        <ele>170.4</ele>
        <time>2020-07-04T07:59:32Z</time>
      </trkpt>
      <trkpt lat="46.8735050" lon="3.0868330">
        <ele>170.4</ele>
        <time>2020-07-04T07:59:34Z</time>
      </trkpt>
      <trkpt lat="46.8729760" lon="3.0866930">
        <ele>169.8</ele>
        <time>2020-07-04T07:59:43Z</time>
      </trkpt>
      <trkpt lat="46.8727100" lon="3.0866020">
        <ele>169.8</ele>
        <time>2020-07-04T07:59:48Z</time>
      </trkpt>
      <trkpt lat="46.8726050" lon="3.0865600">
        <ele>169.6</ele>
        <time>2020-07-04T07:59:50Z</time>
      </trkpt>
      <trkpt lat="46.8722620" lon="3.0864710">
        <ele>169.8</ele>
        <time>2020-07-04T07:59:57Z</time>
      </trkpt>
      <trkpt lat="46.8721140" lon="3.0864370">
        <ele>170.4</ele>
        <time>2020-07-04T08:00:00Z</time>
      </trkpt>
      <trkpt lat="46.8716620" lon="3.0862950">
        <ele>171.2</ele>
        <time>2020-07-04T08:00:08Z</time>
      </trkpt>
      <trkpt lat="46.8716020" lon="3.0862730">
        <ele>171.4</ele>
        <time>2020-07-04T08:00:09Z</time>
      </trkpt>
      <trkpt lat="46.8711430" lon="3.0861620">
        <ele>171.2</ele>
        <time>2020-07-04T08:00:17Z</time>
      </trkpt>
      <trkpt lat="46.8707110" lon="3.0861880">
        <ele>170.8</ele>
        <time>2020-07-04T08:00:25Z</time>
      </trkpt>
      <trkpt lat="46.8702720" lon="3.0862040">
        <ele>170.8</ele>
        <time>2020-07-04T08:00:33Z</time>
      </trkpt>
      <trkpt lat="46.8701090" lon="3.0862090">
        <ele>170.6</ele>
        <time>2020-07-04T08:00:36Z</time>
      </trkpt>
      <trkpt lat="46.8696700" lon="3.0862770">
        <ele>170.8</ele>
        <time>2020-07-04T08:00:44Z</time>
      </trkpt>
      <trkpt lat="46.8695600" lon="3.0863000">
        <ele>170.6</ele>
        <time>2020-07-04T08:00:46Z</time>
      </trkpt>
      <trkpt lat="46.8692340" lon="3.0863540">
        <ele>170.8</ele>
        <time>2020-07-04T08:00:52Z</time>
      </trkpt>
      <trkpt lat="46.8690420" lon="3.0863860">
        <ele>170.4</ele>
        <time>2020-07-04T08:00:56Z</time>
      </trkpt>
      <trkpt lat="46.8689940" lon="3.0863960">
        <ele>170.4</ele>
        <time>2020-07-04T08:00:57Z</time>
      </trkpt>
      <trkpt lat="46.8684690" lon="3.0865270">
        <ele>170.2</ele>
        <time>2020-07-04T08:01:07Z</time>
      </trkpt>
      <trkpt lat="46.8678880" lon="3.0866580">
        <ele>170.6</ele>
        <time>2020-07-04T08:01:18Z</time>
      </trkpt>
      <trkpt lat="46.8677770" lon="3.0866880">
        <ele>170.4</ele>
        <time>2020-07-04T08:01:20Z</time>
      </trkpt>
      <trkpt lat="46.8672390" lon="3.0868130">
        <ele>170.8</ele>
        <time>2020-07-04T08:01:30Z</time>
      </trkpt>
      <trkpt lat="46.8670780" lon="3.0868550">
        <ele>170.8</ele>
        <time>2020-07-04T08:01:33Z</time>
      </trkpt>
      <trkpt lat="46.8665110" lon="3.0869960">
        <ele>170.2</ele>
        <time>2020-07-04T08:01:43Z</time>
      </trkpt>
      <trkpt lat="46.8664530" lon="3.0870080">
        <ele>170.2</ele>
        <time>2020-07-04T08:01:44Z</time>
      </trkpt>
      <trkpt lat="46.8659440" lon="3.0870870">
        <ele>170.2</ele>
        <time>2020-07-04T08:01:53Z</time>
      </trkpt>
      <trkpt lat="46.8653790" lon="3.0871970">
        <ele>170.2</ele>
        <time>2020-07-04T08:02:03Z</time>
      </trkpt>
      <trkpt lat="46.8653250" lon="3.0871990">
        <ele>170.0</ele>
        <time>2020-07-04T08:02:04Z</time>
      </trkpt>
      <trkpt lat="46.8647720" lon="3.0871400">
        <ele>170.4</ele>
        <time>2020-07-04T08:02:14Z</time>
      </trkpt>
      <trkpt lat="46.8644330" lon="3.0870490">
        <ele>170.4</ele>
        <time>2020-07-04T08:02:20Z</time>
      </trkpt>
      <trkpt lat="46.8640930" lon="3.0869510">
        <ele>170.2</ele>
        <time>2020-07-04T08:02:26Z</time>
      </trkpt>
      <trkpt lat="46.8640370" lon="3.0869360">
        <ele>170.2</ele>
        <time>2020-07-04T08:02:27Z</time>
      </trkpt>
      <trkpt lat="46.8638680" lon="3.0868880">
        <ele>170.2</ele>
        <time>2020-07-04T08:02:30Z</time>
      </trkpt>
      <trkpt lat="46.8636510" lon="3.0868370">
        <ele>170.2</ele>
        <time>2020-07-04T08:02:34Z</time>
      </trkpt>
      <trkpt lat="46.8634330" lon="3.0868150">
        <ele>170.0</ele>
        <time>2020-07-04T08:02:38Z</time>
      </trkpt>
      <trkpt lat="46.8628830" lon="3.0868420">
        <ele>170.4</ele>
        <time>2020-07-04T08:02:48Z</time>
      </trkpt>
      <trkpt lat="46.8627750" lon="3.0868500">
        <ele>170.4</ele>
        <time>2020-07-04T08:02:50Z</time>
      </trkpt>
      <trkpt lat="46.8626660" lon="3.0868470">
        <ele>170.4</ele>
        <time>2020-07-04T08:02:52Z</time>
      </trkpt>
      <trkpt lat="46.8622700" lon="3.0868270">
        <ele>170.6</ele>
        <time>2020-07-04T08:02:59Z</time>
      </trkpt>
      <trkpt lat="46.8622140" lon="3.0868200">
        <ele>170.4</ele>
        <time>2020-07-04T08:03:00Z</time>
      </trkpt>
      <trkpt lat="46.8616950" lon="3.0867330">
        <ele>170.4</ele>
        <time>2020-07-04T08:03:09Z</time>
      </trkpt>
      <trkpt lat="46.8615340" lon="3.0867050">
        <ele>170.4</ele>
        <time>2020-07-04T08:03:12Z</time>
      </trkpt>
      <trkpt lat="46.8611060" lon="3.0866270">
        <ele>170.4</ele>
        <time>2020-07-04T08:03:20Z</time>
      </trkpt>
      <trkpt lat="46.8605820" lon="3.0865420">
        <ele>171.0</ele>
        <time>2020-07-04T08:03:30Z</time>
      </trkpt>
      <trkpt lat="46.8601520" lon="3.0864810">
        <ele>171.2</ele>
        <time>2020-07-04T08:03:39Z</time>
      </trkpt>
      <trkpt lat="46.8597690" lon="3.0863990">
        <ele>171.4</ele>
        <time>2020-07-04T08:03:47Z</time>
      </trkpt>
      <trkpt lat="46.8592100" lon="3.0862730">
        <ele>171.4</ele>
        <time>2020-07-04T08:03:58Z</time>
      </trkpt>
      <trkpt lat="46.8591100" lon="3.0862560">
        <ele>171.6</ele>
        <time>2020-07-04T08:04:00Z</time>
      </trkpt>
      <trkpt lat="46.8586230" lon="3.0861490">
        <ele>171.8</ele>
        <time>2020-07-04T08:04:09Z</time>
      </trkpt>
      <trkpt lat="46.8581530" lon="3.0860460">
        <ele>171.6</ele>
        <time>2020-07-04T08:04:18Z</time>
      </trkpt>
      <trkpt lat="46.8580210" lon="3.0860110">
        <ele>171.8</ele>
        <time>2020-07-04T08:04:23Z</time>
      </trkpt>
      <trkpt lat="46.8580070" lon="3.0860000">
        <ele>172.4</ele>
        <time>2020-07-04T08:04:29Z</time>
      </trkpt>
      <trkpt lat="46.8580180" lon="3.0860010">
        <ele>172.8</ele>
        <time>2020-07-04T08:04:43Z</time>
      </trkpt>
      <trkpt lat="46.8580250" lon="3.0860000">
        <ele>172.6</ele>
        <time>2020-07-04T08:05:07Z</time>
      </trkpt>
      <trkpt lat="46.8580320" lon="3.0859930">
        <ele>172.8</ele>
        <time>2020-07-04T08:05:39Z</time>
      </trkpt>
      <trkpt lat="46.8580320" lon="3.0859820">
        <ele>172.8</ele>
        <time>2020-07-04T08:05:59Z</time>
      </trkpt>
      <trkpt lat="46.8580320" lon="3.0859820">
        <ele>172.8</ele>
        <time>2020-07-04T08:06:02Z</time>
      </trkpt>
      <trkpt lat="46.8580310" lon="3.0859550">
        <ele>172.6</ele>
        <time>2020-07-04T08:06:19Z</time>
      </trkpt>
      <trkpt lat="46.8580340" lon="3.0859490">
        <ele>172.6</ele>
        <time>2020-07-04T08:06:42Z</time>
      </trkpt>
      <trkpt lat="46.8580360" lon="3.0859430">
        <ele>172.6</ele>
        <time>2020-07-04T08:06:55Z</time>
      </trkpt>
      <trkpt lat="46.8580360" lon="3.0859340">
        <ele>173.2</ele>
        <time>2020-07-04T08:07:15Z</time>
      </trkpt>
      <trkpt lat="46.8580400" lon="3.0859340">
        <ele>173.2</ele>
        <time>2020-07-04T08:07:25Z</time>
      </trkpt>
      <trkpt lat="46.8580440" lon="3.0859280">
        <ele>173.4</ele>
        <time>2020-07-04T08:07:50Z</time>
      </trkpt>
      <trkpt lat="46.8580440" lon="3.0859290">
        <ele>173.4</ele>
        <time>2020-07-04T08:08:24Z</time>
      </trkpt>
      <trkpt lat="46.8580040" lon="3.0859650">
        <ele>173.6</ele>
        <time>2020-07-04T08:08:31Z</time>
      </trkpt>
      <trkpt lat="46.8579540" lon="3.0859900">
        <ele>173.6</ele>
        <time>2020-07-04T08:08:34Z</time>
      </trkpt>
      <trkpt lat="46.8578180" lon="3.0860120">
        <ele>173.4</ele>
        <time>2020-07-04T08:08:39Z</time>
      </trkpt>
      <trkpt lat="46.8576370" lon="3.0859960">
        <ele>173.2</ele>
        <time>2020-07-04T08:08:44Z</time>
      </trkpt>
      <trkpt lat="46.8575970" lon="3.0859910">
        <ele>173.2</ele>
        <time>2020-07-04T08:08:45Z</time>
      </trkpt>
      <trkpt lat="46.8571910" lon="3.0859820">
        <ele>172.6</ele>
        <time>2020-07-04T08:08:54Z</time>
      </trkpt>
      <trkpt lat="46.8570960" lon="3.0859690">
        <ele>172.6</ele>
        <time>2020-07-04T08:08:56Z</time>
      </trkpt>
      <trkpt lat="46.8569490" lon="3.0859440">
        <ele>172.4</ele>
        <time>2020-07-04T08:08:59Z</time>
      </trkpt>
      <trkpt lat="46.8567050" lon="3.0858920">
        <ele>172.4</ele>
        <time>2020-07-04T08:09:04Z</time>
      </trkpt>
      <trkpt lat="46.8561600" lon="3.0858020">
        <ele>172.6</ele>
        <time>2020-07-04T08:09:14Z</time>
      </trkpt>
      <trkpt lat="46.8557790" lon="3.0858430">
        <ele>172.4</ele>
        <time>2020-07-04T08:09:21Z</time>
      </trkpt>
      <trkpt lat="46.8552170" lon="3.0858350">
        <ele>172.2</ele>
        <time>2020-07-04T08:09:32Z</time>
      </trkpt>
      <trkpt lat="46.8551080" lon="3.0858290">
        <ele>172.2</ele>
        <time>2020-07-04T08:09:34Z</time>
      </trkpt>
      <trkpt lat="46.8549480" lon="3.0858300">
        <ele>172.0</ele>
        <time>2020-07-04T08:09:37Z</time>
      </trkpt>
      <trkpt lat="46.8546700" lon="3.0858540">
        <ele>172.0</ele>
        <time>2020-07-04T08:09:42Z</time>
      </trkpt>
      <trkpt lat="46.8541140" lon="3.0859270">
        <ele>172.2</ele>
        <time>2020-07-04T08:09:52Z</time>
      </trkpt>
      <trkpt lat="46.8540590" lon="3.0859250">
        <ele>172.2</ele>
        <time>2020-07-04T08:09:53Z</time>
      </trkpt>
      <trkpt lat="46.8535600" lon="3.0858380">
        <ele>172.2</ele>
        <time>2020-07-04T08:10:02Z</time>
      </trkpt>
      <trkpt lat="46.8530430" lon="3.0856100">
        <ele>172.2</ele>
        <time>2020-07-04T08:10:12Z</time>
      </trkpt>
      <trkpt lat="46.8529010" lon="3.0855400">
        <ele>172.2</ele>
        <time>2020-07-04T08:10:15Z</time>
      </trkpt>
      <trkpt lat="46.8525860" lon="3.0853840">
        <ele>172.8</ele>
        <time>2020-07-04T08:10:22Z</time>
      </trkpt>
      <trkpt lat="46.8521760" lon="3.0851090">
        <ele>173.2</ele>
        <time>2020-07-04T08:10:31Z</time>
      </trkpt>
      <trkpt lat="46.8518200" lon="3.0848260">
        <ele>173.0</ele>
        <time>2020-07-04T08:10:38Z</time>
      </trkpt>
      <trkpt lat="46.8517060" lon="3.0847470">
        <ele>172.8</ele>
        <time>2020-07-04T08:10:40Z</time>
      </trkpt>
      <trkpt lat="46.8513610" lon="3.0845790">
        <ele>172.8</ele>
        <time>2020-07-04T08:10:46Z</time>
      </trkpt>
      <trkpt lat="46.8507800" lon="3.0844410">
        <ele>172.0</ele>
        <time>2020-07-04T08:10:56Z</time>
      </trkpt>
      <trkpt lat="46.8507260" lon="3.0844230">
        <ele>172.0</ele>
        <time>2020-07-04T08:10:57Z</time>
      </trkpt>
      <trkpt lat="46.8502300" lon="3.0842830">
        <ele>171.8</ele>
        <time>2020-07-04T08:11:06Z</time>
      </trkpt>
      <trkpt lat="46.8497970" lon="3.0842570">
        <ele>172.2</ele>
        <time>2020-07-04T08:11:13Z</time>
      </trkpt>
      <trkpt lat="46.8494130" lon="3.0842470">
        <ele>172.4</ele>
        <time>2020-07-04T08:11:20Z</time>
      </trkpt>
      <trkpt lat="46.8493080" lon="3.0842340">
        <ele>172.6</ele>
        <time>2020-07-04T08:11:22Z</time>
      </trkpt>
      <trkpt lat="46.8490660" lon="3.0842020">
        <ele>172.8</ele>
        <time>2020-07-04T08:11:27Z</time>
      </trkpt>
      <trkpt lat="46.8488270" lon="3.0841790">
        <ele>172.8</ele>
        <time>2020-07-04T08:11:32Z</time>
      </trkpt>
      <trkpt lat="46.8487270" lon="3.0841680">
        <ele>172.8</ele>
        <time>2020-07-04T08:11:34Z</time>
      </trkpt>
      <trkpt lat="46.8482490" lon="3.0841050">
        <ele>173.2</ele>
        <time>2020-07-04T08:11:43Z</time>
      </trkpt>
      <trkpt lat="46.8476870" lon="3.0839830">
        <ele>173.4</ele>
        <time>2020-07-04T08:11:53Z</time>
      </trkpt>
      <trkpt lat="46.8472200" lon="3.0837650">
        <ele>172.8</ele>
        <time>2020-07-04T08:12:02Z</time>
      </trkpt>
      <trkpt lat="46.8466700" lon="3.0834580">
        <ele>172.4</ele>
        <time>2020-07-04T08:12:13Z</time>
      </trkpt>
      <trkpt lat="46.8462680" lon="3.0832630">
        <ele>172.4</ele>
        <time>2020-07-04T08:12:21Z</time>
      </trkpt>
      <trkpt lat="46.8458870" lon="3.0830210">
        <ele>172.8</ele>
        <time>2020-07-04T08:12:29Z</time>
      </trkpt>
      <trkpt lat="46.8458090" lon="3.0829520">
        <ele>173.0</ele>
        <time>2020-07-04T08:12:31Z</time>
      </trkpt>
      <trkpt lat="46.8455440" lon="3.0827070">
        <ele>173.2</ele>
        <time>2020-07-04T08:12:38Z</time>
      </trkpt>
      <trkpt lat="46.8451860" lon="3.0824560">
        <ele>174.0</ele>
        <time>2020-07-04T08:12:46Z</time>
      </trkpt>
      <trkpt lat="46.8449800" lon="3.0823430">
        <ele>174.0</ele>
        <time>2020-07-04T08:12:50Z</time>
      </trkpt>
      <trkpt lat="46.8446910" lon="3.0821880">
        <ele>173.8</ele>
        <time>2020-07-04T08:12:55Z</time>
      </trkpt>
      <trkpt lat="46.8441590" lon="3.0818860">
        <ele>173.0</ele>
        <time>2020-07-04T08:13:04Z</time>
      </trkpt>
      <trkpt lat="46.8440500" lon="3.0818190">
        <ele>173.0</ele>
        <time>2020-07-04T08:13:06Z</time>
      </trkpt>
      <trkpt lat="46.8439980" lon="3.0817850">
        <ele>173.0</ele>
        <time>2020-07-04T08:13:07Z</time>
      </trkpt>
      <trkpt lat="46.8435080" lon="3.0814300">
        <ele>173.6</ele>
        <time>2020-07-04T08:13:17Z</time>
      </trkpt>
      <trkpt lat="46.8434580" lon="3.0813910">
        <ele>173.6</ele>
        <time>2020-07-04T08:13:18Z</time>
      </trkpt>
      <trkpt lat="46.8434090" lon="3.0813560">
        <ele>173.8</ele>
        <time>2020-07-04T08:13:19Z</time>
      </trkpt>
      <trkpt lat="46.8432600" lon="3.0812430">
        <ele>173.8</ele>
        <time>2020-07-04T08:13:22Z</time>
      </trkpt>
      <trkpt lat="46.8429210" lon="3.0810110">
        <ele>174.0</ele>
        <time>2020-07-04T08:13:29Z</time>
      </trkpt>
      <trkpt lat="46.8424480" lon="3.0807910">
        <ele>174.0</ele>
        <time>2020-07-04T08:13:38Z</time>
      </trkpt>
      <trkpt lat="46.8418950" lon="3.0805680">
        <ele>174.8</ele>
        <time>2020-07-04T08:13:48Z</time>
      </trkpt>
      <trkpt lat="46.8418420" lon="3.0805410">
        <ele>174.8</ele>
        <time>2020-07-04T08:13:49Z</time>
      </trkpt>
      <trkpt lat="46.8413080" lon="3.0803480">
        <ele>175.0</ele>
        <time>2020-07-04T08:13:58Z</time>
      </trkpt>
      <trkpt lat="46.8411250" lon="3.0803300">
        <ele>175.2</ele>
        <time>2020-07-04T08:14:01Z</time>
      </trkpt>
      <trkpt lat="46.8408310" lon="3.0803150">
        <ele>175.2</ele>
        <time>2020-07-04T08:14:06Z</time>
      </trkpt>
      <trkpt lat="46.8405960" lon="3.0803070">
        <ele>175.0</ele>
        <time>2020-07-04T08:14:10Z</time>
      </trkpt>
      <trkpt lat="46.8403660" lon="3.0803250">
        <ele>174.8</ele>
        <time>2020-07-04T08:14:14Z</time>
      </trkpt>
      <trkpt lat="46.8401930" lon="3.0803430">
        <ele>174.6</ele>
        <time>2020-07-04T08:14:17Z</time>
      </trkpt>
      <trkpt lat="46.8398450" lon="3.0803820">
        <ele>174.2</ele>
        <time>2020-07-04T08:14:23Z</time>
      </trkpt>
      <trkpt lat="46.8395540" lon="3.0804110">
        <ele>173.8</ele>
        <time>2020-07-04T08:14:28Z</time>
      </trkpt>
      <trkpt lat="46.8393290" lon="3.0804340">
        <ele>173.8</ele>
        <time>2020-07-04T08:14:32Z</time>
      </trkpt>
      <trkpt lat="46.8389240" lon="3.0804730">
        <ele>174.0</ele>
        <time>2020-07-04T08:14:39Z</time>
      </trkpt>
      <trkpt lat="46.8386350" lon="3.0805130">
        <ele>174.2</ele>
        <time>2020-07-04T08:14:44Z</time>
      </trkpt>
      <trkpt lat="46.8384660" lon="3.0805400">
        <ele>174.4</ele>
        <time>2020-07-04T08:14:47Z</time>
      </trkpt>
      <trkpt lat="46.8380150" lon="3.0806190">
        <ele>174.4</ele>
        <time>2020-07-04T08:14:55Z</time>
      </trkpt>
      <trkpt lat="46.8374690" lon="3.0807510">
        <ele>174.8</ele>
        <time>2020-07-04T08:15:04Z</time>
      </trkpt>
      <trkpt lat="46.8374090" lon="3.0807660">
        <ele>174.8</ele>
        <time>2020-07-04T08:15:05Z</time>
      </trkpt>
      <trkpt lat="46.8368660" lon="3.0808890">
        <ele>174.8</ele>
        <time>2020-07-04T08:15:14Z</time>
      </trkpt>
      <trkpt lat="46.8366890" lon="3.0809150">
        <ele>174.6</ele>
        <time>2020-07-04T08:15:17Z</time>
      </trkpt>
      <trkpt lat="46.8364540" lon="3.0809210">
        <ele>174.6</ele>
        <time>2020-07-04T08:15:21Z</time>
      </trkpt>
      <trkpt lat="46.8362240" lon="3.0808890">
        <ele>174.4</ele>
        <time>2020-07-04T08:15:25Z</time>
      </trkpt>
      <trkpt lat="46.8361650" lon="3.0808730">
        <ele>174.2</ele>
        <time>2020-07-04T08:15:26Z</time>
      </trkpt>
      <trkpt lat="46.8356960" lon="3.0806820">
        <ele>174.4</ele>
        <time>2020-07-04T08:15:34Z</time>
      </trkpt>
      <trkpt lat="46.8351240" lon="3.0805000">
        <ele>174.6</ele>
        <time>2020-07-04T08:15:44Z</time>
      </trkpt>
      <trkpt lat="46.8349500" lon="3.0804560">
        <ele>174.4</ele>
        <time>2020-07-04T08:15:47Z</time>
      </trkpt>
      <trkpt lat="46.8343660" lon="3.0802770">
        <ele>174.6</ele>
        <time>2020-07-04T08:15:57Z</time>
      </trkpt>
      <trkpt lat="46.8341430" lon="3.0802010">
        <ele>174.6</ele>
        <time>2020-07-04T08:16:01Z</time>
      </trkpt>
      <trkpt lat="46.8336070" lon="3.0799810">
        <ele>174.6</ele>
        <time>2020-07-04T08:16:11Z</time>
      </trkpt>
      <trkpt lat="46.8333880" lon="3.0798990">
        <ele>174.6</ele>
        <time>2020-07-04T08:16:15Z</time>
      </trkpt>
      <trkpt lat="46.8328110" lon="3.0797460">
        <ele>174.2</ele>
        <time>2020-07-04T08:16:25Z</time>
      </trkpt>
      <trkpt lat="46.8324750" lon="3.0796420">
        <ele>174.8</ele>
        <time>2020-07-04T08:16:31Z</time>
      </trkpt>
      <trkpt lat="46.8319070" lon="3.0794840">
        <ele>175.2</ele>
        <time>2020-07-04T08:16:41Z</time>
      </trkpt>
      <trkpt lat="46.8316670" lon="3.0794130">
        <ele>175.6</ele>
        <time>2020-07-04T08:16:45Z</time>
      </trkpt>
      <trkpt lat="46.8311440" lon="3.0792160">
        <ele>175.4</ele>
        <time>2020-07-04T08:16:54Z</time>
      </trkpt>
      <trkpt lat="46.8310840" lon="3.0791960">
        <ele>175.6</ele>
        <time>2020-07-04T08:16:55Z</time>
      </trkpt>
      <trkpt lat="46.8305400" lon="3.0789890">
        <ele>175.4</ele>
        <time>2020-07-04T08:17:04Z</time>
      </trkpt>
      <trkpt lat="46.8304250" lon="3.0789340">
        <ele>175.4</ele>
        <time>2020-07-04T08:17:06Z</time>
      </trkpt>
      <trkpt lat="46.8299380" lon="3.0786420">
        <ele>175.6</ele>
        <time>2020-07-04T08:17:15Z</time>
      </trkpt>
      <trkpt lat="46.8294870" lon="3.0782640">
        <ele>175.8</ele>
        <time>2020-07-04T08:17:24Z</time>
      </trkpt>
      <trkpt lat="46.8289780" lon="3.0778140">
        <ele>175.4</ele>
        <time>2020-07-04T08:17:34Z</time>
      </trkpt>
      <trkpt lat="46.8289240" lon="3.0777750">
        <ele>175.4</ele>
        <time>2020-07-04T08:17:35Z</time>
      </trkpt>
      <trkpt lat="46.8283780" lon="3.0774280">
        <ele>175.2</ele>
        <time>2020-07-04T08:17:45Z</time>
      </trkpt>
      <trkpt lat="46.8282220" lon="3.0773210">
        <ele>175.2</ele>
        <time>2020-07-04T08:17:48Z</time>
      </trkpt>
      <trkpt lat="46.8276870" lon="3.0769660">
        <ele>175.6</ele>
        <time>2020-07-04T08:17:58Z</time>
      </trkpt>
      <trkpt lat="46.8275780" lon="3.0768990">
        <ele>175.6</ele>
        <time>2020-07-04T08:18:00Z</time>
      </trkpt>
      <trkpt lat="46.8270660" lon="3.0765970">
        <ele>175.6</ele>
        <time>2020-07-04T08:18:09Z</time>
      </trkpt>
      <trkpt lat="46.8267850" lon="3.0764180">
        <ele>175.6</ele>
        <time>2020-07-04T08:18:14Z</time>
      </trkpt>
      <trkpt lat="46.8263520" lon="3.0761910">
        <ele>175.8</ele>
        <time>2020-07-04T08:18:22Z</time>
      </trkpt>
      <trkpt lat="46.8262960" lon="3.0761660">
        <ele>175.8</ele>
        <time>2020-07-04T08:18:23Z</time>
      </trkpt>
      <trkpt lat="46.8262400" lon="3.0761380">
        <ele>175.6</ele>
        <time>2020-07-04T08:18:24Z</time>
      </trkpt>
      <trkpt lat="46.8257150" lon="3.0759190">
        <ele>175.6</ele>
        <time>2020-07-04T08:18:33Z</time>
      </trkpt>
      <trkpt lat="46.8256570" lon="3.0758900">
        <ele>175.8</ele>
        <time>2020-07-04T08:18:34Z</time>
      </trkpt>
      <trkpt lat="46.8251210" lon="3.0756310">
        <ele>175.6</ele>
        <time>2020-07-04T08:18:43Z</time>
      </trkpt>
      <trkpt lat="46.8249480" lon="3.0755540">
        <ele>175.8</ele>
        <time>2020-07-04T08:18:46Z</time>
      </trkpt>
      <trkpt lat="46.8244320" lon="3.0753100">
        <ele>175.8</ele>
        <time>2020-07-04T08:18:55Z</time>
      </trkpt>
      <trkpt lat="46.8241390" lon="3.0751940">
        <ele>175.8</ele>
        <time>2020-07-04T08:19:00Z</time>
      </trkpt>
      <trkpt lat="46.8236190" lon="3.0749830">
        <ele>176.4</ele>
        <time>2020-07-04T08:19:09Z</time>
      </trkpt>
      <trkpt lat="46.8232780" lon="3.0748380">
        <ele>176.4</ele>
        <time>2020-07-04T08:19:15Z</time>
      </trkpt>
      <trkpt lat="46.8227580" lon="3.0746080">
        <ele>176.2</ele>
        <time>2020-07-04T08:19:24Z</time>
      </trkpt>
      <trkpt lat="46.8225300" lon="3.0744930">
        <ele>176.4</ele>
        <time>2020-07-04T08:19:28Z</time>
      </trkpt>
      <trkpt lat="46.8219830" lon="3.0741780">
        <ele>176.6</ele>
        <time>2020-07-04T08:19:38Z</time>
      </trkpt>
      <trkpt lat="46.8217580" lon="3.0740320">
        <ele>176.8</ele>
        <time>2020-07-04T08:19:42Z</time>
      </trkpt>
      <trkpt lat="46.8212560" lon="3.0737280">
        <ele>177.0</ele>
        <time>2020-07-04T08:19:51Z</time>
      </trkpt>
      <trkpt lat="46.8212000" lon="3.0737010">
        <ele>176.8</ele>
        <time>2020-07-04T08:19:52Z</time>
      </trkpt>
      <trkpt lat="46.8206930" lon="3.0734500">
        <ele>176.4</ele>
        <time>2020-07-04T08:20:01Z</time>
      </trkpt>
      <trkpt lat="46.8201780" lon="3.0732160">
        <ele>176.0</ele>
        <time>2020-07-04T08:20:10Z</time>
      </trkpt>
      <trkpt lat="46.8200050" lon="3.0731330">
        <ele>175.8</ele>
        <time>2020-07-04T08:20:13Z</time>
      </trkpt>
      <trkpt lat="46.8195520" lon="3.0729280">
        <ele>175.8</ele>
        <time>2020-07-04T08:20:21Z</time>
      </trkpt>
      <trkpt lat="46.8190920" lon="3.0727830">
        <ele>176.0</ele>
        <time>2020-07-04T08:20:29Z</time>
      </trkpt>
      <trkpt lat="46.8186850" lon="3.0728590">
        <ele>176.2</ele>
        <time>2020-07-04T08:20:36Z</time>
      </trkpt>
      <trkpt lat="46.8181630" lon="3.0729780">
        <ele>176.4</ele>
        <time>2020-07-04T08:20:45Z</time>
      </trkpt>
      <trkpt lat="46.8179870" lon="3.0730250">
        <ele>176.2</ele>
        <time>2020-07-04T08:20:48Z</time>
      </trkpt>
      <trkpt lat="46.8176400" lon="3.0730980">
        <ele>176.2</ele>
        <time>2020-07-04T08:20:54Z</time>
      </trkpt>
      <trkpt lat="46.8172320" lon="3.0732020">
        <ele>176.0</ele>
        <time>2020-07-04T08:21:01Z</time>
      </trkpt>
      <trkpt lat="46.8166560" lon="3.0733720">
        <ele>176.8</ele>
        <time>2020-07-04T08:21:11Z</time>
      </trkpt>
      <trkpt lat="46.8164140" lon="3.0734350">
        <ele>176.8</ele>
        <time>2020-07-04T08:21:15Z</time>
      </trkpt>
      <trkpt lat="46.8158930" lon="3.0736120">
        <ele>176.8</ele>
        <time>2020-07-04T08:21:24Z</time>
      </trkpt>
      <trkpt lat="46.8153930" lon="3.0737810">
        <ele>176.8</ele>
        <time>2020-07-04T08:21:33Z</time>
      </trkpt>
      <trkpt lat="46.8150480" lon="3.0737560">
        <ele>176.8</ele>
        <time>2020-07-04T08:21:39Z</time>
      </trkpt>
      <trkpt lat="46.8148840" lon="3.0736910">
        <ele>177.0</ele>
        <time>2020-07-04T08:21:42Z</time>
      </trkpt>
      <trkpt lat="46.8145990" lon="3.0735500">
        <ele>176.8</ele>
        <time>2020-07-04T08:21:47Z</time>
      </trkpt>
      <trkpt lat="46.8141770" lon="3.0733000">
        <ele>177.6</ele>
        <time>2020-07-04T08:21:55Z</time>
      </trkpt>
      <trkpt lat="46.8136420" lon="3.0731380">
        <ele>178.0</ele>
        <time>2020-07-04T08:22:04Z</time>
      </trkpt>
      <trkpt lat="46.8135820" lon="3.0731260">
        <ele>178.0</ele>
        <time>2020-07-04T08:22:05Z</time>
      </trkpt>
      <trkpt lat="46.8130170" lon="3.0728970">
        <ele>178.2</ele>
        <time>2020-07-04T08:22:15Z</time>
      </trkpt>
      <trkpt lat="46.8128400" lon="3.0728320">
        <ele>178.2</ele>
        <time>2020-07-04T08:22:18Z</time>
      </trkpt>
      <trkpt lat="46.8124250" lon="3.0726550">
        <ele>178.4</ele>
        <time>2020-07-04T08:22:25Z</time>
      </trkpt>
      <trkpt lat="46.8120750" lon="3.0724850">
        <ele>178.4</ele>
        <time>2020-07-04T08:22:31Z</time>
      </trkpt>
      <trkpt lat="46.8118490" lon="3.0723670">
        <ele>178.4</ele>
        <time>2020-07-04T08:22:35Z</time>
      </trkpt>
      <trkpt lat="46.8114460" lon="3.0721550">
        <ele>178.2</ele>
        <time>2020-07-04T08:22:42Z</time>
      </trkpt>
      <trkpt lat="46.8113880" lon="3.0721250">
        <ele>178.0</ele>
        <time>2020-07-04T08:22:43Z</time>
      </trkpt>
      <trkpt lat="46.8111630" lon="3.0720080">
        <ele>178.2</ele>
        <time>2020-07-04T08:22:47Z</time>
      </trkpt>
      <trkpt lat="46.8108640" lon="3.0718550">
        <ele>178.0</ele>
        <time>2020-07-04T08:22:52Z</time>
      </trkpt>
      <trkpt lat="46.8105630" lon="3.0716940">
        <ele>177.8</ele>
        <time>2020-07-04T08:22:57Z</time>
      </trkpt>
      <trkpt lat="46.8103380" lon="3.0715700">
        <ele>177.2</ele>
        <time>2020-07-04T08:23:01Z</time>
      </trkpt>
      <trkpt lat="46.8100900" lon="3.0714540">
        <ele>177.4</ele>
        <time>2020-07-04T08:23:05Z</time>
      </trkpt>
      <trkpt lat="46.8100290" lon="3.0714240">
        <ele>177.4</ele>
        <time>2020-07-04T08:23:06Z</time>
      </trkpt>
      <trkpt lat="46.8099680" lon="3.0713930">
        <ele>177.4</ele>
        <time>2020-07-04T08:23:07Z</time>
      </trkpt>
      <trkpt lat="46.8096760" lon="3.0712290">
        <ele>177.0</ele>
        <time>2020-07-04T08:23:12Z</time>
      </trkpt>
      <trkpt lat="46.8094450" lon="3.0710760">
        <ele>176.8</ele>
        <time>2020-07-04T08:23:16Z</time>
      </trkpt>
      <trkpt lat="46.8091690" lon="3.0708400">
        <ele>176.4</ele>
        <time>2020-07-04T08:23:21Z</time>
      </trkpt>
      <trkpt lat="46.8090700" lon="3.0707350">
        <ele>176.2</ele>
        <time>2020-07-04T08:23:23Z</time>
      </trkpt>
      <trkpt lat="46.8087280" lon="3.0703350">
        <ele>176.4</ele>
        <time>2020-07-04T08:23:31Z</time>
      </trkpt>
      <trkpt lat="46.8085410" lon="3.0701640">
        <ele>176.8</ele>
        <time>2020-07-04T08:23:37Z</time>
      </trkpt>
      <trkpt lat="46.8083240" lon="3.0700300">
        <ele>177.4</ele>
        <time>2020-07-04T08:23:45Z</time>
      </trkpt>
      <trkpt lat="46.8082900" lon="3.0700090">
        <ele>177.6</ele>
        <time>2020-07-04T08:23:46Z</time>
      </trkpt>
      <trkpt lat="46.8081010" lon="3.0698160">
        <ele>177.4</ele>
        <time>2020-07-04T08:23:52Z</time>
      </trkpt>
      <trkpt lat="46.8078850" lon="3.0694390">
        <ele>177.0</ele>
        <time>2020-07-04T08:24:01Z</time>
      </trkpt>
      <trkpt lat="46.8076650" lon="3.0692060">
        <ele>176.8</ele>
        <time>2020-07-04T08:24:08Z</time>
      </trkpt>
      <trkpt lat="46.8073160" lon="3.0689230">
        <ele>176.8</ele>
        <time>2020-07-04T08:24:17Z</time>
      </trkpt>
      <trkpt lat="46.8070060" lon="3.0686910">
        <ele>176.8</ele>
        <time>2020-07-04T08:24:25Z</time>
      </trkpt>
      <trkpt lat="46.8069400" lon="3.0686400">
        <ele>176.8</ele>
        <time>2020-07-04T08:24:27Z</time>
      </trkpt>
      <trkpt lat="46.8065660" lon="3.0683550">
        <ele>177.2</ele>
        <time>2020-07-04T08:24:37Z</time>
      </trkpt>
      <trkpt lat="46.8062450" lon="3.0681150">
        <ele>177.2</ele>
        <time>2020-07-04T08:24:46Z</time>
      </trkpt>
      <trkpt lat="46.8060110" lon="3.0679570">
        <ele>177.4</ele>
        <time>2020-07-04T08:24:54Z</time>
      </trkpt>
      <trkpt lat="46.8058400" lon="3.0678930">
        <ele>177.4</ele>
        <time>2020-07-04T08:25:00Z</time>
      </trkpt>
      <trkpt lat="46.8057840" lon="3.0679170">
        <ele>177.8</ele>
        <time>2020-07-04T08:25:04Z</time>
      </trkpt>
      <trkpt lat="46.8057810" lon="3.0679210">
        <ele>177.8</ele>
        <time>2020-07-04T08:25:05Z</time>
      </trkpt>
      <trkpt lat="46.8057750" lon="3.0680230">
        <ele>178.6</ele>
        <time>2020-07-04T08:25:15Z</time>
      </trkpt>
      <trkpt lat="46.8057790" lon="3.0681300">
        <ele>178.8</ele>
        <time>2020-07-04T08:25:26Z</time>
      </trkpt>
      <trkpt lat="46.8057810" lon="3.0681510">
        <ele>179.2</ele>
        <time>2020-07-04T08:25:53Z</time>
      </trkpt>
      <trkpt lat="46.8057840" lon="3.0681750">
        <ele>179.0</ele>
        <time>2020-07-04T08:26:29Z</time>
      </trkpt>
      <trkpt lat="46.8057830" lon="3.0681960">
        <ele>179.2</ele>
        <time>2020-07-04T08:27:08Z</time>
      </trkpt>
      <trkpt lat="46.8057850" lon="3.0682070">
        <ele>179.2</ele>
        <time>2020-07-04T08:27:38Z</time>
      </trkpt>
      <trkpt lat="46.8057830" lon="3.0682210">
        <ele>179.2</ele>
        <time>2020-07-04T08:28:06Z</time>
      </trkpt>
      <trkpt lat="46.8057830" lon="3.0682290">
        <ele>179.0</ele>
        <time>2020-07-04T08:28:33Z</time>
      </trkpt>
      <trkpt lat="46.8057830" lon="3.0682380">
        <ele>178.8</ele>
        <time>2020-07-04T08:29:01Z</time>
      </trkpt>
      <trkpt lat="46.8057940" lon="3.0681600">
        <ele>178.8</ele>
        <time>2020-07-04T08:29:15Z</time>
      </trkpt>
      <trkpt lat="46.8058050" lon="3.0680220">
        <ele>178.6</ele>
        <time>2020-07-04T08:29:24Z</time>
      </trkpt>
      <trkpt lat="46.8058030" lon="3.0679200">
        <ele>178.6</ele>
        <time>2020-07-04T08:29:30Z</time>
      </trkpt>
      <trkpt lat="46.8058170" lon="3.0678820">
        <ele>178.8</ele>
        <time>2020-07-04T08:29:37Z</time>
      </trkpt>
      <trkpt lat="46.8058150" lon="3.0677650">
        <ele>178.8</ele>
        <time>2020-07-04T08:29:43Z</time>
      </trkpt>
      <trkpt lat="46.8058010" lon="3.0677050">
        <ele>178.6</ele>
        <time>2020-07-04T08:29:45Z</time>
      </trkpt>
      <trkpt lat="46.8057280" lon="3.0675100">
        <ele>178.6</ele>
        <time>2020-07-04T08:29:51Z</time>
      </trkpt>
      <trkpt lat="46.8055970" lon="3.0671230">
        <ele>177.8</ele>
        <time>2020-07-04T08:30:00Z</time>
      </trkpt>
      <trkpt lat="46.8054100" lon="3.0666170">
        <ele>177.6</ele>
        <time>2020-07-04T08:30:10Z</time>
      </trkpt>
      <trkpt lat="46.8051400" lon="3.0659050">
        <ele>177.2</ele>
        <time>2020-07-04T08:30:23Z</time>
      </trkpt>
      <trkpt lat="46.8051010" lon="3.0657950">
        <ele>177.0</ele>
        <time>2020-07-04T08:30:25Z</time>
      </trkpt>
      <trkpt lat="46.8049700" lon="3.0654560">
        <ele>177.2</ele>
        <time>2020-07-04T08:30:31Z</time>
      </trkpt>
      <trkpt lat="46.8047810" lon="3.0649310">
        <ele>177.0</ele>
        <time>2020-07-04T08:30:40Z</time>
      </trkpt>
      <trkpt lat="46.8046960" lon="3.0647070">
        <ele>176.8</ele>
        <time>2020-07-04T08:30:44Z</time>
      </trkpt>
      <trkpt lat="46.8044520" lon="3.0641060">
        <ele>176.8</ele>
        <time>2020-07-04T08:30:55Z</time>
      </trkpt>
      <trkpt lat="46.8044000" lon="3.0640000">
        <ele>176.8</ele>
        <time>2020-07-04T08:30:57Z</time>
      </trkpt>
      <trkpt lat="46.8040910" lon="3.0634290">
        <ele>177.0</ele>
        <time>2020-07-04T08:31:08Z</time>
      </trkpt>
      <trkpt lat="46.8039610" lon="3.0632090">
        <ele>177.0</ele>
        <time>2020-07-04T08:31:12Z</time>
      </trkpt>
      <trkpt lat="46.8037090" lon="3.0627420">
        <ele>177.2</ele>
        <time>2020-07-04T08:31:20Z</time>
      </trkpt>
      <trkpt lat="46.8033520" lon="3.0620930">
        <ele>178.0</ele>
        <time>2020-07-04T08:31:31Z</time>
      </trkpt>
      <trkpt lat="46.8033240" lon="3.0620320">
        <ele>178.2</ele>
        <time>2020-07-04T08:31:32Z</time>
      </trkpt>
      <trkpt lat="46.8031580" lon="3.0615610">
        <ele>177.8</ele>
        <time>2020-07-04T08:31:39Z</time>
      </trkpt>
      <trkpt lat="46.8030520" lon="3.0609560">
        <ele>177.2</ele>
        <time>2020-07-04T08:31:47Z</time>
      </trkpt>
      <trkpt lat="46.8029530" lon="3.0606730">
        <ele>177.2</ele>
        <time>2020-07-04T08:31:51Z</time>
      </trkpt>
      <trkpt lat="46.8028830" lon="3.0605470">
        <ele>177.2</ele>
        <time>2020-07-04T08:31:53Z</time>
      </trkpt>
      <trkpt lat="46.8026170" lon="3.0602710">
        <ele>177.2</ele>
        <time>2020-07-04T08:31:59Z</time>
      </trkpt>
      <trkpt lat="46.8021570" lon="3.0598490">
        <ele>177.0</ele>
        <time>2020-07-04T08:32:09Z</time>
      </trkpt>
      <trkpt lat="46.8020270" lon="3.0597090">
        <ele>176.8</ele>
        <time>2020-07-04T08:32:12Z</time>
      </trkpt>
      <trkpt lat="46.8019460" lon="3.0596140">
        <ele>176.6</ele>
        <time>2020-07-04T08:32:14Z</time>
      </trkpt>
      <trkpt lat="46.8018620" lon="3.0595290">
        <ele>176.6</ele>
        <time>2020-07-04T08:32:16Z</time>
      </trkpt>
      <trkpt lat="46.8016440" lon="3.0593230">
        <ele>176.4</ele>
        <time>2020-07-04T08:32:21Z</time>
      </trkpt>
      <trkpt lat="46.8011860" lon="3.0588840">
        <ele>176.8</ele>
        <time>2020-07-04T08:32:32Z</time>
      </trkpt>
      <trkpt lat="46.8011440" lon="3.0588450">
        <ele>176.6</ele>
        <time>2020-07-04T08:32:33Z</time>
      </trkpt>
      <trkpt lat="46.8006730" lon="3.0584080">
        <ele>176.8</ele>
        <time>2020-07-04T08:32:44Z</time>
      </trkpt>
      <trkpt lat="46.8006300" lon="3.0583660">
        <ele>177.0</ele>
        <time>2020-07-04T08:32:45Z</time>
      </trkpt>
      <trkpt lat="46.8001520" lon="3.0579270">
        <ele>177.0</ele>
        <time>2020-07-04T08:32:56Z</time>
      </trkpt>
      <trkpt lat="46.7996980" lon="3.0574930">
        <ele>177.4</ele>
        <time>2020-07-04T08:33:06Z</time>
      </trkpt>
      <trkpt lat="46.7996100" lon="3.0574130">
        <ele>177.4</ele>
        <time>2020-07-04T08:33:08Z</time>
      </trkpt>
      <trkpt lat="46.7992550" lon="3.0570620">
        <ele>176.6</ele>
        <time>2020-07-04T08:33:17Z</time>
      </trkpt>
      <trkpt lat="46.7987800" lon="3.0566720">
        <ele>177.0</ele>
        <time>2020-07-04T08:33:28Z</time>
      </trkpt>
      <trkpt lat="46.7984400" lon="3.0565680">
        <ele>177.4</ele>
        <time>2020-07-04T08:33:35Z</time>
      </trkpt>
      <trkpt lat="46.7983910" lon="3.0565630">
        <ele>177.6</ele>
        <time>2020-07-04T08:33:36Z</time>
      </trkpt>
      <trkpt lat="46.7982180" lon="3.0565620">
        <ele>177.4</ele>
        <time>2020-07-04T08:33:40Z</time>
      </trkpt>
      <trkpt lat="46.7980060" lon="3.0565680">
        <ele>177.8</ele>
        <time>2020-07-04T08:33:45Z</time>
      </trkpt>
      <trkpt lat="46.7978340" lon="3.0565600">
        <ele>178.0</ele>
        <time>2020-07-04T08:33:49Z</time>
      </trkpt>
      <trkpt lat="46.7975060" lon="3.0565290">
        <ele>178.6</ele>
        <time>2020-07-04T08:33:57Z</time>
      </trkpt>
      <trkpt lat="46.7973180" lon="3.0565120">
        <ele>179.2</ele>
        <time>2020-07-04T08:34:02Z</time>
      </trkpt>
      <trkpt lat="46.7971460" lon="3.0564980">
        <ele>179.4</ele>
        <time>2020-07-04T08:34:07Z</time>
      </trkpt>
      <trkpt lat="46.7969070" lon="3.0564880">
        <ele>180.8</ele>
        <time>2020-07-04T08:34:14Z</time>
      </trkpt>
      <trkpt lat="46.7968360" lon="3.0564880">
        <ele>180.6</ele>
        <time>2020-07-04T08:34:16Z</time>
      </trkpt>
      <trkpt lat="46.7966150" lon="3.0564930">
        <ele>181.4</ele>
        <time>2020-07-04T08:34:22Z</time>
      </trkpt>
      <trkpt lat="46.7963880" lon="3.0564850">
        <ele>182.2</ele>
        <time>2020-07-04T08:34:28Z</time>
      </trkpt>
      <trkpt lat="46.7963490" lon="3.0564820">
        <ele>182.4</ele>
        <time>2020-07-04T08:34:29Z</time>
      </trkpt>
      <trkpt lat="46.7958530" lon="3.0564580">
        <ele>184.0</ele>
        <time>2020-07-04T08:34:42Z</time>
      </trkpt>
      <trkpt lat="46.7953070" lon="3.0563670">
        <ele>184.2</ele>
        <time>2020-07-04T08:34:54Z</time>
      </trkpt>
      <trkpt lat="46.7952590" lon="3.0563550">
        <ele>184.2</ele>
        <time>2020-07-04T08:34:55Z</time>
      </trkpt>
      <trkpt lat="46.7949770" lon="3.0562960">
        <ele>184.4</ele>
        <time>2020-07-04T08:35:01Z</time>
      </trkpt>
      <trkpt lat="46.7946760" lon="3.0562210">
        <ele>184.4</ele>
        <time>2020-07-04T08:35:07Z</time>
      </trkpt>
      <trkpt lat="46.7941200" lon="3.0560650">
        <ele>185.4</ele>
        <time>2020-07-04T08:35:18Z</time>
      </trkpt>
      <trkpt lat="46.7940700" lon="3.0560470">
        <ele>185.6</ele>
        <time>2020-07-04T08:35:19Z</time>
      </trkpt>
      <trkpt lat="46.7935210" lon="3.0558650">
        <ele>185.4</ele>
        <time>2020-07-04T08:35:30Z</time>
      </trkpt>
      <trkpt lat="46.7932530" lon="3.0557820">
        <ele>185.4</ele>
        <time>2020-07-04T08:35:35Z</time>
      </trkpt>
      <trkpt lat="46.7926750" lon="3.0556180">
        <ele>185.8</ele>
        <time>2020-07-04T08:35:46Z</time>
      </trkpt>
      <trkpt lat="46.7926200" lon="3.0556020">
        <ele>185.8</ele>
        <time>2020-07-04T08:35:47Z</time>
      </trkpt>
      <trkpt lat="46.7920600" lon="3.0554220">
        <ele>185.6</ele>
        <time>2020-07-04T08:35:57Z</time>
      </trkpt>
      <trkpt lat="46.7919460" lon="3.0553890">
        <ele>185.4</ele>
        <time>2020-07-04T08:35:59Z</time>
      </trkpt>
      <trkpt lat="46.7918280" lon="3.0553570">
        <ele>185.4</ele>
        <time>2020-07-04T08:36:01Z</time>
      </trkpt>
      <trkpt lat="46.7912400" lon="3.0552340">
        <ele>184.8</ele>
        <time>2020-07-04T08:36:11Z</time>
      </trkpt>
      <trkpt lat="46.7911260" lon="3.0552230">
        <ele>184.8</ele>
        <time>2020-07-04T08:36:13Z</time>
      </trkpt>
      <trkpt lat="46.7906850" lon="3.0552650">
        <ele>184.6</ele>
        <time>2020-07-04T08:36:21Z</time>
      </trkpt>
      <trkpt lat="46.7901020" lon="3.0554120">
        <ele>184.4</ele>
        <time>2020-07-04T08:36:32Z</time>
      </trkpt>
      <trkpt lat="46.7899400" lon="3.0554620">
        <ele>184.4</ele>
        <time>2020-07-04T08:36:35Z</time>
      </trkpt>
      <trkpt lat="46.7896550" lon="3.0555450">
        <ele>184.2</ele>
        <time>2020-07-04T08:36:40Z</time>
      </trkpt>
      <trkpt lat="46.7893190" lon="3.0556410">
        <ele>183.4</ele>
        <time>2020-07-04T08:36:46Z</time>
      </trkpt>
      <trkpt lat="46.7892020" lon="3.0556630">
        <ele>183.0</ele>
        <time>2020-07-04T08:36:48Z</time>
      </trkpt>
      <trkpt lat="46.7888490" lon="3.0557680">
        <ele>182.4</ele>
        <time>2020-07-04T08:36:54Z</time>
      </trkpt>
      <trkpt lat="46.7886570" lon="3.0558210">
        <ele>182.0</ele>
        <time>2020-07-04T08:36:57Z</time>
      </trkpt>
      <trkpt lat="46.7880960" lon="3.0559230">
        <ele>180.4</ele>
        <time>2020-07-04T08:37:06Z</time>
      </trkpt>
      <trkpt lat="46.7875510" lon="3.0559440">
        <ele>180.2</ele>
        <time>2020-07-04T08:37:15Z</time>
      </trkpt>
      <trkpt lat="46.7873680" lon="3.0559530">
        <ele>180.2</ele>
        <time>2020-07-04T08:37:18Z</time>
      </trkpt>
      <trkpt lat="46.7871300" lon="3.0559630">
        <ele>180.2</ele>
        <time>2020-07-04T08:37:22Z</time>
      </trkpt>
      <trkpt lat="46.7867180" lon="3.0559810">
        <ele>179.6</ele>
        <time>2020-07-04T08:37:29Z</time>
      </trkpt>
      <trkpt lat="46.7866060" lon="3.0559910">
        <ele>179.6</ele>
        <time>2020-07-04T08:37:31Z</time>
      </trkpt>
      <trkpt lat="46.7860170" lon="3.0560430">
        <ele>180.2</ele>
        <time>2020-07-04T08:37:42Z</time>
      </trkpt>
      <trkpt lat="46.7855300" lon="3.0559620">
        <ele>180.4</ele>
        <time>2020-07-04T08:37:51Z</time>
      </trkpt>
      <trkpt lat="46.7853070" lon="3.0558610">
        <ele>180.6</ele>
        <time>2020-07-04T08:37:55Z</time>
      </trkpt>
      <trkpt lat="46.7850840" lon="3.0557570">
        <ele>180.2</ele>
        <time>2020-07-04T08:37:59Z</time>
      </trkpt>
      <trkpt lat="46.7846270" lon="3.0555330">
        <ele>179.2</ele>
        <time>2020-07-04T08:38:07Z</time>
      </trkpt>
      <trkpt lat="46.7845790" lon="3.0555060">
        <ele>179.2</ele>
        <time>2020-07-04T08:38:08Z</time>
      </trkpt>
      <trkpt lat="46.7845260" lon="3.0554800">
        <ele>179.2</ele>
        <time>2020-07-04T08:38:09Z</time>
      </trkpt>
      <trkpt lat="46.7840090" lon="3.0552020">
        <ele>178.2</ele>
        <time>2020-07-04T08:38:19Z</time>
      </trkpt>
      <trkpt lat="46.7839110" lon="3.0551240">
        <ele>178.2</ele>
        <time>2020-07-04T08:38:21Z</time>
      </trkpt>
      <trkpt lat="46.7836600" lon="3.0548690">
        <ele>178.0</ele>
        <time>2020-07-04T08:38:26Z</time>
      </trkpt>
      <trkpt lat="46.7832210" lon="3.0543440">
        <ele>177.6</ele>
        <time>2020-07-04T08:38:36Z</time>
      </trkpt>
      <trkpt lat="46.7831390" lon="3.0542460">
        <ele>177.6</ele>
        <time>2020-07-04T08:38:38Z</time>
      </trkpt>
      <trkpt lat="46.7828620" lon="3.0540390">
        <ele>177.4</ele>
        <time>2020-07-04T08:38:44Z</time>
      </trkpt>
      <trkpt lat="46.7824060" lon="3.0538850">
        <ele>177.4</ele>
        <time>2020-07-04T08:38:53Z</time>
      </trkpt>
      <trkpt lat="46.7818590" lon="3.0537040">
        <ele>177.6</ele>
        <time>2020-07-04T08:39:04Z</time>
      </trkpt>
      <trkpt lat="46.7813700" lon="3.0535250">
        <ele>178.8</ele>
        <time>2020-07-04T08:39:14Z</time>
      </trkpt>
      <trkpt lat="46.7812670" lon="3.0534760">
        <ele>178.8</ele>
        <time>2020-07-04T08:39:16Z</time>
      </trkpt>
      <trkpt lat="46.7809370" lon="3.0532930">
        <ele>178.8</ele>
        <time>2020-07-04T08:39:23Z</time>
      </trkpt>
      <trkpt lat="46.7807970" lon="3.0532190">
        <ele>178.6</ele>
        <time>2020-07-04T08:39:26Z</time>
      </trkpt>
      <trkpt lat="46.7805470" lon="3.0530860">
        <ele>178.6</ele>
        <time>2020-07-04T08:39:31Z</time>
      </trkpt>
      <trkpt lat="46.7804980" lon="3.0530600">
        <ele>178.4</ele>
        <time>2020-07-04T08:39:32Z</time>
      </trkpt>
      <trkpt lat="46.7802450" lon="3.0529320">
        <ele>178.6</ele>
        <time>2020-07-04T08:39:37Z</time>
      </trkpt>
      <trkpt lat="46.7799970" lon="3.0528070">
        <ele>178.8</ele>
        <time>2020-07-04T08:39:42Z</time>
      </trkpt>
      <trkpt lat="46.7796060" lon="3.0526140">
        <ele>179.2</ele>
        <time>2020-07-04T08:39:50Z</time>
      </trkpt>
      <trkpt lat="46.7792290" lon="3.0523450">
        <ele>179.2</ele>
        <time>2020-07-04T08:39:58Z</time>
      </trkpt>
      <trkpt lat="46.7787610" lon="3.0519030">
        <ele>179.0</ele>
        <time>2020-07-04T08:40:09Z</time>
      </trkpt>
      <trkpt lat="46.7783790" lon="3.0515040">
        <ele>179.4</ele>
        <time>2020-07-04T08:40:18Z</time>
      </trkpt>
      <trkpt lat="46.7780450" lon="3.0511480">
        <ele>179.2</ele>
        <time>2020-07-04T08:40:25Z</time>
      </trkpt>
      <trkpt lat="46.7777390" lon="3.0508410">
        <ele>179.2</ele>
        <time>2020-07-04T08:40:31Z</time>
      </trkpt>
      <trkpt lat="46.7773700" lon="3.0504470">
        <ele>179.0</ele>
        <time>2020-07-04T08:40:39Z</time>
      </trkpt>
      <trkpt lat="46.7770080" lon="3.0501730">
        <ele>179.0</ele>
        <time>2020-07-04T08:40:46Z</time>
      </trkpt>
      <trkpt lat="46.7766490" lon="3.0499100">
        <ele>178.8</ele>
        <time>2020-07-04T08:40:53Z</time>
      </trkpt>
      <trkpt lat="46.7765980" lon="3.0498720">
        <ele>178.8</ele>
        <time>2020-07-04T08:40:54Z</time>
      </trkpt>
      <trkpt lat="46.7761410" lon="3.0495380">
        <ele>178.6</ele>
        <time>2020-07-04T08:41:03Z</time>
      </trkpt>
      <trkpt lat="46.7756480" lon="3.0492160">
        <ele>178.2</ele>
        <time>2020-07-04T08:41:12Z</time>
      </trkpt>
      <trkpt lat="46.7755980" lon="3.0491800">
        <ele>178.4</ele>
        <time>2020-07-04T08:41:13Z</time>
      </trkpt>
      <trkpt lat="46.7755460" lon="3.0491390">
        <ele>178.2</ele>
        <time>2020-07-04T08:41:14Z</time>
      </trkpt>
      <trkpt lat="46.7752330" lon="3.0489390">
        <ele>178.6</ele>
        <time>2020-07-04T08:41:20Z</time>
      </trkpt>
      <trkpt lat="46.7751290" lon="3.0488760">
        <ele>178.6</ele>
        <time>2020-07-04T08:41:22Z</time>
      </trkpt>
      <trkpt lat="46.7747960" lon="3.0486530">
        <ele>179.0</ele>
        <time>2020-07-04T08:41:28Z</time>
      </trkpt>
      <trkpt lat="46.7745110" lon="3.0484640">
        <ele>179.0</ele>
        <time>2020-07-04T08:41:33Z</time>
      </trkpt>
      <trkpt lat="46.7744590" lon="3.0484320">
        <ele>178.8</ele>
        <time>2020-07-04T08:41:34Z</time>
      </trkpt>
      <trkpt lat="46.7740800" lon="3.0481280">
        <ele>179.0</ele>
        <time>2020-07-04T08:41:42Z</time>
      </trkpt>
      <trkpt lat="46.7739330" lon="3.0480020">
        <ele>179.2</ele>
        <time>2020-07-04T08:41:45Z</time>
      </trkpt>
      <trkpt lat="46.7736720" lon="3.0477990">
        <ele>179.0</ele>
        <time>2020-07-04T08:41:50Z</time>
      </trkpt>
      <trkpt lat="46.7736100" lon="3.0477570">
        <ele>179.0</ele>
        <time>2020-07-04T08:41:51Z</time>
      </trkpt>
      <trkpt lat="46.7732630" lon="3.0475230">
        <ele>179.0</ele>
        <time>2020-07-04T08:41:57Z</time>
      </trkpt>
      <trkpt lat="46.7730910" lon="3.0474130">
        <ele>179.0</ele>
        <time>2020-07-04T08:42:00Z</time>
      </trkpt>
      <trkpt lat="46.7727470" lon="3.0472220">
        <ele>178.8</ele>
        <time>2020-07-04T08:42:06Z</time>
      </trkpt>
      <trkpt lat="46.7726290" lon="3.0471560">
        <ele>178.8</ele>
        <time>2020-07-04T08:42:08Z</time>
      </trkpt>
      <trkpt lat="46.7725130" lon="3.0470870">
        <ele>178.8</ele>
        <time>2020-07-04T08:42:10Z</time>
      </trkpt>
      <trkpt lat="46.7722890" lon="3.0469660">
        <ele>178.6</ele>
        <time>2020-07-04T08:42:14Z</time>
      </trkpt>
      <trkpt lat="46.7718620" lon="3.0467280">
        <ele>179.2</ele>
        <time>2020-07-04T08:42:22Z</time>
      </trkpt>
      <trkpt lat="46.7714880" lon="3.0465430">
        <ele>179.4</ele>
        <time>2020-07-04T08:42:29Z</time>
      </trkpt>
      <trkpt lat="46.7710890" lon="3.0464550">
        <ele>179.4</ele>
        <time>2020-07-04T08:42:36Z</time>
      </trkpt>
      <trkpt lat="46.7706260" lon="3.0464060">
        <ele>179.4</ele>
        <time>2020-07-04T08:42:44Z</time>
      </trkpt>
      <trkpt lat="46.7704540" lon="3.0463560">
        <ele>179.2</ele>
        <time>2020-07-04T08:42:47Z</time>
      </trkpt>
      <trkpt lat="46.7702410" lon="3.0462750">
        <ele>179.2</ele>
        <time>2020-07-04T08:42:51Z</time>
      </trkpt>
      <trkpt lat="46.7698930" lon="3.0461400">
        <ele>178.8</ele>
        <time>2020-07-04T08:42:57Z</time>
      </trkpt>
      <trkpt lat="46.7698340" lon="3.0461180">
        <ele>178.8</ele>
        <time>2020-07-04T08:42:58Z</time>
      </trkpt>
      <trkpt lat="46.7694020" lon="3.0459620">
        <ele>178.0</ele>
        <time>2020-07-04T08:43:06Z</time>
      </trkpt>
      <trkpt lat="46.7692390" lon="3.0459130">
        <ele>178.2</ele>
        <time>2020-07-04T08:43:09Z</time>
      </trkpt>
      <trkpt lat="46.7690700" lon="3.0458810">
        <ele>178.4</ele>
        <time>2020-07-04T08:43:12Z</time>
      </trkpt>
      <trkpt lat="46.7688480" lon="3.0458390">
        <ele>178.6</ele>
        <time>2020-07-04T08:43:16Z</time>
      </trkpt>
      <trkpt lat="46.7682890" lon="3.0457740">
        <ele>179.8</ele>
        <time>2020-07-04T08:43:26Z</time>
      </trkpt>
      <trkpt lat="46.7677400" lon="3.0457280">
        <ele>179.8</ele>
        <time>2020-07-04T08:43:36Z</time>
      </trkpt>
      <trkpt lat="46.7676350" lon="3.0457200">
        <ele>179.6</ele>
        <time>2020-07-04T08:43:38Z</time>
      </trkpt>
      <trkpt lat="46.7673850" lon="3.0457080">
        <ele>179.6</ele>
        <time>2020-07-04T08:43:43Z</time>
      </trkpt>
      <trkpt lat="46.7670920" lon="3.0456790">
        <ele>179.4</ele>
        <time>2020-07-04T08:43:49Z</time>
      </trkpt>
      <trkpt lat="46.7668520" lon="3.0456670">
        <ele>179.4</ele>
        <time>2020-07-04T08:43:54Z</time>
      </trkpt>
      <trkpt lat="46.7666290" lon="3.0456620">
        <ele>179.4</ele>
        <time>2020-07-04T08:43:59Z</time>
      </trkpt>
      <trkpt lat="46.7665540" lon="3.0456680">
        <ele>179.4</ele>
        <time>2020-07-04T08:44:01Z</time>
      </trkpt>
      <trkpt lat="46.7664110" lon="3.0456480">
        <ele>180.0</ele>
        <time>2020-07-04T08:44:05Z</time>
      </trkpt>
      <trkpt lat="46.7663710" lon="3.0456390">
        <ele>180.0</ele>
        <time>2020-07-04T08:44:06Z</time>
      </trkpt>
      <trkpt lat="46.7660340" lon="3.0455600">
        <ele>180.0</ele>
        <time>2020-07-04T08:44:13Z</time>
      </trkpt>
      <trkpt lat="46.7655340" lon="3.0454670">
        <ele>179.2</ele>
        <time>2020-07-04T08:44:22Z</time>
      </trkpt>
      <trkpt lat="46.7651230" lon="3.0455280">
        <ele>179.0</ele>
        <time>2020-07-04T08:44:29Z</time>
      </trkpt>
      <trkpt lat="46.7649280" lon="3.0455740">
        <ele>179.0</ele>
        <time>2020-07-04T08:44:32Z</time>
      </trkpt>
      <trkpt lat="46.7648030" lon="3.0456100">
        <ele>179.0</ele>
        <time>2020-07-04T08:44:34Z</time>
      </trkpt>
      <trkpt lat="46.7644860" lon="3.0456950">
        <ele>179.2</ele>
        <time>2020-07-04T08:44:40Z</time>
      </trkpt>
      <trkpt lat="46.7641080" lon="3.0458390">
        <ele>179.2</ele>
        <time>2020-07-04T08:44:47Z</time>
      </trkpt>
      <trkpt lat="46.7637190" lon="3.0460180">
        <ele>179.4</ele>
        <time>2020-07-04T08:44:54Z</time>
      </trkpt>
      <trkpt lat="46.7634400" lon="3.0461750">
        <ele>179.6</ele>
        <time>2020-07-04T08:44:59Z</time>
      </trkpt>
      <trkpt lat="46.7631740" lon="3.0463140">
        <ele>179.6</ele>
        <time>2020-07-04T08:45:04Z</time>
      </trkpt>
      <trkpt lat="46.7630160" lon="3.0463810">
        <ele>179.6</ele>
        <time>2020-07-04T08:45:07Z</time>
      </trkpt>
      <trkpt lat="46.7629630" lon="3.0464030">
        <ele>179.8</ele>
        <time>2020-07-04T08:45:08Z</time>
      </trkpt>
      <trkpt lat="46.7628140" lon="3.0465010">
        <ele>179.8</ele>
        <time>2020-07-04T08:45:11Z</time>
      </trkpt>
      <trkpt lat="46.7625740" lon="3.0466350">
        <ele>179.8</ele>
        <time>2020-07-04T08:45:16Z</time>
      </trkpt>
      <trkpt lat="46.7624780" lon="3.0466860">
        <ele>179.8</ele>
        <time>2020-07-04T08:45:18Z</time>
      </trkpt>
      <trkpt lat="46.7622730" lon="3.0468290">
        <ele>179.8</ele>
        <time>2020-07-04T08:45:22Z</time>
      </trkpt>
      <trkpt lat="46.7621780" lon="3.0469030">
        <ele>179.8</ele>
        <time>2020-07-04T08:45:24Z</time>
      </trkpt>
      <trkpt lat="46.7619570" lon="3.0471060">
        <ele>180.2</ele>
        <time>2020-07-04T08:45:29Z</time>
      </trkpt>
      <trkpt lat="46.7617140" lon="3.0474030">
        <ele>180.4</ele>
        <time>2020-07-04T08:45:35Z</time>
      </trkpt>
      <trkpt lat="46.7614700" lon="3.0476510">
        <ele>180.6</ele>
        <time>2020-07-04T08:45:40Z</time>
      </trkpt>
      <trkpt lat="46.7613790" lon="3.0477270">
        <ele>180.6</ele>
        <time>2020-07-04T08:45:42Z</time>
      </trkpt>
      <trkpt lat="46.7612670" lon="3.0478170">
        <ele>180.8</ele>
        <time>2020-07-04T08:45:45Z</time>
      </trkpt>
      <trkpt lat="46.7612280" lon="3.0478460">
        <ele>181.0</ele>
        <time>2020-07-04T08:45:46Z</time>
      </trkpt>
      <trkpt lat="46.7611950" lon="3.0478690">
        <ele>180.8</ele>
        <time>2020-07-04T08:45:47Z</time>
      </trkpt>
      <trkpt lat="46.7611390" lon="3.0479240">
        <ele>181.2</ele>
        <time>2020-07-04T08:45:49Z</time>
      </trkpt>
      <trkpt lat="46.7610360" lon="3.0480380">
        <ele>181.8</ele>
        <time>2020-07-04T08:45:52Z</time>
      </trkpt>
      <trkpt lat="46.7609730" lon="3.0481270">
        <ele>181.8</ele>
        <time>2020-07-04T08:45:54Z</time>
      </trkpt>
      <trkpt lat="46.7609360" lon="3.0481670">
        <ele>182.0</ele>
        <time>2020-07-04T08:45:55Z</time>
      </trkpt>
      <trkpt lat="46.7608980" lon="3.0482040">
        <ele>182.2</ele>
        <time>2020-07-04T08:45:56Z</time>
      </trkpt>
      <trkpt lat="46.7608220" lon="3.0482790">
        <ele>182.2</ele>
        <time>2020-07-04T08:45:58Z</time>
      </trkpt>
      <trkpt lat="46.7607850" lon="3.0483130">
        <ele>182.2</ele>
        <time>2020-07-04T08:45:59Z</time>
      </trkpt>
      <trkpt lat="46.7606170" lon="3.0484680">
        <ele>182.2</ele>
        <time>2020-07-04T08:46:04Z</time>
      </trkpt>
      <trkpt lat="46.7605490" lon="3.0485260">
        <ele>182.4</ele>
        <time>2020-07-04T08:46:06Z</time>
      </trkpt>
      <trkpt lat="46.7605190" lon="3.0485570">
        <ele>182.2</ele>
        <time>2020-07-04T08:46:07Z</time>
      </trkpt>
      <trkpt lat="46.7604570" lon="3.0486180">
        <ele>182.2</ele>
        <time>2020-07-04T08:46:09Z</time>
      </trkpt>
      <trkpt lat="46.7604240" lon="3.0486490">
        <ele>182.0</ele>
        <time>2020-07-04T08:46:10Z</time>
      </trkpt>
      <trkpt lat="46.7603330" lon="3.0487680">
        <ele>182.0</ele>
        <time>2020-07-04T08:46:13Z</time>
      </trkpt>
      <trkpt lat="46.7602950" lon="3.0488190">
        <ele>182.0</ele>
        <time>2020-07-04T08:46:14Z</time>
      </trkpt>
      <trkpt lat="46.7602070" lon="3.0489110">
        <ele>181.6</ele>
        <time>2020-07-04T08:46:16Z</time>
      </trkpt>
      <trkpt lat="46.7600080" lon="3.0490860">
        <ele>181.6</ele>
        <time>2020-07-04T08:46:20Z</time>
      </trkpt>
      <trkpt lat="46.7597140" lon="3.0493360">
        <ele>181.4</ele>
        <time>2020-07-04T08:46:27Z</time>
      </trkpt>
      <trkpt lat="46.7594770" lon="3.0495600">
        <ele>181.2</ele>
        <time>2020-07-04T08:46:33Z</time>
      </trkpt>
      <trkpt lat="46.7594040" lon="3.0496280">
        <ele>181.2</ele>
        <time>2020-07-04T08:46:35Z</time>
      </trkpt>
      <trkpt lat="46.7593190" lon="3.0497340">
        <ele>181.4</ele>
        <time>2020-07-04T08:46:38Z</time>
      </trkpt>
      <trkpt lat="46.7592940" lon="3.0497690">
        <ele>181.4</ele>
        <time>2020-07-04T08:46:39Z</time>
      </trkpt>
      <trkpt lat="46.7592590" lon="3.0498280">
        <ele>181.6</ele>
        <time>2020-07-04T08:46:41Z</time>
      </trkpt>
      <trkpt lat="46.7592360" lon="3.0498690">
        <ele>181.8</ele>
        <time>2020-07-04T08:46:43Z</time>
      </trkpt>
      <trkpt lat="46.7591890" lon="3.0499770">
        <ele>183.6</ele>
        <time>2020-07-04T08:46:48Z</time>
      </trkpt>
      <trkpt lat="46.7591460" lon="3.0500430">
        <ele>184.4</ele>
        <time>2020-07-04T08:46:51Z</time>
      </trkpt>
      <trkpt lat="46.7591140" lon="3.0501190">
        <ele>185.2</ele>
        <time>2020-07-04T08:46:54Z</time>
      </trkpt>
      <trkpt lat="46.7590650" lon="3.0502230">
        <ele>185.8</ele>
        <time>2020-07-04T08:46:58Z</time>
      </trkpt>
      <trkpt lat="46.7589680" lon="3.0502750">
        <ele>186.6</ele>
        <time>2020-07-04T08:47:02Z</time>
      </trkpt>
      <trkpt lat="46.7589370" lon="3.0502600">
        <ele>186.8</ele>
        <time>2020-07-04T08:47:03Z</time>
      </trkpt>
      <trkpt lat="46.7589070" lon="3.0502360">
        <ele>187.0</ele>
        <time>2020-07-04T08:47:04Z</time>
      </trkpt>
      <trkpt lat="46.7587960" lon="3.0500960">
        <ele>187.0</ele>
        <time>2020-07-04T08:47:08Z</time>
      </trkpt>
      <trkpt lat="46.7585610" lon="3.0497520">
        <ele>188.0</ele>
        <time>2020-07-04T08:47:18Z</time>
      </trkpt>
      <trkpt lat="46.7585190" lon="3.0496900">
        <ele>188.2</ele>
        <time>2020-07-04T08:47:20Z</time>
      </trkpt>
      <trkpt lat="46.7584150" lon="3.0495290">
        <ele>188.6</ele>
        <time>2020-07-04T08:47:25Z</time>
      </trkpt>
      <trkpt lat="46.7582570" lon="3.0493190">
        <ele>189.4</ele>
        <time>2020-07-04T08:47:31Z</time>
      </trkpt>
      <trkpt lat="46.7581470" lon="3.0491730">
        <ele>189.6</ele>
        <time>2020-07-04T08:47:35Z</time>
      </trkpt>
      <trkpt lat="46.7580300" lon="3.0490160">
        <ele>189.8</ele>
        <time>2020-07-04T08:47:39Z</time>
      </trkpt>
      <trkpt lat="46.7578170" lon="3.0487100">
        <ele>189.6</ele>
        <time>2020-07-04T08:47:47Z</time>
      </trkpt>
      <trkpt lat="46.7577610" lon="3.0486380">
        <ele>189.6</ele>
        <time>2020-07-04T08:47:49Z</time>
      </trkpt>
      <trkpt lat="46.7577310" lon="3.0485990">
        <ele>189.6</ele>
        <time>2020-07-04T08:47:50Z</time>
      </trkpt>
      <trkpt lat="46.7575990" lon="3.0484320">
        <ele>189.2</ele>
        <time>2020-07-04T08:47:54Z</time>
      </trkpt>
      <trkpt lat="46.7574860" lon="3.0483080">
        <ele>188.6</ele>
        <time>2020-07-04T08:47:57Z</time>
      </trkpt>
      <trkpt lat="46.7573790" lon="3.0481670">
        <ele>187.6</ele>
        <time>2020-07-04T08:48:00Z</time>
      </trkpt>
      <trkpt lat="46.7573440" lon="3.0481210">
        <ele>187.2</ele>
        <time>2020-07-04T08:48:01Z</time>
      </trkpt>
      <trkpt lat="46.7572740" lon="3.0480210">
        <ele>186.8</ele>
        <time>2020-07-04T08:48:03Z</time>
      </trkpt>
      <trkpt lat="46.7571710" lon="3.0478560">
        <ele>185.8</ele>
        <time>2020-07-04T08:48:06Z</time>
      </trkpt>
      <trkpt lat="46.7570420" lon="3.0475970">
        <ele>185.0</ele>
        <time>2020-07-04T08:48:10Z</time>
      </trkpt>
      <trkpt lat="46.7569390" lon="3.0473860">
        <ele>184.6</ele>
        <time>2020-07-04T08:48:13Z</time>
      </trkpt>
      <trkpt lat="46.7568250" lon="3.0471780">
        <ele>184.0</ele>
        <time>2020-07-04T08:48:16Z</time>
      </trkpt>
      <trkpt lat="46.7567850" lon="3.0471100">
        <ele>184.0</ele>
        <time>2020-07-04T08:48:17Z</time>
      </trkpt>
      <trkpt lat="46.7566040" lon="3.0467290">
        <ele>182.2</ele>
        <time>2020-07-04T08:48:22Z</time>
      </trkpt>
      <trkpt lat="46.7565150" lon="3.0463000">
        <ele>180.8</ele>
        <time>2020-07-04T08:48:27Z</time>
      </trkpt>
      <trkpt lat="46.7565140" lon="3.0459730">
        <ele>180.4</ele>
        <time>2020-07-04T08:48:31Z</time>
      </trkpt>
      <trkpt lat="46.7565260" lon="3.0458270">
        <ele>180.4</ele>
        <time>2020-07-04T08:48:33Z</time>
      </trkpt>
      <trkpt lat="46.7566060" lon="3.0454320">
        <ele>180.8</ele>
        <time>2020-07-04T08:48:40Z</time>
      </trkpt>
      <trkpt lat="46.7567020" lon="3.0451410">
        <ele>181.0</ele>
        <time>2020-07-04T08:48:45Z</time>
      </trkpt>
      <trkpt lat="46.7567170" lon="3.0450700">
        <ele>181.0</ele>
        <time>2020-07-04T08:48:46Z</time>
      </trkpt>
      <trkpt lat="46.7567660" lon="3.0448620">
        <ele>181.0</ele>
        <time>2020-07-04T08:48:49Z</time>
      </trkpt>
      <trkpt lat="46.7567760" lon="3.0447920">
        <ele>181.0</ele>
        <time>2020-07-04T08:48:50Z</time>
      </trkpt>
      <trkpt lat="46.7567890" lon="3.0446320">
        <ele>181.2</ele>
        <time>2020-07-04T08:48:52Z</time>
      </trkpt>
      <trkpt lat="46.7567480" lon="3.0440940">
        <ele>181.6</ele>
        <time>2020-07-04T08:48:59Z</time>
      </trkpt>
      <trkpt lat="46.7566260" lon="3.0438060">
        <ele>182.0</ele>
        <time>2020-07-04T08:49:04Z</time>
      </trkpt>
      <trkpt lat="46.7565630" lon="3.0436990">
        <ele>182.0</ele>
        <time>2020-07-04T08:49:06Z</time>
      </trkpt>
      <trkpt lat="46.7564000" lon="3.0434500">
        <ele>182.4</ele>
        <time>2020-07-04T08:49:11Z</time>
      </trkpt>
      <trkpt lat="46.7562820" lon="3.0431220">
        <ele>183.0</ele>
        <time>2020-07-04T08:49:17Z</time>
      </trkpt>
      <trkpt lat="46.7562610" lon="3.0430010">
        <ele>183.0</ele>
        <time>2020-07-04T08:49:19Z</time>
      </trkpt>
      <trkpt lat="46.7562620" lon="3.0428750">
        <ele>183.2</ele>
        <time>2020-07-04T08:49:21Z</time>
      </trkpt>
      <trkpt lat="46.7562700" lon="3.0428120">
        <ele>183.2</ele>
        <time>2020-07-04T08:49:22Z</time>
      </trkpt>
      <trkpt lat="46.7563010" lon="3.0426290">
        <ele>183.4</ele>
        <time>2020-07-04T08:49:25Z</time>
      </trkpt>
      <trkpt lat="46.7563520" lon="3.0423300">
        <ele>183.8</ele>
        <time>2020-07-04T08:49:30Z</time>
      </trkpt>
      <trkpt lat="46.7563370" lon="3.0420120">
        <ele>183.8</ele>
        <time>2020-07-04T08:49:36Z</time>
      </trkpt>
      <trkpt lat="46.7562060" lon="3.0418100">
        <ele>184.0</ele>
        <time>2020-07-04T08:49:41Z</time>
      </trkpt>
      <trkpt lat="46.7559830" lon="3.0416140">
        <ele>184.4</ele>
        <time>2020-07-04T08:49:48Z</time>
      </trkpt>
      <trkpt lat="46.7557090" lon="3.0415380">
        <ele>184.8</ele>
        <time>2020-07-04T08:49:55Z</time>
      </trkpt>
      <trkpt lat="46.7554520" lon="3.0414840">
        <ele>185.0</ele>
        <time>2020-07-04T08:50:02Z</time>
      </trkpt>
      <trkpt lat="46.7553780" lon="3.0414670">
        <ele>185.4</ele>
        <time>2020-07-04T08:50:04Z</time>
      </trkpt>
      <trkpt lat="46.7551850" lon="3.0414680">
        <ele>185.8</ele>
        <time>2020-07-04T08:50:09Z</time>
      </trkpt>
      <trkpt lat="46.7550050" lon="3.0416120">
        <ele>186.4</ele>
        <time>2020-07-04T08:50:14Z</time>
      </trkpt>
      <trkpt lat="46.7548410" lon="3.0419510">
        <ele>186.6</ele>
        <time>2020-07-04T08:50:21Z</time>
      </trkpt>
      <trkpt lat="46.7547690" lon="3.0421040">
        <ele>186.8</ele>
        <time>2020-07-04T08:50:24Z</time>
      </trkpt>
      <trkpt lat="46.7546760" lon="3.0423830">
        <ele>187.2</ele>
        <time>2020-07-04T08:50:29Z</time>
      </trkpt>
      <trkpt lat="46.7546310" lon="3.0425430">
        <ele>187.2</ele>
        <time>2020-07-04T08:50:32Z</time>
      </trkpt>
      <trkpt lat="46.7544970" lon="3.0430300">
        <ele>188.6</ele>
        <time>2020-07-04T08:50:41Z</time>
      </trkpt>
      <trkpt lat="46.7544080" lon="3.0432990">
        <ele>189.2</ele>
        <time>2020-07-04T08:50:46Z</time>
      </trkpt>
      <trkpt lat="46.7543460" lon="3.0434650">
        <ele>189.6</ele>
        <time>2020-07-04T08:50:49Z</time>
      </trkpt>
      <trkpt lat="46.7541780" lon="3.0439540">
        <ele>190.0</ele>
        <time>2020-07-04T08:50:58Z</time>
      </trkpt>
      <trkpt lat="46.7540560" lon="3.0442750">
        <ele>190.0</ele>
        <time>2020-07-04T08:51:04Z</time>
      </trkpt>
      <trkpt lat="46.7540280" lon="3.0443330">
        <ele>190.2</ele>
        <time>2020-07-04T08:51:05Z</time>
      </trkpt>
      <trkpt lat="46.7538880" lon="3.0445450">
        <ele>190.0</ele>
        <time>2020-07-04T08:51:09Z</time>
      </trkpt>
      <trkpt lat="46.7537980" lon="3.0446380">
        <ele>189.8</ele>
        <time>2020-07-04T08:51:11Z</time>
      </trkpt>
      <trkpt lat="46.7537070" lon="3.0447220">
        <ele>189.2</ele>
        <time>2020-07-04T08:51:13Z</time>
      </trkpt>
      <trkpt lat="46.7535160" lon="3.0448320">
        <ele>188.6</ele>
        <time>2020-07-04T08:51:17Z</time>
      </trkpt>
      <trkpt lat="46.7531970" lon="3.0450540">
        <ele>188.0</ele>
        <time>2020-07-04T08:51:25Z</time>
      </trkpt>
      <trkpt lat="46.7530600" lon="3.0451330">
        <ele>188.2</ele>
        <time>2020-07-04T08:51:28Z</time>
      </trkpt>
      <trkpt lat="46.7529900" lon="3.0452010">
        <ele>188.0</ele>
        <time>2020-07-04T08:51:30Z</time>
      </trkpt>
      <trkpt lat="46.7529620" lon="3.0452460">
        <ele>188.2</ele>
        <time>2020-07-04T08:51:31Z</time>
      </trkpt>
      <trkpt lat="46.7529370" lon="3.0453040">
        <ele>188.2</ele>
        <time>2020-07-04T08:51:32Z</time>
      </trkpt>
      <trkpt lat="46.7529180" lon="3.0453770">
        <ele>188.2</ele>
        <time>2020-07-04T08:51:33Z</time>
      </trkpt>
      <trkpt lat="46.7528670" lon="3.0455380">
        <ele>188.2</ele>
        <time>2020-07-04T08:51:35Z</time>
      </trkpt>
      <trkpt lat="46.7528280" lon="3.0456220">
        <ele>188.2</ele>
        <time>2020-07-04T08:51:36Z</time>
      </trkpt>
      <trkpt lat="46.7527800" lon="3.0457000">
        <ele>188.2</ele>
        <time>2020-07-04T08:51:37Z</time>
      </trkpt>
      <trkpt lat="46.7526740" lon="3.0458540">
        <ele>188.2</ele>
        <time>2020-07-04T08:51:39Z</time>
      </trkpt>
      <trkpt lat="46.7526110" lon="3.0459180">
        <ele>188.2</ele>
        <time>2020-07-04T08:51:40Z</time>
      </trkpt>
      <trkpt lat="46.7525400" lon="3.0459720">
        <ele>188.0</ele>
        <time>2020-07-04T08:51:41Z</time>
      </trkpt>
      <trkpt lat="46.7524660" lon="3.0460190">
        <ele>188.0</ele>
        <time>2020-07-04T08:51:42Z</time>
      </trkpt>
      <trkpt lat="46.7523880" lon="3.0460600">
        <ele>187.2</ele>
        <time>2020-07-04T08:51:43Z</time>
      </trkpt>
      <trkpt lat="46.7520720" lon="3.0462240">
        <ele>184.2</ele>
        <time>2020-07-04T08:51:47Z</time>
      </trkpt>
      <trkpt lat="46.7519380" lon="3.0463560">
        <ele>183.2</ele>
        <time>2020-07-04T08:51:49Z</time>
      </trkpt>
      <trkpt lat="46.7518820" lon="3.0464320">
        <ele>182.8</ele>
        <time>2020-07-04T08:51:50Z</time>
      </trkpt>
      <trkpt lat="46.7517800" lon="3.0465850">
        <ele>182.0</ele>
        <time>2020-07-04T08:51:52Z</time>
      </trkpt>
      <trkpt lat="46.7516910" lon="3.0467400">
        <ele>181.6</ele>
        <time>2020-07-04T08:51:54Z</time>
      </trkpt>
      <trkpt lat="46.7514690" lon="3.0471620">
        <ele>181.6</ele>
        <time>2020-07-04T08:52:00Z</time>
      </trkpt>
      <trkpt lat="46.7513760" lon="3.0473380">
        <ele>181.8</ele>
        <time>2020-07-04T08:52:03Z</time>
      </trkpt>
      <trkpt lat="46.7511630" lon="3.0477560">
        <ele>182.4</ele>
        <time>2020-07-04T08:52:10Z</time>
      </trkpt>
      <trkpt lat="46.7508880" lon="3.0482970">
        <ele>183.0</ele>
        <time>2020-07-04T08:52:19Z</time>
      </trkpt>
      <trkpt lat="46.7506510" lon="3.0487000">
        <ele>183.2</ele>
        <time>2020-07-04T08:52:27Z</time>
      </trkpt>
      <trkpt lat="46.7504480" lon="3.0490020">
        <ele>183.2</ele>
        <time>2020-07-04T08:52:34Z</time>
      </trkpt>
      <trkpt lat="46.7503510" lon="3.0491330">
        <ele>183.4</ele>
        <time>2020-07-04T08:52:37Z</time>
      </trkpt>
      <trkpt lat="46.7501390" lon="3.0494350">
        <ele>183.4</ele>
        <time>2020-07-04T08:52:43Z</time>
      </trkpt>
      <trkpt lat="46.7497980" lon="3.0498990">
        <ele>182.6</ele>
        <time>2020-07-04T08:52:52Z</time>
      </trkpt>
      <trkpt lat="46.7494260" lon="3.0502460">
        <ele>182.8</ele>
        <time>2020-07-04T08:53:01Z</time>
      </trkpt>
      <trkpt lat="46.7490990" lon="3.0505960">
        <ele>183.0</ele>
        <time>2020-07-04T08:53:09Z</time>
      </trkpt>
      <trkpt lat="46.7489820" lon="3.0507500">
        <ele>183.2</ele>
        <time>2020-07-04T08:53:12Z</time>
      </trkpt>
      <trkpt lat="46.7487730" lon="3.0510770">
        <ele>183.2</ele>
        <time>2020-07-04T08:53:18Z</time>
      </trkpt>
      <trkpt lat="46.7484560" lon="3.0515930">
        <ele>184.0</ele>
        <time>2020-07-04T08:53:27Z</time>
      </trkpt>
      <trkpt lat="46.7480670" lon="3.0521010">
        <ele>184.0</ele>
        <time>2020-07-04T08:53:36Z</time>
      </trkpt>
      <trkpt lat="46.7476700" lon="3.0526490">
        <ele>184.0</ele>
        <time>2020-07-04T08:53:46Z</time>
      </trkpt>
      <trkpt lat="46.7473420" lon="3.0532870">
        <ele>183.8</ele>
        <time>2020-07-04T08:53:56Z</time>
      </trkpt>
      <trkpt lat="46.7473110" lon="3.0533530">
        <ele>184.0</ele>
        <time>2020-07-04T08:53:57Z</time>
      </trkpt>
      <trkpt lat="46.7472780" lon="3.0534180">
        <ele>183.8</ele>
        <time>2020-07-04T08:53:58Z</time>
      </trkpt>
      <trkpt lat="46.7469930" lon="3.0539750">
        <ele>183.4</ele>
        <time>2020-07-04T08:54:06Z</time>
      </trkpt>
      <trkpt lat="46.7466340" lon="3.0546020">
        <ele>182.8</ele>
        <time>2020-07-04T08:54:16Z</time>
      </trkpt>
      <trkpt lat="46.7462850" lon="3.0551690">
        <ele>182.8</ele>
        <time>2020-07-04T08:54:26Z</time>
      </trkpt>
      <trkpt lat="46.7462120" lon="3.0552820">
        <ele>183.0</ele>
        <time>2020-07-04T08:54:28Z</time>
      </trkpt>
      <trkpt lat="46.7458360" lon="3.0558500">
        <ele>183.6</ele>
        <time>2020-07-04T08:54:38Z</time>
      </trkpt>
      <trkpt lat="46.7455710" lon="3.0562720">
        <ele>184.0</ele>
        <time>2020-07-04T08:54:46Z</time>
      </trkpt>
      <trkpt lat="46.7453260" lon="3.0567280">
        <ele>184.4</ele>
        <time>2020-07-04T08:54:55Z</time>
      </trkpt>
      <trkpt lat="46.7450160" lon="3.0571870">
        <ele>184.2</ele>
        <time>2020-07-04T08:55:05Z</time>
      </trkpt>
      <trkpt lat="46.7446660" lon="3.0576990">
        <ele>183.8</ele>
        <time>2020-07-04T08:55:14Z</time>
      </trkpt>
      <trkpt lat="46.7444580" lon="3.0580150">
        <ele>183.8</ele>
        <time>2020-07-04T08:55:19Z</time>
      </trkpt>
      <trkpt lat="46.7442060" lon="3.0584040">
        <ele>183.6</ele>
        <time>2020-07-04T08:55:25Z</time>
      </trkpt>
      <trkpt lat="46.7438360" lon="3.0589820">
        <ele>183.2</ele>
        <time>2020-07-04T08:55:34Z</time>
      </trkpt>
      <trkpt lat="46.7437570" lon="3.0591130">
        <ele>183.0</ele>
        <time>2020-07-04T08:55:36Z</time>
      </trkpt>
      <trkpt lat="46.7434960" lon="3.0595850">
        <ele>182.8</ele>
        <time>2020-07-04T08:55:43Z</time>
      </trkpt>
      <trkpt lat="46.7434600" lon="3.0596470">
        <ele>182.8</ele>
        <time>2020-07-04T08:55:44Z</time>
      </trkpt>
      <trkpt lat="46.7431750" lon="3.0601490">
        <ele>182.4</ele>
        <time>2020-07-04T08:55:53Z</time>
      </trkpt>
      <trkpt lat="46.7429130" lon="3.0605680">
        <ele>182.2</ele>
        <time>2020-07-04T08:56:02Z</time>
      </trkpt>
      <trkpt lat="46.7427160" lon="3.0608790">
        <ele>182.6</ele>
        <time>2020-07-04T08:56:09Z</time>
      </trkpt>
      <trkpt lat="46.7424650" lon="3.0612270">
        <ele>182.6</ele>
        <time>2020-07-04T08:56:16Z</time>
      </trkpt>
      <trkpt lat="46.7423940" lon="3.0613360">
        <ele>182.6</ele>
        <time>2020-07-04T08:56:18Z</time>
      </trkpt>
      <trkpt lat="46.7419930" lon="3.0619520">
        <ele>182.4</ele>
        <time>2020-07-04T08:56:29Z</time>
      </trkpt>
      <trkpt lat="46.7417420" lon="3.0623970">
        <ele>183.2</ele>
        <time>2020-07-04T08:56:37Z</time>
      </trkpt>
      <trkpt lat="46.7414460" lon="3.0628930">
        <ele>183.8</ele>
        <time>2020-07-04T08:56:46Z</time>
      </trkpt>
      <trkpt lat="46.7411860" lon="3.0632980">
        <ele>184.4</ele>
        <time>2020-07-04T08:56:54Z</time>
      </trkpt>
      <trkpt lat="46.7410570" lon="3.0634970">
        <ele>184.6</ele>
        <time>2020-07-04T08:56:58Z</time>
      </trkpt>
      <trkpt lat="46.7408730" lon="3.0638140">
        <ele>185.0</ele>
        <time>2020-07-04T08:57:04Z</time>
      </trkpt>
      <trkpt lat="46.7408260" lon="3.0639310">
        <ele>185.6</ele>
        <time>2020-07-04T08:57:06Z</time>
      </trkpt>
      <trkpt lat="46.7406110" lon="3.0644900">
        <ele>186.6</ele>
        <time>2020-07-04T08:57:15Z</time>
      </trkpt>
      <trkpt lat="46.7403990" lon="3.0651220">
        <ele>186.6</ele>
        <time>2020-07-04T08:57:24Z</time>
      </trkpt>
      <trkpt lat="46.7401900" lon="3.0658230">
        <ele>186.4</ele>
        <time>2020-07-04T08:57:33Z</time>
      </trkpt>
      <trkpt lat="46.7400010" lon="3.0664430">
        <ele>186.0</ele>
        <time>2020-07-04T08:57:41Z</time>
      </trkpt>
      <trkpt lat="46.7398950" lon="3.0668290">
        <ele>186.0</ele>
        <time>2020-07-04T08:57:47Z</time>
      </trkpt>
      <trkpt lat="46.7396920" lon="3.0674020">
        <ele>186.2</ele>
        <time>2020-07-04T08:57:56Z</time>
      </trkpt>
      <trkpt lat="46.7394610" lon="3.0680400">
        <ele>186.4</ele>
        <time>2020-07-04T08:58:06Z</time>
      </trkpt>
      <trkpt lat="46.7392960" lon="3.0685060">
        <ele>186.4</ele>
        <time>2020-07-04T08:58:13Z</time>
      </trkpt>
      <trkpt lat="46.7391780" lon="3.0688960">
        <ele>186.4</ele>
        <time>2020-07-04T08:58:19Z</time>
      </trkpt>
      <trkpt lat="46.7391530" lon="3.0689580">
        <ele>186.6</ele>
        <time>2020-07-04T08:58:20Z</time>
      </trkpt>
      <trkpt lat="46.7390090" lon="3.0694250">
        <ele>186.4</ele>
        <time>2020-07-04T08:58:27Z</time>
      </trkpt>
      <trkpt lat="46.7388860" lon="3.0697560">
        <ele>186.4</ele>
        <time>2020-07-04T08:58:32Z</time>
      </trkpt>
      <trkpt lat="46.7388370" lon="3.0698900">
        <ele>186.4</ele>
        <time>2020-07-04T08:58:34Z</time>
      </trkpt>
      <trkpt lat="46.7387390" lon="3.0702550">
        <ele>186.2</ele>
        <time>2020-07-04T08:58:39Z</time>
      </trkpt>
      <trkpt lat="46.7387040" lon="3.0704130">
        <ele>186.2</ele>
        <time>2020-07-04T08:58:41Z</time>
      </trkpt>
      <trkpt lat="46.7385100" lon="3.0709000">
        <ele>186.4</ele>
        <time>2020-07-04T08:58:48Z</time>
      </trkpt>
      <trkpt lat="46.7382050" lon="3.0715540">
        <ele>186.4</ele>
        <time>2020-07-04T08:58:58Z</time>
      </trkpt>
      <trkpt lat="46.7379570" lon="3.0719730">
        <ele>186.2</ele>
        <time>2020-07-04T08:59:05Z</time>
      </trkpt>
      <trkpt lat="46.7379220" lon="3.0720310">
        <ele>186.2</ele>
        <time>2020-07-04T08:59:06Z</time>
      </trkpt>
      <trkpt lat="46.7376820" lon="3.0724160">
        <ele>186.0</ele>
        <time>2020-07-04T08:59:13Z</time>
      </trkpt>
      <trkpt lat="46.7373890" lon="3.0729080">
        <ele>185.8</ele>
        <time>2020-07-04T08:59:21Z</time>
      </trkpt>
      <trkpt lat="46.7371270" lon="3.0733270">
        <ele>185.8</ele>
        <time>2020-07-04T08:59:28Z</time>
      </trkpt>
      <trkpt lat="46.7367740" lon="3.0738530">
        <ele>185.6</ele>
        <time>2020-07-04T08:59:37Z</time>
      </trkpt>
      <trkpt lat="46.7366980" lon="3.0739690">
        <ele>185.4</ele>
        <time>2020-07-04T08:59:39Z</time>
      </trkpt>
      <trkpt lat="46.7363650" lon="3.0745030">
        <ele>185.0</ele>
        <time>2020-07-04T08:59:48Z</time>
      </trkpt>
      <trkpt lat="46.7363050" lon="3.0746280">
        <ele>185.2</ele>
        <time>2020-07-04T08:59:50Z</time>
      </trkpt>
      <trkpt lat="46.7361780" lon="3.0748660">
        <ele>184.8</ele>
        <time>2020-07-04T08:59:54Z</time>
      </trkpt>
      <trkpt lat="46.7359710" lon="3.0753060">
        <ele>185.2</ele>
        <time>2020-07-04T09:00:01Z</time>
      </trkpt>
      <trkpt lat="46.7358140" lon="3.0755680">
        <ele>185.4</ele>
        <time>2020-07-04T09:00:06Z</time>
      </trkpt>
      <trkpt lat="46.7357900" lon="3.0756190">
        <ele>185.4</ele>
        <time>2020-07-04T09:00:07Z</time>
      </trkpt>
      <trkpt lat="46.7356070" lon="3.0760070">
        <ele>186.0</ele>
        <time>2020-07-04T09:00:14Z</time>
      </trkpt>
      <trkpt lat="46.7355820" lon="3.0760710">
        <ele>186.2</ele>
        <time>2020-07-04T09:00:15Z</time>
      </trkpt>
      <trkpt lat="46.7355590" lon="3.0761360">
        <ele>186.4</ele>
        <time>2020-07-04T09:00:16Z</time>
      </trkpt>
      <trkpt lat="46.7355350" lon="3.0761920">
        <ele>186.6</ele>
        <time>2020-07-04T09:00:17Z</time>
      </trkpt>
      <trkpt lat="46.7355030" lon="3.0762340">
        <ele>186.6</ele>
        <time>2020-07-04T09:00:18Z</time>
      </trkpt>
      <trkpt lat="46.7353850" lon="3.0764180">
        <ele>187.2</ele>
        <time>2020-07-04T09:00:22Z</time>
      </trkpt>
      <trkpt lat="46.7353120" lon="3.0765620">
        <ele>187.6</ele>
        <time>2020-07-04T09:00:25Z</time>
      </trkpt>
      <trkpt lat="46.7351660" lon="3.0768020">
        <ele>188.2</ele>
        <time>2020-07-04T09:00:31Z</time>
      </trkpt>
      <trkpt lat="46.7350500" lon="3.0769520">
        <ele>189.2</ele>
        <time>2020-07-04T09:00:35Z</time>
      </trkpt>
      <trkpt lat="46.7349650" lon="3.0770570">
        <ele>189.6</ele>
        <time>2020-07-04T09:00:38Z</time>
      </trkpt>
      <trkpt lat="46.7347720" lon="3.0772110">
        <ele>189.8</ele>
        <time>2020-07-04T09:00:44Z</time>
      </trkpt>
      <trkpt lat="46.7346560" lon="3.0772830">
        <ele>190.2</ele>
        <time>2020-07-04T09:00:47Z</time>
      </trkpt>
      <trkpt lat="46.7345600" lon="3.0772880">
        <ele>190.2</ele>
        <time>2020-07-04T09:00:49Z</time>
      </trkpt>
      <trkpt lat="46.7342840" lon="3.0772550">
        <ele>190.6</ele>
        <time>2020-07-04T09:00:55Z</time>
      </trkpt>
      <trkpt lat="46.7338630" lon="3.0771810">
        <ele>190.8</ele>
        <time>2020-07-04T09:01:04Z</time>
      </trkpt>
      <trkpt lat="46.7336070" lon="3.0771830">
        <ele>190.8</ele>
        <time>2020-07-04T09:01:11Z</time>
      </trkpt>
      <trkpt lat="46.7333170" lon="3.0771170">
        <ele>190.8</ele>
        <time>2020-07-04T09:01:18Z</time>
      </trkpt>
      <trkpt lat="46.7330420" lon="3.0769790">
        <ele>190.6</ele>
        <time>2020-07-04T09:01:24Z</time>
      </trkpt>
      <trkpt lat="46.7327860" lon="3.0768880">
        <ele>190.6</ele>
        <time>2020-07-04T09:01:30Z</time>
      </trkpt>
      <trkpt lat="46.7324820" lon="3.0768100">
        <ele>190.6</ele>
        <time>2020-07-04T09:01:37Z</time>
      </trkpt>
      <trkpt lat="46.7322510" lon="3.0766610">
        <ele>190.8</ele>
        <time>2020-07-04T09:01:42Z</time>
      </trkpt>
      <trkpt lat="46.7321540" lon="3.0766090">
        <ele>191.2</ele>
        <time>2020-07-04T09:01:44Z</time>
      </trkpt>
      <trkpt lat="46.7318770" lon="3.0764340">
        <ele>191.4</ele>
        <time>2020-07-04T09:01:50Z</time>
      </trkpt>
      <trkpt lat="46.7317900" lon="3.0763870">
        <ele>191.6</ele>
        <time>2020-07-04T09:01:52Z</time>
      </trkpt>
      <trkpt lat="46.7316610" lon="3.0762950">
        <ele>191.6</ele>
        <time>2020-07-04T09:01:55Z</time>
      </trkpt>
      <trkpt lat="46.7314360" lon="3.0761350">
        <ele>192.2</ele>
        <time>2020-07-04T09:02:00Z</time>
      </trkpt>
      <trkpt lat="46.7312860" lon="3.0760290">
        <ele>192.8</ele>
        <time>2020-07-04T09:02:04Z</time>
      </trkpt>
      <trkpt lat="46.7311490" lon="3.0760130">
        <ele>193.2</ele>
        <time>2020-07-04T09:02:09Z</time>
      </trkpt>
      <trkpt lat="46.7311200" lon="3.0760060">
        <ele>193.4</ele>
        <time>2020-07-04T09:02:10Z</time>
      </trkpt>
      <trkpt lat="46.7309080" lon="3.0759210">
        <ele>194.6</ele>
        <time>2020-07-04T09:02:16Z</time>
      </trkpt>
      <trkpt lat="46.7308730" lon="3.0759050">
        <ele>194.6</ele>
        <time>2020-07-04T09:02:17Z</time>
      </trkpt>
      <trkpt lat="46.7308400" lon="3.0758960">
        <ele>194.8</ele>
        <time>2020-07-04T09:02:18Z</time>
      </trkpt>
      <trkpt lat="46.7305950" lon="3.0758350">
        <ele>195.6</ele>
        <time>2020-07-04T09:02:24Z</time>
      </trkpt>
      <trkpt lat="46.7305620" lon="3.0758330">
        <ele>195.6</ele>
        <time>2020-07-04T09:02:25Z</time>
      </trkpt>
      <trkpt lat="46.7302490" lon="3.0758470">
        <ele>197.2</ele>
        <time>2020-07-04T09:02:34Z</time>
      </trkpt>
      <trkpt lat="46.7302150" lon="3.0758430">
        <ele>197.2</ele>
        <time>2020-07-04T09:02:35Z</time>
      </trkpt>
      <trkpt lat="46.7300050" lon="3.0758090">
        <ele>198.2</ele>
        <time>2020-07-04T09:02:41Z</time>
      </trkpt>
      <trkpt lat="46.7297040" lon="3.0757950">
        <ele>198.8</ele>
        <time>2020-07-04T09:02:49Z</time>
      </trkpt>
      <trkpt lat="46.7293940" lon="3.0758170">
        <ele>199.4</ele>
        <time>2020-07-04T09:02:58Z</time>
      </trkpt>
      <trkpt lat="46.7291410" lon="3.0758310">
        <ele>200.4</ele>
        <time>2020-07-04T09:03:06Z</time>
      </trkpt>
      <trkpt lat="46.7291090" lon="3.0758320">
        <ele>200.6</ele>
        <time>2020-07-04T09:03:07Z</time>
      </trkpt>
      <trkpt lat="46.7289170" lon="3.0758640">
        <ele>201.2</ele>
        <time>2020-07-04T09:03:14Z</time>
      </trkpt>
      <trkpt lat="46.7287440" lon="3.0759030">
        <ele>202.0</ele>
        <time>2020-07-04T09:03:20Z</time>
      </trkpt>
      <trkpt lat="46.7287170" lon="3.0759200">
        <ele>202.0</ele>
        <time>2020-07-04T09:03:21Z</time>
      </trkpt>
      <trkpt lat="46.7285470" lon="3.0760770">
        <ele>202.6</ele>
        <time>2020-07-04T09:03:27Z</time>
      </trkpt>
      <trkpt lat="46.7284950" lon="3.0761210">
        <ele>202.8</ele>
        <time>2020-07-04T09:03:29Z</time>
      </trkpt>
      <trkpt lat="46.7283030" lon="3.0763550">
        <ele>203.8</ele>
        <time>2020-07-04T09:03:36Z</time>
      </trkpt>
      <trkpt lat="46.7282310" lon="3.0764630">
        <ele>204.2</ele>
        <time>2020-07-04T09:03:39Z</time>
      </trkpt>
      <trkpt lat="46.7280940" lon="3.0766700">
        <ele>205.0</ele>
        <time>2020-07-04T09:03:44Z</time>
      </trkpt>
      <trkpt lat="46.7279570" lon="3.0768470">
        <ele>205.8</ele>
        <time>2020-07-04T09:03:49Z</time>
      </trkpt>
      <trkpt lat="46.7278460" lon="3.0770080">
        <ele>206.2</ele>
        <time>2020-07-04T09:03:53Z</time>
      </trkpt>
      <trkpt lat="46.7276810" lon="3.0772370">
        <ele>206.6</ele>
        <time>2020-07-04T09:03:59Z</time>
      </trkpt>
      <trkpt lat="46.7276510" lon="3.0772730">
        <ele>206.8</ele>
        <time>2020-07-04T09:04:00Z</time>
      </trkpt>
      <trkpt lat="46.7274840" lon="3.0774580">
        <ele>207.6</ele>
        <time>2020-07-04T09:04:06Z</time>
      </trkpt>
      <trkpt lat="46.7274320" lon="3.0775180">
        <ele>207.8</ele>
        <time>2020-07-04T09:04:08Z</time>
      </trkpt>
      <trkpt lat="46.7272980" lon="3.0777000">
        <ele>208.2</ele>
        <time>2020-07-04T09:04:13Z</time>
      </trkpt>
      <trkpt lat="46.7270880" lon="3.0781080">
        <ele>209.4</ele>
        <time>2020-07-04T09:04:22Z</time>
      </trkpt>
      <trkpt lat="46.7270680" lon="3.0781590">
        <ele>209.4</ele>
        <time>2020-07-04T09:04:23Z</time>
      </trkpt>
      <trkpt lat="46.7269230" lon="3.0785080">
        <ele>209.8</ele>
        <time>2020-07-04T09:04:30Z</time>
      </trkpt>
      <trkpt lat="46.7267840" lon="3.0788560">
        <ele>210.2</ele>
        <time>2020-07-04T09:04:37Z</time>
      </trkpt>
      <trkpt lat="46.7267670" lon="3.0789060">
        <ele>210.2</ele>
        <time>2020-07-04T09:04:38Z</time>
      </trkpt>
      <trkpt lat="46.7266050" lon="3.0794180">
        <ele>211.0</ele>
        <time>2020-07-04T09:04:47Z</time>
      </trkpt>
      <trkpt lat="46.7264470" lon="3.0798720">
        <ele>211.2</ele>
        <time>2020-07-04T09:04:55Z</time>
      </trkpt>
      <trkpt lat="46.7264270" lon="3.0799250">
        <ele>211.2</ele>
        <time>2020-07-04T09:04:56Z</time>
      </trkpt>
      <trkpt lat="46.7262050" lon="3.0804540">
        <ele>212.2</ele>
        <time>2020-07-04T09:05:06Z</time>
      </trkpt>
      <trkpt lat="46.7259770" lon="3.0808550">
        <ele>213.4</ele>
        <time>2020-07-04T09:05:15Z</time>
      </trkpt>
      <trkpt lat="46.7259530" lon="3.0808960">
        <ele>213.6</ele>
        <time>2020-07-04T09:05:16Z</time>
      </trkpt>
      <trkpt lat="46.7258350" lon="3.0810950">
        <ele>213.8</ele>
        <time>2020-07-04T09:05:21Z</time>
      </trkpt>
      <trkpt lat="46.7257470" lon="3.0812660">
        <ele>214.4</ele>
        <time>2020-07-04T09:05:25Z</time>
      </trkpt>
      <trkpt lat="46.7255970" lon="3.0815950">
        <ele>215.6</ele>
        <time>2020-07-04T09:05:32Z</time>
      </trkpt>
      <trkpt lat="46.7255670" lon="3.0816920">
        <ele>215.6</ele>
        <time>2020-07-04T09:05:34Z</time>
      </trkpt>
      <trkpt lat="46.7255080" lon="3.0820520">
        <ele>216.4</ele>
        <time>2020-07-04T09:05:41Z</time>
      </trkpt>
      <trkpt lat="46.7254910" lon="3.0822120">
        <ele>216.8</ele>
        <time>2020-07-04T09:05:44Z</time>
      </trkpt>
      <trkpt lat="46.7254630" lon="3.0824390">
        <ele>217.0</ele>
        <time>2020-07-04T09:05:48Z</time>
      </trkpt>
      <trkpt lat="46.7254440" lon="3.0825510">
        <ele>217.4</ele>
        <time>2020-07-04T09:05:50Z</time>
      </trkpt>
      <trkpt lat="46.7253830" lon="3.0828200">
        <ele>218.2</ele>
        <time>2020-07-04T09:05:55Z</time>
      </trkpt>
      <trkpt lat="46.7252980" lon="3.0832640">
        <ele>219.2</ele>
        <time>2020-07-04T09:06:03Z</time>
      </trkpt>
      <trkpt lat="46.7252700" lon="3.0836760">
        <ele>219.6</ele>
        <time>2020-07-04T09:06:10Z</time>
      </trkpt>
      <trkpt lat="46.7252570" lon="3.0838640">
        <ele>220.0</ele>
        <time>2020-07-04T09:06:13Z</time>
      </trkpt>
      <trkpt lat="46.7252450" lon="3.0842480">
        <ele>220.4</ele>
        <time>2020-07-04T09:06:19Z</time>
      </trkpt>
      <trkpt lat="46.7252380" lon="3.0849250">
        <ele>220.6</ele>
        <time>2020-07-04T09:06:29Z</time>
      </trkpt>
      <trkpt lat="46.7252360" lon="3.0855760">
        <ele>220.8</ele>
        <time>2020-07-04T09:06:38Z</time>
      </trkpt>
      <trkpt lat="46.7252470" lon="3.0861380">
        <ele>221.0</ele>
        <time>2020-07-04T09:06:47Z</time>
      </trkpt>
      <trkpt lat="46.7252570" lon="3.0864790">
        <ele>220.6</ele>
        <time>2020-07-04T09:06:52Z</time>
      </trkpt>
      <trkpt lat="46.7252650" lon="3.0869030">
        <ele>220.4</ele>
        <time>2020-07-04T09:06:58Z</time>
      </trkpt>
      <trkpt lat="46.7252860" lon="3.0874680">
        <ele>219.6</ele>
        <time>2020-07-04T09:07:07Z</time>
      </trkpt>
      <trkpt lat="46.7252860" lon="3.0878710">
        <ele>219.4</ele>
        <time>2020-07-04T09:07:13Z</time>
      </trkpt>
      <trkpt lat="46.7252640" lon="3.0882950">
        <ele>219.2</ele>
        <time>2020-07-04T09:07:19Z</time>
      </trkpt>
      <trkpt lat="46.7252570" lon="3.0883670">
        <ele>219.0</ele>
        <time>2020-07-04T09:07:20Z</time>
      </trkpt>
      <trkpt lat="46.7251840" lon="3.0888060">
        <ele>219.0</ele>
        <time>2020-07-04T09:07:26Z</time>
      </trkpt>
      <trkpt lat="46.7251570" lon="3.0889550">
        <ele>218.6</ele>
        <time>2020-07-04T09:07:28Z</time>
      </trkpt>
      <trkpt lat="46.7250220" lon="3.0897660">
        <ele>218.0</ele>
        <time>2020-07-04T09:07:38Z</time>
      </trkpt>
      <trkpt lat="46.7250260" lon="3.0899510">
        <ele>218.0</ele>
        <time>2020-07-04T09:07:40Z</time>
      </trkpt>
      <trkpt lat="46.7250620" lon="3.0903210">
        <ele>217.4</ele>
        <time>2020-07-04T09:07:44Z</time>
      </trkpt>
      <trkpt lat="46.7251260" lon="3.0911390">
        <ele>216.6</ele>
        <time>2020-07-04T09:07:54Z</time>
      </trkpt>
      <trkpt lat="46.7250640" lon="3.0916280">
        <ele>216.6</ele>
        <time>2020-07-04T09:08:00Z</time>
      </trkpt>
      <trkpt lat="46.7250080" lon="3.0918600">
        <ele>216.6</ele>
        <time>2020-07-04T09:08:03Z</time>
      </trkpt>
      <trkpt lat="46.7249210" lon="3.0921510">
        <ele>216.6</ele>
        <time>2020-07-04T09:08:07Z</time>
      </trkpt>
      <trkpt lat="46.7247850" lon="3.0927720">
        <ele>217.4</ele>
        <time>2020-07-04T09:08:15Z</time>
      </trkpt>
      <trkpt lat="46.7247630" lon="3.0932970">
        <ele>217.6</ele>
        <time>2020-07-04T09:08:21Z</time>
      </trkpt>
      <trkpt lat="46.7247630" lon="3.0933900">
        <ele>217.8</ele>
        <time>2020-07-04T09:08:22Z</time>
      </trkpt>
      <trkpt lat="46.7247830" lon="3.0942160">
        <ele>216.6</ele>
        <time>2020-07-04T09:08:31Z</time>
      </trkpt>
      <trkpt lat="46.7247830" lon="3.0947710">
        <ele>216.0</ele>
        <time>2020-07-04T09:08:37Z</time>
      </trkpt>
      <trkpt lat="46.7247840" lon="3.0950360">
        <ele>216.0</ele>
        <time>2020-07-04T09:08:40Z</time>
      </trkpt>
      <trkpt lat="46.7247470" lon="3.0955760">
        <ele>216.0</ele>
        <time>2020-07-04T09:08:46Z</time>
      </trkpt>
      <trkpt lat="46.7247160" lon="3.0957540">
        <ele>215.6</ele>
        <time>2020-07-04T09:08:48Z</time>
      </trkpt>
      <trkpt lat="46.7245440" lon="3.0962390">
        <ele>215.4</ele>
        <time>2020-07-04T09:08:54Z</time>
      </trkpt>
      <trkpt lat="46.7242370" lon="3.0968360">
        <ele>215.4</ele>
        <time>2020-07-04T09:09:02Z</time>
      </trkpt>
      <trkpt lat="46.7240800" lon="3.0971510">
        <ele>215.0</ele>
        <time>2020-07-04T09:09:06Z</time>
      </trkpt>
      <trkpt lat="46.7237430" lon="3.0978250">
        <ele>214.6</ele>
        <time>2020-07-04T09:09:15Z</time>
      </trkpt>
      <trkpt lat="46.7236420" lon="3.0980350">
        <ele>214.2</ele>
        <time>2020-07-04T09:09:18Z</time>
      </trkpt>
      <trkpt lat="46.7233270" lon="3.0986980">
        <ele>214.2</ele>
        <time>2020-07-04T09:09:27Z</time>
      </trkpt>
      <trkpt lat="46.7232560" lon="3.0988430">
        <ele>214.2</ele>
        <time>2020-07-04T09:09:29Z</time>
      </trkpt>
      <trkpt lat="46.7231880" lon="3.0989850">
        <ele>214.2</ele>
        <time>2020-07-04T09:09:31Z</time>
      </trkpt>
      <trkpt lat="46.7229190" lon="3.0995430">
        <ele>214.6</ele>
        <time>2020-07-04T09:09:39Z</time>
      </trkpt>
      <trkpt lat="46.7228530" lon="3.0996850">
        <ele>214.8</ele>
        <time>2020-07-04T09:09:41Z</time>
      </trkpt>
      <trkpt lat="46.7227220" lon="3.0999420">
        <ele>214.8</ele>
        <time>2020-07-04T09:09:45Z</time>
      </trkpt>
      <trkpt lat="46.7225310" lon="3.1002080">
        <ele>215.0</ele>
        <time>2020-07-04T09:09:50Z</time>
      </trkpt>
      <trkpt lat="46.7224530" lon="3.1002940">
        <ele>215.0</ele>
        <time>2020-07-04T09:09:52Z</time>
      </trkpt>
      <trkpt lat="46.7221470" lon="3.1006140">
        <ele>215.8</ele>
        <time>2020-07-04T09:10:00Z</time>
      </trkpt>
      <trkpt lat="46.7220340" lon="3.1007300">
        <ele>216.4</ele>
        <time>2020-07-04T09:10:03Z</time>
      </trkpt>
      <trkpt lat="46.7217790" lon="3.1009700">
        <ele>217.4</ele>
        <time>2020-07-04T09:10:10Z</time>
      </trkpt>
      <trkpt lat="46.7217420" lon="3.1010020">
        <ele>217.6</ele>
        <time>2020-07-04T09:10:11Z</time>
      </trkpt>
      <trkpt lat="46.7213860" lon="3.1013720">
        <ele>219.0</ele>
        <time>2020-07-04T09:10:21Z</time>
      </trkpt>
      <trkpt lat="46.7212810" lon="3.1014760">
        <ele>219.2</ele>
        <time>2020-07-04T09:10:24Z</time>
      </trkpt>
      <trkpt lat="46.7209690" lon="3.1017820">
        <ele>220.0</ele>
        <time>2020-07-04T09:10:33Z</time>
      </trkpt>
      <trkpt lat="46.7206100" lon="3.1021370">
        <ele>220.0</ele>
        <time>2020-07-04T09:10:42Z</time>
      </trkpt>
      <trkpt lat="46.7201530" lon="3.1026410">
        <ele>220.0</ele>
        <time>2020-07-04T09:10:53Z</time>
      </trkpt>
      <trkpt lat="46.7200700" lon="3.1027330">
        <ele>220.0</ele>
        <time>2020-07-04T09:10:55Z</time>
      </trkpt>
      <trkpt lat="46.7196330" lon="3.1032380">
        <ele>220.2</ele>
        <time>2020-07-04T09:11:06Z</time>
      </trkpt>
      <trkpt lat="46.7195950" lon="3.1032840">
        <ele>220.0</ele>
        <time>2020-07-04T09:11:07Z</time>
      </trkpt>
      <trkpt lat="46.7195590" lon="3.1033320">
        <ele>220.2</ele>
        <time>2020-07-04T09:11:08Z</time>
      </trkpt>
      <trkpt lat="46.7191990" lon="3.1038360">
        <ele>221.0</ele>
        <time>2020-07-04T09:11:18Z</time>
      </trkpt>
      <trkpt lat="46.7190960" lon="3.1039760">
        <ele>221.2</ele>
        <time>2020-07-04T09:11:21Z</time>
      </trkpt>
      <trkpt lat="46.7188330" lon="3.1043380">
        <ele>222.0</ele>
        <time>2020-07-04T09:11:29Z</time>
      </trkpt>
      <trkpt lat="46.7184900" lon="3.1047880">
        <ele>222.6</ele>
        <time>2020-07-04T09:11:39Z</time>
      </trkpt>
      <trkpt lat="46.7183560" lon="3.1049550">
        <ele>223.0</ele>
        <time>2020-07-04T09:11:43Z</time>
      </trkpt>
      <trkpt lat="46.7180570" lon="3.1053700">
        <ele>224.0</ele>
        <time>2020-07-04T09:11:52Z</time>
      </trkpt>
      <trkpt lat="46.7178770" lon="3.1056170">
        <ele>224.2</ele>
        <time>2020-07-04T09:11:57Z</time>
      </trkpt>
      <trkpt lat="46.7177450" lon="3.1057750">
        <ele>224.6</ele>
        <time>2020-07-04T09:12:00Z</time>
      </trkpt>
      <trkpt lat="46.7176610" lon="3.1058970">
        <ele>224.6</ele>
        <time>2020-07-04T09:12:02Z</time>
      </trkpt>
      <trkpt lat="46.7175400" lon="3.1060800">
        <ele>224.4</ele>
        <time>2020-07-04T09:12:05Z</time>
      </trkpt>
      <trkpt lat="46.7173490" lon="3.1063330">
        <ele>224.4</ele>
        <time>2020-07-04T09:12:10Z</time>
      </trkpt>
      <trkpt lat="46.7169410" lon="3.1068640">
        <ele>223.0</ele>
        <time>2020-07-04T09:12:21Z</time>
      </trkpt>
      <trkpt lat="46.7166020" lon="3.1072940">
        <ele>223.0</ele>
        <time>2020-07-04T09:12:29Z</time>
      </trkpt>
      <trkpt lat="46.7164660" lon="3.1074730">
        <ele>223.0</ele>
        <time>2020-07-04T09:12:32Z</time>
      </trkpt>
      <trkpt lat="46.7162890" lon="3.1077140">
        <ele>222.6</ele>
        <time>2020-07-04T09:12:36Z</time>
      </trkpt>
      <trkpt lat="46.7161980" lon="3.1078270">
        <ele>222.2</ele>
        <time>2020-07-04T09:12:38Z</time>
      </trkpt>
      <trkpt lat="46.7159770" lon="3.1081190">
        <ele>221.6</ele>
        <time>2020-07-04T09:12:43Z</time>
      </trkpt>
      <trkpt lat="46.7157910" lon="3.1083610">
        <ele>221.4</ele>
        <time>2020-07-04T09:12:47Z</time>
      </trkpt>
      <trkpt lat="46.7156180" lon="3.1085980">
        <ele>221.2</ele>
        <time>2020-07-04T09:12:51Z</time>
      </trkpt>
      <trkpt lat="46.7154390" lon="3.1088350">
        <ele>221.2</ele>
        <time>2020-07-04T09:12:55Z</time>
      </trkpt>
      <trkpt lat="46.7151570" lon="3.1092220">
        <ele>221.4</ele>
        <time>2020-07-04T09:13:01Z</time>
      </trkpt>
      <trkpt lat="46.7150170" lon="3.1094130">
        <ele>221.2</ele>
        <time>2020-07-04T09:13:04Z</time>
      </trkpt>
      <trkpt lat="46.7149210" lon="3.1095360">
        <ele>221.2</ele>
        <time>2020-07-04T09:13:06Z</time>
      </trkpt>
      <trkpt lat="46.7146840" lon="3.1098510">
        <ele>221.4</ele>
        <time>2020-07-04T09:13:11Z</time>
      </trkpt>
      <trkpt lat="46.7145420" lon="3.1100300">
        <ele>221.0</ele>
        <time>2020-07-04T09:13:14Z</time>
      </trkpt>
      <trkpt lat="46.7142110" lon="3.1104250">
        <ele>220.6</ele>
        <time>2020-07-04T09:13:21Z</time>
      </trkpt>
      <trkpt lat="46.7141670" lon="3.1104860">
        <ele>220.6</ele>
        <time>2020-07-04T09:13:22Z</time>
      </trkpt>
      <trkpt lat="46.7137340" lon="3.1110820">
        <ele>220.8</ele>
        <time>2020-07-04T09:13:32Z</time>
      </trkpt>
      <trkpt lat="46.7134920" lon="3.1114110">
        <ele>221.4</ele>
        <time>2020-07-04T09:13:38Z</time>
      </trkpt>
      <trkpt lat="46.7132880" lon="3.1116820">
        <ele>222.0</ele>
        <time>2020-07-04T09:13:43Z</time>
      </trkpt>
      <trkpt lat="46.7128740" lon="3.1122270">
        <ele>222.4</ele>
        <time>2020-07-04T09:13:53Z</time>
      </trkpt>
      <trkpt lat="46.7127870" lon="3.1123390">
        <ele>222.4</ele>
        <time>2020-07-04T09:13:55Z</time>
      </trkpt>
      <trkpt lat="46.7125060" lon="3.1126690">
        <ele>222.6</ele>
        <time>2020-07-04T09:14:01Z</time>
      </trkpt>
      <trkpt lat="46.7123650" lon="3.1128260">
        <ele>222.4</ele>
        <time>2020-07-04T09:14:04Z</time>
      </trkpt>
      <trkpt lat="46.7121770" lon="3.1130320">
        <ele>222.4</ele>
        <time>2020-07-04T09:14:08Z</time>
      </trkpt>
      <trkpt lat="46.7120330" lon="3.1131840">
        <ele>222.4</ele>
        <time>2020-07-04T09:14:11Z</time>
      </trkpt>
      <trkpt lat="46.7115630" lon="3.1136940">
        <ele>222.2</ele>
        <time>2020-07-04T09:14:21Z</time>
      </trkpt>
      <trkpt lat="46.7114740" lon="3.1138030">
        <ele>222.4</ele>
        <time>2020-07-04T09:14:23Z</time>
      </trkpt>
      <trkpt lat="46.7110050" lon="3.1143130">
        <ele>222.4</ele>
        <time>2020-07-04T09:14:33Z</time>
      </trkpt>
      <trkpt lat="46.7108610" lon="3.1144710">
        <ele>222.4</ele>
        <time>2020-07-04T09:14:36Z</time>
      </trkpt>
      <trkpt lat="46.7107650" lon="3.1145740">
        <ele>222.4</ele>
        <time>2020-07-04T09:14:38Z</time>
      </trkpt>
      <trkpt lat="46.7105220" lon="3.1148320">
        <ele>222.6</ele>
        <time>2020-07-04T09:14:43Z</time>
      </trkpt>
      <trkpt lat="46.7100930" lon="3.1153030">
        <ele>222.2</ele>
        <time>2020-07-04T09:14:52Z</time>
      </trkpt>
      <trkpt lat="46.7096690" lon="3.1158050">
        <ele>221.6</ele>
        <time>2020-07-04T09:15:01Z</time>
      </trkpt>
      <trkpt lat="46.7095500" lon="3.1159920">
        <ele>221.6</ele>
        <time>2020-07-04T09:15:04Z</time>
      </trkpt>
      <trkpt lat="46.7092030" lon="3.1166600">
        <ele>221.4</ele>
        <time>2020-07-04T09:15:14Z</time>
      </trkpt>
      <trkpt lat="46.7091720" lon="3.1167290">
        <ele>221.4</ele>
        <time>2020-07-04T09:15:15Z</time>
      </trkpt>
      <trkpt lat="46.7089430" lon="3.1171790">
        <ele>220.8</ele>
        <time>2020-07-04T09:15:21Z</time>
      </trkpt>
      <trkpt lat="46.7087930" lon="3.1174780">
        <ele>220.6</ele>
        <time>2020-07-04T09:15:25Z</time>
      </trkpt>
      <trkpt lat="46.7084590" lon="3.1181570">
        <ele>219.6</ele>
        <time>2020-07-04T09:15:34Z</time>
      </trkpt>
      <trkpt lat="46.7082620" lon="3.1185230">
        <ele>218.8</ele>
        <time>2020-07-04T09:15:39Z</time>
      </trkpt>
      <trkpt lat="46.7079370" lon="3.1191610">
        <ele>217.8</ele>
        <time>2020-07-04T09:15:47Z</time>
      </trkpt>
      <trkpt lat="46.7078950" lon="3.1192460">
        <ele>217.4</ele>
        <time>2020-07-04T09:15:48Z</time>
      </trkpt>
      <trkpt lat="46.7078540" lon="3.1193320">
        <ele>217.4</ele>
        <time>2020-07-04T09:15:49Z</time>
      </trkpt>
      <trkpt lat="46.7077240" lon="3.1195960">
        <ele>216.8</ele>
        <time>2020-07-04T09:15:52Z</time>
      </trkpt>
      <trkpt lat="46.7075860" lon="3.1198670">
        <ele>216.4</ele>
        <time>2020-07-04T09:15:55Z</time>
      </trkpt>
      <trkpt lat="46.7074420" lon="3.1201540">
        <ele>215.8</ele>
        <time>2020-07-04T09:15:58Z</time>
      </trkpt>
      <trkpt lat="46.7072950" lon="3.1204380">
        <ele>215.6</ele>
        <time>2020-07-04T09:16:01Z</time>
      </trkpt>
      <trkpt lat="46.7071920" lon="3.1206290">
        <ele>215.0</ele>
        <time>2020-07-04T09:16:03Z</time>
      </trkpt>
      <trkpt lat="46.7068510" lon="3.1213070">
        <ele>213.4</ele>
        <time>2020-07-04T09:16:10Z</time>
      </trkpt>
      <trkpt lat="46.7067000" lon="3.1215840">
        <ele>211.2</ele>
        <time>2020-07-04T09:16:13Z</time>
      </trkpt>
      <trkpt lat="46.7064950" lon="3.1219680">
        <ele>210.6</ele>
        <time>2020-07-04T09:16:17Z</time>
      </trkpt>
      <trkpt lat="46.7062460" lon="3.1224330">
        <ele>209.4</ele>
        <time>2020-07-04T09:16:22Z</time>
      </trkpt>
      <trkpt lat="46.7060650" lon="3.1227680">
        <ele>208.8</ele>
        <time>2020-07-04T09:16:26Z</time>
      </trkpt>
      <trkpt lat="46.7059350" lon="3.1229800">
        <ele>209.0</ele>
        <time>2020-07-04T09:16:29Z</time>
      </trkpt>
      <trkpt lat="46.7057130" lon="3.1232950">
        <ele>209.0</ele>
        <time>2020-07-04T09:16:34Z</time>
      </trkpt>
      <trkpt lat="46.7055210" lon="3.1235330">
        <ele>208.8</ele>
        <time>2020-07-04T09:16:38Z</time>
      </trkpt>
      <trkpt lat="46.7052750" lon="3.1238150">
        <ele>209.0</ele>
        <time>2020-07-04T09:16:43Z</time>
      </trkpt>
      <trkpt lat="46.7050440" lon="3.1240780">
        <ele>209.0</ele>
        <time>2020-07-04T09:16:48Z</time>
      </trkpt>
      <trkpt lat="46.7049590" lon="3.1241820">
        <ele>209.0</ele>
        <time>2020-07-04T09:16:50Z</time>
      </trkpt>
      <trkpt lat="46.7049180" lon="3.1242340">
        <ele>209.0</ele>
        <time>2020-07-04T09:16:51Z</time>
      </trkpt>
      <trkpt lat="46.7044860" lon="3.1247500">
        <ele>211.4</ele>
        <time>2020-07-04T09:17:01Z</time>
      </trkpt>
      <trkpt lat="46.7044020" lon="3.1248520">
        <ele>211.6</ele>
        <time>2020-07-04T09:17:03Z</time>
      </trkpt>
      <trkpt lat="46.7039580" lon="3.1253940">
        <ele>212.2</ele>
        <time>2020-07-04T09:17:14Z</time>
      </trkpt>
      <trkpt lat="46.7038790" lon="3.1254920">
        <ele>212.4</ele>
        <time>2020-07-04T09:17:16Z</time>
      </trkpt>
      <trkpt lat="46.7034690" lon="3.1259710">
        <ele>213.0</ele>
        <time>2020-07-04T09:17:26Z</time>
      </trkpt>
      <trkpt lat="46.7033840" lon="3.1260660">
        <ele>213.0</ele>
        <time>2020-07-04T09:17:28Z</time>
      </trkpt>
      <trkpt lat="46.7029940" lon="3.1264500">
        <ele>213.4</ele>
        <time>2020-07-04T09:17:37Z</time>
      </trkpt>
      <trkpt lat="46.7028590" lon="3.1265660">
        <ele>213.8</ele>
        <time>2020-07-04T09:17:40Z</time>
      </trkpt>
      <trkpt lat="46.7025070" lon="3.1268600">
        <ele>214.6</ele>
        <time>2020-07-04T09:17:48Z</time>
      </trkpt>
      <trkpt lat="46.7020360" lon="3.1272720">
        <ele>215.6</ele>
        <time>2020-07-04T09:17:59Z</time>
      </trkpt>
      <trkpt lat="46.7019940" lon="3.1273090">
        <ele>215.4</ele>
        <time>2020-07-04T09:18:00Z</time>
      </trkpt>
      <trkpt lat="46.7016530" lon="3.1276030">
        <ele>215.8</ele>
        <time>2020-07-04T09:18:08Z</time>
      </trkpt>
      <trkpt lat="46.7015220" lon="3.1277260">
        <ele>216.0</ele>
        <time>2020-07-04T09:18:11Z</time>
      </trkpt>
      <trkpt lat="46.7010340" lon="3.1281650">
        <ele>216.0</ele>
        <time>2020-07-04T09:18:22Z</time>
      </trkpt>
      <trkpt lat="46.7009440" lon="3.1282440">
        <ele>216.0</ele>
        <time>2020-07-04T09:18:24Z</time>
      </trkpt>
      <trkpt lat="46.7006100" lon="3.1285510">
        <ele>216.2</ele>
        <time>2020-07-04T09:18:31Z</time>
      </trkpt>
      <trkpt lat="46.7004580" lon="3.1286830">
        <ele>216.0</ele>
        <time>2020-07-04T09:18:34Z</time>
      </trkpt>
      <trkpt lat="46.6999470" lon="3.1291370">
        <ele>215.0</ele>
        <time>2020-07-04T09:18:44Z</time>
      </trkpt>
      <trkpt lat="46.6997370" lon="3.1293250">
        <ele>214.8</ele>
        <time>2020-07-04T09:18:48Z</time>
      </trkpt>
      <trkpt lat="46.6996280" lon="3.1294140">
        <ele>214.8</ele>
        <time>2020-07-04T09:18:50Z</time>
      </trkpt>
      <trkpt lat="46.6993660" lon="3.1296420">
        <ele>214.8</ele>
        <time>2020-07-04T09:18:55Z</time>
      </trkpt>
      <trkpt lat="46.6992660" lon="3.1297360">
        <ele>214.8</ele>
        <time>2020-07-04T09:18:57Z</time>
      </trkpt>
      <trkpt lat="46.6991180" lon="3.1298770">
        <ele>215.0</ele>
        <time>2020-07-04T09:19:00Z</time>
      </trkpt>
      <trkpt lat="46.6986470" lon="3.1302980">
        <ele>214.6</ele>
        <time>2020-07-04T09:19:09Z</time>
      </trkpt>
      <trkpt lat="46.6985980" lon="3.1303420">
        <ele>214.4</ele>
        <time>2020-07-04T09:19:10Z</time>
      </trkpt>
      <trkpt lat="46.6983730" lon="3.1305510">
        <ele>214.4</ele>
        <time>2020-07-04T09:19:15Z</time>
      </trkpt>
      <trkpt lat="46.6982880" lon="3.1306340">
        <ele>214.4</ele>
        <time>2020-07-04T09:19:17Z</time>
      </trkpt>
      <trkpt lat="46.6980760" lon="3.1308690">
        <ele>214.6</ele>
        <time>2020-07-04T09:19:23Z</time>
      </trkpt>
      <trkpt lat="46.6979800" lon="3.1309870">
        <ele>215.2</ele>
        <time>2020-07-04T09:19:26Z</time>
      </trkpt>
      <trkpt lat="46.6979160" lon="3.1310650">
        <ele>215.4</ele>
        <time>2020-07-04T09:19:28Z</time>
      </trkpt>
      <trkpt lat="46.6976330" lon="3.1314330">
        <ele>217.4</ele>
        <time>2020-07-04T09:19:37Z</time>
      </trkpt>
      <trkpt lat="46.6976020" lon="3.1314720">
        <ele>217.6</ele>
        <time>2020-07-04T09:19:38Z</time>
      </trkpt>
      <trkpt lat="46.6973480" lon="3.1317720">
        <ele>218.4</ele>
        <time>2020-07-04T09:19:46Z</time>
      </trkpt>
      <trkpt lat="46.6972290" lon="3.1319400">
        <ele>218.6</ele>
        <time>2020-07-04T09:19:50Z</time>
      </trkpt>
      <trkpt lat="46.6970140" lon="3.1322210">
        <ele>219.6</ele>
        <time>2020-07-04T09:19:57Z</time>
      </trkpt>
      <trkpt lat="46.6966490" lon="3.1327250">
        <ele>219.8</ele>
        <time>2020-07-04T09:20:08Z</time>
      </trkpt>
      <trkpt lat="46.6964870" lon="3.1329260">
        <ele>219.8</ele>
        <time>2020-07-04T09:20:12Z</time>
      </trkpt>
      <trkpt lat="46.6964450" lon="3.1329750">
        <ele>219.8</ele>
        <time>2020-07-04T09:20:13Z</time>
      </trkpt>
      <trkpt lat="46.6964050" lon="3.1330230">
        <ele>219.6</ele>
        <time>2020-07-04T09:20:14Z</time>
      </trkpt>
      <trkpt lat="46.6963280" lon="3.1331240">
        <ele>219.6</ele>
        <time>2020-07-04T09:20:16Z</time>
      </trkpt>
      <trkpt lat="46.6962510" lon="3.1332220">
        <ele>219.6</ele>
        <time>2020-07-04T09:20:18Z</time>
      </trkpt>
      <trkpt lat="46.6961000" lon="3.1334140">
        <ele>219.2</ele>
        <time>2020-07-04T09:20:22Z</time>
      </trkpt>
      <trkpt lat="46.6958750" lon="3.1337010">
        <ele>218.4</ele>
        <time>2020-07-04T09:20:28Z</time>
      </trkpt>
      <trkpt lat="46.6957680" lon="3.1338390">
        <ele>218.0</ele>
        <time>2020-07-04T09:20:31Z</time>
      </trkpt>
      <trkpt lat="46.6954520" lon="3.1342300">
        <ele>217.0</ele>
        <time>2020-07-04T09:20:40Z</time>
      </trkpt>
      <trkpt lat="46.6950010" lon="3.1346830">
        <ele>216.8</ele>
        <time>2020-07-04T09:20:50Z</time>
      </trkpt>
      <trkpt lat="46.6945180" lon="3.1351380">
        <ele>216.8</ele>
        <time>2020-07-04T09:21:00Z</time>
      </trkpt>
      <trkpt lat="46.6943270" lon="3.1353190">
        <ele>216.8</ele>
        <time>2020-07-04T09:21:04Z</time>
      </trkpt>
      <trkpt lat="46.6939590" lon="3.1356770">
        <ele>217.0</ele>
        <time>2020-07-04T09:21:12Z</time>
      </trkpt>
      <trkpt lat="46.6938200" lon="3.1358180">
        <ele>216.8</ele>
        <time>2020-07-04T09:21:15Z</time>
      </trkpt>
      <trkpt lat="46.6935050" lon="3.1361120">
        <ele>217.4</ele>
        <time>2020-07-04T09:21:22Z</time>
      </trkpt>
      <trkpt lat="46.6933690" lon="3.1362300">
        <ele>217.6</ele>
        <time>2020-07-04T09:21:25Z</time>
      </trkpt>
      <trkpt lat="46.6931660" lon="3.1363640">
        <ele>218.0</ele>
        <time>2020-07-04T09:21:29Z</time>
      </trkpt>
      <trkpt lat="46.6929380" lon="3.1364590">
        <ele>217.8</ele>
        <time>2020-07-04T09:21:33Z</time>
      </trkpt>
      <trkpt lat="46.6928790" lon="3.1364740">
        <ele>218.0</ele>
        <time>2020-07-04T09:21:34Z</time>
      </trkpt>
      <trkpt lat="46.6924810" lon="3.1365470">
        <ele>217.2</ele>
        <time>2020-07-04T09:21:41Z</time>
      </trkpt>
      <trkpt lat="46.6923720" lon="3.1365580">
        <ele>216.8</ele>
        <time>2020-07-04T09:21:43Z</time>
      </trkpt>
      <trkpt lat="46.6919750" lon="3.1365790">
        <ele>216.2</ele>
        <time>2020-07-04T09:21:51Z</time>
      </trkpt>
      <trkpt lat="46.6919290" lon="3.1365750">
        <ele>216.0</ele>
        <time>2020-07-04T09:21:52Z</time>
      </trkpt>
      <trkpt lat="46.6917840" lon="3.1365680">
        <ele>216.0</ele>
        <time>2020-07-04T09:21:55Z</time>
      </trkpt>
      <trkpt lat="46.6914800" lon="3.1365790">
        <ele>215.6</ele>
        <time>2020-07-04T09:22:01Z</time>
      </trkpt>
      <trkpt lat="46.6909270" lon="3.1366390">
        <ele>215.6</ele>
        <time>2020-07-04T09:22:11Z</time>
      </trkpt>
      <trkpt lat="46.6903580" lon="3.1367080">
        <ele>215.2</ele>
        <time>2020-07-04T09:22:21Z</time>
      </trkpt>
      <trkpt lat="46.6902470" lon="3.1367230">
        <ele>215.2</ele>
        <time>2020-07-04T09:22:23Z</time>
      </trkpt>
      <trkpt lat="46.6899070" lon="3.1367620">
        <ele>215.4</ele>
        <time>2020-07-04T09:22:29Z</time>
      </trkpt>
      <trkpt lat="46.6896790" lon="3.1367990">
        <ele>215.0</ele>
        <time>2020-07-04T09:22:33Z</time>
      </trkpt>
      <trkpt lat="46.6895640" lon="3.1368220">
        <ele>215.0</ele>
        <time>2020-07-04T09:22:35Z</time>
      </trkpt>
      <trkpt lat="46.6891030" lon="3.1369260">
        <ele>213.2</ele>
        <time>2020-07-04T09:22:43Z</time>
      </trkpt>
      <trkpt lat="46.6889860" lon="3.1369730">
        <ele>212.4</ele>
        <time>2020-07-04T09:22:45Z</time>
      </trkpt>
      <trkpt lat="46.6887330" lon="3.1371110">
        <ele>211.6</ele>
        <time>2020-07-04T09:22:49Z</time>
      </trkpt>
      <trkpt lat="46.6885980" lon="3.1372040">
        <ele>211.6</ele>
        <time>2020-07-04T09:22:51Z</time>
      </trkpt>
      <trkpt lat="46.6883950" lon="3.1373830">
        <ele>211.4</ele>
        <time>2020-07-04T09:22:54Z</time>
      </trkpt>
      <trkpt lat="46.6883300" lon="3.1374530">
        <ele>211.2</ele>
        <time>2020-07-04T09:22:55Z</time>
      </trkpt>
      <trkpt lat="46.6882650" lon="3.1375270">
        <ele>210.8</ele>
        <time>2020-07-04T09:22:56Z</time>
      </trkpt>
      <trkpt lat="46.6880200" lon="3.1378600">
        <ele>209.4</ele>
        <time>2020-07-04T09:23:00Z</time>
      </trkpt>
      <trkpt lat="46.6879070" lon="3.1380410">
        <ele>209.0</ele>
        <time>2020-07-04T09:23:02Z</time>
      </trkpt>
      <trkpt lat="46.6878530" lon="3.1381300">
        <ele>208.6</ele>
        <time>2020-07-04T09:23:03Z</time>
      </trkpt>
      <trkpt lat="46.6875080" lon="3.1387960">
        <ele>205.6</ele>
        <time>2020-07-04T09:23:10Z</time>
      </trkpt>
      <trkpt lat="46.6873880" lon="3.1391130">
        <ele>204.6</ele>
        <time>2020-07-04T09:23:13Z</time>
      </trkpt>
      <trkpt lat="46.6872220" lon="3.1396740">
        <ele>203.8</ele>
        <time>2020-07-04T09:23:18Z</time>
      </trkpt>
      <trkpt lat="46.6871010" lon="3.1401160">
        <ele>202.6</ele>
        <time>2020-07-04T09:23:22Z</time>
      </trkpt>
      <trkpt lat="46.6869860" lon="3.1405350">
        <ele>201.6</ele>
        <time>2020-07-04T09:23:26Z</time>
      </trkpt>
      <trkpt lat="46.6869310" lon="3.1407440">
        <ele>201.4</ele>
        <time>2020-07-04T09:23:28Z</time>
      </trkpt>
      <trkpt lat="46.6868700" lon="3.1409620">
        <ele>201.2</ele>
        <time>2020-07-04T09:23:30Z</time>
      </trkpt>
      <trkpt lat="46.6866870" lon="3.1416020">
        <ele>199.4</ele>
        <time>2020-07-04T09:23:36Z</time>
      </trkpt>
      <trkpt lat="46.6865730" lon="3.1420040">
        <ele>198.2</ele>
        <time>2020-07-04T09:23:40Z</time>
      </trkpt>
      <trkpt lat="46.6863980" lon="3.1426280">
        <ele>197.4</ele>
        <time>2020-07-04T09:23:46Z</time>
      </trkpt>
      <trkpt lat="46.6863690" lon="3.1427330">
        <ele>197.2</ele>
        <time>2020-07-04T09:23:47Z</time>
      </trkpt>
      <trkpt lat="46.6861530" lon="3.1434630">
        <ele>195.8</ele>
        <time>2020-07-04T09:23:54Z</time>
      </trkpt>
      <trkpt lat="46.6860550" lon="3.1437700">
        <ele>195.4</ele>
        <time>2020-07-04T09:23:57Z</time>
      </trkpt>
      <trkpt lat="46.6860210" lon="3.1438720">
        <ele>195.0</ele>
        <time>2020-07-04T09:23:58Z</time>
      </trkpt>
      <trkpt lat="46.6859890" lon="3.1439700">
        <ele>194.8</ele>
        <time>2020-07-04T09:23:59Z</time>
      </trkpt>
      <trkpt lat="46.6857590" lon="3.1447350">
        <ele>194.2</ele>
        <time>2020-07-04T09:24:07Z</time>
      </trkpt>
      <trkpt lat="46.6855440" lon="3.1454080">
        <ele>193.6</ele>
        <time>2020-07-04T09:24:15Z</time>
      </trkpt>
      <trkpt lat="46.6853520" lon="3.1460220">
        <ele>193.6</ele>
        <time>2020-07-04T09:24:23Z</time>
      </trkpt>
      <trkpt lat="46.6852150" lon="3.1465510">
        <ele>193.6</ele>
        <time>2020-07-04T09:24:31Z</time>
      </trkpt>
      <trkpt lat="46.6851270" lon="3.1468350">
        <ele>193.6</ele>
        <time>2020-07-04T09:24:35Z</time>
      </trkpt>
      <trkpt lat="46.6850880" lon="3.1469720">
        <ele>193.4</ele>
        <time>2020-07-04T09:24:37Z</time>
      </trkpt>
      <trkpt lat="46.6849750" lon="3.1473880">
        <ele>193.0</ele>
        <time>2020-07-04T09:24:44Z</time>
      </trkpt>
      <trkpt lat="46.6849680" lon="3.1474260">
        <ele>193.0</ele>
        <time>2020-07-04T09:24:45Z</time>
      </trkpt>
      <trkpt lat="46.6849400" lon="3.1475290">
        <ele>193.0</ele>
        <time>2020-07-04T09:24:50Z</time>
      </trkpt>
      <trkpt lat="46.6849040" lon="3.1476210">
        <ele>193.8</ele>
        <time>2020-07-04T09:25:02Z</time>
      </trkpt>
      <trkpt lat="46.6849090" lon="3.1476380">
        <ele>194.2</ele>
        <time>2020-07-04T09:25:24Z</time>
      </trkpt>
      <trkpt lat="46.6849120" lon="3.1476480">
        <ele>194.0</ele>
        <time>2020-07-04T09:25:46Z</time>
      </trkpt>
      <trkpt lat="46.6849130" lon="3.1476540">
        <ele>194.0</ele>
        <time>2020-07-04T09:26:11Z</time>
      </trkpt>
      <trkpt lat="46.6849130" lon="3.1476560">
        <ele>194.0</ele>
        <time>2020-07-04T09:26:15Z</time>
      </trkpt>
      <trkpt lat="46.6849060" lon="3.1476590">
        <ele>194.0</ele>
        <time>2020-07-04T09:26:34Z</time>
      </trkpt>
      <trkpt lat="46.6849090" lon="3.1476610">
        <ele>194.0</ele>
        <time>2020-07-04T09:26:56Z</time>
      </trkpt>
      <trkpt lat="46.6849090" lon="3.1476650">
        <ele>194.0</ele>
        <time>2020-07-04T09:27:25Z</time>
      </trkpt>
      <trkpt lat="46.6849060" lon="3.1476700">
        <ele>194.0</ele>
        <time>2020-07-04T09:27:47Z</time>
      </trkpt>
      <trkpt lat="46.6849010" lon="3.1476620">
        <ele>194.2</ele>
        <time>2020-07-04T09:28:17Z</time>
      </trkpt>
      <trkpt lat="46.6849000" lon="3.1476610">
        <ele>194.0</ele>
        <time>2020-07-04T09:28:34Z</time>
      </trkpt>
      <trkpt lat="46.6848940" lon="3.1476810">
        <ele>193.8</ele>
        <time>2020-07-04T09:28:49Z</time>
      </trkpt>
      <trkpt lat="46.6848880" lon="3.1476870">
        <ele>193.8</ele>
        <time>2020-07-04T09:29:18Z</time>
      </trkpt>
      <trkpt lat="46.6848620" lon="3.1477050">
        <ele>194.2</ele>
        <time>2020-07-04T09:29:44Z</time>
      </trkpt>
      <trkpt lat="46.6848150" lon="3.1477760">
        <ele>194.4</ele>
        <time>2020-07-04T09:29:50Z</time>
      </trkpt>
      <trkpt lat="46.6848060" lon="3.1478300">
        <ele>194.4</ele>
        <time>2020-07-04T09:29:53Z</time>
      </trkpt>
      <trkpt lat="46.6848040" lon="3.1479110">
        <ele>194.4</ele>
        <time>2020-07-04T09:30:02Z</time>
      </trkpt>
      <trkpt lat="46.6848020" lon="3.1479290">
        <ele>194.2</ele>
        <time>2020-07-04T09:30:22Z</time>
      </trkpt>
      <trkpt lat="46.6848070" lon="3.1479270">
        <ele>194.2</ele>
        <time>2020-07-04T09:30:40Z</time>
      </trkpt>
      <trkpt lat="46.6848130" lon="3.1479310">
        <ele>194.2</ele>
        <time>2020-07-04T09:31:01Z</time>
      </trkpt>
      <trkpt lat="46.6848110" lon="3.1479300">
        <ele>194.0</ele>
        <time>2020-07-04T09:31:26Z</time>
      </trkpt>
      <trkpt lat="46.6848150" lon="3.1479290">
        <ele>194.2</ele>
        <time>2020-07-04T09:31:44Z</time>
      </trkpt>
      <trkpt lat="46.6848170" lon="3.1479260">
        <ele>194.4</ele>
        <time>2020-07-04T09:32:02Z</time>
      </trkpt>
      <trkpt lat="46.6848010" lon="3.1478980">
        <ele>194.4</ele>
        <time>2020-07-04T09:32:20Z</time>
      </trkpt>
      <trkpt lat="46.6847970" lon="3.1479050">
        <ele>194.4</ele>
        <time>2020-07-04T09:32:43Z</time>
      </trkpt>
      <trkpt lat="46.6847990" lon="3.1479100">
        <ele>194.4</ele>
        <time>2020-07-04T09:33:06Z</time>
      </trkpt>
      <trkpt lat="46.6847980" lon="3.1479000">
        <ele>194.4</ele>
        <time>2020-07-04T09:33:31Z</time>
      </trkpt>
      <trkpt lat="46.6848120" lon="3.1479050">
        <ele>194.2</ele>
        <time>2020-07-04T09:33:48Z</time>
      </trkpt>
      <trkpt lat="46.6848190" lon="3.1479120">
        <ele>194.2</ele>
        <time>2020-07-04T09:34:08Z</time>
      </trkpt>
      <trkpt lat="46.6848230" lon="3.1479140">
        <ele>194.4</ele>
        <time>2020-07-04T09:34:26Z</time>
      </trkpt>
      <trkpt lat="46.6848250" lon="3.1479160">
        <ele>194.2</ele>
        <time>2020-07-04T09:34:34Z</time>
      </trkpt>
      <trkpt lat="46.6848240" lon="3.1479200">
        <ele>194.4</ele>
        <time>2020-07-04T09:34:59Z</time>
      </trkpt>
      <trkpt lat="46.6848240" lon="3.1479220">
        <ele>194.4</ele>
        <time>2020-07-04T09:35:03Z</time>
      </trkpt>
      <trkpt lat="46.6848280" lon="3.1479260">
        <ele>194.6</ele>
        <time>2020-07-04T09:35:26Z</time>
      </trkpt>
      <trkpt lat="46.6848360" lon="3.1479100">
        <ele>194.6</ele>
        <time>2020-07-04T09:35:42Z</time>
      </trkpt>
      <trkpt lat="46.6848410" lon="3.1479110">
        <ele>194.6</ele>
        <time>2020-07-04T09:36:10Z</time>
      </trkpt>
      <trkpt lat="46.6848420" lon="3.1479040">
        <ele>194.2</ele>
        <time>2020-07-04T09:36:31Z</time>
      </trkpt>
      <trkpt lat="46.6848360" lon="3.1478990">
        <ele>194.2</ele>
        <time>2020-07-04T09:36:48Z</time>
      </trkpt>
      <trkpt lat="46.6848360" lon="3.1479060">
        <ele>194.4</ele>
        <time>2020-07-04T09:37:08Z</time>
      </trkpt>
      <trkpt lat="46.6848290" lon="3.1479100">
        <ele>194.2</ele>
        <time>2020-07-04T09:37:26Z</time>
      </trkpt>
      <trkpt lat="46.6848300" lon="3.1479190">
        <ele>194.4</ele>
        <time>2020-07-04T09:37:50Z</time>
      </trkpt>
      <trkpt lat="46.6848440" lon="3.1479310">
        <ele>194.6</ele>
        <time>2020-07-04T09:38:05Z</time>
      </trkpt>
      <trkpt lat="46.6848650" lon="3.1479360">
        <ele>194.6</ele>
        <time>2020-07-04T09:38:18Z</time>
      </trkpt>
      <trkpt lat="46.6848800" lon="3.1479520">
        <ele>194.4</ele>
        <time>2020-07-04T09:38:32Z</time>
      </trkpt>
      <trkpt lat="46.6848750" lon="3.1479510">
        <ele>194.4</ele>
        <time>2020-07-04T09:38:52Z</time>
      </trkpt>
      <trkpt lat="46.6848780" lon="3.1479520">
        <ele>194.2</ele>
        <time>2020-07-04T09:39:11Z</time>
      </trkpt>
      <trkpt lat="46.6848790" lon="3.1479500">
        <ele>194.2</ele>
        <time>2020-07-04T09:39:42Z</time>
      </trkpt>
      <trkpt lat="46.6848690" lon="3.1479450">
        <ele>194.2</ele>
        <time>2020-07-04T09:40:11Z</time>
      </trkpt>
      <trkpt lat="46.6848680" lon="3.1479490">
        <ele>194.4</ele>
        <time>2020-07-04T09:40:32Z</time>
      </trkpt>
      <trkpt lat="46.6848200" lon="3.1480040">
        <ele>194.6</ele>
        <time>2020-07-04T09:40:44Z</time>
      </trkpt>
      <trkpt lat="46.6848060" lon="3.1480170">
        <ele>194.6</ele>
        <time>2020-07-04T09:40:45Z</time>
      </trkpt>
      <trkpt lat="46.6846840" lon="3.1481800">
        <ele>194.6</ele>
        <time>2020-07-04T09:40:53Z</time>
      </trkpt>
      <trkpt lat="46.6844950" lon="3.1483410">
        <ele>194.4</ele>
        <time>2020-07-04T09:41:01Z</time>
      </trkpt>
      <trkpt lat="46.6844680" lon="3.1483560">
        <ele>194.6</ele>
        <time>2020-07-04T09:41:02Z</time>
      </trkpt>
      <trkpt lat="46.6843030" lon="3.1484400">
        <ele>194.8</ele>
        <time>2020-07-04T09:41:09Z</time>
      </trkpt>
      <trkpt lat="46.6842800" lon="3.1484460">
        <ele>194.6</ele>
        <time>2020-07-04T09:41:10Z</time>
      </trkpt>
      <trkpt lat="46.6842100" lon="3.1484580">
        <ele>195.2</ele>
        <time>2020-07-04T09:41:13Z</time>
      </trkpt>
      <trkpt lat="46.6840450" lon="3.1484790">
        <ele>196.4</ele>
        <time>2020-07-04T09:41:20Z</time>
      </trkpt>
      <trkpt lat="46.6839990" lon="3.1484780">
        <ele>197.0</ele>
        <time>2020-07-04T09:41:22Z</time>
      </trkpt>
      <trkpt lat="46.6838090" lon="3.1484730">
        <ele>198.4</ele>
        <time>2020-07-04T09:41:32Z</time>
      </trkpt>
      <trkpt lat="46.6836460" lon="3.1484780">
        <ele>199.2</ele>
        <time>2020-07-04T09:41:41Z</time>
      </trkpt>
      <trkpt lat="46.6836260" lon="3.1484810">
        <ele>199.4</ele>
        <time>2020-07-04T09:41:42Z</time>
      </trkpt>
      <trkpt lat="46.6834380" lon="3.1485160">
        <ele>200.6</ele>
        <time>2020-07-04T09:41:52Z</time>
      </trkpt>
      <trkpt lat="46.6833820" lon="3.1485300">
        <ele>200.6</ele>
        <time>2020-07-04T09:41:55Z</time>
      </trkpt>
      <trkpt lat="46.6832700" lon="3.1485740">
        <ele>200.8</ele>
        <time>2020-07-04T09:42:00Z</time>
      </trkpt>
      <trkpt lat="46.6831080" lon="3.1486710">
        <ele>201.8</ele>
        <time>2020-07-04T09:42:07Z</time>
      </trkpt>
      <trkpt lat="46.6830340" lon="3.1487270">
        <ele>202.2</ele>
        <time>2020-07-04T09:42:11Z</time>
      </trkpt>
      <trkpt lat="46.6828680" lon="3.1488890">
        <ele>203.0</ele>
        <time>2020-07-04T09:42:20Z</time>
      </trkpt>
      <trkpt lat="46.6828500" lon="3.1489120">
        <ele>203.2</ele>
        <time>2020-07-04T09:42:21Z</time>
      </trkpt>
      <trkpt lat="46.6827250" lon="3.1490900">
        <ele>203.6</ele>
        <time>2020-07-04T09:42:29Z</time>
      </trkpt>
      <trkpt lat="46.6826820" lon="3.1491650">
        <ele>204.2</ele>
        <time>2020-07-04T09:42:32Z</time>
      </trkpt>
      <trkpt lat="46.6826130" lon="3.1492860">
        <ele>204.6</ele>
        <time>2020-07-04T09:42:37Z</time>
      </trkpt>
      <trkpt lat="46.6825340" lon="3.1494270">
        <ele>205.4</ele>
        <time>2020-07-04T09:42:42Z</time>
      </trkpt>
      <trkpt lat="46.6824870" lon="3.1495210">
        <ele>205.8</ele>
        <time>2020-07-04T09:42:45Z</time>
      </trkpt>
      <trkpt lat="46.6824110" lon="3.1496950">
        <ele>206.6</ele>
        <time>2020-07-04T09:42:51Z</time>
      </trkpt>
      <trkpt lat="46.6823650" lon="3.1498130">
        <ele>207.2</ele>
        <time>2020-07-04T09:42:55Z</time>
      </trkpt>
      <trkpt lat="46.6822830" lon="3.1500250">
        <ele>208.0</ele>
        <time>2020-07-04T09:43:02Z</time>
      </trkpt>
      <trkpt lat="46.6821970" lon="3.1502920">
        <ele>209.2</ele>
        <time>2020-07-04T09:43:11Z</time>
      </trkpt>
      <trkpt lat="46.6821750" lon="3.1503900">
        <ele>209.6</ele>
        <time>2020-07-04T09:43:14Z</time>
      </trkpt>
      <trkpt lat="46.6821210" lon="3.1506210">
        <ele>210.4</ele>
        <time>2020-07-04T09:43:22Z</time>
      </trkpt>
      <trkpt lat="46.6821150" lon="3.1506470">
        <ele>210.6</ele>
        <time>2020-07-04T09:43:23Z</time>
      </trkpt>
      <trkpt lat="46.6820880" lon="3.1508060">
        <ele>211.2</ele>
        <time>2020-07-04T09:43:29Z</time>
      </trkpt>
      <trkpt lat="46.6820700" lon="3.1508880">
        <ele>211.4</ele>
        <time>2020-07-04T09:43:32Z</time>
      </trkpt>
      <trkpt lat="46.6820500" lon="3.1510310">
        <ele>212.0</ele>
        <time>2020-07-04T09:43:37Z</time>
      </trkpt>
      <trkpt lat="46.6820410" lon="3.1511020">
        <ele>212.6</ele>
        <time>2020-07-04T09:43:40Z</time>
      </trkpt>
      <trkpt lat="46.6819890" lon="3.1513080">
        <ele>214.0</ele>
        <time>2020-07-04T09:43:48Z</time>
      </trkpt>
      <trkpt lat="46.6819760" lon="3.1513630">
        <ele>214.0</ele>
        <time>2020-07-04T09:43:50Z</time>
      </trkpt>
      <trkpt lat="46.6819150" lon="3.1516200">
        <ele>214.8</ele>
        <time>2020-07-04T09:43:59Z</time>
      </trkpt>
      <trkpt lat="46.6819100" lon="3.1516520">
        <ele>214.8</ele>
        <time>2020-07-04T09:44:00Z</time>
      </trkpt>
      <trkpt lat="46.6818670" lon="3.1519530">
        <ele>216.0</ele>
        <time>2020-07-04T09:44:10Z</time>
      </trkpt>
      <trkpt lat="46.6818570" lon="3.1520180">
        <ele>216.2</ele>
        <time>2020-07-04T09:44:12Z</time>
      </trkpt>
      <trkpt lat="46.6818300" lon="3.1521400">
        <ele>216.8</ele>
        <time>2020-07-04T09:44:16Z</time>
      </trkpt>
      <trkpt lat="46.6818020" lon="3.1523130">
        <ele>217.4</ele>
        <time>2020-07-04T09:44:22Z</time>
      </trkpt>
      <trkpt lat="46.6817700" lon="3.1525400">
        <ele>218.8</ele>
        <time>2020-07-04T09:44:30Z</time>
      </trkpt>
      <trkpt lat="46.6817600" lon="3.1525980">
        <ele>218.8</ele>
        <time>2020-07-04T09:44:32Z</time>
      </trkpt>
      <trkpt lat="46.6817360" lon="3.1527470">
        <ele>219.0</ele>
        <time>2020-07-04T09:44:37Z</time>
      </trkpt>
      <trkpt lat="46.6817250" lon="3.1528070">
        <ele>219.2</ele>
        <time>2020-07-04T09:44:39Z</time>
      </trkpt>
      <trkpt lat="46.6816990" lon="3.1529930">
        <ele>220.0</ele>
        <time>2020-07-04T09:44:45Z</time>
      </trkpt>
      <trkpt lat="46.6816900" lon="3.1530940">
        <ele>220.4</ele>
        <time>2020-07-04T09:44:48Z</time>
      </trkpt>
      <trkpt lat="46.6816900" lon="3.1531280">
        <ele>220.8</ele>
        <time>2020-07-04T09:44:49Z</time>
      </trkpt>
      <trkpt lat="46.6816670" lon="3.1532790">
        <ele>221.2</ele>
        <time>2020-07-04T09:44:54Z</time>
      </trkpt>
      <trkpt lat="46.6816540" lon="3.1533740">
        <ele>221.6</ele>
        <time>2020-07-04T09:44:57Z</time>
      </trkpt>
      <trkpt lat="46.6816290" lon="3.1535590">
        <ele>222.2</ele>
        <time>2020-07-04T09:45:03Z</time>
      </trkpt>
      <trkpt lat="46.6815980" lon="3.1537160">
        <ele>223.2</ele>
        <time>2020-07-04T09:45:08Z</time>
      </trkpt>
      <trkpt lat="46.6815430" lon="3.1540350">
        <ele>224.0</ele>
        <time>2020-07-04T09:45:18Z</time>
      </trkpt>
      <trkpt lat="46.6815350" lon="3.1540620">
        <ele>224.0</ele>
        <time>2020-07-04T09:45:19Z</time>
      </trkpt>
      <trkpt lat="46.6814920" lon="3.1543410">
        <ele>224.4</ele>
        <time>2020-07-04T09:45:27Z</time>
      </trkpt>
      <trkpt lat="46.6814300" lon="3.1547630">
        <ele>226.0</ele>
        <time>2020-07-04T09:45:38Z</time>
      </trkpt>
      <trkpt lat="46.6813840" lon="3.1551030">
        <ele>226.4</ele>
        <time>2020-07-04T09:45:46Z</time>
      </trkpt>
      <trkpt lat="46.6813260" lon="3.1555640">
        <ele>226.8</ele>
        <time>2020-07-04T09:45:56Z</time>
      </trkpt>
      <trkpt lat="46.6813100" lon="3.1556620">
        <ele>226.8</ele>
        <time>2020-07-04T09:45:58Z</time>
      </trkpt>
      <trkpt lat="46.6813040" lon="3.1557120">
        <ele>226.8</ele>
        <time>2020-07-04T09:45:59Z</time>
      </trkpt>
      <trkpt lat="46.6812620" lon="3.1558550">
        <ele>226.6</ele>
        <time>2020-07-04T09:46:02Z</time>
      </trkpt>
      <trkpt lat="46.6811300" lon="3.1559230">
        <ele>226.2</ele>
        <time>2020-07-04T09:46:06Z</time>
      </trkpt>
      <trkpt lat="46.6809700" lon="3.1558610">
        <ele>226.4</ele>
        <time>2020-07-04T09:46:11Z</time>
      </trkpt>
      <trkpt lat="46.6809380" lon="3.1558500">
        <ele>226.2</ele>
        <time>2020-07-04T09:46:12Z</time>
      </trkpt>
      <trkpt lat="46.6807080" lon="3.1557370">
        <ele>227.0</ele>
        <time>2020-07-04T09:46:20Z</time>
      </trkpt>
      <trkpt lat="46.6806260" lon="3.1556980">
        <ele>227.4</ele>
        <time>2020-07-04T09:46:23Z</time>
      </trkpt>
      <trkpt lat="46.6804000" lon="3.1555970">
        <ele>228.6</ele>
        <time>2020-07-04T09:46:31Z</time>
      </trkpt>
      <trkpt lat="46.6801500" lon="3.1554990">
        <ele>229.2</ele>
        <time>2020-07-04T09:46:39Z</time>
      </trkpt>
      <trkpt lat="46.6800540" lon="3.1554620">
        <ele>229.2</ele>
        <time>2020-07-04T09:46:42Z</time>
      </trkpt>
      <trkpt lat="46.6799380" lon="3.1554210">
        <ele>229.4</ele>
        <time>2020-07-04T09:46:46Z</time>
      </trkpt>
      <trkpt lat="46.6797850" lon="3.1553750">
        <ele>229.6</ele>
        <time>2020-07-04T09:46:51Z</time>
      </trkpt>
      <trkpt lat="46.6797540" lon="3.1553610">
        <ele>229.8</ele>
        <time>2020-07-04T09:46:52Z</time>
      </trkpt>
      <trkpt lat="46.6795620" lon="3.1552890">
        <ele>230.0</ele>
        <time>2020-07-04T09:46:58Z</time>
      </trkpt>
      <trkpt lat="46.6794960" lon="3.1552700">
        <ele>230.2</ele>
        <time>2020-07-04T09:47:00Z</time>
      </trkpt>
      <trkpt lat="46.6793540" lon="3.1552260">
        <ele>230.4</ele>
        <time>2020-07-04T09:47:04Z</time>
      </trkpt>
      <trkpt lat="46.6791820" lon="3.1551570">
        <ele>230.8</ele>
        <time>2020-07-04T09:47:09Z</time>
      </trkpt>
      <trkpt lat="46.6790350" lon="3.1551140">
        <ele>231.4</ele>
        <time>2020-07-04T09:47:13Z</time>
      </trkpt>
      <trkpt lat="46.6788510" lon="3.1550390">
        <ele>231.8</ele>
        <time>2020-07-04T09:47:18Z</time>
      </trkpt>
      <trkpt lat="46.6785180" lon="3.1548980">
        <ele>231.8</ele>
        <time>2020-07-04T09:47:27Z</time>
      </trkpt>
      <trkpt lat="46.6784020" lon="3.1548790">
        <ele>231.8</ele>
        <time>2020-07-04T09:47:30Z</time>
      </trkpt>
      <trkpt lat="46.6783240" lon="3.1548670">
        <ele>232.0</ele>
        <time>2020-07-04T09:47:32Z</time>
      </trkpt>
      <trkpt lat="46.6780860" lon="3.1548320">
        <ele>231.8</ele>
        <time>2020-07-04T09:47:38Z</time>
      </trkpt>
      <trkpt lat="46.6777260" lon="3.1548650">
        <ele>231.8</ele>
        <time>2020-07-04T09:47:47Z</time>
      </trkpt>
      <trkpt lat="46.6776510" lon="3.1548800">
        <ele>232.0</ele>
        <time>2020-07-04T09:47:49Z</time>
      </trkpt>
      <trkpt lat="46.6773300" lon="3.1549330">
        <ele>232.2</ele>
        <time>2020-07-04T09:47:57Z</time>
      </trkpt>
      <trkpt lat="46.6769770" lon="3.1550050">
        <ele>232.6</ele>
        <time>2020-07-04T09:48:06Z</time>
      </trkpt>
      <trkpt lat="46.6766230" lon="3.1550760">
        <ele>232.6</ele>
        <time>2020-07-04T09:48:14Z</time>
      </trkpt>
      <trkpt lat="46.6761630" lon="3.1551690">
        <ele>232.4</ele>
        <time>2020-07-04T09:48:24Z</time>
      </trkpt>
      <trkpt lat="46.6760370" lon="3.1551930">
        <ele>232.4</ele>
        <time>2020-07-04T09:48:27Z</time>
      </trkpt>
      <trkpt lat="46.6758380" lon="3.1552020">
        <ele>232.4</ele>
        <time>2020-07-04T09:48:31Z</time>
      </trkpt>
      <trkpt lat="46.6752710" lon="3.1552970">
        <ele>232.4</ele>
        <time>2020-07-04T09:48:41Z</time>
      </trkpt>
      <trkpt lat="46.6752160" lon="3.1553100">
        <ele>232.6</ele>
        <time>2020-07-04T09:48:42Z</time>
      </trkpt>
      <trkpt lat="46.6747180" lon="3.1554340">
        <ele>232.6</ele>
        <time>2020-07-04T09:48:51Z</time>
      </trkpt>
      <trkpt lat="46.6746660" lon="3.1554560">
        <ele>232.8</ele>
        <time>2020-07-04T09:48:52Z</time>
      </trkpt>
      <trkpt lat="46.6743700" lon="3.1556270">
        <ele>232.8</ele>
        <time>2020-07-04T09:48:58Z</time>
      </trkpt>
      <trkpt lat="46.6739550" lon="3.1558740">
        <ele>233.8</ele>
        <time>2020-07-04T09:49:08Z</time>
      </trkpt>
      <trkpt lat="46.6739160" lon="3.1558980">
        <ele>234.0</ele>
        <time>2020-07-04T09:49:09Z</time>
      </trkpt>
      <trkpt lat="46.6737570" lon="3.1559930">
        <ele>234.4</ele>
        <time>2020-07-04T09:49:13Z</time>
      </trkpt>
      <trkpt lat="46.6734800" lon="3.1561690">
        <ele>235.2</ele>
        <time>2020-07-04T09:49:20Z</time>
      </trkpt>
      <trkpt lat="46.6731730" lon="3.1563620">
        <ele>235.8</ele>
        <time>2020-07-04T09:49:28Z</time>
      </trkpt>
      <trkpt lat="46.6730140" lon="3.1564520">
        <ele>236.6</ele>
        <time>2020-07-04T09:49:32Z</time>
      </trkpt>
      <trkpt lat="46.6727030" lon="3.1566250">
        <ele>237.0</ele>
        <time>2020-07-04T09:49:40Z</time>
      </trkpt>
      <trkpt lat="46.6725450" lon="3.1567130">
        <ele>237.2</ele>
        <time>2020-07-04T09:49:44Z</time>
      </trkpt>
      <trkpt lat="46.6720930" lon="3.1569520">
        <ele>238.0</ele>
        <time>2020-07-04T09:49:55Z</time>
      </trkpt>
      <trkpt lat="46.6720190" lon="3.1569980">
        <ele>238.0</ele>
        <time>2020-07-04T09:49:57Z</time>
      </trkpt>
      <trkpt lat="46.6716600" lon="3.1572130">
        <ele>238.6</ele>
        <time>2020-07-04T09:50:06Z</time>
      </trkpt>
      <trkpt lat="46.6712350" lon="3.1574580">
        <ele>239.4</ele>
        <time>2020-07-04T09:50:16Z</time>
      </trkpt>
      <trkpt lat="46.6707290" lon="3.1577550">
        <ele>239.6</ele>
        <time>2020-07-04T09:50:28Z</time>
      </trkpt>
      <trkpt lat="46.6706060" lon="3.1578300">
        <ele>239.6</ele>
        <time>2020-07-04T09:50:31Z</time>
      </trkpt>
      <trkpt lat="46.6703120" lon="3.1579690">
        <ele>239.8</ele>
        <time>2020-07-04T09:50:38Z</time>
      </trkpt>
      <trkpt lat="46.6698940" lon="3.1582040">
        <ele>240.8</ele>
        <time>2020-07-04T09:50:48Z</time>
      </trkpt>
      <trkpt lat="46.6695810" lon="3.1584560">
        <ele>240.8</ele>
        <time>2020-07-04T09:50:56Z</time>
      </trkpt>
      <trkpt lat="46.6695070" lon="3.1585310">
        <ele>241.0</ele>
        <time>2020-07-04T09:50:58Z</time>
      </trkpt>
      <trkpt lat="46.6691410" lon="3.1589680">
        <ele>241.2</ele>
        <time>2020-07-04T09:51:08Z</time>
      </trkpt>
      <trkpt lat="46.6688010" lon="3.1594370">
        <ele>241.4</ele>
        <time>2020-07-04T09:51:18Z</time>
      </trkpt>
      <trkpt lat="46.6684920" lon="3.1598870">
        <ele>241.4</ele>
        <time>2020-07-04T09:51:27Z</time>
      </trkpt>
      <trkpt lat="46.6683520" lon="3.1601040">
        <ele>241.4</ele>
        <time>2020-07-04T09:51:31Z</time>
      </trkpt>
      <trkpt lat="46.6681560" lon="3.1603910">
        <ele>241.2</ele>
        <time>2020-07-04T09:51:36Z</time>
      </trkpt>
      <trkpt lat="46.6680410" lon="3.1605620">
        <ele>241.0</ele>
        <time>2020-07-04T09:51:39Z</time>
      </trkpt>
      <trkpt lat="46.6676800" lon="3.1610780">
        <ele>240.0</ele>
        <time>2020-07-04T09:51:48Z</time>
      </trkpt>
      <trkpt lat="46.6674100" lon="3.1612900">
        <ele>239.4</ele>
        <time>2020-07-04T09:51:54Z</time>
      </trkpt>
      <trkpt lat="46.6673660" lon="3.1613070">
        <ele>239.6</ele>
        <time>2020-07-04T09:51:55Z</time>
      </trkpt>
      <trkpt lat="46.6671200" lon="3.1613930">
        <ele>239.6</ele>
        <time>2020-07-04T09:52:00Z</time>
      </trkpt>
      <trkpt lat="46.6666520" lon="3.1614780">
        <ele>240.2</ele>
        <time>2020-07-04T09:52:09Z</time>
      </trkpt>
      <trkpt lat="46.6664530" lon="3.1614860">
        <ele>240.4</ele>
        <time>2020-07-04T09:52:13Z</time>
      </trkpt>
      <trkpt lat="46.6662010" lon="3.1615300">
        <ele>240.6</ele>
        <time>2020-07-04T09:52:18Z</time>
      </trkpt>
      <trkpt lat="46.6660510" lon="3.1615700">
        <ele>240.8</ele>
        <time>2020-07-04T09:52:21Z</time>
      </trkpt>
      <trkpt lat="46.6657180" lon="3.1616320">
        <ele>241.4</ele>
        <time>2020-07-04T09:52:28Z</time>
      </trkpt>
      <trkpt lat="46.6654860" lon="3.1616680">
        <ele>241.6</ele>
        <time>2020-07-04T09:52:33Z</time>
      </trkpt>
      <trkpt lat="46.6652960" lon="3.1616950">
        <ele>242.4</ele>
        <time>2020-07-04T09:52:37Z</time>
      </trkpt>
      <trkpt lat="46.6647560" lon="3.1617840">
        <ele>243.2</ele>
        <time>2020-07-04T09:52:48Z</time>
      </trkpt>
      <trkpt lat="46.6644870" lon="3.1618380">
        <ele>243.6</ele>
        <time>2020-07-04T09:52:54Z</time>
      </trkpt>
      <trkpt lat="46.6643900" lon="3.1618620">
        <ele>243.6</ele>
        <time>2020-07-04T09:52:56Z</time>
      </trkpt>
      <trkpt lat="46.6640630" lon="3.1619190">
        <ele>244.0</ele>
        <time>2020-07-04T09:53:03Z</time>
      </trkpt>
      <trkpt lat="46.6636130" lon="3.1619810">
        <ele>244.2</ele>
        <time>2020-07-04T09:53:12Z</time>
      </trkpt>
      <trkpt lat="46.6632180" lon="3.1620450">
        <ele>244.0</ele>
        <time>2020-07-04T09:53:20Z</time>
      </trkpt>
      <trkpt lat="46.6631640" lon="3.1620520">
        <ele>244.0</ele>
        <time>2020-07-04T09:53:21Z</time>
      </trkpt>
      <trkpt lat="46.6630060" lon="3.1620890">
        <ele>244.0</ele>
        <time>2020-07-04T09:53:24Z</time>
      </trkpt>
      <trkpt lat="46.6627990" lon="3.1621430">
        <ele>244.0</ele>
        <time>2020-07-04T09:53:28Z</time>
      </trkpt>
      <trkpt lat="46.6626110" lon="3.1621720">
        <ele>243.8</ele>
        <time>2020-07-04T09:53:32Z</time>
      </trkpt>
      <trkpt lat="46.6623720" lon="3.1622280">
        <ele>244.6</ele>
        <time>2020-07-04T09:53:37Z</time>
      </trkpt>
      <trkpt lat="46.6620230" lon="3.1622750">
        <ele>245.8</ele>
        <time>2020-07-04T09:53:45Z</time>
      </trkpt>
      <trkpt lat="46.6619290" lon="3.1622980">
        <ele>245.8</ele>
        <time>2020-07-04T09:53:47Z</time>
      </trkpt>
      <trkpt lat="46.6616140" lon="3.1623790">
        <ele>246.6</ele>
        <time>2020-07-04T09:53:54Z</time>
      </trkpt>
      <trkpt lat="46.6615230" lon="3.1623970">
        <ele>247.0</ele>
        <time>2020-07-04T09:53:56Z</time>
      </trkpt>
      <trkpt lat="46.6612400" lon="3.1624430">
        <ele>247.8</ele>
        <time>2020-07-04T09:54:03Z</time>
      </trkpt>
      <trkpt lat="46.6612070" lon="3.1624510">
        <ele>247.8</ele>
        <time>2020-07-04T09:54:04Z</time>
      </trkpt>
      <trkpt lat="46.6611760" lon="3.1624570">
        <ele>248.0</ele>
        <time>2020-07-04T09:54:05Z</time>
      </trkpt>
      <trkpt lat="46.6609260" lon="3.1625140">
        <ele>249.0</ele>
        <time>2020-07-04T09:54:13Z</time>
      </trkpt>
      <trkpt lat="46.6606210" lon="3.1625730">
        <ele>249.0</ele>
        <time>2020-07-04T09:54:21Z</time>
      </trkpt>
      <trkpt lat="46.6602660" lon="3.1626320">
        <ele>248.8</ele>
        <time>2020-07-04T09:54:29Z</time>
      </trkpt>
      <trkpt lat="46.6601730" lon="3.1626260">
        <ele>248.8</ele>
        <time>2020-07-04T09:54:31Z</time>
      </trkpt>
      <trkpt lat="46.6601200" lon="3.1626190">
        <ele>248.8</ele>
        <time>2020-07-04T09:54:32Z</time>
      </trkpt>
      <trkpt lat="46.6598780" lon="3.1626040">
        <ele>248.6</ele>
        <time>2020-07-04T09:54:36Z</time>
      </trkpt>
      <trkpt lat="46.6597500" lon="3.1625850">
        <ele>248.4</ele>
        <time>2020-07-04T09:54:38Z</time>
      </trkpt>
      <trkpt lat="46.6596090" lon="3.1625600">
        <ele>248.0</ele>
        <time>2020-07-04T09:54:40Z</time>
      </trkpt>
      <trkpt lat="46.6592860" lon="3.1624820">
        <ele>246.4</ele>
        <time>2020-07-04T09:54:44Z</time>
      </trkpt>
      <trkpt lat="46.6590190" lon="3.1624290">
        <ele>244.6</ele>
        <time>2020-07-04T09:54:47Z</time>
      </trkpt>
      <trkpt lat="46.6589260" lon="3.1624170">
        <ele>244.6</ele>
        <time>2020-07-04T09:54:48Z</time>
      </trkpt>
      <trkpt lat="46.6586690" lon="3.1623790">
        <ele>243.4</ele>
        <time>2020-07-04T09:54:51Z</time>
      </trkpt>
      <trkpt lat="46.6585010" lon="3.1623570">
        <ele>242.6</ele>
        <time>2020-07-04T09:54:53Z</time>
      </trkpt>
      <trkpt lat="46.6583340" lon="3.1623500">
        <ele>241.6</ele>
        <time>2020-07-04T09:54:55Z</time>
      </trkpt>
      <trkpt lat="46.6581580" lon="3.1623560">
        <ele>240.6</ele>
        <time>2020-07-04T09:54:57Z</time>
      </trkpt>
      <trkpt lat="46.6580700" lon="3.1623670">
        <ele>240.2</ele>
        <time>2020-07-04T09:54:58Z</time>
      </trkpt>
      <trkpt lat="46.6578920" lon="3.1623970">
        <ele>239.8</ele>
        <time>2020-07-04T09:55:00Z</time>
      </trkpt>
      <trkpt lat="46.6577020" lon="3.1624570">
        <ele>239.0</ele>
        <time>2020-07-04T09:55:02Z</time>
      </trkpt>
      <trkpt lat="46.6575990" lon="3.1624940">
        <ele>238.6</ele>
        <time>2020-07-04T09:55:03Z</time>
      </trkpt>
      <trkpt lat="46.6573790" lon="3.1625740">
        <ele>237.6</ele>
        <time>2020-07-04T09:55:05Z</time>
      </trkpt>
      <trkpt lat="46.6572720" lon="3.1626150">
        <ele>236.6</ele>
        <time>2020-07-04T09:55:06Z</time>
      </trkpt>
      <trkpt lat="46.6570530" lon="3.1627050">
        <ele>234.4</ele>
        <time>2020-07-04T09:55:08Z</time>
      </trkpt>
      <trkpt lat="46.6569400" lon="3.1627580">
        <ele>233.6</ele>
        <time>2020-07-04T09:55:09Z</time>
      </trkpt>
      <trkpt lat="46.6567120" lon="3.1628680">
        <ele>231.4</ele>
        <time>2020-07-04T09:55:11Z</time>
      </trkpt>
      <trkpt lat="46.6565960" lon="3.1629190">
        <ele>231.0</ele>
        <time>2020-07-04T09:55:12Z</time>
      </trkpt>
      <trkpt lat="46.6564830" lon="3.1629670">
        <ele>230.0</ele>
        <time>2020-07-04T09:55:13Z</time>
      </trkpt>
      <trkpt lat="46.6561590" lon="3.1631160">
        <ele>226.6</ele>
        <time>2020-07-04T09:55:16Z</time>
      </trkpt>
      <trkpt lat="46.6558480" lon="3.1632650">
        <ele>224.6</ele>
        <time>2020-07-04T09:55:19Z</time>
      </trkpt>
      <trkpt lat="46.6556500" lon="3.1633590">
        <ele>224.0</ele>
        <time>2020-07-04T09:55:21Z</time>
      </trkpt>
      <trkpt lat="46.6550840" lon="3.1635890">
        <ele>219.6</ele>
        <time>2020-07-04T09:55:27Z</time>
      </trkpt>
      <trkpt lat="46.6545590" lon="3.1638280">
        <ele>217.8</ele>
        <time>2020-07-04T09:55:33Z</time>
      </trkpt>
      <trkpt lat="46.6543860" lon="3.1638970">
        <ele>217.4</ele>
        <time>2020-07-04T09:55:35Z</time>
      </trkpt>
      <trkpt lat="46.6543000" lon="3.1639320">
        <ele>216.8</ele>
        <time>2020-07-04T09:55:36Z</time>
      </trkpt>
      <trkpt lat="46.6537470" lon="3.1641610">
        <ele>215.2</ele>
        <time>2020-07-04T09:55:43Z</time>
      </trkpt>
      <trkpt lat="46.6536770" lon="3.1641940">
        <ele>215.2</ele>
        <time>2020-07-04T09:55:44Z</time>
      </trkpt>
      <trkpt lat="46.6536110" lon="3.1642240">
        <ele>215.2</ele>
        <time>2020-07-04T09:55:45Z</time>
      </trkpt>
      <trkpt lat="46.6531650" lon="3.1644410">
        <ele>215.2</ele>
        <time>2020-07-04T09:55:52Z</time>
      </trkpt>
      <trkpt lat="46.6525980" lon="3.1646930">
        <ele>216.0</ele>
        <time>2020-07-04T09:56:01Z</time>
      </trkpt>
      <trkpt lat="46.6524720" lon="3.1647400">
        <ele>216.2</ele>
        <time>2020-07-04T09:56:03Z</time>
      </trkpt>
      <trkpt lat="46.6523460" lon="3.1647880">
        <ele>216.4</ele>
        <time>2020-07-04T09:56:05Z</time>
      </trkpt>
      <trkpt lat="46.6519070" lon="3.1649920">
        <ele>215.2</ele>
        <time>2020-07-04T09:56:12Z</time>
      </trkpt>
      <trkpt lat="46.6518450" lon="3.1650240">
        <ele>214.8</ele>
        <time>2020-07-04T09:56:13Z</time>
      </trkpt>
      <trkpt lat="46.6512970" lon="3.1652630">
        <ele>213.4</ele>
        <time>2020-07-04T09:56:21Z</time>
      </trkpt>
      <trkpt lat="46.6509560" lon="3.1654030">
        <ele>212.8</ele>
        <time>2020-07-04T09:56:27Z</time>
      </trkpt>
      <trkpt lat="46.6505780" lon="3.1655460">
        <ele>212.6</ele>
        <time>2020-07-04T09:56:34Z</time>
      </trkpt>
      <trkpt lat="46.6505300" lon="3.1655590">
        <ele>212.8</ele>
        <time>2020-07-04T09:56:35Z</time>
      </trkpt>
      <trkpt lat="46.6502520" lon="3.1656960">
        <ele>213.2</ele>
        <time>2020-07-04T09:56:41Z</time>
      </trkpt>
      <trkpt lat="46.6496880" lon="3.1659320">
        <ele>213.8</ele>
        <time>2020-07-04T09:56:52Z</time>
      </trkpt>
      <trkpt lat="46.6494970" lon="3.1660010">
        <ele>214.0</ele>
        <time>2020-07-04T09:56:56Z</time>
      </trkpt>
      <trkpt lat="46.6492110" lon="3.1661210">
        <ele>214.2</ele>
        <time>2020-07-04T09:57:02Z</time>
      </trkpt>
      <trkpt lat="46.6491620" lon="3.1661410">
        <ele>214.2</ele>
        <time>2020-07-04T09:57:03Z</time>
      </trkpt>
      <trkpt lat="46.6488740" lon="3.1662560">
        <ele>215.2</ele>
        <time>2020-07-04T09:57:09Z</time>
      </trkpt>
      <trkpt lat="46.6486210" lon="3.1663570">
        <ele>216.2</ele>
        <time>2020-07-04T09:57:15Z</time>
      </trkpt>
      <trkpt lat="46.6482930" lon="3.1664150">
        <ele>216.2</ele>
        <time>2020-07-04T09:57:22Z</time>
      </trkpt>
      <trkpt lat="46.6480500" lon="3.1664220">
        <ele>216.4</ele>
        <time>2020-07-04T09:57:26Z</time>
      </trkpt>
      <trkpt lat="46.6479150" lon="3.1664090">
        <ele>215.8</ele>
        <time>2020-07-04T09:57:28Z</time>
      </trkpt>
      <trkpt lat="46.6475560" lon="3.1663480">
        <ele>215.0</ele>
        <time>2020-07-04T09:57:34Z</time>
      </trkpt>
      <trkpt lat="46.6475040" lon="3.1663290">
        <ele>214.8</ele>
        <time>2020-07-04T09:57:35Z</time>
      </trkpt>
      <trkpt lat="46.6473960" lon="3.1662940">
        <ele>214.8</ele>
        <time>2020-07-04T09:57:37Z</time>
      </trkpt>
      <trkpt lat="46.6472420" lon="3.1662490">
        <ele>214.6</ele>
        <time>2020-07-04T09:57:40Z</time>
      </trkpt>
      <trkpt lat="46.6470560" lon="3.1662050">
        <ele>214.8</ele>
        <time>2020-07-04T09:57:44Z</time>
      </trkpt>
      <trkpt lat="46.6470160" lon="3.1661900">
        <ele>215.2</ele>
        <time>2020-07-04T09:57:45Z</time>
      </trkpt>
      <trkpt lat="46.6467830" lon="3.1660980">
        <ele>217.4</ele>
        <time>2020-07-04T09:57:52Z</time>
      </trkpt>
      <trkpt lat="46.6466250" lon="3.1660300">
        <ele>218.6</ele>
        <time>2020-07-04T09:57:58Z</time>
      </trkpt>
      <trkpt lat="46.6465480" lon="3.1659990">
        <ele>219.2</ele>
        <time>2020-07-04T09:58:01Z</time>
      </trkpt>
      <trkpt lat="46.6462860" lon="3.1659230">
        <ele>221.0</ele>
        <time>2020-07-04T09:58:11Z</time>
      </trkpt>
      <trkpt lat="46.6462570" lon="3.1659120">
        <ele>221.0</ele>
        <time>2020-07-04T09:58:12Z</time>
      </trkpt>
      <trkpt lat="46.6459900" lon="3.1658110">
        <ele>221.8</ele>
        <time>2020-07-04T09:58:20Z</time>
      </trkpt>
      <trkpt lat="46.6456630" lon="3.1656650">
        <ele>222.4</ele>
        <time>2020-07-04T09:58:28Z</time>
      </trkpt>
      <trkpt lat="46.6452160" lon="3.1654340">
        <ele>222.2</ele>
        <time>2020-07-04T09:58:38Z</time>
      </trkpt>
      <trkpt lat="46.6451140" lon="3.1653790">
        <ele>222.2</ele>
        <time>2020-07-04T09:58:40Z</time>
      </trkpt>
      <trkpt lat="46.6447300" lon="3.1651930">
        <ele>221.4</ele>
        <time>2020-07-04T09:58:47Z</time>
      </trkpt>
      <trkpt lat="46.6443930" lon="3.1650070">
        <ele>221.0</ele>
        <time>2020-07-04T09:58:54Z</time>
      </trkpt>
      <trkpt lat="46.6442430" lon="3.1649420">
        <ele>220.8</ele>
        <time>2020-07-04T09:58:57Z</time>
      </trkpt>
      <trkpt lat="46.6438870" lon="3.1647600">
        <ele>220.6</ele>
        <time>2020-07-04T09:59:04Z</time>
      </trkpt>
      <trkpt lat="46.6438240" lon="3.1647400">
        <ele>220.4</ele>
        <time>2020-07-04T09:59:05Z</time>
      </trkpt>
      <trkpt lat="46.6437650" lon="3.1647160">
        <ele>220.6</ele>
        <time>2020-07-04T09:59:06Z</time>
      </trkpt>
      <trkpt lat="46.6437050" lon="3.1646880">
        <ele>220.4</ele>
        <time>2020-07-04T09:59:07Z</time>
      </trkpt>
      <trkpt lat="46.6434590" lon="3.1645740">
        <ele>220.0</ele>
        <time>2020-07-04T09:59:11Z</time>
      </trkpt>
      <trkpt lat="46.6434000" lon="3.1645430">
        <ele>220.0</ele>
        <time>2020-07-04T09:59:12Z</time>
      </trkpt>
      <trkpt lat="46.6431630" lon="3.1644550">
        <ele>219.6</ele>
        <time>2020-07-04T09:59:16Z</time>
      </trkpt>
      <trkpt lat="46.6430430" lon="3.1644050">
        <ele>219.4</ele>
        <time>2020-07-04T09:59:18Z</time>
      </trkpt>
      <trkpt lat="46.6429910" lon="3.1643710">
        <ele>219.4</ele>
        <time>2020-07-04T09:59:19Z</time>
      </trkpt>
      <trkpt lat="46.6428960" lon="3.1642900">
        <ele>219.2</ele>
        <time>2020-07-04T09:59:21Z</time>
      </trkpt>
      <trkpt lat="46.6428090" lon="3.1642040">
        <ele>219.0</ele>
        <time>2020-07-04T09:59:23Z</time>
      </trkpt>
      <trkpt lat="46.6427670" lon="3.1641600">
        <ele>218.8</ele>
        <time>2020-07-04T09:59:24Z</time>
      </trkpt>
      <trkpt lat="46.6427190" lon="3.1641260">
        <ele>219.0</ele>
        <time>2020-07-04T09:59:25Z</time>
      </trkpt>
      <trkpt lat="46.6426320" lon="3.1640590">
        <ele>219.0</ele>
        <time>2020-07-04T09:59:27Z</time>
      </trkpt>
      <trkpt lat="46.6426020" lon="3.1640130">
        <ele>218.8</ele>
        <time>2020-07-04T09:59:28Z</time>
      </trkpt>
      <trkpt lat="46.6425610" lon="3.1639800">
        <ele>218.8</ele>
        <time>2020-07-04T09:59:29Z</time>
      </trkpt>
      <trkpt lat="46.6424400" lon="3.1638750">
        <ele>219.0</ele>
        <time>2020-07-04T09:59:32Z</time>
      </trkpt>
      <trkpt lat="46.6424110" lon="3.1638340">
        <ele>218.8</ele>
        <time>2020-07-04T09:59:33Z</time>
      </trkpt>
      <trkpt lat="46.6423190" lon="3.1636760">
        <ele>219.0</ele>
        <time>2020-07-04T09:59:37Z</time>
      </trkpt>
      <trkpt lat="46.6422770" lon="3.1636100">
        <ele>219.0</ele>
        <time>2020-07-04T09:59:39Z</time>
      </trkpt>
      <trkpt lat="46.6421300" lon="3.1634180">
        <ele>221.4</ele>
        <time>2020-07-04T09:59:46Z</time>
      </trkpt>
      <trkpt lat="46.6421110" lon="3.1633920">
        <ele>221.4</ele>
        <time>2020-07-04T09:59:47Z</time>
      </trkpt>
      <trkpt lat="46.6420000" lon="3.1631890">
        <ele>222.8</ele>
        <time>2020-07-04T09:59:54Z</time>
      </trkpt>
      <trkpt lat="46.6418170" lon="3.1629090">
        <ele>224.4</ele>
        <time>2020-07-04T10:00:03Z</time>
      </trkpt>
      <trkpt lat="46.6416200" lon="3.1626690">
        <ele>225.0</ele>
        <time>2020-07-04T10:00:11Z</time>
      </trkpt>
      <trkpt lat="46.6415940" lon="3.1626380">
        <ele>225.2</ele>
        <time>2020-07-04T10:00:12Z</time>
      </trkpt>
      <trkpt lat="46.6414850" lon="3.1624530">
        <ele>225.4</ele>
        <time>2020-07-04T10:00:18Z</time>
      </trkpt>
      <trkpt lat="46.6414250" lon="3.1623500">
        <ele>225.8</ele>
        <time>2020-07-04T10:00:21Z</time>
      </trkpt>
      <trkpt lat="46.6414040" lon="3.1623090">
        <ele>225.8</ele>
        <time>2020-07-04T10:00:22Z</time>
      </trkpt>
      <trkpt lat="46.6413350" lon="3.1622010">
        <ele>226.2</ele>
        <time>2020-07-04T10:00:25Z</time>
      </trkpt>
      <trkpt lat="46.6412440" lon="3.1621530">
        <ele>226.4</ele>
        <time>2020-07-04T10:00:28Z</time>
      </trkpt>
      <trkpt lat="46.6410060" lon="3.1621250">
        <ele>226.8</ele>
        <time>2020-07-04T10:00:35Z</time>
      </trkpt>
      <trkpt lat="46.6409340" lon="3.1621200">
        <ele>227.4</ele>
        <time>2020-07-04T10:00:37Z</time>
      </trkpt>
      <trkpt lat="46.6406610" lon="3.1620990">
        <ele>228.0</ele>
        <time>2020-07-04T10:00:45Z</time>
      </trkpt>
      <trkpt lat="46.6403330" lon="3.1620100">
        <ele>228.2</ele>
        <time>2020-07-04T10:00:53Z</time>
      </trkpt>
      <trkpt lat="46.6399480" lon="3.1619240">
        <ele>228.4</ele>
        <time>2020-07-04T10:01:01Z</time>
      </trkpt>
      <trkpt lat="46.6395470" lon="3.1618430">
        <ele>228.2</ele>
        <time>2020-07-04T10:01:08Z</time>
      </trkpt>
      <trkpt lat="46.6394850" lon="3.1618270">
        <ele>228.0</ele>
        <time>2020-07-04T10:01:09Z</time>
      </trkpt>
      <trkpt lat="46.6389910" lon="3.1617210">
        <ele>228.0</ele>
        <time>2020-07-04T10:01:17Z</time>
      </trkpt>
      <trkpt lat="46.6388700" lon="3.1617050">
        <ele>228.0</ele>
        <time>2020-07-04T10:01:19Z</time>
      </trkpt>
      <trkpt lat="46.6384900" lon="3.1616210">
        <ele>228.0</ele>
        <time>2020-07-04T10:01:26Z</time>
      </trkpt>
      <trkpt lat="46.6381070" lon="3.1615500">
        <ele>228.0</ele>
        <time>2020-07-04T10:01:34Z</time>
      </trkpt>
      <trkpt lat="46.6376600" lon="3.1615490">
        <ele>227.4</ele>
        <time>2020-07-04T10:01:42Z</time>
      </trkpt>
      <trkpt lat="46.6371610" lon="3.1616660">
        <ele>227.2</ele>
        <time>2020-07-04T10:01:50Z</time>
      </trkpt>
      <trkpt lat="46.6366650" lon="3.1617850">
        <ele>226.8</ele>
        <time>2020-07-04T10:01:59Z</time>
      </trkpt>
      <trkpt lat="46.6362810" lon="3.1619070">
        <ele>226.6</ele>
        <time>2020-07-04T10:02:07Z</time>
      </trkpt>
      <trkpt lat="46.6360700" lon="3.1619740">
        <ele>226.6</ele>
        <time>2020-07-04T10:02:12Z</time>
      </trkpt>
      <trkpt lat="46.6359900" lon="3.1619990">
        <ele>226.6</ele>
        <time>2020-07-04T10:02:14Z</time>
      </trkpt>
      <trkpt lat="46.6359520" lon="3.1620170">
        <ele>226.6</ele>
        <time>2020-07-04T10:02:15Z</time>
      </trkpt>
      <trkpt lat="46.6356040" lon="3.1621440">
        <ele>226.4</ele>
        <time>2020-07-04T10:02:24Z</time>
      </trkpt>
      <trkpt lat="46.6354490" lon="3.1621980">
        <ele>226.6</ele>
        <time>2020-07-04T10:02:28Z</time>
      </trkpt>
      <trkpt lat="46.6352370" lon="3.1622510">
        <ele>227.0</ele>
        <time>2020-07-04T10:02:33Z</time>
      </trkpt>
      <trkpt lat="46.6349560" lon="3.1623420">
        <ele>227.4</ele>
        <time>2020-07-04T10:02:39Z</time>
      </trkpt>
      <trkpt lat="46.6347620" lon="3.1624020">
        <ele>227.8</ele>
        <time>2020-07-04T10:02:43Z</time>
      </trkpt>
      <trkpt lat="46.6342540" lon="3.1625520">
        <ele>228.4</ele>
        <time>2020-07-04T10:02:54Z</time>
      </trkpt>
      <trkpt lat="46.6342080" lon="3.1625630">
        <ele>228.4</ele>
        <time>2020-07-04T10:02:55Z</time>
      </trkpt>
      <trkpt lat="46.6341160" lon="3.1625880">
        <ele>228.4</ele>
        <time>2020-07-04T10:02:57Z</time>
      </trkpt>
      <trkpt lat="46.6336890" lon="3.1626900">
        <ele>228.4</ele>
        <time>2020-07-04T10:03:06Z</time>
      </trkpt>
      <trkpt lat="46.6332520" lon="3.1628290">
        <ele>229.0</ele>
        <time>2020-07-04T10:03:15Z</time>
      </trkpt>
      <trkpt lat="46.6328280" lon="3.1629410">
        <ele>229.0</ele>
        <time>2020-07-04T10:03:23Z</time>
      </trkpt>
      <trkpt lat="46.6327280" lon="3.1629670">
        <ele>229.0</ele>
        <time>2020-07-04T10:03:25Z</time>
      </trkpt>
      <trkpt lat="46.6326350" lon="3.1629920">
        <ele>228.8</ele>
        <time>2020-07-04T10:03:27Z</time>
      </trkpt>
      <trkpt lat="46.6323720" lon="3.1630710">
        <ele>229.0</ele>
        <time>2020-07-04T10:03:32Z</time>
      </trkpt>
      <trkpt lat="46.6318400" lon="3.1632350">
        <ele>229.0</ele>
        <time>2020-07-04T10:03:42Z</time>
      </trkpt>
      <trkpt lat="46.6317950" lon="3.1632540">
        <ele>229.0</ele>
        <time>2020-07-04T10:03:43Z</time>
      </trkpt>
      <trkpt lat="46.6313620" lon="3.1633690">
        <ele>230.0</ele>
        <time>2020-07-04T10:03:53Z</time>
      </trkpt>
      <trkpt lat="46.6310070" lon="3.1634670">
        <ele>231.2</ele>
        <time>2020-07-04T10:04:02Z</time>
      </trkpt>
      <trkpt lat="46.6307450" lon="3.1635560">
        <ele>231.6</ele>
        <time>2020-07-04T10:04:09Z</time>
      </trkpt>
      <trkpt lat="46.6305370" lon="3.1636110">
        <ele>233.0</ele>
        <time>2020-07-04T10:04:15Z</time>
      </trkpt>
      <trkpt lat="46.6304680" lon="3.1636200">
        <ele>233.2</ele>
        <time>2020-07-04T10:04:17Z</time>
      </trkpt>
      <trkpt lat="46.6302380" lon="3.1636780">
        <ele>234.0</ele>
        <time>2020-07-04T10:04:23Z</time>
      </trkpt>
      <trkpt lat="46.6301240" lon="3.1637030">
        <ele>234.2</ele>
        <time>2020-07-04T10:04:26Z</time>
      </trkpt>
      <trkpt lat="46.6299090" lon="3.1637660">
        <ele>235.6</ele>
        <time>2020-07-04T10:04:32Z</time>
      </trkpt>
      <trkpt lat="46.6298080" lon="3.1637950">
        <ele>236.2</ele>
        <time>2020-07-04T10:04:35Z</time>
      </trkpt>
      <trkpt lat="46.6295160" lon="3.1638850">
        <ele>236.6</ele>
        <time>2020-07-04T10:04:43Z</time>
      </trkpt>
      <trkpt lat="46.6294150" lon="3.1639240">
        <ele>236.8</ele>
        <time>2020-07-04T10:04:46Z</time>
      </trkpt>
      <trkpt lat="46.6291500" lon="3.1640150">
        <ele>238.2</ele>
        <time>2020-07-04T10:04:54Z</time>
      </trkpt>
      <trkpt lat="46.6290250" lon="3.1640520">
        <ele>238.4</ele>
        <time>2020-07-04T10:04:58Z</time>
      </trkpt>
      <trkpt lat="46.6289940" lon="3.1640580">
        <ele>238.4</ele>
        <time>2020-07-04T10:04:59Z</time>
      </trkpt>
      <trkpt lat="46.6289270" lon="3.1640650">
        <ele>238.8</ele>
        <time>2020-07-04T10:05:01Z</time>
      </trkpt>
      <trkpt lat="46.6286670" lon="3.1640880">
        <ele>239.2</ele>
        <time>2020-07-04T10:05:08Z</time>
      </trkpt>
      <trkpt lat="46.6285850" lon="3.1641040">
        <ele>239.2</ele>
        <time>2020-07-04T10:05:10Z</time>
      </trkpt>
      <trkpt lat="46.6285070" lon="3.1641190">
        <ele>239.2</ele>
        <time>2020-07-04T10:05:12Z</time>
      </trkpt>
      <trkpt lat="46.6284650" lon="3.1641220">
        <ele>239.4</ele>
        <time>2020-07-04T10:05:13Z</time>
      </trkpt>
      <trkpt lat="46.6283700" lon="3.1641310">
        <ele>239.2</ele>
        <time>2020-07-04T10:05:15Z</time>
      </trkpt>
      <trkpt lat="46.6283200" lon="3.1641320">
        <ele>239.2</ele>
        <time>2020-07-04T10:05:16Z</time>
      </trkpt>
      <trkpt lat="46.6280110" lon="3.1641730">
        <ele>237.8</ele>
        <time>2020-07-04T10:05:21Z</time>
      </trkpt>
      <trkpt lat="46.6277920" lon="3.1642080">
        <ele>236.8</ele>
        <time>2020-07-04T10:05:24Z</time>
      </trkpt>
      <trkpt lat="46.6275550" lon="3.1642520">
        <ele>235.8</ele>
        <time>2020-07-04T10:05:27Z</time>
      </trkpt>
      <trkpt lat="46.6273210" lon="3.1643150">
        <ele>234.8</ele>
        <time>2020-07-04T10:05:30Z</time>
      </trkpt>
      <trkpt lat="46.6272410" lon="3.1643500">
        <ele>234.0</ele>
        <time>2020-07-04T10:05:31Z</time>
      </trkpt>
      <trkpt lat="46.6270760" lon="3.1644190">
        <ele>232.8</ele>
        <time>2020-07-04T10:05:33Z</time>
      </trkpt>
      <trkpt lat="46.6269110" lon="3.1645030">
        <ele>232.2</ele>
        <time>2020-07-04T10:05:35Z</time>
      </trkpt>
      <trkpt lat="46.6264400" lon="3.1648020">
        <ele>229.4</ele>
        <time>2020-07-04T10:05:41Z</time>
      </trkpt>
      <trkpt lat="46.6262760" lon="3.1649080">
        <ele>228.0</ele>
        <time>2020-07-04T10:05:43Z</time>
      </trkpt>
      <trkpt lat="46.6261100" lon="3.1650050">
        <ele>227.0</ele>
        <time>2020-07-04T10:05:45Z</time>
      </trkpt>
      <trkpt lat="46.6258470" lon="3.1651720">
        <ele>226.0</ele>
        <time>2020-07-04T10:05:48Z</time>
      </trkpt>
      <trkpt lat="46.6257620" lon="3.1652270">
        <ele>225.4</ele>
        <time>2020-07-04T10:05:49Z</time>
      </trkpt>
      <trkpt lat="46.6252620" lon="3.1655270">
        <ele>223.4</ele>
        <time>2020-07-04T10:05:55Z</time>
      </trkpt>
      <trkpt lat="46.6251890" lon="3.1655790">
        <ele>223.0</ele>
        <time>2020-07-04T10:05:56Z</time>
      </trkpt>
      <trkpt lat="46.6250570" lon="3.1656840">
        <ele>222.4</ele>
        <time>2020-07-04T10:05:58Z</time>
      </trkpt>
      <trkpt lat="46.6249410" lon="3.1657940">
        <ele>222.2</ele>
        <time>2020-07-04T10:06:00Z</time>
      </trkpt>
      <trkpt lat="46.6248890" lon="3.1658510">
        <ele>222.2</ele>
        <time>2020-07-04T10:06:01Z</time>
      </trkpt>
      <trkpt lat="46.6247800" lon="3.1659960">
        <ele>222.2</ele>
        <time>2020-07-04T10:06:04Z</time>
      </trkpt>
      <trkpt lat="46.6247520" lon="3.1660410">
        <ele>222.4</ele>
        <time>2020-07-04T10:06:05Z</time>
      </trkpt>
      <trkpt lat="46.6246500" lon="3.1662010">
        <ele>223.8</ele>
        <time>2020-07-04T10:06:09Z</time>
      </trkpt>
      <trkpt lat="46.6245280" lon="3.1663830">
        <ele>224.8</ele>
        <time>2020-07-04T10:06:13Z</time>
      </trkpt>
      <trkpt lat="46.6245000" lon="3.1664190">
        <ele>225.2</ele>
        <time>2020-07-04T10:06:14Z</time>
      </trkpt>
      <trkpt lat="46.6243560" lon="3.1666070">
        <ele>226.6</ele>
        <time>2020-07-04T10:06:20Z</time>
      </trkpt>
      <trkpt lat="46.6243140" lon="3.1666670">
        <ele>227.4</ele>
        <time>2020-07-04T10:06:22Z</time>
      </trkpt>
      <trkpt lat="46.6241840" lon="3.1668450">
        <ele>228.2</ele>
        <time>2020-07-04T10:06:28Z</time>
      </trkpt>
      <trkpt lat="46.6241190" lon="3.1669340">
        <ele>228.8</ele>
        <time>2020-07-04T10:06:31Z</time>
      </trkpt>
      <trkpt lat="46.6240000" lon="3.1670930">
        <ele>229.8</ele>
        <time>2020-07-04T10:06:36Z</time>
      </trkpt>
      <trkpt lat="46.6239490" lon="3.1671630">
        <ele>230.0</ele>
        <time>2020-07-04T10:06:38Z</time>
      </trkpt>
      <trkpt lat="46.6236950" lon="3.1674350">
        <ele>231.2</ele>
        <time>2020-07-04T10:06:47Z</time>
      </trkpt>
      <trkpt lat="46.6235030" lon="3.1675640">
        <ele>232.0</ele>
        <time>2020-07-04T10:06:53Z</time>
      </trkpt>
      <trkpt lat="46.6232270" lon="3.1676960">
        <ele>232.0</ele>
        <time>2020-07-04T10:07:00Z</time>
      </trkpt>
      <trkpt lat="46.6228800" lon="3.1677640">
        <ele>232.2</ele>
        <time>2020-07-04T10:07:07Z</time>
      </trkpt>
      <trkpt lat="46.6223620" lon="3.1678220">
        <ele>231.8</ele>
        <time>2020-07-04T10:07:17Z</time>
      </trkpt>
      <trkpt lat="46.6222110" lon="3.1678370">
        <ele>232.2</ele>
        <time>2020-07-04T10:07:20Z</time>
      </trkpt>
      <trkpt lat="46.6216370" lon="3.1679170">
        <ele>232.4</ele>
        <time>2020-07-04T10:07:32Z</time>
      </trkpt>
      <trkpt lat="46.6215110" lon="3.1679350">
        <ele>232.6</ele>
        <time>2020-07-04T10:07:35Z</time>
      </trkpt>
      <trkpt lat="46.6212250" lon="3.1679670">
        <ele>232.8</ele>
        <time>2020-07-04T10:07:42Z</time>
      </trkpt>
      <trkpt lat="46.6209770" lon="3.1679880">
        <ele>232.8</ele>
        <time>2020-07-04T10:07:48Z</time>
      </trkpt>
      <trkpt lat="46.6206390" lon="3.1680150">
        <ele>233.2</ele>
        <time>2020-07-04T10:07:55Z</time>
      </trkpt>
      <trkpt lat="46.6201610" lon="3.1680780">
        <ele>234.0</ele>
        <time>2020-07-04T10:08:05Z</time>
      </trkpt>
      <trkpt lat="46.6200770" lon="3.1680880">
        <ele>234.0</ele>
        <time>2020-07-04T10:08:07Z</time>
      </trkpt>
      <trkpt lat="46.6198070" lon="3.1681180">
        <ele>234.4</ele>
        <time>2020-07-04T10:08:13Z</time>
      </trkpt>
      <trkpt lat="46.6197630" lon="3.1681190">
        <ele>234.2</ele>
        <time>2020-07-04T10:08:14Z</time>
      </trkpt>
      <trkpt lat="46.6193910" lon="3.1681340">
        <ele>235.6</ele>
        <time>2020-07-04T10:08:23Z</time>
      </trkpt>
      <trkpt lat="46.6193150" lon="3.1681400">
        <ele>235.8</ele>
        <time>2020-07-04T10:08:25Z</time>
      </trkpt>
      <trkpt lat="46.6189960" lon="3.1681540">
        <ele>236.6</ele>
        <time>2020-07-04T10:08:33Z</time>
      </trkpt>
      <trkpt lat="46.6188830" lon="3.1681440">
        <ele>237.0</ele>
        <time>2020-07-04T10:08:36Z</time>
      </trkpt>
      <trkpt lat="46.6186790" lon="3.1681210">
        <ele>237.6</ele>
        <time>2020-07-04T10:08:42Z</time>
      </trkpt>
      <trkpt lat="46.6186050" lon="3.1681090">
        <ele>238.0</ele>
        <time>2020-07-04T10:08:45Z</time>
      </trkpt>
      <trkpt lat="46.6184350" lon="3.1681120">
        <ele>238.6</ele>
        <time>2020-07-04T10:08:50Z</time>
      </trkpt>
      <trkpt lat="46.6183600" lon="3.1681190">
        <ele>238.8</ele>
        <time>2020-07-04T10:08:52Z</time>
      </trkpt>
      <trkpt lat="46.6181650" lon="3.1681120">
        <ele>239.4</ele>
        <time>2020-07-04T10:08:57Z</time>
      </trkpt>
      <trkpt lat="46.6179250" lon="3.1681100">
        <ele>240.0</ele>
        <time>2020-07-04T10:09:03Z</time>
      </trkpt>
      <trkpt lat="46.6177220" lon="3.1681310">
        <ele>241.2</ele>
        <time>2020-07-04T10:09:08Z</time>
      </trkpt>
      <trkpt lat="46.6176430" lon="3.1681340">
        <ele>241.6</ele>
        <time>2020-07-04T10:09:10Z</time>
      </trkpt>
      <trkpt lat="46.6174450" lon="3.1681050">
        <ele>241.6</ele>
        <time>2020-07-04T10:09:15Z</time>
      </trkpt>
      <trkpt lat="46.6174040" lon="3.1680970">
        <ele>241.6</ele>
        <time>2020-07-04T10:09:16Z</time>
      </trkpt>
      <trkpt lat="46.6170140" lon="3.1680360">
        <ele>241.8</ele>
        <time>2020-07-04T10:09:25Z</time>
      </trkpt>
      <trkpt lat="46.6168070" lon="3.1679640">
        <ele>241.8</ele>
        <time>2020-07-04T10:09:30Z</time>
      </trkpt>
      <trkpt lat="46.6166670" lon="3.1679250">
        <ele>241.6</ele>
        <time>2020-07-04T10:09:33Z</time>
      </trkpt>
      <trkpt lat="46.6165290" lon="3.1678780">
        <ele>241.6</ele>
        <time>2020-07-04T10:09:36Z</time>
      </trkpt>
      <trkpt lat="46.6163820" lon="3.1678380">
        <ele>241.2</ele>
        <time>2020-07-04T10:09:39Z</time>
      </trkpt>
      <trkpt lat="46.6162230" lon="3.1677960">
        <ele>240.8</ele>
        <time>2020-07-04T10:09:42Z</time>
      </trkpt>
      <trkpt lat="46.6161090" lon="3.1677760">
        <ele>240.6</ele>
        <time>2020-07-04T10:09:44Z</time>
      </trkpt>
      <trkpt lat="46.6159970" lon="3.1677580">
        <ele>240.4</ele>
        <time>2020-07-04T10:09:46Z</time>
      </trkpt>
      <trkpt lat="46.6158310" lon="3.1676990">
        <ele>240.2</ele>
        <time>2020-07-04T10:09:49Z</time>
      </trkpt>
      <trkpt lat="46.6154260" lon="3.1675980">
        <ele>238.6</ele>
        <time>2020-07-04T10:09:56Z</time>
      </trkpt>
      <trkpt lat="46.6153620" lon="3.1675840">
        <ele>238.4</ele>
        <time>2020-07-04T10:09:57Z</time>
      </trkpt>
      <trkpt lat="46.6152900" lon="3.1675770">
        <ele>238.2</ele>
        <time>2020-07-04T10:09:58Z</time>
      </trkpt>
      <trkpt lat="46.6150850" lon="3.1675480">
        <ele>237.8</ele>
        <time>2020-07-04T10:10:01Z</time>
      </trkpt>
      <trkpt lat="46.6150240" lon="3.1675310">
        <ele>237.8</ele>
        <time>2020-07-04T10:10:02Z</time>
      </trkpt>
      <trkpt lat="46.6145740" lon="3.1673610">
        <ele>235.2</ele>
        <time>2020-07-04T10:10:10Z</time>
      </trkpt>
      <trkpt lat="46.6145170" lon="3.1673320">
        <ele>234.6</ele>
        <time>2020-07-04T10:10:11Z</time>
      </trkpt>
      <trkpt lat="46.6143490" lon="3.1672080">
        <ele>234.2</ele>
        <time>2020-07-04T10:10:14Z</time>
      </trkpt>
      <trkpt lat="46.6142350" lon="3.1670910">
        <ele>234.0</ele>
        <time>2020-07-04T10:10:16Z</time>
      </trkpt>
      <trkpt lat="46.6141320" lon="3.1669350">
        <ele>234.0</ele>
        <time>2020-07-04T10:10:18Z</time>
      </trkpt>
      <trkpt lat="46.6139800" lon="3.1666810">
        <ele>233.4</ele>
        <time>2020-07-04T10:10:21Z</time>
      </trkpt>
      <trkpt lat="46.6139270" lon="3.1665930">
        <ele>233.2</ele>
        <time>2020-07-04T10:10:22Z</time>
      </trkpt>
      <trkpt lat="46.6138760" lon="3.1665020">
        <ele>232.6</ele>
        <time>2020-07-04T10:10:23Z</time>
      </trkpt>
      <trkpt lat="46.6136790" lon="3.1660860">
        <ele>231.4</ele>
        <time>2020-07-04T10:10:27Z</time>
      </trkpt>
      <trkpt lat="46.6136330" lon="3.1659680">
        <ele>230.6</ele>
        <time>2020-07-04T10:10:28Z</time>
      </trkpt>
      <trkpt lat="46.6135880" lon="3.1658530">
        <ele>230.0</ele>
        <time>2020-07-04T10:10:29Z</time>
      </trkpt>
      <trkpt lat="46.6135420" lon="3.1657310">
        <ele>229.4</ele>
        <time>2020-07-04T10:10:30Z</time>
      </trkpt>
      <trkpt lat="46.6134620" lon="3.1654890">
        <ele>228.2</ele>
        <time>2020-07-04T10:10:32Z</time>
      </trkpt>
      <trkpt lat="46.6133860" lon="3.1652400">
        <ele>227.2</ele>
        <time>2020-07-04T10:10:34Z</time>
      </trkpt>
      <trkpt lat="46.6133530" lon="3.1651160">
        <ele>227.0</ele>
        <time>2020-07-04T10:10:35Z</time>
      </trkpt>
      <trkpt lat="46.6132530" lon="3.1647490">
        <ele>226.2</ele>
        <time>2020-07-04T10:10:38Z</time>
      </trkpt>
      <trkpt lat="46.6131840" lon="3.1645020">
        <ele>224.4</ele>
        <time>2020-07-04T10:10:40Z</time>
      </trkpt>
      <trkpt lat="46.6131100" lon="3.1642530">
        <ele>222.8</ele>
        <time>2020-07-04T10:10:42Z</time>
      </trkpt>
      <trkpt lat="46.6130260" lon="3.1640020">
        <ele>221.6</ele>
        <time>2020-07-04T10:10:44Z</time>
      </trkpt>
      <trkpt lat="46.6129800" lon="3.1638820">
        <ele>221.0</ele>
        <time>2020-07-04T10:10:45Z</time>
      </trkpt>
      <trkpt lat="46.6129320" lon="3.1637670">
        <ele>220.8</ele>
        <time>2020-07-04T10:10:46Z</time>
      </trkpt>
      <trkpt lat="46.6126870" lon="3.1633540">
        <ele>218.4</ele>
        <time>2020-07-04T10:10:50Z</time>
      </trkpt>
      <trkpt lat="46.6126170" lon="3.1632650">
        <ele>217.8</ele>
        <time>2020-07-04T10:10:51Z</time>
      </trkpt>
      <trkpt lat="46.6124670" lon="3.1630990">
        <ele>217.6</ele>
        <time>2020-07-04T10:10:53Z</time>
      </trkpt>
      <trkpt lat="46.6123150" lon="3.1629450">
        <ele>216.0</ele>
        <time>2020-07-04T10:10:55Z</time>
      </trkpt>
      <trkpt lat="46.6122390" lon="3.1628780">
        <ele>215.6</ele>
        <time>2020-07-04T10:10:56Z</time>
      </trkpt>
      <trkpt lat="46.6118090" lon="3.1625310">
        <ele>214.0</ele>
        <time>2020-07-04T10:11:02Z</time>
      </trkpt>
      <trkpt lat="46.6114160" lon="3.1621890">
        <ele>213.6</ele>
        <time>2020-07-04T10:11:09Z</time>
      </trkpt>
      <trkpt lat="46.6112370" lon="3.1620360">
        <ele>213.8</ele>
        <time>2020-07-04T10:11:13Z</time>
      </trkpt>
      <trkpt lat="46.6110560" lon="3.1619140">
        <ele>214.2</ele>
        <time>2020-07-04T10:11:17Z</time>
      </trkpt>
      <trkpt lat="46.6107690" lon="3.1616810">
        <ele>216.2</ele>
        <time>2020-07-04T10:11:24Z</time>
      </trkpt>
      <trkpt lat="46.6104630" lon="3.1613810">
        <ele>217.2</ele>
        <time>2020-07-04T10:11:33Z</time>
      </trkpt>
      <trkpt lat="46.6104310" lon="3.1613440">
        <ele>217.4</ele>
        <time>2020-07-04T10:11:34Z</time>
      </trkpt>
      <trkpt lat="46.6101040" lon="3.1610120">
        <ele>218.6</ele>
        <time>2020-07-04T10:11:44Z</time>
      </trkpt>
      <trkpt lat="46.6100380" lon="3.1609490">
        <ele>218.6</ele>
        <time>2020-07-04T10:11:46Z</time>
      </trkpt>
      <trkpt lat="46.6097350" lon="3.1606620">
        <ele>219.0</ele>
        <time>2020-07-04T10:11:55Z</time>
      </trkpt>
      <trkpt lat="46.6096310" lon="3.1605640">
        <ele>219.6</ele>
        <time>2020-07-04T10:11:58Z</time>
      </trkpt>
      <trkpt lat="46.6092710" lon="3.1602170">
        <ele>221.2</ele>
        <time>2020-07-04T10:12:09Z</time>
      </trkpt>
      <trkpt lat="46.6091130" lon="3.1600680">
        <ele>221.8</ele>
        <time>2020-07-04T10:12:14Z</time>
      </trkpt>
      <trkpt lat="46.6090170" lon="3.1599870">
        <ele>222.0</ele>
        <time>2020-07-04T10:12:17Z</time>
      </trkpt>
      <trkpt lat="46.6088930" lon="3.1598770">
        <ele>222.2</ele>
        <time>2020-07-04T10:12:21Z</time>
      </trkpt>
      <trkpt lat="46.6088350" lon="3.1598180">
        <ele>222.2</ele>
        <time>2020-07-04T10:12:23Z</time>
      </trkpt>
      <trkpt lat="46.6088040" lon="3.1597930">
        <ele>222.4</ele>
        <time>2020-07-04T10:12:24Z</time>
      </trkpt>
      <trkpt lat="46.6087150" lon="3.1597160">
        <ele>222.8</ele>
        <time>2020-07-04T10:12:27Z</time>
      </trkpt>
      <trkpt lat="46.6085740" lon="3.1595850">
        <ele>223.8</ele>
        <time>2020-07-04T10:12:32Z</time>
      </trkpt>
      <trkpt lat="46.6084150" lon="3.1594480">
        <ele>224.6</ele>
        <time>2020-07-04T10:12:38Z</time>
      </trkpt>
      <trkpt lat="46.6083710" lon="3.1594080">
        <ele>224.8</ele>
        <time>2020-07-04T10:12:40Z</time>
      </trkpt>
      <trkpt lat="46.6081990" lon="3.1592590">
        <ele>225.8</ele>
        <time>2020-07-04T10:12:48Z</time>
      </trkpt>
      <trkpt lat="46.6081730" lon="3.1592420">
        <ele>226.0</ele>
        <time>2020-07-04T10:12:49Z</time>
      </trkpt>
      <trkpt lat="46.6079910" lon="3.1590710">
        <ele>227.2</ele>
        <time>2020-07-04T10:12:57Z</time>
      </trkpt>
      <trkpt lat="46.6078840" lon="3.1589580">
        <ele>227.8</ele>
        <time>2020-07-04T10:13:02Z</time>
      </trkpt>
      <trkpt lat="46.6077820" lon="3.1588790">
        <ele>228.2</ele>
        <time>2020-07-04T10:13:07Z</time>
      </trkpt>
      <trkpt lat="46.6077040" lon="3.1588260">
        <ele>228.6</ele>
        <time>2020-07-04T10:13:11Z</time>
      </trkpt>
      <trkpt lat="46.6076310" lon="3.1588220">
        <ele>229.2</ele>
        <time>2020-07-04T10:13:15Z</time>
      </trkpt>
      <trkpt lat="46.6075930" lon="3.1588760">
        <ele>230.2</ele>
        <time>2020-07-04T10:13:22Z</time>
      </trkpt>
      <trkpt lat="46.6076020" lon="3.1589120">
        <ele>231.0</ele>
        <time>2020-07-04T10:13:32Z</time>
      </trkpt>
      <trkpt lat="46.6076210" lon="3.1589340">
        <ele>231.0</ele>
        <time>2020-07-04T10:13:35Z</time>
      </trkpt>
      <trkpt lat="46.6076650" lon="3.1589520">
        <ele>231.0</ele>
        <time>2020-07-04T10:13:48Z</time>
      </trkpt>
      <trkpt lat="46.6076830" lon="3.1589250">
        <ele>231.0</ele>
        <time>2020-07-04T10:14:15Z</time>
      </trkpt>
      <trkpt lat="46.6076950" lon="3.1589090">
        <ele>230.8</ele>
        <time>2020-07-04T10:14:35Z</time>
      </trkpt>
      <trkpt lat="46.6077010" lon="3.1589040">
        <ele>231.0</ele>
        <time>2020-07-04T10:14:50Z</time>
      </trkpt>
      <trkpt lat="46.6077050" lon="3.1589010">
        <ele>231.2</ele>
        <time>2020-07-04T10:15:05Z</time>
      </trkpt>
      <trkpt lat="46.6077130" lon="3.1589080">
        <ele>231.0</ele>
        <time>2020-07-04T10:15:27Z</time>
      </trkpt>
      <trkpt lat="46.6077220" lon="3.1589070">
        <ele>231.0</ele>
        <time>2020-07-04T10:15:49Z</time>
      </trkpt>
      <trkpt lat="46.6077340" lon="3.1589050">
        <ele>231.0</ele>
        <time>2020-07-04T10:16:19Z</time>
      </trkpt>
      <trkpt lat="46.6077480" lon="3.1588900">
        <ele>231.4</ele>
        <time>2020-07-04T10:16:44Z</time>
      </trkpt>
      <trkpt lat="46.6077470" lon="3.1588860">
        <ele>231.2</ele>
        <time>2020-07-04T10:16:48Z</time>
      </trkpt>
      <trkpt lat="46.6077490" lon="3.1588840">
        <ele>231.2</ele>
        <time>2020-07-04T10:16:52Z</time>
      </trkpt>
      <trkpt lat="46.6077520" lon="3.1588860">
        <ele>231.0</ele>
        <time>2020-07-04T10:17:11Z</time>
      </trkpt>
      <trkpt lat="46.6077540" lon="3.1588810">
        <ele>230.8</ele>
        <time>2020-07-04T10:17:30Z</time>
      </trkpt>
      <trkpt lat="46.6077590" lon="3.1588840">
        <ele>230.6</ele>
        <time>2020-07-04T10:17:58Z</time>
      </trkpt>
      <trkpt lat="46.6077700" lon="3.1588860">
        <ele>230.6</ele>
        <time>2020-07-04T10:18:30Z</time>
      </trkpt>
      <trkpt lat="46.6077610" lon="3.1588870">
        <ele>230.6</ele>
        <time>2020-07-04T10:18:46Z</time>
      </trkpt>
      <trkpt lat="46.6077360" lon="3.1588620">
        <ele>230.6</ele>
        <time>2020-07-04T10:18:50Z</time>
      </trkpt>
      <trkpt lat="46.6077030" lon="3.1588400">
        <ele>230.8</ele>
        <time>2020-07-04T10:18:57Z</time>
      </trkpt>
      <trkpt lat="46.6077030" lon="3.1588370">
        <ele>230.8</ele>
        <time>2020-07-04T10:18:58Z</time>
      </trkpt>
      <trkpt lat="46.6076940" lon="3.1588220">
        <ele>230.2</ele>
        <time>2020-07-04T10:19:11Z</time>
      </trkpt>
      <trkpt lat="46.6076440" lon="3.1587470">
        <ele>230.0</ele>
        <time>2020-07-04T10:19:22Z</time>
      </trkpt>
      <trkpt lat="46.6075610" lon="3.1587150">
        <ele>230.0</ele>
        <time>2020-07-04T10:19:28Z</time>
      </trkpt>
      <trkpt lat="46.6074820" lon="3.1587080">
        <ele>230.6</ele>
        <time>2020-07-04T10:19:32Z</time>
      </trkpt>
      <trkpt lat="46.6074190" lon="3.1587020">
        <ele>230.8</ele>
        <time>2020-07-04T10:19:35Z</time>
      </trkpt>
      <trkpt lat="46.6073250" lon="3.1587030">
        <ele>231.2</ele>
        <time>2020-07-04T10:19:41Z</time>
      </trkpt>
      <trkpt lat="46.6072190" lon="3.1586960">
        <ele>232.0</ele>
        <time>2020-07-04T10:19:48Z</time>
      </trkpt>
      <trkpt lat="46.6071420" lon="3.1587270">
        <ele>232.4</ele>
        <time>2020-07-04T10:19:52Z</time>
      </trkpt>
      <trkpt lat="46.6070660" lon="3.1587250">
        <ele>232.8</ele>
        <time>2020-07-04T10:19:56Z</time>
      </trkpt>
      <trkpt lat="46.6068900" lon="3.1587110">
        <ele>233.6</ele>
        <time>2020-07-04T10:20:05Z</time>
      </trkpt>
      <trkpt lat="46.6068670" lon="3.1587150">
        <ele>233.6</ele>
        <time>2020-07-04T10:20:06Z</time>
      </trkpt>
      <trkpt lat="46.6067050" lon="3.1587560">
        <ele>234.4</ele>
        <time>2020-07-04T10:20:14Z</time>
      </trkpt>
      <trkpt lat="46.6066790" lon="3.1587640">
        <ele>234.4</ele>
        <time>2020-07-04T10:20:15Z</time>
      </trkpt>
      <trkpt lat="46.6065240" lon="3.1587820">
        <ele>235.2</ele>
        <time>2020-07-04T10:20:22Z</time>
      </trkpt>
      <trkpt lat="46.6063240" lon="3.1587590">
        <ele>235.8</ele>
        <time>2020-07-04T10:20:31Z</time>
      </trkpt>
      <trkpt lat="46.6061400" lon="3.1587780">
        <ele>236.6</ele>
        <time>2020-07-04T10:20:39Z</time>
      </trkpt>
      <trkpt lat="46.6059840" lon="3.1587710">
        <ele>237.2</ele>
        <time>2020-07-04T10:20:47Z</time>
      </trkpt>
      <trkpt lat="46.6059640" lon="3.1587730">
        <ele>237.2</ele>
        <time>2020-07-04T10:20:48Z</time>
      </trkpt>
      <trkpt lat="46.6058000" lon="3.1587010">
        <ele>237.8</ele>
        <time>2020-07-04T10:20:55Z</time>
      </trkpt>
      <trkpt lat="46.6057340" lon="3.1586450">
        <ele>238.0</ele>
        <time>2020-07-04T10:20:59Z</time>
      </trkpt>
      <trkpt lat="46.6057100" lon="3.1586470">
        <ele>238.2</ele>
        <time>2020-07-04T10:21:01Z</time>
      </trkpt>
      <trkpt lat="46.6055220" lon="3.1586540">
        <ele>239.0</ele>
        <time>2020-07-04T10:21:09Z</time>
      </trkpt>
      <trkpt lat="46.6053870" lon="3.1585840">
        <ele>239.4</ele>
        <time>2020-07-04T10:21:16Z</time>
      </trkpt>
      <trkpt lat="46.6051890" lon="3.1585240">
        <ele>240.0</ele>
        <time>2020-07-04T10:21:24Z</time>
      </trkpt>
      <trkpt lat="46.6049930" lon="3.1585410">
        <ele>240.2</ele>
        <time>2020-07-04T10:21:31Z</time>
      </trkpt>
      <trkpt lat="46.6047570" lon="3.1585250">
        <ele>240.4</ele>
        <time>2020-07-04T10:21:38Z</time>
      </trkpt>
      <trkpt lat="46.6044900" lon="3.1585100">
        <ele>240.4</ele>
        <time>2020-07-04T10:21:46Z</time>
      </trkpt>
      <trkpt lat="46.6042500" lon="3.1585120">
        <ele>240.6</ele>
        <time>2020-07-04T10:21:53Z</time>
      </trkpt>
      <trkpt lat="46.6039860" lon="3.1585180">
        <ele>240.2</ele>
        <time>2020-07-04T10:21:59Z</time>
      </trkpt>
      <trkpt lat="46.6037990" lon="3.1584920">
        <ele>240.2</ele>
        <time>2020-07-04T10:22:03Z</time>
      </trkpt>
      <trkpt lat="46.6037050" lon="3.1585250">
        <ele>240.2</ele>
        <time>2020-07-04T10:22:05Z</time>
      </trkpt>
      <trkpt lat="46.6036600" lon="3.1585540">
        <ele>240.2</ele>
        <time>2020-07-04T10:22:06Z</time>
      </trkpt>
      <trkpt lat="46.6035720" lon="3.1586270">
        <ele>240.2</ele>
        <time>2020-07-04T10:22:08Z</time>
      </trkpt>
      <trkpt lat="46.6035360" lon="3.1586750">
        <ele>240.0</ele>
        <time>2020-07-04T10:22:09Z</time>
      </trkpt>
      <trkpt lat="46.6035020" lon="3.1587270">
        <ele>239.8</ele>
        <time>2020-07-04T10:22:10Z</time>
      </trkpt>
      <trkpt lat="46.6033460" lon="3.1590280">
        <ele>239.6</ele>
        <time>2020-07-04T10:22:15Z</time>
      </trkpt>
      <trkpt lat="46.6033090" lon="3.1590850">
        <ele>239.6</ele>
        <time>2020-07-04T10:22:16Z</time>
      </trkpt>
      <trkpt lat="46.6030720" lon="3.1595160">
        <ele>238.8</ele>
        <time>2020-07-04T10:22:23Z</time>
      </trkpt>
      <trkpt lat="46.6029020" lon="3.1598500">
        <ele>237.6</ele>
        <time>2020-07-04T10:22:28Z</time>
      </trkpt>
      <trkpt lat="46.6028280" lon="3.1599920">
        <ele>237.4</ele>
        <time>2020-07-04T10:22:30Z</time>
      </trkpt>
      <trkpt lat="46.6026980" lon="3.1602240">
        <ele>236.8</ele>
        <time>2020-07-04T10:22:33Z</time>
      </trkpt>
      <trkpt lat="46.6025510" lon="3.1604680">
        <ele>236.6</ele>
        <time>2020-07-04T10:22:36Z</time>
      </trkpt>
      <trkpt lat="46.6025020" lon="3.1605550">
        <ele>236.6</ele>
        <time>2020-07-04T10:22:37Z</time>
      </trkpt>
      <trkpt lat="46.6021620" lon="3.1611650">
        <ele>233.4</ele>
        <time>2020-07-04T10:22:44Z</time>
      </trkpt>
      <trkpt lat="46.6020650" lon="3.1613360">
        <ele>233.0</ele>
        <time>2020-07-04T10:22:46Z</time>
      </trkpt>
      <trkpt lat="46.6017040" lon="3.1619330">
        <ele>232.6</ele>
        <time>2020-07-04T10:22:54Z</time>
      </trkpt>
      <trkpt lat="46.6016710" lon="3.1619910">
        <ele>232.6</ele>
        <time>2020-07-04T10:22:55Z</time>
      </trkpt>
      <trkpt lat="46.6015850" lon="3.1621380">
        <ele>232.6</ele>
        <time>2020-07-04T10:22:58Z</time>
      </trkpt>
      <trkpt lat="46.6015610" lon="3.1621820">
        <ele>232.8</ele>
        <time>2020-07-04T10:22:59Z</time>
      </trkpt>
      <trkpt lat="46.6014470" lon="3.1623850">
        <ele>233.6</ele>
        <time>2020-07-04T10:23:05Z</time>
      </trkpt>
      <trkpt lat="46.6014320" lon="3.1624160">
        <ele>234.2</ele>
        <time>2020-07-04T10:23:06Z</time>
      </trkpt>
      <trkpt lat="46.6012260" lon="3.1628200">
        <ele>236.8</ele>
        <time>2020-07-04T10:23:18Z</time>
      </trkpt>
      <trkpt lat="46.6011940" lon="3.1628920">
        <ele>236.8</ele>
        <time>2020-07-04T10:23:20Z</time>
      </trkpt>
      <trkpt lat="46.6010930" lon="3.1631690">
        <ele>237.6</ele>
        <time>2020-07-04T10:23:27Z</time>
      </trkpt>
      <trkpt lat="46.6010020" lon="3.1633700">
        <ele>237.6</ele>
        <time>2020-07-04T10:23:32Z</time>
      </trkpt>
      <trkpt lat="46.6008330" lon="3.1635680">
        <ele>238.4</ele>
        <time>2020-07-04T10:23:39Z</time>
      </trkpt>
      <trkpt lat="46.6008050" lon="3.1635840">
        <ele>238.4</ele>
        <time>2020-07-04T10:23:40Z</time>
      </trkpt>
      <trkpt lat="46.6006350" lon="3.1636130">
        <ele>238.8</ele>
        <time>2020-07-04T10:23:45Z</time>
      </trkpt>
      <trkpt lat="46.6004230" lon="3.1635050">
        <ele>238.8</ele>
        <time>2020-07-04T10:23:51Z</time>
      </trkpt>
      <trkpt lat="46.6002340" lon="3.1632800">
        <ele>238.8</ele>
        <time>2020-07-04T10:23:57Z</time>
      </trkpt>
      <trkpt lat="46.6001530" lon="3.1632020">
        <ele>238.6</ele>
        <time>2020-07-04T10:23:59Z</time>
      </trkpt>
      <trkpt lat="46.6000120" lon="3.1631470">
        <ele>238.4</ele>
        <time>2020-07-04T10:24:02Z</time>
      </trkpt>
      <trkpt lat="46.5999610" lon="3.1631410">
        <ele>238.2</ele>
        <time>2020-07-04T10:24:03Z</time>
      </trkpt>
      <trkpt lat="46.5997470" lon="3.1631730">
        <ele>238.2</ele>
        <time>2020-07-04T10:24:07Z</time>
      </trkpt>
      <trkpt lat="46.5992070" lon="3.1634220">
        <ele>238.8</ele>
        <time>2020-07-04T10:24:18Z</time>
      </trkpt>
      <trkpt lat="46.5986650" lon="3.1636540">
        <ele>239.0</ele>
        <time>2020-07-04T10:24:29Z</time>
      </trkpt>
      <trkpt lat="46.5986180" lon="3.1636760">
        <ele>239.2</ele>
        <time>2020-07-04T10:24:30Z</time>
      </trkpt>
      <trkpt lat="46.5981510" lon="3.1639040">
        <ele>239.8</ele>
        <time>2020-07-04T10:24:40Z</time>
      </trkpt>
      <trkpt lat="46.5980600" lon="3.1639500">
        <ele>239.8</ele>
        <time>2020-07-04T10:24:42Z</time>
      </trkpt>
      <trkpt lat="46.5978020" lon="3.1640640">
        <ele>240.6</ele>
        <time>2020-07-04T10:24:48Z</time>
      </trkpt>
      <trkpt lat="46.5975300" lon="3.1641820">
        <ele>241.4</ele>
        <time>2020-07-04T10:24:55Z</time>
      </trkpt>
      <trkpt lat="46.5974250" lon="3.1642320">
        <ele>241.6</ele>
        <time>2020-07-04T10:24:58Z</time>
      </trkpt>
      <trkpt lat="46.5970720" lon="3.1643210">
        <ele>243.2</ele>
        <time>2020-07-04T10:25:07Z</time>
      </trkpt>
      <trkpt lat="46.5966970" lon="3.1642880">
        <ele>243.8</ele>
        <time>2020-07-04T10:25:16Z</time>
      </trkpt>
      <trkpt lat="46.5966120" lon="3.1642670">
        <ele>244.0</ele>
        <time>2020-07-04T10:25:18Z</time>
      </trkpt>
      <trkpt lat="46.5962650" lon="3.1641550">
        <ele>244.6</ele>
        <time>2020-07-04T10:25:26Z</time>
      </trkpt>
      <trkpt lat="46.5957460" lon="3.1639610">
        <ele>245.4</ele>
        <time>2020-07-04T10:25:38Z</time>
      </trkpt>
      <trkpt lat="46.5955850" lon="3.1638930">
        <ele>245.6</ele>
        <time>2020-07-04T10:25:42Z</time>
      </trkpt>
      <trkpt lat="46.5952930" lon="3.1638250">
        <ele>246.0</ele>
        <time>2020-07-04T10:25:49Z</time>
      </trkpt>
      <trkpt lat="46.5949990" lon="3.1638440">
        <ele>246.2</ele>
        <time>2020-07-04T10:25:55Z</time>
      </trkpt>
      <trkpt lat="46.5944810" lon="3.1638180">
        <ele>246.4</ele>
        <time>2020-07-04T10:26:06Z</time>
      </trkpt>
      <trkpt lat="46.5942930" lon="3.1637810">
        <ele>246.6</ele>
        <time>2020-07-04T10:26:10Z</time>
      </trkpt>
      <trkpt lat="46.5939210" lon="3.1636870">
        <ele>247.0</ele>
        <time>2020-07-04T10:26:18Z</time>
      </trkpt>
      <trkpt lat="46.5938730" lon="3.1636720">
        <ele>247.4</ele>
        <time>2020-07-04T10:26:19Z</time>
      </trkpt>
      <trkpt lat="46.5934110" lon="3.1634840">
        <ele>248.2</ele>
        <time>2020-07-04T10:26:29Z</time>
      </trkpt>
      <trkpt lat="46.5933150" lon="3.1634250">
        <ele>248.2</ele>
        <time>2020-07-04T10:26:31Z</time>
      </trkpt>
      <trkpt lat="46.5932640" lon="3.1634010">
        <ele>248.2</ele>
        <time>2020-07-04T10:26:32Z</time>
      </trkpt>
      <trkpt lat="46.5929920" lon="3.1633100">
        <ele>248.0</ele>
        <time>2020-07-04T10:26:37Z</time>
      </trkpt>
      <trkpt lat="46.5928150" lon="3.1632760">
        <ele>247.8</ele>
        <time>2020-07-04T10:26:40Z</time>
      </trkpt>
      <trkpt lat="46.5926300" lon="3.1632550">
        <ele>246.4</ele>
        <time>2020-07-04T10:26:43Z</time>
      </trkpt>
      <trkpt lat="46.5925660" lon="3.1632440">
        <ele>246.2</ele>
        <time>2020-07-04T10:26:44Z</time>
      </trkpt>
      <trkpt lat="46.5923630" lon="3.1632190">
        <ele>245.4</ele>
        <time>2020-07-04T10:26:47Z</time>
      </trkpt>
      <trkpt lat="46.5922120" lon="3.1632180">
        <ele>243.8</ele>
        <time>2020-07-04T10:26:49Z</time>
      </trkpt>
      <trkpt lat="46.5921300" lon="3.1632340">
        <ele>243.2</ele>
        <time>2020-07-04T10:26:50Z</time>
      </trkpt>
      <trkpt lat="46.5920440" lon="3.1632630">
        <ele>242.6</ele>
        <time>2020-07-04T10:26:51Z</time>
      </trkpt>
      <trkpt lat="46.5919540" lon="3.1633110">
        <ele>242.2</ele>
        <time>2020-07-04T10:26:52Z</time>
      </trkpt>
      <trkpt lat="46.5917840" lon="3.1634330">
        <ele>241.6</ele>
        <time>2020-07-04T10:26:54Z</time>
      </trkpt>
      <trkpt lat="46.5915460" lon="3.1636620">
        <ele>240.6</ele>
        <time>2020-07-04T10:26:57Z</time>
      </trkpt>
      <trkpt lat="46.5913200" lon="3.1639130">
        <ele>238.4</ele>
        <time>2020-07-04T10:27:00Z</time>
      </trkpt>
      <trkpt lat="46.5910420" lon="3.1642440">
        <ele>236.2</ele>
        <time>2020-07-04T10:27:04Z</time>
      </trkpt>
      <trkpt lat="46.5909050" lon="3.1644150">
        <ele>235.4</ele>
        <time>2020-07-04T10:27:06Z</time>
      </trkpt>
      <trkpt lat="46.5908320" lon="3.1645010">
        <ele>234.8</ele>
        <time>2020-07-04T10:27:07Z</time>
      </trkpt>
      <trkpt lat="46.5907590" lon="3.1645860">
        <ele>234.4</ele>
        <time>2020-07-04T10:27:08Z</time>
      </trkpt>
      <trkpt lat="46.5906830" lon="3.1646670">
        <ele>234.0</ele>
        <time>2020-07-04T10:27:09Z</time>
      </trkpt>
      <trkpt lat="46.5905980" lon="3.1647400">
        <ele>233.8</ele>
        <time>2020-07-04T10:27:10Z</time>
      </trkpt>
      <trkpt lat="46.5905050" lon="3.1647920">
        <ele>233.4</ele>
        <time>2020-07-04T10:27:11Z</time>
      </trkpt>
      <trkpt lat="46.5904120" lon="3.1648230">
        <ele>233.4</ele>
        <time>2020-07-04T10:27:12Z</time>
      </trkpt>
      <trkpt lat="46.5903130" lon="3.1648250">
        <ele>233.2</ele>
        <time>2020-07-04T10:27:13Z</time>
      </trkpt>
      <trkpt lat="46.5902100" lon="3.1648020">
        <ele>232.6</ele>
        <time>2020-07-04T10:27:14Z</time>
      </trkpt>
      <trkpt lat="46.5901080" lon="3.1647650">
        <ele>232.0</ele>
        <time>2020-07-04T10:27:15Z</time>
      </trkpt>
      <trkpt lat="46.5899170" lon="3.1646750">
        <ele>230.2</ele>
        <time>2020-07-04T10:27:17Z</time>
      </trkpt>
      <trkpt lat="46.5896500" lon="3.1645310">
        <ele>227.2</ele>
        <time>2020-07-04T10:27:20Z</time>
      </trkpt>
      <trkpt lat="46.5894910" lon="3.1644490">
        <ele>226.2</ele>
        <time>2020-07-04T10:27:22Z</time>
      </trkpt>
      <trkpt lat="46.5893380" lon="3.1643710">
        <ele>226.0</ele>
        <time>2020-07-04T10:27:24Z</time>
      </trkpt>
      <trkpt lat="46.5891990" lon="3.1642840">
        <ele>225.6</ele>
        <time>2020-07-04T10:27:26Z</time>
      </trkpt>
      <trkpt lat="46.5890350" lon="3.1641630">
        <ele>225.8</ele>
        <time>2020-07-04T10:27:29Z</time>
      </trkpt>
      <trkpt lat="46.5889520" lon="3.1640800">
        <ele>226.0</ele>
        <time>2020-07-04T10:27:31Z</time>
      </trkpt>
      <trkpt lat="46.5888330" lon="3.1638970">
        <ele>227.6</ele>
        <time>2020-07-04T10:27:35Z</time>
      </trkpt>
      <trkpt lat="46.5888130" lon="3.1638580">
        <ele>228.2</ele>
        <time>2020-07-04T10:27:36Z</time>
      </trkpt>
      <trkpt lat="46.5887770" lon="3.1637420">
        <ele>229.6</ele>
        <time>2020-07-04T10:27:39Z</time>
      </trkpt>
      <trkpt lat="46.5887670" lon="3.1636510">
        <ele>230.4</ele>
        <time>2020-07-04T10:27:42Z</time>
      </trkpt>
      <trkpt lat="46.5887430" lon="3.1635640">
        <ele>231.4</ele>
        <time>2020-07-04T10:27:45Z</time>
      </trkpt>
      <trkpt lat="46.5886820" lon="3.1634750">
        <ele>232.8</ele>
        <time>2020-07-04T10:27:49Z</time>
      </trkpt>
      <trkpt lat="46.5886480" lon="3.1634070">
        <ele>233.6</ele>
        <time>2020-07-04T10:27:52Z</time>
      </trkpt>
      <trkpt lat="46.5886010" lon="3.1633030">
        <ele>234.2</ele>
        <time>2020-07-04T10:27:56Z</time>
      </trkpt>
      <trkpt lat="46.5885690" lon="3.1632490">
        <ele>234.4</ele>
        <time>2020-07-04T10:27:58Z</time>
      </trkpt>
      <trkpt lat="46.5883970" lon="3.1630900">
        <ele>236.0</ele>
        <time>2020-07-04T10:28:06Z</time>
      </trkpt>
      <trkpt lat="46.5882230" lon="3.1629960">
        <ele>237.2</ele>
        <time>2020-07-04T10:28:15Z</time>
      </trkpt>
      <trkpt lat="46.5881910" lon="3.1629780">
        <ele>237.6</ele>
        <time>2020-07-04T10:28:17Z</time>
      </trkpt>
      <trkpt lat="46.5880840" lon="3.1629260">
        <ele>238.2</ele>
        <time>2020-07-04T10:28:23Z</time>
      </trkpt>
      <trkpt lat="46.5880240" lon="3.1629100">
        <ele>238.6</ele>
        <time>2020-07-04T10:28:26Z</time>
      </trkpt>
      <trkpt lat="46.5879080" lon="3.1628490">
        <ele>239.6</ele>
        <time>2020-07-04T10:28:32Z</time>
      </trkpt>
      <trkpt lat="46.5878410" lon="3.1628230">
        <ele>240.0</ele>
        <time>2020-07-04T10:28:36Z</time>
      </trkpt>
      <trkpt lat="46.5878270" lon="3.1628220">
        <ele>240.2</ele>
        <time>2020-07-04T10:28:37Z</time>
      </trkpt>
      <trkpt lat="46.5876900" lon="3.1628250">
        <ele>241.0</ele>
        <time>2020-07-04T10:28:43Z</time>
      </trkpt>
      <trkpt lat="46.5875520" lon="3.1628340">
        <ele>242.0</ele>
        <time>2020-07-04T10:28:48Z</time>
      </trkpt>
      <trkpt lat="46.5875280" lon="3.1628390">
        <ele>242.2</ele>
        <time>2020-07-04T10:28:49Z</time>
      </trkpt>
      <trkpt lat="46.5874490" lon="3.1628530">
        <ele>242.2</ele>
        <time>2020-07-04T10:28:52Z</time>
      </trkpt>
      <trkpt lat="46.5874230" lon="3.1628560">
        <ele>242.2</ele>
        <time>2020-07-04T10:28:53Z</time>
      </trkpt>
      <trkpt lat="46.5874000" lon="3.1628600">
        <ele>242.2</ele>
        <time>2020-07-04T10:28:54Z</time>
      </trkpt>
      <trkpt lat="46.5873750" lon="3.1628610">
        <ele>242.4</ele>
        <time>2020-07-04T10:28:55Z</time>
      </trkpt>
      <trkpt lat="46.5872100" lon="3.1628920">
        <ele>242.8</ele>
        <time>2020-07-04T10:29:01Z</time>
      </trkpt>
      <trkpt lat="46.5871650" lon="3.1629030">
        <ele>243.2</ele>
        <time>2020-07-04T10:29:03Z</time>
      </trkpt>
      <trkpt lat="46.5871030" lon="3.1629100">
        <ele>243.2</ele>
        <time>2020-07-04T10:29:06Z</time>
      </trkpt>
      <trkpt lat="46.5869740" lon="3.1629610">
        <ele>244.0</ele>
        <time>2020-07-04T10:29:12Z</time>
      </trkpt>
      <trkpt lat="46.5866530" lon="3.1630770">
        <ele>246.6</ele>
        <time>2020-07-04T10:29:25Z</time>
      </trkpt>
      <trkpt lat="46.5863700" lon="3.1631220">
        <ele>247.2</ele>
        <time>2020-07-04T10:29:35Z</time>
      </trkpt>
      <trkpt lat="46.5861440" lon="3.1630470">
        <ele>247.4</ele>
        <time>2020-07-04T10:29:42Z</time>
      </trkpt>
      <trkpt lat="46.5859040" lon="3.1628750">
        <ele>247.4</ele>
        <time>2020-07-04T10:29:50Z</time>
      </trkpt>
      <trkpt lat="46.5857030" lon="3.1627170">
        <ele>247.6</ele>
        <time>2020-07-04T10:29:57Z</time>
      </trkpt>
      <trkpt lat="46.5855600" lon="3.1626180">
        <ele>248.2</ele>
        <time>2020-07-04T10:30:02Z</time>
      </trkpt>
      <trkpt lat="46.5853810" lon="3.1624540">
        <ele>249.2</ele>
        <time>2020-07-04T10:30:09Z</time>
      </trkpt>
      <trkpt lat="46.5850580" lon="3.1621860">
        <ele>249.4</ele>
        <time>2020-07-04T10:30:18Z</time>
      </trkpt>
      <trkpt lat="46.5845860" lon="3.1617940">
        <ele>249.2</ele>
        <time>2020-07-04T10:30:30Z</time>
      </trkpt>
      <trkpt lat="46.5842770" lon="3.1615350">
        <ele>249.6</ele>
        <time>2020-07-04T10:30:38Z</time>
      </trkpt>
      <trkpt lat="46.5838530" lon="3.1611640">
        <ele>250.0</ele>
        <time>2020-07-04T10:30:48Z</time>
      </trkpt>
      <trkpt lat="46.5836980" lon="3.1610570">
        <ele>250.4</ele>
        <time>2020-07-04T10:30:53Z</time>
      </trkpt>
      <trkpt lat="46.5836760" lon="3.1610280">
        <ele>250.6</ele>
        <time>2020-07-04T10:30:57Z</time>
      </trkpt>
      <trkpt lat="46.5835690" lon="3.1609120">
        <ele>250.6</ele>
        <time>2020-07-04T10:31:04Z</time>
      </trkpt>
      <trkpt lat="46.5833180" lon="3.1607730">
        <ele>250.6</ele>
        <time>2020-07-04T10:31:13Z</time>
      </trkpt>
      <trkpt lat="46.5830430" lon="3.1606890">
        <ele>251.0</ele>
        <time>2020-07-04T10:31:20Z</time>
      </trkpt>
      <trkpt lat="46.5829090" lon="3.1606510">
        <ele>250.8</ele>
        <time>2020-07-04T10:31:23Z</time>
      </trkpt>
      <trkpt lat="46.5825630" lon="3.1605290">
        <ele>250.8</ele>
        <time>2020-07-04T10:31:30Z</time>
      </trkpt>
      <trkpt lat="46.5821580" lon="3.1603870">
        <ele>251.4</ele>
        <time>2020-07-04T10:31:39Z</time>
      </trkpt>
      <trkpt lat="46.5820350" lon="3.1603650">
        <ele>251.6</ele>
        <time>2020-07-04T10:31:42Z</time>
      </trkpt>
      <trkpt lat="46.5818090" lon="3.1603210">
        <ele>252.0</ele>
        <time>2020-07-04T10:31:48Z</time>
      </trkpt>
      <trkpt lat="46.5817270" lon="3.1603120">
        <ele>252.0</ele>
        <time>2020-07-04T10:31:50Z</time>
      </trkpt>
      <trkpt lat="46.5813760" lon="3.1602860">
        <ele>252.6</ele>
        <time>2020-07-04T10:31:58Z</time>
      </trkpt>
      <trkpt lat="46.5808900" lon="3.1602540">
        <ele>253.0</ele>
        <time>2020-07-04T10:32:09Z</time>
      </trkpt>
      <trkpt lat="46.5803910" lon="3.1602440">
        <ele>253.6</ele>
        <time>2020-07-04T10:32:20Z</time>
      </trkpt>
      <trkpt lat="46.5798760" lon="3.1602610">
        <ele>254.2</ele>
        <time>2020-07-04T10:32:31Z</time>
      </trkpt>
      <trkpt lat="46.5798280" lon="3.1602610">
        <ele>254.4</ele>
        <time>2020-07-04T10:32:32Z</time>
      </trkpt>
      <trkpt lat="46.5793550" lon="3.1602970">
        <ele>255.0</ele>
        <time>2020-07-04T10:32:42Z</time>
      </trkpt>
      <trkpt lat="46.5788600" lon="3.1603100">
        <ele>255.2</ele>
        <time>2020-07-04T10:32:53Z</time>
      </trkpt>
      <trkpt lat="46.5788150" lon="3.1603120">
        <ele>255.4</ele>
        <time>2020-07-04T10:32:54Z</time>
      </trkpt>
      <trkpt lat="46.5782300" lon="3.1603420">
        <ele>256.2</ele>
        <time>2020-07-04T10:33:07Z</time>
      </trkpt>
      <trkpt lat="46.5781840" lon="3.1603460">
        <ele>256.2</ele>
        <time>2020-07-04T10:33:08Z</time>
      </trkpt>
      <trkpt lat="46.5776300" lon="3.1603720">
        <ele>256.8</ele>
        <time>2020-07-04T10:33:21Z</time>
      </trkpt>
      <trkpt lat="46.5770860" lon="3.1603770">
        <ele>257.2</ele>
        <time>2020-07-04T10:33:33Z</time>
      </trkpt>
      <trkpt lat="46.5770410" lon="3.1603770">
        <ele>257.0</ele>
        <time>2020-07-04T10:33:34Z</time>
      </trkpt>
      <trkpt lat="46.5764770" lon="3.1604050">
        <ele>257.0</ele>
        <time>2020-07-04T10:33:46Z</time>
      </trkpt>
      <trkpt lat="46.5759440" lon="3.1604180">
        <ele>257.0</ele>
        <time>2020-07-04T10:33:56Z</time>
      </trkpt>
      <trkpt lat="46.5753610" lon="3.1604370">
        <ele>257.2</ele>
        <time>2020-07-04T10:34:07Z</time>
      </trkpt>
      <trkpt lat="46.5752590" lon="3.1604400">
        <ele>257.2</ele>
        <time>2020-07-04T10:34:09Z</time>
      </trkpt>
      <trkpt lat="46.5752120" lon="3.1604410">
        <ele>257.2</ele>
        <time>2020-07-04T10:34:10Z</time>
      </trkpt>
      <trkpt lat="46.5746270" lon="3.1604440">
        <ele>257.4</ele>
        <time>2020-07-04T10:34:22Z</time>
      </trkpt>
      <trkpt lat="46.5740770" lon="3.1604620">
        <ele>257.6</ele>
        <time>2020-07-04T10:34:33Z</time>
      </trkpt>
      <trkpt lat="46.5740310" lon="3.1604630">
        <ele>257.4</ele>
        <time>2020-07-04T10:34:34Z</time>
      </trkpt>
      <trkpt lat="46.5736230" lon="3.1604720">
        <ele>257.6</ele>
        <time>2020-07-04T10:34:43Z</time>
      </trkpt>
      <trkpt lat="46.5730800" lon="3.1604800">
        <ele>257.4</ele>
        <time>2020-07-04T10:34:54Z</time>
      </trkpt>
      <trkpt lat="46.5725200" lon="3.1605100">
        <ele>257.2</ele>
        <time>2020-07-04T10:35:05Z</time>
      </trkpt>
      <trkpt lat="46.5724700" lon="3.1605140">
        <ele>257.2</ele>
        <time>2020-07-04T10:35:06Z</time>
      </trkpt>
      <trkpt lat="46.5723740" lon="3.1605190">
        <ele>257.2</ele>
        <time>2020-07-04T10:35:08Z</time>
      </trkpt>
      <trkpt lat="46.5721310" lon="3.1605270">
        <ele>257.4</ele>
        <time>2020-07-04T10:35:13Z</time>
      </trkpt>
      <trkpt lat="46.5718290" lon="3.1605390">
        <ele>257.4</ele>
        <time>2020-07-04T10:35:19Z</time>
      </trkpt>
      <trkpt lat="46.5712770" lon="3.1605640">
        <ele>258.0</ele>
        <time>2020-07-04T10:35:30Z</time>
      </trkpt>
      <trkpt lat="46.5712280" lon="3.1605640">
        <ele>258.0</ele>
        <time>2020-07-04T10:35:31Z</time>
      </trkpt>
      <trkpt lat="46.5711790" lon="3.1605640">
        <ele>258.0</ele>
        <time>2020-07-04T10:35:32Z</time>
      </trkpt>
      <trkpt lat="46.5707880" lon="3.1605670">
        <ele>258.4</ele>
        <time>2020-07-04T10:35:41Z</time>
      </trkpt>
      <trkpt lat="46.5703270" lon="3.1605850">
        <ele>258.6</ele>
        <time>2020-07-04T10:35:52Z</time>
      </trkpt>
      <trkpt lat="46.5701440" lon="3.1605910">
        <ele>258.4</ele>
        <time>2020-07-04T10:35:56Z</time>
      </trkpt>
      <trkpt lat="46.5699040" lon="3.1605940">
        <ele>258.4</ele>
        <time>2020-07-04T10:36:01Z</time>
      </trkpt>
      <trkpt lat="46.5698080" lon="3.1605940">
        <ele>258.4</ele>
        <time>2020-07-04T10:36:03Z</time>
      </trkpt>
      <trkpt lat="46.5692200" lon="3.1605950">
        <ele>258.6</ele>
        <time>2020-07-04T10:36:15Z</time>
      </trkpt>
      <trkpt lat="46.5691710" lon="3.1605990">
        <ele>258.6</ele>
        <time>2020-07-04T10:36:16Z</time>
      </trkpt>
      <trkpt lat="46.5685860" lon="3.1606100">
        <ele>258.8</ele>
        <time>2020-07-04T10:36:28Z</time>
      </trkpt>
      <trkpt lat="46.5685370" lon="3.1606120">
        <ele>258.8</ele>
        <time>2020-07-04T10:36:29Z</time>
      </trkpt>
      <trkpt lat="46.5681090" lon="3.1606400">
        <ele>258.8</ele>
        <time>2020-07-04T10:36:38Z</time>
      </trkpt>
      <trkpt lat="46.5680610" lon="3.1606430">
        <ele>258.8</ele>
        <time>2020-07-04T10:36:39Z</time>
      </trkpt>
      <trkpt lat="46.5680120" lon="3.1606450">
        <ele>258.8</ele>
        <time>2020-07-04T10:36:40Z</time>
      </trkpt>
      <trkpt lat="46.5675080" lon="3.1606620">
        <ele>258.8</ele>
        <time>2020-07-04T10:36:50Z</time>
      </trkpt>
      <trkpt lat="46.5669340" lon="3.1606770">
        <ele>259.0</ele>
        <time>2020-07-04T10:37:01Z</time>
      </trkpt>
      <trkpt lat="46.5668330" lon="3.1606820">
        <ele>259.0</ele>
        <time>2020-07-04T10:37:03Z</time>
      </trkpt>
      <trkpt lat="46.5664120" lon="3.1607160">
        <ele>259.0</ele>
        <time>2020-07-04T10:37:12Z</time>
      </trkpt>
      <trkpt lat="46.5658570" lon="3.1607260">
        <ele>259.2</ele>
        <time>2020-07-04T10:37:24Z</time>
      </trkpt>
      <trkpt lat="46.5658110" lon="3.1607280">
        <ele>259.2</ele>
        <time>2020-07-04T10:37:25Z</time>
      </trkpt>
      <trkpt lat="46.5653480" lon="3.1606970">
        <ele>259.0</ele>
        <time>2020-07-04T10:37:36Z</time>
      </trkpt>
      <trkpt lat="46.5653070" lon="3.1606850">
        <ele>259.0</ele>
        <time>2020-07-04T10:37:37Z</time>
      </trkpt>
      <trkpt lat="46.5649690" lon="3.1605630">
        <ele>258.4</ele>
        <time>2020-07-04T10:37:45Z</time>
      </trkpt>
      <trkpt lat="46.5647940" lon="3.1604970">
        <ele>258.2</ele>
        <time>2020-07-04T10:37:49Z</time>
      </trkpt>
      <trkpt lat="46.5645620" lon="3.1603590">
        <ele>258.2</ele>
        <time>2020-07-04T10:37:54Z</time>
      </trkpt>
      <trkpt lat="46.5645180" lon="3.1603280">
        <ele>258.4</ele>
        <time>2020-07-04T10:37:55Z</time>
      </trkpt>
      <trkpt lat="46.5641780" lon="3.1600160">
        <ele>259.2</ele>
        <time>2020-07-04T10:38:04Z</time>
      </trkpt>
      <trkpt lat="46.5638120" lon="3.1595920">
        <ele>260.2</ele>
        <time>2020-07-04T10:38:15Z</time>
      </trkpt>
      <trkpt lat="46.5633570" lon="3.1592170">
        <ele>260.4</ele>
        <time>2020-07-04T10:38:27Z</time>
      </trkpt>
      <trkpt lat="46.5632790" lon="3.1590780">
        <ele>260.6</ele>
        <time>2020-07-04T10:38:30Z</time>
      </trkpt>
      <trkpt lat="46.5631430" lon="3.1588950">
        <ele>260.6</ele>
        <time>2020-07-04T10:38:34Z</time>
      </trkpt>
      <trkpt lat="46.5630380" lon="3.1587690">
        <ele>260.6</ele>
        <time>2020-07-04T10:38:37Z</time>
      </trkpt>
      <trkpt lat="46.5625720" lon="3.1582700">
        <ele>261.0</ele>
        <time>2020-07-04T10:38:49Z</time>
      </trkpt>
      <trkpt lat="46.5625330" lon="3.1582290">
        <ele>261.2</ele>
        <time>2020-07-04T10:38:50Z</time>
      </trkpt>
      <trkpt lat="46.5624970" lon="3.1581900">
        <ele>261.0</ele>
        <time>2020-07-04T10:38:51Z</time>
      </trkpt>
      <trkpt lat="46.5622270" lon="3.1578930">
        <ele>261.0</ele>
        <time>2020-07-04T10:38:58Z</time>
      </trkpt>
      <trkpt lat="46.5621490" lon="3.1578030">
        <ele>261.0</ele>
        <time>2020-07-04T10:39:00Z</time>
      </trkpt>
      <trkpt lat="46.5617350" lon="3.1573860">
        <ele>261.0</ele>
        <time>2020-07-04T10:39:10Z</time>
      </trkpt>
      <trkpt lat="46.5614120" lon="3.1570390">
        <ele>261.2</ele>
        <time>2020-07-04T10:39:18Z</time>
      </trkpt>
      <trkpt lat="46.5609340" lon="3.1565340">
        <ele>261.2</ele>
        <time>2020-07-04T10:39:29Z</time>
      </trkpt>
      <trkpt lat="46.5606250" lon="3.1561940">
        <ele>261.4</ele>
        <time>2020-07-04T10:39:37Z</time>
      </trkpt>
      <trkpt lat="46.5602200" lon="3.1557720">
        <ele>261.8</ele>
        <time>2020-07-04T10:39:47Z</time>
      </trkpt>
      <trkpt lat="46.5598800" lon="3.1554170">
        <ele>262.0</ele>
        <time>2020-07-04T10:39:55Z</time>
      </trkpt>
      <trkpt lat="46.5594890" lon="3.1550270">
        <ele>262.0</ele>
        <time>2020-07-04T10:40:04Z</time>
      </trkpt>
      <trkpt lat="46.5594460" lon="3.1549840">
        <ele>262.0</ele>
        <time>2020-07-04T10:40:05Z</time>
      </trkpt>
      <trkpt lat="46.5589790" lon="3.1545110">
        <ele>262.8</ele>
        <time>2020-07-04T10:40:16Z</time>
      </trkpt>
      <trkpt lat="46.5589370" lon="3.1544670">
        <ele>262.8</ele>
        <time>2020-07-04T10:40:17Z</time>
      </trkpt>
      <trkpt lat="46.5588960" lon="3.1544230">
        <ele>262.8</ele>
        <time>2020-07-04T10:40:18Z</time>
      </trkpt>
      <trkpt lat="46.5584440" lon="3.1539450">
        <ele>263.6</ele>
        <time>2020-07-04T10:40:29Z</time>
      </trkpt>
      <trkpt lat="46.5581570" lon="3.1536520">
        <ele>263.8</ele>
        <time>2020-07-04T10:40:36Z</time>
      </trkpt>
      <trkpt lat="46.5579160" lon="3.1533970">
        <ele>264.2</ele>
        <time>2020-07-04T10:40:42Z</time>
      </trkpt>
      <trkpt lat="46.5574810" lon="3.1529310">
        <ele>265.0</ele>
        <time>2020-07-04T10:40:53Z</time>
      </trkpt>
      <trkpt lat="46.5573620" lon="3.1528080">
        <ele>265.0</ele>
        <time>2020-07-04T10:40:56Z</time>
      </trkpt>
      <trkpt lat="46.5570730" lon="3.1524740">
        <ele>265.0</ele>
        <time>2020-07-04T10:41:04Z</time>
      </trkpt>
      <trkpt lat="46.5569440" lon="3.1523470">
        <ele>264.8</ele>
        <time>2020-07-04T10:41:07Z</time>
      </trkpt>
      <trkpt lat="46.5567710" lon="3.1521720">
        <ele>264.4</ele>
        <time>2020-07-04T10:41:11Z</time>
      </trkpt>
      <trkpt lat="46.5566190" lon="3.1520330">
        <ele>263.8</ele>
        <time>2020-07-04T10:41:14Z</time>
      </trkpt>
      <trkpt lat="46.5565350" lon="3.1519520">
        <ele>263.6</ele>
        <time>2020-07-04T10:41:16Z</time>
      </trkpt>
      <trkpt lat="46.5563000" lon="3.1517000">
        <ele>262.8</ele>
        <time>2020-07-04T10:41:21Z</time>
      </trkpt>
      <trkpt lat="46.5561210" lon="3.1515180">
        <ele>261.6</ele>
        <time>2020-07-04T10:41:25Z</time>
      </trkpt>
      <trkpt lat="46.5559010" lon="3.1513220">
        <ele>260.4</ele>
        <time>2020-07-04T10:41:30Z</time>
      </trkpt>
      <trkpt lat="46.5558160" lon="3.1512960">
        <ele>260.0</ele>
        <time>2020-07-04T10:41:32Z</time>
      </trkpt>
      <trkpt lat="46.5557800" lon="3.1513040">
        <ele>260.0</ele>
        <time>2020-07-04T10:41:33Z</time>
      </trkpt>
      <trkpt lat="46.5557530" lon="3.1513290">
        <ele>260.2</ele>
        <time>2020-07-04T10:41:34Z</time>
      </trkpt>
      <trkpt lat="46.5557310" lon="3.1513680">
        <ele>260.2</ele>
        <time>2020-07-04T10:41:35Z</time>
      </trkpt>
      <trkpt lat="46.5556680" lon="3.1516350">
        <ele>260.2</ele>
        <time>2020-07-04T10:41:41Z</time>
      </trkpt>
      <trkpt lat="46.5556640" lon="3.1516780">
        <ele>260.2</ele>
        <time>2020-07-04T10:41:42Z</time>
      </trkpt>
      <trkpt lat="46.5556440" lon="3.1518510">
        <ele>261.4</ele>
        <time>2020-07-04T10:41:47Z</time>
      </trkpt>
      <trkpt lat="46.5556370" lon="3.1518810">
        <ele>261.6</ele>
        <time>2020-07-04T10:41:48Z</time>
      </trkpt>
      <trkpt lat="46.5555700" lon="3.1520840">
        <ele>262.4</ele>
        <time>2020-07-04T10:41:55Z</time>
      </trkpt>
      <trkpt lat="46.5555630" lon="3.1521180">
        <ele>262.4</ele>
        <time>2020-07-04T10:41:56Z</time>
      </trkpt>
      <trkpt lat="46.5555540" lon="3.1521500">
        <ele>262.4</ele>
        <time>2020-07-04T10:41:57Z</time>
      </trkpt>
      <trkpt lat="46.5555440" lon="3.1521810">
        <ele>262.6</ele>
        <time>2020-07-04T10:41:58Z</time>
      </trkpt>
      <trkpt lat="46.5554630" lon="3.1523960">
        <ele>263.8</ele>
        <time>2020-07-04T10:42:05Z</time>
      </trkpt>
      <trkpt lat="46.5554330" lon="3.1525080">
        <ele>264.4</ele>
        <time>2020-07-04T10:42:09Z</time>
      </trkpt>
      <trkpt lat="46.5554090" lon="3.1525540">
        <ele>264.6</ele>
        <time>2020-07-04T10:42:11Z</time>
      </trkpt>
      <trkpt lat="46.5553980" lon="3.1525790">
        <ele>264.6</ele>
        <time>2020-07-04T10:42:12Z</time>
      </trkpt>
      <trkpt lat="46.5553880" lon="3.1526080">
        <ele>264.8</ele>
        <time>2020-07-04T10:42:13Z</time>
      </trkpt>
      <trkpt lat="46.5553720" lon="3.1526400">
        <ele>264.8</ele>
        <time>2020-07-04T10:42:14Z</time>
      </trkpt>
      <trkpt lat="46.5553570" lon="3.1526750">
        <ele>264.8</ele>
        <time>2020-07-04T10:42:15Z</time>
      </trkpt>
      <trkpt lat="46.5552600" lon="3.1529450">
        <ele>266.4</ele>
        <time>2020-07-04T10:42:24Z</time>
      </trkpt>
      <trkpt lat="46.5552160" lon="3.1531570">
        <ele>267.0</ele>
        <time>2020-07-04T10:42:31Z</time>
      </trkpt>
      <trkpt lat="46.5552110" lon="3.1531880">
        <ele>267.0</ele>
        <time>2020-07-04T10:42:32Z</time>
      </trkpt>
      <trkpt lat="46.5552040" lon="3.1532190">
        <ele>267.2</ele>
        <time>2020-07-04T10:42:33Z</time>
      </trkpt>
      <trkpt lat="46.5550950" lon="3.1535700">
        <ele>267.8</ele>
        <time>2020-07-04T10:42:43Z</time>
      </trkpt>
      <trkpt lat="46.5549700" lon="3.1539630">
        <ele>268.4</ele>
        <time>2020-07-04T10:42:54Z</time>
      </trkpt>
      <trkpt lat="46.5549290" lon="3.1541630">
        <ele>268.6</ele>
        <time>2020-07-04T10:42:59Z</time>
      </trkpt>
      <trkpt lat="46.5549220" lon="3.1542990">
        <ele>268.6</ele>
        <time>2020-07-04T10:43:02Z</time>
      </trkpt>
      <trkpt lat="46.5549670" lon="3.1547320">
        <ele>269.0</ele>
        <time>2020-07-04T10:43:10Z</time>
      </trkpt>
      <trkpt lat="46.5550170" lon="3.1553070">
        <ele>269.0</ele>
        <time>2020-07-04T10:43:19Z</time>
      </trkpt>
      <trkpt lat="46.5550430" lon="3.1557010">
        <ele>269.0</ele>
        <time>2020-07-04T10:43:24Z</time>
      </trkpt>
      <trkpt lat="46.5550800" lon="3.1561110">
        <ele>268.6</ele>
        <time>2020-07-04T10:43:29Z</time>
      </trkpt>
      <trkpt lat="46.5551500" lon="3.1569500">
        <ele>268.0</ele>
        <time>2020-07-04T10:43:39Z</time>
      </trkpt>
      <trkpt lat="46.5551510" lon="3.1570390">
        <ele>267.8</ele>
        <time>2020-07-04T10:43:40Z</time>
      </trkpt>
      <trkpt lat="46.5550960" lon="3.1575490">
        <ele>268.0</ele>
        <time>2020-07-04T10:43:46Z</time>
      </trkpt>
      <trkpt lat="46.5549660" lon="3.1583770">
        <ele>268.0</ele>
        <time>2020-07-04T10:43:56Z</time>
      </trkpt>
      <trkpt lat="46.5549330" lon="3.1586130">
        <ele>268.0</ele>
        <time>2020-07-04T10:43:59Z</time>
      </trkpt>
      <trkpt lat="46.5549010" lon="3.1588300">
        <ele>267.6</ele>
        <time>2020-07-04T10:44:02Z</time>
      </trkpt>
      <trkpt lat="46.5548910" lon="3.1589060">
        <ele>267.6</ele>
        <time>2020-07-04T10:44:03Z</time>
      </trkpt>
      <trkpt lat="46.5548830" lon="3.1589840">
        <ele>267.6</ele>
        <time>2020-07-04T10:44:04Z</time>
      </trkpt>
      <trkpt lat="46.5547800" lon="3.1597710">
        <ele>267.0</ele>
        <time>2020-07-04T10:44:14Z</time>
      </trkpt>
      <trkpt lat="46.5546690" lon="3.1604990">
        <ele>266.6</ele>
        <time>2020-07-04T10:44:23Z</time>
      </trkpt>
      <trkpt lat="46.5545700" lon="3.1612430">
        <ele>266.4</ele>
        <time>2020-07-04T10:44:31Z</time>
      </trkpt>
      <trkpt lat="46.5545580" lon="3.1613420">
        <ele>266.2</ele>
        <time>2020-07-04T10:44:32Z</time>
      </trkpt>
      <trkpt lat="46.5544450" lon="3.1621270">
        <ele>265.6</ele>
        <time>2020-07-04T10:44:40Z</time>
      </trkpt>
      <trkpt lat="46.5543720" lon="3.1626040">
        <ele>264.8</ele>
        <time>2020-07-04T10:44:45Z</time>
      </trkpt>
      <trkpt lat="46.5542900" lon="3.1631840">
        <ele>264.4</ele>
        <time>2020-07-04T10:44:51Z</time>
      </trkpt>
      <trkpt lat="46.5542150" lon="3.1637930">
        <ele>264.4</ele>
        <time>2020-07-04T10:44:57Z</time>
      </trkpt>
      <trkpt lat="46.5541640" lon="3.1642020">
        <ele>264.4</ele>
        <time>2020-07-04T10:45:01Z</time>
      </trkpt>
      <trkpt lat="46.5541350" lon="3.1644010">
        <ele>264.4</ele>
        <time>2020-07-04T10:45:03Z</time>
      </trkpt>
      <trkpt lat="46.5540840" lon="3.1647670">
        <ele>264.4</ele>
        <time>2020-07-04T10:45:07Z</time>
      </trkpt>
      <trkpt lat="46.5539980" lon="3.1653930">
        <ele>265.2</ele>
        <time>2020-07-04T10:45:14Z</time>
      </trkpt>
      <trkpt lat="46.5539390" lon="3.1658320">
        <ele>265.4</ele>
        <time>2020-07-04T10:45:19Z</time>
      </trkpt>
      <trkpt lat="46.5538320" lon="3.1666190">
        <ele>265.8</ele>
        <time>2020-07-04T10:45:28Z</time>
      </trkpt>
      <trkpt lat="46.5537930" lon="3.1668740">
        <ele>265.8</ele>
        <time>2020-07-04T10:45:31Z</time>
      </trkpt>
      <trkpt lat="46.5536750" lon="3.1676510">
        <ele>266.0</ele>
        <time>2020-07-04T10:45:40Z</time>
      </trkpt>
      <trkpt lat="46.5536310" lon="3.1680110">
        <ele>266.0</ele>
        <time>2020-07-04T10:45:44Z</time>
      </trkpt>
      <trkpt lat="46.5535990" lon="3.1681800">
        <ele>266.0</ele>
        <time>2020-07-04T10:45:46Z</time>
      </trkpt>
      <trkpt lat="46.5534940" lon="3.1689760">
        <ele>265.6</ele>
        <time>2020-07-04T10:45:55Z</time>
      </trkpt>
      <trkpt lat="46.5534820" lon="3.1690600">
        <ele>265.6</ele>
        <time>2020-07-04T10:45:56Z</time>
      </trkpt>
      <trkpt lat="46.5533590" lon="3.1698960">
        <ele>265.6</ele>
        <time>2020-07-04T10:46:06Z</time>
      </trkpt>
      <trkpt lat="46.5533340" lon="3.1700610">
        <ele>265.6</ele>
        <time>2020-07-04T10:46:08Z</time>
      </trkpt>
      <trkpt lat="46.5532350" lon="3.1708350">
        <ele>265.6</ele>
        <time>2020-07-04T10:46:17Z</time>
      </trkpt>
      <trkpt lat="46.5532020" lon="3.1711000">
        <ele>265.6</ele>
        <time>2020-07-04T10:46:20Z</time>
      </trkpt>
      <trkpt lat="46.5531080" lon="3.1718790">
        <ele>265.6</ele>
        <time>2020-07-04T10:46:29Z</time>
      </trkpt>
      <trkpt lat="46.5530970" lon="3.1719630">
        <ele>265.6</ele>
        <time>2020-07-04T10:46:30Z</time>
      </trkpt>
      <trkpt lat="46.5530810" lon="3.1721350">
        <ele>265.6</ele>
        <time>2020-07-04T10:46:32Z</time>
      </trkpt>
      <trkpt lat="46.5529470" lon="3.1729370">
        <ele>266.0</ele>
        <time>2020-07-04T10:46:41Z</time>
      </trkpt>
      <trkpt lat="46.5529000" lon="3.1731160">
        <ele>266.2</ele>
        <time>2020-07-04T10:46:43Z</time>
      </trkpt>
      <trkpt lat="46.5526950" lon="3.1736020">
        <ele>266.2</ele>
        <time>2020-07-04T10:46:49Z</time>
      </trkpt>
      <trkpt lat="46.5526080" lon="3.1737430">
        <ele>266.2</ele>
        <time>2020-07-04T10:46:51Z</time>
      </trkpt>
      <trkpt lat="46.5524180" lon="3.1740030">
        <ele>266.0</ele>
        <time>2020-07-04T10:46:55Z</time>
      </trkpt>
      <trkpt lat="46.5523700" lon="3.1740660">
        <ele>266.2</ele>
        <time>2020-07-04T10:46:56Z</time>
      </trkpt>
      <trkpt lat="46.5519610" lon="3.1745710">
        <ele>265.8</ele>
        <time>2020-07-04T10:47:05Z</time>
      </trkpt>
      <trkpt lat="46.5518280" lon="3.1747280">
        <ele>265.8</ele>
        <time>2020-07-04T10:47:08Z</time>
      </trkpt>
      <trkpt lat="46.5514780" lon="3.1751620">
        <ele>265.6</ele>
        <time>2020-07-04T10:47:16Z</time>
      </trkpt>
      <trkpt lat="46.5514350" lon="3.1752140">
        <ele>265.6</ele>
        <time>2020-07-04T10:47:17Z</time>
      </trkpt>
      <trkpt lat="46.5510760" lon="3.1756730">
        <ele>265.6</ele>
        <time>2020-07-04T10:47:25Z</time>
      </trkpt>
      <trkpt lat="46.5507170" lon="3.1761580">
        <ele>265.6</ele>
        <time>2020-07-04T10:47:33Z</time>
      </trkpt>
      <trkpt lat="46.5505790" lon="3.1763520">
        <ele>266.0</ele>
        <time>2020-07-04T10:47:36Z</time>
      </trkpt>
      <trkpt lat="46.5501770" lon="3.1768760">
        <ele>266.8</ele>
        <time>2020-07-04T10:47:45Z</time>
      </trkpt>
      <trkpt lat="46.5501370" lon="3.1769340">
        <ele>266.8</ele>
        <time>2020-07-04T10:47:46Z</time>
      </trkpt>
      <trkpt lat="46.5497150" lon="3.1774870">
        <ele>267.4</ele>
        <time>2020-07-04T10:47:56Z</time>
      </trkpt>
      <trkpt lat="46.5495540" lon="3.1777090">
        <ele>267.6</ele>
        <time>2020-07-04T10:48:00Z</time>
      </trkpt>
      <trkpt lat="46.5491860" lon="3.1782270">
        <ele>267.8</ele>
        <time>2020-07-04T10:48:09Z</time>
      </trkpt>
      <trkpt lat="46.5489840" lon="3.1787380">
        <ele>268.2</ele>
        <time>2020-07-04T10:48:16Z</time>
      </trkpt>
      <trkpt lat="46.5487800" lon="3.1793510">
        <ele>268.6</ele>
        <time>2020-07-04T10:48:25Z</time>
      </trkpt>
      <trkpt lat="46.5485760" lon="3.1798910">
        <ele>268.4</ele>
        <time>2020-07-04T10:48:33Z</time>
      </trkpt>
      <trkpt lat="46.5485140" lon="3.1800210">
        <ele>268.4</ele>
        <time>2020-07-04T10:48:35Z</time>
      </trkpt>
      <trkpt lat="46.5482780" lon="3.1806690">
        <ele>269.0</ele>
        <time>2020-07-04T10:48:44Z</time>
      </trkpt>
      <trkpt lat="46.5480080" lon="3.1813090">
        <ele>269.4</ele>
        <time>2020-07-04T10:48:53Z</time>
      </trkpt>
      <trkpt lat="46.5479570" lon="3.1814470">
        <ele>269.6</ele>
        <time>2020-07-04T10:48:55Z</time>
      </trkpt>
      <trkpt lat="46.5476850" lon="3.1822020">
        <ele>270.4</ele>
        <time>2020-07-04T10:49:06Z</time>
      </trkpt>
      <trkpt lat="46.5475100" lon="3.1827260">
        <ele>271.0</ele>
        <time>2020-07-04T10:49:14Z</time>
      </trkpt>
      <trkpt lat="46.5474410" lon="3.1829180">
        <ele>271.2</ele>
        <time>2020-07-04T10:49:17Z</time>
      </trkpt>
      <trkpt lat="46.5473120" lon="3.1832140">
        <ele>271.4</ele>
        <time>2020-07-04T10:49:22Z</time>
      </trkpt>
      <trkpt lat="46.5472430" lon="3.1833950">
        <ele>271.6</ele>
        <time>2020-07-04T10:49:25Z</time>
      </trkpt>
      <trkpt lat="46.5471630" lon="3.1835670">
        <ele>272.0</ele>
        <time>2020-07-04T10:49:28Z</time>
      </trkpt>
      <trkpt lat="46.5470780" lon="3.1836430">
        <ele>272.0</ele>
        <time>2020-07-04T10:49:30Z</time>
      </trkpt>
      <trkpt lat="46.5469840" lon="3.1836800">
        <ele>272.2</ele>
        <time>2020-07-04T10:49:32Z</time>
      </trkpt>
      <trkpt lat="46.5468830" lon="3.1836770">
        <ele>272.2</ele>
        <time>2020-07-04T10:49:34Z</time>
      </trkpt>
      <trkpt lat="46.5464020" lon="3.1836310">
        <ele>272.6</ele>
        <time>2020-07-04T10:49:44Z</time>
      </trkpt>
      <trkpt lat="46.5462740" lon="3.1836380">
        <ele>272.6</ele>
        <time>2020-07-04T10:49:47Z</time>
      </trkpt>
      <trkpt lat="46.5461430" lon="3.1836300">
        <ele>272.8</ele>
        <time>2020-07-04T10:49:50Z</time>
      </trkpt>
      <trkpt lat="46.5460970" lon="3.1836290">
        <ele>273.0</ele>
        <time>2020-07-04T10:49:51Z</time>
      </trkpt>
      <trkpt lat="46.5458190" lon="3.1836190">
        <ele>273.6</ele>
        <time>2020-07-04T10:49:57Z</time>
      </trkpt>
      <trkpt lat="46.5455920" lon="3.1836250">
        <ele>273.8</ele>
        <time>2020-07-04T10:50:02Z</time>
      </trkpt>
      <trkpt lat="46.5455080" lon="3.1836270">
        <ele>273.8</ele>
        <time>2020-07-04T10:50:04Z</time>
      </trkpt>
      <trkpt lat="46.5452890" lon="3.1836330">
        <ele>273.8</ele>
        <time>2020-07-04T10:50:09Z</time>
      </trkpt>
      <trkpt lat="46.5451500" lon="3.1836460">
        <ele>274.0</ele>
        <time>2020-07-04T10:50:12Z</time>
      </trkpt>
      <trkpt lat="46.5450590" lon="3.1836580">
        <ele>274.0</ele>
        <time>2020-07-04T10:50:14Z</time>
      </trkpt>
      <trkpt lat="46.5447470" lon="3.1837300">
        <ele>273.8</ele>
        <time>2020-07-04T10:50:21Z</time>
      </trkpt>
      <trkpt lat="46.5446200" lon="3.1837780">
        <ele>274.0</ele>
        <time>2020-07-04T10:50:24Z</time>
      </trkpt>
      <trkpt lat="46.5445820" lon="3.1837940">
        <ele>274.0</ele>
        <time>2020-07-04T10:50:25Z</time>
      </trkpt>
      <trkpt lat="46.5444170" lon="3.1838690">
        <ele>274.2</ele>
        <time>2020-07-04T10:50:29Z</time>
      </trkpt>
      <trkpt lat="46.5443340" lon="3.1839040">
        <ele>274.2</ele>
        <time>2020-07-04T10:50:31Z</time>
      </trkpt>
      <trkpt lat="46.5442930" lon="3.1839240">
        <ele>274.2</ele>
        <time>2020-07-04T10:50:32Z</time>
      </trkpt>
      <trkpt lat="46.5442120" lon="3.1839600">
        <ele>274.4</ele>
        <time>2020-07-04T10:50:34Z</time>
      </trkpt>
      <trkpt lat="46.5439140" lon="3.1840730">
        <ele>275.0</ele>
        <time>2020-07-04T10:50:41Z</time>
      </trkpt>
      <trkpt lat="46.5438250" lon="3.1841090">
        <ele>275.2</ele>
        <time>2020-07-04T10:50:43Z</time>
      </trkpt>
      <trkpt lat="46.5437810" lon="3.1841270">
        <ele>275.2</ele>
        <time>2020-07-04T10:50:44Z</time>
      </trkpt>
      <trkpt lat="46.5433740" lon="3.1842540">
        <ele>275.8</ele>
        <time>2020-07-04T10:50:53Z</time>
      </trkpt>
      <trkpt lat="46.5428250" lon="3.1844670">
        <ele>275.8</ele>
        <time>2020-07-04T10:51:05Z</time>
      </trkpt>
      <trkpt lat="46.5427370" lon="3.1845030">
        <ele>275.6</ele>
        <time>2020-07-04T10:51:07Z</time>
      </trkpt>
      <trkpt lat="46.5423740" lon="3.1846370">
        <ele>276.0</ele>
        <time>2020-07-04T10:51:15Z</time>
      </trkpt>
      <trkpt lat="46.5422520" lon="3.1846960">
        <ele>276.0</ele>
        <time>2020-07-04T10:51:18Z</time>
      </trkpt>
      <trkpt lat="46.5419260" lon="3.1848800">
        <ele>276.6</ele>
        <time>2020-07-04T10:51:26Z</time>
      </trkpt>
      <trkpt lat="46.5417610" lon="3.1850050">
        <ele>276.6</ele>
        <time>2020-07-04T10:51:30Z</time>
      </trkpt>
      <trkpt lat="46.5415970" lon="3.1851400">
        <ele>276.8</ele>
        <time>2020-07-04T10:51:34Z</time>
      </trkpt>
      <trkpt lat="46.5411440" lon="3.1854900">
        <ele>276.2</ele>
        <time>2020-07-04T10:51:44Z</time>
      </trkpt>
      <trkpt lat="46.5408400" lon="3.1857780">
        <ele>276.0</ele>
        <time>2020-07-04T10:51:52Z</time>
      </trkpt>
      <trkpt lat="46.5405190" lon="3.1860240">
        <ele>276.6</ele>
        <time>2020-07-04T10:52:00Z</time>
      </trkpt>
      <trkpt lat="46.5401270" lon="3.1863510">
        <ele>276.6</ele>
        <time>2020-07-04T10:52:09Z</time>
      </trkpt>
      <trkpt lat="46.5398610" lon="3.1866310">
        <ele>276.8</ele>
        <time>2020-07-04T10:52:16Z</time>
      </trkpt>
      <trkpt lat="46.5398290" lon="3.1866770">
        <ele>276.8</ele>
        <time>2020-07-04T10:52:17Z</time>
      </trkpt>
      <trkpt lat="46.5395420" lon="3.1870780">
        <ele>277.0</ele>
        <time>2020-07-04T10:52:25Z</time>
      </trkpt>
      <trkpt lat="46.5392710" lon="3.1874680">
        <ele>277.4</ele>
        <time>2020-07-04T10:52:33Z</time>
      </trkpt>
      <trkpt lat="46.5392390" lon="3.1875160">
        <ele>277.4</ele>
        <time>2020-07-04T10:52:34Z</time>
      </trkpt>
      <trkpt lat="46.5389170" lon="3.1879800">
        <ele>277.8</ele>
        <time>2020-07-04T10:52:44Z</time>
      </trkpt>
      <trkpt lat="46.5386980" lon="3.1883020">
        <ele>278.0</ele>
        <time>2020-07-04T10:52:51Z</time>
      </trkpt>
      <trkpt lat="46.5386700" lon="3.1883440">
        <ele>278.2</ele>
        <time>2020-07-04T10:52:52Z</time>
      </trkpt>
      <trkpt lat="46.5386430" lon="3.1883870">
        <ele>278.2</ele>
        <time>2020-07-04T10:52:53Z</time>
      </trkpt>
      <trkpt lat="46.5385330" lon="3.1885440">
        <ele>278.2</ele>
        <time>2020-07-04T10:52:57Z</time>
      </trkpt>
      <trkpt lat="46.5384800" lon="3.1886260">
        <ele>278.2</ele>
        <time>2020-07-04T10:52:59Z</time>
      </trkpt>
      <trkpt lat="46.5382480" lon="3.1889480">
        <ele>278.0</ele>
        <time>2020-07-04T10:53:07Z</time>
      </trkpt>
      <trkpt lat="46.5380850" lon="3.1891230">
        <ele>277.6</ele>
        <time>2020-07-04T10:53:11Z</time>
      </trkpt>
      <trkpt lat="46.5380040" lon="3.1892320">
        <ele>277.4</ele>
        <time>2020-07-04T10:53:13Z</time>
      </trkpt>
      <trkpt lat="46.5379160" lon="3.1893550">
        <ele>277.4</ele>
        <time>2020-07-04T10:53:15Z</time>
      </trkpt>
      <trkpt lat="46.5377780" lon="3.1895610">
        <ele>277.2</ele>
        <time>2020-07-04T10:53:18Z</time>
      </trkpt>
      <trkpt lat="46.5376830" lon="3.1897140">
        <ele>277.0</ele>
        <time>2020-07-04T10:53:20Z</time>
      </trkpt>
      <trkpt lat="46.5375340" lon="3.1899570">
        <ele>276.6</ele>
        <time>2020-07-04T10:53:23Z</time>
      </trkpt>
      <trkpt lat="46.5374230" lon="3.1901260">
        <ele>275.8</ele>
        <time>2020-07-04T10:53:25Z</time>
      </trkpt>
      <trkpt lat="46.5373100" lon="3.1903060">
        <ele>275.2</ele>
        <time>2020-07-04T10:53:27Z</time>
      </trkpt>
      <trkpt lat="46.5372630" lon="3.1904080">
        <ele>274.2</ele>
        <time>2020-07-04T10:53:28Z</time>
      </trkpt>
      <trkpt lat="46.5372110" lon="3.1906360">
        <ele>273.2</ele>
        <time>2020-07-04T10:53:30Z</time>
      </trkpt>
      <trkpt lat="46.5372100" lon="3.1907620">
        <ele>272.8</ele>
        <time>2020-07-04T10:53:31Z</time>
      </trkpt>
      <trkpt lat="46.5372220" lon="3.1908870">
        <ele>272.2</ele>
        <time>2020-07-04T10:53:32Z</time>
      </trkpt>
      <trkpt lat="46.5372800" lon="3.1911310">
        <ele>271.0</ele>
        <time>2020-07-04T10:53:34Z</time>
      </trkpt>
      <trkpt lat="46.5375310" lon="3.1918180">
        <ele>268.6</ele>
        <time>2020-07-04T10:53:40Z</time>
      </trkpt>
      <trkpt lat="46.5375710" lon="3.1919230">
        <ele>268.6</ele>
        <time>2020-07-04T10:53:41Z</time>
      </trkpt>
      <trkpt lat="46.5376060" lon="3.1920190">
        <ele>268.4</ele>
        <time>2020-07-04T10:53:42Z</time>
      </trkpt>
      <trkpt lat="46.5376650" lon="3.1922040">
        <ele>268.2</ele>
        <time>2020-07-04T10:53:44Z</time>
      </trkpt>
      <trkpt lat="46.5377190" lon="3.1923780">
        <ele>268.0</ele>
        <time>2020-07-04T10:53:46Z</time>
      </trkpt>
      <trkpt lat="46.5379740" lon="3.1931270">
        <ele>268.8</ele>
        <time>2020-07-04T10:53:55Z</time>
      </trkpt>
      <trkpt lat="46.5379980" lon="3.1932090">
        <ele>268.8</ele>
        <time>2020-07-04T10:53:56Z</time>
      </trkpt>
      <trkpt lat="46.5381380" lon="3.1937090">
        <ele>268.8</ele>
        <time>2020-07-04T10:54:03Z</time>
      </trkpt>
      <trkpt lat="46.5381630" lon="3.1937820">
        <ele>268.8</ele>
        <time>2020-07-04T10:54:04Z</time>
      </trkpt>
      <trkpt lat="46.5382750" lon="3.1942740">
        <ele>268.6</ele>
        <time>2020-07-04T10:54:11Z</time>
      </trkpt>
      <trkpt lat="46.5382840" lon="3.1944600">
        <ele>268.4</ele>
        <time>2020-07-04T10:54:14Z</time>
      </trkpt>
      <trkpt lat="46.5382480" lon="3.1945590">
        <ele>268.2</ele>
        <time>2020-07-04T10:54:16Z</time>
      </trkpt>
      <trkpt lat="46.5381140" lon="3.1946990">
        <ele>267.8</ele>
        <time>2020-07-04T10:54:20Z</time>
      </trkpt>
      <trkpt lat="46.5380370" lon="3.1947560">
        <ele>267.8</ele>
        <time>2020-07-04T10:54:22Z</time>
      </trkpt>
      <trkpt lat="46.5379020" lon="3.1948480">
        <ele>267.4</ele>
        <time>2020-07-04T10:54:25Z</time>
      </trkpt>
      <trkpt lat="46.5378080" lon="3.1949100">
        <ele>266.6</ele>
        <time>2020-07-04T10:54:27Z</time>
      </trkpt>
      <trkpt lat="46.5377550" lon="3.1949430">
        <ele>266.4</ele>
        <time>2020-07-04T10:54:28Z</time>
      </trkpt>
      <trkpt lat="46.5376290" lon="3.1950100">
        <ele>266.0</ele>
        <time>2020-07-04T10:54:30Z</time>
      </trkpt>
      <trkpt lat="46.5374940" lon="3.1950930">
        <ele>265.2</ele>
        <time>2020-07-04T10:54:32Z</time>
      </trkpt>
      <trkpt lat="46.5371660" lon="3.1953540">
        <ele>262.0</ele>
        <time>2020-07-04T10:54:38Z</time>
      </trkpt>
      <trkpt lat="46.5370410" lon="3.1954420">
        <ele>259.6</ele>
        <time>2020-07-04T10:54:42Z</time>
      </trkpt>
      <trkpt lat="46.5370040" lon="3.1954510">
        <ele>259.0</ele>
        <time>2020-07-04T10:54:44Z</time>
      </trkpt>
      <trkpt lat="46.5369730" lon="3.1954310">
        <ele>258.8</ele>
        <time>2020-07-04T10:54:46Z</time>
      </trkpt>
      <trkpt lat="46.5369630" lon="3.1954060">
        <ele>258.8</ele>
        <time>2020-07-04T10:54:47Z</time>
      </trkpt>
      <trkpt lat="46.5369590" lon="3.1953740">
        <ele>258.8</ele>
        <time>2020-07-04T10:54:48Z</time>
      </trkpt>
      <trkpt lat="46.5369530" lon="3.1952820">
        <ele>258.4</ele>
        <time>2020-07-04T10:54:50Z</time>
      </trkpt>
      <trkpt lat="46.5369420" lon="3.1952210">
        <ele>258.0</ele>
        <time>2020-07-04T10:54:51Z</time>
      </trkpt>
      <trkpt lat="46.5368780" lon="3.1949250">
        <ele>256.8</ele>
        <time>2020-07-04T10:54:56Z</time>
      </trkpt>
      <trkpt lat="46.5368520" lon="3.1947990">
        <ele>256.6</ele>
        <time>2020-07-04T10:54:58Z</time>
      </trkpt>
      <trkpt lat="46.5368210" lon="3.1946680">
        <ele>255.4</ele>
        <time>2020-07-04T10:55:00Z</time>
      </trkpt>
      <trkpt lat="46.5367870" lon="3.1945940">
        <ele>255.0</ele>
        <time>2020-07-04T10:55:01Z</time>
      </trkpt>
      <trkpt lat="46.5367310" lon="3.1944820">
        <ele>254.2</ele>
        <time>2020-07-04T10:55:03Z</time>
      </trkpt>
      <trkpt lat="46.5366700" lon="3.1944060">
        <ele>254.0</ele>
        <time>2020-07-04T10:55:05Z</time>
      </trkpt>
      <trkpt lat="46.5365310" lon="3.1942620">
        <ele>253.2</ele>
        <time>2020-07-04T10:55:07Z</time>
      </trkpt>
      <trkpt lat="46.5362610" lon="3.1939780">
        <ele>252.2</ele>
        <time>2020-07-04T10:55:13Z</time>
      </trkpt>
      <trkpt lat="46.5361590" lon="3.1939350">
        <ele>251.2</ele>
        <time>2020-07-04T10:55:15Z</time>
      </trkpt>
      <trkpt lat="46.5361150" lon="3.1939460">
        <ele>250.4</ele>
        <time>2020-07-04T10:55:16Z</time>
      </trkpt>
      <trkpt lat="46.5359680" lon="3.1940280">
        <ele>249.6</ele>
        <time>2020-07-04T10:55:19Z</time>
      </trkpt>
      <trkpt lat="46.5358520" lon="3.1940410">
        <ele>249.4</ele>
        <time>2020-07-04T10:55:21Z</time>
      </trkpt>
      <trkpt lat="46.5357910" lon="3.1940140">
        <ele>249.2</ele>
        <time>2020-07-04T10:55:22Z</time>
      </trkpt>
      <trkpt lat="46.5357430" lon="3.1939690">
        <ele>249.0</ele>
        <time>2020-07-04T10:55:23Z</time>
      </trkpt>
      <trkpt lat="46.5356670" lon="3.1938430">
        <ele>248.4</ele>
        <time>2020-07-04T10:55:25Z</time>
      </trkpt>
      <trkpt lat="46.5355190" lon="3.1935500">
        <ele>247.4</ele>
        <time>2020-07-04T10:55:30Z</time>
      </trkpt>
      <trkpt lat="46.5353440" lon="3.1931690">
        <ele>247.2</ele>
        <time>2020-07-04T10:55:38Z</time>
      </trkpt>
      <trkpt lat="46.5352160" lon="3.1929590">
        <ele>247.0</ele>
        <time>2020-07-04T10:55:43Z</time>
      </trkpt>
      <trkpt lat="46.5351650" lon="3.1928740">
        <ele>247.0</ele>
        <time>2020-07-04T10:55:45Z</time>
      </trkpt>
      <trkpt lat="46.5350770" lon="3.1927310">
        <ele>246.6</ele>
        <time>2020-07-04T10:55:49Z</time>
      </trkpt>
      <trkpt lat="46.5349990" lon="3.1926920">
        <ele>246.6</ele>
        <time>2020-07-04T10:55:55Z</time>
      </trkpt>
      <trkpt lat="46.5349450" lon="3.1927020">
        <ele>246.6</ele>
        <time>2020-07-04T10:56:00Z</time>
      </trkpt>
      <trkpt lat="46.5348810" lon="3.1926740">
        <ele>246.2</ele>
        <time>2020-07-04T10:56:06Z</time>
      </trkpt>
      <trkpt lat="46.5348620" lon="3.1926580">
        <ele>245.8</ele>
        <time>2020-07-04T10:56:15Z</time>
      </trkpt>
      <trkpt lat="46.5348420" lon="3.1926540">
        <ele>245.4</ele>
        <time>2020-07-04T10:56:28Z</time>
      </trkpt>
      <trkpt lat="46.5348120" lon="3.1926270">
        <ele>245.4</ele>
        <time>2020-07-04T10:56:33Z</time>
      </trkpt>
      <trkpt lat="46.5348070" lon="3.1926200">
        <ele>245.0</ele>
        <time>2020-07-04T10:56:46Z</time>
      </trkpt>
      <trkpt lat="46.5348040" lon="3.1926230">
        <ele>245.0</ele>
        <time>2020-07-04T10:56:53Z</time>
      </trkpt>
      <trkpt lat="46.5347690" lon="3.1926520">
        <ele>244.6</ele>
        <time>2020-07-04T10:56:57Z</time>
      </trkpt>
      <trkpt lat="46.5347310" lon="3.1926650">
        <ele>244.4</ele>
        <time>2020-07-04T10:56:59Z</time>
      </trkpt>
      <trkpt lat="46.5345790" lon="3.1926730">
        <ele>244.2</ele>
        <time>2020-07-04T10:57:03Z</time>
      </trkpt>
      <trkpt lat="46.5343680" lon="3.1927020">
        <ele>243.6</ele>
        <time>2020-07-04T10:57:08Z</time>
      </trkpt>
      <trkpt lat="46.5342910" lon="3.1926810">
        <ele>243.2</ele>
        <time>2020-07-04T10:57:10Z</time>
      </trkpt>
      <trkpt lat="46.5342030" lon="3.1926610">
        <ele>242.4</ele>
        <time>2020-07-04T10:57:12Z</time>
      </trkpt>
      <trkpt lat="46.5341080" lon="3.1926430">
        <ele>241.6</ele>
        <time>2020-07-04T10:57:14Z</time>
      </trkpt>
      <trkpt lat="46.5338960" lon="3.1925950">
        <ele>241.2</ele>
        <time>2020-07-04T10:57:18Z</time>
      </trkpt>
      <trkpt lat="46.5337360" lon="3.1925500">
        <ele>240.6</ele>
        <time>2020-07-04T10:57:21Z</time>
      </trkpt>
      <trkpt lat="46.5336900" lon="3.1925350">
        <ele>240.0</ele>
        <time>2020-07-04T10:57:22Z</time>
      </trkpt>
      <trkpt lat="46.5335920" lon="3.1924860">
        <ele>238.4</ele>
        <time>2020-07-04T10:57:26Z</time>
      </trkpt>
      <trkpt lat="46.5335480" lon="3.1924460">
        <ele>238.2</ele>
        <time>2020-07-04T10:57:29Z</time>
      </trkpt>
      <trkpt lat="46.5334990" lon="3.1923910">
        <ele>237.8</ele>
        <time>2020-07-04T10:57:33Z</time>
      </trkpt>
      <trkpt lat="46.5334560" lon="3.1923490">
        <ele>237.8</ele>
        <time>2020-07-04T10:57:36Z</time>
      </trkpt>
      <trkpt lat="46.5334160" lon="3.1922620">
        <ele>237.8</ele>
        <time>2020-07-04T10:57:40Z</time>
      </trkpt>
      <trkpt lat="46.5333980" lon="3.1920790">
        <ele>237.8</ele>
        <time>2020-07-04T10:57:44Z</time>
      </trkpt>
      <trkpt lat="46.5333690" lon="3.1919320">
        <ele>238.0</ele>
        <time>2020-07-04T10:57:47Z</time>
      </trkpt>
      <trkpt lat="46.5333420" lon="3.1917680">
        <ele>238.4</ele>
        <time>2020-07-04T10:57:51Z</time>
      </trkpt>
      <trkpt lat="46.5332910" lon="3.1916070">
        <ele>238.6</ele>
        <time>2020-07-04T10:57:54Z</time>
      </trkpt>
      <trkpt lat="46.5332610" lon="3.1913730">
        <ele>239.0</ele>
        <time>2020-07-04T10:58:00Z</time>
      </trkpt>
      <trkpt lat="46.5331970" lon="3.1911660">
        <ele>239.8</ele>
        <time>2020-07-04T10:58:07Z</time>
      </trkpt>
      <trkpt lat="46.5331760" lon="3.1911240">
        <ele>240.0</ele>
        <time>2020-07-04T10:58:11Z</time>
      </trkpt>
      <trkpt lat="46.5332000" lon="3.1911040">
        <ele>240.6</ele>
        <time>2020-07-04T10:58:21Z</time>
      </trkpt>
      <trkpt lat="46.5332050" lon="3.1911390">
        <ele>240.8</ele>
        <time>2020-07-04T10:58:29Z</time>
      </trkpt>
      <trkpt lat="46.5331900" lon="3.1911160">
        <ele>240.6</ele>
        <time>2020-07-04T10:58:37Z</time>
      </trkpt>
      <trkpt lat="46.5331820" lon="3.1911330">
        <ele>240.6</ele>
        <time>2020-07-04T10:58:44Z</time>
      </trkpt>
      <trkpt lat="46.5331800" lon="3.1911580">
        <ele>240.8</ele>
        <time>2020-07-04T10:58:52Z</time>
      </trkpt>
      <trkpt lat="46.5331900" lon="3.1911860">
        <ele>240.6</ele>
        <time>2020-07-04T10:59:02Z</time>
      </trkpt>
      <trkpt lat="46.5331790" lon="3.1912060">
        <ele>240.8</ele>
        <time>2020-07-04T10:59:10Z</time>
      </trkpt>
      <trkpt lat="46.5331770" lon="3.1912060">
        <ele>240.8</ele>
        <time>2020-07-04T10:59:13Z</time>
      </trkpt>
      <trkpt lat="46.5331750" lon="3.1912010">
        <ele>240.8</ele>
        <time>2020-07-04T10:59:21Z</time>
      </trkpt>
      <trkpt lat="46.5331940" lon="3.1911990">
        <ele>240.8</ele>
        <time>2020-07-04T10:59:31Z</time>
      </trkpt>
      <trkpt lat="46.5331940" lon="3.1911940">
        <ele>240.6</ele>
        <time>2020-07-04T10:59:51Z</time>
      </trkpt>
      <trkpt lat="46.5331860" lon="3.1911940">
        <ele>240.6</ele>
        <time>2020-07-04T11:00:08Z</time>
      </trkpt>
      <trkpt lat="46.5331870" lon="3.1911990">
        <ele>240.6</ele>
        <time>2020-07-04T11:00:09Z</time>
      </trkpt>
      <trkpt lat="46.5331730" lon="3.1912530">
        <ele>241.0</ele>
        <time>2020-07-04T11:00:20Z</time>
      </trkpt>
      <trkpt lat="46.5331690" lon="3.1912660">
        <ele>241.0</ele>
        <time>2020-07-04T11:00:26Z</time>
      </trkpt>
      <trkpt lat="46.5331680" lon="3.1913130">
        <ele>241.0</ele>
        <time>2020-07-04T11:00:32Z</time>
      </trkpt>
      <trkpt lat="46.5331530" lon="3.1913090">
        <ele>241.0</ele>
        <time>2020-07-04T11:00:43Z</time>
      </trkpt>
      <trkpt lat="46.5331350" lon="3.1912640">
        <ele>241.2</ele>
        <time>2020-07-04T11:00:59Z</time>
      </trkpt>
      <trkpt lat="46.5331410" lon="3.1912510">
        <ele>241.4</ele>
        <time>2020-07-04T11:01:17Z</time>
      </trkpt>
      <trkpt lat="46.5331480" lon="3.1912530">
        <ele>241.2</ele>
        <time>2020-07-04T11:01:34Z</time>
      </trkpt>
      <trkpt lat="46.5331390" lon="3.1912540">
        <ele>241.4</ele>
        <time>2020-07-04T11:01:43Z</time>
      </trkpt>
      <trkpt lat="46.5331430" lon="3.1912960">
        <ele>241.2</ele>
        <time>2020-07-04T11:01:51Z</time>
      </trkpt>
      <trkpt lat="46.5331540" lon="3.1913860">
        <ele>241.2</ele>
        <time>2020-07-04T11:02:03Z</time>
      </trkpt>
      <trkpt lat="46.5331900" lon="3.1913870">
        <ele>241.2</ele>
        <time>2020-07-04T11:02:13Z</time>
      </trkpt>
      <trkpt lat="46.5332010" lon="3.1913450">
        <ele>241.4</ele>
        <time>2020-07-04T11:02:28Z</time>
      </trkpt>
      <trkpt lat="46.5331930" lon="3.1913310">
        <ele>241.6</ele>
        <time>2020-07-04T11:02:50Z</time>
      </trkpt>
      <trkpt lat="46.5331990" lon="3.1913370">
        <ele>241.6</ele>
        <time>2020-07-04T11:02:53Z</time>
      </trkpt>
      <trkpt lat="46.5332470" lon="3.1913800">
        <ele>241.6</ele>
        <time>2020-07-04T11:03:00Z</time>
      </trkpt>
      <trkpt lat="46.5332510" lon="3.1913210">
        <ele>241.2</ele>
        <time>2020-07-04T11:03:10Z</time>
      </trkpt>
      <trkpt lat="46.5331700" lon="3.1912720">
        <ele>241.6</ele>
        <time>2020-07-04T11:03:25Z</time>
      </trkpt>
      <trkpt lat="46.5331640" lon="3.1912770">
        <ele>241.6</ele>
        <time>2020-07-04T11:03:42Z</time>
      </trkpt>
      <trkpt lat="46.5331760" lon="3.1912860">
        <ele>241.6</ele>
        <time>2020-07-04T11:03:57Z</time>
      </trkpt>
      <trkpt lat="46.5331900" lon="3.1912960">
        <ele>241.6</ele>
        <time>2020-07-04T11:04:00Z</time>
      </trkpt>
      <trkpt lat="46.5332010" lon="3.1913060">
        <ele>241.8</ele>
        <time>2020-07-04T11:04:08Z</time>
      </trkpt>
      <trkpt lat="46.5332350" lon="3.1913200">
        <ele>241.8</ele>
        <time>2020-07-04T11:04:14Z</time>
      </trkpt>
      <trkpt lat="46.5332630" lon="3.1914080">
        <ele>241.6</ele>
        <time>2020-07-04T11:04:22Z</time>
      </trkpt>
      <trkpt lat="46.5333500" lon="3.1914790">
        <ele>241.2</ele>
        <time>2020-07-04T11:04:32Z</time>
      </trkpt>
      <trkpt lat="46.5334350" lon="3.1914710">
        <ele>241.2</ele>
        <time>2020-07-04T11:04:36Z</time>
      </trkpt>
      <trkpt lat="46.5334670" lon="3.1914530">
        <ele>241.2</ele>
        <time>2020-07-04T11:04:38Z</time>
      </trkpt>
      <trkpt lat="46.5335240" lon="3.1913820">
        <ele>241.2</ele>
        <time>2020-07-04T11:04:42Z</time>
      </trkpt>
      <trkpt lat="46.5336480" lon="3.1912200">
        <ele>242.4</ele>
        <time>2020-07-04T11:04:49Z</time>
      </trkpt>
      <trkpt lat="46.5337200" lon="3.1911880">
        <ele>242.8</ele>
        <time>2020-07-04T11:04:52Z</time>
      </trkpt>
      <trkpt lat="46.5338440" lon="3.1911320">
        <ele>243.4</ele>
        <time>2020-07-04T11:04:59Z</time>
      </trkpt>
      <trkpt lat="46.5339170" lon="3.1911300">
        <ele>243.6</ele>
        <time>2020-07-04T11:05:03Z</time>
      </trkpt>
      <trkpt lat="46.5339380" lon="3.1910970">
        <ele>243.6</ele>
        <time>2020-07-04T11:05:04Z</time>
      </trkpt>
      <trkpt lat="46.5340440" lon="3.1910270">
        <ele>244.2</ele>
        <time>2020-07-04T11:05:10Z</time>
      </trkpt>
      <trkpt lat="46.5341510" lon="3.1909830">
        <ele>244.4</ele>
        <time>2020-07-04T11:05:17Z</time>
      </trkpt>
      <trkpt lat="46.5341710" lon="3.1909780">
        <ele>245.0</ele>
        <time>2020-07-04T11:05:20Z</time>
      </trkpt>
      <trkpt lat="46.5341810" lon="3.1909770">
        <ele>245.2</ele>
        <time>2020-07-04T11:05:22Z</time>
      </trkpt>
      <trkpt lat="46.5341770" lon="3.1909060">
        <ele>245.6</ele>
        <time>2020-07-04T11:05:29Z</time>
      </trkpt>
      <trkpt lat="46.5341400" lon="3.1909340">
        <ele>245.6</ele>
        <time>2020-07-04T11:05:34Z</time>
      </trkpt>
      <trkpt lat="46.5341010" lon="3.1909530">
        <ele>245.6</ele>
        <time>2020-07-04T11:05:36Z</time>
      </trkpt>
      <trkpt lat="46.5339950" lon="3.1909970">
        <ele>245.4</ele>
        <time>2020-07-04T11:05:41Z</time>
      </trkpt>
      <trkpt lat="46.5339860" lon="3.1911100">
        <ele>244.8</ele>
        <time>2020-07-04T11:05:46Z</time>
      </trkpt>
      <trkpt lat="46.5340300" lon="3.1912840">
        <ele>244.6</ele>
        <time>2020-07-04T11:05:51Z</time>
      </trkpt>
      <trkpt lat="46.5340640" lon="3.1913590">
        <ele>244.6</ele>
        <time>2020-07-04T11:05:54Z</time>
      </trkpt>
      <trkpt lat="46.5341490" lon="3.1916960">
        <ele>245.2</ele>
        <time>2020-07-04T11:06:06Z</time>
      </trkpt>
      <trkpt lat="46.5342410" lon="3.1919350">
        <ele>245.6</ele>
        <time>2020-07-04T11:06:13Z</time>
      </trkpt>
      <trkpt lat="46.5342530" lon="3.1922030">
        <ele>245.8</ele>
        <time>2020-07-04T11:06:18Z</time>
      </trkpt>
      <trkpt lat="46.5342590" lon="3.1923920">
        <ele>245.6</ele>
        <time>2020-07-04T11:06:23Z</time>
      </trkpt>
      <trkpt lat="46.5342480" lon="3.1925260">
        <ele>245.4</ele>
        <time>2020-07-04T11:06:25Z</time>
      </trkpt>
      <trkpt lat="46.5342660" lon="3.1926620">
        <ele>244.4</ele>
        <time>2020-07-04T11:06:31Z</time>
      </trkpt>
      <trkpt lat="46.5342910" lon="3.1926840">
        <ele>244.2</ele>
        <time>2020-07-04T11:06:33Z</time>
      </trkpt>
      <trkpt lat="46.5343570" lon="3.1927040">
        <ele>243.8</ele>
        <time>2020-07-04T11:06:36Z</time>
      </trkpt>
      <trkpt lat="46.5344350" lon="3.1926930">
        <ele>243.6</ele>
        <time>2020-07-04T11:06:41Z</time>
      </trkpt>
      <trkpt lat="46.5344480" lon="3.1926930">
        <ele>243.6</ele>
        <time>2020-07-04T11:06:42Z</time>
      </trkpt>
      <trkpt lat="46.5344750" lon="3.1926590">
        <ele>243.6</ele>
        <time>2020-07-04T11:06:46Z</time>
      </trkpt>
      <trkpt lat="46.5345030" lon="3.1926510">
        <ele>244.0</ele>
        <time>2020-07-04T11:06:49Z</time>
      </trkpt>
      <trkpt lat="46.5346650" lon="3.1926700">
        <ele>244.8</ele>
        <time>2020-07-04T11:06:57Z</time>
      </trkpt>
      <trkpt lat="46.5346880" lon="3.1926730">
        <ele>244.8</ele>
        <time>2020-07-04T11:06:58Z</time>
      </trkpt>
      <trkpt lat="46.5348530" lon="3.1927280">
        <ele>245.4</ele>
        <time>2020-07-04T11:07:05Z</time>
      </trkpt>
      <trkpt lat="46.5348930" lon="3.1927460">
        <ele>246.2</ele>
        <time>2020-07-04T11:07:08Z</time>
      </trkpt>
      <trkpt lat="46.5350140" lon="3.1927840">
        <ele>246.6</ele>
        <time>2020-07-04T11:07:13Z</time>
      </trkpt>
      <trkpt lat="46.5350290" lon="3.1927670">
        <ele>246.8</ele>
        <time>2020-07-04T11:07:14Z</time>
      </trkpt>
      <trkpt lat="46.5350480" lon="3.1927210">
        <ele>247.0</ele>
        <time>2020-07-04T11:07:16Z</time>
      </trkpt>
      <trkpt lat="46.5350450" lon="3.1926770">
        <ele>247.4</ele>
        <time>2020-07-04T11:07:18Z</time>
      </trkpt>
      <trkpt lat="46.5350450" lon="3.1926770">
        <ele>247.4</ele>
        <time>2020-07-04T11:07:19Z</time>
      </trkpt>
      <trkpt lat="46.5350210" lon="3.1926340">
        <ele>247.8</ele>
        <time>2020-07-04T11:07:21Z</time>
      </trkpt>
      <trkpt lat="46.5349880" lon="3.1926110">
        <ele>248.2</ele>
        <time>2020-07-04T11:07:26Z</time>
      </trkpt>
      <trkpt lat="46.5349720" lon="3.1925680">
        <ele>248.6</ele>
        <time>2020-07-04T11:07:39Z</time>
      </trkpt>
      <trkpt lat="46.5350320" lon="3.1925690">
        <ele>248.8</ele>
        <time>2020-07-04T11:07:49Z</time>
      </trkpt>
      <trkpt lat="46.5350470" lon="3.1925790">
        <ele>248.8</ele>
        <time>2020-07-04T11:08:04Z</time>
      </trkpt>
      <trkpt lat="46.5350060" lon="3.1926100">
        <ele>248.8</ele>
        <time>2020-07-04T11:08:19Z</time>
      </trkpt>
      <trkpt lat="46.5349880" lon="3.1926040">
        <ele>249.0</ele>
        <time>2020-07-04T11:08:33Z</time>
      </trkpt>
      <trkpt lat="46.5349810" lon="3.1926020">
        <ele>249.0</ele>
        <time>2020-07-04T11:08:54Z</time>
      </trkpt>
      <trkpt lat="46.5349640" lon="3.1926100">
        <ele>248.6</ele>
        <time>2020-07-04T11:09:10Z</time>
      </trkpt>
      <trkpt lat="46.5349670" lon="3.1926050">
        <ele>248.8</ele>
        <time>2020-07-04T11:09:30Z</time>
      </trkpt>
      <trkpt lat="46.5349820" lon="3.1926070">
        <ele>249.0</ele>
        <time>2020-07-04T11:09:54Z</time>
      </trkpt>
      <trkpt lat="46.5350010" lon="3.1926110">
        <ele>249.2</ele>
        <time>2020-07-04T11:10:12Z</time>
      </trkpt>
      <trkpt lat="46.5350320" lon="3.1926260">
        <ele>249.0</ele>
        <time>2020-07-04T11:10:29Z</time>
      </trkpt>
      <trkpt lat="46.5350390" lon="3.1926290">
        <ele>248.6</ele>
        <time>2020-07-04T11:10:46Z</time>
      </trkpt>
      <trkpt lat="46.5350400" lon="3.1926300">
        <ele>248.4</ele>
        <time>2020-07-04T11:10:48Z</time>
      </trkpt>
      <trkpt lat="46.5350590" lon="3.1926210">
        <ele>248.6</ele>
        <time>2020-07-04T11:11:07Z</time>
      </trkpt>
      <trkpt lat="46.5350350" lon="3.1926220">
        <ele>249.2</ele>
        <time>2020-07-04T11:11:43Z</time>
      </trkpt>
      <trkpt lat="46.5350100" lon="3.1926200">
        <ele>249.4</ele>
        <time>2020-07-04T11:12:01Z</time>
      </trkpt>
      <trkpt lat="46.5350200" lon="3.1926200">
        <ele>249.4</ele>
        <time>2020-07-04T11:12:15Z</time>
      </trkpt>
      <trkpt lat="46.5350480" lon="3.1926130">
        <ele>249.2</ele>
        <time>2020-07-04T11:12:38Z</time>
      </trkpt>
      <trkpt lat="46.5350540" lon="3.1926070">
        <ele>249.2</ele>
        <time>2020-07-04T11:12:53Z</time>
      </trkpt>
      <trkpt lat="46.5350570" lon="3.1926040">
        <ele>249.6</ele>
        <time>2020-07-04T11:13:08Z</time>
      </trkpt>
      <trkpt lat="46.5350580" lon="3.1926030">
        <ele>249.4</ele>
        <time>2020-07-04T11:13:16Z</time>
      </trkpt>
      <trkpt lat="46.5350580" lon="3.1926020">
        <ele>249.2</ele>
        <time>2020-07-04T11:13:22Z</time>
      </trkpt>
      <trkpt lat="46.5350430" lon="3.1926130">
        <ele>249.4</ele>
        <time>2020-07-04T11:13:41Z</time>
      </trkpt>
      <trkpt lat="46.5351030" lon="3.1926400">
        <ele>249.4</ele>
        <time>2020-07-04T11:13:59Z</time>
      </trkpt>
      <trkpt lat="46.5351180" lon="3.1926510">
        <ele>248.8</ele>
        <time>2020-07-04T11:14:18Z</time>
      </trkpt>
      <trkpt lat="46.5351040" lon="3.1926520">
        <ele>248.8</ele>
        <time>2020-07-04T11:14:44Z</time>
      </trkpt>
      <trkpt lat="46.5350940" lon="3.1925840">
        <ele>249.2</ele>
        <time>2020-07-04T11:14:57Z</time>
      </trkpt>
      <trkpt lat="46.5350930" lon="3.1925840">
        <ele>249.2</ele>
        <time>2020-07-04T11:15:07Z</time>
      </trkpt>
      <trkpt lat="46.5350920" lon="3.1925890">
        <ele>249.2</ele>
        <time>2020-07-04T11:15:21Z</time>
      </trkpt>
      <trkpt lat="46.5350910" lon="3.1925920">
        <ele>249.2</ele>
        <time>2020-07-04T11:15:33Z</time>
      </trkpt>
      <trkpt lat="46.5350920" lon="3.1925980">
        <ele>249.6</ele>
        <time>2020-07-04T11:15:51Z</time>
      </trkpt>
      <trkpt lat="46.5350920" lon="3.1926000">
        <ele>249.4</ele>
        <time>2020-07-04T11:15:56Z</time>
      </trkpt>
      <trkpt lat="46.5350850" lon="3.1926080">
        <ele>249.6</ele>
        <time>2020-07-04T11:16:19Z</time>
      </trkpt>
      <trkpt lat="46.5350720" lon="3.1926150">
        <ele>249.6</ele>
        <time>2020-07-04T11:16:40Z</time>
      </trkpt>
      <trkpt lat="46.5350690" lon="3.1926120">
        <ele>249.6</ele>
        <time>2020-07-04T11:17:03Z</time>
      </trkpt>
      <trkpt lat="46.5350680" lon="3.1926120">
        <ele>249.6</ele>
        <time>2020-07-04T11:17:07Z</time>
      </trkpt>
      <trkpt lat="46.5350660" lon="3.1926120">
        <ele>249.6</ele>
        <time>2020-07-04T11:17:20Z</time>
      </trkpt>
      <trkpt lat="46.5350700" lon="3.1926090">
        <ele>249.8</ele>
        <time>2020-07-04T11:17:37Z</time>
      </trkpt>
      <trkpt lat="46.5350730" lon="3.1926150">
        <ele>250.0</ele>
        <time>2020-07-04T11:18:05Z</time>
      </trkpt>
      <trkpt lat="46.5350690" lon="3.1926160">
        <ele>250.0</ele>
        <time>2020-07-04T11:18:42Z</time>
      </trkpt>
      <trkpt lat="46.5350590" lon="3.1926170">
        <ele>250.2</ele>
        <time>2020-07-04T11:19:16Z</time>
      </trkpt>
      <trkpt lat="46.5350470" lon="3.1926180">
        <ele>250.0</ele>
        <time>2020-07-04T11:19:36Z</time>
      </trkpt>
      <trkpt lat="46.5350470" lon="3.1926180">
        <ele>249.8</ele>
        <time>2020-07-04T11:19:40Z</time>
      </trkpt>
      <trkpt lat="46.5350470" lon="3.1926240">
        <ele>250.2</ele>
        <time>2020-07-04T11:20:07Z</time>
      </trkpt>
      <trkpt lat="46.5350440" lon="3.1926170">
        <ele>250.2</ele>
        <time>2020-07-04T11:20:43Z</time>
      </trkpt>
      <trkpt lat="46.5350310" lon="3.1926150">
        <ele>250.4</ele>
        <time>2020-07-04T11:21:06Z</time>
      </trkpt>
      <trkpt lat="46.5350410" lon="3.1926160">
        <ele>250.0</ele>
        <time>2020-07-04T11:21:27Z</time>
      </trkpt>
      <trkpt lat="46.5350390" lon="3.1926170">
        <ele>249.8</ele>
        <time>2020-07-04T11:21:51Z</time>
      </trkpt>
      <trkpt lat="46.5350300" lon="3.1926230">
        <ele>250.0</ele>
        <time>2020-07-04T11:22:27Z</time>
      </trkpt>
      <trkpt lat="46.5350290" lon="3.1926150">
        <ele>250.0</ele>
        <time>2020-07-04T11:22:40Z</time>
      </trkpt>
      <trkpt lat="46.5350280" lon="3.1926130">
        <ele>249.8</ele>
        <time>2020-07-04T11:22:57Z</time>
      </trkpt>
      <trkpt lat="46.5350250" lon="3.1926080">
        <ele>249.8</ele>
        <time>2020-07-04T11:23:17Z</time>
      </trkpt>
      <trkpt lat="46.5350320" lon="3.1926100">
        <ele>250.2</ele>
        <time>2020-07-04T11:23:44Z</time>
      </trkpt>
      <trkpt lat="46.5350410" lon="3.1926120">
        <ele>250.4</ele>
        <time>2020-07-04T11:24:02Z</time>
      </trkpt>
      <trkpt lat="46.5350590" lon="3.1926160">
        <ele>250.2</ele>
        <time>2020-07-04T11:24:23Z</time>
      </trkpt>
      <trkpt lat="46.5350700" lon="3.1926210">
        <ele>250.2</ele>
        <time>2020-07-04T11:24:36Z</time>
      </trkpt>
      <trkpt lat="46.5350580" lon="3.1926120">
        <ele>250.2</ele>
        <time>2020-07-04T11:24:51Z</time>
      </trkpt>
      <trkpt lat="46.5350170" lon="3.1925880">
        <ele>250.2</ele>
        <time>2020-07-04T11:25:08Z</time>
      </trkpt>
      <trkpt lat="46.5350050" lon="3.1925880">
        <ele>251.0</ele>
        <time>2020-07-04T11:25:28Z</time>
      </trkpt>
      <trkpt lat="46.5350090" lon="3.1925970">
        <ele>250.8</ele>
        <time>2020-07-04T11:25:57Z</time>
      </trkpt>
      <trkpt lat="46.5350180" lon="3.1926030">
        <ele>250.6</ele>
        <time>2020-07-04T11:26:19Z</time>
      </trkpt>
      <trkpt lat="46.5350160" lon="3.1926000">
        <ele>251.0</ele>
        <time>2020-07-04T11:26:35Z</time>
      </trkpt>
      <trkpt lat="46.5350190" lon="3.1925930">
        <ele>250.8</ele>
        <time>2020-07-04T11:27:06Z</time>
      </trkpt>
      <trkpt lat="46.5350230" lon="3.1925950">
        <ele>251.0</ele>
        <time>2020-07-04T11:27:40Z</time>
      </trkpt>
      <trkpt lat="46.5350210" lon="3.1926030">
        <ele>251.2</ele>
        <time>2020-07-04T11:28:13Z</time>
      </trkpt>
      <trkpt lat="46.5350200" lon="3.1926040">
        <ele>251.2</ele>
        <time>2020-07-04T11:28:23Z</time>
      </trkpt>
      <trkpt lat="46.5350120" lon="3.1926070">
        <ele>251.2</ele>
        <time>2020-07-04T11:28:39Z</time>
      </trkpt>
      <trkpt lat="46.5350120" lon="3.1926070">
        <ele>251.4</ele>
        <time>2020-07-04T11:29:02Z</time>
      </trkpt>
      <trkpt lat="46.5350110" lon="3.1926140">
        <ele>251.2</ele>
        <time>2020-07-04T11:29:35Z</time>
      </trkpt>
      <trkpt lat="46.5350110" lon="3.1926150">
        <ele>251.2</ele>
        <time>2020-07-04T11:29:39Z</time>
      </trkpt>
      <trkpt lat="46.5350130" lon="3.1926200">
        <ele>250.8</ele>
        <time>2020-07-04T11:30:11Z</time>
      </trkpt>
      <trkpt lat="46.5350160" lon="3.1926210">
        <ele>251.0</ele>
        <time>2020-07-04T11:30:31Z</time>
      </trkpt>
      <trkpt lat="46.5350150" lon="3.1926200">
        <ele>250.8</ele>
        <time>2020-07-04T11:30:43Z</time>
      </trkpt>
      <trkpt lat="46.5350160" lon="3.1926260">
        <ele>251.0</ele>
        <time>2020-07-04T11:31:17Z</time>
      </trkpt>
      <trkpt lat="46.5350120" lon="3.1926410">
        <ele>251.0</ele>
        <time>2020-07-04T11:31:51Z</time>
      </trkpt>
      <trkpt lat="46.5350160" lon="3.1926440">
        <ele>250.8</ele>
        <time>2020-07-04T11:32:17Z</time>
      </trkpt>
      <trkpt lat="46.5350180" lon="3.1926410">
        <ele>250.6</ele>
        <time>2020-07-04T11:32:44Z</time>
      </trkpt>
      <trkpt lat="46.5350200" lon="3.1926410">
        <ele>250.8</ele>
        <time>2020-07-04T11:33:07Z</time>
      </trkpt>
      <trkpt lat="46.5350420" lon="3.1926390">
        <ele>250.8</ele>
        <time>2020-07-04T11:33:22Z</time>
      </trkpt>
      <trkpt lat="46.5350380" lon="3.1926530">
        <ele>250.6</ele>
        <time>2020-07-04T11:33:45Z</time>
      </trkpt>
      <trkpt lat="46.5350350" lon="3.1926600">
        <ele>250.8</ele>
        <time>2020-07-04T11:34:20Z</time>
      </trkpt>
      <trkpt lat="46.5350270" lon="3.1926540">
        <ele>250.8</ele>
        <time>2020-07-04T11:34:44Z</time>
      </trkpt>
      <trkpt lat="46.5350190" lon="3.1926620">
        <ele>250.8</ele>
        <time>2020-07-04T11:35:07Z</time>
      </trkpt>
      <trkpt lat="46.5350410" lon="3.1926660">
        <ele>250.8</ele>
        <time>2020-07-04T11:35:18Z</time>
      </trkpt>
      <trkpt lat="46.5350580" lon="3.1926570">
        <ele>251.0</ele>
        <time>2020-07-04T11:35:27Z</time>
      </trkpt>
      <trkpt lat="46.5350530" lon="3.1926560">
        <ele>251.0</ele>
        <time>2020-07-04T11:35:44Z</time>
      </trkpt>
      <trkpt lat="46.5350490" lon="3.1926480">
        <ele>250.4</ele>
        <time>2020-07-04T11:36:08Z</time>
      </trkpt>
      <trkpt lat="46.5350490" lon="3.1926350">
        <ele>250.8</ele>
        <time>2020-07-04T11:36:31Z</time>
      </trkpt>
      <trkpt lat="46.5350400" lon="3.1926220">
        <ele>250.6</ele>
        <time>2020-07-04T11:36:56Z</time>
      </trkpt>
      <trkpt lat="46.5350350" lon="3.1926160">
        <ele>250.4</ele>
        <time>2020-07-04T11:37:11Z</time>
      </trkpt>
      <trkpt lat="46.5350200" lon="3.1925980">
        <ele>250.4</ele>
        <time>2020-07-04T11:37:27Z</time>
      </trkpt>
      <trkpt lat="46.5350140" lon="3.1925890">
        <ele>250.4</ele>
        <time>2020-07-04T11:37:53Z</time>
      </trkpt>
      <trkpt lat="46.5350150" lon="3.1925910">
        <ele>250.4</ele>
        <time>2020-07-04T11:38:27Z</time>
      </trkpt>
      <trkpt lat="46.5350180" lon="3.1925900">
        <ele>250.4</ele>
        <time>2020-07-04T11:38:57Z</time>
      </trkpt>
      <trkpt lat="46.5350150" lon="3.1926010">
        <ele>250.4</ele>
        <time>2020-07-04T11:39:27Z</time>
      </trkpt>
      <trkpt lat="46.5350140" lon="3.1926110">
        <ele>250.4</ele>
        <time>2020-07-04T11:39:58Z</time>
      </trkpt>
      <trkpt lat="46.5350110" lon="3.1926180">
        <ele>250.6</ele>
        <time>2020-07-04T11:40:26Z</time>
      </trkpt>
      <trkpt lat="46.5350100" lon="3.1926230">
        <ele>250.8</ele>
        <time>2020-07-04T11:41:02Z</time>
      </trkpt>
      <trkpt lat="46.5350100" lon="3.1926300">
        <ele>251.0</ele>
        <time>2020-07-04T11:41:34Z</time>
      </trkpt>
      <trkpt lat="46.5350060" lon="3.1926350">
        <ele>250.8</ele>
        <time>2020-07-04T11:42:04Z</time>
      </trkpt>
      <trkpt lat="46.5350060" lon="3.1926310">
        <ele>251.0</ele>
        <time>2020-07-04T11:42:40Z</time>
      </trkpt>
      <trkpt lat="46.5350040" lon="3.1926350">
        <ele>251.0</ele>
        <time>2020-07-04T11:43:13Z</time>
      </trkpt>
      <trkpt lat="46.5350040" lon="3.1926310">
        <ele>251.2</ele>
        <time>2020-07-04T11:43:58Z</time>
      </trkpt>
      <trkpt lat="46.5350110" lon="3.1926250">
        <ele>251.2</ele>
        <time>2020-07-04T11:44:23Z</time>
      </trkpt>
      <trkpt lat="46.5350110" lon="3.1926210">
        <ele>251.0</ele>
        <time>2020-07-04T11:44:53Z</time>
      </trkpt>
      <trkpt lat="46.5350100" lon="3.1926160">
        <ele>251.4</ele>
        <time>2020-07-04T11:45:30Z</time>
      </trkpt>
      <trkpt lat="46.5350950" lon="3.1926030">
        <ele>251.0</ele>
        <time>2020-07-04T11:45:57Z</time>
      </trkpt>
      <trkpt lat="46.5350740" lon="3.1926100">
        <ele>251.2</ele>
        <time>2020-07-04T11:46:23Z</time>
      </trkpt>
      <trkpt lat="46.5350710" lon="3.1926170">
        <ele>251.2</ele>
        <time>2020-07-04T11:46:48Z</time>
      </trkpt>
      <trkpt lat="46.5350660" lon="3.1926260">
        <ele>251.2</ele>
        <time>2020-07-04T11:47:21Z</time>
      </trkpt>
      <trkpt lat="46.5350670" lon="3.1926300">
        <ele>251.4</ele>
        <time>2020-07-04T11:47:52Z</time>
      </trkpt>
      <trkpt lat="46.5350700" lon="3.1926350">
        <ele>251.2</ele>
        <time>2020-07-04T11:48:16Z</time>
      </trkpt>
      <trkpt lat="46.5350650" lon="3.1926350">
        <ele>251.4</ele>
        <time>2020-07-04T11:48:50Z</time>
      </trkpt>
      <trkpt lat="46.5350860" lon="3.1926160">
        <ele>251.8</ele>
        <time>2020-07-04T11:49:15Z</time>
      </trkpt>
      <trkpt lat="46.5350790" lon="3.1926230">
        <ele>251.8</ele>
        <time>2020-07-04T11:49:41Z</time>
      </trkpt>
      <trkpt lat="46.5350890" lon="3.1926250">
        <ele>252.0</ele>
        <time>2020-07-04T11:49:58Z</time>
      </trkpt>
      <trkpt lat="46.5350830" lon="3.1926260">
        <ele>252.0</ele>
        <time>2020-07-04T11:50:26Z</time>
      </trkpt>
      <trkpt lat="46.5350870" lon="3.1926140">
        <ele>251.8</ele>
        <time>2020-07-04T11:50:58Z</time>
      </trkpt>
      <trkpt lat="46.5350880" lon="3.1926170">
        <ele>251.8</ele>
        <time>2020-07-04T11:51:30Z</time>
      </trkpt>
      <trkpt lat="46.5350890" lon="3.1926160">
        <ele>251.6</ele>
        <time>2020-07-04T11:51:36Z</time>
      </trkpt>
      <trkpt lat="46.5350890" lon="3.1926160">
        <ele>252.4</ele>
        <time>2020-07-04T11:51:48Z</time>
      </trkpt>
      <trkpt lat="46.5350860" lon="3.1926180">
        <ele>252.2</ele>
        <time>2020-07-04T11:52:03Z</time>
      </trkpt>
      <trkpt lat="46.5350850" lon="3.1926210">
        <ele>252.4</ele>
        <time>2020-07-04T11:52:37Z</time>
      </trkpt>
      <trkpt lat="46.5350780" lon="3.1926290">
        <ele>252.0</ele>
        <time>2020-07-04T11:53:07Z</time>
      </trkpt>
      <trkpt lat="46.5350740" lon="3.1926320">
        <ele>252.6</ele>
        <time>2020-07-04T11:53:37Z</time>
      </trkpt>
      <trkpt lat="46.5350660" lon="3.1926370">
        <ele>252.6</ele>
        <time>2020-07-04T11:54:13Z</time>
      </trkpt>
      <trkpt lat="46.5350590" lon="3.1926470">
        <ele>252.6</ele>
        <time>2020-07-04T11:54:44Z</time>
      </trkpt>
      <trkpt lat="46.5350500" lon="3.1926480">
        <ele>252.6</ele>
        <time>2020-07-04T11:55:18Z</time>
      </trkpt>
      <trkpt lat="46.5350460" lon="3.1926470">
        <ele>252.6</ele>
        <time>2020-07-04T11:55:50Z</time>
      </trkpt>
      <trkpt lat="46.5350910" lon="3.1926380">
        <ele>252.6</ele>
        <time>2020-07-04T11:56:19Z</time>
      </trkpt>
      <trkpt lat="46.5350900" lon="3.1926360">
        <ele>253.0</ele>
        <time>2020-07-04T11:56:40Z</time>
      </trkpt>
      <trkpt lat="46.5350160" lon="3.1926000">
        <ele>253.0</ele>
        <time>2020-07-04T11:56:58Z</time>
      </trkpt>
      <trkpt lat="46.5350070" lon="3.1925910">
        <ele>253.0</ele>
        <time>2020-07-04T11:57:19Z</time>
      </trkpt>
      <trkpt lat="46.5350060" lon="3.1925960">
        <ele>252.8</ele>
        <time>2020-07-04T11:57:45Z</time>
      </trkpt>
      <trkpt lat="46.5350080" lon="3.1926000">
        <ele>253.2</ele>
        <time>2020-07-04T11:57:55Z</time>
      </trkpt>
      <trkpt lat="46.5350090" lon="3.1926020">
        <ele>253.4</ele>
        <time>2020-07-04T11:58:35Z</time>
      </trkpt>
      <trkpt lat="46.5350080" lon="3.1926000">
        <ele>253.6</ele>
        <time>2020-07-04T11:58:58Z</time>
      </trkpt>
      <trkpt lat="46.5350050" lon="3.1926110">
        <ele>253.6</ele>
        <time>2020-07-04T11:59:21Z</time>
      </trkpt>
      <trkpt lat="46.5350020" lon="3.1926160">
        <ele>253.8</ele>
        <time>2020-07-04T11:59:49Z</time>
      </trkpt>
      <trkpt lat="46.5350040" lon="3.1926120">
        <ele>253.8</ele>
        <time>2020-07-04T12:00:21Z</time>
      </trkpt>
      <trkpt lat="46.5350030" lon="3.1926210">
        <ele>253.2</ele>
        <time>2020-07-04T12:00:46Z</time>
      </trkpt>
      <trkpt lat="46.5350070" lon="3.1926260">
        <ele>253.0</ele>
        <time>2020-07-04T12:01:15Z</time>
      </trkpt>
      <trkpt lat="46.5350030" lon="3.1926190">
        <ele>254.2</ele>
        <time>2020-07-04T12:01:46Z</time>
      </trkpt>
      <trkpt lat="46.5350040" lon="3.1926130">
        <ele>253.8</ele>
        <time>2020-07-04T12:02:08Z</time>
      </trkpt>
      <trkpt lat="46.5350030" lon="3.1926230">
        <ele>253.6</ele>
        <time>2020-07-04T12:02:33Z</time>
      </trkpt>
      <trkpt lat="46.5350010" lon="3.1926280">
        <ele>253.4</ele>
        <time>2020-07-04T12:03:06Z</time>
      </trkpt>
      <trkpt lat="46.5350040" lon="3.1926320">
        <ele>253.6</ele>
        <time>2020-07-04T12:03:35Z</time>
      </trkpt>
      <trkpt lat="46.5350050" lon="3.1926400">
        <ele>253.4</ele>
        <time>2020-07-04T12:03:59Z</time>
      </trkpt>
      <trkpt lat="46.5350070" lon="3.1926400">
        <ele>253.4</ele>
        <time>2020-07-04T12:04:23Z</time>
      </trkpt>
      <trkpt lat="46.5350090" lon="3.1926410">
        <ele>253.0</ele>
        <time>2020-07-04T12:04:48Z</time>
      </trkpt>
      <trkpt lat="46.5350060" lon="3.1926440">
        <ele>253.2</ele>
        <time>2020-07-04T12:05:12Z</time>
      </trkpt>
      <trkpt lat="46.5350030" lon="3.1926460">
        <ele>253.2</ele>
        <time>2020-07-04T12:05:45Z</time>
      </trkpt>
      <trkpt lat="46.5349990" lon="3.1926450">
        <ele>253.6</ele>
        <time>2020-07-04T12:06:05Z</time>
      </trkpt>
      <trkpt lat="46.5349920" lon="3.1926440">
        <ele>253.2</ele>
        <time>2020-07-04T12:06:32Z</time>
      </trkpt>
      <trkpt lat="46.5350020" lon="3.1926520">
        <ele>253.2</ele>
        <time>2020-07-04T12:07:05Z</time>
      </trkpt>
      <trkpt lat="46.5350020" lon="3.1926520">
        <ele>253.2</ele>
        <time>2020-07-04T12:07:06Z</time>
      </trkpt>
      <trkpt lat="46.5349970" lon="3.1926570">
        <ele>253.2</ele>
        <time>2020-07-04T12:07:27Z</time>
      </trkpt>
      <trkpt lat="46.5349950" lon="3.1926490">
        <ele>253.4</ele>
        <time>2020-07-04T12:07:59Z</time>
      </trkpt>
      <trkpt lat="46.5349970" lon="3.1926330">
        <ele>253.2</ele>
        <time>2020-07-04T12:08:21Z</time>
      </trkpt>
      <trkpt lat="46.5350020" lon="3.1926460">
        <ele>253.2</ele>
        <time>2020-07-04T12:08:44Z</time>
      </trkpt>
      <trkpt lat="46.5349980" lon="3.1926380">
        <ele>253.0</ele>
        <time>2020-07-04T12:09:12Z</time>
      </trkpt>
      <trkpt lat="46.5350020" lon="3.1926370">
        <ele>253.0</ele>
        <time>2020-07-04T12:09:34Z</time>
      </trkpt>
      <trkpt lat="46.5349910" lon="3.1926430">
        <ele>252.8</ele>
        <time>2020-07-04T12:09:48Z</time>
      </trkpt>
      <trkpt lat="46.5349790" lon="3.1926340">
        <ele>252.8</ele>
        <time>2020-07-04T12:10:07Z</time>
      </trkpt>
      <trkpt lat="46.5349710" lon="3.1926310">
        <ele>252.8</ele>
        <time>2020-07-04T12:10:25Z</time>
      </trkpt>
      <trkpt lat="46.5349770" lon="3.1926300">
        <ele>252.8</ele>
        <time>2020-07-04T12:10:52Z</time>
      </trkpt>
      <trkpt lat="46.5349950" lon="3.1926380">
        <ele>252.6</ele>
        <time>2020-07-04T12:11:11Z</time>
      </trkpt>
      <trkpt lat="46.5350010" lon="3.1926400">
        <ele>252.8</ele>
        <time>2020-07-04T12:11:34Z</time>
      </trkpt>
      <trkpt lat="46.5350010" lon="3.1926360">
        <ele>252.6</ele>
        <time>2020-07-04T12:12:09Z</time>
      </trkpt>
      <trkpt lat="46.5349910" lon="3.1926270">
        <ele>252.6</ele>
        <time>2020-07-04T12:12:46Z</time>
      </trkpt>
      <trkpt lat="46.5349900" lon="3.1926260">
        <ele>252.6</ele>
        <time>2020-07-04T12:12:50Z</time>
      </trkpt>
      <trkpt lat="46.5349900" lon="3.1926210">
        <ele>252.2</ele>
        <time>2020-07-04T12:13:13Z</time>
      </trkpt>
      <trkpt lat="46.5349790" lon="3.1926300">
        <ele>252.6</ele>
        <time>2020-07-04T12:13:31Z</time>
      </trkpt>
      <trkpt lat="46.5349650" lon="3.1926240">
        <ele>252.4</ele>
        <time>2020-07-04T12:14:02Z</time>
      </trkpt>
      <trkpt lat="46.5349550" lon="3.1926180">
        <ele>252.6</ele>
        <time>2020-07-04T12:14:26Z</time>
      </trkpt>
      <trkpt lat="46.5349570" lon="3.1926110">
        <ele>251.8</ele>
        <time>2020-07-04T12:14:54Z</time>
      </trkpt>
      <trkpt lat="46.5349620" lon="3.1926190">
        <ele>251.8</ele>
        <time>2020-07-04T12:16:14Z</time>
      </trkpt>
      <trkpt lat="46.5349710" lon="3.1926200">
        <ele>252.4</ele>
        <time>2020-07-04T12:16:49Z</time>
      </trkpt>
      <trkpt lat="46.5349610" lon="3.1926210">
        <ele>252.2</ele>
        <time>2020-07-04T12:17:08Z</time>
      </trkpt>
      <trkpt lat="46.5349660" lon="3.1926110">
        <ele>252.0</ele>
        <time>2020-07-04T12:17:32Z</time>
      </trkpt>
      <trkpt lat="46.5349660" lon="3.1926190">
        <ele>252.0</ele>
        <time>2020-07-04T12:17:52Z</time>
      </trkpt>
      <trkpt lat="46.5349640" lon="3.1926290">
        <ele>252.0</ele>
        <time>2020-07-04T12:18:25Z</time>
      </trkpt>
      <trkpt lat="46.5349550" lon="3.1926380">
        <ele>252.2</ele>
        <time>2020-07-04T12:18:46Z</time>
      </trkpt>
      <trkpt lat="46.5349420" lon="3.1926370">
        <ele>252.2</ele>
        <time>2020-07-04T12:19:10Z</time>
      </trkpt>
      <trkpt lat="46.5349380" lon="3.1926300">
        <ele>252.2</ele>
        <time>2020-07-04T12:19:24Z</time>
      </trkpt>
      <trkpt lat="46.5349590" lon="3.1926370">
        <ele>252.0</ele>
        <time>2020-07-04T12:19:41Z</time>
      </trkpt>
      <trkpt lat="46.5349710" lon="3.1926370">
        <ele>252.0</ele>
        <time>2020-07-04T12:20:02Z</time>
      </trkpt>
      <trkpt lat="46.5349760" lon="3.1926360">
        <ele>252.0</ele>
        <time>2020-07-04T12:20:26Z</time>
      </trkpt>
      <trkpt lat="46.5349770" lon="3.1926350">
        <ele>252.4</ele>
        <time>2020-07-04T12:20:49Z</time>
      </trkpt>
      <trkpt lat="46.5349730" lon="3.1926430">
        <ele>252.2</ele>
        <time>2020-07-04T12:21:09Z</time>
      </trkpt>
      <trkpt lat="46.5349780" lon="3.1926430">
        <ele>252.4</ele>
        <time>2020-07-04T12:21:32Z</time>
      </trkpt>
      <trkpt lat="46.5349690" lon="3.1926230">
        <ele>252.2</ele>
        <time>2020-07-04T12:21:48Z</time>
      </trkpt>
      <trkpt lat="46.5349540" lon="3.1926150">
        <ele>252.2</ele>
        <time>2020-07-04T12:22:04Z</time>
      </trkpt>
      <trkpt lat="46.5349340" lon="3.1926010">
        <ele>252.2</ele>
        <time>2020-07-04T12:22:24Z</time>
      </trkpt>
      <trkpt lat="46.5348890" lon="3.1925930">
        <ele>252.6</ele>
        <time>2020-07-04T12:22:42Z</time>
      </trkpt>
      <trkpt lat="46.5349720" lon="3.1926190">
        <ele>252.8</ele>
        <time>2020-07-04T12:22:57Z</time>
      </trkpt>
      <trkpt lat="46.5349740" lon="3.1926270">
        <ele>252.6</ele>
        <time>2020-07-04T12:23:16Z</time>
      </trkpt>
      <trkpt lat="46.5349860" lon="3.1926160">
        <ele>252.2</ele>
        <time>2020-07-04T12:23:30Z</time>
      </trkpt>
      <trkpt lat="46.5349740" lon="3.1926010">
        <ele>252.2</ele>
        <time>2020-07-04T12:23:58Z</time>
      </trkpt>
      <trkpt lat="46.5349680" lon="3.1926030">
        <ele>252.4</ele>
        <time>2020-07-04T12:24:18Z</time>
      </trkpt>
      <trkpt lat="46.5349670" lon="3.1926160">
        <ele>252.4</ele>
        <time>2020-07-04T12:24:40Z</time>
      </trkpt>
      <trkpt lat="46.5349620" lon="3.1926350">
        <ele>252.0</ele>
        <time>2020-07-04T12:25:07Z</time>
      </trkpt>
      <trkpt lat="46.5349630" lon="3.1926340">
        <ele>252.0</ele>
        <time>2020-07-04T12:25:34Z</time>
      </trkpt>
      <trkpt lat="46.5349700" lon="3.1926200">
        <ele>252.4</ele>
        <time>2020-07-04T12:25:55Z</time>
      </trkpt>
      <trkpt lat="46.5349670" lon="3.1926240">
        <ele>252.4</ele>
        <time>2020-07-04T12:26:10Z</time>
      </trkpt>
      <trkpt lat="46.5349730" lon="3.1926240">
        <ele>252.4</ele>
        <time>2020-07-04T12:26:25Z</time>
      </trkpt>
      <trkpt lat="46.5349600" lon="3.1926280">
        <ele>252.8</ele>
        <time>2020-07-04T12:26:52Z</time>
      </trkpt>
      <trkpt lat="46.5349720" lon="3.1926250">
        <ele>252.6</ele>
        <time>2020-07-04T12:27:09Z</time>
      </trkpt>
      <trkpt lat="46.5349790" lon="3.1926160">
        <ele>252.6</ele>
        <time>2020-07-04T12:27:25Z</time>
      </trkpt>
      <trkpt lat="46.5349920" lon="3.1926250">
        <ele>253.0</ele>
        <time>2020-07-04T12:27:40Z</time>
      </trkpt>
      <trkpt lat="46.5349770" lon="3.1926220">
        <ele>253.2</ele>
        <time>2020-07-04T12:28:04Z</time>
      </trkpt>
      <trkpt lat="46.5349790" lon="3.1926350">
        <ele>253.4</ele>
        <time>2020-07-04T12:28:27Z</time>
      </trkpt>
      <trkpt lat="46.5349600" lon="3.1926410">
        <ele>253.2</ele>
        <time>2020-07-04T12:28:51Z</time>
      </trkpt>
      <trkpt lat="46.5349550" lon="3.1926360">
        <ele>252.8</ele>
        <time>2020-07-04T12:29:13Z</time>
      </trkpt>
      <trkpt lat="46.5349530" lon="3.1926370">
        <ele>253.2</ele>
        <time>2020-07-04T12:29:30Z</time>
      </trkpt>
      <trkpt lat="46.5349510" lon="3.1926430">
        <ele>253.2</ele>
        <time>2020-07-04T12:29:46Z</time>
      </trkpt>
      <trkpt lat="46.5349500" lon="3.1926430">
        <ele>253.4</ele>
        <time>2020-07-04T12:30:06Z</time>
      </trkpt>
      <trkpt lat="46.5349520" lon="3.1926440">
        <ele>252.6</ele>
        <time>2020-07-04T12:30:18Z</time>
      </trkpt>
      <trkpt lat="46.5349530" lon="3.1926340">
        <ele>252.8</ele>
        <time>2020-07-04T12:30:44Z</time>
      </trkpt>
      <trkpt lat="46.5349760" lon="3.1926520">
        <ele>252.8</ele>
        <time>2020-07-04T12:30:56Z</time>
      </trkpt>
      <trkpt lat="46.5349760" lon="3.1926550">
        <ele>252.6</ele>
        <time>2020-07-04T12:31:03Z</time>
      </trkpt>
      <trkpt lat="46.5349610" lon="3.1926610">
        <ele>252.6</ele>
        <time>2020-07-04T12:31:28Z</time>
      </trkpt>
      <trkpt lat="46.5349370" lon="3.1926640">
        <ele>252.6</ele>
        <time>2020-07-04T12:31:46Z</time>
      </trkpt>
      <trkpt lat="46.5349500" lon="3.1926460">
        <ele>252.6</ele>
        <time>2020-07-04T12:32:01Z</time>
      </trkpt>
      <trkpt lat="46.5349910" lon="3.1926340">
        <ele>252.4</ele>
        <time>2020-07-04T12:32:16Z</time>
      </trkpt>
      <trkpt lat="46.5350280" lon="3.1926450">
        <ele>252.4</ele>
        <time>2020-07-04T12:32:33Z</time>
      </trkpt>
      <trkpt lat="46.5349720" lon="3.1926410">
        <ele>252.4</ele>
        <time>2020-07-04T12:32:48Z</time>
      </trkpt>
      <trkpt lat="46.5349860" lon="3.1926420">
        <ele>252.4</ele>
        <time>2020-07-04T12:33:05Z</time>
      </trkpt>
      <trkpt lat="46.5349770" lon="3.1926430">
        <ele>252.6</ele>
        <time>2020-07-04T12:33:43Z</time>
      </trkpt>
      <trkpt lat="46.5349720" lon="3.1926450">
        <ele>252.8</ele>
        <time>2020-07-04T12:34:17Z</time>
      </trkpt>
      <trkpt lat="46.5349680" lon="3.1926440">
        <ele>252.6</ele>
        <time>2020-07-04T12:34:35Z</time>
      </trkpt>
      <trkpt lat="46.5349500" lon="3.1926520">
        <ele>252.8</ele>
        <time>2020-07-04T12:34:55Z</time>
      </trkpt>
      <trkpt lat="46.5349440" lon="3.1926520">
        <ele>252.6</ele>
        <time>2020-07-04T12:35:14Z</time>
      </trkpt>
      <trkpt lat="46.5349360" lon="3.1926570">
        <ele>252.8</ele>
        <time>2020-07-04T12:35:35Z</time>
      </trkpt>
      <trkpt lat="46.5349400" lon="3.1926620">
        <ele>253.0</ele>
        <time>2020-07-04T12:35:54Z</time>
      </trkpt>
      <trkpt lat="46.5349410" lon="3.1926670">
        <ele>253.4</ele>
        <time>2020-07-04T12:36:14Z</time>
      </trkpt>
      <trkpt lat="46.5349420" lon="3.1926670">
        <ele>253.4</ele>
        <time>2020-07-04T12:36:15Z</time>
      </trkpt>
      <trkpt lat="46.5349310" lon="3.1926630">
        <ele>253.8</ele>
        <time>2020-07-04T12:36:36Z</time>
      </trkpt>
      <trkpt lat="46.5349170" lon="3.1926780">
        <ele>253.8</ele>
        <time>2020-07-04T12:37:02Z</time>
      </trkpt>
      <trkpt lat="46.5349190" lon="3.1926730">
        <ele>253.8</ele>
        <time>2020-07-04T12:37:27Z</time>
      </trkpt>
      <trkpt lat="46.5349230" lon="3.1926650">
        <ele>254.2</ele>
        <time>2020-07-04T12:37:52Z</time>
      </trkpt>
      <trkpt lat="46.5349150" lon="3.1926640">
        <ele>254.2</ele>
        <time>2020-07-04T12:38:23Z</time>
      </trkpt>
      <trkpt lat="46.5349140" lon="3.1926560">
        <ele>254.2</ele>
        <time>2020-07-04T12:38:41Z</time>
      </trkpt>
      <trkpt lat="46.5349000" lon="3.1926600">
        <ele>254.0</ele>
        <time>2020-07-04T12:38:58Z</time>
      </trkpt>
      <trkpt lat="46.5348970" lon="3.1926580">
        <ele>254.2</ele>
        <time>2020-07-04T12:39:20Z</time>
      </trkpt>
      <trkpt lat="46.5349110" lon="3.1926650">
        <ele>254.4</ele>
        <time>2020-07-04T12:39:38Z</time>
      </trkpt>
      <trkpt lat="46.5349110" lon="3.1926610">
        <ele>254.6</ele>
        <time>2020-07-04T12:39:53Z</time>
      </trkpt>
      <trkpt lat="46.5349100" lon="3.1926760">
        <ele>254.6</ele>
        <time>2020-07-04T12:40:23Z</time>
      </trkpt>
      <trkpt lat="46.5349100" lon="3.1926780">
        <ele>254.6</ele>
        <time>2020-07-04T12:40:27Z</time>
      </trkpt>
      <trkpt lat="46.5348940" lon="3.1926980">
        <ele>255.0</ele>
        <time>2020-07-04T12:40:36Z</time>
      </trkpt>
      <trkpt lat="46.5348490" lon="3.1926920">
        <ele>255.0</ele>
        <time>2020-07-04T12:40:44Z</time>
      </trkpt>
      <trkpt lat="46.5348010" lon="3.1927060">
        <ele>255.4</ele>
        <time>2020-07-04T12:40:48Z</time>
      </trkpt>
      <trkpt lat="46.5348060" lon="3.1927060">
        <ele>255.4</ele>
        <time>2020-07-04T12:40:55Z</time>
      </trkpt>
      <trkpt lat="46.5348800" lon="3.1926790">
        <ele>255.4</ele>
        <time>2020-07-04T12:41:06Z</time>
      </trkpt>
      <trkpt lat="46.5348830" lon="3.1926770">
        <ele>255.0</ele>
        <time>2020-07-04T12:41:25Z</time>
      </trkpt>
      <trkpt lat="46.5348890" lon="3.1926550">
        <ele>255.2</ele>
        <time>2020-07-04T12:41:48Z</time>
      </trkpt>
      <trkpt lat="46.5348860" lon="3.1926480">
        <ele>255.2</ele>
        <time>2020-07-04T12:42:11Z</time>
      </trkpt>
      <trkpt lat="46.5348810" lon="3.1926710">
        <ele>255.2</ele>
        <time>2020-07-04T12:42:27Z</time>
      </trkpt>
      <trkpt lat="46.5348750" lon="3.1926710">
        <ele>255.2</ele>
        <time>2020-07-04T12:42:44Z</time>
      </trkpt>
      <trkpt lat="46.5348780" lon="3.1926790">
        <ele>255.0</ele>
        <time>2020-07-04T12:43:04Z</time>
      </trkpt>
      <trkpt lat="46.5348730" lon="3.1926730">
        <ele>255.0</ele>
        <time>2020-07-04T12:43:23Z</time>
      </trkpt>
      <trkpt lat="46.5348720" lon="3.1926730">
        <ele>254.8</ele>
        <time>2020-07-04T12:43:25Z</time>
      </trkpt>
      <trkpt lat="46.5348700" lon="3.1926760">
        <ele>255.0</ele>
        <time>2020-07-04T12:43:28Z</time>
      </trkpt>
      <trkpt lat="46.5348680" lon="3.1926760">
        <ele>254.8</ele>
        <time>2020-07-04T12:43:30Z</time>
      </trkpt>
      <trkpt lat="46.5348710" lon="3.1926690">
        <ele>254.8</ele>
        <time>2020-07-04T12:43:40Z</time>
      </trkpt>
      <trkpt lat="46.5348840" lon="3.1926240">
        <ele>254.8</ele>
        <time>2020-07-04T12:43:55Z</time>
      </trkpt>
      <trkpt lat="46.5349270" lon="3.1925380">
        <ele>255.2</ele>
        <time>2020-07-04T12:44:10Z</time>
      </trkpt>
      <trkpt lat="46.5349310" lon="3.1925620">
        <ele>255.2</ele>
        <time>2020-07-04T12:44:26Z</time>
      </trkpt>
      <trkpt lat="46.5349260" lon="3.1925730">
        <ele>255.2</ele>
        <time>2020-07-04T12:44:30Z</time>
      </trkpt>
      <trkpt lat="46.5349210" lon="3.1925750">
        <ele>255.0</ele>
        <time>2020-07-04T12:44:42Z</time>
      </trkpt>
      <trkpt lat="46.5348650" lon="3.1925760">
        <ele>254.8</ele>
        <time>2020-07-04T12:44:50Z</time>
      </trkpt>
      <trkpt lat="46.5348430" lon="3.1925780">
        <ele>254.6</ele>
        <time>2020-07-04T12:44:52Z</time>
      </trkpt>
      <trkpt lat="46.5347750" lon="3.1925980">
        <ele>254.2</ele>
        <time>2020-07-04T12:44:57Z</time>
      </trkpt>
      <trkpt lat="46.5346590" lon="3.1926300">
        <ele>253.8</ele>
        <time>2020-07-04T12:45:01Z</time>
      </trkpt>
      <trkpt lat="46.5344810" lon="3.1926460">
        <ele>253.0</ele>
        <time>2020-07-04T12:45:06Z</time>
      </trkpt>
      <trkpt lat="46.5344210" lon="3.1926540">
        <ele>252.4</ele>
        <time>2020-07-04T12:45:08Z</time>
      </trkpt>
      <trkpt lat="46.5343440" lon="3.1927170">
        <ele>251.8</ele>
        <time>2020-07-04T12:45:12Z</time>
      </trkpt>
      <trkpt lat="46.5343330" lon="3.1927320">
        <ele>251.4</ele>
        <time>2020-07-04T12:45:13Z</time>
      </trkpt>
      <trkpt lat="46.5343110" lon="3.1927430">
        <ele>251.0</ele>
        <time>2020-07-04T12:45:19Z</time>
      </trkpt>
      <trkpt lat="46.5342940" lon="3.1927460">
        <ele>251.0</ele>
        <time>2020-07-04T12:45:22Z</time>
      </trkpt>
      <trkpt lat="46.5342440" lon="3.1927550">
        <ele>250.8</ele>
        <time>2020-07-04T12:45:25Z</time>
      </trkpt>
      <trkpt lat="46.5341990" lon="3.1927340">
        <ele>250.6</ele>
        <time>2020-07-04T12:45:27Z</time>
      </trkpt>
      <trkpt lat="46.5341080" lon="3.1926880">
        <ele>250.6</ele>
        <time>2020-07-04T12:45:30Z</time>
      </trkpt>
      <trkpt lat="46.5340110" lon="3.1926700">
        <ele>250.4</ele>
        <time>2020-07-04T12:45:32Z</time>
      </trkpt>
      <trkpt lat="46.5338980" lon="3.1926590">
        <ele>250.2</ele>
        <time>2020-07-04T12:45:34Z</time>
      </trkpt>
      <trkpt lat="46.5338450" lon="3.1926320">
        <ele>250.2</ele>
        <time>2020-07-04T12:45:35Z</time>
      </trkpt>
      <trkpt lat="46.5336280" lon="3.1925800">
        <ele>248.6</ele>
        <time>2020-07-04T12:45:39Z</time>
      </trkpt>
      <trkpt lat="46.5335100" lon="3.1925580">
        <ele>247.8</ele>
        <time>2020-07-04T12:45:42Z</time>
      </trkpt>
      <trkpt lat="46.5333720" lon="3.1925760">
        <ele>246.6</ele>
        <time>2020-07-04T12:45:48Z</time>
      </trkpt>
      <trkpt lat="46.5333580" lon="3.1926710">
        <ele>246.4</ele>
        <time>2020-07-04T12:45:52Z</time>
      </trkpt>
      <trkpt lat="46.5334470" lon="3.1928660">
        <ele>246.6</ele>
        <time>2020-07-04T12:45:58Z</time>
      </trkpt>
      <trkpt lat="46.5335060" lon="3.1929770">
        <ele>246.6</ele>
        <time>2020-07-04T12:46:01Z</time>
      </trkpt>
      <trkpt lat="46.5335400" lon="3.1930570">
        <ele>246.4</ele>
        <time>2020-07-04T12:46:03Z</time>
      </trkpt>
      <trkpt lat="46.5335560" lon="3.1931010">
        <ele>246.4</ele>
        <time>2020-07-04T12:46:04Z</time>
      </trkpt>
      <trkpt lat="46.5336020" lon="3.1932350">
        <ele>246.4</ele>
        <time>2020-07-04T12:46:07Z</time>
      </trkpt>
      <trkpt lat="46.5337030" lon="3.1936640">
        <ele>246.0</ele>
        <time>2020-07-04T12:46:15Z</time>
      </trkpt>
      <trkpt lat="46.5337360" lon="3.1937820">
        <ele>245.6</ele>
        <time>2020-07-04T12:46:17Z</time>
      </trkpt>
      <trkpt lat="46.5338280" lon="3.1941140">
        <ele>245.0</ele>
        <time>2020-07-04T12:46:23Z</time>
      </trkpt>
      <trkpt lat="46.5339710" lon="3.1946300">
        <ele>244.8</ele>
        <time>2020-07-04T12:46:31Z</time>
      </trkpt>
      <trkpt lat="46.5341550" lon="3.1952090">
        <ele>244.6</ele>
        <time>2020-07-04T12:46:40Z</time>
      </trkpt>
      <trkpt lat="46.5342190" lon="3.1954050">
        <ele>244.4</ele>
        <time>2020-07-04T12:46:43Z</time>
      </trkpt>
      <trkpt lat="46.5342640" lon="3.1956430">
        <ele>244.4</ele>
        <time>2020-07-04T12:46:47Z</time>
      </trkpt>
      <trkpt lat="46.5342220" lon="3.1957930">
        <ele>244.2</ele>
        <time>2020-07-04T12:46:50Z</time>
      </trkpt>
      <trkpt lat="46.5341910" lon="3.1958350">
        <ele>244.4</ele>
        <time>2020-07-04T12:46:51Z</time>
      </trkpt>
      <trkpt lat="46.5341510" lon="3.1958740">
        <ele>244.2</ele>
        <time>2020-07-04T12:46:52Z</time>
      </trkpt>
      <trkpt lat="46.5339530" lon="3.1959940">
        <ele>243.6</ele>
        <time>2020-07-04T12:46:56Z</time>
      </trkpt>
      <trkpt lat="46.5338950" lon="3.1960300">
        <ele>243.4</ele>
        <time>2020-07-04T12:46:57Z</time>
      </trkpt>
      <trkpt lat="46.5335410" lon="3.1962770">
        <ele>241.8</ele>
        <time>2020-07-04T12:47:03Z</time>
      </trkpt>
      <trkpt lat="46.5330370" lon="3.1965970">
        <ele>239.6</ele>
        <time>2020-07-04T12:47:12Z</time>
      </trkpt>
      <trkpt lat="46.5329860" lon="3.1966300">
        <ele>239.2</ele>
        <time>2020-07-04T12:47:13Z</time>
      </trkpt>
      <trkpt lat="46.5325880" lon="3.1968960">
        <ele>239.6</ele>
        <time>2020-07-04T12:47:22Z</time>
      </trkpt>
      <trkpt lat="46.5324390" lon="3.1970100">
        <ele>239.6</ele>
        <time>2020-07-04T12:47:26Z</time>
      </trkpt>
      <trkpt lat="46.5323470" lon="3.1970760">
        <ele>240.0</ele>
        <time>2020-07-04T12:47:29Z</time>
      </trkpt>
      <trkpt lat="46.5322490" lon="3.1971310">
        <ele>240.4</ele>
        <time>2020-07-04T12:47:34Z</time>
      </trkpt>
      <trkpt lat="46.5322360" lon="3.1971380">
        <ele>241.2</ele>
        <time>2020-07-04T12:47:40Z</time>
      </trkpt>
      <trkpt lat="46.5322350" lon="3.1971380">
        <ele>241.2</ele>
        <time>2020-07-04T12:47:43Z</time>
      </trkpt>
      <trkpt lat="46.5322350" lon="3.1971380">
        <ele>241.2</ele>
        <time>2020-07-04T12:47:44Z</time>
      </trkpt>
      <trkpt lat="46.5322350" lon="3.1971380">
        <ele>241.2</ele>
        <time>2020-07-04T12:47:45Z</time>
      </trkpt>
      <trkpt lat="46.5322280" lon="3.1971300">
        <ele>241.2</ele>
        <time>2020-07-04T12:48:01Z</time>
      </trkpt>
      <trkpt lat="46.5322300" lon="3.1971150">
        <ele>241.2</ele>
        <time>2020-07-04T12:48:18Z</time>
      </trkpt>
      <trkpt lat="46.5322050" lon="3.1971480">
        <ele>241.6</ele>
        <time>2020-07-04T12:48:38Z</time>
      </trkpt>
      <trkpt lat="46.5320920" lon="3.1972530">
        <ele>241.0</ele>
        <time>2020-07-04T12:48:45Z</time>
      </trkpt>
      <trkpt lat="46.5318760" lon="3.1974550">
        <ele>240.6</ele>
        <time>2020-07-04T12:48:52Z</time>
      </trkpt>
      <trkpt lat="46.5316650" lon="3.1977460">
        <ele>240.4</ele>
        <time>2020-07-04T12:48:58Z</time>
      </trkpt>
      <trkpt lat="46.5316300" lon="3.1978080">
        <ele>240.4</ele>
        <time>2020-07-04T12:48:59Z</time>
      </trkpt>
      <trkpt lat="46.5314230" lon="3.1982790">
        <ele>239.4</ele>
        <time>2020-07-04T12:49:06Z</time>
      </trkpt>
      <trkpt lat="46.5312570" lon="3.1988160">
        <ele>239.4</ele>
        <time>2020-07-04T12:49:14Z</time>
      </trkpt>
      <trkpt lat="46.5312340" lon="3.1989260">
        <ele>239.4</ele>
        <time>2020-07-04T12:49:16Z</time>
      </trkpt>
      <trkpt lat="46.5312220" lon="3.1989760">
        <ele>239.4</ele>
        <time>2020-07-04T12:49:17Z</time>
      </trkpt>
      <trkpt lat="46.5312110" lon="3.1990240">
        <ele>239.4</ele>
        <time>2020-07-04T12:49:18Z</time>
      </trkpt>
      <trkpt lat="46.5311930" lon="3.1991180">
        <ele>239.4</ele>
        <time>2020-07-04T12:49:20Z</time>
      </trkpt>
      <trkpt lat="46.5311720" lon="3.1992090">
        <ele>239.6</ele>
        <time>2020-07-04T12:49:22Z</time>
      </trkpt>
      <trkpt lat="46.5311590" lon="3.1992560">
        <ele>239.4</ele>
        <time>2020-07-04T12:49:23Z</time>
      </trkpt>
      <trkpt lat="46.5311020" lon="3.1994950">
        <ele>239.8</ele>
        <time>2020-07-04T12:49:28Z</time>
      </trkpt>
      <trkpt lat="46.5310720" lon="3.1996040">
        <ele>240.2</ele>
        <time>2020-07-04T12:49:30Z</time>
      </trkpt>
      <trkpt lat="46.5309270" lon="3.2001320">
        <ele>240.2</ele>
        <time>2020-07-04T12:49:40Z</time>
      </trkpt>
      <trkpt lat="46.5309100" lon="3.2001850">
        <ele>240.4</ele>
        <time>2020-07-04T12:49:41Z</time>
      </trkpt>
      <trkpt lat="46.5307880" lon="3.2005740">
        <ele>240.8</ele>
        <time>2020-07-04T12:49:48Z</time>
      </trkpt>
      <trkpt lat="46.5305710" lon="3.2012760">
        <ele>241.4</ele>
        <time>2020-07-04T12:50:00Z</time>
      </trkpt>
      <trkpt lat="46.5304250" lon="3.2017870">
        <ele>241.4</ele>
        <time>2020-07-04T12:50:09Z</time>
      </trkpt>
      <trkpt lat="46.5302680" lon="3.2023600">
        <ele>242.0</ele>
        <time>2020-07-04T12:50:19Z</time>
      </trkpt>
      <trkpt lat="46.5302220" lon="3.2025690">
        <ele>242.0</ele>
        <time>2020-07-04T12:50:23Z</time>
      </trkpt>
      <trkpt lat="46.5301870" lon="3.2027590">
        <ele>242.0</ele>
        <time>2020-07-04T12:50:27Z</time>
      </trkpt>
      <trkpt lat="46.5301240" lon="3.2031330">
        <ele>243.8</ele>
        <time>2020-07-04T12:50:35Z</time>
      </trkpt>
      <trkpt lat="46.5301070" lon="3.2032340">
        <ele>244.0</ele>
        <time>2020-07-04T12:50:37Z</time>
      </trkpt>
      <trkpt lat="46.5300370" lon="3.2037380">
        <ele>245.0</ele>
        <time>2020-07-04T12:50:47Z</time>
      </trkpt>
      <trkpt lat="46.5300220" lon="3.2038330">
        <ele>245.4</ele>
        <time>2020-07-04T12:50:49Z</time>
      </trkpt>
      <trkpt lat="46.5299660" lon="3.2041030">
        <ele>245.6</ele>
        <time>2020-07-04T12:50:55Z</time>
      </trkpt>
      <trkpt lat="46.5299320" lon="3.2042740">
        <ele>246.2</ele>
        <time>2020-07-04T12:50:59Z</time>
      </trkpt>
      <trkpt lat="46.5299160" lon="3.2043570">
        <ele>246.8</ele>
        <time>2020-07-04T12:51:01Z</time>
      </trkpt>
      <trkpt lat="46.5298570" lon="3.2045120">
        <ele>247.4</ele>
        <time>2020-07-04T12:51:05Z</time>
      </trkpt>
      <trkpt lat="46.5298250" lon="3.2046760">
        <ele>247.8</ele>
        <time>2020-07-04T12:51:09Z</time>
      </trkpt>
      <trkpt lat="46.5297940" lon="3.2048990">
        <ele>248.8</ele>
        <time>2020-07-04T12:51:15Z</time>
      </trkpt>
      <trkpt lat="46.5297900" lon="3.2049330">
        <ele>249.0</ele>
        <time>2020-07-04T12:51:16Z</time>
      </trkpt>
      <trkpt lat="46.5297310" lon="3.2052960">
        <ele>250.2</ele>
        <time>2020-07-04T12:51:25Z</time>
      </trkpt>
      <trkpt lat="46.5297020" lon="3.2054980">
        <ele>250.8</ele>
        <time>2020-07-04T12:51:30Z</time>
      </trkpt>
      <trkpt lat="46.5296720" lon="3.2057180">
        <ele>251.4</ele>
        <time>2020-07-04T12:51:35Z</time>
      </trkpt>
      <trkpt lat="46.5296570" lon="3.2058070">
        <ele>251.4</ele>
        <time>2020-07-04T12:51:37Z</time>
      </trkpt>
      <trkpt lat="46.5295820" lon="3.2061910">
        <ele>253.0</ele>
        <time>2020-07-04T12:51:46Z</time>
      </trkpt>
      <trkpt lat="46.5295630" lon="3.2062770">
        <ele>253.0</ele>
        <time>2020-07-04T12:51:48Z</time>
      </trkpt>
      <trkpt lat="46.5294850" lon="3.2067120">
        <ele>254.0</ele>
        <time>2020-07-04T12:51:58Z</time>
      </trkpt>
      <trkpt lat="46.5294680" lon="3.2067960">
        <ele>254.4</ele>
        <time>2020-07-04T12:52:00Z</time>
      </trkpt>
      <trkpt lat="46.5294330" lon="3.2070140">
        <ele>254.6</ele>
        <time>2020-07-04T12:52:05Z</time>
      </trkpt>
      <trkpt lat="46.5293890" lon="3.2072210">
        <ele>255.4</ele>
        <time>2020-07-04T12:52:10Z</time>
      </trkpt>
      <trkpt lat="46.5293680" lon="3.2073450">
        <ele>255.4</ele>
        <time>2020-07-04T12:52:13Z</time>
      </trkpt>
      <trkpt lat="46.5293460" lon="3.2074670">
        <ele>255.6</ele>
        <time>2020-07-04T12:52:16Z</time>
      </trkpt>
      <trkpt lat="46.5293080" lon="3.2077010">
        <ele>256.4</ele>
        <time>2020-07-04T12:52:22Z</time>
      </trkpt>
      <trkpt lat="46.5292880" lon="3.2078760">
        <ele>256.8</ele>
        <time>2020-07-04T12:52:27Z</time>
      </trkpt>
      <trkpt lat="46.5292700" lon="3.2080180">
        <ele>257.4</ele>
        <time>2020-07-04T12:52:31Z</time>
      </trkpt>
      <trkpt lat="46.5292360" lon="3.2081930">
        <ele>258.0</ele>
        <time>2020-07-04T12:52:36Z</time>
      </trkpt>
      <trkpt lat="46.5292160" lon="3.2082990">
        <ele>258.4</ele>
        <time>2020-07-04T12:52:39Z</time>
      </trkpt>
      <trkpt lat="46.5291930" lon="3.2084100">
        <ele>259.0</ele>
        <time>2020-07-04T12:52:42Z</time>
      </trkpt>
      <trkpt lat="46.5291070" lon="3.2087940">
        <ele>260.8</ele>
        <time>2020-07-04T12:52:52Z</time>
      </trkpt>
      <trkpt lat="46.5290830" lon="3.2088710">
        <ele>261.0</ele>
        <time>2020-07-04T12:52:54Z</time>
      </trkpt>
      <trkpt lat="46.5290000" lon="3.2090950">
        <ele>261.8</ele>
        <time>2020-07-04T12:53:00Z</time>
      </trkpt>
      <trkpt lat="46.5289410" lon="3.2092390">
        <ele>262.0</ele>
        <time>2020-07-04T12:53:04Z</time>
      </trkpt>
      <trkpt lat="46.5288900" lon="3.2093840">
        <ele>262.6</ele>
        <time>2020-07-04T12:53:08Z</time>
      </trkpt>
      <trkpt lat="46.5288230" lon="3.2095560">
        <ele>263.6</ele>
        <time>2020-07-04T12:53:13Z</time>
      </trkpt>
      <trkpt lat="46.5288080" lon="3.2095880">
        <ele>264.0</ele>
        <time>2020-07-04T12:53:14Z</time>
      </trkpt>
      <trkpt lat="46.5287040" lon="3.2098490">
        <ele>265.0</ele>
        <time>2020-07-04T12:53:22Z</time>
      </trkpt>
      <trkpt lat="46.5286460" lon="3.2099710">
        <ele>265.6</ele>
        <time>2020-07-04T12:53:26Z</time>
      </trkpt>
      <trkpt lat="46.5285780" lon="3.2101440">
        <ele>265.8</ele>
        <time>2020-07-04T12:53:31Z</time>
      </trkpt>
      <trkpt lat="46.5284600" lon="3.2104120">
        <ele>266.8</ele>
        <time>2020-07-04T12:53:38Z</time>
      </trkpt>
      <trkpt lat="46.5284170" lon="3.2105340">
        <ele>267.0</ele>
        <time>2020-07-04T12:53:41Z</time>
      </trkpt>
      <trkpt lat="46.5282650" lon="3.2109470">
        <ele>268.0</ele>
        <time>2020-07-04T12:53:51Z</time>
      </trkpt>
      <trkpt lat="46.5282320" lon="3.2110310">
        <ele>268.0</ele>
        <time>2020-07-04T12:53:53Z</time>
      </trkpt>
      <trkpt lat="46.5281870" lon="3.2111510">
        <ele>268.0</ele>
        <time>2020-07-04T12:53:56Z</time>
      </trkpt>
      <trkpt lat="46.5281210" lon="3.2113110">
        <ele>268.4</ele>
        <time>2020-07-04T12:54:00Z</time>
      </trkpt>
      <trkpt lat="46.5280530" lon="3.2114710">
        <ele>268.8</ele>
        <time>2020-07-04T12:54:04Z</time>
      </trkpt>
      <trkpt lat="46.5279240" lon="3.2118360">
        <ele>270.0</ele>
        <time>2020-07-04T12:54:13Z</time>
      </trkpt>
      <trkpt lat="46.5278950" lon="3.2119140">
        <ele>270.2</ele>
        <time>2020-07-04T12:54:15Z</time>
      </trkpt>
      <trkpt lat="46.5277770" lon="3.2121860">
        <ele>270.6</ele>
        <time>2020-07-04T12:54:22Z</time>
      </trkpt>
      <trkpt lat="46.5277140" lon="3.2123700">
        <ele>271.4</ele>
        <time>2020-07-04T12:54:27Z</time>
      </trkpt>
      <trkpt lat="46.5276990" lon="3.2124390">
        <ele>271.8</ele>
        <time>2020-07-04T12:54:29Z</time>
      </trkpt>
      <trkpt lat="46.5276130" lon="3.2126330">
        <ele>272.6</ele>
        <time>2020-07-04T12:54:35Z</time>
      </trkpt>
      <trkpt lat="46.5275890" lon="3.2126980">
        <ele>273.0</ele>
        <time>2020-07-04T12:54:37Z</time>
      </trkpt>
      <trkpt lat="46.5274880" lon="3.2129620">
        <ele>274.0</ele>
        <time>2020-07-04T12:54:45Z</time>
      </trkpt>
      <trkpt lat="46.5274590" lon="3.2130270">
        <ele>274.6</ele>
        <time>2020-07-04T12:54:47Z</time>
      </trkpt>
      <trkpt lat="46.5273840" lon="3.2132120">
        <ele>274.8</ele>
        <time>2020-07-04T12:54:53Z</time>
      </trkpt>
      <trkpt lat="46.5273450" lon="3.2133130">
        <ele>275.2</ele>
        <time>2020-07-04T12:54:56Z</time>
      </trkpt>
      <trkpt lat="46.5272530" lon="3.2135090">
        <ele>276.2</ele>
        <time>2020-07-04T12:55:03Z</time>
      </trkpt>
      <trkpt lat="46.5271620" lon="3.2137530">
        <ele>277.2</ele>
        <time>2020-07-04T12:55:10Z</time>
      </trkpt>
      <trkpt lat="46.5271420" lon="3.2138030">
        <ele>277.4</ele>
        <time>2020-07-04T12:55:12Z</time>
      </trkpt>
      <trkpt lat="46.5271070" lon="3.2138840">
        <ele>278.0</ele>
        <time>2020-07-04T12:55:15Z</time>
      </trkpt>
      <trkpt lat="46.5269870" lon="3.2141700">
        <ele>279.8</ele>
        <time>2020-07-04T12:55:25Z</time>
      </trkpt>
      <trkpt lat="46.5268770" lon="3.2144580">
        <ele>281.4</ele>
        <time>2020-07-04T12:55:34Z</time>
      </trkpt>
      <trkpt lat="46.5268530" lon="3.2145340">
        <ele>281.6</ele>
        <time>2020-07-04T12:55:36Z</time>
      </trkpt>
      <trkpt lat="46.5267660" lon="3.2147330">
        <ele>282.4</ele>
        <time>2020-07-04T12:55:42Z</time>
      </trkpt>
      <trkpt lat="46.5267350" lon="3.2148090">
        <ele>282.6</ele>
        <time>2020-07-04T12:55:44Z</time>
      </trkpt>
      <trkpt lat="46.5266540" lon="3.2150220">
        <ele>283.6</ele>
        <time>2020-07-04T12:55:50Z</time>
      </trkpt>
      <trkpt lat="46.5266190" lon="3.2151270">
        <ele>283.8</ele>
        <time>2020-07-04T12:55:53Z</time>
      </trkpt>
      <trkpt lat="46.5265500" lon="3.2153010">
        <ele>284.6</ele>
        <time>2020-07-04T12:55:58Z</time>
      </trkpt>
      <trkpt lat="46.5264520" lon="3.2155790">
        <ele>285.6</ele>
        <time>2020-07-04T12:56:06Z</time>
      </trkpt>
      <trkpt lat="46.5263640" lon="3.2157460">
        <ele>286.2</ele>
        <time>2020-07-04T12:56:11Z</time>
      </trkpt>
      <trkpt lat="46.5263300" lon="3.2158220">
        <ele>286.4</ele>
        <time>2020-07-04T12:56:13Z</time>
      </trkpt>
      <trkpt lat="46.5262030" lon="3.2160800">
        <ele>287.0</ele>
        <time>2020-07-04T12:56:21Z</time>
      </trkpt>
      <trkpt lat="46.5261430" lon="3.2161760">
        <ele>287.4</ele>
        <time>2020-07-04T12:56:24Z</time>
      </trkpt>
      <trkpt lat="46.5260320" lon="3.2163250">
        <ele>288.0</ele>
        <time>2020-07-04T12:56:29Z</time>
      </trkpt>
      <trkpt lat="46.5258840" lon="3.2164970">
        <ele>288.8</ele>
        <time>2020-07-04T12:56:36Z</time>
      </trkpt>
      <trkpt lat="46.5258620" lon="3.2165170">
        <ele>289.0</ele>
        <time>2020-07-04T12:56:37Z</time>
      </trkpt>
      <trkpt lat="46.5255960" lon="3.2167300">
        <ele>290.8</ele>
        <time>2020-07-04T12:56:49Z</time>
      </trkpt>
      <trkpt lat="46.5254970" lon="3.2167820">
        <ele>290.8</ele>
        <time>2020-07-04T12:56:53Z</time>
      </trkpt>
      <trkpt lat="46.5253040" lon="3.2168670">
        <ele>291.2</ele>
        <time>2020-07-04T12:57:01Z</time>
      </trkpt>
      <trkpt lat="46.5251630" lon="3.2169140">
        <ele>291.8</ele>
        <time>2020-07-04T12:57:07Z</time>
      </trkpt>
      <trkpt lat="46.5250430" lon="3.2169490">
        <ele>292.6</ele>
        <time>2020-07-04T12:57:12Z</time>
      </trkpt>
      <trkpt lat="46.5249420" lon="3.2169660">
        <ele>292.8</ele>
        <time>2020-07-04T12:57:16Z</time>
      </trkpt>
      <trkpt lat="46.5248450" lon="3.2170000">
        <ele>293.4</ele>
        <time>2020-07-04T12:57:20Z</time>
      </trkpt>
      <trkpt lat="46.5246500" lon="3.2170720">
        <ele>294.4</ele>
        <time>2020-07-04T12:57:28Z</time>
      </trkpt>
      <trkpt lat="46.5245220" lon="3.2171200">
        <ele>295.0</ele>
        <time>2020-07-04T12:57:33Z</time>
      </trkpt>
      <trkpt lat="46.5244960" lon="3.2171300">
        <ele>295.0</ele>
        <time>2020-07-04T12:57:34Z</time>
      </trkpt>
      <trkpt lat="46.5244710" lon="3.2171400">
        <ele>295.4</ele>
        <time>2020-07-04T12:57:35Z</time>
      </trkpt>
      <trkpt lat="46.5242990" lon="3.2172020">
        <ele>296.2</ele>
        <time>2020-07-04T12:57:42Z</time>
      </trkpt>
      <trkpt lat="46.5242480" lon="3.2172200">
        <ele>296.2</ele>
        <time>2020-07-04T12:57:44Z</time>
      </trkpt>
      <trkpt lat="46.5240750" lon="3.2172730">
        <ele>297.6</ele>
        <time>2020-07-04T12:57:51Z</time>
      </trkpt>
      <trkpt lat="46.5240250" lon="3.2172900">
        <ele>297.8</ele>
        <time>2020-07-04T12:57:53Z</time>
      </trkpt>
      <trkpt lat="46.5238320" lon="3.2173700">
        <ele>298.4</ele>
        <time>2020-07-04T12:58:01Z</time>
      </trkpt>
      <trkpt lat="46.5236070" lon="3.2174490">
        <ele>299.8</ele>
        <time>2020-07-04T12:58:10Z</time>
      </trkpt>
      <trkpt lat="46.5235300" lon="3.2174690">
        <ele>300.0</ele>
        <time>2020-07-04T12:58:13Z</time>
      </trkpt>
      <trkpt lat="46.5234060" lon="3.2175100">
        <ele>300.6</ele>
        <time>2020-07-04T12:58:18Z</time>
      </trkpt>
      <trkpt lat="46.5233270" lon="3.2175380">
        <ele>301.0</ele>
        <time>2020-07-04T12:58:21Z</time>
      </trkpt>
      <trkpt lat="46.5229990" lon="3.2176500">
        <ele>302.6</ele>
        <time>2020-07-04T12:58:33Z</time>
      </trkpt>
      <trkpt lat="46.5229120" lon="3.2176940">
        <ele>302.8</ele>
        <time>2020-07-04T12:58:36Z</time>
      </trkpt>
      <trkpt lat="46.5227940" lon="3.2177560">
        <ele>303.0</ele>
        <time>2020-07-04T12:58:40Z</time>
      </trkpt>
      <trkpt lat="46.5226210" lon="3.2178080">
        <ele>303.4</ele>
        <time>2020-07-04T12:58:46Z</time>
      </trkpt>
      <trkpt lat="46.5222780" lon="3.2179270">
        <ele>304.4</ele>
        <time>2020-07-04T12:58:58Z</time>
      </trkpt>
      <trkpt lat="46.5218910" lon="3.2180660">
        <ele>304.8</ele>
        <time>2020-07-04T12:59:12Z</time>
      </trkpt>
      <trkpt lat="46.5216740" lon="3.2181290">
        <ele>305.0</ele>
        <time>2020-07-04T12:59:20Z</time>
      </trkpt>
      <trkpt lat="46.5215690" lon="3.2181710">
        <ele>305.8</ele>
        <time>2020-07-04T12:59:24Z</time>
      </trkpt>
      <trkpt lat="46.5213860" lon="3.2182340">
        <ele>306.6</ele>
        <time>2020-07-04T12:59:32Z</time>
      </trkpt>
      <trkpt lat="46.5213140" lon="3.2182610">
        <ele>306.8</ele>
        <time>2020-07-04T12:59:35Z</time>
      </trkpt>
      <trkpt lat="46.5211350" lon="3.2183410">
        <ele>307.2</ele>
        <time>2020-07-04T12:59:41Z</time>
      </trkpt>
      <trkpt lat="46.5208560" lon="3.2185320">
        <ele>307.2</ele>
        <time>2020-07-04T12:59:49Z</time>
      </trkpt>
      <trkpt lat="46.5205650" lon="3.2188420">
        <ele>307.0</ele>
        <time>2020-07-04T12:59:57Z</time>
      </trkpt>
      <trkpt lat="46.5204300" lon="3.2190370">
        <ele>306.8</ele>
        <time>2020-07-04T13:00:01Z</time>
      </trkpt>
      <trkpt lat="46.5202720" lon="3.2192510">
        <ele>306.6</ele>
        <time>2020-07-04T13:00:05Z</time>
      </trkpt>
      <trkpt lat="46.5199220" lon="3.2197270">
        <ele>304.8</ele>
        <time>2020-07-04T13:00:14Z</time>
      </trkpt>
      <trkpt lat="46.5195720" lon="3.2202030">
        <ele>304.0</ele>
        <time>2020-07-04T13:00:22Z</time>
      </trkpt>
      <trkpt lat="46.5194860" lon="3.2203180">
        <ele>304.0</ele>
        <time>2020-07-04T13:00:24Z</time>
      </trkpt>
      <trkpt lat="46.5193140" lon="3.2205530">
        <ele>303.8</ele>
        <time>2020-07-04T13:00:28Z</time>
      </trkpt>
      <trkpt lat="46.5192690" lon="3.2206080">
        <ele>303.8</ele>
        <time>2020-07-04T13:00:29Z</time>
      </trkpt>
      <trkpt lat="46.5191370" lon="3.2207830">
        <ele>303.6</ele>
        <time>2020-07-04T13:00:32Z</time>
      </trkpt>
      <trkpt lat="46.5190480" lon="3.2209000">
        <ele>303.0</ele>
        <time>2020-07-04T13:00:34Z</time>
      </trkpt>
      <trkpt lat="46.5186240" lon="3.2214810">
        <ele>302.4</ele>
        <time>2020-07-04T13:00:44Z</time>
      </trkpt>
      <trkpt lat="46.5185430" lon="3.2215840">
        <ele>302.4</ele>
        <time>2020-07-04T13:00:46Z</time>
      </trkpt>
      <trkpt lat="46.5183390" lon="3.2218660">
        <ele>302.4</ele>
        <time>2020-07-04T13:00:51Z</time>
      </trkpt>
      <trkpt lat="46.5181140" lon="3.2222010">
        <ele>302.8</ele>
        <time>2020-07-04T13:00:57Z</time>
      </trkpt>
      <trkpt lat="46.5177250" lon="3.2227490">
        <ele>304.0</ele>
        <time>2020-07-04T13:01:07Z</time>
      </trkpt>
      <trkpt lat="46.5176490" lon="3.2228520">
        <ele>304.0</ele>
        <time>2020-07-04T13:01:09Z</time>
      </trkpt>
      <trkpt lat="46.5173730" lon="3.2232420">
        <ele>304.2</ele>
        <time>2020-07-04T13:01:17Z</time>
      </trkpt>
      <trkpt lat="46.5173420" lon="3.2232860">
        <ele>304.4</ele>
        <time>2020-07-04T13:01:18Z</time>
      </trkpt>
      <trkpt lat="46.5171300" lon="3.2235840">
        <ele>305.0</ele>
        <time>2020-07-04T13:01:25Z</time>
      </trkpt>
      <trkpt lat="46.5169540" lon="3.2238280">
        <ele>305.8</ele>
        <time>2020-07-04T13:01:31Z</time>
      </trkpt>
      <trkpt lat="46.5167780" lon="3.2240670">
        <ele>307.0</ele>
        <time>2020-07-04T13:01:38Z</time>
      </trkpt>
      <trkpt lat="46.5167320" lon="3.2241260">
        <ele>307.2</ele>
        <time>2020-07-04T13:01:40Z</time>
      </trkpt>
      <trkpt lat="46.5165930" lon="3.2243120">
        <ele>308.4</ele>
        <time>2020-07-04T13:01:46Z</time>
      </trkpt>
      <trkpt lat="46.5164300" lon="3.2245370">
        <ele>309.6</ele>
        <time>2020-07-04T13:01:53Z</time>
      </trkpt>
      <trkpt lat="46.5163210" lon="3.2246900">
        <ele>310.2</ele>
        <time>2020-07-04T13:01:58Z</time>
      </trkpt>
      <trkpt lat="46.5163010" lon="3.2247210">
        <ele>310.2</ele>
        <time>2020-07-04T13:01:59Z</time>
      </trkpt>
      <trkpt lat="46.5162800" lon="3.2247520">
        <ele>310.2</ele>
        <time>2020-07-04T13:02:00Z</time>
      </trkpt>
      <trkpt lat="46.5161670" lon="3.2249030">
        <ele>310.8</ele>
        <time>2020-07-04T13:02:05Z</time>
      </trkpt>
      <trkpt lat="46.5160490" lon="3.2250450">
        <ele>311.6</ele>
        <time>2020-07-04T13:02:10Z</time>
      </trkpt>
      <trkpt lat="46.5159780" lon="3.2251360">
        <ele>312.2</ele>
        <time>2020-07-04T13:02:13Z</time>
      </trkpt>
      <trkpt lat="46.5157880" lon="3.2254110">
        <ele>313.0</ele>
        <time>2020-07-04T13:02:21Z</time>
      </trkpt>
      <trkpt lat="46.5157670" lon="3.2254430">
        <ele>313.2</ele>
        <time>2020-07-04T13:02:22Z</time>
      </trkpt>
      <trkpt lat="46.5155870" lon="3.2256780">
        <ele>314.4</ele>
        <time>2020-07-04T13:02:30Z</time>
      </trkpt>
      <trkpt lat="46.5154840" lon="3.2258230">
        <ele>315.2</ele>
        <time>2020-07-04T13:02:35Z</time>
      </trkpt>
      <trkpt lat="46.5153550" lon="3.2259830">
        <ele>315.8</ele>
        <time>2020-07-04T13:02:41Z</time>
      </trkpt>
      <trkpt lat="46.5152880" lon="3.2260700">
        <ele>316.0</ele>
        <time>2020-07-04T13:02:44Z</time>
      </trkpt>
      <trkpt lat="46.5151280" lon="3.2262880">
        <ele>316.8</ele>
        <time>2020-07-04T13:02:51Z</time>
      </trkpt>
      <trkpt lat="46.5149920" lon="3.2264850">
        <ele>317.6</ele>
        <time>2020-07-04T13:02:57Z</time>
      </trkpt>
      <trkpt lat="46.5148660" lon="3.2266540">
        <ele>318.0</ele>
        <time>2020-07-04T13:03:02Z</time>
      </trkpt>
      <trkpt lat="46.5147530" lon="3.2268170">
        <ele>318.6</ele>
        <time>2020-07-04T13:03:07Z</time>
      </trkpt>
      <trkpt lat="46.5146180" lon="3.2270150">
        <ele>319.2</ele>
        <time>2020-07-04T13:03:13Z</time>
      </trkpt>
      <trkpt lat="46.5144620" lon="3.2272790">
        <ele>319.8</ele>
        <time>2020-07-04T13:03:20Z</time>
      </trkpt>
      <trkpt lat="46.5144240" lon="3.2273500">
        <ele>320.0</ele>
        <time>2020-07-04T13:03:22Z</time>
      </trkpt>
      <trkpt lat="46.5142780" lon="3.2277240">
        <ele>320.8</ele>
        <time>2020-07-04T13:03:32Z</time>
      </trkpt>
      <trkpt lat="46.5142160" lon="3.2279150">
        <ele>321.2</ele>
        <time>2020-07-04T13:03:38Z</time>
      </trkpt>
      <trkpt lat="46.5141150" lon="3.2283070">
        <ele>321.6</ele>
        <time>2020-07-04T13:03:47Z</time>
      </trkpt>
      <trkpt lat="46.5139790" lon="3.2287260">
        <ele>321.6</ele>
        <time>2020-07-04T13:03:55Z</time>
      </trkpt>
      <trkpt lat="46.5138720" lon="3.2290140">
        <ele>321.6</ele>
        <time>2020-07-04T13:04:02Z</time>
      </trkpt>
      <trkpt lat="46.5137310" lon="3.2294280">
        <ele>322.0</ele>
        <time>2020-07-04T13:04:12Z</time>
      </trkpt>
      <trkpt lat="46.5136390" lon="3.2297160">
        <ele>322.2</ele>
        <time>2020-07-04T13:04:18Z</time>
      </trkpt>
      <trkpt lat="46.5135410" lon="3.2298020">
        <ele>322.2</ele>
        <time>2020-07-04T13:04:22Z</time>
      </trkpt>
      <trkpt lat="46.5134070" lon="3.2297420">
        <ele>322.4</ele>
        <time>2020-07-04T13:04:28Z</time>
      </trkpt>
      <trkpt lat="46.5133250" lon="3.2296460">
        <ele>322.2</ele>
        <time>2020-07-04T13:04:32Z</time>
      </trkpt>
      <trkpt lat="46.5132610" lon="3.2295850">
        <ele>322.4</ele>
        <time>2020-07-04T13:04:35Z</time>
      </trkpt>
      <trkpt lat="46.5131190" lon="3.2294560">
        <ele>323.0</ele>
        <time>2020-07-04T13:04:42Z</time>
      </trkpt>
      <trkpt lat="46.5130760" lon="3.2294230">
        <ele>323.0</ele>
        <time>2020-07-04T13:04:44Z</time>
      </trkpt>
      <trkpt lat="46.5129980" lon="3.2293300">
        <ele>323.6</ele>
        <time>2020-07-04T13:04:48Z</time>
      </trkpt>
      <trkpt lat="46.5129210" lon="3.2292220">
        <ele>324.0</ele>
        <time>2020-07-04T13:04:52Z</time>
      </trkpt>
      <trkpt lat="46.5127810" lon="3.2290740">
        <ele>324.4</ele>
        <time>2020-07-04T13:04:58Z</time>
      </trkpt>
      <trkpt lat="46.5127140" lon="3.2290050">
        <ele>324.4</ele>
        <time>2020-07-04T13:05:01Z</time>
      </trkpt>
      <trkpt lat="46.5126220" lon="3.2288960">
        <ele>324.8</ele>
        <time>2020-07-04T13:05:05Z</time>
      </trkpt>
      <trkpt lat="46.5125470" lon="3.2288470">
        <ele>325.8</ele>
        <time>2020-07-04T13:05:08Z</time>
      </trkpt>
      <trkpt lat="46.5124000" lon="3.2286810">
        <ele>326.6</ele>
        <time>2020-07-04T13:05:15Z</time>
      </trkpt>
      <trkpt lat="46.5123570" lon="3.2286380">
        <ele>327.2</ele>
        <time>2020-07-04T13:05:17Z</time>
      </trkpt>
      <trkpt lat="46.5122320" lon="3.2285120">
        <ele>327.8</ele>
        <time>2020-07-04T13:05:23Z</time>
      </trkpt>
      <trkpt lat="46.5121180" lon="3.2283880">
        <ele>328.4</ele>
        <time>2020-07-04T13:05:29Z</time>
      </trkpt>
      <trkpt lat="46.5120810" lon="3.2283420">
        <ele>328.8</ele>
        <time>2020-07-04T13:05:31Z</time>
      </trkpt>
      <trkpt lat="46.5119520" lon="3.2282060">
        <ele>329.6</ele>
        <time>2020-07-04T13:05:37Z</time>
      </trkpt>
      <trkpt lat="46.5118780" lon="3.2281710">
        <ele>330.0</ele>
        <time>2020-07-04T13:05:40Z</time>
      </trkpt>
      <trkpt lat="46.5116860" lon="3.2281750">
        <ele>330.8</ele>
        <time>2020-07-04T13:05:47Z</time>
      </trkpt>
      <trkpt lat="46.5116590" lon="3.2281740">
        <ele>331.0</ele>
        <time>2020-07-04T13:05:48Z</time>
      </trkpt>
      <trkpt lat="46.5116310" lon="3.2281750">
        <ele>331.2</ele>
        <time>2020-07-04T13:05:49Z</time>
      </trkpt>
      <trkpt lat="46.5116040" lon="3.2281760">
        <ele>331.4</ele>
        <time>2020-07-04T13:05:50Z</time>
      </trkpt>
      <trkpt lat="46.5114040" lon="3.2281510">
        <ele>331.8</ele>
        <time>2020-07-04T13:05:57Z</time>
      </trkpt>
      <trkpt lat="46.5109830" lon="3.2281070">
        <ele>333.0</ele>
        <time>2020-07-04T13:06:10Z</time>
      </trkpt>
      <trkpt lat="46.5106530" lon="3.2280910">
        <ele>333.2</ele>
        <time>2020-07-04T13:06:19Z</time>
      </trkpt>
      <trkpt lat="46.5105650" lon="3.2280840">
        <ele>333.0</ele>
        <time>2020-07-04T13:06:21Z</time>
      </trkpt>
      <trkpt lat="46.5101960" lon="3.2281040">
        <ele>332.0</ele>
        <time>2020-07-04T13:06:30Z</time>
      </trkpt>
      <trkpt lat="46.5100980" lon="3.2281140">
        <ele>331.8</ele>
        <time>2020-07-04T13:06:33Z</time>
      </trkpt>
      <trkpt lat="46.5098870" lon="3.2281570">
        <ele>332.2</ele>
        <time>2020-07-04T13:06:40Z</time>
      </trkpt>
      <trkpt lat="46.5098580" lon="3.2281660">
        <ele>332.2</ele>
        <time>2020-07-04T13:06:41Z</time>
      </trkpt>
      <trkpt lat="46.5097290" lon="3.2281900">
        <ele>333.6</ele>
        <time>2020-07-04T13:06:46Z</time>
      </trkpt>
      <trkpt lat="46.5096400" lon="3.2282040">
        <ele>334.0</ele>
        <time>2020-07-04T13:06:50Z</time>
      </trkpt>
      <trkpt lat="46.5095360" lon="3.2282110">
        <ele>335.6</ele>
        <time>2020-07-04T13:06:55Z</time>
      </trkpt>
      <trkpt lat="46.5094270" lon="3.2282210">
        <ele>336.2</ele>
        <time>2020-07-04T13:07:00Z</time>
      </trkpt>
      <trkpt lat="46.5093250" lon="3.2282360">
        <ele>336.6</ele>
        <time>2020-07-04T13:07:04Z</time>
      </trkpt>
      <trkpt lat="46.5091260" lon="3.2282670">
        <ele>337.8</ele>
        <time>2020-07-04T13:07:12Z</time>
      </trkpt>
      <trkpt lat="46.5091030" lon="3.2282740">
        <ele>338.2</ele>
        <time>2020-07-04T13:07:13Z</time>
      </trkpt>
      <trkpt lat="46.5087710" lon="3.2283440">
        <ele>339.4</ele>
        <time>2020-07-04T13:07:25Z</time>
      </trkpt>
      <trkpt lat="46.5086920" lon="3.2283600">
        <ele>339.6</ele>
        <time>2020-07-04T13:07:27Z</time>
      </trkpt>
      <trkpt lat="46.5085110" lon="3.2283930">
        <ele>339.6</ele>
        <time>2020-07-04T13:07:31Z</time>
      </trkpt>
      <trkpt lat="46.5084080" lon="3.2284150">
        <ele>339.4</ele>
        <time>2020-07-04T13:07:33Z</time>
      </trkpt>
      <trkpt lat="46.5082440" lon="3.2284470">
        <ele>339.0</ele>
        <time>2020-07-04T13:07:36Z</time>
      </trkpt>
      <trkpt lat="46.5081280" lon="3.2284600">
        <ele>338.0</ele>
        <time>2020-07-04T13:07:38Z</time>
      </trkpt>
      <trkpt lat="46.5078670" lon="3.2284910">
        <ele>337.0</ele>
        <time>2020-07-04T13:07:42Z</time>
      </trkpt>
      <trkpt lat="46.5076450" lon="3.2285160">
        <ele>336.4</ele>
        <time>2020-07-04T13:07:45Z</time>
      </trkpt>
      <trkpt lat="46.5075700" lon="3.2285240">
        <ele>336.0</ele>
        <time>2020-07-04T13:07:46Z</time>
      </trkpt>
      <trkpt lat="46.5071950" lon="3.2285600">
        <ele>333.6</ele>
        <time>2020-07-04T13:07:51Z</time>
      </trkpt>
      <trkpt lat="46.5071200" lon="3.2285660">
        <ele>333.2</ele>
        <time>2020-07-04T13:07:52Z</time>
      </trkpt>
      <trkpt lat="46.5068980" lon="3.2285840">
        <ele>331.4</ele>
        <time>2020-07-04T13:07:55Z</time>
      </trkpt>
      <trkpt lat="46.5068220" lon="3.2285980">
        <ele>330.8</ele>
        <time>2020-07-04T13:07:56Z</time>
      </trkpt>
      <trkpt lat="46.5067430" lon="3.2286240">
        <ele>330.6</ele>
        <time>2020-07-04T13:07:57Z</time>
      </trkpt>
      <trkpt lat="46.5065760" lon="3.2286970">
        <ele>330.2</ele>
        <time>2020-07-04T13:07:59Z</time>
      </trkpt>
      <trkpt lat="46.5064910" lon="3.2287410">
        <ele>329.8</ele>
        <time>2020-07-04T13:08:00Z</time>
      </trkpt>
      <trkpt lat="46.5063240" lon="3.2288360">
        <ele>329.6</ele>
        <time>2020-07-04T13:08:02Z</time>
      </trkpt>
      <trkpt lat="46.5060770" lon="3.2290010">
        <ele>328.4</ele>
        <time>2020-07-04T13:08:05Z</time>
      </trkpt>
      <trkpt lat="46.5059940" lon="3.2290650">
        <ele>328.0</ele>
        <time>2020-07-04T13:08:06Z</time>
      </trkpt>
      <trkpt lat="46.5059080" lon="3.2291330">
        <ele>327.2</ele>
        <time>2020-07-04T13:08:07Z</time>
      </trkpt>
      <trkpt lat="46.5058230" lon="3.2292080">
        <ele>326.4</ele>
        <time>2020-07-04T13:08:08Z</time>
      </trkpt>
      <trkpt lat="46.5057390" lon="3.2292890">
        <ele>325.2</ele>
        <time>2020-07-04T13:08:09Z</time>
      </trkpt>
      <trkpt lat="46.5055750" lon="3.2294630">
        <ele>323.2</ele>
        <time>2020-07-04T13:08:11Z</time>
      </trkpt>
      <trkpt lat="46.5054130" lon="3.2296590">
        <ele>322.0</ele>
        <time>2020-07-04T13:08:13Z</time>
      </trkpt>
      <trkpt lat="46.5053360" lon="3.2297640">
        <ele>321.2</ele>
        <time>2020-07-04T13:08:14Z</time>
      </trkpt>
      <trkpt lat="46.5052610" lon="3.2298690">
        <ele>320.2</ele>
        <time>2020-07-04T13:08:15Z</time>
      </trkpt>
      <trkpt lat="46.5051850" lon="3.2299730">
        <ele>319.2</ele>
        <time>2020-07-04T13:08:16Z</time>
      </trkpt>
      <trkpt lat="46.5049500" lon="3.2302980">
        <ele>317.8</ele>
        <time>2020-07-04T13:08:19Z</time>
      </trkpt>
      <trkpt lat="46.5048710" lon="3.2304050">
        <ele>316.8</ele>
        <time>2020-07-04T13:08:20Z</time>
      </trkpt>
      <trkpt lat="46.5047920" lon="3.2305140">
        <ele>316.0</ele>
        <time>2020-07-04T13:08:21Z</time>
      </trkpt>
      <trkpt lat="46.5046270" lon="3.2307380">
        <ele>314.4</ele>
        <time>2020-07-04T13:08:23Z</time>
      </trkpt>
      <trkpt lat="46.5045440" lon="3.2308530">
        <ele>313.2</ele>
        <time>2020-07-04T13:08:24Z</time>
      </trkpt>
      <trkpt lat="46.5043720" lon="3.2310780">
        <ele>310.4</ele>
        <time>2020-07-04T13:08:26Z</time>
      </trkpt>
      <trkpt lat="46.5041370" lon="3.2314020">
        <ele>307.6</ele>
        <time>2020-07-04T13:08:29Z</time>
      </trkpt>
      <trkpt lat="46.5040110" lon="3.2315950">
        <ele>306.2</ele>
        <time>2020-07-04T13:08:31Z</time>
      </trkpt>
      <trkpt lat="46.5039120" lon="3.2317610">
        <ele>305.4</ele>
        <time>2020-07-04T13:08:33Z</time>
      </trkpt>
      <trkpt lat="46.5037360" lon="3.2320970">
        <ele>304.0</ele>
        <time>2020-07-04T13:08:38Z</time>
      </trkpt>
      <trkpt lat="46.5037060" lon="3.2321430">
        <ele>303.8</ele>
        <time>2020-07-04T13:08:39Z</time>
      </trkpt>
      <trkpt lat="46.5036290" lon="3.2322120">
        <ele>303.8</ele>
        <time>2020-07-04T13:08:41Z</time>
      </trkpt>
      <trkpt lat="46.5035780" lon="3.2322100">
        <ele>303.8</ele>
        <time>2020-07-04T13:08:42Z</time>
      </trkpt>
      <trkpt lat="46.5035270" lon="3.2321900">
        <ele>303.6</ele>
        <time>2020-07-04T13:08:43Z</time>
      </trkpt>
      <trkpt lat="46.5034010" lon="3.2320920">
        <ele>303.4</ele>
        <time>2020-07-04T13:08:46Z</time>
      </trkpt>
      <trkpt lat="46.5032090" lon="3.2319140">
        <ele>302.2</ele>
        <time>2020-07-04T13:08:52Z</time>
      </trkpt>
      <trkpt lat="46.5031210" lon="3.2318350">
        <ele>301.8</ele>
        <time>2020-07-04T13:08:55Z</time>
      </trkpt>
      <trkpt lat="46.5030940" lon="3.2318080">
        <ele>301.8</ele>
        <time>2020-07-04T13:08:56Z</time>
      </trkpt>
      <trkpt lat="46.5030650" lon="3.2317820">
        <ele>301.8</ele>
        <time>2020-07-04T13:08:57Z</time>
      </trkpt>
      <trkpt lat="46.5029510" lon="3.2316910">
        <ele>301.8</ele>
        <time>2020-07-04T13:09:01Z</time>
      </trkpt>
      <trkpt lat="46.5028570" lon="3.2316380">
        <ele>301.8</ele>
        <time>2020-07-04T13:09:04Z</time>
      </trkpt>
      <trkpt lat="46.5027730" lon="3.2316320">
        <ele>302.6</ele>
        <time>2020-07-04T13:09:07Z</time>
      </trkpt>
      <trkpt lat="46.5027480" lon="3.2316510">
        <ele>303.0</ele>
        <time>2020-07-04T13:09:08Z</time>
      </trkpt>
      <trkpt lat="46.5026900" lon="3.2317740">
        <ele>304.0</ele>
        <time>2020-07-04T13:09:11Z</time>
      </trkpt>
      <trkpt lat="46.5026760" lon="3.2318340">
        <ele>303.8</ele>
        <time>2020-07-04T13:09:12Z</time>
      </trkpt>
      <trkpt lat="46.5026620" lon="3.2319020">
        <ele>304.0</ele>
        <time>2020-07-04T13:09:13Z</time>
      </trkpt>
      <trkpt lat="46.5026270" lon="3.2320580">
        <ele>304.0</ele>
        <time>2020-07-04T13:09:15Z</time>
      </trkpt>
      <trkpt lat="46.5026070" lon="3.2321420">
        <ele>304.2</ele>
        <time>2020-07-04T13:09:16Z</time>
      </trkpt>
      <trkpt lat="46.5024940" lon="3.2326880">
        <ele>304.2</ele>
        <time>2020-07-04T13:09:22Z</time>
      </trkpt>
      <trkpt lat="46.5023280" lon="3.2334100">
        <ele>301.8</ele>
        <time>2020-07-04T13:09:30Z</time>
      </trkpt>
      <trkpt lat="46.5021990" lon="3.2339310">
        <ele>301.4</ele>
        <time>2020-07-04T13:09:36Z</time>
      </trkpt>
      <trkpt lat="46.5021520" lon="3.2340870">
        <ele>301.4</ele>
        <time>2020-07-04T13:09:38Z</time>
      </trkpt>
      <trkpt lat="46.5020510" lon="3.2343670">
        <ele>301.4</ele>
        <time>2020-07-04T13:09:42Z</time>
      </trkpt>
      <trkpt lat="46.5020110" lon="3.2345060">
        <ele>301.2</ele>
        <time>2020-07-04T13:09:44Z</time>
      </trkpt>
      <trkpt lat="46.5019940" lon="3.2345800">
        <ele>301.2</ele>
        <time>2020-07-04T13:09:45Z</time>
      </trkpt>
      <trkpt lat="46.5019540" lon="3.2349140">
        <ele>301.0</ele>
        <time>2020-07-04T13:09:49Z</time>
      </trkpt>
      <trkpt lat="46.5019450" lon="3.2350880">
        <ele>301.0</ele>
        <time>2020-07-04T13:09:51Z</time>
      </trkpt>
      <trkpt lat="46.5019400" lon="3.2351730">
        <ele>300.8</ele>
        <time>2020-07-04T13:09:52Z</time>
      </trkpt>
      <trkpt lat="46.5019230" lon="3.2355140">
        <ele>300.6</ele>
        <time>2020-07-04T13:09:56Z</time>
      </trkpt>
      <trkpt lat="46.5019040" lon="3.2358740">
        <ele>299.4</ele>
        <time>2020-07-04T13:10:00Z</time>
      </trkpt>
      <trkpt lat="46.5018870" lon="3.2361580">
        <ele>298.6</ele>
        <time>2020-07-04T13:10:03Z</time>
      </trkpt>
      <trkpt lat="46.5018520" lon="3.2366250">
        <ele>297.2</ele>
        <time>2020-07-04T13:10:08Z</time>
      </trkpt>
      <trkpt lat="46.5018430" lon="3.2368140">
        <ele>296.8</ele>
        <time>2020-07-04T13:10:10Z</time>
      </trkpt>
      <trkpt lat="46.5018370" lon="3.2370120">
        <ele>296.8</ele>
        <time>2020-07-04T13:10:12Z</time>
      </trkpt>
      <trkpt lat="46.5018120" lon="3.2373990">
        <ele>296.6</ele>
        <time>2020-07-04T13:10:16Z</time>
      </trkpt>
      <trkpt lat="46.5017820" lon="3.2377870">
        <ele>295.4</ele>
        <time>2020-07-04T13:10:20Z</time>
      </trkpt>
      <trkpt lat="46.5017500" lon="3.2381960">
        <ele>294.0</ele>
        <time>2020-07-04T13:10:24Z</time>
      </trkpt>
      <trkpt lat="46.5017250" lon="3.2386280">
        <ele>292.8</ele>
        <time>2020-07-04T13:10:29Z</time>
      </trkpt>
      <trkpt lat="46.5017140" lon="3.2389040">
        <ele>291.8</ele>
        <time>2020-07-04T13:10:33Z</time>
      </trkpt>
      <trkpt lat="46.5017170" lon="3.2389700">
        <ele>291.6</ele>
        <time>2020-07-04T13:10:34Z</time>
      </trkpt>
      <trkpt lat="46.5017270" lon="3.2390350">
        <ele>291.8</ele>
        <time>2020-07-04T13:10:35Z</time>
      </trkpt>
      <trkpt lat="46.5017430" lon="3.2391000">
        <ele>291.6</ele>
        <time>2020-07-04T13:10:36Z</time>
      </trkpt>
      <trkpt lat="46.5018060" lon="3.2392150">
        <ele>291.4</ele>
        <time>2020-07-04T13:10:38Z</time>
      </trkpt>
      <trkpt lat="46.5018890" lon="3.2392970">
        <ele>291.2</ele>
        <time>2020-07-04T13:10:40Z</time>
      </trkpt>
      <trkpt lat="46.5020650" lon="3.2394310">
        <ele>290.4</ele>
        <time>2020-07-04T13:10:44Z</time>
      </trkpt>
      <trkpt lat="46.5021560" lon="3.2395240">
        <ele>289.2</ele>
        <time>2020-07-04T13:10:46Z</time>
      </trkpt>
      <trkpt lat="46.5023150" lon="3.2397650">
        <ele>288.6</ele>
        <time>2020-07-04T13:10:50Z</time>
      </trkpt>
      <trkpt lat="46.5023780" lon="3.2399090">
        <ele>288.6</ele>
        <time>2020-07-04T13:10:52Z</time>
      </trkpt>
      <trkpt lat="46.5025040" lon="3.2402650">
        <ele>288.4</ele>
        <time>2020-07-04T13:10:57Z</time>
      </trkpt>
      <trkpt lat="46.5025800" lon="3.2404560">
        <ele>288.6</ele>
        <time>2020-07-04T13:11:00Z</time>
      </trkpt>
      <trkpt lat="46.5026010" lon="3.2405110">
        <ele>288.6</ele>
        <time>2020-07-04T13:11:01Z</time>
      </trkpt>
      <trkpt lat="46.5026610" lon="3.2406670">
        <ele>288.8</ele>
        <time>2020-07-04T13:11:04Z</time>
      </trkpt>
      <trkpt lat="46.5027550" lon="3.2409120">
        <ele>289.6</ele>
        <time>2020-07-04T13:11:09Z</time>
      </trkpt>
      <trkpt lat="46.5028370" lon="3.2411590">
        <ele>290.8</ele>
        <time>2020-07-04T13:11:14Z</time>
      </trkpt>
      <trkpt lat="46.5029230" lon="3.2413970">
        <ele>291.4</ele>
        <time>2020-07-04T13:11:19Z</time>
      </trkpt>
      <trkpt lat="46.5029410" lon="3.2414430">
        <ele>291.6</ele>
        <time>2020-07-04T13:11:20Z</time>
      </trkpt>
      <trkpt lat="46.5030340" lon="3.2417010">
        <ele>292.4</ele>
        <time>2020-07-04T13:11:26Z</time>
      </trkpt>
      <trkpt lat="46.5031130" lon="3.2419180">
        <ele>293.4</ele>
        <time>2020-07-04T13:11:31Z</time>
      </trkpt>
      <trkpt lat="46.5031640" lon="3.2420440">
        <ele>293.4</ele>
        <time>2020-07-04T13:11:34Z</time>
      </trkpt>
      <trkpt lat="46.5031960" lon="3.2421310">
        <ele>294.0</ele>
        <time>2020-07-04T13:11:36Z</time>
      </trkpt>
      <trkpt lat="46.5033360" lon="3.2425200">
        <ele>295.4</ele>
        <time>2020-07-04T13:11:45Z</time>
      </trkpt>
      <trkpt lat="46.5033510" lon="3.2425660">
        <ele>295.6</ele>
        <time>2020-07-04T13:11:46Z</time>
      </trkpt>
      <trkpt lat="46.5035290" lon="3.2430660">
        <ele>296.8</ele>
        <time>2020-07-04T13:11:57Z</time>
      </trkpt>
      <trkpt lat="46.5035730" lon="3.2433390">
        <ele>297.2</ele>
        <time>2020-07-04T13:12:03Z</time>
      </trkpt>
      <trkpt lat="46.5034640" lon="3.2434550">
        <ele>297.4</ele>
        <time>2020-07-04T13:12:07Z</time>
      </trkpt>
      <trkpt lat="46.5032100" lon="3.2436100">
        <ele>297.2</ele>
        <time>2020-07-04T13:12:13Z</time>
      </trkpt>
      <trkpt lat="46.5031160" lon="3.2436670">
        <ele>297.0</ele>
        <time>2020-07-04T13:12:15Z</time>
      </trkpt>
      <trkpt lat="46.5027650" lon="3.2438870">
        <ele>296.6</ele>
        <time>2020-07-04T13:12:22Z</time>
      </trkpt>
      <trkpt lat="46.5026570" lon="3.2439590">
        <ele>296.0</ele>
        <time>2020-07-04T13:12:24Z</time>
      </trkpt>
      <trkpt lat="46.5023730" lon="3.2441330">
        <ele>295.6</ele>
        <time>2020-07-04T13:12:29Z</time>
      </trkpt>
      <trkpt lat="46.5022490" lon="3.2442110">
        <ele>295.2</ele>
        <time>2020-07-04T13:12:31Z</time>
      </trkpt>
      <trkpt lat="46.5021210" lon="3.2442890">
        <ele>294.8</ele>
        <time>2020-07-04T13:12:33Z</time>
      </trkpt>
      <trkpt lat="46.5019910" lon="3.2443680">
        <ele>294.2</ele>
        <time>2020-07-04T13:12:35Z</time>
      </trkpt>
      <trkpt lat="46.5018580" lon="3.2444510">
        <ele>294.0</ele>
        <time>2020-07-04T13:12:37Z</time>
      </trkpt>
      <trkpt lat="46.5017210" lon="3.2445420">
        <ele>293.0</ele>
        <time>2020-07-04T13:12:39Z</time>
      </trkpt>
      <trkpt lat="46.5015810" lon="3.2446360">
        <ele>292.4</ele>
        <time>2020-07-04T13:12:41Z</time>
      </trkpt>
      <trkpt lat="46.5014350" lon="3.2447350">
        <ele>292.0</ele>
        <time>2020-07-04T13:12:43Z</time>
      </trkpt>
      <trkpt lat="46.5012920" lon="3.2448320">
        <ele>291.2</ele>
        <time>2020-07-04T13:12:45Z</time>
      </trkpt>
      <trkpt lat="46.5009350" lon="3.2450840">
        <ele>289.0</ele>
        <time>2020-07-04T13:12:50Z</time>
      </trkpt>
      <trkpt lat="46.5007920" lon="3.2451840">
        <ele>288.0</ele>
        <time>2020-07-04T13:12:52Z</time>
      </trkpt>
      <trkpt lat="46.5007190" lon="3.2452340">
        <ele>287.6</ele>
        <time>2020-07-04T13:12:53Z</time>
      </trkpt>
      <trkpt lat="46.5002780" lon="3.2455210">
        <ele>285.6</ele>
        <time>2020-07-04T13:12:59Z</time>
      </trkpt>
      <trkpt lat="46.5002030" lon="3.2455750">
        <ele>285.4</ele>
        <time>2020-07-04T13:13:00Z</time>
      </trkpt>
      <trkpt lat="46.5001260" lon="3.2456290">
        <ele>285.0</ele>
        <time>2020-07-04T13:13:01Z</time>
      </trkpt>
      <trkpt lat="46.5000480" lon="3.2456830">
        <ele>284.4</ele>
        <time>2020-07-04T13:13:02Z</time>
      </trkpt>
      <trkpt lat="46.4998070" lon="3.2458410">
        <ele>283.8</ele>
        <time>2020-07-04T13:13:05Z</time>
      </trkpt>
      <trkpt lat="46.4995570" lon="3.2459910">
        <ele>282.8</ele>
        <time>2020-07-04T13:13:08Z</time>
      </trkpt>
      <trkpt lat="46.4992740" lon="3.2461970">
        <ele>280.6</ele>
        <time>2020-07-04T13:13:12Z</time>
      </trkpt>
      <trkpt lat="46.4991430" lon="3.2462870">
        <ele>280.6</ele>
        <time>2020-07-04T13:13:14Z</time>
      </trkpt>
      <trkpt lat="46.4989710" lon="3.2464030">
        <ele>280.4</ele>
        <time>2020-07-04T13:13:17Z</time>
      </trkpt>
      <trkpt lat="46.4988660" lon="3.2464790">
        <ele>280.4</ele>
        <time>2020-07-04T13:13:19Z</time>
      </trkpt>
      <trkpt lat="46.4988160" lon="3.2465120">
        <ele>280.4</ele>
        <time>2020-07-04T13:13:20Z</time>
      </trkpt>
      <trkpt lat="46.4986780" lon="3.2466060">
        <ele>281.0</ele>
        <time>2020-07-04T13:13:23Z</time>
      </trkpt>
      <trkpt lat="46.4984440" lon="3.2467670">
        <ele>283.0</ele>
        <time>2020-07-04T13:13:29Z</time>
      </trkpt>
      <trkpt lat="46.4984090" lon="3.2467910">
        <ele>283.4</ele>
        <time>2020-07-04T13:13:30Z</time>
      </trkpt>
      <trkpt lat="46.4981410" lon="3.2469500">
        <ele>285.2</ele>
        <time>2020-07-04T13:13:37Z</time>
      </trkpt>
      <trkpt lat="46.4981050" lon="3.2469750">
        <ele>285.6</ele>
        <time>2020-07-04T13:13:38Z</time>
      </trkpt>
      <trkpt lat="46.4978900" lon="3.2471400">
        <ele>286.2</ele>
        <time>2020-07-04T13:13:44Z</time>
      </trkpt>
      <trkpt lat="46.4975290" lon="3.2473940">
        <ele>287.0</ele>
        <time>2020-07-04T13:13:52Z</time>
      </trkpt>
      <trkpt lat="46.4971190" lon="3.2476670">
        <ele>287.2</ele>
        <time>2020-07-04T13:14:00Z</time>
      </trkpt>
      <trkpt lat="46.4970670" lon="3.2477060">
        <ele>287.2</ele>
        <time>2020-07-04T13:14:01Z</time>
      </trkpt>
      <trkpt lat="46.4967400" lon="3.2479430">
        <ele>286.6</ele>
        <time>2020-07-04T13:14:07Z</time>
      </trkpt>
      <trkpt lat="46.4962990" lon="3.2482070">
        <ele>284.8</ele>
        <time>2020-07-04T13:14:14Z</time>
      </trkpt>
      <trkpt lat="46.4957780" lon="3.2485250">
        <ele>283.4</ele>
        <time>2020-07-04T13:14:22Z</time>
      </trkpt>
      <trkpt lat="46.4953520" lon="3.2488230">
        <ele>282.6</ele>
        <time>2020-07-04T13:14:29Z</time>
      </trkpt>
      <trkpt lat="46.4949880" lon="3.2490820">
        <ele>282.0</ele>
        <time>2020-07-04T13:14:36Z</time>
      </trkpt>
      <trkpt lat="46.4946960" lon="3.2492870">
        <ele>281.6</ele>
        <time>2020-07-04T13:14:43Z</time>
      </trkpt>
      <trkpt lat="46.4946570" lon="3.2493170">
        <ele>281.8</ele>
        <time>2020-07-04T13:14:44Z</time>
      </trkpt>
      <trkpt lat="46.4944020" lon="3.2494900">
        <ele>281.4</ele>
        <time>2020-07-04T13:14:49Z</time>
      </trkpt>
      <trkpt lat="46.4943420" lon="3.2495310">
        <ele>281.4</ele>
        <time>2020-07-04T13:14:50Z</time>
      </trkpt>
      <trkpt lat="46.4939730" lon="3.2497430">
        <ele>281.4</ele>
        <time>2020-07-04T13:14:55Z</time>
      </trkpt>
      <trkpt lat="46.4936170" lon="3.2499680">
        <ele>280.6</ele>
        <time>2020-07-04T13:15:00Z</time>
      </trkpt>
      <trkpt lat="46.4935240" lon="3.2500070">
        <ele>280.6</ele>
        <time>2020-07-04T13:15:01Z</time>
      </trkpt>
      <trkpt lat="46.4931230" lon="3.2502190">
        <ele>279.4</ele>
        <time>2020-07-04T13:15:06Z</time>
      </trkpt>
      <trkpt lat="46.4930520" lon="3.2502830">
        <ele>279.0</ele>
        <time>2020-07-04T13:15:07Z</time>
      </trkpt>
      <trkpt lat="46.4926380" lon="3.2506370">
        <ele>276.8</ele>
        <time>2020-07-04T13:15:13Z</time>
      </trkpt>
      <trkpt lat="46.4921700" lon="3.2509650">
        <ele>275.4</ele>
        <time>2020-07-04T13:15:19Z</time>
      </trkpt>
      <trkpt lat="46.4920200" lon="3.2510680">
        <ele>275.0</ele>
        <time>2020-07-04T13:15:21Z</time>
      </trkpt>
      <trkpt lat="46.4919430" lon="3.2511200">
        <ele>274.8</ele>
        <time>2020-07-04T13:15:22Z</time>
      </trkpt>
      <trkpt lat="46.4914920" lon="3.2514250">
        <ele>272.6</ele>
        <time>2020-07-04T13:15:28Z</time>
      </trkpt>
      <trkpt lat="46.4914200" lon="3.2514760">
        <ele>272.0</ele>
        <time>2020-07-04T13:15:29Z</time>
      </trkpt>
      <trkpt lat="46.4909180" lon="3.2518260">
        <ele>270.2</ele>
        <time>2020-07-04T13:15:36Z</time>
      </trkpt>
      <trkpt lat="46.4903790" lon="3.2521870">
        <ele>269.4</ele>
        <time>2020-07-04T13:15:44Z</time>
      </trkpt>
      <trkpt lat="46.4903150" lon="3.2522290">
        <ele>269.2</ele>
        <time>2020-07-04T13:15:45Z</time>
      </trkpt>
      <trkpt lat="46.4898270" lon="3.2525680">
        <ele>269.6</ele>
        <time>2020-07-04T13:15:53Z</time>
      </trkpt>
      <trkpt lat="46.4897690" lon="3.2526070">
        <ele>269.6</ele>
        <time>2020-07-04T13:15:54Z</time>
      </trkpt>
      <trkpt lat="46.4895340" lon="3.2527700">
        <ele>270.0</ele>
        <time>2020-07-04T13:15:58Z</time>
      </trkpt>
      <trkpt lat="46.4892940" lon="3.2529410">
        <ele>270.4</ele>
        <time>2020-07-04T13:16:02Z</time>
      </trkpt>
      <trkpt lat="46.4892360" lon="3.2529850">
        <ele>270.4</ele>
        <time>2020-07-04T13:16:03Z</time>
      </trkpt>
      <trkpt lat="46.4889300" lon="3.2531930">
        <ele>270.4</ele>
        <time>2020-07-04T13:16:08Z</time>
      </trkpt>
      <trkpt lat="46.4887990" lon="3.2532840">
        <ele>270.4</ele>
        <time>2020-07-04T13:16:10Z</time>
      </trkpt>
      <trkpt lat="46.4887310" lon="3.2533310">
        <ele>270.4</ele>
        <time>2020-07-04T13:16:11Z</time>
      </trkpt>
      <trkpt lat="46.4885200" lon="3.2534820">
        <ele>270.0</ele>
        <time>2020-07-04T13:16:14Z</time>
      </trkpt>
      <trkpt lat="46.4883750" lon="3.2535850">
        <ele>269.4</ele>
        <time>2020-07-04T13:16:16Z</time>
      </trkpt>
      <trkpt lat="46.4883020" lon="3.2536390">
        <ele>269.2</ele>
        <time>2020-07-04T13:16:17Z</time>
      </trkpt>
      <trkpt lat="46.4880010" lon="3.2538580">
        <ele>268.0</ele>
        <time>2020-07-04T13:16:21Z</time>
      </trkpt>
      <trkpt lat="46.4878400" lon="3.2539650">
        <ele>267.2</ele>
        <time>2020-07-04T13:16:23Z</time>
      </trkpt>
      <trkpt lat="46.4874190" lon="3.2542430">
        <ele>263.4</ele>
        <time>2020-07-04T13:16:28Z</time>
      </trkpt>
      <trkpt lat="46.4871710" lon="3.2544110">
        <ele>261.8</ele>
        <time>2020-07-04T13:16:31Z</time>
      </trkpt>
      <trkpt lat="46.4870060" lon="3.2545210">
        <ele>260.0</ele>
        <time>2020-07-04T13:16:33Z</time>
      </trkpt>
      <trkpt lat="46.4864810" lon="3.2548870">
        <ele>258.2</ele>
        <time>2020-07-04T13:16:40Z</time>
      </trkpt>
      <trkpt lat="46.4859630" lon="3.2552330">
        <ele>257.8</ele>
        <time>2020-07-04T13:16:48Z</time>
      </trkpt>
      <trkpt lat="46.4856140" lon="3.2554560">
        <ele>257.8</ele>
        <time>2020-07-04T13:16:54Z</time>
      </trkpt>
      <trkpt lat="46.4855610" lon="3.2554900">
        <ele>257.8</ele>
        <time>2020-07-04T13:16:55Z</time>
      </trkpt>
      <trkpt lat="46.4854100" lon="3.2555860">
        <ele>258.0</ele>
        <time>2020-07-04T13:16:58Z</time>
      </trkpt>
      <trkpt lat="46.4852330" lon="3.2557010">
        <ele>258.2</ele>
        <time>2020-07-04T13:17:02Z</time>
      </trkpt>
      <trkpt lat="46.4851530" lon="3.2557540">
        <ele>259.0</ele>
        <time>2020-07-04T13:17:04Z</time>
      </trkpt>
      <trkpt lat="46.4849170" lon="3.2559200">
        <ele>260.8</ele>
        <time>2020-07-04T13:17:10Z</time>
      </trkpt>
      <trkpt lat="46.4848440" lon="3.2559750">
        <ele>261.4</ele>
        <time>2020-07-04T13:17:12Z</time>
      </trkpt>
      <trkpt lat="46.4847750" lon="3.2560270">
        <ele>261.6</ele>
        <time>2020-07-04T13:17:14Z</time>
      </trkpt>
      <trkpt lat="46.4845680" lon="3.2561730">
        <ele>263.2</ele>
        <time>2020-07-04T13:17:20Z</time>
      </trkpt>
      <trkpt lat="46.4844380" lon="3.2562650">
        <ele>264.4</ele>
        <time>2020-07-04T13:17:24Z</time>
      </trkpt>
      <trkpt lat="46.4843770" lon="3.2563100">
        <ele>265.0</ele>
        <time>2020-07-04T13:17:26Z</time>
      </trkpt>
      <trkpt lat="46.4841620" lon="3.2564440">
        <ele>266.8</ele>
        <time>2020-07-04T13:17:33Z</time>
      </trkpt>
      <trkpt lat="46.4838350" lon="3.2566730">
        <ele>268.4</ele>
        <time>2020-07-04T13:17:44Z</time>
      </trkpt>
      <trkpt lat="46.4837750" lon="3.2567140">
        <ele>268.6</ele>
        <time>2020-07-04T13:17:46Z</time>
      </trkpt>
      <trkpt lat="46.4834690" lon="3.2569250">
        <ele>269.8</ele>
        <time>2020-07-04T13:17:56Z</time>
      </trkpt>
      <trkpt lat="46.4834110" lon="3.2569650">
        <ele>270.0</ele>
        <time>2020-07-04T13:17:58Z</time>
      </trkpt>
      <trkpt lat="46.4833190" lon="3.2570200">
        <ele>270.6</ele>
        <time>2020-07-04T13:18:01Z</time>
      </trkpt>
      <trkpt lat="46.4831130" lon="3.2571340">
        <ele>271.2</ele>
        <time>2020-07-04T13:18:07Z</time>
      </trkpt>
      <trkpt lat="46.4827290" lon="3.2574070">
        <ele>272.6</ele>
        <time>2020-07-04T13:18:18Z</time>
      </trkpt>
      <trkpt lat="46.4823170" lon="3.2577060">
        <ele>272.8</ele>
        <time>2020-07-04T13:18:28Z</time>
      </trkpt>
      <trkpt lat="46.4821790" lon="3.2578040">
        <ele>272.8</ele>
        <time>2020-07-04T13:18:31Z</time>
      </trkpt>
      <trkpt lat="46.4818350" lon="3.2580330">
        <ele>272.0</ele>
        <time>2020-07-04T13:18:38Z</time>
      </trkpt>
      <trkpt lat="46.4815740" lon="3.2582050">
        <ele>271.6</ele>
        <time>2020-07-04T13:18:43Z</time>
      </trkpt>
      <trkpt lat="46.4811900" lon="3.2584720">
        <ele>271.2</ele>
        <time>2020-07-04T13:18:50Z</time>
      </trkpt>
      <trkpt lat="46.4811350" lon="3.2585120">
        <ele>271.0</ele>
        <time>2020-07-04T13:18:51Z</time>
      </trkpt>
      <trkpt lat="46.4807430" lon="3.2587860">
        <ele>270.2</ele>
        <time>2020-07-04T13:18:58Z</time>
      </trkpt>
      <trkpt lat="46.4803970" lon="3.2590200">
        <ele>269.4</ele>
        <time>2020-07-04T13:19:04Z</time>
      </trkpt>
      <trkpt lat="46.4798820" lon="3.2593760">
        <ele>268.8</ele>
        <time>2020-07-04T13:19:13Z</time>
      </trkpt>
      <trkpt lat="46.4797210" lon="3.2594860">
        <ele>268.8</ele>
        <time>2020-07-04T13:19:16Z</time>
      </trkpt>
      <trkpt lat="46.4795670" lon="3.2595850">
        <ele>268.8</ele>
        <time>2020-07-04T13:19:19Z</time>
      </trkpt>
      <trkpt lat="46.4792230" lon="3.2598290">
        <ele>269.2</ele>
        <time>2020-07-04T13:19:26Z</time>
      </trkpt>
      <trkpt lat="46.4790460" lon="3.2599530">
        <ele>269.6</ele>
        <time>2020-07-04T13:19:30Z</time>
      </trkpt>
      <trkpt lat="46.4786950" lon="3.2602010">
        <ele>270.6</ele>
        <time>2020-07-04T13:19:38Z</time>
      </trkpt>
      <trkpt lat="46.4784150" lon="3.2603880">
        <ele>271.0</ele>
        <time>2020-07-04T13:19:45Z</time>
      </trkpt>
      <trkpt lat="46.4781680" lon="3.2605510">
        <ele>272.2</ele>
        <time>2020-07-04T13:19:51Z</time>
      </trkpt>
      <trkpt lat="46.4778080" lon="3.2607910">
        <ele>272.6</ele>
        <time>2020-07-04T13:20:00Z</time>
      </trkpt>
      <trkpt lat="46.4777270" lon="3.2608450">
        <ele>272.6</ele>
        <time>2020-07-04T13:20:02Z</time>
      </trkpt>
      <trkpt lat="46.4774020" lon="3.2610690">
        <ele>273.8</ele>
        <time>2020-07-04T13:20:10Z</time>
      </trkpt>
      <trkpt lat="46.4770360" lon="3.2613150">
        <ele>274.6</ele>
        <time>2020-07-04T13:20:19Z</time>
      </trkpt>
      <trkpt lat="46.4768370" lon="3.2614470">
        <ele>275.0</ele>
        <time>2020-07-04T13:20:24Z</time>
      </trkpt>
      <trkpt lat="46.4765260" lon="3.2616530">
        <ele>275.6</ele>
        <time>2020-07-04T13:20:32Z</time>
      </trkpt>
      <trkpt lat="46.4760810" lon="3.2619550">
        <ele>277.2</ele>
        <time>2020-07-04T13:20:44Z</time>
      </trkpt>
      <trkpt lat="46.4760070" lon="3.2620090">
        <ele>277.4</ele>
        <time>2020-07-04T13:20:46Z</time>
      </trkpt>
      <trkpt lat="46.4755950" lon="3.2622930">
        <ele>278.6</ele>
        <time>2020-07-04T13:20:57Z</time>
      </trkpt>
      <trkpt lat="46.4755230" lon="3.2623460">
        <ele>278.4</ele>
        <time>2020-07-04T13:20:59Z</time>
      </trkpt>
      <trkpt lat="46.4752600" lon="3.2625280">
        <ele>279.2</ele>
        <time>2020-07-04T13:21:06Z</time>
      </trkpt>
      <trkpt lat="46.4750450" lon="3.2626700">
        <ele>280.4</ele>
        <time>2020-07-04T13:21:12Z</time>
      </trkpt>
      <trkpt lat="46.4749730" lon="3.2627220">
        <ele>280.6</ele>
        <time>2020-07-04T13:21:14Z</time>
      </trkpt>
      <trkpt lat="46.4746160" lon="3.2629570">
        <ele>281.8</ele>
        <time>2020-07-04T13:21:24Z</time>
      </trkpt>
      <trkpt lat="46.4741340" lon="3.2632860">
        <ele>283.2</ele>
        <time>2020-07-04T13:21:36Z</time>
      </trkpt>
      <trkpt lat="46.4740900" lon="3.2633090">
        <ele>283.4</ele>
        <time>2020-07-04T13:21:37Z</time>
      </trkpt>
      <trkpt lat="46.4736170" lon="3.2635100">
        <ele>284.2</ele>
        <time>2020-07-04T13:21:48Z</time>
      </trkpt>
      <trkpt lat="46.4731310" lon="3.2635950">
        <ele>284.2</ele>
        <time>2020-07-04T13:21:58Z</time>
      </trkpt>
      <trkpt lat="46.4730820" lon="3.2635910">
        <ele>284.2</ele>
        <time>2020-07-04T13:21:59Z</time>
      </trkpt>
      <trkpt lat="46.4726430" lon="3.2635680">
        <ele>284.0</ele>
        <time>2020-07-04T13:22:07Z</time>
      </trkpt>
      <trkpt lat="46.4724800" lon="3.2635520">
        <ele>283.8</ele>
        <time>2020-07-04T13:22:10Z</time>
      </trkpt>
      <trkpt lat="46.4720130" lon="3.2635020">
        <ele>283.2</ele>
        <time>2020-07-04T13:22:18Z</time>
      </trkpt>
      <trkpt lat="46.4719470" lon="3.2634960">
        <ele>283.0</ele>
        <time>2020-07-04T13:22:19Z</time>
      </trkpt>
      <trkpt lat="46.4718100" lon="3.2634800">
        <ele>282.6</ele>
        <time>2020-07-04T13:22:21Z</time>
      </trkpt>
      <trkpt lat="46.4715110" lon="3.2634500">
        <ele>282.4</ele>
        <time>2020-07-04T13:22:25Z</time>
      </trkpt>
      <trkpt lat="46.4713500" lon="3.2634320">
        <ele>282.0</ele>
        <time>2020-07-04T13:22:27Z</time>
      </trkpt>
      <trkpt lat="46.4711870" lon="3.2634130">
        <ele>281.2</ele>
        <time>2020-07-04T13:22:29Z</time>
      </trkpt>
      <trkpt lat="46.4710270" lon="3.2633880">
        <ele>280.2</ele>
        <time>2020-07-04T13:22:31Z</time>
      </trkpt>
      <trkpt lat="46.4707890" lon="3.2633480">
        <ele>278.6</ele>
        <time>2020-07-04T13:22:34Z</time>
      </trkpt>
      <trkpt lat="46.4705590" lon="3.2633160">
        <ele>277.2</ele>
        <time>2020-07-04T13:22:37Z</time>
      </trkpt>
      <trkpt lat="46.4702140" lon="3.2632690">
        <ele>274.0</ele>
        <time>2020-07-04T13:22:42Z</time>
      </trkpt>
      <trkpt lat="46.4700320" lon="3.2632230">
        <ele>272.4</ele>
        <time>2020-07-04T13:22:46Z</time>
      </trkpt>
      <trkpt lat="46.4699220" lon="3.2631950">
        <ele>271.8</ele>
        <time>2020-07-04T13:22:51Z</time>
      </trkpt>
      <trkpt lat="46.4699080" lon="3.2631570">
        <ele>271.6</ele>
        <time>2020-07-04T13:22:56Z</time>
      </trkpt>
      <trkpt lat="46.4699230" lon="3.2631450">
        <ele>271.4</ele>
        <time>2020-07-04T13:23:10Z</time>
      </trkpt>
      <trkpt lat="46.4699260" lon="3.2631420">
        <ele>271.6</ele>
        <time>2020-07-04T13:23:17Z</time>
      </trkpt>
      <trkpt lat="46.4699330" lon="3.2631400">
        <ele>272.0</ele>
        <time>2020-07-04T13:23:32Z</time>
      </trkpt>
      <trkpt lat="46.4699380" lon="3.2631380">
        <ele>271.8</ele>
        <time>2020-07-04T13:23:38Z</time>
      </trkpt>
      <trkpt lat="46.4699390" lon="3.2631380">
        <ele>272.0</ele>
        <time>2020-07-04T13:23:40Z</time>
      </trkpt>
      <trkpt lat="46.4699460" lon="3.2631390">
        <ele>271.8</ele>
        <time>2020-07-04T13:23:54Z</time>
      </trkpt>
      <trkpt lat="46.4699470" lon="3.2631390">
        <ele>272.0</ele>
        <time>2020-07-04T13:23:55Z</time>
      </trkpt>
      <trkpt lat="46.4699480" lon="3.2631400">
        <ele>272.0</ele>
        <time>2020-07-04T13:23:57Z</time>
      </trkpt>
      <trkpt lat="46.4699500" lon="3.2631400">
        <ele>272.0</ele>
        <time>2020-07-04T13:24:02Z</time>
      </trkpt>
      <trkpt lat="46.4699470" lon="3.2631420">
        <ele>271.8</ele>
        <time>2020-07-04T13:24:05Z</time>
      </trkpt>
      <trkpt lat="46.4699190" lon="3.2631000">
        <ele>271.6</ele>
        <time>2020-07-04T13:24:10Z</time>
      </trkpt>
      <trkpt lat="46.4699020" lon="3.2630550">
        <ele>271.4</ele>
        <time>2020-07-04T13:24:12Z</time>
      </trkpt>
      <trkpt lat="46.4698850" lon="3.2629910">
        <ele>271.4</ele>
        <time>2020-07-04T13:24:14Z</time>
      </trkpt>
      <trkpt lat="46.4698690" lon="3.2629070">
        <ele>271.0</ele>
        <time>2020-07-04T13:24:16Z</time>
      </trkpt>
      <trkpt lat="46.4698550" lon="3.2628040">
        <ele>270.8</ele>
        <time>2020-07-04T13:24:18Z</time>
      </trkpt>
      <trkpt lat="46.4698460" lon="3.2626750">
        <ele>270.4</ele>
        <time>2020-07-04T13:24:20Z</time>
      </trkpt>
      <trkpt lat="46.4698430" lon="3.2623800">
        <ele>269.0</ele>
        <time>2020-07-04T13:24:24Z</time>
      </trkpt>
      <trkpt lat="46.4698350" lon="3.2621490">
        <ele>268.4</ele>
        <time>2020-07-04T13:24:28Z</time>
      </trkpt>
      <trkpt lat="46.4698240" lon="3.2621140">
        <ele>268.6</ele>
        <time>2020-07-04T13:24:29Z</time>
      </trkpt>
      <trkpt lat="46.4698010" lon="3.2620450">
        <ele>268.4</ele>
        <time>2020-07-04T13:24:34Z</time>
      </trkpt>
      <trkpt lat="46.4697960" lon="3.2620990">
        <ele>268.2</ele>
        <time>2020-07-04T13:24:38Z</time>
      </trkpt>
      <trkpt lat="46.4697860" lon="3.2621750">
        <ele>268.2</ele>
        <time>2020-07-04T13:24:40Z</time>
      </trkpt>
      <trkpt lat="46.4697710" lon="3.2622630">
        <ele>268.0</ele>
        <time>2020-07-04T13:24:42Z</time>
      </trkpt>
      <trkpt lat="46.4696960" lon="3.2625240">
        <ele>268.0</ele>
        <time>2020-07-04T13:24:47Z</time>
      </trkpt>
      <trkpt lat="46.4695570" lon="3.2628620">
        <ele>267.6</ele>
        <time>2020-07-04T13:24:53Z</time>
      </trkpt>
      <trkpt lat="46.4695380" lon="3.2630040">
        <ele>267.4</ele>
        <time>2020-07-04T13:24:55Z</time>
      </trkpt>
      <trkpt lat="46.4695480" lon="3.2631430">
        <ele>267.0</ele>
        <time>2020-07-04T13:24:57Z</time>
      </trkpt>
      <trkpt lat="46.4695390" lon="3.2633020">
        <ele>266.6</ele>
        <time>2020-07-04T13:24:59Z</time>
      </trkpt>
      <trkpt lat="46.4695410" lon="3.2634430">
        <ele>266.4</ele>
        <time>2020-07-04T13:25:01Z</time>
      </trkpt>
      <trkpt lat="46.4695290" lon="3.2635210">
        <ele>266.2</ele>
        <time>2020-07-04T13:25:02Z</time>
      </trkpt>
      <trkpt lat="46.4695030" lon="3.2636910">
        <ele>265.6</ele>
        <time>2020-07-04T13:25:04Z</time>
      </trkpt>
      <trkpt lat="46.4695110" lon="3.2637900">
        <ele>265.4</ele>
        <time>2020-07-04T13:25:05Z</time>
      </trkpt>
      <trkpt lat="46.4694970" lon="3.2641810">
        <ele>263.8</ele>
        <time>2020-07-04T13:25:09Z</time>
      </trkpt>
      <trkpt lat="46.4694890" lon="3.2643700">
        <ele>262.6</ele>
        <time>2020-07-04T13:25:11Z</time>
      </trkpt>
      <trkpt lat="46.4694340" lon="3.2644810">
        <ele>261.6</ele>
        <time>2020-07-04T13:25:13Z</time>
      </trkpt>
      <trkpt lat="46.4693310" lon="3.2645290">
        <ele>260.8</ele>
        <time>2020-07-04T13:25:15Z</time>
      </trkpt>
      <trkpt lat="46.4692650" lon="3.2645370">
        <ele>260.2</ele>
        <time>2020-07-04T13:25:16Z</time>
      </trkpt>
      <trkpt lat="46.4691940" lon="3.2645330">
        <ele>260.0</ele>
        <time>2020-07-04T13:25:17Z</time>
      </trkpt>
      <trkpt lat="46.4691160" lon="3.2645300">
        <ele>259.6</ele>
        <time>2020-07-04T13:25:18Z</time>
      </trkpt>
      <trkpt lat="46.4689600" lon="3.2645310">
        <ele>259.6</ele>
        <time>2020-07-04T13:25:20Z</time>
      </trkpt>
      <trkpt lat="46.4688800" lon="3.2645340">
        <ele>259.2</ele>
        <time>2020-07-04T13:25:21Z</time>
      </trkpt>
      <trkpt lat="46.4687110" lon="3.2645390">
        <ele>258.0</ele>
        <time>2020-07-04T13:25:23Z</time>
      </trkpt>
      <trkpt lat="46.4685290" lon="3.2645330">
        <ele>256.6</ele>
        <time>2020-07-04T13:25:25Z</time>
      </trkpt>
      <trkpt lat="46.4684360" lon="3.2645340">
        <ele>256.2</ele>
        <time>2020-07-04T13:25:26Z</time>
      </trkpt>
      <trkpt lat="46.4683370" lon="3.2645490">
        <ele>255.2</ele>
        <time>2020-07-04T13:25:27Z</time>
      </trkpt>
      <trkpt lat="46.4682370" lon="3.2645710">
        <ele>254.4</ele>
        <time>2020-07-04T13:25:28Z</time>
      </trkpt>
      <trkpt lat="46.4679320" lon="3.2646760">
        <ele>252.4</ele>
        <time>2020-07-04T13:25:31Z</time>
      </trkpt>
      <trkpt lat="46.4678270" lon="3.2647180">
        <ele>251.6</ele>
        <time>2020-07-04T13:25:32Z</time>
      </trkpt>
      <trkpt lat="46.4675190" lon="3.2648220">
        <ele>248.4</ele>
        <time>2020-07-04T13:25:35Z</time>
      </trkpt>
      <trkpt lat="46.4670280" lon="3.2649710">
        <ele>243.8</ele>
        <time>2020-07-04T13:25:40Z</time>
      </trkpt>
      <trkpt lat="46.4669340" lon="3.2649970">
        <ele>243.2</ele>
        <time>2020-07-04T13:25:41Z</time>
      </trkpt>
      <trkpt lat="46.4664350" lon="3.2651270">
        <ele>242.2</ele>
        <time>2020-07-04T13:25:47Z</time>
      </trkpt>
      <trkpt lat="46.4663020" lon="3.2651270">
        <ele>242.4</ele>
        <time>2020-07-04T13:25:49Z</time>
      </trkpt>
      <trkpt lat="46.4661390" lon="3.2650800">
        <ele>242.4</ele>
        <time>2020-07-04T13:25:52Z</time>
      </trkpt>
      <trkpt lat="46.4660510" lon="3.2650370">
        <ele>242.8</ele>
        <time>2020-07-04T13:25:54Z</time>
      </trkpt>
      <trkpt lat="46.4660120" lon="3.2650170">
        <ele>243.0</ele>
        <time>2020-07-04T13:25:55Z</time>
      </trkpt>
      <trkpt lat="46.4659070" lon="3.2649500">
        <ele>244.6</ele>
        <time>2020-07-04T13:25:58Z</time>
      </trkpt>
      <trkpt lat="46.4657930" lon="3.2648720">
        <ele>245.4</ele>
        <time>2020-07-04T13:26:03Z</time>
      </trkpt>
      <trkpt lat="46.4656780" lon="3.2647550">
        <ele>247.8</ele>
        <time>2020-07-04T13:26:10Z</time>
      </trkpt>
      <trkpt lat="46.4656240" lon="3.2647050">
        <ele>248.6</ele>
        <time>2020-07-04T13:26:13Z</time>
      </trkpt>
      <trkpt lat="46.4656030" lon="3.2646910">
        <ele>249.0</ele>
        <time>2020-07-04T13:26:14Z</time>
      </trkpt>
      <trkpt lat="46.4654120" lon="3.2645640">
        <ele>250.2</ele>
        <time>2020-07-04T13:26:22Z</time>
      </trkpt>
      <trkpt lat="46.4653380" lon="3.2645090">
        <ele>251.2</ele>
        <time>2020-07-04T13:26:25Z</time>
      </trkpt>
      <trkpt lat="46.4653110" lon="3.2644890">
        <ele>251.6</ele>
        <time>2020-07-04T13:26:26Z</time>
      </trkpt>
      <trkpt lat="46.4651540" lon="3.2643460">
        <ele>252.4</ele>
        <time>2020-07-04T13:26:33Z</time>
      </trkpt>
      <trkpt lat="46.4651140" lon="3.2643090">
        <ele>253.0</ele>
        <time>2020-07-04T13:26:35Z</time>
      </trkpt>
      <trkpt lat="46.4650350" lon="3.2641920">
        <ele>254.0</ele>
        <time>2020-07-04T13:26:40Z</time>
      </trkpt>
      <trkpt lat="46.4649360" lon="3.2640460">
        <ele>255.4</ele>
        <time>2020-07-04T13:26:46Z</time>
      </trkpt>
      <trkpt lat="46.4648670" lon="3.2639000">
        <ele>255.8</ele>
        <time>2020-07-04T13:26:51Z</time>
      </trkpt>
      <trkpt lat="46.4648370" lon="3.2638450">
        <ele>256.2</ele>
        <time>2020-07-04T13:26:53Z</time>
      </trkpt>
      <trkpt lat="46.4646860" lon="3.2636000">
        <ele>258.4</ele>
        <time>2020-07-04T13:27:02Z</time>
      </trkpt>
      <trkpt lat="46.4644970" lon="3.2633650">
        <ele>259.4</ele>
        <time>2020-07-04T13:27:12Z</time>
      </trkpt>
      <trkpt lat="46.4644750" lon="3.2633440">
        <ele>259.4</ele>
        <time>2020-07-04T13:27:13Z</time>
      </trkpt>
      <trkpt lat="46.4642650" lon="3.2632020">
        <ele>260.4</ele>
        <time>2020-07-04T13:27:22Z</time>
      </trkpt>
      <trkpt lat="46.4642430" lon="3.2631930">
        <ele>260.6</ele>
        <time>2020-07-04T13:27:23Z</time>
      </trkpt>
      <trkpt lat="46.4640220" lon="3.2631560">
        <ele>261.8</ele>
        <time>2020-07-04T13:27:33Z</time>
      </trkpt>
      <trkpt lat="46.4639520" lon="3.2631640">
        <ele>262.0</ele>
        <time>2020-07-04T13:27:36Z</time>
      </trkpt>
      <trkpt lat="46.4638260" lon="3.2632140">
        <ele>262.6</ele>
        <time>2020-07-04T13:27:42Z</time>
      </trkpt>
      <trkpt lat="46.4637850" lon="3.2632290">
        <ele>262.6</ele>
        <time>2020-07-04T13:27:44Z</time>
      </trkpt>
      <trkpt lat="46.4636740" lon="3.2632680">
        <ele>263.8</ele>
        <time>2020-07-04T13:27:49Z</time>
      </trkpt>
      <trkpt lat="46.4635830" lon="3.2632980">
        <ele>264.0</ele>
        <time>2020-07-04T13:27:53Z</time>
      </trkpt>
      <trkpt lat="46.4634460" lon="3.2633500">
        <ele>265.2</ele>
        <time>2020-07-04T13:27:59Z</time>
      </trkpt>
      <trkpt lat="46.4633550" lon="3.2633880">
        <ele>265.8</ele>
        <time>2020-07-04T13:28:03Z</time>
      </trkpt>
      <trkpt lat="46.4633080" lon="3.2634120">
        <ele>266.0</ele>
        <time>2020-07-04T13:28:05Z</time>
      </trkpt>
      <trkpt lat="46.4631590" lon="3.2634590">
        <ele>267.2</ele>
        <time>2020-07-04T13:28:12Z</time>
      </trkpt>
      <trkpt lat="46.4631200" lon="3.2634780">
        <ele>267.8</ele>
        <time>2020-07-04T13:28:14Z</time>
      </trkpt>
      <trkpt lat="46.4630260" lon="3.2635170">
        <ele>268.4</ele>
        <time>2020-07-04T13:28:19Z</time>
      </trkpt>
      <trkpt lat="46.4629120" lon="3.2635650">
        <ele>269.4</ele>
        <time>2020-07-04T13:28:25Z</time>
      </trkpt>
      <trkpt lat="46.4628730" lon="3.2635730">
        <ele>269.6</ele>
        <time>2020-07-04T13:28:27Z</time>
      </trkpt>
      <trkpt lat="46.4627310" lon="3.2636260">
        <ele>270.8</ele>
        <time>2020-07-04T13:28:34Z</time>
      </trkpt>
      <trkpt lat="46.4627100" lon="3.2636330">
        <ele>271.0</ele>
        <time>2020-07-04T13:28:35Z</time>
      </trkpt>
      <trkpt lat="46.4625210" lon="3.2636590">
        <ele>272.0</ele>
        <time>2020-07-04T13:28:44Z</time>
      </trkpt>
      <trkpt lat="46.4625030" lon="3.2636560">
        <ele>272.2</ele>
        <time>2020-07-04T13:28:45Z</time>
      </trkpt>
      <trkpt lat="46.4623710" lon="3.2636280">
        <ele>273.0</ele>
        <time>2020-07-04T13:28:52Z</time>
      </trkpt>
      <trkpt lat="46.4622900" lon="3.2636100">
        <ele>273.4</ele>
        <time>2020-07-04T13:28:56Z</time>
      </trkpt>
      <trkpt lat="46.4622120" lon="3.2635800">
        <ele>274.2</ele>
        <time>2020-07-04T13:29:00Z</time>
      </trkpt>
      <trkpt lat="46.4621190" lon="3.2635480">
        <ele>274.8</ele>
        <time>2020-07-04T13:29:05Z</time>
      </trkpt>
      <trkpt lat="46.4621010" lon="3.2635390">
        <ele>275.0</ele>
        <time>2020-07-04T13:29:06Z</time>
      </trkpt>
      <trkpt lat="46.4620020" lon="3.2634480">
        <ele>276.0</ele>
        <time>2020-07-04T13:29:12Z</time>
      </trkpt>
      <trkpt lat="46.4619680" lon="3.2634290">
        <ele>276.4</ele>
        <time>2020-07-04T13:29:14Z</time>
      </trkpt>
      <trkpt lat="46.4618700" lon="3.2633950">
        <ele>277.2</ele>
        <time>2020-07-04T13:29:19Z</time>
      </trkpt>
      <trkpt lat="46.4617980" lon="3.2633620">
        <ele>278.0</ele>
        <time>2020-07-04T13:29:23Z</time>
      </trkpt>
      <trkpt lat="46.4616640" lon="3.2633170">
        <ele>279.0</ele>
        <time>2020-07-04T13:29:30Z</time>
      </trkpt>
      <trkpt lat="46.4616430" lon="3.2633090">
        <ele>279.0</ele>
        <time>2020-07-04T13:29:31Z</time>
      </trkpt>
      <trkpt lat="46.4614560" lon="3.2632400">
        <ele>280.4</ele>
        <time>2020-07-04T13:29:40Z</time>
      </trkpt>
      <trkpt lat="46.4613960" lon="3.2632110">
        <ele>280.6</ele>
        <time>2020-07-04T13:29:43Z</time>
      </trkpt>
      <trkpt lat="46.4613330" lon="3.2631870">
        <ele>280.8</ele>
        <time>2020-07-04T13:29:46Z</time>
      </trkpt>
      <trkpt lat="46.4612430" lon="3.2631420">
        <ele>281.0</ele>
        <time>2020-07-04T13:29:50Z</time>
      </trkpt>
      <trkpt lat="46.4609670" lon="3.2630130">
        <ele>281.2</ele>
        <time>2020-07-04T13:30:01Z</time>
      </trkpt>
      <trkpt lat="46.4606350" lon="3.2628510">
        <ele>282.0</ele>
        <time>2020-07-04T13:30:14Z</time>
      </trkpt>
      <trkpt lat="46.4606100" lon="3.2628370">
        <ele>282.0</ele>
        <time>2020-07-04T13:30:15Z</time>
      </trkpt>
      <trkpt lat="46.4605110" lon="3.2627820">
        <ele>282.0</ele>
        <time>2020-07-04T13:30:19Z</time>
      </trkpt>
      <trkpt lat="46.4604310" lon="3.2627510">
        <ele>282.4</ele>
        <time>2020-07-04T13:30:22Z</time>
      </trkpt>
      <trkpt lat="46.4604020" lon="3.2627390">
        <ele>282.4</ele>
        <time>2020-07-04T13:30:23Z</time>
      </trkpt>
      <trkpt lat="46.4601420" lon="3.2626140">
        <ele>284.4</ele>
        <time>2020-07-04T13:30:32Z</time>
      </trkpt>
      <trkpt lat="46.4600500" lon="3.2625760">
        <ele>285.0</ele>
        <time>2020-07-04T13:30:35Z</time>
      </trkpt>
      <trkpt lat="46.4599570" lon="3.2625370">
        <ele>285.0</ele>
        <time>2020-07-04T13:30:38Z</time>
      </trkpt>
      <trkpt lat="46.4597620" lon="3.2624400">
        <ele>285.4</ele>
        <time>2020-07-04T13:30:44Z</time>
      </trkpt>
      <trkpt lat="46.4594850" lon="3.2622730">
        <ele>286.0</ele>
        <time>2020-07-04T13:30:53Z</time>
      </trkpt>
      <trkpt lat="46.4593500" lon="3.2620940">
        <ele>286.0</ele>
        <time>2020-07-04T13:31:00Z</time>
      </trkpt>
      <trkpt lat="46.4592340" lon="3.2619540">
        <ele>286.0</ele>
        <time>2020-07-04T13:31:05Z</time>
      </trkpt>
      <trkpt lat="46.4591860" lon="3.2618690">
        <ele>286.2</ele>
        <time>2020-07-04T13:31:07Z</time>
      </trkpt>
      <trkpt lat="46.4591700" lon="3.2618180">
        <ele>286.0</ele>
        <time>2020-07-04T13:31:08Z</time>
      </trkpt>
      <trkpt lat="46.4590810" lon="3.2616750">
        <ele>285.8</ele>
        <time>2020-07-04T13:31:11Z</time>
      </trkpt>
      <trkpt lat="46.4590160" lon="3.2615810">
        <ele>285.8</ele>
        <time>2020-07-04T13:31:13Z</time>
      </trkpt>
      <trkpt lat="46.4587290" lon="3.2612120">
        <ele>284.6</ele>
        <time>2020-07-04T13:31:21Z</time>
      </trkpt>
      <trkpt lat="46.4584640" lon="3.2609160">
        <ele>284.2</ele>
        <time>2020-07-04T13:31:27Z</time>
      </trkpt>
      <trkpt lat="46.4584230" lon="3.2608650">
        <ele>284.2</ele>
        <time>2020-07-04T13:31:28Z</time>
      </trkpt>
      <trkpt lat="46.4583830" lon="3.2608160">
        <ele>284.2</ele>
        <time>2020-07-04T13:31:29Z</time>
      </trkpt>
      <trkpt lat="46.4580320" lon="3.2604200">
        <ele>283.0</ele>
        <time>2020-07-04T13:31:38Z</time>
      </trkpt>
      <trkpt lat="46.4579470" lon="3.2603080">
        <ele>282.0</ele>
        <time>2020-07-04T13:31:40Z</time>
      </trkpt>
      <trkpt lat="46.4579110" lon="3.2602460">
        <ele>281.8</ele>
        <time>2020-07-04T13:31:41Z</time>
      </trkpt>
      <trkpt lat="46.4578740" lon="3.2601890">
        <ele>281.6</ele>
        <time>2020-07-04T13:31:42Z</time>
      </trkpt>
      <trkpt lat="46.4577920" lon="3.2601010">
        <ele>281.4</ele>
        <time>2020-07-04T13:31:44Z</time>
      </trkpt>
      <trkpt lat="46.4577540" lon="3.2600570">
        <ele>281.6</ele>
        <time>2020-07-04T13:31:45Z</time>
      </trkpt>
      <trkpt lat="46.4575380" lon="3.2598210">
        <ele>281.0</ele>
        <time>2020-07-04T13:31:51Z</time>
      </trkpt>
      <trkpt lat="46.4575060" lon="3.2597790">
        <ele>281.0</ele>
        <time>2020-07-04T13:31:52Z</time>
      </trkpt>
      <trkpt lat="46.4574370" lon="3.2596960">
        <ele>280.8</ele>
        <time>2020-07-04T13:31:54Z</time>
      </trkpt>
      <trkpt lat="46.4572650" lon="3.2594740">
        <ele>280.6</ele>
        <time>2020-07-04T13:31:59Z</time>
      </trkpt>
      <trkpt lat="46.4571980" lon="3.2593820">
        <ele>280.6</ele>
        <time>2020-07-04T13:32:01Z</time>
      </trkpt>
      <trkpt lat="46.4568760" lon="3.2589600">
        <ele>281.6</ele>
        <time>2020-07-04T13:32:11Z</time>
      </trkpt>
      <trkpt lat="46.4568410" lon="3.2589180">
        <ele>281.8</ele>
        <time>2020-07-04T13:32:12Z</time>
      </trkpt>
      <trkpt lat="46.4564330" lon="3.2583870">
        <ele>283.0</ele>
        <time>2020-07-04T13:32:24Z</time>
      </trkpt>
      <trkpt lat="46.4560130" lon="3.2578830">
        <ele>283.8</ele>
        <time>2020-07-04T13:32:36Z</time>
      </trkpt>
      <trkpt lat="46.4556010" lon="3.2573780">
        <ele>284.0</ele>
        <time>2020-07-04T13:32:48Z</time>
      </trkpt>
      <trkpt lat="46.4554330" lon="3.2571630">
        <ele>284.4</ele>
        <time>2020-07-04T13:32:53Z</time>
      </trkpt>
      <trkpt lat="46.4552400" lon="3.2569230">
        <ele>284.4</ele>
        <time>2020-07-04T13:32:59Z</time>
      </trkpt>
      <trkpt lat="46.4551130" lon="3.2567580">
        <ele>284.8</ele>
        <time>2020-07-04T13:33:03Z</time>
      </trkpt>
      <trkpt lat="46.4549100" lon="3.2564890">
        <ele>284.8</ele>
        <time>2020-07-04T13:33:09Z</time>
      </trkpt>
      <trkpt lat="46.4548710" lon="3.2564420">
        <ele>284.4</ele>
        <time>2020-07-04T13:33:10Z</time>
      </trkpt>
      <trkpt lat="46.4547910" lon="3.2563480">
        <ele>284.6</ele>
        <time>2020-07-04T13:33:12Z</time>
      </trkpt>
      <trkpt lat="46.4546200" lon="3.2561360">
        <ele>283.6</ele>
        <time>2020-07-04T13:33:16Z</time>
      </trkpt>
      <trkpt lat="46.4545750" lon="3.2560810">
        <ele>283.2</ele>
        <time>2020-07-04T13:33:17Z</time>
      </trkpt>
      <trkpt lat="46.4544830" lon="3.2559660">
        <ele>282.6</ele>
        <time>2020-07-04T13:33:19Z</time>
      </trkpt>
      <trkpt lat="46.4544340" lon="3.2559040">
        <ele>282.0</ele>
        <time>2020-07-04T13:33:20Z</time>
      </trkpt>
      <trkpt lat="46.4543850" lon="3.2558420">
        <ele>281.2</ele>
        <time>2020-07-04T13:33:21Z</time>
      </trkpt>
      <trkpt lat="46.4542260" lon="3.2556430">
        <ele>280.8</ele>
        <time>2020-07-04T13:33:24Z</time>
      </trkpt>
      <trkpt lat="46.4541690" lon="3.2555740">
        <ele>280.6</ele>
        <time>2020-07-04T13:33:25Z</time>
      </trkpt>
      <trkpt lat="46.4540500" lon="3.2554380">
        <ele>279.8</ele>
        <time>2020-07-04T13:33:27Z</time>
      </trkpt>
      <trkpt lat="46.4538550" lon="3.2552540">
        <ele>278.4</ele>
        <time>2020-07-04T13:33:30Z</time>
      </trkpt>
      <trkpt lat="46.4537840" lon="3.2551990">
        <ele>278.2</ele>
        <time>2020-07-04T13:33:31Z</time>
      </trkpt>
      <trkpt lat="46.4537090" lon="3.2551520">
        <ele>278.2</ele>
        <time>2020-07-04T13:33:32Z</time>
      </trkpt>
      <trkpt lat="46.4536290" lon="3.2551140">
        <ele>277.8</ele>
        <time>2020-07-04T13:33:33Z</time>
      </trkpt>
      <trkpt lat="46.4534560" lon="3.2550560">
        <ele>276.8</ele>
        <time>2020-07-04T13:33:35Z</time>
      </trkpt>
      <trkpt lat="46.4533650" lon="3.2550320">
        <ele>276.0</ele>
        <time>2020-07-04T13:33:36Z</time>
      </trkpt>
      <trkpt lat="46.4531750" lon="3.2550000">
        <ele>275.0</ele>
        <time>2020-07-04T13:33:38Z</time>
      </trkpt>
      <trkpt lat="46.4529780" lon="3.2549750">
        <ele>275.0</ele>
        <time>2020-07-04T13:33:40Z</time>
      </trkpt>
      <trkpt lat="46.4523990" lon="3.2549010">
        <ele>270.6</ele>
        <time>2020-07-04T13:33:46Z</time>
      </trkpt>
      <trkpt lat="46.4522260" lon="3.2548830">
        <ele>269.4</ele>
        <time>2020-07-04T13:33:48Z</time>
      </trkpt>
      <trkpt lat="46.4521480" lon="3.2548740">
        <ele>269.0</ele>
        <time>2020-07-04T13:33:49Z</time>
      </trkpt>
      <trkpt lat="46.4519460" lon="3.2548460">
        <ele>268.6</ele>
        <time>2020-07-04T13:33:52Z</time>
      </trkpt>
      <trkpt lat="46.4518890" lon="3.2548380">
        <ele>268.6</ele>
        <time>2020-07-04T13:33:53Z</time>
      </trkpt>
      <trkpt lat="46.4517930" lon="3.2548250">
        <ele>268.6</ele>
        <time>2020-07-04T13:33:55Z</time>
      </trkpt>
      <trkpt lat="46.4517220" lon="3.2548140">
        <ele>268.6</ele>
        <time>2020-07-04T13:33:57Z</time>
      </trkpt>
      <trkpt lat="46.4516940" lon="3.2548130">
        <ele>268.6</ele>
        <time>2020-07-04T13:33:58Z</time>
      </trkpt>
      <trkpt lat="46.4515380" lon="3.2547930">
        <ele>272.6</ele>
        <time>2020-07-04T13:34:04Z</time>
      </trkpt>
      <trkpt lat="46.4514310" lon="3.2547750">
        <ele>274.6</ele>
        <time>2020-07-04T13:34:08Z</time>
      </trkpt>
      <trkpt lat="46.4512750" lon="3.2547470">
        <ele>275.4</ele>
        <time>2020-07-04T13:34:14Z</time>
      </trkpt>
      <trkpt lat="46.4512250" lon="3.2547390">
        <ele>275.6</ele>
        <time>2020-07-04T13:34:16Z</time>
      </trkpt>
      <trkpt lat="46.4511270" lon="3.2547270">
        <ele>276.4</ele>
        <time>2020-07-04T13:34:20Z</time>
      </trkpt>
      <trkpt lat="46.4510050" lon="3.2547170">
        <ele>277.2</ele>
        <time>2020-07-04T13:34:25Z</time>
      </trkpt>
      <trkpt lat="46.4508910" lon="3.2547060">
        <ele>277.8</ele>
        <time>2020-07-04T13:34:30Z</time>
      </trkpt>
      <trkpt lat="46.4508240" lon="3.2547000">
        <ele>278.2</ele>
        <time>2020-07-04T13:34:33Z</time>
      </trkpt>
      <trkpt lat="46.4506250" lon="3.2546600">
        <ele>280.2</ele>
        <time>2020-07-04T13:34:42Z</time>
      </trkpt>
      <trkpt lat="46.4506090" lon="3.2546570">
        <ele>280.4</ele>
        <time>2020-07-04T13:34:43Z</time>
      </trkpt>
      <trkpt lat="46.4504650" lon="3.2546510">
        <ele>281.4</ele>
        <time>2020-07-04T13:34:50Z</time>
      </trkpt>
      <trkpt lat="46.4504410" lon="3.2546500">
        <ele>281.4</ele>
        <time>2020-07-04T13:34:51Z</time>
      </trkpt>
      <trkpt lat="46.4503130" lon="3.2546430">
        <ele>282.6</ele>
        <time>2020-07-04T13:34:57Z</time>
      </trkpt>
      <trkpt lat="46.4502020" lon="3.2546100">
        <ele>283.8</ele>
        <time>2020-07-04T13:35:03Z</time>
      </trkpt>
      <trkpt lat="46.4501830" lon="3.2546040">
        <ele>284.0</ele>
        <time>2020-07-04T13:35:04Z</time>
      </trkpt>
      <trkpt lat="46.4500640" lon="3.2545870">
        <ele>284.8</ele>
        <time>2020-07-04T13:35:10Z</time>
      </trkpt>
      <trkpt lat="46.4499620" lon="3.2545900">
        <ele>285.6</ele>
        <time>2020-07-04T13:35:15Z</time>
      </trkpt>
      <trkpt lat="46.4499410" lon="3.2545880">
        <ele>285.8</ele>
        <time>2020-07-04T13:35:16Z</time>
      </trkpt>
      <trkpt lat="46.4497730" lon="3.2545530">
        <ele>287.2</ele>
        <time>2020-07-04T13:35:24Z</time>
      </trkpt>
      <trkpt lat="46.4497140" lon="3.2545340">
        <ele>287.8</ele>
        <time>2020-07-04T13:35:27Z</time>
      </trkpt>
      <trkpt lat="46.4496000" lon="3.2545210">
        <ele>288.6</ele>
        <time>2020-07-04T13:35:33Z</time>
      </trkpt>
      <trkpt lat="46.4495390" lon="3.2545090">
        <ele>289.0</ele>
        <time>2020-07-04T13:35:36Z</time>
      </trkpt>
      <trkpt lat="46.4493540" lon="3.2544840">
        <ele>290.0</ele>
        <time>2020-07-04T13:35:45Z</time>
      </trkpt>
      <trkpt lat="46.4492860" lon="3.2544760">
        <ele>290.2</ele>
        <time>2020-07-04T13:35:48Z</time>
      </trkpt>
      <trkpt lat="46.4490030" lon="3.2544280">
        <ele>291.0</ele>
        <time>2020-07-04T13:35:58Z</time>
      </trkpt>
      <trkpt lat="46.4487440" lon="3.2543800">
        <ele>291.2</ele>
        <time>2020-07-04T13:36:07Z</time>
      </trkpt>
      <trkpt lat="46.4485750" lon="3.2543370">
        <ele>291.0</ele>
        <time>2020-07-04T13:36:13Z</time>
      </trkpt>
      <trkpt lat="46.4484680" lon="3.2543150">
        <ele>290.8</ele>
        <time>2020-07-04T13:36:16Z</time>
      </trkpt>
      <trkpt lat="46.4484300" lon="3.2543070">
        <ele>291.0</ele>
        <time>2020-07-04T13:36:17Z</time>
      </trkpt>
      <trkpt lat="46.4481870" lon="3.2542560">
        <ele>290.6</ele>
        <time>2020-07-04T13:36:22Z</time>
      </trkpt>
      <trkpt lat="46.4481290" lon="3.2542460">
        <ele>290.4</ele>
        <time>2020-07-04T13:36:23Z</time>
      </trkpt>
      <trkpt lat="46.4480100" lon="3.2542200">
        <ele>289.8</ele>
        <time>2020-07-04T13:36:25Z</time>
      </trkpt>
      <trkpt lat="46.4477460" lon="3.2541760">
        <ele>288.8</ele>
        <time>2020-07-04T13:36:29Z</time>
      </trkpt>
      <trkpt lat="46.4476780" lon="3.2541660">
        <ele>288.4</ele>
        <time>2020-07-04T13:36:30Z</time>
      </trkpt>
      <trkpt lat="46.4474570" lon="3.2541370">
        <ele>287.0</ele>
        <time>2020-07-04T13:36:33Z</time>
      </trkpt>
      <trkpt lat="46.4473800" lon="3.2541260">
        <ele>287.0</ele>
        <time>2020-07-04T13:36:34Z</time>
      </trkpt>
      <trkpt lat="46.4470630" lon="3.2540840">
        <ele>285.6</ele>
        <time>2020-07-04T13:36:38Z</time>
      </trkpt>
      <trkpt lat="46.4469850" lon="3.2540730">
        <ele>284.8</ele>
        <time>2020-07-04T13:36:39Z</time>
      </trkpt>
      <trkpt lat="46.4466920" lon="3.2540240">
        <ele>282.2</ele>
        <time>2020-07-04T13:36:43Z</time>
      </trkpt>
      <trkpt lat="46.4465590" lon="3.2539930">
        <ele>281.4</ele>
        <time>2020-07-04T13:36:45Z</time>
      </trkpt>
      <trkpt lat="46.4464360" lon="3.2539620">
        <ele>281.2</ele>
        <time>2020-07-04T13:36:47Z</time>
      </trkpt>
      <trkpt lat="46.4463770" lon="3.2539490">
        <ele>281.2</ele>
        <time>2020-07-04T13:36:48Z</time>
      </trkpt>
      <trkpt lat="46.4463200" lon="3.2539370">
        <ele>281.2</ele>
        <time>2020-07-04T13:36:49Z</time>
      </trkpt>
      <trkpt lat="46.4461180" lon="3.2538880">
        <ele>281.2</ele>
        <time>2020-07-04T13:36:53Z</time>
      </trkpt>
      <trkpt lat="46.4458550" lon="3.2538190">
        <ele>282.8</ele>
        <time>2020-07-04T13:37:00Z</time>
      </trkpt>
      <trkpt lat="46.4458200" lon="3.2538030">
        <ele>283.0</ele>
        <time>2020-07-04T13:37:01Z</time>
      </trkpt>
      <trkpt lat="46.4457840" lon="3.2537910">
        <ele>283.4</ele>
        <time>2020-07-04T13:37:02Z</time>
      </trkpt>
      <trkpt lat="46.4453710" lon="3.2536740">
        <ele>284.0</ele>
        <time>2020-07-04T13:37:13Z</time>
      </trkpt>
      <trkpt lat="46.4450960" lon="3.2535890">
        <ele>284.6</ele>
        <time>2020-07-04T13:37:20Z</time>
      </trkpt>
      <trkpt lat="46.4448940" lon="3.2535380">
        <ele>284.8</ele>
        <time>2020-07-04T13:37:25Z</time>
      </trkpt>
      <trkpt lat="46.4443850" lon="3.2533690">
        <ele>285.6</ele>
        <time>2020-07-04T13:37:38Z</time>
      </trkpt>
      <trkpt lat="46.4441830" lon="3.2532580">
        <ele>286.0</ele>
        <time>2020-07-04T13:37:43Z</time>
      </trkpt>
      <trkpt lat="46.4440920" lon="3.2531950">
        <ele>285.8</ele>
        <time>2020-07-04T13:37:45Z</time>
      </trkpt>
      <trkpt lat="46.4440400" lon="3.2531560">
        <ele>285.8</ele>
        <time>2020-07-04T13:37:46Z</time>
      </trkpt>
      <trkpt lat="46.4439330" lon="3.2530630">
        <ele>286.0</ele>
        <time>2020-07-04T13:37:48Z</time>
      </trkpt>
      <trkpt lat="46.4438810" lon="3.2530070">
        <ele>285.8</ele>
        <time>2020-07-04T13:37:49Z</time>
      </trkpt>
      <trkpt lat="46.4438300" lon="3.2529460">
        <ele>285.8</ele>
        <time>2020-07-04T13:37:50Z</time>
      </trkpt>
      <trkpt lat="46.4437280" lon="3.2528190">
        <ele>285.2</ele>
        <time>2020-07-04T13:37:52Z</time>
      </trkpt>
      <trkpt lat="46.4434590" lon="3.2524530">
        <ele>283.4</ele>
        <time>2020-07-04T13:37:57Z</time>
      </trkpt>
      <trkpt lat="46.4433480" lon="3.2522950">
        <ele>282.0</ele>
        <time>2020-07-04T13:37:59Z</time>
      </trkpt>
      <trkpt lat="46.4432930" lon="3.2522140">
        <ele>280.8</ele>
        <time>2020-07-04T13:38:00Z</time>
      </trkpt>
      <trkpt lat="46.4431800" lon="3.2520520">
        <ele>280.2</ele>
        <time>2020-07-04T13:38:02Z</time>
      </trkpt>
      <trkpt lat="46.4430000" lon="3.2518090">
        <ele>279.2</ele>
        <time>2020-07-04T13:38:05Z</time>
      </trkpt>
      <trkpt lat="46.4429330" lon="3.2517190">
        <ele>278.0</ele>
        <time>2020-07-04T13:38:06Z</time>
      </trkpt>
      <trkpt lat="46.4425030" lon="3.2511420">
        <ele>273.4</ele>
        <time>2020-07-04T13:38:13Z</time>
      </trkpt>
      <trkpt lat="46.4423460" lon="3.2509330">
        <ele>272.2</ele>
        <time>2020-07-04T13:38:16Z</time>
      </trkpt>
      <trkpt lat="46.4422080" lon="3.2507440">
        <ele>272.2</ele>
        <time>2020-07-04T13:38:19Z</time>
      </trkpt>
      <trkpt lat="46.4421640" lon="3.2506870">
        <ele>271.8</ele>
        <time>2020-07-04T13:38:20Z</time>
      </trkpt>
      <trkpt lat="46.4419310" lon="3.2503990">
        <ele>272.0</ele>
        <time>2020-07-04T13:38:26Z</time>
      </trkpt>
      <trkpt lat="46.4418970" lon="3.2503640">
        <ele>272.0</ele>
        <time>2020-07-04T13:38:27Z</time>
      </trkpt>
      <trkpt lat="46.4417330" lon="3.2500960">
        <ele>273.0</ele>
        <time>2020-07-04T13:38:34Z</time>
      </trkpt>
      <trkpt lat="46.4416680" lon="3.2499700">
        <ele>273.2</ele>
        <time>2020-07-04T13:38:38Z</time>
      </trkpt>
      <trkpt lat="46.4416440" lon="3.2499340">
        <ele>273.4</ele>
        <time>2020-07-04T13:38:40Z</time>
      </trkpt>
      <trkpt lat="46.4416010" lon="3.2499270">
        <ele>274.2</ele>
        <time>2020-07-04T13:38:45Z</time>
      </trkpt>
      <trkpt lat="46.4416020" lon="3.2499350">
        <ele>274.8</ele>
        <time>2020-07-04T13:38:58Z</time>
      </trkpt>
      <trkpt lat="46.4416050" lon="3.2499370">
        <ele>274.8</ele>
        <time>2020-07-04T13:39:27Z</time>
      </trkpt>
      <trkpt lat="46.4416050" lon="3.2499390">
        <ele>274.8</ele>
        <time>2020-07-04T13:39:54Z</time>
      </trkpt>
      <trkpt lat="46.4416090" lon="3.2499470">
        <ele>274.8</ele>
        <time>2020-07-04T13:40:08Z</time>
      </trkpt>
      <trkpt lat="46.4416120" lon="3.2499560">
        <ele>274.8</ele>
        <time>2020-07-04T13:40:30Z</time>
      </trkpt>
      <trkpt lat="46.4416180" lon="3.2499630">
        <ele>274.8</ele>
        <time>2020-07-04T13:40:58Z</time>
      </trkpt>
      <trkpt lat="46.4415930" lon="3.2500240">
        <ele>274.8</ele>
        <time>2020-07-04T13:41:17Z</time>
      </trkpt>
      <trkpt lat="46.4415810" lon="3.2500370">
        <ele>274.8</ele>
        <time>2020-07-04T13:41:18Z</time>
      </trkpt>
      <trkpt lat="46.4414760" lon="3.2501580">
        <ele>274.6</ele>
        <time>2020-07-04T13:41:24Z</time>
      </trkpt>
      <trkpt lat="46.4413290" lon="3.2502740">
        <ele>274.2</ele>
        <time>2020-07-04T13:41:30Z</time>
      </trkpt>
      <trkpt lat="46.4412390" lon="3.2503420">
        <ele>274.2</ele>
        <time>2020-07-04T13:41:33Z</time>
      </trkpt>
      <trkpt lat="46.4409160" lon="3.2505660">
        <ele>273.8</ele>
        <time>2020-07-04T13:41:42Z</time>
      </trkpt>
      <trkpt lat="46.4405180" lon="3.2508210">
        <ele>273.8</ele>
        <time>2020-07-04T13:41:53Z</time>
      </trkpt>
      <trkpt lat="46.4402180" lon="3.2510020">
        <ele>274.0</ele>
        <time>2020-07-04T13:42:01Z</time>
      </trkpt>
      <trkpt lat="46.4401010" lon="3.2510860">
        <ele>274.2</ele>
        <time>2020-07-04T13:42:05Z</time>
      </trkpt>
      <trkpt lat="46.4400480" lon="3.2511130">
        <ele>274.2</ele>
        <time>2020-07-04T13:42:07Z</time>
      </trkpt>
      <trkpt lat="46.4398920" lon="3.2512240">
        <ele>274.6</ele>
        <time>2020-07-04T13:42:13Z</time>
      </trkpt>
      <trkpt lat="46.4398720" lon="3.2512410">
        <ele>274.8</ele>
        <time>2020-07-04T13:42:14Z</time>
      </trkpt>
      <trkpt lat="46.4396940" lon="3.2513400">
        <ele>275.6</ele>
        <time>2020-07-04T13:42:22Z</time>
      </trkpt>
      <trkpt lat="46.4396700" lon="3.2513590">
        <ele>275.8</ele>
        <time>2020-07-04T13:42:23Z</time>
      </trkpt>
      <trkpt lat="46.4394620" lon="3.2515130">
        <ele>276.8</ele>
        <time>2020-07-04T13:42:32Z</time>
      </trkpt>
      <trkpt lat="46.4393340" lon="3.2515910">
        <ele>277.4</ele>
        <time>2020-07-04T13:42:37Z</time>
      </trkpt>
      <trkpt lat="46.4392080" lon="3.2516720">
        <ele>277.8</ele>
        <time>2020-07-04T13:42:43Z</time>
      </trkpt>
      <trkpt lat="46.4391890" lon="3.2516840">
        <ele>278.0</ele>
        <time>2020-07-04T13:42:44Z</time>
      </trkpt>
      <trkpt lat="46.4389540" lon="3.2518400">
        <ele>280.0</ele>
        <time>2020-07-04T13:42:55Z</time>
      </trkpt>
      <trkpt lat="46.4388940" lon="3.2518730">
        <ele>280.2</ele>
        <time>2020-07-04T13:42:57Z</time>
      </trkpt>
      <trkpt lat="46.4388090" lon="3.2519310">
        <ele>280.2</ele>
        <time>2020-07-04T13:43:00Z</time>
      </trkpt>
      <trkpt lat="46.4387820" lon="3.2519470">
        <ele>280.2</ele>
        <time>2020-07-04T13:43:01Z</time>
      </trkpt>
      <trkpt lat="46.4386810" lon="3.2520140">
        <ele>280.4</ele>
        <time>2020-07-04T13:43:05Z</time>
      </trkpt>
      <trkpt lat="46.4384590" lon="3.2521420">
        <ele>281.0</ele>
        <time>2020-07-04T13:43:14Z</time>
      </trkpt>
      <trkpt lat="46.4384060" lon="3.2521680">
        <ele>281.4</ele>
        <time>2020-07-04T13:43:16Z</time>
      </trkpt>
      <trkpt lat="46.4381720" lon="3.2523140">
        <ele>282.8</ele>
        <time>2020-07-04T13:43:25Z</time>
      </trkpt>
      <trkpt lat="46.4380930" lon="3.2523700">
        <ele>283.0</ele>
        <time>2020-07-04T13:43:28Z</time>
      </trkpt>
      <trkpt lat="46.4378650" lon="3.2525180">
        <ele>283.6</ele>
        <time>2020-07-04T13:43:37Z</time>
      </trkpt>
      <trkpt lat="46.4377520" lon="3.2525850">
        <ele>284.4</ele>
        <time>2020-07-04T13:43:42Z</time>
      </trkpt>
      <trkpt lat="46.4375690" lon="3.2527030">
        <ele>285.4</ele>
        <time>2020-07-04T13:43:50Z</time>
      </trkpt>
      <trkpt lat="46.4374950" lon="3.2527470">
        <ele>286.0</ele>
        <time>2020-07-04T13:43:53Z</time>
      </trkpt>
      <trkpt lat="46.4373350" lon="3.2528610">
        <ele>286.8</ele>
        <time>2020-07-04T13:44:00Z</time>
      </trkpt>
      <trkpt lat="46.4371530" lon="3.2529530">
        <ele>287.6</ele>
        <time>2020-07-04T13:44:07Z</time>
      </trkpt>
      <trkpt lat="46.4370500" lon="3.2530010">
        <ele>287.8</ele>
        <time>2020-07-04T13:44:11Z</time>
      </trkpt>
      <trkpt lat="46.4369620" lon="3.2530260">
        <ele>288.0</ele>
        <time>2020-07-04T13:44:14Z</time>
      </trkpt>
      <trkpt lat="46.4367050" lon="3.2530950">
        <ele>289.2</ele>
        <time>2020-07-04T13:44:23Z</time>
      </trkpt>
      <trkpt lat="46.4365360" lon="3.2531450">
        <ele>289.6</ele>
        <time>2020-07-04T13:44:29Z</time>
      </trkpt>
      <trkpt lat="46.4363830" lon="3.2531820">
        <ele>290.2</ele>
        <time>2020-07-04T13:44:35Z</time>
      </trkpt>
      <trkpt lat="46.4363270" lon="3.2531950">
        <ele>290.2</ele>
        <time>2020-07-04T13:44:37Z</time>
      </trkpt>
      <trkpt lat="46.4360410" lon="3.2533020">
        <ele>291.6</ele>
        <time>2020-07-04T13:44:47Z</time>
      </trkpt>
      <trkpt lat="46.4356820" lon="3.2534030">
        <ele>292.4</ele>
        <time>2020-07-04T13:44:58Z</time>
      </trkpt>
      <trkpt lat="46.4353170" lon="3.2535130">
        <ele>292.4</ele>
        <time>2020-07-04T13:45:07Z</time>
      </trkpt>
      <trkpt lat="46.4352690" lon="3.2535280">
        <ele>292.4</ele>
        <time>2020-07-04T13:45:08Z</time>
      </trkpt>
      <trkpt lat="46.4351080" lon="3.2535740">
        <ele>292.2</ele>
        <time>2020-07-04T13:45:11Z</time>
      </trkpt>
      <trkpt lat="46.4349890" lon="3.2536070">
        <ele>292.0</ele>
        <time>2020-07-04T13:45:13Z</time>
      </trkpt>
      <trkpt lat="46.4348630" lon="3.2536400">
        <ele>291.4</ele>
        <time>2020-07-04T13:45:15Z</time>
      </trkpt>
      <trkpt lat="46.4347300" lon="3.2536770">
        <ele>291.0</ele>
        <time>2020-07-04T13:45:17Z</time>
      </trkpt>
      <trkpt lat="46.4345150" lon="3.2537360">
        <ele>290.0</ele>
        <time>2020-07-04T13:45:20Z</time>
      </trkpt>
      <trkpt lat="46.4343660" lon="3.2537810">
        <ele>289.6</ele>
        <time>2020-07-04T13:45:22Z</time>
      </trkpt>
      <trkpt lat="46.4340510" lon="3.2538640">
        <ele>288.0</ele>
        <time>2020-07-04T13:45:26Z</time>
      </trkpt>
      <trkpt lat="46.4337200" lon="3.2539560">
        <ele>286.0</ele>
        <time>2020-07-04T13:45:30Z</time>
      </trkpt>
      <trkpt lat="46.4336360" lon="3.2539810">
        <ele>285.8</ele>
        <time>2020-07-04T13:45:31Z</time>
      </trkpt>
      <trkpt lat="46.4335510" lon="3.2540090">
        <ele>285.4</ele>
        <time>2020-07-04T13:45:32Z</time>
      </trkpt>
      <trkpt lat="46.4333810" lon="3.2540700">
        <ele>285.0</ele>
        <time>2020-07-04T13:45:34Z</time>
      </trkpt>
      <trkpt lat="46.4331320" lon="3.2542010">
        <ele>284.2</ele>
        <time>2020-07-04T13:45:37Z</time>
      </trkpt>
      <trkpt lat="46.4327580" lon="3.2545590">
        <ele>281.8</ele>
        <time>2020-07-04T13:45:42Z</time>
      </trkpt>
      <trkpt lat="46.4326960" lon="3.2546420">
        <ele>281.4</ele>
        <time>2020-07-04T13:45:43Z</time>
      </trkpt>
      <trkpt lat="46.4324830" lon="3.2549750">
        <ele>280.8</ele>
        <time>2020-07-04T13:45:47Z</time>
      </trkpt>
      <trkpt lat="46.4324350" lon="3.2550520">
        <ele>281.0</ele>
        <time>2020-07-04T13:45:48Z</time>
      </trkpt>
      <trkpt lat="46.4322720" lon="3.2553280">
        <ele>281.0</ele>
        <time>2020-07-04T13:45:52Z</time>
      </trkpt>
      <trkpt lat="46.4321350" lon="3.2555650">
        <ele>281.0</ele>
        <time>2020-07-04T13:45:56Z</time>
      </trkpt>
      <trkpt lat="46.4320110" lon="3.2557800">
        <ele>282.4</ele>
        <time>2020-07-04T13:46:00Z</time>
      </trkpt>
      <trkpt lat="46.4319820" lon="3.2558330">
        <ele>282.4</ele>
        <time>2020-07-04T13:46:01Z</time>
      </trkpt>
      <trkpt lat="46.4317340" lon="3.2562480">
        <ele>284.0</ele>
        <time>2020-07-04T13:46:10Z</time>
      </trkpt>
      <trkpt lat="46.4316550" lon="3.2563620">
        <ele>284.2</ele>
        <time>2020-07-04T13:46:13Z</time>
      </trkpt>
      <trkpt lat="46.4314750" lon="3.2566350">
        <ele>285.4</ele>
        <time>2020-07-04T13:46:20Z</time>
      </trkpt>
      <trkpt lat="46.4314260" lon="3.2567220">
        <ele>285.8</ele>
        <time>2020-07-04T13:46:22Z</time>
      </trkpt>
      <trkpt lat="46.4312450" lon="3.2570100">
        <ele>286.8</ele>
        <time>2020-07-04T13:46:29Z</time>
      </trkpt>
      <trkpt lat="46.4311330" lon="3.2571690">
        <ele>287.2</ele>
        <time>2020-07-04T13:46:33Z</time>
      </trkpt>
      <trkpt lat="46.4309460" lon="3.2574490">
        <ele>288.4</ele>
        <time>2020-07-04T13:46:40Z</time>
      </trkpt>
      <trkpt lat="46.4308230" lon="3.2576190">
        <ele>288.6</ele>
        <time>2020-07-04T13:46:44Z</time>
      </trkpt>
      <trkpt lat="46.4305090" lon="3.2581110">
        <ele>289.2</ele>
        <time>2020-07-04T13:46:54Z</time>
      </trkpt>
      <trkpt lat="46.4304710" lon="3.2581710">
        <ele>289.0</ele>
        <time>2020-07-04T13:46:55Z</time>
      </trkpt>
      <trkpt lat="46.4303920" lon="3.2582920">
        <ele>289.2</ele>
        <time>2020-07-04T13:46:57Z</time>
      </trkpt>
      <trkpt lat="46.4301060" lon="3.2587500">
        <ele>288.4</ele>
        <time>2020-07-04T13:47:04Z</time>
      </trkpt>
      <trkpt lat="46.4300640" lon="3.2588220">
        <ele>288.2</ele>
        <time>2020-07-04T13:47:05Z</time>
      </trkpt>
      <trkpt lat="46.4297870" lon="3.2592630">
        <ele>287.4</ele>
        <time>2020-07-04T13:47:11Z</time>
      </trkpt>
      <trkpt lat="46.4296460" lon="3.2594860">
        <ele>287.0</ele>
        <time>2020-07-04T13:47:14Z</time>
      </trkpt>
      <trkpt lat="46.4296000" lon="3.2595600">
        <ele>286.6</ele>
        <time>2020-07-04T13:47:15Z</time>
      </trkpt>
      <trkpt lat="46.4292260" lon="3.2601610">
        <ele>284.4</ele>
        <time>2020-07-04T13:47:23Z</time>
      </trkpt>
      <trkpt lat="46.4290760" lon="3.2603950">
        <ele>284.0</ele>
        <time>2020-07-04T13:47:26Z</time>
      </trkpt>
      <trkpt lat="46.4290260" lon="3.2604750">
        <ele>283.8</ele>
        <time>2020-07-04T13:47:27Z</time>
      </trkpt>
      <trkpt lat="46.4288080" lon="3.2607750">
        <ele>283.0</ele>
        <time>2020-07-04T13:47:31Z</time>
      </trkpt>
      <trkpt lat="46.4287010" lon="3.2609460">
        <ele>282.8</ele>
        <time>2020-07-04T13:47:33Z</time>
      </trkpt>
      <trkpt lat="46.4286520" lon="3.2611340">
        <ele>282.4</ele>
        <time>2020-07-04T13:47:34Z</time>
      </trkpt>
      <trkpt lat="46.4282800" lon="3.2612380">
        <ele>281.4</ele>
        <time>2020-07-04T13:47:39Z</time>
      </trkpt>
      <trkpt lat="46.4278940" lon="3.2613690">
        <ele>279.6</ele>
        <time>2020-07-04T13:47:44Z</time>
      </trkpt>
      <trkpt lat="46.4276710" lon="3.2614450">
        <ele>279.2</ele>
        <time>2020-07-04T13:47:47Z</time>
      </trkpt>
      <trkpt lat="46.4275340" lon="3.2614960">
        <ele>278.8</ele>
        <time>2020-07-04T13:47:49Z</time>
      </trkpt>
      <trkpt lat="46.4271720" lon="3.2616280">
        <ele>278.2</ele>
        <time>2020-07-04T13:47:54Z</time>
      </trkpt>
      <trkpt lat="46.4268620" lon="3.2617420">
        <ele>277.8</ele>
        <time>2020-07-04T13:47:58Z</time>
      </trkpt>
      <trkpt lat="46.4267790" lon="3.2617740">
        <ele>277.4</ele>
        <time>2020-07-04T13:47:59Z</time>
      </trkpt>
      <trkpt lat="46.4266080" lon="3.2618400">
        <ele>277.2</ele>
        <time>2020-07-04T13:48:01Z</time>
      </trkpt>
      <trkpt lat="46.4262550" lon="3.2619620">
        <ele>276.2</ele>
        <time>2020-07-04T13:48:05Z</time>
      </trkpt>
      <trkpt lat="46.4261650" lon="3.2619960">
        <ele>275.8</ele>
        <time>2020-07-04T13:48:06Z</time>
      </trkpt>
      <trkpt lat="46.4259830" lon="3.2620650">
        <ele>275.0</ele>
        <time>2020-07-04T13:48:08Z</time>
      </trkpt>
      <trkpt lat="46.4257070" lon="3.2621680">
        <ele>273.6</ele>
        <time>2020-07-04T13:48:11Z</time>
      </trkpt>
      <trkpt lat="46.4255150" lon="3.2622420">
        <ele>273.0</ele>
        <time>2020-07-04T13:48:13Z</time>
      </trkpt>
      <trkpt lat="46.4251370" lon="3.2624010">
        <ele>271.4</ele>
        <time>2020-07-04T13:48:17Z</time>
      </trkpt>
      <trkpt lat="46.4246660" lon="3.2625910">
        <ele>268.4</ele>
        <time>2020-07-04T13:48:22Z</time>
      </trkpt>
      <trkpt lat="46.4241100" lon="3.2628160">
        <ele>266.6</ele>
        <time>2020-07-04T13:48:28Z</time>
      </trkpt>
      <trkpt lat="46.4237560" lon="3.2629610">
        <ele>265.4</ele>
        <time>2020-07-04T13:48:32Z</time>
      </trkpt>
      <trkpt lat="46.4234260" lon="3.2630920">
        <ele>265.6</ele>
        <time>2020-07-04T13:48:36Z</time>
      </trkpt>
      <trkpt lat="46.4231990" lon="3.2631780">
        <ele>265.6</ele>
        <time>2020-07-04T13:48:39Z</time>
      </trkpt>
      <trkpt lat="46.4229940" lon="3.2632580">
        <ele>265.6</ele>
        <time>2020-07-04T13:48:42Z</time>
      </trkpt>
      <trkpt lat="46.4229310" lon="3.2632840">
        <ele>265.8</ele>
        <time>2020-07-04T13:48:43Z</time>
      </trkpt>
      <trkpt lat="46.4228690" lon="3.2633090">
        <ele>265.8</ele>
        <time>2020-07-04T13:48:44Z</time>
      </trkpt>
      <trkpt lat="46.4228090" lon="3.2633310">
        <ele>266.2</ele>
        <time>2020-07-04T13:48:45Z</time>
      </trkpt>
      <trkpt lat="46.4226290" lon="3.2633980">
        <ele>267.4</ele>
        <time>2020-07-04T13:48:48Z</time>
      </trkpt>
      <trkpt lat="46.4224020" lon="3.2634860">
        <ele>269.4</ele>
        <time>2020-07-04T13:48:52Z</time>
      </trkpt>
      <trkpt lat="46.4218360" lon="3.2637160">
        <ele>271.0</ele>
        <time>2020-07-04T13:49:02Z</time>
      </trkpt>
      <trkpt lat="46.4217740" lon="3.2637380">
        <ele>271.0</ele>
        <time>2020-07-04T13:49:03Z</time>
      </trkpt>
      <trkpt lat="46.4217130" lon="3.2637610">
        <ele>271.0</ele>
        <time>2020-07-04T13:49:04Z</time>
      </trkpt>
      <trkpt lat="46.4213870" lon="3.2638890">
        <ele>271.0</ele>
        <time>2020-07-04T13:49:09Z</time>
      </trkpt>
      <trkpt lat="46.4211640" lon="3.2639710">
        <ele>270.8</ele>
        <time>2020-07-04T13:49:12Z</time>
      </trkpt>
      <trkpt lat="46.4210840" lon="3.2640010">
        <ele>270.4</ele>
        <time>2020-07-04T13:49:13Z</time>
      </trkpt>
      <trkpt lat="46.4209180" lon="3.2640640">
        <ele>270.2</ele>
        <time>2020-07-04T13:49:15Z</time>
      </trkpt>
      <trkpt lat="46.4207470" lon="3.2641310">
        <ele>269.4</ele>
        <time>2020-07-04T13:49:17Z</time>
      </trkpt>
      <trkpt lat="46.4206550" lon="3.2641640">
        <ele>269.4</ele>
        <time>2020-07-04T13:49:18Z</time>
      </trkpt>
      <trkpt lat="46.4205610" lon="3.2642030">
        <ele>269.0</ele>
        <time>2020-07-04T13:49:19Z</time>
      </trkpt>
      <trkpt lat="46.4204640" lon="3.2642440">
        <ele>268.8</ele>
        <time>2020-07-04T13:49:20Z</time>
      </trkpt>
      <trkpt lat="46.4202650" lon="3.2643240">
        <ele>267.8</ele>
        <time>2020-07-04T13:49:22Z</time>
      </trkpt>
      <trkpt lat="46.4198530" lon="3.2645020">
        <ele>265.0</ele>
        <time>2020-07-04T13:49:26Z</time>
      </trkpt>
      <trkpt lat="46.4195420" lon="3.2646370">
        <ele>261.6</ele>
        <time>2020-07-04T13:49:29Z</time>
      </trkpt>
      <trkpt lat="46.4189550" lon="3.2648700">
        <ele>257.8</ele>
        <time>2020-07-04T13:49:35Z</time>
      </trkpt>
      <trkpt lat="46.4188040" lon="3.2649350">
        <ele>257.6</ele>
        <time>2020-07-04T13:49:37Z</time>
      </trkpt>
      <trkpt lat="46.4187450" lon="3.2649590">
        <ele>257.6</ele>
        <time>2020-07-04T13:49:38Z</time>
      </trkpt>
      <trkpt lat="46.4187010" lon="3.2649800">
        <ele>257.8</ele>
        <time>2020-07-04T13:49:39Z</time>
      </trkpt>
      <trkpt lat="46.4186710" lon="3.2649990">
        <ele>257.6</ele>
        <time>2020-07-04T13:49:40Z</time>
      </trkpt>
      <trkpt lat="46.4186530" lon="3.2650290">
        <ele>257.6</ele>
        <time>2020-07-04T13:49:42Z</time>
      </trkpt>
      <trkpt lat="46.4187030" lon="3.2650200">
        <ele>258.2</ele>
        <time>2020-07-04T13:49:46Z</time>
      </trkpt>
      <trkpt lat="46.4187110" lon="3.2650180">
        <ele>258.8</ele>
        <time>2020-07-04T13:49:47Z</time>
      </trkpt>
      <trkpt lat="46.4187200" lon="3.2650160">
        <ele>259.8</ele>
        <time>2020-07-04T13:49:48Z</time>
      </trkpt>
      <trkpt lat="46.4187680" lon="3.2649940">
        <ele>261.6</ele>
        <time>2020-07-04T13:49:57Z</time>
      </trkpt>
      <trkpt lat="46.4187940" lon="3.2650070">
        <ele>261.6</ele>
        <time>2020-07-04T13:50:07Z</time>
      </trkpt>
      <trkpt lat="46.4187950" lon="3.2650080">
        <ele>261.6</ele>
        <time>2020-07-04T13:50:12Z</time>
      </trkpt>
      <trkpt lat="46.4187960" lon="3.2649980">
        <ele>261.4</ele>
        <time>2020-07-04T13:50:33Z</time>
      </trkpt>
      <trkpt lat="46.4187920" lon="3.2649920">
        <ele>261.4</ele>
        <time>2020-07-04T13:50:51Z</time>
      </trkpt>
      <trkpt lat="46.4188540" lon="3.2649300">
        <ele>261.2</ele>
        <time>2020-07-04T13:51:03Z</time>
      </trkpt>
      <trkpt lat="46.4188820" lon="3.2649050">
        <ele>261.0</ele>
        <time>2020-07-04T13:51:18Z</time>
      </trkpt>
      <trkpt lat="46.4188880" lon="3.2649010">
        <ele>261.2</ele>
        <time>2020-07-04T13:51:44Z</time>
      </trkpt>
      <trkpt lat="46.4188870" lon="3.2649010">
        <ele>261.4</ele>
        <time>2020-07-04T13:51:57Z</time>
      </trkpt>
      <trkpt lat="46.4188870" lon="3.2649020">
        <ele>261.4</ele>
        <time>2020-07-04T13:52:13Z</time>
      </trkpt>
      <trkpt lat="46.4188860" lon="3.2648990">
        <ele>261.8</ele>
        <time>2020-07-04T13:52:37Z</time>
      </trkpt>
      <trkpt lat="46.4188850" lon="3.2648990">
        <ele>261.6</ele>
        <time>2020-07-04T13:52:38Z</time>
      </trkpt>
      <trkpt lat="46.4188850" lon="3.2649000">
        <ele>261.8</ele>
        <time>2020-07-04T13:52:40Z</time>
      </trkpt>
      <trkpt lat="46.4188850" lon="3.2649000">
        <ele>261.6</ele>
        <time>2020-07-04T13:52:41Z</time>
      </trkpt>
      <trkpt lat="46.4188850" lon="3.2649000">
        <ele>261.8</ele>
        <time>2020-07-04T13:52:47Z</time>
      </trkpt>
      <trkpt lat="46.4188840" lon="3.2648970">
        <ele>262.0</ele>
        <time>2020-07-04T13:53:02Z</time>
      </trkpt>
      <trkpt lat="46.4188870" lon="3.2648920">
        <ele>262.0</ele>
        <time>2020-07-04T13:53:36Z</time>
      </trkpt>
      <trkpt lat="46.4188880" lon="3.2648900">
        <ele>261.8</ele>
        <time>2020-07-04T13:54:01Z</time>
      </trkpt>
      <trkpt lat="46.4188880" lon="3.2648890">
        <ele>261.8</ele>
        <time>2020-07-04T13:54:02Z</time>
      </trkpt>
      <trkpt lat="46.4188850" lon="3.2648830">
        <ele>262.0</ele>
        <time>2020-07-04T13:54:28Z</time>
      </trkpt>
      <trkpt lat="46.4188840" lon="3.2648840">
        <ele>262.2</ele>
        <time>2020-07-04T13:54:37Z</time>
      </trkpt>
      <trkpt lat="46.4188850" lon="3.2648850">
        <ele>262.0</ele>
        <time>2020-07-04T13:54:55Z</time>
      </trkpt>
      <trkpt lat="46.4188820" lon="3.2648820">
        <ele>262.4</ele>
        <time>2020-07-04T13:55:25Z</time>
      </trkpt>
      <trkpt lat="46.4188920" lon="3.2648940">
        <ele>262.4</ele>
        <time>2020-07-04T13:55:54Z</time>
      </trkpt>
      <trkpt lat="46.4189430" lon="3.2648950">
        <ele>262.4</ele>
        <time>2020-07-04T13:56:00Z</time>
      </trkpt>
      <trkpt lat="46.4189890" lon="3.2648870">
        <ele>262.6</ele>
        <time>2020-07-04T13:56:03Z</time>
      </trkpt>
      <trkpt lat="46.4190740" lon="3.2648580">
        <ele>262.4</ele>
        <time>2020-07-04T13:56:08Z</time>
      </trkpt>
      <trkpt lat="46.4191180" lon="3.2648360">
        <ele>262.2</ele>
        <time>2020-07-04T13:56:11Z</time>
      </trkpt>
      <trkpt lat="46.4192050" lon="3.2648320">
        <ele>261.8</ele>
        <time>2020-07-04T13:56:20Z</time>
      </trkpt>
      <trkpt lat="46.4192480" lon="3.2648410">
        <ele>261.0</ele>
        <time>2020-07-04T13:56:37Z</time>
      </trkpt>
      <trkpt lat="46.4192560" lon="3.2648310">
        <ele>261.0</ele>
        <time>2020-07-04T13:57:06Z</time>
      </trkpt>
      <trkpt lat="46.4192520" lon="3.2648290">
        <ele>261.4</ele>
        <time>2020-07-04T13:57:33Z</time>
      </trkpt>
      <trkpt lat="46.4192550" lon="3.2648290">
        <ele>261.4</ele>
        <time>2020-07-04T13:58:06Z</time>
      </trkpt>
      <trkpt lat="46.4192540" lon="3.2648310">
        <ele>261.6</ele>
        <time>2020-07-04T13:58:30Z</time>
      </trkpt>
      <trkpt lat="46.4192550" lon="3.2648340">
        <ele>261.2</ele>
        <time>2020-07-04T13:58:39Z</time>
      </trkpt>
      <trkpt lat="46.4192620" lon="3.2648350">
        <ele>261.2</ele>
        <time>2020-07-04T13:59:09Z</time>
      </trkpt>
      <trkpt lat="46.4192640" lon="3.2648330">
        <ele>261.4</ele>
        <time>2020-07-04T13:59:43Z</time>
      </trkpt>
      <trkpt lat="46.4192560" lon="3.2648340">
        <ele>261.2</ele>
        <time>2020-07-04T14:00:11Z</time>
      </trkpt>
      <trkpt lat="46.4192550" lon="3.2648340">
        <ele>261.0</ele>
        <time>2020-07-04T14:00:18Z</time>
      </trkpt>
      <trkpt lat="46.4192580" lon="3.2648350">
        <ele>260.6</ele>
        <time>2020-07-04T14:00:56Z</time>
      </trkpt>
      <trkpt lat="46.4192590" lon="3.2648420">
        <ele>260.8</ele>
        <time>2020-07-04T14:01:12Z</time>
      </trkpt>
      <trkpt lat="46.4192600" lon="3.2648460">
        <ele>261.0</ele>
        <time>2020-07-04T14:01:27Z</time>
      </trkpt>
      <trkpt lat="46.4192610" lon="3.2648550">
        <ele>260.8</ele>
        <time>2020-07-04T14:01:56Z</time>
      </trkpt>
      <trkpt lat="46.4192620" lon="3.2648550">
        <ele>260.8</ele>
        <time>2020-07-04T14:02:00Z</time>
      </trkpt>
      <trkpt lat="46.4192620" lon="3.2648610">
        <ele>260.4</ele>
        <time>2020-07-04T14:02:24Z</time>
      </trkpt>
      <trkpt lat="46.4192610" lon="3.2648620">
        <ele>260.4</ele>
        <time>2020-07-04T14:02:35Z</time>
      </trkpt>
      <trkpt lat="46.4192620" lon="3.2648580">
        <ele>260.8</ele>
        <time>2020-07-04T14:03:12Z</time>
      </trkpt>
      <trkpt lat="46.4192550" lon="3.2648660">
        <ele>260.8</ele>
        <time>2020-07-04T14:03:46Z</time>
      </trkpt>
      <trkpt lat="46.4192550" lon="3.2648650">
        <ele>260.8</ele>
        <time>2020-07-04T14:03:54Z</time>
      </trkpt>
      <trkpt lat="46.4192510" lon="3.2648660">
        <ele>260.8</ele>
        <time>2020-07-04T14:04:24Z</time>
      </trkpt>
      <trkpt lat="46.4192480" lon="3.2648650">
        <ele>260.6</ele>
        <time>2020-07-04T14:05:01Z</time>
      </trkpt>
      <trkpt lat="46.4192450" lon="3.2648660">
        <ele>260.4</ele>
        <time>2020-07-04T14:05:21Z</time>
      </trkpt>
      <trkpt lat="46.4192430" lon="3.2648660">
        <ele>260.4</ele>
        <time>2020-07-04T14:05:32Z</time>
      </trkpt>
      <trkpt lat="46.4192500" lon="3.2648610">
        <ele>260.8</ele>
        <time>2020-07-04T14:06:02Z</time>
      </trkpt>
      <trkpt lat="46.4192570" lon="3.2648700">
        <ele>260.6</ele>
        <time>2020-07-04T14:06:22Z</time>
      </trkpt>
      <trkpt lat="46.4192650" lon="3.2648770">
        <ele>260.4</ele>
        <time>2020-07-04T14:06:49Z</time>
      </trkpt>
      <trkpt lat="46.4192660" lon="3.2648780">
        <ele>260.4</ele>
        <time>2020-07-04T14:06:54Z</time>
      </trkpt>
      <trkpt lat="46.4192730" lon="3.2648820">
        <ele>260.6</ele>
        <time>2020-07-04T14:07:20Z</time>
      </trkpt>
      <trkpt lat="46.4192750" lon="3.2648900">
        <ele>260.6</ele>
        <time>2020-07-04T14:07:58Z</time>
      </trkpt>
      <trkpt lat="46.4192760" lon="3.2648890">
        <ele>260.8</ele>
        <time>2020-07-04T14:08:23Z</time>
      </trkpt>
      <trkpt lat="46.4192760" lon="3.2648880">
        <ele>260.8</ele>
        <time>2020-07-04T14:08:40Z</time>
      </trkpt>
      <trkpt lat="46.4192800" lon="3.2648900">
        <ele>260.8</ele>
        <time>2020-07-04T14:09:18Z</time>
      </trkpt>
      <trkpt lat="46.4192800" lon="3.2648910">
        <ele>260.6</ele>
        <time>2020-07-04T14:09:45Z</time>
      </trkpt>
      <trkpt lat="46.4192800" lon="3.2648910">
        <ele>260.4</ele>
        <time>2020-07-04T14:09:48Z</time>
      </trkpt>
      <trkpt lat="46.4192790" lon="3.2648870">
        <ele>260.6</ele>
        <time>2020-07-04T14:10:10Z</time>
      </trkpt>
      <trkpt lat="46.4192730" lon="3.2648830">
        <ele>260.2</ele>
        <time>2020-07-04T14:10:51Z</time>
      </trkpt>
      <trkpt lat="46.4192690" lon="3.2648800">
        <ele>260.4</ele>
        <time>2020-07-04T14:11:35Z</time>
      </trkpt>
      <trkpt lat="46.4191940" lon="3.2648880">
        <ele>260.4</ele>
        <time>2020-07-04T14:11:48Z</time>
      </trkpt>
      <trkpt lat="46.4191800" lon="3.2648950">
        <ele>260.6</ele>
        <time>2020-07-04T14:11:49Z</time>
      </trkpt>
      <trkpt lat="46.4189710" lon="3.2649430">
        <ele>260.4</ele>
        <time>2020-07-04T14:12:03Z</time>
      </trkpt>
      <trkpt lat="46.4189410" lon="3.2649510">
        <ele>260.8</ele>
        <time>2020-07-04T14:12:14Z</time>
      </trkpt>
      <trkpt lat="46.4189410" lon="3.2649520">
        <ele>260.8</ele>
        <time>2020-07-04T14:12:17Z</time>
      </trkpt>
      <trkpt lat="46.4189380" lon="3.2649590">
        <ele>261.2</ele>
        <time>2020-07-04T14:12:32Z</time>
      </trkpt>
      <trkpt lat="46.4189250" lon="3.2649540">
        <ele>261.6</ele>
        <time>2020-07-04T14:12:52Z</time>
      </trkpt>
      <trkpt lat="46.4189190" lon="3.2649490">
        <ele>261.6</ele>
        <time>2020-07-04T14:13:15Z</time>
      </trkpt>
      <trkpt lat="46.4189180" lon="3.2649490">
        <ele>261.6</ele>
        <time>2020-07-04T14:13:34Z</time>
      </trkpt>
      <trkpt lat="46.4189220" lon="3.2649480">
        <ele>261.6</ele>
        <time>2020-07-04T14:13:50Z</time>
      </trkpt>
      <trkpt lat="46.4189210" lon="3.2649500">
        <ele>261.6</ele>
        <time>2020-07-04T14:13:53Z</time>
      </trkpt>
      <trkpt lat="46.4189200" lon="3.2649600">
        <ele>261.6</ele>
        <time>2020-07-04T14:14:07Z</time>
      </trkpt>
      <trkpt lat="46.4189200" lon="3.2649640">
        <ele>262.0</ele>
        <time>2020-07-04T14:14:31Z</time>
      </trkpt>
      <trkpt lat="46.4189210" lon="3.2649640">
        <ele>261.8</ele>
        <time>2020-07-04T14:14:39Z</time>
      </trkpt>
      <trkpt lat="46.4189230" lon="3.2649640">
        <ele>261.6</ele>
        <time>2020-07-04T14:14:53Z</time>
      </trkpt>
      <trkpt lat="46.4189190" lon="3.2649620">
        <ele>261.8</ele>
        <time>2020-07-04T14:15:19Z</time>
      </trkpt>
      <trkpt lat="46.4189240" lon="3.2649660">
        <ele>262.0</ele>
        <time>2020-07-04T14:15:44Z</time>
      </trkpt>
      <trkpt lat="46.4189250" lon="3.2649670">
        <ele>262.2</ele>
        <time>2020-07-04T14:15:50Z</time>
      </trkpt>
      <trkpt lat="46.4189250" lon="3.2649670">
        <ele>262.4</ele>
        <time>2020-07-04T14:15:51Z</time>
      </trkpt>
      <trkpt lat="46.4189250" lon="3.2649670">
        <ele>262.2</ele>
        <time>2020-07-04T14:15:52Z</time>
      </trkpt>
      <trkpt lat="46.4189250" lon="3.2649730">
        <ele>262.0</ele>
        <time>2020-07-04T14:16:10Z</time>
      </trkpt>
      <trkpt lat="46.4189250" lon="3.2649800">
        <ele>261.8</ele>
        <time>2020-07-04T14:16:37Z</time>
      </trkpt>
      <trkpt lat="46.4189240" lon="3.2649890">
        <ele>262.0</ele>
        <time>2020-07-04T14:16:56Z</time>
      </trkpt>
      <trkpt lat="46.4189210" lon="3.2649860">
        <ele>262.2</ele>
        <time>2020-07-04T14:17:13Z</time>
      </trkpt>
      <trkpt lat="46.4189210" lon="3.2649860">
        <ele>262.2</ele>
        <time>2020-07-04T14:17:18Z</time>
      </trkpt>
      <trkpt lat="46.4189170" lon="3.2649790">
        <ele>262.0</ele>
        <time>2020-07-04T14:17:50Z</time>
      </trkpt>
      <trkpt lat="46.4189120" lon="3.2649810">
        <ele>262.2</ele>
        <time>2020-07-04T14:18:18Z</time>
      </trkpt>
      <trkpt lat="46.4189090" lon="3.2649830">
        <ele>262.2</ele>
        <time>2020-07-04T14:18:38Z</time>
      </trkpt>
      <trkpt lat="46.4189080" lon="3.2649830">
        <ele>262.2</ele>
        <time>2020-07-04T14:18:42Z</time>
      </trkpt>
      <trkpt lat="46.4189070" lon="3.2649820">
        <ele>262.0</ele>
        <time>2020-07-04T14:19:08Z</time>
      </trkpt>
      <trkpt lat="46.4189060" lon="3.2649670">
        <ele>262.2</ele>
        <time>2020-07-04T14:19:31Z</time>
      </trkpt>
      <trkpt lat="46.4189040" lon="3.2649680">
        <ele>262.4</ele>
        <time>2020-07-04T14:19:43Z</time>
      </trkpt>
      <trkpt lat="46.4189000" lon="3.2649580">
        <ele>262.2</ele>
        <time>2020-07-04T14:19:57Z</time>
      </trkpt>
      <trkpt lat="46.4188930" lon="3.2649510">
        <ele>262.2</ele>
        <time>2020-07-04T14:20:27Z</time>
      </trkpt>
      <trkpt lat="46.4188940" lon="3.2649470">
        <ele>262.2</ele>
        <time>2020-07-04T14:20:34Z</time>
      </trkpt>
      <trkpt lat="46.4188940" lon="3.2649460">
        <ele>262.4</ele>
        <time>2020-07-04T14:20:54Z</time>
      </trkpt>
      <trkpt lat="46.4188940" lon="3.2649480">
        <ele>261.8</ele>
        <time>2020-07-04T14:21:14Z</time>
      </trkpt>
      <trkpt lat="46.4188960" lon="3.2649490">
        <ele>262.0</ele>
        <time>2020-07-04T14:21:21Z</time>
      </trkpt>
      <trkpt lat="46.4188950" lon="3.2649560">
        <ele>262.0</ele>
        <time>2020-07-04T14:21:51Z</time>
      </trkpt>
      <trkpt lat="46.4188950" lon="3.2649580">
        <ele>261.8</ele>
        <time>2020-07-04T14:22:04Z</time>
      </trkpt>
      <trkpt lat="46.4188920" lon="3.2649460">
        <ele>261.4</ele>
        <time>2020-07-04T14:22:30Z</time>
      </trkpt>
      <trkpt lat="46.4188950" lon="3.2649510">
        <ele>261.4</ele>
        <time>2020-07-04T14:22:50Z</time>
      </trkpt>
      <trkpt lat="46.4188930" lon="3.2649500">
        <ele>261.2</ele>
        <time>2020-07-04T14:22:53Z</time>
      </trkpt>
      <trkpt lat="46.4188970" lon="3.2649580">
        <ele>261.2</ele>
        <time>2020-07-04T14:23:08Z</time>
      </trkpt>
      <trkpt lat="46.4188970" lon="3.2649570">
        <ele>261.4</ele>
        <time>2020-07-04T14:23:27Z</time>
      </trkpt>
      <trkpt lat="46.4188950" lon="3.2649600">
        <ele>261.6</ele>
        <time>2020-07-04T14:23:44Z</time>
      </trkpt>
      <trkpt lat="46.4189010" lon="3.2649710">
        <ele>261.8</ele>
        <time>2020-07-04T14:24:00Z</time>
      </trkpt>
      <trkpt lat="46.4189000" lon="3.2649660">
        <ele>261.8</ele>
        <time>2020-07-04T14:24:20Z</time>
      </trkpt>
      <trkpt lat="46.4188990" lon="3.2649690">
        <ele>261.8</ele>
        <time>2020-07-04T14:24:30Z</time>
      </trkpt>
      <trkpt lat="46.4188980" lon="3.2649660">
        <ele>262.2</ele>
        <time>2020-07-04T14:24:51Z</time>
      </trkpt>
      <trkpt lat="46.4188920" lon="3.2649750">
        <ele>262.0</ele>
        <time>2020-07-04T14:25:11Z</time>
      </trkpt>
      <trkpt lat="46.4188880" lon="3.2649780">
        <ele>261.8</ele>
        <time>2020-07-04T14:25:36Z</time>
      </trkpt>
      <trkpt lat="46.4188890" lon="3.2649780">
        <ele>261.8</ele>
        <time>2020-07-04T14:25:38Z</time>
      </trkpt>
      <trkpt lat="46.4188900" lon="3.2649760">
        <ele>261.8</ele>
        <time>2020-07-04T14:25:41Z</time>
      </trkpt>
      <trkpt lat="46.4189000" lon="3.2649740">
        <ele>261.8</ele>
        <time>2020-07-04T14:25:53Z</time>
      </trkpt>
      <trkpt lat="46.4189030" lon="3.2649770">
        <ele>261.8</ele>
        <time>2020-07-04T14:26:09Z</time>
      </trkpt>
      <trkpt lat="46.4189030" lon="3.2649780">
        <ele>262.2</ele>
        <time>2020-07-04T14:26:17Z</time>
      </trkpt>
      <trkpt lat="46.4189040" lon="3.2649780">
        <ele>262.2</ele>
        <time>2020-07-04T14:26:20Z</time>
      </trkpt>
      <trkpt lat="46.4189040" lon="3.2649770">
        <ele>262.2</ele>
        <time>2020-07-04T14:26:22Z</time>
      </trkpt>
      <trkpt lat="46.4189040" lon="3.2649760">
        <ele>262.2</ele>
        <time>2020-07-04T14:26:23Z</time>
      </trkpt>
      <trkpt lat="46.4189030" lon="3.2649760">
        <ele>262.2</ele>
        <time>2020-07-04T14:26:29Z</time>
      </trkpt>
      <trkpt lat="46.4188990" lon="3.2649710">
        <ele>262.4</ele>
        <time>2020-07-04T14:26:39Z</time>
      </trkpt>
      <trkpt lat="46.4188980" lon="3.2649690">
        <ele>261.8</ele>
        <time>2020-07-04T14:27:07Z</time>
      </trkpt>
      <trkpt lat="46.4188970" lon="3.2649670">
        <ele>261.8</ele>
        <time>2020-07-04T14:27:16Z</time>
      </trkpt>
      <trkpt lat="46.4188970" lon="3.2649670">
        <ele>262.0</ele>
        <time>2020-07-04T14:27:24Z</time>
      </trkpt>
      <trkpt lat="46.4188970" lon="3.2649670">
        <ele>261.8</ele>
        <time>2020-07-04T14:27:25Z</time>
      </trkpt>
      <trkpt lat="46.4188950" lon="3.2649620">
        <ele>261.4</ele>
        <time>2020-07-04T14:27:49Z</time>
      </trkpt>
      <trkpt lat="46.4188890" lon="3.2649500">
        <ele>261.6</ele>
        <time>2020-07-04T14:28:10Z</time>
      </trkpt>
      <trkpt lat="46.4188670" lon="3.2649580">
        <ele>261.8</ele>
        <time>2020-07-04T14:28:27Z</time>
      </trkpt>
      <trkpt lat="46.4188630" lon="3.2649520">
        <ele>262.2</ele>
        <time>2020-07-04T14:28:49Z</time>
      </trkpt>
      <trkpt lat="46.4188640" lon="3.2649530">
        <ele>262.2</ele>
        <time>2020-07-04T14:29:16Z</time>
      </trkpt>
      <trkpt lat="46.4188660" lon="3.2649530">
        <ele>262.2</ele>
        <time>2020-07-04T14:29:38Z</time>
      </trkpt>
      <trkpt lat="46.4188660" lon="3.2649530">
        <ele>262.0</ele>
        <time>2020-07-04T14:29:39Z</time>
      </trkpt>
      <trkpt lat="46.4188660" lon="3.2649530">
        <ele>262.2</ele>
        <time>2020-07-04T14:29:41Z</time>
      </trkpt>
      <trkpt lat="46.4188660" lon="3.2649530">
        <ele>262.0</ele>
        <time>2020-07-04T14:29:43Z</time>
      </trkpt>
      <trkpt lat="46.4187780" lon="3.2649980">
        <ele>262.4</ele>
        <time>2020-07-04T14:30:11Z</time>
      </trkpt>
      <trkpt lat="46.4185890" lon="3.2650460">
        <ele>262.6</ele>
        <time>2020-07-04T14:30:25Z</time>
      </trkpt>
      <trkpt lat="46.4185460" lon="3.2650710">
        <ele>262.8</ele>
        <time>2020-07-04T14:30:28Z</time>
      </trkpt>
      <trkpt lat="46.4184800" lon="3.2650940">
        <ele>262.8</ele>
        <time>2020-07-04T14:30:32Z</time>
      </trkpt>
      <trkpt lat="46.4182940" lon="3.2651620">
        <ele>263.6</ele>
        <time>2020-07-04T14:30:42Z</time>
      </trkpt>
      <trkpt lat="46.4182750" lon="3.2651670">
        <ele>263.6</ele>
        <time>2020-07-04T14:30:43Z</time>
      </trkpt>
      <trkpt lat="46.4180620" lon="3.2652290">
        <ele>264.4</ele>
        <time>2020-07-04T14:30:54Z</time>
      </trkpt>
      <trkpt lat="46.4179960" lon="3.2652730">
        <ele>264.6</ele>
        <time>2020-07-04T14:30:58Z</time>
      </trkpt>
      <trkpt lat="46.4179140" lon="3.2652940">
        <ele>265.0</ele>
        <time>2020-07-04T14:31:02Z</time>
      </trkpt>
      <trkpt lat="46.4178340" lon="3.2653110">
        <ele>265.4</ele>
        <time>2020-07-04T14:31:06Z</time>
      </trkpt>
      <trkpt lat="46.4177360" lon="3.2653710">
        <ele>265.8</ele>
        <time>2020-07-04T14:31:12Z</time>
      </trkpt>
      <trkpt lat="46.4176160" lon="3.2654360">
        <ele>266.8</ele>
        <time>2020-07-04T14:31:19Z</time>
      </trkpt>
      <trkpt lat="46.4174040" lon="3.2655040">
        <ele>267.4</ele>
        <time>2020-07-04T14:31:29Z</time>
      </trkpt>
      <trkpt lat="46.4173800" lon="3.2655110">
        <ele>267.6</ele>
        <time>2020-07-04T14:31:30Z</time>
      </trkpt>
      <trkpt lat="46.4172650" lon="3.2655610">
        <ele>268.0</ele>
        <time>2020-07-04T14:31:35Z</time>
      </trkpt>
      <trkpt lat="46.4171390" lon="3.2656180">
        <ele>268.8</ele>
        <time>2020-07-04T14:31:41Z</time>
      </trkpt>
      <trkpt lat="46.4170490" lon="3.2656560">
        <ele>269.4</ele>
        <time>2020-07-04T14:31:45Z</time>
      </trkpt>
      <trkpt lat="46.4169340" lon="3.2656750">
        <ele>270.0</ele>
        <time>2020-07-04T14:31:50Z</time>
      </trkpt>
      <trkpt lat="46.4167560" lon="3.2657440">
        <ele>271.0</ele>
        <time>2020-07-04T14:31:58Z</time>
      </trkpt>
      <trkpt lat="46.4165500" lon="3.2657830">
        <ele>272.0</ele>
        <time>2020-07-04T14:32:07Z</time>
      </trkpt>
      <trkpt lat="46.4164790" lon="3.2657850">
        <ele>272.2</ele>
        <time>2020-07-04T14:32:10Z</time>
      </trkpt>
      <trkpt lat="46.4163190" lon="3.2657790">
        <ele>272.8</ele>
        <time>2020-07-04T14:32:17Z</time>
      </trkpt>
      <trkpt lat="46.4161240" lon="3.2657160">
        <ele>273.8</ele>
        <time>2020-07-04T14:32:26Z</time>
      </trkpt>
      <trkpt lat="46.4161040" lon="3.2657040">
        <ele>274.0</ele>
        <time>2020-07-04T14:32:27Z</time>
      </trkpt>
      <trkpt lat="46.4160610" lon="3.2656810">
        <ele>274.4</ele>
        <time>2020-07-04T14:32:29Z</time>
      </trkpt>
      <trkpt lat="46.4158160" lon="3.2655400">
        <ele>276.4</ele>
        <time>2020-07-04T14:32:40Z</time>
      </trkpt>
      <trkpt lat="46.4155980" lon="3.2654070">
        <ele>277.0</ele>
        <time>2020-07-04T14:32:50Z</time>
      </trkpt>
      <trkpt lat="46.4155760" lon="3.2653970">
        <ele>277.0</ele>
        <time>2020-07-04T14:32:51Z</time>
      </trkpt>
      <trkpt lat="46.4153960" lon="3.2653030">
        <ele>277.4</ele>
        <time>2020-07-04T14:32:59Z</time>
      </trkpt>
      <trkpt lat="46.4153100" lon="3.2652460">
        <ele>278.0</ele>
        <time>2020-07-04T14:33:03Z</time>
      </trkpt>
      <trkpt lat="46.4151990" lon="3.2651850">
        <ele>278.6</ele>
        <time>2020-07-04T14:33:08Z</time>
      </trkpt>
      <trkpt lat="46.4151300" lon="3.2651510">
        <ele>279.0</ele>
        <time>2020-07-04T14:33:11Z</time>
      </trkpt>
      <trkpt lat="46.4150190" lon="3.2650900">
        <ele>279.6</ele>
        <time>2020-07-04T14:33:16Z</time>
      </trkpt>
      <trkpt lat="46.4149960" lon="3.2650790">
        <ele>279.4</ele>
        <time>2020-07-04T14:33:17Z</time>
      </trkpt>
      <trkpt lat="46.4149750" lon="3.2650650">
        <ele>279.6</ele>
        <time>2020-07-04T14:33:18Z</time>
      </trkpt>
      <trkpt lat="46.4147900" lon="3.2649670">
        <ele>280.2</ele>
        <time>2020-07-04T14:33:26Z</time>
      </trkpt>
      <trkpt lat="46.4147450" lon="3.2649450">
        <ele>280.4</ele>
        <time>2020-07-04T14:33:28Z</time>
      </trkpt>
      <trkpt lat="46.4146990" lon="3.2649200">
        <ele>280.4</ele>
        <time>2020-07-04T14:33:30Z</time>
      </trkpt>
      <trkpt lat="46.4146750" lon="3.2649080">
        <ele>280.4</ele>
        <time>2020-07-04T14:33:31Z</time>
      </trkpt>
      <trkpt lat="46.4145060" lon="3.2648090">
        <ele>281.2</ele>
        <time>2020-07-04T14:33:39Z</time>
      </trkpt>
      <trkpt lat="46.4142240" lon="3.2646560">
        <ele>282.2</ele>
        <time>2020-07-04T14:33:51Z</time>
      </trkpt>
      <trkpt lat="46.4142000" lon="3.2646420">
        <ele>282.2</ele>
        <time>2020-07-04T14:33:52Z</time>
      </trkpt>
      <trkpt lat="46.4139420" lon="3.2644920">
        <ele>283.0</ele>
        <time>2020-07-04T14:34:03Z</time>
      </trkpt>
      <trkpt lat="46.4139180" lon="3.2644820">
        <ele>283.0</ele>
        <time>2020-07-04T14:34:04Z</time>
      </trkpt>
      <trkpt lat="46.4138940" lon="3.2644730">
        <ele>283.4</ele>
        <time>2020-07-04T14:34:05Z</time>
      </trkpt>
      <trkpt lat="46.4137120" lon="3.2643680">
        <ele>284.0</ele>
        <time>2020-07-04T14:34:12Z</time>
      </trkpt>
      <trkpt lat="46.4133700" lon="3.2642090">
        <ele>285.2</ele>
        <time>2020-07-04T14:34:23Z</time>
      </trkpt>
      <trkpt lat="46.4132490" lon="3.2641680">
        <ele>285.2</ele>
        <time>2020-07-04T14:34:26Z</time>
      </trkpt>
      <trkpt lat="46.4131610" lon="3.2641550">
        <ele>285.4</ele>
        <time>2020-07-04T14:34:28Z</time>
      </trkpt>
      <trkpt lat="46.4130700" lon="3.2641490">
        <ele>285.2</ele>
        <time>2020-07-04T14:34:30Z</time>
      </trkpt>
      <trkpt lat="46.4130240" lon="3.2641470">
        <ele>285.4</ele>
        <time>2020-07-04T14:34:31Z</time>
      </trkpt>
      <trkpt lat="46.4126170" lon="3.2641460">
        <ele>284.2</ele>
        <time>2020-07-04T14:34:39Z</time>
      </trkpt>
      <trkpt lat="46.4125640" lon="3.2641420">
        <ele>284.0</ele>
        <time>2020-07-04T14:34:40Z</time>
      </trkpt>
      <trkpt lat="46.4123900" lon="3.2641310">
        <ele>284.0</ele>
        <time>2020-07-04T14:34:43Z</time>
      </trkpt>
      <trkpt lat="46.4120100" lon="3.2641170">
        <ele>283.0</ele>
        <time>2020-07-04T14:34:49Z</time>
      </trkpt>
      <trkpt lat="46.4119400" lon="3.2641140">
        <ele>282.8</ele>
        <time>2020-07-04T14:34:50Z</time>
      </trkpt>
      <trkpt lat="46.4117260" lon="3.2641060">
        <ele>282.2</ele>
        <time>2020-07-04T14:34:53Z</time>
      </trkpt>
      <trkpt lat="46.4115810" lon="3.2640970">
        <ele>281.8</ele>
        <time>2020-07-04T14:34:55Z</time>
      </trkpt>
      <trkpt lat="46.4113560" lon="3.2640810">
        <ele>281.4</ele>
        <time>2020-07-04T14:34:58Z</time>
      </trkpt>
      <trkpt lat="46.4111980" lon="3.2640700">
        <ele>280.8</ele>
        <time>2020-07-04T14:35:00Z</time>
      </trkpt>
      <trkpt lat="46.4107110" lon="3.2640530">
        <ele>278.8</ele>
        <time>2020-07-04T14:35:06Z</time>
      </trkpt>
      <trkpt lat="46.4105510" lon="3.2640460">
        <ele>278.2</ele>
        <time>2020-07-04T14:35:08Z</time>
      </trkpt>
      <trkpt lat="46.4103900" lon="3.2640390">
        <ele>277.2</ele>
        <time>2020-07-04T14:35:10Z</time>
      </trkpt>
      <trkpt lat="46.4101480" lon="3.2640310">
        <ele>277.0</ele>
        <time>2020-07-04T14:35:13Z</time>
      </trkpt>
      <trkpt lat="46.4096500" lon="3.2639980">
        <ele>276.6</ele>
        <time>2020-07-04T14:35:19Z</time>
      </trkpt>
      <trkpt lat="46.4094890" lon="3.2639860">
        <ele>276.0</ele>
        <time>2020-07-04T14:35:21Z</time>
      </trkpt>
      <trkpt lat="46.4089450" lon="3.2639500">
        <ele>274.8</ele>
        <time>2020-07-04T14:35:28Z</time>
      </trkpt>
      <trkpt lat="46.4087230" lon="3.2639350">
        <ele>274.4</ele>
        <time>2020-07-04T14:35:31Z</time>
      </trkpt>
      <trkpt lat="46.4086520" lon="3.2639280">
        <ele>274.4</ele>
        <time>2020-07-04T14:35:32Z</time>
      </trkpt>
      <trkpt lat="46.4085820" lon="3.2639230">
        <ele>274.2</ele>
        <time>2020-07-04T14:35:33Z</time>
      </trkpt>
      <trkpt lat="46.4081950" lon="3.2639130">
        <ele>274.0</ele>
        <time>2020-07-04T14:35:39Z</time>
      </trkpt>
      <trkpt lat="46.4078220" lon="3.2638820">
        <ele>274.4</ele>
        <time>2020-07-04T14:35:46Z</time>
      </trkpt>
      <trkpt lat="46.4076780" lon="3.2638840">
        <ele>274.6</ele>
        <time>2020-07-04T14:35:49Z</time>
      </trkpt>
      <trkpt lat="46.4075790" lon="3.2638690">
        <ele>274.4</ele>
        <time>2020-07-04T14:35:51Z</time>
      </trkpt>
      <trkpt lat="46.4074830" lon="3.2638580">
        <ele>274.6</ele>
        <time>2020-07-04T14:35:53Z</time>
      </trkpt>
      <trkpt lat="46.4074380" lon="3.2638550">
        <ele>274.4</ele>
        <time>2020-07-04T14:35:54Z</time>
      </trkpt>
      <trkpt lat="46.4073900" lon="3.2638560">
        <ele>274.6</ele>
        <time>2020-07-04T14:35:55Z</time>
      </trkpt>
      <trkpt lat="46.4073440" lon="3.2638560">
        <ele>274.6</ele>
        <time>2020-07-04T14:35:56Z</time>
      </trkpt>
      <trkpt lat="46.4071020" lon="3.2638560">
        <ele>275.2</ele>
        <time>2020-07-04T14:36:02Z</time>
      </trkpt>
      <trkpt lat="46.4070340" lon="3.2638510">
        <ele>275.4</ele>
        <time>2020-07-04T14:36:04Z</time>
      </trkpt>
      <trkpt lat="46.4069760" lon="3.2638490">
        <ele>275.6</ele>
        <time>2020-07-04T14:36:06Z</time>
      </trkpt>
      <trkpt lat="46.4067450" lon="3.2638420">
        <ele>276.6</ele>
        <time>2020-07-04T14:36:13Z</time>
      </trkpt>
      <trkpt lat="46.4062760" lon="3.2638920">
        <ele>277.6</ele>
        <time>2020-07-04T14:36:27Z</time>
      </trkpt>
      <trkpt lat="46.4059950" lon="3.2639110">
        <ele>278.0</ele>
        <time>2020-07-04T14:36:35Z</time>
      </trkpt>
      <trkpt lat="46.4058960" lon="3.2639220">
        <ele>278.4</ele>
        <time>2020-07-04T14:36:38Z</time>
      </trkpt>
      <trkpt lat="46.4057050" lon="3.2639470">
        <ele>279.2</ele>
        <time>2020-07-04T14:36:44Z</time>
      </trkpt>
      <trkpt lat="46.4054330" lon="3.2639830">
        <ele>280.2</ele>
        <time>2020-07-04T14:36:52Z</time>
      </trkpt>
      <trkpt lat="46.4050290" lon="3.2640080">
        <ele>280.4</ele>
        <time>2020-07-04T14:37:03Z</time>
      </trkpt>
      <trkpt lat="46.4049410" lon="3.2640160">
        <ele>280.4</ele>
        <time>2020-07-04T14:37:05Z</time>
      </trkpt>
      <trkpt lat="46.4047490" lon="3.2640320">
        <ele>280.0</ele>
        <time>2020-07-04T14:37:09Z</time>
      </trkpt>
      <trkpt lat="46.4045530" lon="3.2640500">
        <ele>280.0</ele>
        <time>2020-07-04T14:37:13Z</time>
      </trkpt>
      <trkpt lat="46.4043580" lon="3.2640750">
        <ele>279.0</ele>
        <time>2020-07-04T14:37:17Z</time>
      </trkpt>
      <trkpt lat="46.4041440" lon="3.2641020">
        <ele>278.2</ele>
        <time>2020-07-04T14:37:21Z</time>
      </trkpt>
      <trkpt lat="46.4039770" lon="3.2641190">
        <ele>277.6</ele>
        <time>2020-07-04T14:37:24Z</time>
      </trkpt>
      <trkpt lat="46.4039190" lon="3.2641230">
        <ele>277.6</ele>
        <time>2020-07-04T14:37:25Z</time>
      </trkpt>
      <trkpt lat="46.4036150" lon="3.2641470">
        <ele>276.0</ele>
        <time>2020-07-04T14:37:30Z</time>
      </trkpt>
      <trkpt lat="46.4032930" lon="3.2641790">
        <ele>275.0</ele>
        <time>2020-07-04T14:37:35Z</time>
      </trkpt>
      <trkpt lat="46.4027480" lon="3.2642130">
        <ele>272.6</ele>
        <time>2020-07-04T14:37:43Z</time>
      </trkpt>
      <trkpt lat="46.4026110" lon="3.2642240">
        <ele>271.8</ele>
        <time>2020-07-04T14:37:45Z</time>
      </trkpt>
      <trkpt lat="46.4023150" lon="3.2642680">
        <ele>271.2</ele>
        <time>2020-07-04T14:37:49Z</time>
      </trkpt>
      <trkpt lat="46.4020160" lon="3.2643080">
        <ele>270.0</ele>
        <time>2020-07-04T14:37:53Z</time>
      </trkpt>
      <trkpt lat="46.4017890" lon="3.2643290">
        <ele>269.0</ele>
        <time>2020-07-04T14:37:56Z</time>
      </trkpt>
      <trkpt lat="46.4016500" lon="3.2643460">
        <ele>268.8</ele>
        <time>2020-07-04T14:37:58Z</time>
      </trkpt>
      <trkpt lat="46.4015250" lon="3.2643610">
        <ele>268.8</ele>
        <time>2020-07-04T14:38:00Z</time>
      </trkpt>
      <trkpt lat="46.4014170" lon="3.2643730">
        <ele>268.8</ele>
        <time>2020-07-04T14:38:02Z</time>
      </trkpt>
      <trkpt lat="46.4012780" lon="3.2643850">
        <ele>268.8</ele>
        <time>2020-07-04T14:38:05Z</time>
      </trkpt>
      <trkpt lat="46.4011280" lon="3.2643940">
        <ele>269.4</ele>
        <time>2020-07-04T14:38:09Z</time>
      </trkpt>
      <trkpt lat="46.4010070" lon="3.2644130">
        <ele>271.0</ele>
        <time>2020-07-04T14:38:13Z</time>
      </trkpt>
      <trkpt lat="46.4009060" lon="3.2644470">
        <ele>271.8</ele>
        <time>2020-07-04T14:38:17Z</time>
      </trkpt>
      <trkpt lat="46.4007870" lon="3.2645070">
        <ele>273.4</ele>
        <time>2020-07-04T14:38:22Z</time>
      </trkpt>
      <trkpt lat="46.4005900" lon="3.2646390">
        <ele>274.6</ele>
        <time>2020-07-04T14:38:30Z</time>
      </trkpt>
      <trkpt lat="46.4005430" lon="3.2646820">
        <ele>274.6</ele>
        <time>2020-07-04T14:38:32Z</time>
      </trkpt>
      <trkpt lat="46.4003140" lon="3.2648870">
        <ele>275.8</ele>
        <time>2020-07-04T14:38:41Z</time>
      </trkpt>
      <trkpt lat="46.4000560" lon="3.2651060">
        <ele>276.0</ele>
        <time>2020-07-04T14:38:49Z</time>
      </trkpt>
      <trkpt lat="46.3998150" lon="3.2652480">
        <ele>275.8</ele>
        <time>2020-07-04T14:38:55Z</time>
      </trkpt>
      <trkpt lat="46.3997260" lon="3.2652760">
        <ele>276.0</ele>
        <time>2020-07-04T14:38:57Z</time>
      </trkpt>
      <trkpt lat="46.3993650" lon="3.2653170">
        <ele>275.4</ele>
        <time>2020-07-04T14:39:04Z</time>
      </trkpt>
      <trkpt lat="46.3991070" lon="3.2652780">
        <ele>274.8</ele>
        <time>2020-07-04T14:39:09Z</time>
      </trkpt>
      <trkpt lat="46.3989610" lon="3.2652420">
        <ele>274.4</ele>
        <time>2020-07-04T14:39:12Z</time>
      </trkpt>
      <trkpt lat="46.3985820" lon="3.2651380">
        <ele>274.2</ele>
        <time>2020-07-04T14:39:21Z</time>
      </trkpt>
      <trkpt lat="46.3985400" lon="3.2651240">
        <ele>274.2</ele>
        <time>2020-07-04T14:39:22Z</time>
      </trkpt>
      <trkpt lat="46.3982950" lon="3.2650440">
        <ele>274.8</ele>
        <time>2020-07-04T14:39:29Z</time>
      </trkpt>
      <trkpt lat="46.3979500" lon="3.2649420">
        <ele>277.0</ele>
        <time>2020-07-04T14:39:40Z</time>
      </trkpt>
      <trkpt lat="46.3977360" lon="3.2648870">
        <ele>277.6</ele>
        <time>2020-07-04T14:39:47Z</time>
      </trkpt>
      <trkpt lat="46.3976220" lon="3.2648560">
        <ele>278.4</ele>
        <time>2020-07-04T14:39:51Z</time>
      </trkpt>
      <trkpt lat="46.3974190" lon="3.2648000">
        <ele>279.4</ele>
        <time>2020-07-04T14:39:58Z</time>
      </trkpt>
      <trkpt lat="46.3973330" lon="3.2647700">
        <ele>279.6</ele>
        <time>2020-07-04T14:40:01Z</time>
      </trkpt>
      <trkpt lat="46.3972270" lon="3.2647360">
        <ele>280.4</ele>
        <time>2020-07-04T14:40:05Z</time>
      </trkpt>
      <trkpt lat="46.3970210" lon="3.2646590">
        <ele>281.6</ele>
        <time>2020-07-04T14:40:13Z</time>
      </trkpt>
      <trkpt lat="46.3968060" lon="3.2645850">
        <ele>282.8</ele>
        <time>2020-07-04T14:40:22Z</time>
      </trkpt>
      <trkpt lat="46.3967610" lon="3.2645760">
        <ele>283.2</ele>
        <time>2020-07-04T14:40:24Z</time>
      </trkpt>
      <trkpt lat="46.3965760" lon="3.2645320">
        <ele>283.8</ele>
        <time>2020-07-04T14:40:32Z</time>
      </trkpt>
      <trkpt lat="46.3965540" lon="3.2645260">
        <ele>284.0</ele>
        <time>2020-07-04T14:40:33Z</time>
      </trkpt>
      <trkpt lat="46.3964690" lon="3.2645010">
        <ele>285.2</ele>
        <time>2020-07-04T14:40:37Z</time>
      </trkpt>
      <trkpt lat="46.3963290" lon="3.2644500">
        <ele>286.0</ele>
        <time>2020-07-04T14:40:43Z</time>
      </trkpt>
      <trkpt lat="46.3962340" lon="3.2644160">
        <ele>286.6</ele>
        <time>2020-07-04T14:40:47Z</time>
      </trkpt>
      <trkpt lat="46.3960870" lon="3.2643750">
        <ele>287.4</ele>
        <time>2020-07-04T14:40:53Z</time>
      </trkpt>
      <trkpt lat="46.3959840" lon="3.2643460">
        <ele>287.8</ele>
        <time>2020-07-04T14:40:57Z</time>
      </trkpt>
      <trkpt lat="46.3958600" lon="3.2642970">
        <ele>288.4</ele>
        <time>2020-07-04T14:41:02Z</time>
      </trkpt>
      <trkpt lat="46.3957350" lon="3.2642650">
        <ele>289.0</ele>
        <time>2020-07-04T14:41:07Z</time>
      </trkpt>
      <trkpt lat="46.3956160" lon="3.2642480">
        <ele>289.6</ele>
        <time>2020-07-04T14:41:12Z</time>
      </trkpt>
      <trkpt lat="46.3955900" lon="3.2642470">
        <ele>289.6</ele>
        <time>2020-07-04T14:41:13Z</time>
      </trkpt>
      <trkpt lat="46.3953960" lon="3.2642400">
        <ele>290.6</ele>
        <time>2020-07-04T14:41:21Z</time>
      </trkpt>
      <trkpt lat="46.3950960" lon="3.2642940">
        <ele>291.6</ele>
        <time>2020-07-04T14:41:31Z</time>
      </trkpt>
      <trkpt lat="46.3947880" lon="3.2643610">
        <ele>291.4</ele>
        <time>2020-07-04T14:41:39Z</time>
      </trkpt>
      <trkpt lat="46.3945580" lon="3.2644300">
        <ele>291.2</ele>
        <time>2020-07-04T14:41:44Z</time>
      </trkpt>
      <trkpt lat="46.3943360" lon="3.2644820">
        <ele>290.8</ele>
        <time>2020-07-04T14:41:48Z</time>
      </trkpt>
      <trkpt lat="46.3942820" lon="3.2644950">
        <ele>290.8</ele>
        <time>2020-07-04T14:41:49Z</time>
      </trkpt>
      <trkpt lat="46.3941030" lon="3.2645480">
        <ele>290.4</ele>
        <time>2020-07-04T14:41:52Z</time>
      </trkpt>
      <trkpt lat="46.3939860" lon="3.2645880">
        <ele>290.0</ele>
        <time>2020-07-04T14:41:54Z</time>
      </trkpt>
      <trkpt lat="46.3939290" lon="3.2646110">
        <ele>289.8</ele>
        <time>2020-07-04T14:41:55Z</time>
      </trkpt>
      <trkpt lat="46.3938730" lon="3.2646340">
        <ele>289.8</ele>
        <time>2020-07-04T14:41:56Z</time>
      </trkpt>
      <trkpt lat="46.3937040" lon="3.2647010">
        <ele>289.6</ele>
        <time>2020-07-04T14:41:59Z</time>
      </trkpt>
      <trkpt lat="46.3934810" lon="3.2647830">
        <ele>289.2</ele>
        <time>2020-07-04T14:42:03Z</time>
      </trkpt>
      <trkpt lat="46.3932080" lon="3.2648670">
        <ele>288.8</ele>
        <time>2020-07-04T14:42:08Z</time>
      </trkpt>
      <trkpt lat="46.3929490" lon="3.2649330">
        <ele>288.2</ele>
        <time>2020-07-04T14:42:13Z</time>
      </trkpt>
      <trkpt lat="46.3927530" lon="3.2649850">
        <ele>287.8</ele>
        <time>2020-07-04T14:42:17Z</time>
      </trkpt>
      <trkpt lat="46.3922900" lon="3.2650960">
        <ele>287.2</ele>
        <time>2020-07-04T14:42:26Z</time>
      </trkpt>
      <trkpt lat="46.3922360" lon="3.2651130">
        <ele>287.0</ele>
        <time>2020-07-04T14:42:27Z</time>
      </trkpt>
      <trkpt lat="46.3916920" lon="3.2652800">
        <ele>286.0</ele>
        <time>2020-07-04T14:42:37Z</time>
      </trkpt>
      <trkpt lat="46.3916310" lon="3.2652980">
        <ele>285.8</ele>
        <time>2020-07-04T14:42:38Z</time>
      </trkpt>
      <trkpt lat="46.3911530" lon="3.2654390">
        <ele>285.2</ele>
        <time>2020-07-04T14:42:46Z</time>
      </trkpt>
      <trkpt lat="46.3908590" lon="3.2655270">
        <ele>284.8</ele>
        <time>2020-07-04T14:42:51Z</time>
      </trkpt>
      <trkpt lat="46.3905510" lon="3.2656110">
        <ele>284.4</ele>
        <time>2020-07-04T14:42:56Z</time>
      </trkpt>
      <trkpt lat="46.3904260" lon="3.2656440">
        <ele>284.2</ele>
        <time>2020-07-04T14:42:58Z</time>
      </trkpt>
      <trkpt lat="46.3902450" lon="3.2656960">
        <ele>284.2</ele>
        <time>2020-07-04T14:43:01Z</time>
      </trkpt>
      <trkpt lat="46.3900560" lon="3.2657510">
        <ele>284.0</ele>
        <time>2020-07-04T14:43:04Z</time>
      </trkpt>
      <trkpt lat="46.3898700" lon="3.2658000">
        <ele>283.8</ele>
        <time>2020-07-04T14:43:07Z</time>
      </trkpt>
      <trkpt lat="46.3896780" lon="3.2658590">
        <ele>283.6</ele>
        <time>2020-07-04T14:43:10Z</time>
      </trkpt>
      <trkpt lat="46.3890950" lon="3.2660280">
        <ele>282.0</ele>
        <time>2020-07-04T14:43:19Z</time>
      </trkpt>
      <trkpt lat="46.3890320" lon="3.2660460">
        <ele>281.8</ele>
        <time>2020-07-04T14:43:20Z</time>
      </trkpt>
      <trkpt lat="46.3886130" lon="3.2661490">
        <ele>281.6</ele>
        <time>2020-07-04T14:43:27Z</time>
      </trkpt>
      <trkpt lat="46.3882550" lon="3.2662580">
        <ele>281.8</ele>
        <time>2020-07-04T14:43:33Z</time>
      </trkpt>
      <trkpt lat="46.3880940" lon="3.2663080">
        <ele>282.0</ele>
        <time>2020-07-04T14:43:36Z</time>
      </trkpt>
      <trkpt lat="46.3880400" lon="3.2663230">
        <ele>282.0</ele>
        <time>2020-07-04T14:43:37Z</time>
      </trkpt>
      <trkpt lat="46.3875450" lon="3.2664750">
        <ele>284.0</ele>
        <time>2020-07-04T14:43:47Z</time>
      </trkpt>
      <trkpt lat="46.3875000" lon="3.2664840">
        <ele>284.2</ele>
        <time>2020-07-04T14:43:48Z</time>
      </trkpt>
      <trkpt lat="46.3872000" lon="3.2665730">
        <ele>285.0</ele>
        <time>2020-07-04T14:43:55Z</time>
      </trkpt>
      <trkpt lat="46.3870770" lon="3.2666110">
        <ele>285.4</ele>
        <time>2020-07-04T14:43:58Z</time>
      </trkpt>
      <trkpt lat="46.3866260" lon="3.2667360">
        <ele>286.6</ele>
        <time>2020-07-04T14:44:09Z</time>
      </trkpt>
      <trkpt lat="46.3861940" lon="3.2668550">
        <ele>287.8</ele>
        <time>2020-07-04T14:44:19Z</time>
      </trkpt>
      <trkpt lat="46.3860060" lon="3.2668940">
        <ele>287.8</ele>
        <time>2020-07-04T14:44:23Z</time>
      </trkpt>
      <trkpt lat="46.3858030" lon="3.2669320">
        <ele>287.8</ele>
        <time>2020-07-04T14:44:27Z</time>
      </trkpt>
      <trkpt lat="46.3857490" lon="3.2669440">
        <ele>287.8</ele>
        <time>2020-07-04T14:44:28Z</time>
      </trkpt>
      <trkpt lat="46.3856950" lon="3.2669530">
        <ele>287.8</ele>
        <time>2020-07-04T14:44:29Z</time>
      </trkpt>
      <trkpt lat="46.3854220" lon="3.2669860">
        <ele>287.2</ele>
        <time>2020-07-04T14:44:33Z</time>
      </trkpt>
      <trkpt lat="46.3853450" lon="3.2669990">
        <ele>287.0</ele>
        <time>2020-07-04T14:44:34Z</time>
      </trkpt>
      <trkpt lat="46.3850080" lon="3.2670490">
        <ele>285.8</ele>
        <time>2020-07-04T14:44:38Z</time>
      </trkpt>
      <trkpt lat="46.3849210" lon="3.2670640">
        <ele>285.0</ele>
        <time>2020-07-04T14:44:39Z</time>
      </trkpt>
      <trkpt lat="46.3846390" lon="3.2671030">
        <ele>283.8</ele>
        <time>2020-07-04T14:44:42Z</time>
      </trkpt>
      <trkpt lat="46.3843500" lon="3.2671410">
        <ele>281.8</ele>
        <time>2020-07-04T14:44:45Z</time>
      </trkpt>
      <trkpt lat="46.3841630" lon="3.2671680">
        <ele>281.2</ele>
        <time>2020-07-04T14:44:47Z</time>
      </trkpt>
      <trkpt lat="46.3837470" lon="3.2672250">
        <ele>278.2</ele>
        <time>2020-07-04T14:44:52Z</time>
      </trkpt>
      <trkpt lat="46.3836710" lon="3.2672370">
        <ele>277.8</ele>
        <time>2020-07-04T14:44:53Z</time>
      </trkpt>
      <trkpt lat="46.3833910" lon="3.2672950">
        <ele>277.4</ele>
        <time>2020-07-04T14:44:57Z</time>
      </trkpt>
      <trkpt lat="46.3833330" lon="3.2673000">
        <ele>277.6</ele>
        <time>2020-07-04T14:44:58Z</time>
      </trkpt>
      <trkpt lat="46.3829760" lon="3.2673520">
        <ele>278.6</ele>
        <time>2020-07-04T14:45:05Z</time>
      </trkpt>
      <trkpt lat="46.3825850" lon="3.2674060">
        <ele>279.6</ele>
        <time>2020-07-04T14:45:13Z</time>
      </trkpt>
      <trkpt lat="46.3822950" lon="3.2674530">
        <ele>280.4</ele>
        <time>2020-07-04T14:45:19Z</time>
      </trkpt>
      <trkpt lat="46.3817200" lon="3.2675360">
        <ele>281.4</ele>
        <time>2020-07-04T14:45:30Z</time>
      </trkpt>
      <trkpt lat="46.3816630" lon="3.2675440">
        <ele>281.4</ele>
        <time>2020-07-04T14:45:31Z</time>
      </trkpt>
      <trkpt lat="46.3815460" lon="3.2675590">
        <ele>281.4</ele>
        <time>2020-07-04T14:45:33Z</time>
      </trkpt>
      <trkpt lat="46.3813650" lon="3.2675830">
        <ele>281.4</ele>
        <time>2020-07-04T14:45:36Z</time>
      </trkpt>
      <trkpt lat="46.3812370" lon="3.2676020">
        <ele>281.0</ele>
        <time>2020-07-04T14:45:38Z</time>
      </trkpt>
      <trkpt lat="46.3810390" lon="3.2676350">
        <ele>280.4</ele>
        <time>2020-07-04T14:45:41Z</time>
      </trkpt>
      <trkpt lat="46.3809710" lon="3.2676460">
        <ele>280.2</ele>
        <time>2020-07-04T14:45:42Z</time>
      </trkpt>
      <trkpt lat="46.3806240" lon="3.2677000">
        <ele>278.6</ele>
        <time>2020-07-04T14:45:47Z</time>
      </trkpt>
      <trkpt lat="46.3802670" lon="3.2677560">
        <ele>276.4</ele>
        <time>2020-07-04T14:45:52Z</time>
      </trkpt>
      <trkpt lat="46.3801970" lon="3.2677680">
        <ele>276.2</ele>
        <time>2020-07-04T14:45:53Z</time>
      </trkpt>
      <trkpt lat="46.3798330" lon="3.2678200">
        <ele>275.6</ele>
        <time>2020-07-04T14:45:59Z</time>
      </trkpt>
      <trkpt lat="46.3796120" lon="3.2678500">
        <ele>275.6</ele>
        <time>2020-07-04T14:46:03Z</time>
      </trkpt>
      <trkpt lat="46.3791240" lon="3.2679170">
        <ele>276.8</ele>
        <time>2020-07-04T14:46:12Z</time>
      </trkpt>
      <trkpt lat="46.3790200" lon="3.2679320">
        <ele>277.2</ele>
        <time>2020-07-04T14:46:14Z</time>
      </trkpt>
      <trkpt lat="46.3785130" lon="3.2680060">
        <ele>278.0</ele>
        <time>2020-07-04T14:46:24Z</time>
      </trkpt>
      <trkpt lat="46.3784180" lon="3.2680170">
        <ele>278.2</ele>
        <time>2020-07-04T14:46:26Z</time>
      </trkpt>
      <trkpt lat="46.3783250" lon="3.2680290">
        <ele>278.6</ele>
        <time>2020-07-04T14:46:28Z</time>
      </trkpt>
      <trkpt lat="46.3777490" lon="3.2681080">
        <ele>280.8</ele>
        <time>2020-07-04T14:46:41Z</time>
      </trkpt>
      <trkpt lat="46.3777080" lon="3.2681130">
        <ele>280.8</ele>
        <time>2020-07-04T14:46:42Z</time>
      </trkpt>
      <trkpt lat="46.3773070" lon="3.2681700">
        <ele>281.8</ele>
        <time>2020-07-04T14:46:52Z</time>
      </trkpt>
      <trkpt lat="46.3772710" lon="3.2681770">
        <ele>281.8</ele>
        <time>2020-07-04T14:46:53Z</time>
      </trkpt>
      <trkpt lat="46.3770480" lon="3.2682060">
        <ele>282.8</ele>
        <time>2020-07-04T14:46:59Z</time>
      </trkpt>
      <trkpt lat="46.3767460" lon="3.2682440">
        <ele>284.0</ele>
        <time>2020-07-04T14:47:07Z</time>
      </trkpt>
      <trkpt lat="46.3767080" lon="3.2682490">
        <ele>284.2</ele>
        <time>2020-07-04T14:47:08Z</time>
      </trkpt>
      <trkpt lat="46.3765650" lon="3.2682700">
        <ele>284.6</ele>
        <time>2020-07-04T14:47:12Z</time>
      </trkpt>
      <trkpt lat="46.3763290" lon="3.2682990">
        <ele>286.2</ele>
        <time>2020-07-04T14:47:19Z</time>
      </trkpt>
      <trkpt lat="46.3762620" lon="3.2682990">
        <ele>286.6</ele>
        <time>2020-07-04T14:47:21Z</time>
      </trkpt>
      <trkpt lat="46.3759660" lon="3.2682770">
        <ele>288.0</ele>
        <time>2020-07-04T14:47:30Z</time>
      </trkpt>
      <trkpt lat="46.3759330" lon="3.2682730">
        <ele>288.0</ele>
        <time>2020-07-04T14:47:31Z</time>
      </trkpt>
      <trkpt lat="46.3757370" lon="3.2682530">
        <ele>288.6</ele>
        <time>2020-07-04T14:47:37Z</time>
      </trkpt>
      <trkpt lat="46.3755770" lon="3.2682320">
        <ele>289.4</ele>
        <time>2020-07-04T14:47:42Z</time>
      </trkpt>
      <trkpt lat="46.3755120" lon="3.2682210">
        <ele>289.8</ele>
        <time>2020-07-04T14:47:44Z</time>
      </trkpt>
      <trkpt lat="46.3752580" lon="3.2681850">
        <ele>291.2</ele>
        <time>2020-07-04T14:47:52Z</time>
      </trkpt>
      <trkpt lat="46.3750730" lon="3.2681630">
        <ele>292.0</ele>
        <time>2020-07-04T14:47:58Z</time>
      </trkpt>
      <trkpt lat="46.3749140" lon="3.2681370">
        <ele>292.8</ele>
        <time>2020-07-04T14:48:03Z</time>
      </trkpt>
      <trkpt lat="46.3746970" lon="3.2681050">
        <ele>293.6</ele>
        <time>2020-07-04T14:48:10Z</time>
      </trkpt>
      <trkpt lat="46.3745810" lon="3.2680800">
        <ele>294.4</ele>
        <time>2020-07-04T14:48:14Z</time>
      </trkpt>
      <trkpt lat="46.3743110" lon="3.2680530">
        <ele>295.6</ele>
        <time>2020-07-04T14:48:23Z</time>
      </trkpt>
      <trkpt lat="46.3742470" lon="3.2680480">
        <ele>295.6</ele>
        <time>2020-07-04T14:48:25Z</time>
      </trkpt>
      <trkpt lat="46.3739260" lon="3.2680090">
        <ele>296.0</ele>
        <time>2020-07-04T14:48:34Z</time>
      </trkpt>
      <trkpt lat="46.3735480" lon="3.2679710">
        <ele>296.2</ele>
        <time>2020-07-04T14:48:42Z</time>
      </trkpt>
      <trkpt lat="46.3734450" lon="3.2679620">
        <ele>296.0</ele>
        <time>2020-07-04T14:48:44Z</time>
      </trkpt>
      <trkpt lat="46.3731510" lon="3.2679220">
        <ele>296.0</ele>
        <time>2020-07-04T14:48:49Z</time>
      </trkpt>
      <trkpt lat="46.3730840" lon="3.2679130">
        <ele>295.6</ele>
        <time>2020-07-04T14:48:50Z</time>
      </trkpt>
      <trkpt lat="46.3728080" lon="3.2678710">
        <ele>294.8</ele>
        <time>2020-07-04T14:48:54Z</time>
      </trkpt>
      <trkpt lat="46.3725140" lon="3.2678320">
        <ele>292.8</ele>
        <time>2020-07-04T14:48:58Z</time>
      </trkpt>
      <trkpt lat="46.3724370" lon="3.2678240">
        <ele>292.4</ele>
        <time>2020-07-04T14:48:59Z</time>
      </trkpt>
      <trkpt lat="46.3720540" lon="3.2677800">
        <ele>291.4</ele>
        <time>2020-07-04T14:49:04Z</time>
      </trkpt>
      <trkpt lat="46.3716750" lon="3.2677270">
        <ele>290.0</ele>
        <time>2020-07-04T14:49:09Z</time>
      </trkpt>
      <trkpt lat="46.3712230" lon="3.2676670">
        <ele>288.2</ele>
        <time>2020-07-04T14:49:15Z</time>
      </trkpt>
      <trkpt lat="46.3710690" lon="3.2676480">
        <ele>287.8</ele>
        <time>2020-07-04T14:49:17Z</time>
      </trkpt>
      <trkpt lat="46.3709180" lon="3.2676270">
        <ele>287.8</ele>
        <time>2020-07-04T14:49:19Z</time>
      </trkpt>
      <trkpt lat="46.3708430" lon="3.2676170">
        <ele>287.8</ele>
        <time>2020-07-04T14:49:20Z</time>
      </trkpt>
      <trkpt lat="46.3707690" lon="3.2676080">
        <ele>287.4</ele>
        <time>2020-07-04T14:49:21Z</time>
      </trkpt>
      <trkpt lat="46.3706960" lon="3.2675990">
        <ele>287.0</ele>
        <time>2020-07-04T14:49:22Z</time>
      </trkpt>
      <trkpt lat="46.3705520" lon="3.2675830">
        <ele>287.0</ele>
        <time>2020-07-04T14:49:24Z</time>
      </trkpt>
      <trkpt lat="46.3704120" lon="3.2675700">
        <ele>286.2</ele>
        <time>2020-07-04T14:49:26Z</time>
      </trkpt>
      <trkpt lat="46.3701600" lon="3.2675440">
        <ele>285.4</ele>
        <time>2020-07-04T14:49:30Z</time>
      </trkpt>
      <trkpt lat="46.3700260" lon="3.2675240">
        <ele>285.4</ele>
        <time>2020-07-04T14:49:34Z</time>
      </trkpt>
      <trkpt lat="46.3700080" lon="3.2675310">
        <ele>285.4</ele>
        <time>2020-07-04T14:49:36Z</time>
      </trkpt>
      <trkpt lat="46.3700140" lon="3.2675400">
        <ele>285.4</ele>
        <time>2020-07-04T14:49:38Z</time>
      </trkpt>
      <trkpt lat="46.3700470" lon="3.2675570">
        <ele>285.4</ele>
        <time>2020-07-04T14:49:40Z</time>
      </trkpt>
      <trkpt lat="46.3700650" lon="3.2675580">
        <ele>285.4</ele>
        <time>2020-07-04T14:49:41Z</time>
      </trkpt>
      <trkpt lat="46.3700970" lon="3.2675610">
        <ele>285.4</ele>
        <time>2020-07-04T14:49:43Z</time>
      </trkpt>
      <trkpt lat="46.3701220" lon="3.2675620">
        <ele>285.4</ele>
        <time>2020-07-04T14:49:44Z</time>
      </trkpt>
      <trkpt lat="46.3701470" lon="3.2675640">
        <ele>285.6</ele>
        <time>2020-07-04T14:49:45Z</time>
      </trkpt>
      <trkpt lat="46.3703330" lon="3.2675780">
        <ele>285.8</ele>
        <time>2020-07-04T14:49:51Z</time>
      </trkpt>
      <trkpt lat="46.3703660" lon="3.2675830">
        <ele>285.8</ele>
        <time>2020-07-04T14:49:52Z</time>
      </trkpt>
      <trkpt lat="46.3704560" lon="3.2675890">
        <ele>285.8</ele>
        <time>2020-07-04T14:49:55Z</time>
      </trkpt>
      <trkpt lat="46.3705870" lon="3.2676020">
        <ele>286.0</ele>
        <time>2020-07-04T14:50:00Z</time>
      </trkpt>
      <trkpt lat="46.3706450" lon="3.2676480">
        <ele>286.2</ele>
        <time>2020-07-04T14:50:03Z</time>
      </trkpt>
      <trkpt lat="46.3706540" lon="3.2676790">
        <ele>286.6</ele>
        <time>2020-07-04T14:50:04Z</time>
      </trkpt>
      <trkpt lat="46.3706570" lon="3.2679250">
        <ele>286.6</ele>
        <time>2020-07-04T14:50:10Z</time>
      </trkpt>
      <trkpt lat="46.3705950" lon="3.2683380">
        <ele>287.0</ele>
        <time>2020-07-04T14:50:18Z</time>
      </trkpt>
      <trkpt lat="46.3705800" lon="3.2684420">
        <ele>287.2</ele>
        <time>2020-07-04T14:50:20Z</time>
      </trkpt>
      <trkpt lat="46.3705700" lon="3.2684930">
        <ele>287.2</ele>
        <time>2020-07-04T14:50:21Z</time>
      </trkpt>
      <trkpt lat="46.3705420" lon="3.2687100">
        <ele>287.2</ele>
        <time>2020-07-04T14:50:25Z</time>
      </trkpt>
      <trkpt lat="46.3705300" lon="3.2688240">
        <ele>287.4</ele>
        <time>2020-07-04T14:50:27Z</time>
      </trkpt>
      <trkpt lat="46.3704170" lon="3.2695470">
        <ele>288.2</ele>
        <time>2020-07-04T14:50:40Z</time>
      </trkpt>
      <trkpt lat="46.3703660" lon="3.2696920">
        <ele>288.4</ele>
        <time>2020-07-04T14:50:43Z</time>
      </trkpt>
      <trkpt lat="46.3702830" lon="3.2699570">
        <ele>288.6</ele>
        <time>2020-07-04T14:50:49Z</time>
      </trkpt>
      <trkpt lat="46.3702060" lon="3.2701650">
        <ele>289.6</ele>
        <time>2020-07-04T14:50:55Z</time>
      </trkpt>
      <trkpt lat="46.3701840" lon="3.2702260">
        <ele>289.8</ele>
        <time>2020-07-04T14:50:57Z</time>
      </trkpt>
      <trkpt lat="46.3701540" lon="3.2703030">
        <ele>290.0</ele>
        <time>2020-07-04T14:51:00Z</time>
      </trkpt>
      <trkpt lat="46.3701430" lon="3.2703320">
        <ele>290.0</ele>
        <time>2020-07-04T14:51:01Z</time>
      </trkpt>
      <trkpt lat="46.3701260" lon="3.2703900">
        <ele>290.2</ele>
        <time>2020-07-04T14:51:03Z</time>
      </trkpt>
      <trkpt lat="46.3700900" lon="3.2705270">
        <ele>291.0</ele>
        <time>2020-07-04T14:51:08Z</time>
      </trkpt>
      <trkpt lat="46.3700710" lon="3.2706410">
        <ele>292.2</ele>
        <time>2020-07-04T14:51:12Z</time>
      </trkpt>
      <trkpt lat="46.3700670" lon="3.2708700">
        <ele>292.6</ele>
        <time>2020-07-04T14:51:19Z</time>
      </trkpt>
      <trkpt lat="46.3700790" lon="3.2710660">
        <ele>293.4</ele>
        <time>2020-07-04T14:51:25Z</time>
      </trkpt>
      <trkpt lat="46.3700820" lon="3.2711250">
        <ele>293.8</ele>
        <time>2020-07-04T14:51:27Z</time>
      </trkpt>
      <trkpt lat="46.3700940" lon="3.2713060">
        <ele>294.6</ele>
        <time>2020-07-04T14:51:34Z</time>
      </trkpt>
      <trkpt lat="46.3700990" lon="3.2713280">
        <ele>294.6</ele>
        <time>2020-07-04T14:51:35Z</time>
      </trkpt>
      <trkpt lat="46.3701040" lon="3.2713580">
        <ele>294.8</ele>
        <time>2020-07-04T14:51:36Z</time>
      </trkpt>
      <trkpt lat="46.3701040" lon="3.2714240">
        <ele>295.0</ele>
        <time>2020-07-04T14:51:38Z</time>
      </trkpt>
      <trkpt lat="46.3701290" lon="3.2715560">
        <ele>295.8</ele>
        <time>2020-07-04T14:51:44Z</time>
      </trkpt>
      <trkpt lat="46.3701360" lon="3.2715980">
        <ele>296.4</ele>
        <time>2020-07-04T14:51:50Z</time>
      </trkpt>
      <trkpt lat="46.3701320" lon="3.2715380">
        <ele>297.0</ele>
        <time>2020-07-04T14:52:03Z</time>
      </trkpt>
      <trkpt lat="46.3701280" lon="3.2715050">
        <ele>296.8</ele>
        <time>2020-07-04T14:52:04Z</time>
      </trkpt>
      <trkpt lat="46.3701170" lon="3.2713800">
        <ele>296.8</ele>
        <time>2020-07-04T14:52:07Z</time>
      </trkpt>
      <trkpt lat="46.3701140" lon="3.2713270">
        <ele>296.6</ele>
        <time>2020-07-04T14:52:08Z</time>
      </trkpt>
      <trkpt lat="46.3700840" lon="3.2710470">
        <ele>295.6</ele>
        <time>2020-07-04T14:52:12Z</time>
      </trkpt>
      <trkpt lat="46.3700710" lon="3.2709650">
        <ele>295.4</ele>
        <time>2020-07-04T14:52:13Z</time>
      </trkpt>
      <trkpt lat="46.3700680" lon="3.2708870">
        <ele>294.8</ele>
        <time>2020-07-04T14:52:14Z</time>
      </trkpt>
      <trkpt lat="46.3701070" lon="3.2704870">
        <ele>293.2</ele>
        <time>2020-07-04T14:52:19Z</time>
      </trkpt>
      <trkpt lat="46.3701300" lon="3.2703960">
        <ele>293.0</ele>
        <time>2020-07-04T14:52:20Z</time>
      </trkpt>
      <trkpt lat="46.3702650" lon="3.2699650">
        <ele>290.2</ele>
        <time>2020-07-04T14:52:25Z</time>
      </trkpt>
      <trkpt lat="46.3702860" lon="3.2698930">
        <ele>289.8</ele>
        <time>2020-07-04T14:52:26Z</time>
      </trkpt>
      <trkpt lat="46.3703340" lon="3.2697490">
        <ele>288.8</ele>
        <time>2020-07-04T14:52:29Z</time>
      </trkpt>
      <trkpt lat="46.3703290" lon="3.2697200">
        <ele>288.6</ele>
        <time>2020-07-04T14:52:30Z</time>
      </trkpt>
      <trkpt lat="46.3703000" lon="3.2697110">
        <ele>288.4</ele>
        <time>2020-07-04T14:52:32Z</time>
      </trkpt>
      <trkpt lat="46.3702840" lon="3.2697260">
        <ele>288.4</ele>
        <time>2020-07-04T14:52:33Z</time>
      </trkpt>
      <trkpt lat="46.3702270" lon="3.2698140">
        <ele>288.4</ele>
        <time>2020-07-04T14:52:37Z</time>
      </trkpt>
      <trkpt lat="46.3701330" lon="3.2700810">
        <ele>289.2</ele>
        <time>2020-07-04T14:52:44Z</time>
      </trkpt>
      <trkpt lat="46.3699840" lon="3.2705070">
        <ele>289.4</ele>
        <time>2020-07-04T14:52:54Z</time>
      </trkpt>
      <trkpt lat="46.3699710" lon="3.2705480">
        <ele>289.6</ele>
        <time>2020-07-04T14:52:55Z</time>
      </trkpt>
      <trkpt lat="46.3698460" lon="3.2709500">
        <ele>290.4</ele>
        <time>2020-07-04T14:53:04Z</time>
      </trkpt>
      <trkpt lat="46.3698180" lon="3.2710410">
        <ele>290.8</ele>
        <time>2020-07-04T14:53:06Z</time>
      </trkpt>
      <trkpt lat="46.3697430" lon="3.2712630">
        <ele>291.4</ele>
        <time>2020-07-04T14:53:11Z</time>
      </trkpt>
      <trkpt lat="46.3696270" lon="3.2716490">
        <ele>292.4</ele>
        <time>2020-07-04T14:53:20Z</time>
      </trkpt>
      <trkpt lat="46.3694840" lon="3.2721280">
        <ele>293.8</ele>
        <time>2020-07-04T14:53:32Z</time>
      </trkpt>
      <trkpt lat="46.3694630" lon="3.2722070">
        <ele>293.8</ele>
        <time>2020-07-04T14:53:34Z</time>
      </trkpt>
      <trkpt lat="46.3693730" lon="3.2726030">
        <ele>295.0</ele>
        <time>2020-07-04T14:53:44Z</time>
      </trkpt>
      <trkpt lat="46.3693450" lon="3.2727150">
        <ele>295.4</ele>
        <time>2020-07-04T14:53:47Z</time>
      </trkpt>
      <trkpt lat="46.3693160" lon="3.2728900">
        <ele>295.8</ele>
        <time>2020-07-04T14:53:52Z</time>
      </trkpt>
      <trkpt lat="46.3693010" lon="3.2730760">
        <ele>296.8</ele>
        <time>2020-07-04T14:53:58Z</time>
      </trkpt>
      <trkpt lat="46.3692960" lon="3.2731050">
        <ele>297.0</ele>
        <time>2020-07-04T14:53:59Z</time>
      </trkpt>
      <trkpt lat="46.3692570" lon="3.2733570">
        <ele>298.2</ele>
        <time>2020-07-04T14:54:07Z</time>
      </trkpt>
      <trkpt lat="46.3692520" lon="3.2733890">
        <ele>298.4</ele>
        <time>2020-07-04T14:54:08Z</time>
      </trkpt>
      <trkpt lat="46.3692320" lon="3.2736450">
        <ele>299.6</ele>
        <time>2020-07-04T14:54:16Z</time>
      </trkpt>
      <trkpt lat="46.3692330" lon="3.2737060">
        <ele>299.8</ele>
        <time>2020-07-04T14:54:18Z</time>
      </trkpt>
      <trkpt lat="46.3692230" lon="3.2738100">
        <ele>300.4</ele>
        <time>2020-07-04T14:54:22Z</time>
      </trkpt>
      <trkpt lat="46.3692250" lon="3.2739450">
        <ele>301.0</ele>
        <time>2020-07-04T14:54:27Z</time>
      </trkpt>
      <trkpt lat="46.3692340" lon="3.2740870">
        <ele>302.0</ele>
        <time>2020-07-04T14:54:32Z</time>
      </trkpt>
      <trkpt lat="46.3692410" lon="3.2741980">
        <ele>302.4</ele>
        <time>2020-07-04T14:54:36Z</time>
      </trkpt>
      <trkpt lat="46.3692480" lon="3.2742800">
        <ele>302.8</ele>
        <time>2020-07-04T14:54:39Z</time>
      </trkpt>
      <trkpt lat="46.3692480" lon="3.2744730">
        <ele>303.4</ele>
        <time>2020-07-04T14:54:46Z</time>
      </trkpt>
      <trkpt lat="46.3692370" lon="3.2746090">
        <ele>304.2</ele>
        <time>2020-07-04T14:54:52Z</time>
      </trkpt>
      <trkpt lat="46.3692320" lon="3.2746440">
        <ele>304.4</ele>
        <time>2020-07-04T14:54:54Z</time>
      </trkpt>
      <trkpt lat="46.3692240" lon="3.2747300">
        <ele>305.4</ele>
        <time>2020-07-04T14:54:59Z</time>
      </trkpt>
      <trkpt lat="46.3692200" lon="3.2747700">
        <ele>305.8</ele>
        <time>2020-07-04T14:55:02Z</time>
      </trkpt>
      <trkpt lat="46.3692020" lon="3.2747920">
        <ele>306.4</ele>
        <time>2020-07-04T14:55:04Z</time>
      </trkpt>
      <trkpt lat="46.3691730" lon="3.2748420">
        <ele>306.6</ele>
        <time>2020-07-04T14:55:07Z</time>
      </trkpt>
      <trkpt lat="46.3691610" lon="3.2748820">
        <ele>307.2</ele>
        <time>2020-07-04T14:55:09Z</time>
      </trkpt>
      <trkpt lat="46.3691570" lon="3.2749010">
        <ele>307.4</ele>
        <time>2020-07-04T14:55:10Z</time>
      </trkpt>
      <trkpt lat="46.3691200" lon="3.2750130">
        <ele>308.4</ele>
        <time>2020-07-04T14:55:16Z</time>
      </trkpt>
      <trkpt lat="46.3691130" lon="3.2750530">
        <ele>308.8</ele>
        <time>2020-07-04T14:55:18Z</time>
      </trkpt>
      <trkpt lat="46.3690810" lon="3.2751390">
        <ele>309.4</ele>
        <time>2020-07-04T14:55:22Z</time>
      </trkpt>
      <trkpt lat="46.3690470" lon="3.2752120">
        <ele>310.6</ele>
        <time>2020-07-04T14:55:26Z</time>
      </trkpt>
      <trkpt lat="46.3690290" lon="3.2752890">
        <ele>311.6</ele>
        <time>2020-07-04T14:55:30Z</time>
      </trkpt>
      <trkpt lat="46.3689950" lon="3.2753540">
        <ele>312.4</ele>
        <time>2020-07-04T14:55:33Z</time>
      </trkpt>
      <trkpt lat="46.3689410" lon="3.2754850">
        <ele>313.4</ele>
        <time>2020-07-04T14:55:38Z</time>
      </trkpt>
      <trkpt lat="46.3688980" lon="3.2756440">
        <ele>314.4</ele>
        <time>2020-07-04T14:55:43Z</time>
      </trkpt>
      <trkpt lat="46.3688720" lon="3.2757260">
        <ele>315.0</ele>
        <time>2020-07-04T14:55:47Z</time>
      </trkpt>
      <trkpt lat="46.3688450" lon="3.2757700">
        <ele>315.2</ele>
        <time>2020-07-04T14:55:50Z</time>
      </trkpt>
      <trkpt lat="46.3688130" lon="3.2758340">
        <ele>315.8</ele>
        <time>2020-07-04T14:55:58Z</time>
      </trkpt>
      <trkpt lat="46.3688040" lon="3.2758830">
        <ele>315.8</ele>
        <time>2020-07-04T14:56:00Z</time>
      </trkpt>
      <trkpt lat="46.3688000" lon="3.2759790">
        <ele>315.8</ele>
        <time>2020-07-04T14:56:03Z</time>
      </trkpt>
      <trkpt lat="46.3687730" lon="3.2763840">
        <ele>315.8</ele>
        <time>2020-07-04T14:56:13Z</time>
      </trkpt>
      <trkpt lat="46.3687310" lon="3.2767410">
        <ele>315.4</ele>
        <time>2020-07-04T14:56:20Z</time>
      </trkpt>
      <trkpt lat="46.3687280" lon="3.2768020">
        <ele>315.4</ele>
        <time>2020-07-04T14:56:21Z</time>
      </trkpt>
      <trkpt lat="46.3687030" lon="3.2770820">
        <ele>315.2</ele>
        <time>2020-07-04T14:56:25Z</time>
      </trkpt>
      <trkpt lat="46.3686980" lon="3.2771530">
        <ele>315.0</ele>
        <time>2020-07-04T14:56:26Z</time>
      </trkpt>
      <trkpt lat="46.3686940" lon="3.2772220">
        <ele>314.8</ele>
        <time>2020-07-04T14:56:27Z</time>
      </trkpt>
      <trkpt lat="46.3686850" lon="3.2773610">
        <ele>314.8</ele>
        <time>2020-07-04T14:56:29Z</time>
      </trkpt>
      <trkpt lat="46.3686170" lon="3.2780300">
        <ele>313.2</ele>
        <time>2020-07-04T14:56:39Z</time>
      </trkpt>
      <trkpt lat="46.3685990" lon="3.2781660">
        <ele>313.2</ele>
        <time>2020-07-04T14:56:41Z</time>
      </trkpt>
      <trkpt lat="46.3685920" lon="3.2782300">
        <ele>313.2</ele>
        <time>2020-07-04T14:56:42Z</time>
      </trkpt>
      <trkpt lat="46.3685380" lon="3.2787050">
        <ele>313.0</ele>
        <time>2020-07-04T14:56:49Z</time>
      </trkpt>
      <trkpt lat="46.3685340" lon="3.2787730">
        <ele>313.0</ele>
        <time>2020-07-04T14:56:50Z</time>
      </trkpt>
      <trkpt lat="46.3685090" lon="3.2790580">
        <ele>313.0</ele>
        <time>2020-07-04T14:56:54Z</time>
      </trkpt>
      <trkpt lat="46.3684690" lon="3.2794990">
        <ele>311.8</ele>
        <time>2020-07-04T14:57:00Z</time>
      </trkpt>
      <trkpt lat="46.3684490" lon="3.2797350">
        <ele>311.4</ele>
        <time>2020-07-04T14:57:03Z</time>
      </trkpt>
      <trkpt lat="46.3684000" lon="3.2801320">
        <ele>310.6</ele>
        <time>2020-07-04T14:57:08Z</time>
      </trkpt>
      <trkpt lat="46.3683360" lon="3.2806540">
        <ele>309.6</ele>
        <time>2020-07-04T14:57:15Z</time>
      </trkpt>
      <trkpt lat="46.3683240" lon="3.2808010">
        <ele>309.6</ele>
        <time>2020-07-04T14:57:17Z</time>
      </trkpt>
      <trkpt lat="46.3683150" lon="3.2810300">
        <ele>309.2</ele>
        <time>2020-07-04T14:57:20Z</time>
      </trkpt>
      <trkpt lat="46.3683070" lon="3.2811820">
        <ele>309.4</ele>
        <time>2020-07-04T14:57:22Z</time>
      </trkpt>
      <trkpt lat="46.3682580" lon="3.2816820">
        <ele>309.0</ele>
        <time>2020-07-04T14:57:29Z</time>
      </trkpt>
      <trkpt lat="46.3682480" lon="3.2818300">
        <ele>309.0</ele>
        <time>2020-07-04T14:57:31Z</time>
      </trkpt>
      <trkpt lat="46.3682290" lon="3.2820340">
        <ele>309.0</ele>
        <time>2020-07-04T14:57:34Z</time>
      </trkpt>
      <trkpt lat="46.3681850" lon="3.2824650">
        <ele>309.6</ele>
        <time>2020-07-04T14:57:41Z</time>
      </trkpt>
      <trkpt lat="46.3681760" lon="3.2825730">
        <ele>310.0</ele>
        <time>2020-07-04T14:57:43Z</time>
      </trkpt>
      <trkpt lat="46.3681370" lon="3.2829710">
        <ele>311.2</ele>
        <time>2020-07-04T14:57:50Z</time>
      </trkpt>
      <trkpt lat="46.3681250" lon="3.2833700">
        <ele>311.6</ele>
        <time>2020-07-04T14:57:56Z</time>
      </trkpt>
      <trkpt lat="46.3681310" lon="3.2836280">
        <ele>312.0</ele>
        <time>2020-07-04T14:58:00Z</time>
      </trkpt>
      <trkpt lat="46.3681360" lon="3.2839460">
        <ele>312.4</ele>
        <time>2020-07-04T14:58:05Z</time>
      </trkpt>
      <trkpt lat="46.3681370" lon="3.2840100">
        <ele>312.6</ele>
        <time>2020-07-04T14:58:06Z</time>
      </trkpt>
      <trkpt lat="46.3681310" lon="3.2843090">
        <ele>312.8</ele>
        <time>2020-07-04T14:58:11Z</time>
      </trkpt>
      <trkpt lat="46.3681180" lon="3.2844000">
        <ele>312.6</ele>
        <time>2020-07-04T14:58:13Z</time>
      </trkpt>
      <trkpt lat="46.3681060" lon="3.2844350">
        <ele>312.6</ele>
        <time>2020-07-04T14:58:14Z</time>
      </trkpt>
      <trkpt lat="46.3680860" lon="3.2844620">
        <ele>312.8</ele>
        <time>2020-07-04T14:58:15Z</time>
      </trkpt>
      <trkpt lat="46.3679840" lon="3.2844790">
        <ele>312.6</ele>
        <time>2020-07-04T14:58:19Z</time>
      </trkpt>
      <trkpt lat="46.3679260" lon="3.2844700">
        <ele>312.6</ele>
        <time>2020-07-04T14:58:21Z</time>
      </trkpt>
      <trkpt lat="46.3678980" lon="3.2844660">
        <ele>312.6</ele>
        <time>2020-07-04T14:58:22Z</time>
      </trkpt>
      <trkpt lat="46.3678420" lon="3.2844520">
        <ele>312.6</ele>
        <time>2020-07-04T14:58:24Z</time>
      </trkpt>
      <trkpt lat="46.3677140" lon="3.2844420">
        <ele>312.6</ele>
        <time>2020-07-04T14:58:28Z</time>
      </trkpt>
      <trkpt lat="46.3675130" lon="3.2844190">
        <ele>312.6</ele>
        <time>2020-07-04T14:58:34Z</time>
      </trkpt>
      <trkpt lat="46.3674830" lon="3.2844170">
        <ele>312.8</ele>
        <time>2020-07-04T14:58:35Z</time>
      </trkpt>
      <trkpt lat="46.3674270" lon="3.2844220">
        <ele>312.6</ele>
        <time>2020-07-04T14:58:37Z</time>
      </trkpt>
      <trkpt lat="46.3674010" lon="3.2844230">
        <ele>312.6</ele>
        <time>2020-07-04T14:58:38Z</time>
      </trkpt>
      <trkpt lat="46.3672990" lon="3.2844190">
        <ele>313.0</ele>
        <time>2020-07-04T14:58:43Z</time>
      </trkpt>
      <trkpt lat="46.3672450" lon="3.2844190">
        <ele>312.8</ele>
        <time>2020-07-04T14:58:46Z</time>
      </trkpt>
      <trkpt lat="46.3671010" lon="3.2844100">
        <ele>312.8</ele>
        <time>2020-07-04T14:58:51Z</time>
      </trkpt>
      <trkpt lat="46.3669320" lon="3.2845010">
        <ele>313.0</ele>
        <time>2020-07-04T14:58:57Z</time>
      </trkpt>
      <trkpt lat="46.3669320" lon="3.2846620">
        <ele>313.4</ele>
        <time>2020-07-04T14:59:02Z</time>
      </trkpt>
      <trkpt lat="46.3669510" lon="3.2850590">
        <ele>313.4</ele>
        <time>2020-07-04T14:59:12Z</time>
      </trkpt>
      <trkpt lat="46.3669690" lon="3.2856630">
        <ele>313.2</ele>
        <time>2020-07-04T14:59:24Z</time>
      </trkpt>
      <trkpt lat="46.3669770" lon="3.2857790">
        <ele>313.0</ele>
        <time>2020-07-04T14:59:26Z</time>
      </trkpt>
      <trkpt lat="46.3670010" lon="3.2859920">
        <ele>312.8</ele>
        <time>2020-07-04T14:59:30Z</time>
      </trkpt>
      <trkpt lat="46.3670400" lon="3.2867890">
        <ele>312.0</ele>
        <time>2020-07-04T14:59:45Z</time>
      </trkpt>
      <trkpt lat="46.3670480" lon="3.2868950">
        <ele>312.0</ele>
        <time>2020-07-04T14:59:47Z</time>
      </trkpt>
      <trkpt lat="46.3670260" lon="3.2871290">
        <ele>311.8</ele>
        <time>2020-07-04T14:59:53Z</time>
      </trkpt>
      <trkpt lat="46.3668050" lon="3.2871010">
        <ele>312.4</ele>
        <time>2020-07-04T15:00:02Z</time>
      </trkpt>
      <trkpt lat="46.3667510" lon="3.2870800">
        <ele>312.8</ele>
        <time>2020-07-04T15:00:04Z</time>
      </trkpt>
      <trkpt lat="46.3667230" lon="3.2870690">
        <ele>312.8</ele>
        <time>2020-07-04T15:00:05Z</time>
      </trkpt>
      <trkpt lat="46.3665580" lon="3.2870040">
        <ele>312.8</ele>
        <time>2020-07-04T15:00:11Z</time>
      </trkpt>
      <trkpt lat="46.3665300" lon="3.2869910">
        <ele>313.0</ele>
        <time>2020-07-04T15:00:12Z</time>
      </trkpt>
      <trkpt lat="46.3664770" lon="3.2869770">
        <ele>313.0</ele>
        <time>2020-07-04T15:00:14Z</time>
      </trkpt>
      <trkpt lat="46.3664500" lon="3.2869700">
        <ele>313.2</ele>
        <time>2020-07-04T15:00:15Z</time>
      </trkpt>
      <trkpt lat="46.3663270" lon="3.2869330">
        <ele>313.2</ele>
        <time>2020-07-04T15:00:22Z</time>
      </trkpt>
      <trkpt lat="46.3663480" lon="3.2870130">
        <ele>313.4</ele>
        <time>2020-07-04T15:00:30Z</time>
      </trkpt>
      <trkpt lat="46.3663790" lon="3.2870410">
        <ele>313.4</ele>
        <time>2020-07-04T15:00:32Z</time>
      </trkpt>
      <trkpt lat="46.3664500" lon="3.2870770">
        <ele>313.4</ele>
        <time>2020-07-04T15:00:35Z</time>
      </trkpt>
      <trkpt lat="46.3666930" lon="3.2871400">
        <ele>312.8</ele>
        <time>2020-07-04T15:00:43Z</time>
      </trkpt>
      <trkpt lat="46.3668220" lon="3.2871960">
        <ele>312.6</ele>
        <time>2020-07-04T15:00:49Z</time>
      </trkpt>
      <trkpt lat="46.3668540" lon="3.2872440">
        <ele>312.8</ele>
        <time>2020-07-04T15:00:56Z</time>
      </trkpt>
      <trkpt lat="46.3668510" lon="3.2872670">
        <ele>313.0</ele>
        <time>2020-07-04T15:00:57Z</time>
      </trkpt>
      <trkpt lat="46.3668170" lon="3.2874000">
        <ele>313.0</ele>
        <time>2020-07-04T15:01:01Z</time>
      </trkpt>
      <trkpt lat="46.3667750" lon="3.2875700">
        <ele>313.0</ele>
        <time>2020-07-04T15:01:05Z</time>
      </trkpt>
      <trkpt lat="46.3667440" lon="3.2876940">
        <ele>312.8</ele>
        <time>2020-07-04T15:01:08Z</time>
      </trkpt>
      <trkpt lat="46.3666670" lon="3.2881230">
        <ele>312.4</ele>
        <time>2020-07-04T15:01:19Z</time>
      </trkpt>
      <trkpt lat="46.3666780" lon="3.2884530">
        <ele>312.4</ele>
        <time>2020-07-04T15:01:26Z</time>
      </trkpt>
      <trkpt lat="46.3666090" lon="3.2888270">
        <ele>312.2</ele>
        <time>2020-07-04T15:01:34Z</time>
      </trkpt>
      <trkpt lat="46.3664760" lon="3.2893690">
        <ele>312.4</ele>
        <time>2020-07-04T15:01:45Z</time>
      </trkpt>
      <trkpt lat="46.3663450" lon="3.2900050">
        <ele>312.2</ele>
        <time>2020-07-04T15:01:57Z</time>
      </trkpt>
      <trkpt lat="46.3662150" lon="3.2905580">
        <ele>312.2</ele>
        <time>2020-07-04T15:02:07Z</time>
      </trkpt>
      <trkpt lat="46.3660620" lon="3.2912060">
        <ele>312.0</ele>
        <time>2020-07-04T15:02:19Z</time>
      </trkpt>
      <trkpt lat="46.3659810" lon="3.2915260">
        <ele>311.8</ele>
        <time>2020-07-04T15:02:25Z</time>
      </trkpt>
      <trkpt lat="46.3659110" lon="3.2917030">
        <ele>311.6</ele>
        <time>2020-07-04T15:02:29Z</time>
      </trkpt>
      <trkpt lat="46.3658330" lon="3.2917440">
        <ele>311.4</ele>
        <time>2020-07-04T15:02:33Z</time>
      </trkpt>
      <trkpt lat="46.3657840" lon="3.2917220">
        <ele>311.4</ele>
        <time>2020-07-04T15:02:36Z</time>
      </trkpt>
      <trkpt lat="46.3657200" lon="3.2916390">
        <ele>311.2</ele>
        <time>2020-07-04T15:02:40Z</time>
      </trkpt>
      <trkpt lat="46.3655410" lon="3.2913980">
        <ele>310.2</ele>
        <time>2020-07-04T15:02:48Z</time>
      </trkpt>
      <trkpt lat="46.3653270" lon="3.2911280">
        <ele>309.6</ele>
        <time>2020-07-04T15:02:55Z</time>
      </trkpt>
      <trkpt lat="46.3652700" lon="3.2910340">
        <ele>309.6</ele>
        <time>2020-07-04T15:02:57Z</time>
      </trkpt>
      <trkpt lat="46.3651740" lon="3.2908920">
        <ele>309.6</ele>
        <time>2020-07-04T15:03:00Z</time>
      </trkpt>
      <trkpt lat="46.3651060" lon="3.2907980">
        <ele>309.4</ele>
        <time>2020-07-04T15:03:02Z</time>
      </trkpt>
      <trkpt lat="46.3648910" lon="3.2905040">
        <ele>309.0</ele>
        <time>2020-07-04T15:03:08Z</time>
      </trkpt>
      <trkpt lat="46.3645920" lon="3.2900630">
        <ele>306.8</ele>
        <time>2020-07-04T15:03:16Z</time>
      </trkpt>
      <trkpt lat="46.3645520" lon="3.2900190">
        <ele>306.6</ele>
        <time>2020-07-04T15:03:17Z</time>
      </trkpt>
      <trkpt lat="46.3645060" lon="3.2899820">
        <ele>306.6</ele>
        <time>2020-07-04T15:03:18Z</time>
      </trkpt>
      <trkpt lat="46.3644600" lon="3.2899520">
        <ele>306.6</ele>
        <time>2020-07-04T15:03:19Z</time>
      </trkpt>
      <trkpt lat="46.3643710" lon="3.2899100">
        <ele>306.4</ele>
        <time>2020-07-04T15:03:21Z</time>
      </trkpt>
      <trkpt lat="46.3640680" lon="3.2898540">
        <ele>306.4</ele>
        <time>2020-07-04T15:03:28Z</time>
      </trkpt>
      <trkpt lat="46.3639490" lon="3.2898770">
        <ele>306.6</ele>
        <time>2020-07-04T15:03:31Z</time>
      </trkpt>
      <trkpt lat="46.3638160" lon="3.2899540">
        <ele>306.6</ele>
        <time>2020-07-04T15:03:35Z</time>
      </trkpt>
      <trkpt lat="46.3637280" lon="3.2901690">
        <ele>307.4</ele>
        <time>2020-07-04T15:03:40Z</time>
      </trkpt>
      <trkpt lat="46.3636490" lon="3.2905430">
        <ele>308.2</ele>
        <time>2020-07-04T15:03:47Z</time>
      </trkpt>
      <trkpt lat="46.3635960" lon="3.2907910">
        <ele>308.2</ele>
        <time>2020-07-04T15:03:51Z</time>
      </trkpt>
      <trkpt lat="46.3635830" lon="3.2908510">
        <ele>308.2</ele>
        <time>2020-07-04T15:03:52Z</time>
      </trkpt>
      <trkpt lat="46.3635230" lon="3.2911790">
        <ele>308.2</ele>
        <time>2020-07-04T15:03:57Z</time>
      </trkpt>
      <trkpt lat="46.3635100" lon="3.2912490">
        <ele>308.2</ele>
        <time>2020-07-04T15:03:58Z</time>
      </trkpt>
      <trkpt lat="46.3633930" lon="3.2918580">
        <ele>307.4</ele>
        <time>2020-07-04T15:04:08Z</time>
      </trkpt>
      <trkpt lat="46.3633820" lon="3.2919070">
        <ele>307.4</ele>
        <time>2020-07-04T15:04:09Z</time>
      </trkpt>
      <trkpt lat="46.3633460" lon="3.2921640">
        <ele>307.4</ele>
        <time>2020-07-04T15:04:14Z</time>
      </trkpt>
      <trkpt lat="46.3632120" lon="3.2924230">
        <ele>307.8</ele>
        <time>2020-07-04T15:04:21Z</time>
      </trkpt>
      <trkpt lat="46.3630250" lon="3.2927640">
        <ele>308.0</ele>
        <time>2020-07-04T15:04:28Z</time>
      </trkpt>
      <trkpt lat="46.3628770" lon="3.2930310">
        <ele>308.0</ele>
        <time>2020-07-04T15:04:33Z</time>
      </trkpt>
      <trkpt lat="46.3628460" lon="3.2930840">
        <ele>307.8</ele>
        <time>2020-07-04T15:04:34Z</time>
      </trkpt>
      <trkpt lat="46.3627210" lon="3.2932920">
        <ele>308.2</ele>
        <time>2020-07-04T15:04:38Z</time>
      </trkpt>
      <trkpt lat="46.3624490" lon="3.2936580">
        <ele>308.0</ele>
        <time>2020-07-04T15:04:46Z</time>
      </trkpt>
      <trkpt lat="46.3623770" lon="3.2937420">
        <ele>308.0</ele>
        <time>2020-07-04T15:04:48Z</time>
      </trkpt>
      <trkpt lat="46.3621460" lon="3.2940170">
        <ele>307.8</ele>
        <time>2020-07-04T15:04:55Z</time>
      </trkpt>
      <trkpt lat="46.3620400" lon="3.2941520">
        <ele>307.6</ele>
        <time>2020-07-04T15:04:58Z</time>
      </trkpt>
      <trkpt lat="46.3618080" lon="3.2944380">
        <ele>306.4</ele>
        <time>2020-07-04T15:05:04Z</time>
      </trkpt>
      <trkpt lat="46.3617290" lon="3.2945250">
        <ele>305.8</ele>
        <time>2020-07-04T15:05:06Z</time>
      </trkpt>
      <trkpt lat="46.3616420" lon="3.2946050">
        <ele>305.6</ele>
        <time>2020-07-04T15:05:08Z</time>
      </trkpt>
      <trkpt lat="46.3615970" lon="3.2946440">
        <ele>305.4</ele>
        <time>2020-07-04T15:05:09Z</time>
      </trkpt>
      <trkpt lat="46.3615110" lon="3.2947230">
        <ele>304.8</ele>
        <time>2020-07-04T15:05:11Z</time>
      </trkpt>
      <trkpt lat="46.3614690" lon="3.2947690">
        <ele>304.6</ele>
        <time>2020-07-04T15:05:12Z</time>
      </trkpt>
      <trkpt lat="46.3613820" lon="3.2948720">
        <ele>304.0</ele>
        <time>2020-07-04T15:05:14Z</time>
      </trkpt>
      <trkpt lat="46.3613340" lon="3.2949320">
        <ele>303.2</ele>
        <time>2020-07-04T15:05:15Z</time>
      </trkpt>
      <trkpt lat="46.3612850" lon="3.2949940">
        <ele>302.8</ele>
        <time>2020-07-04T15:05:16Z</time>
      </trkpt>
      <trkpt lat="46.3611830" lon="3.2951180">
        <ele>301.8</ele>
        <time>2020-07-04T15:05:18Z</time>
      </trkpt>
      <trkpt lat="46.3611330" lon="3.2951850">
        <ele>300.8</ele>
        <time>2020-07-04T15:05:19Z</time>
      </trkpt>
      <trkpt lat="46.3610840" lon="3.2952510">
        <ele>300.4</ele>
        <time>2020-07-04T15:05:20Z</time>
      </trkpt>
      <trkpt lat="46.3610340" lon="3.2953170">
        <ele>299.2</ele>
        <time>2020-07-04T15:05:21Z</time>
      </trkpt>
      <trkpt lat="46.3609380" lon="3.2954560">
        <ele>297.4</ele>
        <time>2020-07-04T15:05:23Z</time>
      </trkpt>
      <trkpt lat="46.3608440" lon="3.2955990">
        <ele>295.8</ele>
        <time>2020-07-04T15:05:25Z</time>
      </trkpt>
      <trkpt lat="46.3607960" lon="3.2956740">
        <ele>294.4</ele>
        <time>2020-07-04T15:05:26Z</time>
      </trkpt>
      <trkpt lat="46.3606980" lon="3.2958280">
        <ele>292.8</ele>
        <time>2020-07-04T15:05:28Z</time>
      </trkpt>
      <trkpt lat="46.3605390" lon="3.2960630">
        <ele>289.2</ele>
        <time>2020-07-04T15:05:31Z</time>
      </trkpt>
      <trkpt lat="46.3604870" lon="3.2961390">
        <ele>288.4</ele>
        <time>2020-07-04T15:05:32Z</time>
      </trkpt>
      <trkpt lat="46.3604370" lon="3.2962120">
        <ele>287.4</ele>
        <time>2020-07-04T15:05:33Z</time>
      </trkpt>
      <trkpt lat="46.3603070" lon="3.2964210">
        <ele>284.2</ele>
        <time>2020-07-04T15:05:36Z</time>
      </trkpt>
      <trkpt lat="46.3602770" lon="3.2964850">
        <ele>282.6</ele>
        <time>2020-07-04T15:05:37Z</time>
      </trkpt>
      <trkpt lat="46.3602550" lon="3.2965470">
        <ele>281.6</ele>
        <time>2020-07-04T15:05:38Z</time>
      </trkpt>
      <trkpt lat="46.3601820" lon="3.2967460">
        <ele>280.2</ele>
        <time>2020-07-04T15:05:41Z</time>
      </trkpt>
      <trkpt lat="46.3601520" lon="3.2968220">
        <ele>279.6</ele>
        <time>2020-07-04T15:05:42Z</time>
      </trkpt>
      <trkpt lat="46.3601170" lon="3.2968990">
        <ele>279.2</ele>
        <time>2020-07-04T15:05:43Z</time>
      </trkpt>
      <trkpt lat="46.3600400" lon="3.2970660">
        <ele>278.4</ele>
        <time>2020-07-04T15:05:45Z</time>
      </trkpt>
      <trkpt lat="46.3599170" lon="3.2973260">
        <ele>276.4</ele>
        <time>2020-07-04T15:05:48Z</time>
      </trkpt>
      <trkpt lat="46.3598740" lon="3.2974090">
        <ele>275.8</ele>
        <time>2020-07-04T15:05:49Z</time>
      </trkpt>
      <trkpt lat="46.3597760" lon="3.2975880">
        <ele>273.6</ele>
        <time>2020-07-04T15:05:51Z</time>
      </trkpt>
      <trkpt lat="46.3596700" lon="3.2977850">
        <ele>270.4</ele>
        <time>2020-07-04T15:05:53Z</time>
      </trkpt>
      <trkpt lat="46.3595590" lon="3.2979680">
        <ele>268.8</ele>
        <time>2020-07-04T15:05:55Z</time>
      </trkpt>
      <trkpt lat="46.3594450" lon="3.2981510">
        <ele>267.6</ele>
        <time>2020-07-04T15:05:57Z</time>
      </trkpt>
      <trkpt lat="46.3593250" lon="3.2983460">
        <ele>265.2</ele>
        <time>2020-07-04T15:05:59Z</time>
      </trkpt>
      <trkpt lat="46.3592000" lon="3.2985650">
        <ele>263.2</ele>
        <time>2020-07-04T15:06:01Z</time>
      </trkpt>
      <trkpt lat="46.3590750" lon="3.2988020">
        <ele>261.2</ele>
        <time>2020-07-04T15:06:03Z</time>
      </trkpt>
      <trkpt lat="46.3589450" lon="3.2990450">
        <ele>258.8</ele>
        <time>2020-07-04T15:06:05Z</time>
      </trkpt>
      <trkpt lat="46.3588050" lon="3.2992850">
        <ele>256.6</ele>
        <time>2020-07-04T15:06:07Z</time>
      </trkpt>
      <trkpt lat="46.3584540" lon="3.2998280">
        <ele>252.2</ele>
        <time>2020-07-04T15:06:12Z</time>
      </trkpt>
      <trkpt lat="46.3582450" lon="3.3001490">
        <ele>250.0</ele>
        <time>2020-07-04T15:06:16Z</time>
      </trkpt>
      <trkpt lat="46.3581980" lon="3.3002060">
        <ele>249.6</ele>
        <time>2020-07-04T15:06:17Z</time>
      </trkpt>
      <trkpt lat="46.3580910" lon="3.3002950">
        <ele>249.4</ele>
        <time>2020-07-04T15:06:19Z</time>
      </trkpt>
      <trkpt lat="46.3580330" lon="3.3003250">
        <ele>249.2</ele>
        <time>2020-07-04T15:06:20Z</time>
      </trkpt>
      <trkpt lat="46.3576710" lon="3.3003680">
        <ele>248.8</ele>
        <time>2020-07-04T15:06:26Z</time>
      </trkpt>
      <trkpt lat="46.3574130" lon="3.3003060">
        <ele>248.6</ele>
        <time>2020-07-04T15:06:30Z</time>
      </trkpt>
      <trkpt lat="46.3572780" lon="3.3002790">
        <ele>248.6</ele>
        <time>2020-07-04T15:06:32Z</time>
      </trkpt>
      <trkpt lat="46.3572080" lon="3.3002700">
        <ele>248.2</ele>
        <time>2020-07-04T15:06:33Z</time>
      </trkpt>
      <trkpt lat="46.3571350" lon="3.3002660">
        <ele>248.2</ele>
        <time>2020-07-04T15:06:34Z</time>
      </trkpt>
      <trkpt lat="46.3570610" lon="3.3002700">
        <ele>248.2</ele>
        <time>2020-07-04T15:06:35Z</time>
      </trkpt>
      <trkpt lat="46.3569140" lon="3.3003010">
        <ele>247.6</ele>
        <time>2020-07-04T15:06:37Z</time>
      </trkpt>
      <trkpt lat="46.3566970" lon="3.3003610">
        <ele>247.2</ele>
        <time>2020-07-04T15:06:40Z</time>
      </trkpt>
      <trkpt lat="46.3564870" lon="3.3004390">
        <ele>247.0</ele>
        <time>2020-07-04T15:06:43Z</time>
      </trkpt>
      <trkpt lat="46.3564240" lon="3.3004790">
        <ele>247.0</ele>
        <time>2020-07-04T15:06:44Z</time>
      </trkpt>
      <trkpt lat="46.3563660" lon="3.3005320">
        <ele>246.8</ele>
        <time>2020-07-04T15:06:45Z</time>
      </trkpt>
      <trkpt lat="46.3563120" lon="3.3005950">
        <ele>246.6</ele>
        <time>2020-07-04T15:06:46Z</time>
      </trkpt>
      <trkpt lat="46.3561770" lon="3.3008330">
        <ele>246.0</ele>
        <time>2020-07-04T15:06:49Z</time>
      </trkpt>
      <trkpt lat="46.3561390" lon="3.3009190">
        <ele>245.8</ele>
        <time>2020-07-04T15:06:50Z</time>
      </trkpt>
      <trkpt lat="46.3558990" lon="3.3015390">
        <ele>245.2</ele>
        <time>2020-07-04T15:06:57Z</time>
      </trkpt>
      <trkpt lat="46.3557240" lon="3.3019830">
        <ele>245.0</ele>
        <time>2020-07-04T15:07:02Z</time>
      </trkpt>
      <trkpt lat="46.3555190" lon="3.3024170">
        <ele>244.4</ele>
        <time>2020-07-04T15:07:07Z</time>
      </trkpt>
      <trkpt lat="46.3553310" lon="3.3027310">
        <ele>243.4</ele>
        <time>2020-07-04T15:07:11Z</time>
      </trkpt>
      <trkpt lat="46.3552850" lon="3.3028070">
        <ele>243.4</ele>
        <time>2020-07-04T15:07:12Z</time>
      </trkpt>
      <trkpt lat="46.3551950" lon="3.3029520">
        <ele>243.2</ele>
        <time>2020-07-04T15:07:14Z</time>
      </trkpt>
      <trkpt lat="46.3551530" lon="3.3030220">
        <ele>243.0</ele>
        <time>2020-07-04T15:07:15Z</time>
      </trkpt>
      <trkpt lat="46.3548170" lon="3.3035730">
        <ele>243.0</ele>
        <time>2020-07-04T15:07:24Z</time>
      </trkpt>
      <trkpt lat="46.3546730" lon="3.3037840">
        <ele>243.4</ele>
        <time>2020-07-04T15:07:28Z</time>
      </trkpt>
      <trkpt lat="46.3544760" lon="3.3040010">
        <ele>243.4</ele>
        <time>2020-07-04T15:07:33Z</time>
      </trkpt>
      <trkpt lat="46.3544360" lon="3.3040320">
        <ele>243.4</ele>
        <time>2020-07-04T15:07:34Z</time>
      </trkpt>
      <trkpt lat="46.3542640" lon="3.3040960">
        <ele>243.8</ele>
        <time>2020-07-04T15:07:38Z</time>
      </trkpt>
      <trkpt lat="46.3541440" lon="3.3041070">
        <ele>244.2</ele>
        <time>2020-07-04T15:07:42Z</time>
      </trkpt>
      <trkpt lat="46.3541270" lon="3.3041070">
        <ele>244.6</ele>
        <time>2020-07-04T15:07:43Z</time>
      </trkpt>
      <trkpt lat="46.3539440" lon="3.3041250">
        <ele>245.2</ele>
        <time>2020-07-04T15:07:52Z</time>
      </trkpt>
      <trkpt lat="46.3537430" lon="3.3042030">
        <ele>245.4</ele>
        <time>2020-07-04T15:07:59Z</time>
      </trkpt>
      <trkpt lat="46.3534770" lon="3.3043110">
        <ele>245.8</ele>
        <time>2020-07-04T15:08:09Z</time>
      </trkpt>
      <trkpt lat="46.3532720" lon="3.3044440">
        <ele>246.0</ele>
        <time>2020-07-04T15:08:16Z</time>
      </trkpt>
      <trkpt lat="46.3532040" lon="3.3044850">
        <ele>246.0</ele>
        <time>2020-07-04T15:08:18Z</time>
      </trkpt>
      <trkpt lat="46.3529480" lon="3.3045840">
        <ele>246.0</ele>
        <time>2020-07-04T15:08:25Z</time>
      </trkpt>
      <trkpt lat="46.3527660" lon="3.3046410">
        <ele>246.2</ele>
        <time>2020-07-04T15:08:30Z</time>
      </trkpt>
      <trkpt lat="46.3526690" lon="3.3046910">
        <ele>246.2</ele>
        <time>2020-07-04T15:08:32Z</time>
      </trkpt>
      <trkpt lat="46.3525850" lon="3.3047500">
        <ele>246.2</ele>
        <time>2020-07-04T15:08:34Z</time>
      </trkpt>
      <trkpt lat="46.3524770" lon="3.3048170">
        <ele>245.6</ele>
        <time>2020-07-04T15:08:37Z</time>
      </trkpt>
      <trkpt lat="46.3523590" lon="3.3048130">
        <ele>244.4</ele>
        <time>2020-07-04T15:08:42Z</time>
      </trkpt>
      <trkpt lat="46.3523020" lon="3.3048080">
        <ele>244.2</ele>
        <time>2020-07-04T15:08:45Z</time>
      </trkpt>
      <trkpt lat="46.3521920" lon="3.3048350">
        <ele>243.8</ele>
        <time>2020-07-04T15:08:49Z</time>
      </trkpt>
      <trkpt lat="46.3521150" lon="3.3048530">
        <ele>243.4</ele>
        <time>2020-07-04T15:08:54Z</time>
      </trkpt>
      <trkpt lat="46.3520540" lon="3.3048590">
        <ele>242.8</ele>
        <time>2020-07-04T15:09:00Z</time>
      </trkpt>
      <trkpt lat="46.3520440" lon="3.3048480">
        <ele>242.6</ele>
        <time>2020-07-04T15:09:01Z</time>
      </trkpt>
      <trkpt lat="46.3520260" lon="3.3048210">
        <ele>242.6</ele>
        <time>2020-07-04T15:09:03Z</time>
      </trkpt>
      <trkpt lat="46.3520320" lon="3.3047790">
        <ele>242.4</ele>
        <time>2020-07-04T15:09:06Z</time>
      </trkpt>
      <trkpt lat="46.3521060" lon="3.3047900">
        <ele>242.2</ele>
        <time>2020-07-04T15:09:13Z</time>
      </trkpt>
      <trkpt lat="46.3520890" lon="3.3048280">
        <ele>242.2</ele>
        <time>2020-07-04T15:09:20Z</time>
      </trkpt>
      <trkpt lat="46.3520880" lon="3.3048340">
        <ele>242.0</ele>
        <time>2020-07-04T15:09:22Z</time>
      </trkpt>
      <trkpt lat="46.3520880" lon="3.3048340">
        <ele>242.2</ele>
        <time>2020-07-04T15:09:23Z</time>
      </trkpt>
      <trkpt lat="46.3520890" lon="3.3048360">
        <ele>242.2</ele>
        <time>2020-07-04T15:09:26Z</time>
      </trkpt>
      <trkpt lat="46.3520810" lon="3.3048390">
        <ele>242.0</ele>
        <time>2020-07-04T15:09:40Z</time>
      </trkpt>
      <trkpt lat="46.3520730" lon="3.3048330">
        <ele>242.2</ele>
        <time>2020-07-04T15:09:55Z</time>
      </trkpt>
      <trkpt lat="46.3520720" lon="3.3048360">
        <ele>242.2</ele>
        <time>2020-07-04T15:10:09Z</time>
      </trkpt>
      <trkpt lat="46.3520890" lon="3.3048290">
        <ele>242.4</ele>
        <time>2020-07-04T15:10:22Z</time>
      </trkpt>
      <trkpt lat="46.3520820" lon="3.3048260">
        <ele>242.2</ele>
        <time>2020-07-04T15:10:36Z</time>
      </trkpt>
      <trkpt lat="46.3520780" lon="3.3048260">
        <ele>242.0</ele>
        <time>2020-07-04T15:10:45Z</time>
      </trkpt>
      <trkpt lat="46.3520710" lon="3.3048230">
        <ele>242.2</ele>
        <time>2020-07-04T15:10:50Z</time>
      </trkpt>
      <trkpt lat="46.3520640" lon="3.3048240">
        <ele>242.0</ele>
        <time>2020-07-04T15:10:57Z</time>
      </trkpt>
      <trkpt lat="46.3520570" lon="3.3048330">
        <ele>242.0</ele>
        <time>2020-07-04T15:11:17Z</time>
      </trkpt>
      <trkpt lat="46.3520240" lon="3.3048310">
        <ele>242.0</ele>
        <time>2020-07-04T15:11:40Z</time>
      </trkpt>
      <trkpt lat="46.3520220" lon="3.3048750">
        <ele>242.0</ele>
        <time>2020-07-04T15:11:53Z</time>
      </trkpt>
      <trkpt lat="46.3520550" lon="3.3049440">
        <ele>242.0</ele>
        <time>2020-07-04T15:12:06Z</time>
      </trkpt>
      <trkpt lat="46.3520430" lon="3.3049790">
        <ele>242.0</ele>
        <time>2020-07-04T15:12:19Z</time>
      </trkpt>
      <trkpt lat="46.3520420" lon="3.3049830">
        <ele>242.2</ele>
        <time>2020-07-04T15:12:33Z</time>
      </trkpt>
      <trkpt lat="46.3520160" lon="3.3051410">
        <ele>242.2</ele>
        <time>2020-07-04T15:12:46Z</time>
      </trkpt>
      <trkpt lat="46.3520190" lon="3.3051720">
        <ele>242.0</ele>
        <time>2020-07-04T15:12:57Z</time>
      </trkpt>
      <trkpt lat="46.3519790" lon="3.3052340">
        <ele>242.0</ele>
        <time>2020-07-04T15:13:15Z</time>
      </trkpt>
      <trkpt lat="46.3519650" lon="3.3052440">
        <ele>242.0</ele>
        <time>2020-07-04T15:13:16Z</time>
      </trkpt>
      <trkpt lat="46.3518340" lon="3.3053110">
        <ele>241.6</ele>
        <time>2020-07-04T15:13:22Z</time>
      </trkpt>
      <trkpt lat="46.3515980" lon="3.3054290">
        <ele>241.8</ele>
        <time>2020-07-04T15:13:30Z</time>
      </trkpt>
      <trkpt lat="46.3512440" lon="3.3056420">
        <ele>241.6</ele>
        <time>2020-07-04T15:13:40Z</time>
      </trkpt>
      <trkpt lat="46.3509210" lon="3.3057670">
        <ele>241.6</ele>
        <time>2020-07-04T15:13:48Z</time>
      </trkpt>
      <trkpt lat="46.3506950" lon="3.3058590">
        <ele>241.4</ele>
        <time>2020-07-04T15:13:53Z</time>
      </trkpt>
      <trkpt lat="46.3504250" lon="3.3060040">
        <ele>241.2</ele>
        <time>2020-07-04T15:13:59Z</time>
      </trkpt>
      <trkpt lat="46.3501840" lon="3.3063070">
        <ele>241.0</ele>
        <time>2020-07-04T15:14:06Z</time>
      </trkpt>
      <trkpt lat="46.3498920" lon="3.3068280">
        <ele>240.8</ele>
        <time>2020-07-04T15:14:16Z</time>
      </trkpt>
      <trkpt lat="46.3495410" lon="3.3074170">
        <ele>240.6</ele>
        <time>2020-07-04T15:14:27Z</time>
      </trkpt>
      <trkpt lat="46.3492910" lon="3.3077130">
        <ele>240.6</ele>
        <time>2020-07-04T15:14:33Z</time>
      </trkpt>
      <trkpt lat="46.3492410" lon="3.3077390">
        <ele>240.6</ele>
        <time>2020-07-04T15:14:34Z</time>
      </trkpt>
      <trkpt lat="46.3491880" lon="3.3077570">
        <ele>240.6</ele>
        <time>2020-07-04T15:14:35Z</time>
      </trkpt>
      <trkpt lat="46.3491340" lon="3.3077700">
        <ele>240.6</ele>
        <time>2020-07-04T15:14:36Z</time>
      </trkpt>
      <trkpt lat="46.3489090" lon="3.3077970">
        <ele>240.2</ele>
        <time>2020-07-04T15:14:40Z</time>
      </trkpt>
      <trkpt lat="46.3488000" lon="3.3078080">
        <ele>240.0</ele>
        <time>2020-07-04T15:14:42Z</time>
      </trkpt>
      <trkpt lat="46.3482580" lon="3.3078400">
        <ele>239.8</ele>
        <time>2020-07-04T15:14:52Z</time>
      </trkpt>
      <trkpt lat="46.3476890" lon="3.3078790">
        <ele>240.2</ele>
        <time>2020-07-04T15:15:03Z</time>
      </trkpt>
      <trkpt lat="46.3475910" lon="3.3078880">
        <ele>240.4</ele>
        <time>2020-07-04T15:15:05Z</time>
      </trkpt>
      <trkpt lat="46.3470030" lon="3.3079490">
        <ele>240.8</ele>
        <time>2020-07-04T15:15:16Z</time>
      </trkpt>
      <trkpt lat="46.3468960" lon="3.3079640">
        <ele>240.8</ele>
        <time>2020-07-04T15:15:18Z</time>
      </trkpt>
      <trkpt lat="46.3467900" lon="3.3079770">
        <ele>240.8</ele>
        <time>2020-07-04T15:15:20Z</time>
      </trkpt>
      <trkpt lat="46.3462220" lon="3.3080440">
        <ele>241.2</ele>
        <time>2020-07-04T15:15:31Z</time>
      </trkpt>
      <trkpt lat="46.3461200" lon="3.3080560">
        <ele>241.2</ele>
        <time>2020-07-04T15:15:33Z</time>
      </trkpt>
      <trkpt lat="46.3456580" lon="3.3080510">
        <ele>241.4</ele>
        <time>2020-07-04T15:15:42Z</time>
      </trkpt>
      <trkpt lat="46.3451140" lon="3.3079730">
        <ele>241.4</ele>
        <time>2020-07-04T15:15:52Z</time>
      </trkpt>
      <trkpt lat="46.3449530" lon="3.3079420">
        <ele>241.4</ele>
        <time>2020-07-04T15:15:55Z</time>
      </trkpt>
      <trkpt lat="46.3446840" lon="3.3078940">
        <ele>241.6</ele>
        <time>2020-07-04T15:16:00Z</time>
      </trkpt>
      <trkpt lat="46.3445310" lon="3.3078740">
        <ele>241.8</ele>
        <time>2020-07-04T15:16:03Z</time>
      </trkpt>
      <trkpt lat="46.3444260" lon="3.3078550">
        <ele>241.8</ele>
        <time>2020-07-04T15:16:05Z</time>
      </trkpt>
      <trkpt lat="46.3442730" lon="3.3078350">
        <ele>242.0</ele>
        <time>2020-07-04T15:16:08Z</time>
      </trkpt>
      <trkpt lat="46.3441680" lon="3.3078200">
        <ele>242.0</ele>
        <time>2020-07-04T15:16:10Z</time>
      </trkpt>
      <trkpt lat="46.3441150" lon="3.3078150">
        <ele>242.2</ele>
        <time>2020-07-04T15:16:11Z</time>
      </trkpt>
      <trkpt lat="46.3435510" lon="3.3077480">
        <ele>240.8</ele>
        <time>2020-07-04T15:16:22Z</time>
      </trkpt>
      <trkpt lat="46.3434530" lon="3.3077360">
        <ele>241.0</ele>
        <time>2020-07-04T15:16:24Z</time>
      </trkpt>
      <trkpt lat="46.3430660" lon="3.3077900">
        <ele>240.6</ele>
        <time>2020-07-04T15:16:32Z</time>
      </trkpt>
      <trkpt lat="46.3426450" lon="3.3080060">
        <ele>241.0</ele>
        <time>2020-07-04T15:16:41Z</time>
      </trkpt>
      <trkpt lat="46.3423350" lon="3.3081550">
        <ele>241.0</ele>
        <time>2020-07-04T15:16:47Z</time>
      </trkpt>
      <trkpt lat="46.3421290" lon="3.3082600">
        <ele>241.2</ele>
        <time>2020-07-04T15:16:51Z</time>
      </trkpt>
      <trkpt lat="46.3420780" lon="3.3082830">
        <ele>241.2</ele>
        <time>2020-07-04T15:16:52Z</time>
      </trkpt>
      <trkpt lat="46.3419750" lon="3.3083220">
        <ele>241.2</ele>
        <time>2020-07-04T15:16:54Z</time>
      </trkpt>
      <trkpt lat="46.3419250" lon="3.3083330">
        <ele>241.4</ele>
        <time>2020-07-04T15:16:55Z</time>
      </trkpt>
      <trkpt lat="46.3418280" lon="3.3083290">
        <ele>241.4</ele>
        <time>2020-07-04T15:16:57Z</time>
      </trkpt>
      <trkpt lat="46.3417400" lon="3.3083060">
        <ele>241.6</ele>
        <time>2020-07-04T15:16:59Z</time>
      </trkpt>
      <trkpt lat="46.3416010" lon="3.3082300">
        <ele>241.8</ele>
        <time>2020-07-04T15:17:04Z</time>
      </trkpt>
      <trkpt lat="46.3415880" lon="3.3081890">
        <ele>241.8</ele>
        <time>2020-07-04T15:17:06Z</time>
      </trkpt>
      <trkpt lat="46.3415930" lon="3.3081390">
        <ele>242.0</ele>
        <time>2020-07-04T15:17:08Z</time>
      </trkpt>
      <trkpt lat="46.3416330" lon="3.3080720">
        <ele>242.0</ele>
        <time>2020-07-04T15:17:13Z</time>
      </trkpt>
      <trkpt lat="46.3416430" lon="3.3080690">
        <ele>242.2</ele>
        <time>2020-07-04T15:17:15Z</time>
      </trkpt>
      <trkpt lat="46.3416300" lon="3.3080690">
        <ele>242.4</ele>
        <time>2020-07-04T15:17:28Z</time>
      </trkpt>
      <trkpt lat="46.3416150" lon="3.3080850">
        <ele>242.4</ele>
        <time>2020-07-04T15:17:30Z</time>
      </trkpt>
      <trkpt lat="46.3415820" lon="3.3082320">
        <ele>242.4</ele>
        <time>2020-07-04T15:17:36Z</time>
      </trkpt>
      <trkpt lat="46.3415080" lon="3.3084970">
        <ele>242.0</ele>
        <time>2020-07-04T15:17:44Z</time>
      </trkpt>
      <trkpt lat="46.3413060" lon="3.3088440">
        <ele>242.0</ele>
        <time>2020-07-04T15:17:53Z</time>
      </trkpt>
      <trkpt lat="46.3410320" lon="3.3091380">
        <ele>242.0</ele>
        <time>2020-07-04T15:18:02Z</time>
      </trkpt>
      <trkpt lat="46.3409180" lon="3.3092530">
        <ele>242.2</ele>
        <time>2020-07-04T15:18:06Z</time>
      </trkpt>
      <trkpt lat="46.3407170" lon="3.3094920">
        <ele>242.4</ele>
        <time>2020-07-04T15:18:14Z</time>
      </trkpt>
      <trkpt lat="46.3405020" lon="3.3097210">
        <ele>243.2</ele>
        <time>2020-07-04T15:18:23Z</time>
      </trkpt>
      <trkpt lat="46.3402960" lon="3.3099380">
        <ele>243.2</ele>
        <time>2020-07-04T15:18:30Z</time>
      </trkpt>
      <trkpt lat="46.3400600" lon="3.3101600">
        <ele>242.8</ele>
        <time>2020-07-04T15:18:36Z</time>
      </trkpt>
      <trkpt lat="46.3399710" lon="3.3102410">
        <ele>242.8</ele>
        <time>2020-07-04T15:18:38Z</time>
      </trkpt>
      <trkpt lat="46.3398770" lon="3.3103250">
        <ele>242.8</ele>
        <time>2020-07-04T15:18:40Z</time>
      </trkpt>
      <trkpt lat="46.3396130" lon="3.3105290">
        <ele>242.4</ele>
        <time>2020-07-04T15:18:45Z</time>
      </trkpt>
      <trkpt lat="46.3395000" lon="3.3106010">
        <ele>241.8</ele>
        <time>2020-07-04T15:18:47Z</time>
      </trkpt>
      <trkpt lat="46.3394460" lon="3.3106370">
        <ele>241.8</ele>
        <time>2020-07-04T15:18:48Z</time>
      </trkpt>
      <trkpt lat="46.3389220" lon="3.3109480">
        <ele>240.2</ele>
        <time>2020-07-04T15:18:58Z</time>
      </trkpt>
      <trkpt lat="46.3388720" lon="3.3109760">
        <ele>240.2</ele>
        <time>2020-07-04T15:18:59Z</time>
      </trkpt>
      <trkpt lat="46.3383680" lon="3.3112780">
        <ele>240.2</ele>
        <time>2020-07-04T15:19:09Z</time>
      </trkpt>
      <trkpt lat="46.3381090" lon="3.3114390">
        <ele>240.2</ele>
        <time>2020-07-04T15:19:14Z</time>
      </trkpt>
      <trkpt lat="46.3377000" lon="3.3117200">
        <ele>240.0</ele>
        <time>2020-07-04T15:19:22Z</time>
      </trkpt>
      <trkpt lat="46.3375620" lon="3.3118230">
        <ele>240.2</ele>
        <time>2020-07-04T15:19:25Z</time>
      </trkpt>
      <trkpt lat="46.3373090" lon="3.3120350">
        <ele>240.2</ele>
        <time>2020-07-04T15:19:31Z</time>
      </trkpt>
      <trkpt lat="46.3370580" lon="3.3122390">
        <ele>241.4</ele>
        <time>2020-07-04T15:19:37Z</time>
      </trkpt>
      <trkpt lat="46.3367590" lon="3.3125020">
        <ele>241.4</ele>
        <time>2020-07-04T15:19:44Z</time>
      </trkpt>
      <trkpt lat="46.3367170" lon="3.3125310">
        <ele>241.6</ele>
        <time>2020-07-04T15:19:45Z</time>
      </trkpt>
      <trkpt lat="46.3366750" lon="3.3125600">
        <ele>241.6</ele>
        <time>2020-07-04T15:19:46Z</time>
      </trkpt>
      <trkpt lat="46.3364140" lon="3.3127620">
        <ele>241.4</ele>
        <time>2020-07-04T15:19:53Z</time>
      </trkpt>
      <trkpt lat="46.3363830" lon="3.3127960">
        <ele>241.2</ele>
        <time>2020-07-04T15:19:54Z</time>
      </trkpt>
      <trkpt lat="46.3360580" lon="3.3130850">
        <ele>241.6</ele>
        <time>2020-07-04T15:20:03Z</time>
      </trkpt>
      <trkpt lat="46.3360180" lon="3.3131180">
        <ele>241.8</ele>
        <time>2020-07-04T15:20:04Z</time>
      </trkpt>
      <trkpt lat="46.3357150" lon="3.3133660">
        <ele>241.8</ele>
        <time>2020-07-04T15:20:11Z</time>
      </trkpt>
      <trkpt lat="46.3356210" lon="3.3134480">
        <ele>241.4</ele>
        <time>2020-07-04T15:20:13Z</time>
      </trkpt>
      <trkpt lat="46.3355730" lon="3.3134900">
        <ele>241.2</ele>
        <time>2020-07-04T15:20:14Z</time>
      </trkpt>
      <trkpt lat="46.3351290" lon="3.3138600">
        <ele>240.4</ele>
        <time>2020-07-04T15:20:23Z</time>
      </trkpt>
      <trkpt lat="46.3350800" lon="3.3138990">
        <ele>240.2</ele>
        <time>2020-07-04T15:20:24Z</time>
      </trkpt>
      <trkpt lat="46.3350310" lon="3.3139380">
        <ele>240.2</ele>
        <time>2020-07-04T15:20:25Z</time>
      </trkpt>
      <trkpt lat="46.3346180" lon="3.3142600">
        <ele>240.4</ele>
        <time>2020-07-04T15:20:34Z</time>
      </trkpt>
      <trkpt lat="46.3344460" lon="3.3143780">
        <ele>240.8</ele>
        <time>2020-07-04T15:20:38Z</time>
      </trkpt>
      <trkpt lat="46.3342580" lon="3.3145360">
        <ele>240.8</ele>
        <time>2020-07-04T15:20:43Z</time>
      </trkpt>
      <trkpt lat="46.3342270" lon="3.3145690">
        <ele>241.0</ele>
        <time>2020-07-04T15:20:44Z</time>
      </trkpt>
      <trkpt lat="46.3341530" lon="3.3147220">
        <ele>241.6</ele>
        <time>2020-07-04T15:20:48Z</time>
      </trkpt>
      <trkpt lat="46.3341440" lon="3.3147570">
        <ele>241.8</ele>
        <time>2020-07-04T15:20:49Z</time>
      </trkpt>
      <trkpt lat="46.3341180" lon="3.3149870">
        <ele>243.2</ele>
        <time>2020-07-04T15:20:56Z</time>
      </trkpt>
      <trkpt lat="46.3340940" lon="3.3152030">
        <ele>244.8</ele>
        <time>2020-07-04T15:21:04Z</time>
      </trkpt>
      <trkpt lat="46.3340910" lon="3.3153410">
        <ele>245.6</ele>
        <time>2020-07-04T15:21:09Z</time>
      </trkpt>
      <trkpt lat="46.3340700" lon="3.3154590">
        <ele>246.4</ele>
        <time>2020-07-04T15:21:13Z</time>
      </trkpt>
      <trkpt lat="46.3340470" lon="3.3155560">
        <ele>247.0</ele>
        <time>2020-07-04T15:21:16Z</time>
      </trkpt>
      <trkpt lat="46.3339800" lon="3.3157750">
        <ele>248.2</ele>
        <time>2020-07-04T15:21:23Z</time>
      </trkpt>
      <trkpt lat="46.3339610" lon="3.3158360">
        <ele>248.6</ele>
        <time>2020-07-04T15:21:25Z</time>
      </trkpt>
      <trkpt lat="46.3338590" lon="3.3161150">
        <ele>249.6</ele>
        <time>2020-07-04T15:21:33Z</time>
      </trkpt>
      <trkpt lat="46.3337500" lon="3.3164160">
        <ele>249.8</ele>
        <time>2020-07-04T15:21:39Z</time>
      </trkpt>
      <trkpt lat="46.3335650" lon="3.3169570">
        <ele>249.8</ele>
        <time>2020-07-04T15:21:49Z</time>
      </trkpt>
      <trkpt lat="46.3333120" lon="3.3176750">
        <ele>250.2</ele>
        <time>2020-07-04T15:22:01Z</time>
      </trkpt>
      <trkpt lat="46.3332890" lon="3.3177390">
        <ele>250.2</ele>
        <time>2020-07-04T15:22:02Z</time>
      </trkpt>
      <trkpt lat="46.3331010" lon="3.3182580">
        <ele>250.2</ele>
        <time>2020-07-04T15:22:10Z</time>
      </trkpt>
      <trkpt lat="46.3329050" lon="3.3187860">
        <ele>250.2</ele>
        <time>2020-07-04T15:22:18Z</time>
      </trkpt>
      <trkpt lat="46.3326500" lon="3.3195500">
        <ele>250.2</ele>
        <time>2020-07-04T15:22:29Z</time>
      </trkpt>
      <trkpt lat="46.3324180" lon="3.3202080">
        <ele>249.8</ele>
        <time>2020-07-04T15:22:38Z</time>
      </trkpt>
      <trkpt lat="46.3323360" lon="3.3204260">
        <ele>249.8</ele>
        <time>2020-07-04T15:22:41Z</time>
      </trkpt>
      <trkpt lat="46.3320970" lon="3.3211000">
        <ele>249.2</ele>
        <time>2020-07-04T15:22:50Z</time>
      </trkpt>
      <trkpt lat="46.3318220" lon="3.3218570">
        <ele>249.2</ele>
        <time>2020-07-04T15:23:00Z</time>
      </trkpt>
      <trkpt lat="46.3317680" lon="3.3220030">
        <ele>249.0</ele>
        <time>2020-07-04T15:23:02Z</time>
      </trkpt>
      <trkpt lat="46.3316880" lon="3.3222190">
        <ele>249.0</ele>
        <time>2020-07-04T15:23:05Z</time>
      </trkpt>
      <trkpt lat="46.3314360" lon="3.3229180">
        <ele>249.6</ele>
        <time>2020-07-04T15:23:15Z</time>
      </trkpt>
      <trkpt lat="46.3311800" lon="3.3236530">
        <ele>250.0</ele>
        <time>2020-07-04T15:23:25Z</time>
      </trkpt>
      <trkpt lat="46.3310780" lon="3.3239420">
        <ele>250.0</ele>
        <time>2020-07-04T15:23:29Z</time>
      </trkpt>
      <trkpt lat="46.3308110" lon="3.3246920">
        <ele>250.0</ele>
        <time>2020-07-04T15:23:39Z</time>
      </trkpt>
      <trkpt lat="46.3307560" lon="3.3248340">
        <ele>249.8</ele>
        <time>2020-07-04T15:23:41Z</time>
      </trkpt>
      <trkpt lat="46.3304870" lon="3.3255630">
        <ele>249.8</ele>
        <time>2020-07-04T15:23:51Z</time>
      </trkpt>
      <trkpt lat="46.3302110" lon="3.3262870">
        <ele>250.0</ele>
        <time>2020-07-04T15:24:01Z</time>
      </trkpt>
      <trkpt lat="46.3301800" lon="3.3263600">
        <ele>250.0</ele>
        <time>2020-07-04T15:24:02Z</time>
      </trkpt>
      <trkpt lat="46.3298510" lon="3.3270370">
        <ele>249.8</ele>
        <time>2020-07-04T15:24:12Z</time>
      </trkpt>
      <trkpt lat="46.3297550" lon="3.3272370">
        <ele>249.8</ele>
        <time>2020-07-04T15:24:15Z</time>
      </trkpt>
      <trkpt lat="46.3294380" lon="3.3278520">
        <ele>249.6</ele>
        <time>2020-07-04T15:24:25Z</time>
      </trkpt>
      <trkpt lat="46.3294080" lon="3.3279040">
        <ele>249.8</ele>
        <time>2020-07-04T15:24:26Z</time>
      </trkpt>
      <trkpt lat="46.3292670" lon="3.3281200">
        <ele>250.0</ele>
        <time>2020-07-04T15:24:31Z</time>
      </trkpt>
      <trkpt lat="46.3292410" lon="3.3281600">
        <ele>250.2</ele>
        <time>2020-07-04T15:24:32Z</time>
      </trkpt>
      <trkpt lat="46.3290520" lon="3.3285270">
        <ele>252.0</ele>
        <time>2020-07-04T15:24:40Z</time>
      </trkpt>
      <trkpt lat="46.3289780" lon="3.3287490">
        <ele>252.2</ele>
        <time>2020-07-04T15:24:43Z</time>
      </trkpt>
      <trkpt lat="46.3289170" lon="3.3289150">
        <ele>252.2</ele>
        <time>2020-07-04T15:24:45Z</time>
      </trkpt>
      <trkpt lat="46.3286400" lon="3.3295530">
        <ele>250.8</ele>
        <time>2020-07-04T15:24:53Z</time>
      </trkpt>
      <trkpt lat="46.3283350" lon="3.3301730">
        <ele>250.2</ele>
        <time>2020-07-04T15:25:02Z</time>
      </trkpt>
      <trkpt lat="46.3281000" lon="3.3306610">
        <ele>250.4</ele>
        <time>2020-07-04T15:25:10Z</time>
      </trkpt>
      <trkpt lat="46.3277740" lon="3.3313030">
        <ele>250.6</ele>
        <time>2020-07-04T15:25:21Z</time>
      </trkpt>
      <trkpt lat="46.3276980" lon="3.3315100">
        <ele>250.6</ele>
        <time>2020-07-04T15:25:26Z</time>
      </trkpt>
      <trkpt lat="46.3277670" lon="3.3316970">
        <ele>250.6</ele>
        <time>2020-07-04T15:25:31Z</time>
      </trkpt>
      <trkpt lat="46.3279430" lon="3.3320350">
        <ele>250.4</ele>
        <time>2020-07-04T15:25:38Z</time>
      </trkpt>
      <trkpt lat="46.3282720" lon="3.3327200">
        <ele>250.4</ele>
        <time>2020-07-04T15:25:50Z</time>
      </trkpt>
      <trkpt lat="46.3284130" lon="3.3330530">
        <ele>250.2</ele>
        <time>2020-07-04T15:25:55Z</time>
      </trkpt>
      <trkpt lat="46.3285930" lon="3.3335550">
        <ele>250.0</ele>
        <time>2020-07-04T15:26:02Z</time>
      </trkpt>
      <trkpt lat="46.3287470" lon="3.3339880">
        <ele>249.2</ele>
        <time>2020-07-04T15:26:08Z</time>
      </trkpt>
      <trkpt lat="46.3288750" lon="3.3342790">
        <ele>249.0</ele>
        <time>2020-07-04T15:26:12Z</time>
      </trkpt>
      <trkpt lat="46.3291170" lon="3.3349030">
        <ele>248.8</ele>
        <time>2020-07-04T15:26:21Z</time>
      </trkpt>
      <trkpt lat="46.3293770" lon="3.3355910">
        <ele>249.0</ele>
        <time>2020-07-04T15:26:31Z</time>
      </trkpt>
      <trkpt lat="46.3294650" lon="3.3358910">
        <ele>248.8</ele>
        <time>2020-07-04T15:26:35Z</time>
      </trkpt>
      <trkpt lat="46.3295660" lon="3.3362920">
        <ele>248.2</ele>
        <time>2020-07-04T15:26:40Z</time>
      </trkpt>
      <trkpt lat="46.3296430" lon="3.3366630">
        <ele>247.6</ele>
        <time>2020-07-04T15:26:44Z</time>
      </trkpt>
      <trkpt lat="46.3297460" lon="3.3370430">
        <ele>246.4</ele>
        <time>2020-07-04T15:26:48Z</time>
      </trkpt>
      <trkpt lat="46.3298580" lon="3.3373360">
        <ele>245.2</ele>
        <time>2020-07-04T15:26:51Z</time>
      </trkpt>
      <trkpt lat="46.3300330" lon="3.3377120">
        <ele>244.0</ele>
        <time>2020-07-04T15:26:55Z</time>
      </trkpt>
      <trkpt lat="46.3303420" lon="3.3383580">
        <ele>242.4</ele>
        <time>2020-07-04T15:27:02Z</time>
      </trkpt>
      <trkpt lat="46.3305140" lon="3.3386910">
        <ele>242.2</ele>
        <time>2020-07-04T15:27:06Z</time>
      </trkpt>
      <trkpt lat="46.3305750" lon="3.3388350">
        <ele>242.2</ele>
        <time>2020-07-04T15:27:08Z</time>
      </trkpt>
      <trkpt lat="46.3305990" lon="3.3389670">
        <ele>242.0</ele>
        <time>2020-07-04T15:27:10Z</time>
      </trkpt>
      <trkpt lat="46.3305910" lon="3.3390240">
        <ele>241.8</ele>
        <time>2020-07-04T15:27:11Z</time>
      </trkpt>
      <trkpt lat="46.3305730" lon="3.3390740">
        <ele>241.8</ele>
        <time>2020-07-04T15:27:12Z</time>
      </trkpt>
      <trkpt lat="46.3305450" lon="3.3391210">
        <ele>241.8</ele>
        <time>2020-07-04T15:27:13Z</time>
      </trkpt>
      <trkpt lat="46.3305120" lon="3.3391630">
        <ele>241.6</ele>
        <time>2020-07-04T15:27:14Z</time>
      </trkpt>
      <trkpt lat="46.3303210" lon="3.3393970">
        <ele>241.8</ele>
        <time>2020-07-04T15:27:19Z</time>
      </trkpt>
      <trkpt lat="46.3302060" lon="3.3395610">
        <ele>241.6</ele>
        <time>2020-07-04T15:27:22Z</time>
      </trkpt>
      <trkpt lat="46.3299090" lon="3.3399100">
        <ele>241.6</ele>
        <time>2020-07-04T15:27:29Z</time>
      </trkpt>
      <trkpt lat="46.3297200" lon="3.3400900">
        <ele>241.8</ele>
        <time>2020-07-04T15:27:33Z</time>
      </trkpt>
      <trkpt lat="46.3293960" lon="3.3404040">
        <ele>241.6</ele>
        <time>2020-07-04T15:27:40Z</time>
      </trkpt>
      <trkpt lat="46.3291930" lon="3.3405750">
        <ele>242.0</ele>
        <time>2020-07-04T15:27:45Z</time>
      </trkpt>
      <trkpt lat="46.3290810" lon="3.3406750">
        <ele>242.2</ele>
        <time>2020-07-04T15:27:48Z</time>
      </trkpt>
      <trkpt lat="46.3290440" lon="3.3407110">
        <ele>242.2</ele>
        <time>2020-07-04T15:27:49Z</time>
      </trkpt>
      <trkpt lat="46.3286710" lon="3.3410870">
        <ele>244.6</ele>
        <time>2020-07-04T15:27:59Z</time>
      </trkpt>
      <trkpt lat="46.3286240" lon="3.3411320">
        <ele>244.4</ele>
        <time>2020-07-04T15:28:00Z</time>
      </trkpt>
      <trkpt lat="46.3284660" lon="3.3412730">
        <ele>244.6</ele>
        <time>2020-07-04T15:28:03Z</time>
      </trkpt>
      <trkpt lat="46.3283530" lon="3.3413760">
        <ele>244.6</ele>
        <time>2020-07-04T15:28:05Z</time>
      </trkpt>
      <trkpt lat="46.3282960" lon="3.3414320">
        <ele>244.6</ele>
        <time>2020-07-04T15:28:06Z</time>
      </trkpt>
      <trkpt lat="46.3280710" lon="3.3416420">
        <ele>244.2</ele>
        <time>2020-07-04T15:28:10Z</time>
      </trkpt>
      <trkpt lat="46.3279080" lon="3.3417840">
        <ele>242.6</ele>
        <time>2020-07-04T15:28:13Z</time>
      </trkpt>
      <trkpt lat="46.3278550" lon="3.3418280">
        <ele>242.4</ele>
        <time>2020-07-04T15:28:14Z</time>
      </trkpt>
      <trkpt lat="46.3275770" lon="3.3420320">
        <ele>241.6</ele>
        <time>2020-07-04T15:28:20Z</time>
      </trkpt>
      <trkpt lat="46.3274910" lon="3.3420910">
        <ele>241.6</ele>
        <time>2020-07-04T15:28:22Z</time>
      </trkpt>
      <trkpt lat="46.3271760" lon="3.3422990">
        <ele>241.8</ele>
        <time>2020-07-04T15:28:29Z</time>
      </trkpt>
      <trkpt lat="46.3270300" lon="3.3424060">
        <ele>241.6</ele>
        <time>2020-07-04T15:28:32Z</time>
      </trkpt>
      <trkpt lat="46.3265210" lon="3.3427860">
        <ele>241.6</ele>
        <time>2020-07-04T15:28:42Z</time>
      </trkpt>
      <trkpt lat="46.3264700" lon="3.3428260">
        <ele>241.6</ele>
        <time>2020-07-04T15:28:43Z</time>
      </trkpt>
      <trkpt lat="46.3262790" lon="3.3429970">
        <ele>241.4</ele>
        <time>2020-07-04T15:28:47Z</time>
      </trkpt>
      <trkpt lat="46.3261200" lon="3.3432160">
        <ele>241.6</ele>
        <time>2020-07-04T15:28:51Z</time>
      </trkpt>
      <trkpt lat="46.3259290" lon="3.3436750">
        <ele>242.0</ele>
        <time>2020-07-04T15:28:58Z</time>
      </trkpt>
      <trkpt lat="46.3258550" lon="3.3442120">
        <ele>242.6</ele>
        <time>2020-07-04T15:29:05Z</time>
      </trkpt>
      <trkpt lat="46.3258360" lon="3.3444530">
        <ele>242.6</ele>
        <time>2020-07-04T15:29:08Z</time>
      </trkpt>
      <trkpt lat="46.3258170" lon="3.3448630">
        <ele>242.8</ele>
        <time>2020-07-04T15:29:14Z</time>
      </trkpt>
      <trkpt lat="46.3257430" lon="3.3456280">
        <ele>243.0</ele>
        <time>2020-07-04T15:29:25Z</time>
      </trkpt>
      <trkpt lat="46.3255860" lon="3.3462270">
        <ele>243.0</ele>
        <time>2020-07-04T15:29:34Z</time>
      </trkpt>
      <trkpt lat="46.3253970" lon="3.3467330">
        <ele>243.0</ele>
        <time>2020-07-04T15:29:42Z</time>
      </trkpt>
      <trkpt lat="46.3253280" lon="3.3469110">
        <ele>242.6</ele>
        <time>2020-07-04T15:29:45Z</time>
      </trkpt>
      <trkpt lat="46.3251210" lon="3.3472730">
        <ele>242.6</ele>
        <time>2020-07-04T15:29:52Z</time>
      </trkpt>
      <trkpt lat="46.3247080" lon="3.3477940">
        <ele>242.6</ele>
        <time>2020-07-04T15:30:02Z</time>
      </trkpt>
      <trkpt lat="46.3242900" lon="3.3483120">
        <ele>242.2</ele>
        <time>2020-07-04T15:30:12Z</time>
      </trkpt>
      <trkpt lat="46.3242490" lon="3.3483610">
        <ele>242.2</ele>
        <time>2020-07-04T15:30:13Z</time>
      </trkpt>
      <trkpt lat="46.3237930" lon="3.3488300">
        <ele>242.4</ele>
        <time>2020-07-04T15:30:24Z</time>
      </trkpt>
      <trkpt lat="46.3235540" lon="3.3491160">
        <ele>242.8</ele>
        <time>2020-07-04T15:30:30Z</time>
      </trkpt>
      <trkpt lat="46.3234800" lon="3.3492350">
        <ele>242.8</ele>
        <time>2020-07-04T15:30:32Z</time>
      </trkpt>
      <trkpt lat="46.3231220" lon="3.3499190">
        <ele>242.8</ele>
        <time>2020-07-04T15:30:42Z</time>
      </trkpt>
      <trkpt lat="46.3230850" lon="3.3499910">
        <ele>242.6</ele>
        <time>2020-07-04T15:30:43Z</time>
      </trkpt>
      <trkpt lat="46.3227610" lon="3.3506350">
        <ele>242.4</ele>
        <time>2020-07-04T15:30:52Z</time>
      </trkpt>
      <trkpt lat="46.3226280" lon="3.3508970">
        <ele>242.6</ele>
        <time>2020-07-04T15:30:56Z</time>
      </trkpt>
      <trkpt lat="46.3225950" lon="3.3509590">
        <ele>242.4</ele>
        <time>2020-07-04T15:30:57Z</time>
      </trkpt>
      <trkpt lat="46.3223980" lon="3.3513440">
        <ele>243.0</ele>
        <time>2020-07-04T15:31:04Z</time>
      </trkpt>
      <trkpt lat="46.3222320" lon="3.3518170">
        <ele>243.2</ele>
        <time>2020-07-04T15:31:11Z</time>
      </trkpt>
      <trkpt lat="46.3222280" lon="3.3518870">
        <ele>243.2</ele>
        <time>2020-07-04T15:31:12Z</time>
      </trkpt>
      <trkpt lat="46.3222280" lon="3.3522550">
        <ele>243.4</ele>
        <time>2020-07-04T15:31:17Z</time>
      </trkpt>
      <trkpt lat="46.3222420" lon="3.3530720">
        <ele>243.6</ele>
        <time>2020-07-04T15:31:27Z</time>
      </trkpt>
      <trkpt lat="46.3222390" lon="3.3531560">
        <ele>243.6</ele>
        <time>2020-07-04T15:31:28Z</time>
      </trkpt>
      <trkpt lat="46.3222460" lon="3.3539970">
        <ele>243.6</ele>
        <time>2020-07-04T15:31:38Z</time>
      </trkpt>
      <trkpt lat="46.3222480" lon="3.3540850">
        <ele>243.4</ele>
        <time>2020-07-04T15:31:39Z</time>
      </trkpt>
      <trkpt lat="46.3222370" lon="3.3545280">
        <ele>243.2</ele>
        <time>2020-07-04T15:31:44Z</time>
      </trkpt>
      <trkpt lat="46.3222190" lon="3.3546140">
        <ele>243.2</ele>
        <time>2020-07-04T15:31:45Z</time>
      </trkpt>
      <trkpt lat="46.3221960" lon="3.3546970">
        <ele>243.0</ele>
        <time>2020-07-04T15:31:46Z</time>
      </trkpt>
      <trkpt lat="46.3220440" lon="3.3550710">
        <ele>242.8</ele>
        <time>2020-07-04T15:31:51Z</time>
      </trkpt>
      <trkpt lat="46.3218200" lon="3.3555590">
        <ele>243.2</ele>
        <time>2020-07-04T15:31:58Z</time>
      </trkpt>
      <trkpt lat="46.3216990" lon="3.3558230">
        <ele>243.6</ele>
        <time>2020-07-04T15:32:02Z</time>
      </trkpt>
      <trkpt lat="46.3214250" lon="3.3564270">
        <ele>244.2</ele>
        <time>2020-07-04T15:32:11Z</time>
      </trkpt>
      <trkpt lat="46.3213640" lon="3.3565720">
        <ele>244.2</ele>
        <time>2020-07-04T15:32:13Z</time>
      </trkpt>
      <trkpt lat="46.3210260" lon="3.3572830">
        <ele>243.4</ele>
        <time>2020-07-04T15:32:23Z</time>
      </trkpt>
      <trkpt lat="46.3209580" lon="3.3574050">
        <ele>243.4</ele>
        <time>2020-07-04T15:32:25Z</time>
      </trkpt>
      <trkpt lat="46.3209250" lon="3.3574590">
        <ele>243.4</ele>
        <time>2020-07-04T15:32:26Z</time>
      </trkpt>
      <trkpt lat="46.3208380" lon="3.3575890">
        <ele>243.2</ele>
        <time>2020-07-04T15:32:29Z</time>
      </trkpt>
      <trkpt lat="46.3207840" lon="3.3576550">
        <ele>243.4</ele>
        <time>2020-07-04T15:32:31Z</time>
      </trkpt>
      <trkpt lat="46.3205760" lon="3.3578440">
        <ele>245.8</ele>
        <time>2020-07-04T15:32:39Z</time>
      </trkpt>
      <trkpt lat="46.3205530" lon="3.3578760">
        <ele>246.2</ele>
        <time>2020-07-04T15:32:40Z</time>
      </trkpt>
      <trkpt lat="46.3203700" lon="3.3581220">
        <ele>247.4</ele>
        <time>2020-07-04T15:32:48Z</time>
      </trkpt>
      <trkpt lat="46.3202150" lon="3.3582460">
        <ele>248.0</ele>
        <time>2020-07-04T15:32:56Z</time>
      </trkpt>
      <trkpt lat="46.3201470" lon="3.3584340">
        <ele>248.0</ele>
        <time>2020-07-04T15:33:02Z</time>
      </trkpt>
      <trkpt lat="46.3201460" lon="3.3585280">
        <ele>248.2</ele>
        <time>2020-07-04T15:33:04Z</time>
      </trkpt>
      <trkpt lat="46.3201670" lon="3.3587830">
        <ele>248.8</ele>
        <time>2020-07-04T15:33:09Z</time>
      </trkpt>
      <trkpt lat="46.3201940" lon="3.3590550">
        <ele>248.8</ele>
        <time>2020-07-04T15:33:14Z</time>
      </trkpt>
      <trkpt lat="46.3201810" lon="3.3591090">
        <ele>249.0</ele>
        <time>2020-07-04T15:33:15Z</time>
      </trkpt>
      <trkpt lat="46.3200930" lon="3.3592200">
        <ele>248.8</ele>
        <time>2020-07-04T15:33:18Z</time>
      </trkpt>
      <trkpt lat="46.3197490" lon="3.3594010">
        <ele>248.0</ele>
        <time>2020-07-04T15:33:27Z</time>
      </trkpt>
      <trkpt lat="46.3195810" lon="3.3594830">
        <ele>247.8</ele>
        <time>2020-07-04T15:33:31Z</time>
      </trkpt>
      <trkpt lat="46.3195390" lon="3.3595060">
        <ele>247.8</ele>
        <time>2020-07-04T15:33:32Z</time>
      </trkpt>
      <trkpt lat="46.3193050" lon="3.3596390">
        <ele>248.0</ele>
        <time>2020-07-04T15:33:38Z</time>
      </trkpt>
      <trkpt lat="46.3188100" lon="3.3599020">
        <ele>249.4</ele>
        <time>2020-07-04T15:33:51Z</time>
      </trkpt>
      <trkpt lat="46.3182830" lon="3.3601900">
        <ele>249.4</ele>
        <time>2020-07-04T15:34:03Z</time>
      </trkpt>
      <trkpt lat="46.3182390" lon="3.3602170">
        <ele>249.4</ele>
        <time>2020-07-04T15:34:04Z</time>
      </trkpt>
      <trkpt lat="46.3178980" lon="3.3604100">
        <ele>249.4</ele>
        <time>2020-07-04T15:34:12Z</time>
      </trkpt>
      <trkpt lat="46.3175430" lon="3.3606230">
        <ele>249.4</ele>
        <time>2020-07-04T15:34:21Z</time>
      </trkpt>
      <trkpt lat="46.3173050" lon="3.3607330">
        <ele>249.4</ele>
        <time>2020-07-04T15:34:26Z</time>
      </trkpt>
      <trkpt lat="46.3171470" lon="3.3607850">
        <ele>249.4</ele>
        <time>2020-07-04T15:34:29Z</time>
      </trkpt>
      <trkpt lat="46.3165960" lon="3.3609290">
        <ele>248.6</ele>
        <time>2020-07-04T15:34:39Z</time>
      </trkpt>
      <trkpt lat="46.3165410" lon="3.3609440">
        <ele>248.4</ele>
        <time>2020-07-04T15:34:40Z</time>
      </trkpt>
      <trkpt lat="46.3160230" lon="3.3610900">
        <ele>247.8</ele>
        <time>2020-07-04T15:34:50Z</time>
      </trkpt>
      <trkpt lat="46.3156590" lon="3.3612340">
        <ele>247.8</ele>
        <time>2020-07-04T15:34:58Z</time>
      </trkpt>
      <trkpt lat="46.3153720" lon="3.3613640">
        <ele>247.8</ele>
        <time>2020-07-04T15:35:04Z</time>
      </trkpt>
      <trkpt lat="46.3151510" lon="3.3614700">
        <ele>248.0</ele>
        <time>2020-07-04T15:35:09Z</time>
      </trkpt>
      <trkpt lat="46.3147800" lon="3.3616350">
        <ele>248.8</ele>
        <time>2020-07-04T15:35:18Z</time>
      </trkpt>
      <trkpt lat="46.3147450" lon="3.3616470">
        <ele>249.0</ele>
        <time>2020-07-04T15:35:19Z</time>
      </trkpt>
      <trkpt lat="46.3146440" lon="3.3616900">
        <ele>249.6</ele>
        <time>2020-07-04T15:35:22Z</time>
      </trkpt>
      <trkpt lat="46.3143880" lon="3.3617880">
        <ele>250.6</ele>
        <time>2020-07-04T15:35:30Z</time>
      </trkpt>
      <trkpt lat="46.3140540" lon="3.3619230">
        <ele>251.8</ele>
        <time>2020-07-04T15:35:39Z</time>
      </trkpt>
      <trkpt lat="46.3136370" lon="3.3621060">
        <ele>251.8</ele>
        <time>2020-07-04T15:35:48Z</time>
      </trkpt>
      <trkpt lat="46.3132470" lon="3.3622720">
        <ele>251.2</ele>
        <time>2020-07-04T15:35:56Z</time>
      </trkpt>
      <trkpt lat="46.3130990" lon="3.3623260">
        <ele>251.2</ele>
        <time>2020-07-04T15:35:59Z</time>
      </trkpt>
      <trkpt lat="46.3126020" lon="3.3625380">
        <ele>250.6</ele>
        <time>2020-07-04T15:36:09Z</time>
      </trkpt>
      <trkpt lat="46.3120860" lon="3.3627490">
        <ele>250.2</ele>
        <time>2020-07-04T15:36:18Z</time>
      </trkpt>
      <trkpt lat="46.3115530" lon="3.3629120">
        <ele>250.0</ele>
        <time>2020-07-04T15:36:27Z</time>
      </trkpt>
      <trkpt lat="46.3113830" lon="3.3629490">
        <ele>250.0</ele>
        <time>2020-07-04T15:36:30Z</time>
      </trkpt>
      <trkpt lat="46.3112200" lon="3.3629800">
        <ele>250.2</ele>
        <time>2020-07-04T15:36:33Z</time>
      </trkpt>
      <trkpt lat="46.3109030" lon="3.3629780">
        <ele>250.6</ele>
        <time>2020-07-04T15:36:39Z</time>
      </trkpt>
      <trkpt lat="46.3103600" lon="3.3629450">
        <ele>251.6</ele>
        <time>2020-07-04T15:36:50Z</time>
      </trkpt>
      <trkpt lat="46.3102060" lon="3.3629370">
        <ele>251.8</ele>
        <time>2020-07-04T15:36:53Z</time>
      </trkpt>
      <trkpt lat="46.3096640" lon="3.3629140">
        <ele>251.4</ele>
        <time>2020-07-04T15:37:03Z</time>
      </trkpt>
      <trkpt lat="46.3094920" lon="3.3629030">
        <ele>251.2</ele>
        <time>2020-07-04T15:37:06Z</time>
      </trkpt>
      <trkpt lat="46.3089490" lon="3.3628870">
        <ele>251.0</ele>
        <time>2020-07-04T15:37:15Z</time>
      </trkpt>
      <trkpt lat="46.3086630" lon="3.3628790">
        <ele>251.0</ele>
        <time>2020-07-04T15:37:20Z</time>
      </trkpt>
      <trkpt lat="46.3081640" lon="3.3627760">
        <ele>251.4</ele>
        <time>2020-07-04T15:37:29Z</time>
      </trkpt>
      <trkpt lat="46.3075790" lon="3.3626550">
        <ele>251.8</ele>
        <time>2020-07-04T15:37:40Z</time>
      </trkpt>
      <trkpt lat="46.3070230" lon="3.3625930">
        <ele>252.0</ele>
        <time>2020-07-04T15:37:50Z</time>
      </trkpt>
      <trkpt lat="46.3069120" lon="3.3625570">
        <ele>252.0</ele>
        <time>2020-07-04T15:37:52Z</time>
      </trkpt>
      <trkpt lat="46.3064840" lon="3.3623080">
        <ele>251.4</ele>
        <time>2020-07-04T15:38:00Z</time>
      </trkpt>
      <trkpt lat="46.3059450" lon="3.3619400">
        <ele>251.0</ele>
        <time>2020-07-04T15:38:10Z</time>
      </trkpt>
      <trkpt lat="46.3058870" lon="3.3619040">
        <ele>251.0</ele>
        <time>2020-07-04T15:38:11Z</time>
      </trkpt>
      <trkpt lat="46.3057180" lon="3.3617890">
        <ele>251.0</ele>
        <time>2020-07-04T15:38:14Z</time>
      </trkpt>
      <trkpt lat="46.3053460" lon="3.3615310">
        <ele>250.8</ele>
        <time>2020-07-04T15:38:21Z</time>
      </trkpt>
      <trkpt lat="46.3052410" lon="3.3614690">
        <ele>250.6</ele>
        <time>2020-07-04T15:38:23Z</time>
      </trkpt>
      <trkpt lat="46.3048550" lon="3.3613000">
        <ele>250.4</ele>
        <time>2020-07-04T15:38:30Z</time>
      </trkpt>
      <trkpt lat="46.3047980" lon="3.3612830">
        <ele>250.4</ele>
        <time>2020-07-04T15:38:31Z</time>
      </trkpt>
      <trkpt lat="46.3045740" lon="3.3612330">
        <ele>250.4</ele>
        <time>2020-07-04T15:38:35Z</time>
      </trkpt>
      <trkpt lat="46.3043480" lon="3.3612380">
        <ele>250.4</ele>
        <time>2020-07-04T15:38:39Z</time>
      </trkpt>
      <trkpt lat="46.3038280" lon="3.3613610">
        <ele>250.4</ele>
        <time>2020-07-04T15:38:48Z</time>
      </trkpt>
      <trkpt lat="46.3037710" lon="3.3613790">
        <ele>250.4</ele>
        <time>2020-07-04T15:38:49Z</time>
      </trkpt>
      <trkpt lat="46.3032620" lon="3.3615290">
        <ele>250.4</ele>
        <time>2020-07-04T15:38:58Z</time>
      </trkpt>
      <trkpt lat="46.3028760" lon="3.3616330">
        <ele>250.2</ele>
        <time>2020-07-04T15:39:05Z</time>
      </trkpt>
      <trkpt lat="46.3027720" lon="3.3616600">
        <ele>250.2</ele>
        <time>2020-07-04T15:39:07Z</time>
      </trkpt>
      <trkpt lat="46.3023610" lon="3.3617740">
        <ele>251.0</ele>
        <time>2020-07-04T15:39:15Z</time>
      </trkpt>
      <trkpt lat="46.3022630" lon="3.3617960">
        <ele>251.0</ele>
        <time>2020-07-04T15:39:17Z</time>
      </trkpt>
      <trkpt lat="46.3020010" lon="3.3618630">
        <ele>251.6</ele>
        <time>2020-07-04T15:39:23Z</time>
      </trkpt>
      <trkpt lat="46.3018860" lon="3.3618880">
        <ele>252.0</ele>
        <time>2020-07-04T15:39:26Z</time>
      </trkpt>
      <trkpt lat="46.3016620" lon="3.3619430">
        <ele>253.0</ele>
        <time>2020-07-04T15:39:32Z</time>
      </trkpt>
      <trkpt lat="46.3016250" lon="3.3619520">
        <ele>253.2</ele>
        <time>2020-07-04T15:39:33Z</time>
      </trkpt>
      <trkpt lat="46.3015860" lon="3.3619590">
        <ele>253.4</ele>
        <time>2020-07-04T15:39:34Z</time>
      </trkpt>
      <trkpt lat="46.3014390" lon="3.3619920">
        <ele>253.8</ele>
        <time>2020-07-04T15:39:38Z</time>
      </trkpt>
      <trkpt lat="46.3010200" lon="3.3621040">
        <ele>255.0</ele>
        <time>2020-07-04T15:39:49Z</time>
      </trkpt>
      <trkpt lat="46.3008610" lon="3.3621630">
        <ele>255.0</ele>
        <time>2020-07-04T15:39:53Z</time>
      </trkpt>
      <trkpt lat="46.3007870" lon="3.3622150">
        <ele>255.0</ele>
        <time>2020-07-04T15:39:55Z</time>
      </trkpt>
      <trkpt lat="46.3007520" lon="3.3622480">
        <ele>255.2</ele>
        <time>2020-07-04T15:39:56Z</time>
      </trkpt>
      <trkpt lat="46.3007180" lon="3.3622860">
        <ele>255.2</ele>
        <time>2020-07-04T15:39:57Z</time>
      </trkpt>
      <trkpt lat="46.3003740" lon="3.3627090">
        <ele>256.4</ele>
        <time>2020-07-04T15:40:07Z</time>
      </trkpt>
      <trkpt lat="46.3000180" lon="3.3631280">
        <ele>256.6</ele>
        <time>2020-07-04T15:40:16Z</time>
      </trkpt>
      <trkpt lat="46.2995720" lon="3.3636510">
        <ele>256.4</ele>
        <time>2020-07-04T15:40:26Z</time>
      </trkpt>
      <trkpt lat="46.2994330" lon="3.3638090">
        <ele>256.4</ele>
        <time>2020-07-04T15:40:29Z</time>
      </trkpt>
      <trkpt lat="46.2992860" lon="3.3639700">
        <ele>256.2</ele>
        <time>2020-07-04T15:40:32Z</time>
      </trkpt>
      <trkpt lat="46.2988580" lon="3.3644440">
        <ele>255.8</ele>
        <time>2020-07-04T15:40:41Z</time>
      </trkpt>
      <trkpt lat="46.2988160" lon="3.3644970">
        <ele>255.6</ele>
        <time>2020-07-04T15:40:42Z</time>
      </trkpt>
      <trkpt lat="46.2985740" lon="3.3648780">
        <ele>255.6</ele>
        <time>2020-07-04T15:40:49Z</time>
      </trkpt>
      <trkpt lat="46.2985380" lon="3.3649400">
        <ele>255.6</ele>
        <time>2020-07-04T15:40:50Z</time>
      </trkpt>
      <trkpt lat="46.2984600" lon="3.3650760">
        <ele>255.6</ele>
        <time>2020-07-04T15:40:52Z</time>
      </trkpt>
      <trkpt lat="46.2983220" lon="3.3653030">
        <ele>255.4</ele>
        <time>2020-07-04T15:40:55Z</time>
      </trkpt>
      <trkpt lat="46.2982720" lon="3.3653800">
        <ele>255.4</ele>
        <time>2020-07-04T15:40:56Z</time>
      </trkpt>
      <trkpt lat="46.2982140" lon="3.3654630">
        <ele>255.2</ele>
        <time>2020-07-04T15:40:57Z</time>
      </trkpt>
      <trkpt lat="46.2978780" lon="3.3658600">
        <ele>253.0</ele>
        <time>2020-07-04T15:41:02Z</time>
      </trkpt>
      <trkpt lat="46.2974000" lon="3.3663590">
        <ele>249.6</ele>
        <time>2020-07-04T15:41:09Z</time>
      </trkpt>
      <trkpt lat="46.2972820" lon="3.3664920">
        <ele>249.6</ele>
        <time>2020-07-04T15:41:11Z</time>
      </trkpt>
      <trkpt lat="46.2968700" lon="3.3668790">
        <ele>249.4</ele>
        <time>2020-07-04T15:41:18Z</time>
      </trkpt>
      <trkpt lat="46.2968080" lon="3.3669150">
        <ele>249.4</ele>
        <time>2020-07-04T15:41:19Z</time>
      </trkpt>
      <trkpt lat="46.2965350" lon="3.3670180">
        <ele>249.4</ele>
        <time>2020-07-04T15:41:23Z</time>
      </trkpt>
      <trkpt lat="46.2962650" lon="3.3670520">
        <ele>249.2</ele>
        <time>2020-07-04T15:41:27Z</time>
      </trkpt>
      <trkpt lat="46.2960770" lon="3.3670350">
        <ele>249.0</ele>
        <time>2020-07-04T15:41:30Z</time>
      </trkpt>
      <trkpt lat="46.2956280" lon="3.3669980">
        <ele>249.0</ele>
        <time>2020-07-04T15:41:38Z</time>
      </trkpt>
      <trkpt lat="46.2950410" lon="3.3669340">
        <ele>249.8</ele>
        <time>2020-07-04T15:41:49Z</time>
      </trkpt>
      <trkpt lat="46.2948150" lon="3.3669230">
        <ele>250.0</ele>
        <time>2020-07-04T15:41:53Z</time>
      </trkpt>
      <trkpt lat="46.2942500" lon="3.3669000">
        <ele>250.2</ele>
        <time>2020-07-04T15:42:03Z</time>
      </trkpt>
      <trkpt lat="46.2938700" lon="3.3668810">
        <ele>250.0</ele>
        <time>2020-07-04T15:42:10Z</time>
      </trkpt>
      <trkpt lat="46.2933160" lon="3.3668590">
        <ele>250.0</ele>
        <time>2020-07-04T15:42:20Z</time>
      </trkpt>
      <trkpt lat="46.2931030" lon="3.3668380">
        <ele>250.0</ele>
        <time>2020-07-04T15:42:24Z</time>
      </trkpt>
      <trkpt lat="46.2927770" lon="3.3668060">
        <ele>250.0</ele>
        <time>2020-07-04T15:42:30Z</time>
      </trkpt>
      <trkpt lat="46.2923170" lon="3.3667840">
        <ele>249.4</ele>
        <time>2020-07-04T15:42:38Z</time>
      </trkpt>
      <trkpt lat="46.2921990" lon="3.3667820">
        <ele>249.4</ele>
        <time>2020-07-04T15:42:40Z</time>
      </trkpt>
      <trkpt lat="46.2916570" lon="3.3667540">
        <ele>249.4</ele>
        <time>2020-07-04T15:42:50Z</time>
      </trkpt>
      <trkpt lat="46.2913980" lon="3.3667410">
        <ele>249.8</ele>
        <time>2020-07-04T15:42:56Z</time>
      </trkpt>
      <trkpt lat="46.2913260" lon="3.3667440">
        <ele>249.8</ele>
        <time>2020-07-04T15:42:58Z</time>
      </trkpt>
      <trkpt lat="46.2912620" lon="3.3667580">
        <ele>249.8</ele>
        <time>2020-07-04T15:43:00Z</time>
      </trkpt>
      <trkpt lat="46.2911690" lon="3.3668100">
        <ele>250.4</ele>
        <time>2020-07-04T15:43:04Z</time>
      </trkpt>
      <trkpt lat="46.2911170" lon="3.3667910">
        <ele>251.6</ele>
        <time>2020-07-04T15:43:09Z</time>
      </trkpt>
      <trkpt lat="46.2911210" lon="3.3667800">
        <ele>252.2</ele>
        <time>2020-07-04T15:43:12Z</time>
      </trkpt>
      <trkpt lat="46.2911250" lon="3.3667760">
        <ele>252.6</ele>
        <time>2020-07-04T15:43:16Z</time>
      </trkpt>
      <trkpt lat="46.2911250" lon="3.3667770">
        <ele>252.6</ele>
        <time>2020-07-04T15:43:18Z</time>
      </trkpt>
      <trkpt lat="46.2911370" lon="3.3667900">
        <ele>252.8</ele>
        <time>2020-07-04T15:43:43Z</time>
      </trkpt>
      <trkpt lat="46.2911550" lon="3.3668340">
        <ele>252.8</ele>
        <time>2020-07-04T15:43:47Z</time>
      </trkpt>
      <trkpt lat="46.2911440" lon="3.3669100">
        <ele>252.8</ele>
        <time>2020-07-04T15:43:50Z</time>
      </trkpt>
      <trkpt lat="46.2911400" lon="3.3669460">
        <ele>252.8</ele>
        <time>2020-07-04T15:43:51Z</time>
      </trkpt>
      <trkpt lat="46.2911360" lon="3.3669840">
        <ele>252.8</ele>
        <time>2020-07-04T15:43:52Z</time>
      </trkpt>
      <trkpt lat="46.2911060" lon="3.3671510">
        <ele>252.8</ele>
        <time>2020-07-04T15:43:56Z</time>
      </trkpt>
      <trkpt lat="46.2910480" lon="3.3675290">
        <ele>252.8</ele>
        <time>2020-07-04T15:44:03Z</time>
      </trkpt>
      <trkpt lat="46.2909760" lon="3.3681180">
        <ele>253.0</ele>
        <time>2020-07-04T15:44:12Z</time>
      </trkpt>
      <trkpt lat="46.2909540" lon="3.3682570">
        <ele>252.8</ele>
        <time>2020-07-04T15:44:14Z</time>
      </trkpt>
      <trkpt lat="46.2908870" lon="3.3686770">
        <ele>252.6</ele>
        <time>2020-07-04T15:44:20Z</time>
      </trkpt>
      <trkpt lat="46.2907380" lon="3.3693940">
        <ele>251.8</ele>
        <time>2020-07-04T15:44:30Z</time>
      </trkpt>
      <trkpt lat="46.2906560" lon="3.3696810">
        <ele>251.6</ele>
        <time>2020-07-04T15:44:34Z</time>
      </trkpt>
      <trkpt lat="46.2905340" lon="3.3702060">
        <ele>250.8</ele>
        <time>2020-07-04T15:44:41Z</time>
      </trkpt>
      <trkpt lat="46.2903990" lon="3.3710480">
        <ele>250.8</ele>
        <time>2020-07-04T15:44:51Z</time>
      </trkpt>
      <trkpt lat="46.2902840" lon="3.3718200">
        <ele>250.6</ele>
        <time>2020-07-04T15:45:00Z</time>
      </trkpt>
      <trkpt lat="46.2902610" lon="3.3719840">
        <ele>250.6</ele>
        <time>2020-07-04T15:45:02Z</time>
      </trkpt>
      <trkpt lat="46.2901580" lon="3.3726510">
        <ele>250.4</ele>
        <time>2020-07-04T15:45:11Z</time>
      </trkpt>
      <trkpt lat="46.2901460" lon="3.3727260">
        <ele>250.6</ele>
        <time>2020-07-04T15:45:12Z</time>
      </trkpt>
      <trkpt lat="46.2900450" lon="3.3733970">
        <ele>251.4</ele>
        <time>2020-07-04T15:45:22Z</time>
      </trkpt>
      <trkpt lat="46.2899770" lon="3.3738240">
        <ele>251.4</ele>
        <time>2020-07-04T15:45:28Z</time>
      </trkpt>
      <trkpt lat="46.2898950" lon="3.3741860">
        <ele>251.4</ele>
        <time>2020-07-04T15:45:33Z</time>
      </trkpt>
      <trkpt lat="46.2897380" lon="3.3745200">
        <ele>251.0</ele>
        <time>2020-07-04T15:45:38Z</time>
      </trkpt>
      <trkpt lat="46.2894950" lon="3.3747650">
        <ele>250.8</ele>
        <time>2020-07-04T15:45:44Z</time>
      </trkpt>
      <trkpt lat="46.2891510" lon="3.3750540">
        <ele>250.8</ele>
        <time>2020-07-04T15:45:51Z</time>
      </trkpt>
      <trkpt lat="46.2887040" lon="3.3754550">
        <ele>250.4</ele>
        <time>2020-07-04T15:46:00Z</time>
      </trkpt>
      <trkpt lat="46.2884510" lon="3.3757770">
        <ele>250.6</ele>
        <time>2020-07-04T15:46:07Z</time>
      </trkpt>
      <trkpt lat="46.2881120" lon="3.3763640">
        <ele>250.8</ele>
        <time>2020-07-04T15:46:18Z</time>
      </trkpt>
      <trkpt lat="46.2879330" lon="3.3766860">
        <ele>251.0</ele>
        <time>2020-07-04T15:46:24Z</time>
      </trkpt>
      <trkpt lat="46.2878410" lon="3.3768680">
        <ele>251.2</ele>
        <time>2020-07-04T15:46:27Z</time>
      </trkpt>
      <trkpt lat="46.2875370" lon="3.3774870">
        <ele>251.2</ele>
        <time>2020-07-04T15:46:36Z</time>
      </trkpt>
      <trkpt lat="46.2873060" lon="3.3780600">
        <ele>250.4</ele>
        <time>2020-07-04T15:46:43Z</time>
      </trkpt>
      <trkpt lat="46.2871680" lon="3.3782690">
        <ele>249.6</ele>
        <time>2020-07-04T15:46:46Z</time>
      </trkpt>
      <trkpt lat="46.2871120" lon="3.3783190">
        <ele>249.4</ele>
        <time>2020-07-04T15:46:47Z</time>
      </trkpt>
      <trkpt lat="46.2869330" lon="3.3784120">
        <ele>249.0</ele>
        <time>2020-07-04T15:46:50Z</time>
      </trkpt>
      <trkpt lat="46.2868160" lon="3.3784530">
        <ele>249.0</ele>
        <time>2020-07-04T15:46:52Z</time>
      </trkpt>
      <trkpt lat="46.2864230" lon="3.3785380">
        <ele>249.0</ele>
        <time>2020-07-04T15:46:59Z</time>
      </trkpt>
      <trkpt lat="46.2863210" lon="3.3785720">
        <ele>249.0</ele>
        <time>2020-07-04T15:47:01Z</time>
      </trkpt>
      <trkpt lat="46.2861480" lon="3.3786330">
        <ele>249.0</ele>
        <time>2020-07-04T15:47:05Z</time>
      </trkpt>
      <trkpt lat="46.2860370" lon="3.3786820">
        <ele>249.6</ele>
        <time>2020-07-04T15:47:08Z</time>
      </trkpt>
      <trkpt lat="46.2860030" lon="3.3787000">
        <ele>249.6</ele>
        <time>2020-07-04T15:47:09Z</time>
      </trkpt>
      <trkpt lat="46.2857350" lon="3.3788830">
        <ele>251.4</ele>
        <time>2020-07-04T15:47:17Z</time>
      </trkpt>
      <trkpt lat="46.2854170" lon="3.3792020">
        <ele>252.0</ele>
        <time>2020-07-04T15:47:26Z</time>
      </trkpt>
      <trkpt lat="46.2850860" lon="3.3795600">
        <ele>252.0</ele>
        <time>2020-07-04T15:47:34Z</time>
      </trkpt>
      <trkpt lat="46.2847810" lon="3.3798950">
        <ele>251.8</ele>
        <time>2020-07-04T15:47:42Z</time>
      </trkpt>
      <trkpt lat="46.2844770" lon="3.3800930">
        <ele>252.0</ele>
        <time>2020-07-04T15:47:49Z</time>
      </trkpt>
      <trkpt lat="46.2841820" lon="3.3802380">
        <ele>252.0</ele>
        <time>2020-07-04T15:47:55Z</time>
      </trkpt>
      <trkpt lat="46.2839800" lon="3.3803310">
        <ele>251.6</ele>
        <time>2020-07-04T15:47:59Z</time>
      </trkpt>
      <trkpt lat="46.2834260" lon="3.3805940">
        <ele>251.4</ele>
        <time>2020-07-04T15:48:10Z</time>
      </trkpt>
      <trkpt lat="46.2833750" lon="3.3806190">
        <ele>251.2</ele>
        <time>2020-07-04T15:48:11Z</time>
      </trkpt>
      <trkpt lat="46.2828390" lon="3.3808740">
        <ele>251.0</ele>
        <time>2020-07-04T15:48:21Z</time>
      </trkpt>
      <trkpt lat="46.2827870" lon="3.3808990">
        <ele>251.0</ele>
        <time>2020-07-04T15:48:22Z</time>
      </trkpt>
      <trkpt lat="46.2822570" lon="3.3811710">
        <ele>251.2</ele>
        <time>2020-07-04T15:48:33Z</time>
      </trkpt>
      <trkpt lat="46.2822120" lon="3.3811950">
        <ele>251.2</ele>
        <time>2020-07-04T15:48:34Z</time>
      </trkpt>
      <trkpt lat="46.2816860" lon="3.3814810">
        <ele>251.2</ele>
        <time>2020-07-04T15:48:45Z</time>
      </trkpt>
      <trkpt lat="46.2816360" lon="3.3815070">
        <ele>251.2</ele>
        <time>2020-07-04T15:48:46Z</time>
      </trkpt>
      <trkpt lat="46.2812150" lon="3.3817290">
        <ele>250.6</ele>
        <time>2020-07-04T15:48:54Z</time>
      </trkpt>
      <trkpt lat="46.2811590" lon="3.3817570">
        <ele>250.4</ele>
        <time>2020-07-04T15:48:55Z</time>
      </trkpt>
      <trkpt lat="46.2809840" lon="3.3818510">
        <ele>250.4</ele>
        <time>2020-07-04T15:48:58Z</time>
      </trkpt>
      <trkpt lat="46.2805340" lon="3.3820900">
        <ele>249.4</ele>
        <time>2020-07-04T15:49:06Z</time>
      </trkpt>
      <trkpt lat="46.2800350" lon="3.3824670">
        <ele>248.8</ele>
        <time>2020-07-04T15:49:16Z</time>
      </trkpt>
      <trkpt lat="46.2799420" lon="3.3825570">
        <ele>248.8</ele>
        <time>2020-07-04T15:49:18Z</time>
      </trkpt>
      <trkpt lat="46.2796270" lon="3.3828260">
        <ele>249.2</ele>
        <time>2020-07-04T15:49:25Z</time>
      </trkpt>
      <trkpt lat="46.2793140" lon="3.3830410">
        <ele>249.4</ele>
        <time>2020-07-04T15:49:32Z</time>
      </trkpt>
      <trkpt lat="46.2791080" lon="3.3831640">
        <ele>249.6</ele>
        <time>2020-07-04T15:49:36Z</time>
      </trkpt>
      <trkpt lat="46.2789960" lon="3.3832170">
        <ele>249.8</ele>
        <time>2020-07-04T15:49:38Z</time>
      </trkpt>
      <trkpt lat="46.2785800" lon="3.3834050">
        <ele>249.8</ele>
        <time>2020-07-04T15:49:45Z</time>
      </trkpt>
      <trkpt lat="46.2780550" lon="3.3836030">
        <ele>249.0</ele>
        <time>2020-07-04T15:49:54Z</time>
      </trkpt>
      <trkpt lat="46.2779390" lon="3.3836450">
        <ele>248.8</ele>
        <time>2020-07-04T15:49:56Z</time>
      </trkpt>
      <trkpt lat="46.2773630" lon="3.3838320">
        <ele>249.0</ele>
        <time>2020-07-04T15:50:06Z</time>
      </trkpt>
      <trkpt lat="46.2772530" lon="3.3838950">
        <ele>249.0</ele>
        <time>2020-07-04T15:50:08Z</time>
      </trkpt>
      <trkpt lat="46.2769720" lon="3.3841720">
        <ele>249.2</ele>
        <time>2020-07-04T15:50:14Z</time>
      </trkpt>
      <trkpt lat="46.2765410" lon="3.3847280">
        <ele>249.2</ele>
        <time>2020-07-04T15:50:24Z</time>
      </trkpt>
      <trkpt lat="46.2764500" lon="3.3848320">
        <ele>249.4</ele>
        <time>2020-07-04T15:50:26Z</time>
      </trkpt>
      <trkpt lat="46.2760310" lon="3.3851970">
        <ele>249.4</ele>
        <time>2020-07-04T15:50:35Z</time>
      </trkpt>
      <trkpt lat="46.2759290" lon="3.3852310">
        <ele>249.2</ele>
        <time>2020-07-04T15:50:37Z</time>
      </trkpt>
      <trkpt lat="46.2756340" lon="3.3852880">
        <ele>249.8</ele>
        <time>2020-07-04T15:50:43Z</time>
      </trkpt>
      <trkpt lat="46.2752010" lon="3.3853750">
        <ele>250.6</ele>
        <time>2020-07-04T15:50:51Z</time>
      </trkpt>
      <trkpt lat="46.2746330" lon="3.3855400">
        <ele>251.0</ele>
        <time>2020-07-04T15:51:01Z</time>
      </trkpt>
      <trkpt lat="46.2745750" lon="3.3855570">
        <ele>251.0</ele>
        <time>2020-07-04T15:51:02Z</time>
      </trkpt>
      <trkpt lat="46.2740210" lon="3.3857230">
        <ele>250.8</ele>
        <time>2020-07-04T15:51:12Z</time>
      </trkpt>
      <trkpt lat="46.2735580" lon="3.3858450">
        <ele>250.6</ele>
        <time>2020-07-04T15:51:21Z</time>
      </trkpt>
      <trkpt lat="46.2730090" lon="3.3859940">
        <ele>250.6</ele>
        <time>2020-07-04T15:51:31Z</time>
      </trkpt>
      <trkpt lat="46.2729540" lon="3.3860100">
        <ele>250.6</ele>
        <time>2020-07-04T15:51:32Z</time>
      </trkpt>
      <trkpt lat="46.2724170" lon="3.3861610">
        <ele>250.6</ele>
        <time>2020-07-04T15:51:42Z</time>
      </trkpt>
      <trkpt lat="46.2723600" lon="3.3861740">
        <ele>250.8</ele>
        <time>2020-07-04T15:51:43Z</time>
      </trkpt>
      <trkpt lat="46.2721860" lon="3.3862240">
        <ele>250.6</ele>
        <time>2020-07-04T15:51:46Z</time>
      </trkpt>
      <trkpt lat="46.2716470" lon="3.3863850">
        <ele>250.0</ele>
        <time>2020-07-04T15:51:55Z</time>
      </trkpt>
      <trkpt lat="46.2710980" lon="3.3865280">
        <ele>249.6</ele>
        <time>2020-07-04T15:52:04Z</time>
      </trkpt>
      <trkpt lat="46.2709790" lon="3.3865620">
        <ele>249.6</ele>
        <time>2020-07-04T15:52:06Z</time>
      </trkpt>
      <trkpt lat="46.2707490" lon="3.3866200">
        <ele>249.6</ele>
        <time>2020-07-04T15:52:10Z</time>
      </trkpt>
      <trkpt lat="46.2706450" lon="3.3866470">
        <ele>249.6</ele>
        <time>2020-07-04T15:52:12Z</time>
      </trkpt>
      <trkpt lat="46.2704720" lon="3.3866890">
        <ele>250.6</ele>
        <time>2020-07-04T15:52:16Z</time>
      </trkpt>
      <trkpt lat="46.2701910" lon="3.3867680">
        <ele>251.8</ele>
        <time>2020-07-04T15:52:23Z</time>
      </trkpt>
      <trkpt lat="46.2701470" lon="3.3867810">
        <ele>252.0</ele>
        <time>2020-07-04T15:52:24Z</time>
      </trkpt>
      <trkpt lat="46.2701030" lon="3.3867950">
        <ele>252.2</ele>
        <time>2020-07-04T15:52:25Z</time>
      </trkpt>
      <trkpt lat="46.2700580" lon="3.3868080">
        <ele>252.4</ele>
        <time>2020-07-04T15:52:26Z</time>
      </trkpt>
      <trkpt lat="46.2698720" lon="3.3868630">
        <ele>252.8</ele>
        <time>2020-07-04T15:52:30Z</time>
      </trkpt>
      <trkpt lat="46.2694360" lon="3.3869900">
        <ele>252.8</ele>
        <time>2020-07-04T15:52:39Z</time>
      </trkpt>
      <trkpt lat="46.2690580" lon="3.3871850">
        <ele>252.8</ele>
        <time>2020-07-04T15:52:47Z</time>
      </trkpt>
      <trkpt lat="46.2688040" lon="3.3874820">
        <ele>252.8</ele>
        <time>2020-07-04T15:52:53Z</time>
      </trkpt>
      <trkpt lat="46.2684800" lon="3.3880380">
        <ele>252.6</ele>
        <time>2020-07-04T15:53:02Z</time>
      </trkpt>
      <trkpt lat="46.2681080" lon="3.3886780">
        <ele>252.2</ele>
        <time>2020-07-04T15:53:12Z</time>
      </trkpt>
      <trkpt lat="46.2680650" lon="3.3887340">
        <ele>252.2</ele>
        <time>2020-07-04T15:53:13Z</time>
      </trkpt>
      <trkpt lat="46.2680210" lon="3.3887890">
        <ele>252.2</ele>
        <time>2020-07-04T15:53:14Z</time>
      </trkpt>
      <trkpt lat="46.2677150" lon="3.3890300">
        <ele>252.0</ele>
        <time>2020-07-04T15:53:20Z</time>
      </trkpt>
      <trkpt lat="46.2673670" lon="3.3891340">
        <ele>251.6</ele>
        <time>2020-07-04T15:53:26Z</time>
      </trkpt>
      <trkpt lat="46.2669420" lon="3.3891170">
        <ele>251.0</ele>
        <time>2020-07-04T15:53:33Z</time>
      </trkpt>
      <trkpt lat="46.2663620" lon="3.3890330">
        <ele>251.0</ele>
        <time>2020-07-04T15:53:43Z</time>
      </trkpt>
      <trkpt lat="46.2658200" lon="3.3889520">
        <ele>251.2</ele>
        <time>2020-07-04T15:53:53Z</time>
      </trkpt>
      <trkpt lat="46.2657690" lon="3.3889400">
        <ele>251.2</ele>
        <time>2020-07-04T15:53:54Z</time>
      </trkpt>
      <trkpt lat="46.2652970" lon="3.3888520">
        <ele>251.2</ele>
        <time>2020-07-04T15:54:03Z</time>
      </trkpt>
      <trkpt lat="46.2651940" lon="3.3888250">
        <ele>251.4</ele>
        <time>2020-07-04T15:54:05Z</time>
      </trkpt>
      <trkpt lat="46.2646510" lon="3.3887330">
        <ele>252.0</ele>
        <time>2020-07-04T15:54:15Z</time>
      </trkpt>
      <trkpt lat="46.2641090" lon="3.3886490">
        <ele>252.4</ele>
        <time>2020-07-04T15:54:25Z</time>
      </trkpt>
      <trkpt lat="46.2638840" lon="3.3886120">
        <ele>252.6</ele>
        <time>2020-07-04T15:54:29Z</time>
      </trkpt>
      <trkpt lat="46.2635480" lon="3.3885560">
        <ele>252.8</ele>
        <time>2020-07-04T15:54:35Z</time>
      </trkpt>
      <trkpt lat="46.2631940" lon="3.3885070">
        <ele>252.2</ele>
        <time>2020-07-04T15:54:42Z</time>
      </trkpt>
      <trkpt lat="46.2629770" lon="3.3884700">
        <ele>252.4</ele>
        <time>2020-07-04T15:54:47Z</time>
      </trkpt>
      <trkpt lat="46.2628690" lon="3.3884540">
        <ele>252.4</ele>
        <time>2020-07-04T15:54:50Z</time>
      </trkpt>
      <trkpt lat="46.2628380" lon="3.3884470">
        <ele>252.8</ele>
        <time>2020-07-04T15:54:51Z</time>
      </trkpt>
      <trkpt lat="46.2627410" lon="3.3884240">
        <ele>253.8</ele>
        <time>2020-07-04T15:54:56Z</time>
      </trkpt>
      <trkpt lat="46.2627080" lon="3.3884200">
        <ele>254.2</ele>
        <time>2020-07-04T15:54:58Z</time>
      </trkpt>
      <trkpt lat="46.2625830" lon="3.3883990">
        <ele>256.4</ele>
        <time>2020-07-04T15:55:05Z</time>
      </trkpt>
      <trkpt lat="46.2625330" lon="3.3883920">
        <ele>256.6</ele>
        <time>2020-07-04T15:55:08Z</time>
      </trkpt>
      <trkpt lat="46.2624520" lon="3.3883840">
        <ele>257.4</ele>
        <time>2020-07-04T15:55:13Z</time>
      </trkpt>
      <trkpt lat="46.2622810" lon="3.3883790">
        <ele>258.6</ele>
        <time>2020-07-04T15:55:22Z</time>
      </trkpt>
      <trkpt lat="46.2622040" lon="3.3883900">
        <ele>259.6</ele>
        <time>2020-07-04T15:55:26Z</time>
      </trkpt>
      <trkpt lat="46.2620530" lon="3.3884410">
        <ele>260.2</ele>
        <time>2020-07-04T15:55:33Z</time>
      </trkpt>
      <trkpt lat="46.2618170" lon="3.3885450">
        <ele>261.0</ele>
        <time>2020-07-04T15:55:41Z</time>
      </trkpt>
      <trkpt lat="46.2613280" lon="3.3887360">
        <ele>261.4</ele>
        <time>2020-07-04T15:55:53Z</time>
      </trkpt>
      <trkpt lat="46.2612030" lon="3.3887970">
        <ele>261.4</ele>
        <time>2020-07-04T15:55:56Z</time>
      </trkpt>
      <trkpt lat="46.2608150" lon="3.3889560">
        <ele>261.6</ele>
        <time>2020-07-04T15:56:05Z</time>
      </trkpt>
      <trkpt lat="46.2603860" lon="3.3891160">
        <ele>262.0</ele>
        <time>2020-07-04T15:56:15Z</time>
      </trkpt>
      <trkpt lat="46.2601580" lon="3.3892130">
        <ele>262.0</ele>
        <time>2020-07-04T15:56:20Z</time>
      </trkpt>
      <trkpt lat="46.2598760" lon="3.3893270">
        <ele>261.6</ele>
        <time>2020-07-04T15:56:26Z</time>
      </trkpt>
      <trkpt lat="46.2593220" lon="3.3895830">
        <ele>261.4</ele>
        <time>2020-07-04T15:56:38Z</time>
      </trkpt>
      <trkpt lat="46.2592760" lon="3.3896070">
        <ele>261.4</ele>
        <time>2020-07-04T15:56:39Z</time>
      </trkpt>
      <trkpt lat="46.2587800" lon="3.3899510">
        <ele>261.8</ele>
        <time>2020-07-04T15:56:50Z</time>
      </trkpt>
      <trkpt lat="46.2586440" lon="3.3900580">
        <ele>262.0</ele>
        <time>2020-07-04T15:56:53Z</time>
      </trkpt>
      <trkpt lat="46.2582290" lon="3.3903680">
        <ele>262.6</ele>
        <time>2020-07-04T15:57:02Z</time>
      </trkpt>
      <trkpt lat="46.2578210" lon="3.3906930">
        <ele>263.0</ele>
        <time>2020-07-04T15:57:11Z</time>
      </trkpt>
      <trkpt lat="46.2573500" lon="3.3909880">
        <ele>262.8</ele>
        <time>2020-07-04T15:57:21Z</time>
      </trkpt>
      <trkpt lat="46.2568530" lon="3.3912920">
        <ele>263.0</ele>
        <time>2020-07-04T15:57:31Z</time>
      </trkpt>
      <trkpt lat="46.2567050" lon="3.3913850">
        <ele>262.8</ele>
        <time>2020-07-04T15:57:34Z</time>
      </trkpt>
      <trkpt lat="46.2562470" lon="3.3916530">
        <ele>263.2</ele>
        <time>2020-07-04T15:57:44Z</time>
      </trkpt>
      <trkpt lat="46.2558960" lon="3.3918780">
        <ele>263.6</ele>
        <time>2020-07-04T15:57:52Z</time>
      </trkpt>
      <trkpt lat="46.2557450" lon="3.3919630">
        <ele>263.4</ele>
        <time>2020-07-04T15:57:55Z</time>
      </trkpt>
      <trkpt lat="46.2552080" lon="3.3922270">
        <ele>263.2</ele>
        <time>2020-07-04T15:58:05Z</time>
      </trkpt>
      <trkpt lat="46.2551490" lon="3.3922470">
        <ele>263.2</ele>
        <time>2020-07-04T15:58:06Z</time>
      </trkpt>
      <trkpt lat="46.2545930" lon="3.3924590">
        <ele>263.2</ele>
        <time>2020-07-04T15:58:16Z</time>
      </trkpt>
      <trkpt lat="46.2543730" lon="3.3925560">
        <ele>263.2</ele>
        <time>2020-07-04T15:58:20Z</time>
      </trkpt>
      <trkpt lat="46.2540930" lon="3.3926640">
        <ele>263.2</ele>
        <time>2020-07-04T15:58:25Z</time>
      </trkpt>
      <trkpt lat="46.2540350" lon="3.3926870">
        <ele>263.4</ele>
        <time>2020-07-04T15:58:26Z</time>
      </trkpt>
      <trkpt lat="46.2537550" lon="3.3927930">
        <ele>263.2</ele>
        <time>2020-07-04T15:58:31Z</time>
      </trkpt>
      <trkpt lat="46.2536470" lon="3.3928330">
        <ele>263.0</ele>
        <time>2020-07-04T15:58:33Z</time>
      </trkpt>
      <trkpt lat="46.2534210" lon="3.3929090">
        <ele>262.8</ele>
        <time>2020-07-04T15:58:37Z</time>
      </trkpt>
      <trkpt lat="46.2533600" lon="3.3929280">
        <ele>262.6</ele>
        <time>2020-07-04T15:58:38Z</time>
      </trkpt>
      <trkpt lat="46.2532970" lon="3.3929460">
        <ele>262.8</ele>
        <time>2020-07-04T15:58:39Z</time>
      </trkpt>
      <trkpt lat="46.2532300" lon="3.3929630">
        <ele>262.6</ele>
        <time>2020-07-04T15:58:40Z</time>
      </trkpt>
      <trkpt lat="46.2527900" lon="3.3930790">
        <ele>261.2</ele>
        <time>2020-07-04T15:58:46Z</time>
      </trkpt>
      <trkpt lat="46.2526710" lon="3.3930970">
        <ele>260.0</ele>
        <time>2020-07-04T15:58:48Z</time>
      </trkpt>
      <trkpt lat="46.2525700" lon="3.3930940">
        <ele>259.6</ele>
        <time>2020-07-04T15:58:50Z</time>
      </trkpt>
      <trkpt lat="46.2525250" lon="3.3930840">
        <ele>259.6</ele>
        <time>2020-07-04T15:58:51Z</time>
      </trkpt>
      <trkpt lat="46.2523780" lon="3.3930150">
        <ele>259.4</ele>
        <time>2020-07-04T15:58:55Z</time>
      </trkpt>
      <trkpt lat="46.2522580" lon="3.3929510">
        <ele>259.6</ele>
        <time>2020-07-04T15:58:59Z</time>
      </trkpt>
      <trkpt lat="46.2520650" lon="3.3928690">
        <ele>261.8</ele>
        <time>2020-07-04T15:59:06Z</time>
      </trkpt>
      <trkpt lat="46.2517450" lon="3.3927890">
        <ele>263.6</ele>
        <time>2020-07-04T15:59:17Z</time>
      </trkpt>
      <trkpt lat="46.2517150" lon="3.3927860">
        <ele>263.8</ele>
        <time>2020-07-04T15:59:18Z</time>
      </trkpt>
      <trkpt lat="46.2515320" lon="3.3927680">
        <ele>264.2</ele>
        <time>2020-07-04T15:59:24Z</time>
      </trkpt>
      <trkpt lat="46.2513390" lon="3.3927450">
        <ele>264.8</ele>
        <time>2020-07-04T15:59:31Z</time>
      </trkpt>
      <trkpt lat="46.2512810" lon="3.3927410">
        <ele>265.2</ele>
        <time>2020-07-04T15:59:33Z</time>
      </trkpt>
      <trkpt lat="46.2511130" lon="3.3927240">
        <ele>266.2</ele>
        <time>2020-07-04T15:59:39Z</time>
      </trkpt>
      <trkpt lat="46.2510600" lon="3.3927320">
        <ele>266.4</ele>
        <time>2020-07-04T15:59:41Z</time>
      </trkpt>
      <trkpt lat="46.2508930" lon="3.3927220">
        <ele>267.0</ele>
        <time>2020-07-04T15:59:47Z</time>
      </trkpt>
      <trkpt lat="46.2508420" lon="3.3927070">
        <ele>267.4</ele>
        <time>2020-07-04T15:59:49Z</time>
      </trkpt>
      <trkpt lat="46.2506690" lon="3.3927480">
        <ele>268.0</ele>
        <time>2020-07-04T15:59:55Z</time>
      </trkpt>
      <trkpt lat="46.2506370" lon="3.3927560">
        <ele>268.0</ele>
        <time>2020-07-04T15:59:56Z</time>
      </trkpt>
      <trkpt lat="46.2505370" lon="3.3927800">
        <ele>268.2</ele>
        <time>2020-07-04T15:59:59Z</time>
      </trkpt>
      <trkpt lat="46.2504660" lon="3.3927900">
        <ele>268.2</ele>
        <time>2020-07-04T16:00:01Z</time>
      </trkpt>
      <trkpt lat="46.2503460" lon="3.3927850">
        <ele>268.4</ele>
        <time>2020-07-04T16:00:04Z</time>
      </trkpt>
      <trkpt lat="46.2502570" lon="3.3927820">
        <ele>268.2</ele>
        <time>2020-07-04T16:00:06Z</time>
      </trkpt>
      <trkpt lat="46.2500660" lon="3.3927720">
        <ele>267.4</ele>
        <time>2020-07-04T16:00:10Z</time>
      </trkpt>
      <trkpt lat="46.2499130" lon="3.3927530">
        <ele>267.4</ele>
        <time>2020-07-04T16:00:13Z</time>
      </trkpt>
      <trkpt lat="46.2495070" lon="3.3927090">
        <ele>267.2</ele>
        <time>2020-07-04T16:00:21Z</time>
      </trkpt>
      <trkpt lat="46.2494090" lon="3.3926990">
        <ele>267.0</ele>
        <time>2020-07-04T16:00:23Z</time>
      </trkpt>
      <trkpt lat="46.2490420" lon="3.3926840">
        <ele>267.2</ele>
        <time>2020-07-04T16:00:31Z</time>
      </trkpt>
      <trkpt lat="46.2490020" lon="3.3926820">
        <ele>267.2</ele>
        <time>2020-07-04T16:00:32Z</time>
      </trkpt>
      <trkpt lat="46.2486170" lon="3.3927120">
        <ele>269.0</ele>
        <time>2020-07-04T16:00:41Z</time>
      </trkpt>
      <trkpt lat="46.2481390" lon="3.3926860">
        <ele>269.6</ele>
        <time>2020-07-04T16:00:51Z</time>
      </trkpt>
      <trkpt lat="46.2480930" lon="3.3926760">
        <ele>269.6</ele>
        <time>2020-07-04T16:00:52Z</time>
      </trkpt>
      <trkpt lat="46.2475820" lon="3.3925080">
        <ele>270.0</ele>
        <time>2020-07-04T16:01:03Z</time>
      </trkpt>
      <trkpt lat="46.2474020" lon="3.3924510">
        <ele>270.0</ele>
        <time>2020-07-04T16:01:07Z</time>
      </trkpt>
      <trkpt lat="46.2472580" lon="3.3924070">
        <ele>270.0</ele>
        <time>2020-07-04T16:01:10Z</time>
      </trkpt>
      <trkpt lat="46.2470610" lon="3.3923460">
        <ele>270.2</ele>
        <time>2020-07-04T16:01:14Z</time>
      </trkpt>
      <trkpt lat="46.2465040" lon="3.3921770">
        <ele>270.2</ele>
        <time>2020-07-04T16:01:25Z</time>
      </trkpt>
      <trkpt lat="46.2461070" lon="3.3921600">
        <ele>270.2</ele>
        <time>2020-07-04T16:01:33Z</time>
      </trkpt>
      <trkpt lat="46.2459790" lon="3.3922070">
        <ele>270.2</ele>
        <time>2020-07-04T16:01:36Z</time>
      </trkpt>
      <trkpt lat="46.2459040" lon="3.3922730">
        <ele>270.0</ele>
        <time>2020-07-04T16:01:38Z</time>
      </trkpt>
      <trkpt lat="46.2458670" lon="3.3923140">
        <ele>270.0</ele>
        <time>2020-07-04T16:01:39Z</time>
      </trkpt>
      <trkpt lat="46.2456800" lon="3.3925670">
        <ele>270.0</ele>
        <time>2020-07-04T16:01:44Z</time>
      </trkpt>
      <trkpt lat="46.2455530" lon="3.3927360">
        <ele>270.0</ele>
        <time>2020-07-04T16:01:47Z</time>
      </trkpt>
      <trkpt lat="46.2455100" lon="3.3927970">
        <ele>269.8</ele>
        <time>2020-07-04T16:01:48Z</time>
      </trkpt>
      <trkpt lat="46.2454170" lon="3.3929380">
        <ele>269.8</ele>
        <time>2020-07-04T16:01:50Z</time>
      </trkpt>
      <trkpt lat="46.2453150" lon="3.3930850">
        <ele>269.6</ele>
        <time>2020-07-04T16:01:52Z</time>
      </trkpt>
      <trkpt lat="46.2452590" lon="3.3931640">
        <ele>269.4</ele>
        <time>2020-07-04T16:01:53Z</time>
      </trkpt>
      <trkpt lat="46.2451970" lon="3.3932470">
        <ele>269.4</ele>
        <time>2020-07-04T16:01:54Z</time>
      </trkpt>
      <trkpt lat="46.2451330" lon="3.3933320">
        <ele>268.8</ele>
        <time>2020-07-04T16:01:55Z</time>
      </trkpt>
      <trkpt lat="46.2450040" lon="3.3935100">
        <ele>268.0</ele>
        <time>2020-07-04T16:01:57Z</time>
      </trkpt>
      <trkpt lat="46.2448690" lon="3.3936910">
        <ele>267.0</ele>
        <time>2020-07-04T16:01:59Z</time>
      </trkpt>
      <trkpt lat="46.2448040" lon="3.3937840">
        <ele>266.4</ele>
        <time>2020-07-04T16:02:00Z</time>
      </trkpt>
      <trkpt lat="46.2447350" lon="3.3938790">
        <ele>265.6</ele>
        <time>2020-07-04T16:02:01Z</time>
      </trkpt>
      <trkpt lat="46.2445900" lon="3.3940680">
        <ele>264.8</ele>
        <time>2020-07-04T16:02:03Z</time>
      </trkpt>
      <trkpt lat="46.2442980" lon="3.3944590">
        <ele>261.2</ele>
        <time>2020-07-04T16:02:07Z</time>
      </trkpt>
      <trkpt lat="46.2442280" lon="3.3945470">
        <ele>260.4</ele>
        <time>2020-07-04T16:02:08Z</time>
      </trkpt>
      <trkpt lat="46.2441020" lon="3.3947120">
        <ele>259.4</ele>
        <time>2020-07-04T16:02:10Z</time>
      </trkpt>
      <trkpt lat="46.2439990" lon="3.3948560">
        <ele>259.2</ele>
        <time>2020-07-04T16:02:12Z</time>
      </trkpt>
      <trkpt lat="46.2438890" lon="3.3950150">
        <ele>259.0</ele>
        <time>2020-07-04T16:02:15Z</time>
      </trkpt>
      <trkpt lat="46.2438570" lon="3.3950550">
        <ele>259.0</ele>
        <time>2020-07-04T16:02:16Z</time>
      </trkpt>
      <trkpt lat="46.2437760" lon="3.3951480">
        <ele>259.0</ele>
        <time>2020-07-04T16:02:19Z</time>
      </trkpt>
      <trkpt lat="46.2437220" lon="3.3951820">
        <ele>260.6</ele>
        <time>2020-07-04T16:02:21Z</time>
      </trkpt>
      <trkpt lat="46.2436440" lon="3.3952260">
        <ele>262.2</ele>
        <time>2020-07-04T16:02:24Z</time>
      </trkpt>
      <trkpt lat="46.2435150" lon="3.3953000">
        <ele>264.6</ele>
        <time>2020-07-04T16:02:29Z</time>
      </trkpt>
      <trkpt lat="46.2432120" lon="3.3954890">
        <ele>265.6</ele>
        <time>2020-07-04T16:02:39Z</time>
      </trkpt>
      <trkpt lat="46.2428440" lon="3.3956820">
        <ele>265.2</ele>
        <time>2020-07-04T16:02:47Z</time>
      </trkpt>
      <trkpt lat="46.2424030" lon="3.3958060">
        <ele>264.4</ele>
        <time>2020-07-04T16:02:55Z</time>
      </trkpt>
      <trkpt lat="46.2418940" lon="3.3958220">
        <ele>264.4</ele>
        <time>2020-07-04T16:03:05Z</time>
      </trkpt>
      <trkpt lat="46.2418460" lon="3.3958260">
        <ele>264.2</ele>
        <time>2020-07-04T16:03:06Z</time>
      </trkpt>
      <trkpt lat="46.2413010" lon="3.3958610">
        <ele>265.4</ele>
        <time>2020-07-04T16:03:17Z</time>
      </trkpt>
      <trkpt lat="46.2410460" lon="3.3958740">
        <ele>265.4</ele>
        <time>2020-07-04T16:03:22Z</time>
      </trkpt>
      <trkpt lat="46.2404690" lon="3.3959190">
        <ele>266.0</ele>
        <time>2020-07-04T16:03:34Z</time>
      </trkpt>
      <trkpt lat="46.2404230" lon="3.3959200">
        <ele>266.0</ele>
        <time>2020-07-04T16:03:35Z</time>
      </trkpt>
      <trkpt lat="46.2402870" lon="3.3959290">
        <ele>266.2</ele>
        <time>2020-07-04T16:03:38Z</time>
      </trkpt>
      <trkpt lat="46.2400280" lon="3.3959260">
        <ele>266.6</ele>
        <time>2020-07-04T16:03:44Z</time>
      </trkpt>
      <trkpt lat="46.2398650" lon="3.3959070">
        <ele>266.6</ele>
        <time>2020-07-04T16:03:48Z</time>
      </trkpt>
      <trkpt lat="46.2397190" lon="3.3959080">
        <ele>267.2</ele>
        <time>2020-07-04T16:03:52Z</time>
      </trkpt>
      <trkpt lat="46.2395520" lon="3.3959060">
        <ele>268.4</ele>
        <time>2020-07-04T16:03:57Z</time>
      </trkpt>
      <trkpt lat="46.2391950" lon="3.3959440">
        <ele>269.0</ele>
        <time>2020-07-04T16:04:07Z</time>
      </trkpt>
      <trkpt lat="46.2391530" lon="3.3959530">
        <ele>269.0</ele>
        <time>2020-07-04T16:04:08Z</time>
      </trkpt>
      <trkpt lat="46.2388150" lon="3.3960460">
        <ele>268.8</ele>
        <time>2020-07-04T16:04:17Z</time>
      </trkpt>
      <trkpt lat="46.2387820" lon="3.3960540">
        <ele>268.8</ele>
        <time>2020-07-04T16:04:18Z</time>
      </trkpt>
      <trkpt lat="46.2384080" lon="3.3961480">
        <ele>268.6</ele>
        <time>2020-07-04T16:04:28Z</time>
      </trkpt>
      <trkpt lat="46.2379530" lon="3.3962750">
        <ele>269.0</ele>
        <time>2020-07-04T16:04:39Z</time>
      </trkpt>
      <trkpt lat="46.2377240" lon="3.3963400">
        <ele>269.2</ele>
        <time>2020-07-04T16:04:45Z</time>
      </trkpt>
      <trkpt lat="46.2376850" lon="3.3963510">
        <ele>269.2</ele>
        <time>2020-07-04T16:04:46Z</time>
      </trkpt>
      <trkpt lat="46.2376040" lon="3.3963730">
        <ele>269.2</ele>
        <time>2020-07-04T16:04:48Z</time>
      </trkpt>
      <trkpt lat="46.2375200" lon="3.3963940">
        <ele>269.4</ele>
        <time>2020-07-04T16:04:50Z</time>
      </trkpt>
      <trkpt lat="46.2374770" lon="3.3964060">
        <ele>269.6</ele>
        <time>2020-07-04T16:04:51Z</time>
      </trkpt>
      <trkpt lat="46.2373940" lon="3.3964310">
        <ele>269.6</ele>
        <time>2020-07-04T16:04:53Z</time>
      </trkpt>
      <trkpt lat="46.2373120" lon="3.3964550">
        <ele>269.6</ele>
        <time>2020-07-04T16:04:55Z</time>
      </trkpt>
      <trkpt lat="46.2372730" lon="3.3964670">
        <ele>269.8</ele>
        <time>2020-07-04T16:04:56Z</time>
      </trkpt>
      <trkpt lat="46.2372370" lon="3.3964790">
        <ele>269.8</ele>
        <time>2020-07-04T16:04:57Z</time>
      </trkpt>
      <trkpt lat="46.2370480" lon="3.3965270">
        <ele>270.0</ele>
        <time>2020-07-04T16:05:02Z</time>
      </trkpt>
      <trkpt lat="46.2367870" lon="3.3965860">
        <ele>270.6</ele>
        <time>2020-07-04T16:05:09Z</time>
      </trkpt>
      <trkpt lat="46.2366210" lon="3.3966230">
        <ele>271.4</ele>
        <time>2020-07-04T16:05:14Z</time>
      </trkpt>
      <trkpt lat="46.2365560" lon="3.3966420">
        <ele>271.8</ele>
        <time>2020-07-04T16:05:16Z</time>
      </trkpt>
      <trkpt lat="46.2364510" lon="3.3966690">
        <ele>272.2</ele>
        <time>2020-07-04T16:05:19Z</time>
      </trkpt>
      <trkpt lat="46.2363370" lon="3.3966830">
        <ele>272.6</ele>
        <time>2020-07-04T16:05:22Z</time>
      </trkpt>
      <trkpt lat="46.2359150" lon="3.3967550">
        <ele>273.0</ele>
        <time>2020-07-04T16:05:33Z</time>
      </trkpt>
      <trkpt lat="46.2354880" lon="3.3968150">
        <ele>273.0</ele>
        <time>2020-07-04T16:05:44Z</time>
      </trkpt>
      <trkpt lat="46.2353450" lon="3.3967560">
        <ele>273.0</ele>
        <time>2020-07-04T16:05:49Z</time>
      </trkpt>
      <trkpt lat="46.2353150" lon="3.3965630">
        <ele>273.2</ele>
        <time>2020-07-04T16:05:54Z</time>
      </trkpt>
      <trkpt lat="46.2353160" lon="3.3964880">
        <ele>273.4</ele>
        <time>2020-07-04T16:05:56Z</time>
      </trkpt>
      <trkpt lat="46.2352900" lon="3.3963020">
        <ele>273.4</ele>
        <time>2020-07-04T16:06:02Z</time>
      </trkpt>
      <trkpt lat="46.2351890" lon="3.3962970">
        <ele>274.0</ele>
        <time>2020-07-04T16:06:07Z</time>
      </trkpt>
      <trkpt lat="46.2349870" lon="3.3962680">
        <ele>274.2</ele>
        <time>2020-07-04T16:06:16Z</time>
      </trkpt>
      <trkpt lat="46.2348940" lon="3.3962660">
        <ele>274.0</ele>
        <time>2020-07-04T16:06:24Z</time>
      </trkpt>
      <trkpt lat="46.2348980" lon="3.3962760">
        <ele>273.8</ele>
        <time>2020-07-04T16:06:29Z</time>
      </trkpt>
      <trkpt lat="46.2349270" lon="3.3962810">
        <ele>273.4</ele>
        <time>2020-07-04T16:06:38Z</time>
      </trkpt>
      <trkpt lat="46.2349740" lon="3.3962760">
        <ele>273.4</ele>
        <time>2020-07-04T16:06:42Z</time>
      </trkpt>
      <trkpt lat="46.2350880" lon="3.3962780">
        <ele>273.6</ele>
        <time>2020-07-04T16:06:49Z</time>
      </trkpt>
      <trkpt lat="46.2352130" lon="3.3962450">
        <ele>274.0</ele>
        <time>2020-07-04T16:06:56Z</time>
      </trkpt>
      <trkpt lat="46.2352200" lon="3.3962230">
        <ele>273.8</ele>
        <time>2020-07-04T16:06:57Z</time>
      </trkpt>
      <trkpt lat="46.2352250" lon="3.3960430">
        <ele>273.8</ele>
        <time>2020-07-04T16:07:05Z</time>
      </trkpt>
      <trkpt lat="46.2352380" lon="3.3959960">
        <ele>274.0</ele>
        <time>2020-07-04T16:07:13Z</time>
      </trkpt>
      <trkpt lat="46.2352750" lon="3.3959490">
        <ele>274.2</ele>
        <time>2020-07-04T16:07:29Z</time>
      </trkpt>
      <trkpt lat="46.2352590" lon="3.3959430">
        <ele>274.2</ele>
        <time>2020-07-04T16:07:43Z</time>
      </trkpt>
      <trkpt lat="46.2352530" lon="3.3959730">
        <ele>274.0</ele>
        <time>2020-07-04T16:08:03Z</time>
      </trkpt>
      <trkpt lat="46.2352530" lon="3.3959870">
        <ele>274.0</ele>
        <time>2020-07-04T16:08:29Z</time>
      </trkpt>
      <trkpt lat="46.2352530" lon="3.3959920">
        <ele>274.0</ele>
        <time>2020-07-04T16:08:45Z</time>
      </trkpt>
      <trkpt lat="46.2352470" lon="3.3959770">
        <ele>274.4</ele>
        <time>2020-07-04T16:09:08Z</time>
      </trkpt>
      <trkpt lat="46.2352520" lon="3.3959790">
        <ele>274.4</ele>
        <time>2020-07-04T16:09:25Z</time>
      </trkpt>
      <trkpt lat="46.2352520" lon="3.3959710">
        <ele>274.2</ele>
        <time>2020-07-04T16:09:55Z</time>
      </trkpt>
      <trkpt lat="46.2352510" lon="3.3959730">
        <ele>274.4</ele>
        <time>2020-07-04T16:10:11Z</time>
      </trkpt>
      <trkpt lat="46.2352560" lon="3.3959740">
        <ele>274.2</ele>
        <time>2020-07-04T16:10:31Z</time>
      </trkpt>
      <trkpt lat="46.2352600" lon="3.3959750">
        <ele>274.2</ele>
        <time>2020-07-04T16:10:53Z</time>
      </trkpt>
      <trkpt lat="46.2352700" lon="3.3960020">
        <ele>274.2</ele>
        <time>2020-07-04T16:11:09Z</time>
      </trkpt>
      <trkpt lat="46.2352670" lon="3.3960230">
        <ele>274.4</ele>
        <time>2020-07-04T16:11:26Z</time>
      </trkpt>
      <trkpt lat="46.2352720" lon="3.3960330">
        <ele>274.6</ele>
        <time>2020-07-04T16:11:58Z</time>
      </trkpt>
      <trkpt lat="46.2352800" lon="3.3960300">
        <ele>275.0</ele>
        <time>2020-07-04T16:12:10Z</time>
      </trkpt>
      <trkpt lat="46.2352890" lon="3.3960310">
        <ele>274.8</ele>
        <time>2020-07-04T16:12:26Z</time>
      </trkpt>
      <trkpt lat="46.2352920" lon="3.3960360">
        <ele>275.0</ele>
        <time>2020-07-04T16:12:45Z</time>
      </trkpt>
      <trkpt lat="46.2352910" lon="3.3960420">
        <ele>275.0</ele>
        <time>2020-07-04T16:13:00Z</time>
      </trkpt>
      <trkpt lat="46.2352920" lon="3.3960520">
        <ele>275.2</ele>
        <time>2020-07-04T16:13:32Z</time>
      </trkpt>
      <trkpt lat="46.2352920" lon="3.3960570">
        <ele>275.0</ele>
        <time>2020-07-04T16:14:05Z</time>
      </trkpt>
      <trkpt lat="46.2353030" lon="3.3960650">
        <ele>275.2</ele>
        <time>2020-07-04T16:14:27Z</time>
      </trkpt>
      <trkpt lat="46.2353060" lon="3.3960590">
        <ele>275.2</ele>
        <time>2020-07-04T16:14:56Z</time>
      </trkpt>
      <trkpt lat="46.2353110" lon="3.3960660">
        <ele>275.0</ele>
        <time>2020-07-04T16:15:08Z</time>
      </trkpt>
      <trkpt lat="46.2353080" lon="3.3960700">
        <ele>275.0</ele>
        <time>2020-07-04T16:15:30Z</time>
      </trkpt>
      <trkpt lat="46.2353070" lon="3.3960740">
        <ele>275.0</ele>
        <time>2020-07-04T16:15:48Z</time>
      </trkpt>
      <trkpt lat="46.2353050" lon="3.3960780">
        <ele>275.2</ele>
        <time>2020-07-04T16:16:22Z</time>
      </trkpt>
      <trkpt lat="46.2353040" lon="3.3960820">
        <ele>275.4</ele>
        <time>2020-07-04T16:16:38Z</time>
      </trkpt>
      <trkpt lat="46.2352970" lon="3.3960830">
        <ele>275.4</ele>
        <time>2020-07-04T16:17:08Z</time>
      </trkpt>
      <trkpt lat="46.2352920" lon="3.3960910">
        <ele>275.6</ele>
        <time>2020-07-04T16:17:37Z</time>
      </trkpt>
      <trkpt lat="46.2352900" lon="3.3960940">
        <ele>275.4</ele>
        <time>2020-07-04T16:17:40Z</time>
      </trkpt>
      <trkpt lat="46.2352430" lon="3.3960640">
        <ele>275.6</ele>
        <time>2020-07-04T16:17:52Z</time>
      </trkpt>
      <trkpt lat="46.2352330" lon="3.3959980">
        <ele>275.6</ele>
        <time>2020-07-04T16:18:04Z</time>
      </trkpt>
      <trkpt lat="46.2352310" lon="3.3959950">
        <ele>275.6</ele>
        <time>2020-07-04T16:18:22Z</time>
      </trkpt>
      <trkpt lat="46.2352290" lon="3.3959970">
        <ele>275.2</ele>
        <time>2020-07-04T16:18:45Z</time>
      </trkpt>
      <trkpt lat="46.2352320" lon="3.3960030">
        <ele>275.2</ele>
        <time>2020-07-04T16:18:56Z</time>
      </trkpt>
      <trkpt lat="46.2352380" lon="3.3960210">
        <ele>275.4</ele>
        <time>2020-07-04T16:19:15Z</time>
      </trkpt>
      <trkpt lat="46.2352440" lon="3.3960460">
        <ele>275.2</ele>
        <time>2020-07-04T16:19:34Z</time>
      </trkpt>
      <trkpt lat="46.2352400" lon="3.3960400">
        <ele>275.4</ele>
        <time>2020-07-04T16:19:50Z</time>
      </trkpt>
      <trkpt lat="46.2352440" lon="3.3960400">
        <ele>275.2</ele>
        <time>2020-07-04T16:20:05Z</time>
      </trkpt>
      <trkpt lat="46.2352450" lon="3.3960420">
        <ele>275.2</ele>
        <time>2020-07-04T16:20:14Z</time>
      </trkpt>
      <trkpt lat="46.2352560" lon="3.3960290">
        <ele>275.2</ele>
        <time>2020-07-04T16:20:30Z</time>
      </trkpt>
      <trkpt lat="46.2352610" lon="3.3960300">
        <ele>275.2</ele>
        <time>2020-07-04T16:20:45Z</time>
      </trkpt>
      <trkpt lat="46.2352640" lon="3.3960390">
        <ele>275.0</ele>
        <time>2020-07-04T16:21:06Z</time>
      </trkpt>
      <trkpt lat="46.2352730" lon="3.3960440">
        <ele>275.0</ele>
        <time>2020-07-04T16:21:32Z</time>
      </trkpt>
      <trkpt lat="46.2352750" lon="3.3960460">
        <ele>275.0</ele>
        <time>2020-07-04T16:21:49Z</time>
      </trkpt>
      <trkpt lat="46.2352880" lon="3.3960380">
        <ele>274.8</ele>
        <time>2020-07-04T16:22:09Z</time>
      </trkpt>
      <trkpt lat="46.2352960" lon="3.3960260">
        <ele>275.2</ele>
        <time>2020-07-04T16:22:29Z</time>
      </trkpt>
      <trkpt lat="46.2353060" lon="3.3960140">
        <ele>275.0</ele>
        <time>2020-07-04T16:22:47Z</time>
      </trkpt>
      <trkpt lat="46.2353060" lon="3.3960400">
        <ele>275.2</ele>
        <time>2020-07-04T16:23:05Z</time>
      </trkpt>
      <trkpt lat="46.2353110" lon="3.3960300">
        <ele>275.2</ele>
        <time>2020-07-04T16:23:19Z</time>
      </trkpt>
      <trkpt lat="46.2353140" lon="3.3960280">
        <ele>275.2</ele>
        <time>2020-07-04T16:23:34Z</time>
      </trkpt>
      <trkpt lat="46.2353180" lon="3.3960260">
        <ele>275.2</ele>
        <time>2020-07-04T16:23:58Z</time>
      </trkpt>
      <trkpt lat="46.2353210" lon="3.3960210">
        <ele>275.2</ele>
        <time>2020-07-04T16:24:03Z</time>
      </trkpt>
      <trkpt lat="46.2353220" lon="3.3960380">
        <ele>275.2</ele>
        <time>2020-07-04T16:24:26Z</time>
      </trkpt>
      <trkpt lat="46.2353260" lon="3.3960300">
        <ele>275.2</ele>
        <time>2020-07-04T16:24:37Z</time>
      </trkpt>
      <trkpt lat="46.2353250" lon="3.3960290">
        <ele>275.2</ele>
        <time>2020-07-04T16:24:38Z</time>
      </trkpt>
      <trkpt lat="46.2353250" lon="3.3960250">
        <ele>275.2</ele>
        <time>2020-07-04T16:24:40Z</time>
      </trkpt>
      <trkpt lat="46.2353180" lon="3.3960060">
        <ele>275.2</ele>
        <time>2020-07-04T16:24:46Z</time>
      </trkpt>
      <trkpt lat="46.2353160" lon="3.3960100">
        <ele>275.0</ele>
        <time>2020-07-04T16:25:02Z</time>
      </trkpt>
      <trkpt lat="46.2353070" lon="3.3960150">
        <ele>275.0</ele>
        <time>2020-07-04T16:25:14Z</time>
      </trkpt>
      <trkpt lat="46.2353050" lon="3.3960140">
        <ele>275.0</ele>
        <time>2020-07-04T16:25:19Z</time>
      </trkpt>
      <trkpt lat="46.2353050" lon="3.3960150">
        <ele>275.0</ele>
        <time>2020-07-04T16:25:21Z</time>
      </trkpt>
      <trkpt lat="46.2353050" lon="3.3960150">
        <ele>275.2</ele>
        <time>2020-07-04T16:25:22Z</time>
      </trkpt>
      <trkpt lat="46.2353060" lon="3.3960100">
        <ele>274.8</ele>
        <time>2020-07-04T16:25:35Z</time>
      </trkpt>
      <trkpt lat="46.2353090" lon="3.3960020">
        <ele>274.8</ele>
        <time>2020-07-04T16:25:58Z</time>
      </trkpt>
      <trkpt lat="46.2353140" lon="3.3959940">
        <ele>274.8</ele>
        <time>2020-07-04T16:26:20Z</time>
      </trkpt>
      <trkpt lat="46.2353210" lon="3.3959850">
        <ele>274.6</ele>
        <time>2020-07-04T16:26:51Z</time>
      </trkpt>
      <trkpt lat="46.2353290" lon="3.3959780">
        <ele>274.8</ele>
        <time>2020-07-04T16:27:20Z</time>
      </trkpt>
      <trkpt lat="46.2353330" lon="3.3959710">
        <ele>274.8</ele>
        <time>2020-07-04T16:27:55Z</time>
      </trkpt>
      <trkpt lat="46.2353360" lon="3.3959650">
        <ele>274.8</ele>
        <time>2020-07-04T16:28:07Z</time>
      </trkpt>
      <trkpt lat="46.2353370" lon="3.3959630">
        <ele>274.8</ele>
        <time>2020-07-04T16:28:08Z</time>
      </trkpt>
      <trkpt lat="46.2353400" lon="3.3959470">
        <ele>274.8</ele>
        <time>2020-07-04T16:28:12Z</time>
      </trkpt>
      <trkpt lat="46.2353400" lon="3.3959430">
        <ele>274.8</ele>
        <time>2020-07-04T16:28:13Z</time>
      </trkpt>
      <trkpt lat="46.2353360" lon="3.3959440">
        <ele>275.0</ele>
        <time>2020-07-04T16:28:15Z</time>
      </trkpt>
      <trkpt lat="46.2353330" lon="3.3959430">
        <ele>275.0</ele>
        <time>2020-07-04T16:28:16Z</time>
      </trkpt>
      <trkpt lat="46.2353300" lon="3.3959100">
        <ele>275.2</ele>
        <time>2020-07-04T16:28:29Z</time>
      </trkpt>
      <trkpt lat="46.2353010" lon="3.3958450">
        <ele>275.0</ele>
        <time>2020-07-04T16:28:43Z</time>
      </trkpt>
      <trkpt lat="46.2353030" lon="3.3958410">
        <ele>275.0</ele>
        <time>2020-07-04T16:29:02Z</time>
      </trkpt>
      <trkpt lat="46.2353080" lon="3.3959240">
        <ele>275.2</ele>
        <time>2020-07-04T16:29:12Z</time>
      </trkpt>
      <trkpt lat="46.2353060" lon="3.3959390">
        <ele>275.2</ele>
        <time>2020-07-04T16:29:13Z</time>
      </trkpt>
      <trkpt lat="46.2352910" lon="3.3960570">
        <ele>275.4</ele>
        <time>2020-07-04T16:29:21Z</time>
      </trkpt>
      <trkpt lat="46.2352630" lon="3.3961150">
        <ele>275.4</ele>
        <time>2020-07-04T16:29:32Z</time>
      </trkpt>
      <trkpt lat="46.2352020" lon="3.3962660">
        <ele>275.4</ele>
        <time>2020-07-04T16:29:41Z</time>
      </trkpt>
      <trkpt lat="46.2351950" lon="3.3962820">
        <ele>275.6</ele>
        <time>2020-07-04T16:29:42Z</time>
      </trkpt>
      <trkpt lat="46.2351770" lon="3.3962930">
        <ele>275.4</ele>
        <time>2020-07-04T16:29:44Z</time>
      </trkpt>
      <trkpt lat="46.2351660" lon="3.3963000">
        <ele>275.6</ele>
        <time>2020-07-04T16:29:45Z</time>
      </trkpt>
      <trkpt lat="46.2351540" lon="3.3963010">
        <ele>275.6</ele>
        <time>2020-07-04T16:29:46Z</time>
      </trkpt>
      <trkpt lat="46.2351430" lon="3.3963020">
        <ele>275.6</ele>
        <time>2020-07-04T16:29:47Z</time>
      </trkpt>
      <trkpt lat="46.2351110" lon="3.3963030">
        <ele>275.8</ele>
        <time>2020-07-04T16:29:49Z</time>
      </trkpt>
      <trkpt lat="46.2350930" lon="3.3962950">
        <ele>275.8</ele>
        <time>2020-07-04T16:29:51Z</time>
      </trkpt>
      <trkpt lat="46.2349960" lon="3.3962940">
        <ele>275.6</ele>
        <time>2020-07-04T16:29:59Z</time>
      </trkpt>
      <trkpt lat="46.2349280" lon="3.3963010">
        <ele>275.0</ele>
        <time>2020-07-04T16:30:05Z</time>
      </trkpt>
      <trkpt lat="46.2349120" lon="3.3963030">
        <ele>274.6</ele>
        <time>2020-07-04T16:30:08Z</time>
      </trkpt>
      <trkpt lat="46.2349080" lon="3.3963020">
        <ele>274.6</ele>
        <time>2020-07-04T16:30:09Z</time>
      </trkpt>
      <trkpt lat="46.2349050" lon="3.3963010">
        <ele>274.4</ele>
        <time>2020-07-04T16:30:10Z</time>
      </trkpt>
      <trkpt lat="46.2349030" lon="3.3963020">
        <ele>274.2</ele>
        <time>2020-07-04T16:30:11Z</time>
      </trkpt>
      <trkpt lat="46.2349000" lon="3.3963010">
        <ele>274.2</ele>
        <time>2020-07-04T16:30:13Z</time>
      </trkpt>
      <trkpt lat="46.2349000" lon="3.3963010">
        <ele>274.2</ele>
        <time>2020-07-04T16:30:14Z</time>
      </trkpt>
      <trkpt lat="46.2348930" lon="3.3963270">
        <ele>273.8</ele>
        <time>2020-07-04T16:30:21Z</time>
      </trkpt>
      <trkpt lat="46.2348880" lon="3.3963450">
        <ele>273.8</ele>
        <time>2020-07-04T16:30:22Z</time>
      </trkpt>
      <trkpt lat="46.2348750" lon="3.3963940">
        <ele>273.8</ele>
        <time>2020-07-04T16:30:24Z</time>
      </trkpt>
      <trkpt lat="46.2348580" lon="3.3965100">
        <ele>273.6</ele>
        <time>2020-07-04T16:30:27Z</time>
      </trkpt>
      <trkpt lat="46.2348540" lon="3.3965970">
        <ele>273.6</ele>
        <time>2020-07-04T16:30:29Z</time>
      </trkpt>
      <trkpt lat="46.2347940" lon="3.3967590">
        <ele>273.4</ele>
        <time>2020-07-04T16:30:33Z</time>
      </trkpt>
      <trkpt lat="46.2346460" lon="3.3968410">
        <ele>272.4</ele>
        <time>2020-07-04T16:30:38Z</time>
      </trkpt>
      <trkpt lat="46.2345660" lon="3.3968740">
        <ele>272.4</ele>
        <time>2020-07-04T16:30:41Z</time>
      </trkpt>
      <trkpt lat="46.2343630" lon="3.3969570">
        <ele>272.2</ele>
        <time>2020-07-04T16:30:48Z</time>
      </trkpt>
      <trkpt lat="46.2342280" lon="3.3970240">
        <ele>272.8</ele>
        <time>2020-07-04T16:30:52Z</time>
      </trkpt>
      <trkpt lat="46.2340930" lon="3.3970630">
        <ele>273.0</ele>
        <time>2020-07-04T16:30:56Z</time>
      </trkpt>
      <trkpt lat="46.2338340" lon="3.3970250">
        <ele>273.8</ele>
        <time>2020-07-04T16:31:04Z</time>
      </trkpt>
      <trkpt lat="46.2336310" lon="3.3969100">
        <ele>274.6</ele>
        <time>2020-07-04T16:31:11Z</time>
      </trkpt>
      <trkpt lat="46.2335410" lon="3.3969040">
        <ele>275.0</ele>
        <time>2020-07-04T16:31:14Z</time>
      </trkpt>
      <trkpt lat="46.2334180" lon="3.3969490">
        <ele>275.0</ele>
        <time>2020-07-04T16:31:18Z</time>
      </trkpt>
      <trkpt lat="46.2333450" lon="3.3969960">
        <ele>275.0</ele>
        <time>2020-07-04T16:31:20Z</time>
      </trkpt>
      <trkpt lat="46.2330200" lon="3.3971550">
        <ele>274.8</ele>
        <time>2020-07-04T16:31:28Z</time>
      </trkpt>
      <trkpt lat="46.2326640" lon="3.3972410">
        <ele>274.6</ele>
        <time>2020-07-04T16:31:37Z</time>
      </trkpt>
      <trkpt lat="46.2322600" lon="3.3972870">
        <ele>274.4</ele>
        <time>2020-07-04T16:31:48Z</time>
      </trkpt>
      <trkpt lat="46.2318080" lon="3.3973500">
        <ele>274.2</ele>
        <time>2020-07-04T16:32:00Z</time>
      </trkpt>
      <trkpt lat="46.2317650" lon="3.3973590">
        <ele>274.2</ele>
        <time>2020-07-04T16:32:01Z</time>
      </trkpt>
      <trkpt lat="46.2317170" lon="3.3973670">
        <ele>274.2</ele>
        <time>2020-07-04T16:32:02Z</time>
      </trkpt>
      <trkpt lat="46.2316660" lon="3.3973760">
        <ele>274.2</ele>
        <time>2020-07-04T16:32:03Z</time>
      </trkpt>
      <trkpt lat="46.2315610" lon="3.3973880">
        <ele>274.0</ele>
        <time>2020-07-04T16:32:05Z</time>
      </trkpt>
      <trkpt lat="46.2315080" lon="3.3973920">
        <ele>273.8</ele>
        <time>2020-07-04T16:32:06Z</time>
      </trkpt>
      <trkpt lat="46.2314010" lon="3.3974030">
        <ele>273.8</ele>
        <time>2020-07-04T16:32:08Z</time>
      </trkpt>
      <trkpt lat="46.2313470" lon="3.3974130">
        <ele>273.6</ele>
        <time>2020-07-04T16:32:09Z</time>
      </trkpt>
      <trkpt lat="46.2312960" lon="3.3974300">
        <ele>273.6</ele>
        <time>2020-07-04T16:32:10Z</time>
      </trkpt>
      <trkpt lat="46.2311960" lon="3.3974860">
        <ele>273.0</ele>
        <time>2020-07-04T16:32:12Z</time>
      </trkpt>
      <trkpt lat="46.2311450" lon="3.3975280">
        <ele>272.6</ele>
        <time>2020-07-04T16:32:13Z</time>
      </trkpt>
      <trkpt lat="46.2310960" lon="3.3975810">
        <ele>272.2</ele>
        <time>2020-07-04T16:32:14Z</time>
      </trkpt>
      <trkpt lat="46.2310510" lon="3.3976480">
        <ele>272.0</ele>
        <time>2020-07-04T16:32:15Z</time>
      </trkpt>
      <trkpt lat="46.2310100" lon="3.3977280">
        <ele>271.6</ele>
        <time>2020-07-04T16:32:16Z</time>
      </trkpt>
      <trkpt lat="46.2309740" lon="3.3978140">
        <ele>271.0</ele>
        <time>2020-07-04T16:32:17Z</time>
      </trkpt>
      <trkpt lat="46.2309450" lon="3.3979090">
        <ele>270.8</ele>
        <time>2020-07-04T16:32:18Z</time>
      </trkpt>
      <trkpt lat="46.2309110" lon="3.3981180">
        <ele>270.4</ele>
        <time>2020-07-04T16:32:20Z</time>
      </trkpt>
      <trkpt lat="46.2309020" lon="3.3982270">
        <ele>269.8</ele>
        <time>2020-07-04T16:32:21Z</time>
      </trkpt>
      <trkpt lat="46.2308890" lon="3.3983400">
        <ele>269.2</ele>
        <time>2020-07-04T16:32:22Z</time>
      </trkpt>
      <trkpt lat="46.2308760" lon="3.3984570">
        <ele>268.0</ele>
        <time>2020-07-04T16:32:23Z</time>
      </trkpt>
      <trkpt lat="46.2308550" lon="3.3985760">
        <ele>267.0</ele>
        <time>2020-07-04T16:32:24Z</time>
      </trkpt>
      <trkpt lat="46.2307900" lon="3.3988210">
        <ele>265.8</ele>
        <time>2020-07-04T16:32:26Z</time>
      </trkpt>
      <trkpt lat="46.2307500" lon="3.3989450">
        <ele>265.0</ele>
        <time>2020-07-04T16:32:27Z</time>
      </trkpt>
      <trkpt lat="46.2307010" lon="3.3990630">
        <ele>264.4</ele>
        <time>2020-07-04T16:32:28Z</time>
      </trkpt>
      <trkpt lat="46.2306420" lon="3.3991790">
        <ele>263.6</ele>
        <time>2020-07-04T16:32:29Z</time>
      </trkpt>
      <trkpt lat="46.2305750" lon="3.3992880">
        <ele>263.2</ele>
        <time>2020-07-04T16:32:30Z</time>
      </trkpt>
      <trkpt lat="46.2304250" lon="3.3994800">
        <ele>261.2</ele>
        <time>2020-07-04T16:32:32Z</time>
      </trkpt>
      <trkpt lat="46.2301850" lon="3.3997260">
        <ele>259.6</ele>
        <time>2020-07-04T16:32:35Z</time>
      </trkpt>
      <trkpt lat="46.2299370" lon="3.3999210">
        <ele>258.2</ele>
        <time>2020-07-04T16:32:38Z</time>
      </trkpt>
      <trkpt lat="46.2297020" lon="3.4000800">
        <ele>257.4</ele>
        <time>2020-07-04T16:32:41Z</time>
      </trkpt>
      <trkpt lat="46.2294860" lon="3.4002210">
        <ele>257.4</ele>
        <time>2020-07-04T16:32:44Z</time>
      </trkpt>
      <trkpt lat="46.2292900" lon="3.4003570">
        <ele>257.2</ele>
        <time>2020-07-04T16:32:47Z</time>
      </trkpt>
      <trkpt lat="46.2292260" lon="3.4003960">
        <ele>257.4</ele>
        <time>2020-07-04T16:32:48Z</time>
      </trkpt>
      <trkpt lat="46.2289260" lon="3.4005070">
        <ele>257.4</ele>
        <time>2020-07-04T16:32:53Z</time>
      </trkpt>
      <trkpt lat="46.2285940" lon="3.4005440">
        <ele>257.4</ele>
        <time>2020-07-04T16:32:59Z</time>
      </trkpt>
      <trkpt lat="46.2283800" lon="3.4005780">
        <ele>257.6</ele>
        <time>2020-07-04T16:33:03Z</time>
      </trkpt>
      <trkpt lat="46.2278340" lon="3.4006840">
        <ele>258.2</ele>
        <time>2020-07-04T16:33:13Z</time>
      </trkpt>
      <trkpt lat="46.2277790" lon="3.4006950">
        <ele>258.4</ele>
        <time>2020-07-04T16:33:14Z</time>
      </trkpt>
      <trkpt lat="46.2273890" lon="3.4007630">
        <ele>258.4</ele>
        <time>2020-07-04T16:33:21Z</time>
      </trkpt>
      <trkpt lat="46.2271570" lon="3.4008010">
        <ele>258.2</ele>
        <time>2020-07-04T16:33:25Z</time>
      </trkpt>
      <trkpt lat="46.2267520" lon="3.4008070">
        <ele>258.0</ele>
        <time>2020-07-04T16:33:32Z</time>
      </trkpt>
      <trkpt lat="46.2266970" lon="3.4008010">
        <ele>258.0</ele>
        <time>2020-07-04T16:33:33Z</time>
      </trkpt>
      <trkpt lat="46.2262550" lon="3.4007240">
        <ele>258.0</ele>
        <time>2020-07-04T16:33:41Z</time>
      </trkpt>
      <trkpt lat="46.2258870" lon="3.4006780">
        <ele>258.0</ele>
        <time>2020-07-04T16:33:47Z</time>
      </trkpt>
      <trkpt lat="46.2256430" lon="3.4006500">
        <ele>258.0</ele>
        <time>2020-07-04T16:33:51Z</time>
      </trkpt>
      <trkpt lat="46.2250980" lon="3.4006040">
        <ele>257.6</ele>
        <time>2020-07-04T16:34:00Z</time>
      </trkpt>
      <trkpt lat="46.2247990" lon="3.4005830">
        <ele>257.6</ele>
        <time>2020-07-04T16:34:05Z</time>
      </trkpt>
      <trkpt lat="46.2242160" lon="3.4004700">
        <ele>257.4</ele>
        <time>2020-07-04T16:34:15Z</time>
      </trkpt>
      <trkpt lat="46.2236320" lon="3.4002980">
        <ele>257.0</ele>
        <time>2020-07-04T16:34:25Z</time>
      </trkpt>
      <trkpt lat="46.2235730" lon="3.4002810">
        <ele>256.8</ele>
        <time>2020-07-04T16:34:26Z</time>
      </trkpt>
      <trkpt lat="46.2230310" lon="3.4001330">
        <ele>256.8</ele>
        <time>2020-07-04T16:34:35Z</time>
      </trkpt>
      <trkpt lat="46.2229710" lon="3.4001190">
        <ele>256.8</ele>
        <time>2020-07-04T16:34:36Z</time>
      </trkpt>
      <trkpt lat="46.2227330" lon="3.4000710">
        <ele>256.8</ele>
        <time>2020-07-04T16:34:40Z</time>
      </trkpt>
      <trkpt lat="46.2223920" lon="3.4000310">
        <ele>257.0</ele>
        <time>2020-07-04T16:34:46Z</time>
      </trkpt>
      <trkpt lat="46.2223400" lon="3.4000300">
        <ele>257.0</ele>
        <time>2020-07-04T16:34:47Z</time>
      </trkpt>
      <trkpt lat="46.2219840" lon="3.4000640">
        <ele>257.8</ele>
        <time>2020-07-04T16:34:54Z</time>
      </trkpt>
      <trkpt lat="46.2214370" lon="3.4001770">
        <ele>258.6</ele>
        <time>2020-07-04T16:35:05Z</time>
      </trkpt>
      <trkpt lat="46.2213880" lon="3.4001890">
        <ele>258.4</ele>
        <time>2020-07-04T16:35:06Z</time>
      </trkpt>
      <trkpt lat="46.2209240" lon="3.4003120">
        <ele>258.4</ele>
        <time>2020-07-04T16:35:15Z</time>
      </trkpt>
      <trkpt lat="46.2208220" lon="3.4003570">
        <ele>258.2</ele>
        <time>2020-07-04T16:35:17Z</time>
      </trkpt>
      <trkpt lat="46.2205400" lon="3.4005040">
        <ele>258.2</ele>
        <time>2020-07-04T16:35:22Z</time>
      </trkpt>
      <trkpt lat="46.2202330" lon="3.4007090">
        <ele>258.0</ele>
        <time>2020-07-04T16:35:28Z</time>
      </trkpt>
      <trkpt lat="46.2201340" lon="3.4007780">
        <ele>258.0</ele>
        <time>2020-07-04T16:35:30Z</time>
      </trkpt>
      <trkpt lat="46.2197900" lon="3.4010380">
        <ele>258.0</ele>
        <time>2020-07-04T16:35:37Z</time>
      </trkpt>
      <trkpt lat="46.2196500" lon="3.4011470">
        <ele>258.6</ele>
        <time>2020-07-04T16:35:40Z</time>
      </trkpt>
      <trkpt lat="46.2194530" lon="3.4012830">
        <ele>258.8</ele>
        <time>2020-07-04T16:35:44Z</time>
      </trkpt>
      <trkpt lat="46.2191590" lon="3.4014980">
        <ele>258.8</ele>
        <time>2020-07-04T16:35:50Z</time>
      </trkpt>
      <trkpt lat="46.2186490" lon="3.4018670">
        <ele>258.6</ele>
        <time>2020-07-04T16:36:00Z</time>
      </trkpt>
      <trkpt lat="46.2184350" lon="3.4020270">
        <ele>258.6</ele>
        <time>2020-07-04T16:36:04Z</time>
      </trkpt>
      <trkpt lat="46.2182790" lon="3.4021340">
        <ele>258.8</ele>
        <time>2020-07-04T16:36:07Z</time>
      </trkpt>
      <trkpt lat="46.2177970" lon="3.4024940">
        <ele>258.8</ele>
        <time>2020-07-04T16:36:16Z</time>
      </trkpt>
      <trkpt lat="46.2177390" lon="3.4025350">
        <ele>259.0</ele>
        <time>2020-07-04T16:36:17Z</time>
      </trkpt>
      <trkpt lat="46.2172590" lon="3.4028980">
        <ele>258.8</ele>
        <time>2020-07-04T16:36:25Z</time>
      </trkpt>
      <trkpt lat="46.2172020" lon="3.4029430">
        <ele>258.6</ele>
        <time>2020-07-04T16:36:26Z</time>
      </trkpt>
      <trkpt lat="46.2167240" lon="3.4033120">
        <ele>258.0</ele>
        <time>2020-07-04T16:36:35Z</time>
      </trkpt>
      <trkpt lat="46.2166760" lon="3.4033490">
        <ele>258.2</ele>
        <time>2020-07-04T16:36:36Z</time>
      </trkpt>
      <trkpt lat="46.2161700" lon="3.4037070">
        <ele>258.2</ele>
        <time>2020-07-04T16:36:46Z</time>
      </trkpt>
      <trkpt lat="46.2159610" lon="3.4038600">
        <ele>258.4</ele>
        <time>2020-07-04T16:36:50Z</time>
      </trkpt>
      <trkpt lat="46.2154940" lon="3.4041980">
        <ele>258.8</ele>
        <time>2020-07-04T16:36:59Z</time>
      </trkpt>
      <trkpt lat="46.2151730" lon="3.4044280">
        <ele>259.0</ele>
        <time>2020-07-04T16:37:05Z</time>
      </trkpt>
      <trkpt lat="46.2146890" lon="3.4047770">
        <ele>259.0</ele>
        <time>2020-07-04T16:37:14Z</time>
      </trkpt>
      <trkpt lat="46.2144740" lon="3.4049290">
        <ele>259.0</ele>
        <time>2020-07-04T16:37:18Z</time>
      </trkpt>
      <trkpt lat="46.2139830" lon="3.4052850">
        <ele>259.0</ele>
        <time>2020-07-04T16:37:27Z</time>
      </trkpt>
      <trkpt lat="46.2137130" lon="3.4054860">
        <ele>259.2</ele>
        <time>2020-07-04T16:37:32Z</time>
      </trkpt>
      <trkpt lat="46.2133890" lon="3.4057290">
        <ele>259.2</ele>
        <time>2020-07-04T16:37:38Z</time>
      </trkpt>
      <trkpt lat="46.2131380" lon="3.4059170">
        <ele>259.0</ele>
        <time>2020-07-04T16:37:43Z</time>
      </trkpt>
      <trkpt lat="46.2130460" lon="3.4059840">
        <ele>259.2</ele>
        <time>2020-07-04T16:37:45Z</time>
      </trkpt>
      <trkpt lat="46.2126020" lon="3.4062450">
        <ele>260.4</ele>
        <time>2020-07-04T16:37:54Z</time>
      </trkpt>
      <trkpt lat="46.2122580" lon="3.4063110">
        <ele>261.0</ele>
        <time>2020-07-04T16:38:00Z</time>
      </trkpt>
      <trkpt lat="46.2120820" lon="3.4062830">
        <ele>260.8</ele>
        <time>2020-07-04T16:38:03Z</time>
      </trkpt>
      <trkpt lat="46.2117900" lon="3.4062190">
        <ele>260.6</ele>
        <time>2020-07-04T16:38:08Z</time>
      </trkpt>
      <trkpt lat="46.2117300" lon="3.4062040">
        <ele>260.8</ele>
        <time>2020-07-04T16:38:09Z</time>
      </trkpt>
      <trkpt lat="46.2114810" lon="3.4061510">
        <ele>260.2</ele>
        <time>2020-07-04T16:38:13Z</time>
      </trkpt>
      <trkpt lat="46.2110530" lon="3.4060670">
        <ele>259.6</ele>
        <time>2020-07-04T16:38:20Z</time>
      </trkpt>
      <trkpt lat="46.2109930" lon="3.4060510">
        <ele>259.4</ele>
        <time>2020-07-04T16:38:21Z</time>
      </trkpt>
      <trkpt lat="46.2107590" lon="3.4059980">
        <ele>259.0</ele>
        <time>2020-07-04T16:38:25Z</time>
      </trkpt>
      <trkpt lat="46.2105950" lon="3.4059620">
        <ele>259.0</ele>
        <time>2020-07-04T16:38:28Z</time>
      </trkpt>
      <trkpt lat="46.2104430" lon="3.4059120">
        <ele>259.2</ele>
        <time>2020-07-04T16:38:31Z</time>
      </trkpt>
      <trkpt lat="46.2102990" lon="3.4058600">
        <ele>259.4</ele>
        <time>2020-07-04T16:38:34Z</time>
      </trkpt>
      <trkpt lat="46.2100570" lon="3.4057460">
        <ele>260.4</ele>
        <time>2020-07-04T16:38:39Z</time>
      </trkpt>
      <trkpt lat="46.2099570" lon="3.4056980">
        <ele>260.4</ele>
        <time>2020-07-04T16:38:41Z</time>
      </trkpt>
      <trkpt lat="46.2095150" lon="3.4054870">
        <ele>260.6</ele>
        <time>2020-07-04T16:38:49Z</time>
      </trkpt>
      <trkpt lat="46.2092320" lon="3.4053650">
        <ele>260.4</ele>
        <time>2020-07-04T16:38:54Z</time>
      </trkpt>
      <trkpt lat="46.2090180" lon="3.4052510">
        <ele>260.2</ele>
        <time>2020-07-04T16:38:58Z</time>
      </trkpt>
      <trkpt lat="46.2089140" lon="3.4051890">
        <ele>260.0</ele>
        <time>2020-07-04T16:39:00Z</time>
      </trkpt>
      <trkpt lat="46.2084150" lon="3.4048720">
        <ele>259.8</ele>
        <time>2020-07-04T16:39:10Z</time>
      </trkpt>
      <trkpt lat="46.2083660" lon="3.4048480">
        <ele>260.0</ele>
        <time>2020-07-04T16:39:11Z</time>
      </trkpt>
      <trkpt lat="46.2081690" lon="3.4048090">
        <ele>260.2</ele>
        <time>2020-07-04T16:39:15Z</time>
      </trkpt>
      <trkpt lat="46.2080720" lon="3.4048160">
        <ele>260.2</ele>
        <time>2020-07-04T16:39:17Z</time>
      </trkpt>
      <trkpt lat="46.2077410" lon="3.4048740">
        <ele>261.0</ele>
        <time>2020-07-04T16:39:24Z</time>
      </trkpt>
      <trkpt lat="46.2076600" lon="3.4048880">
        <ele>261.6</ele>
        <time>2020-07-04T16:39:26Z</time>
      </trkpt>
      <trkpt lat="46.2075830" lon="3.4048880">
        <ele>261.8</ele>
        <time>2020-07-04T16:39:28Z</time>
      </trkpt>
      <trkpt lat="46.2073400" lon="3.4048590">
        <ele>263.0</ele>
        <time>2020-07-04T16:39:35Z</time>
      </trkpt>
      <trkpt lat="46.2072350" lon="3.4048350">
        <ele>263.8</ele>
        <time>2020-07-04T16:39:38Z</time>
      </trkpt>
      <trkpt lat="46.2068990" lon="3.4047240">
        <ele>265.0</ele>
        <time>2020-07-04T16:39:47Z</time>
      </trkpt>
      <trkpt lat="46.2065920" lon="3.4046460">
        <ele>265.4</ele>
        <time>2020-07-04T16:39:55Z</time>
      </trkpt>
      <trkpt lat="46.2064740" lon="3.4046260">
        <ele>265.4</ele>
        <time>2020-07-04T16:39:58Z</time>
      </trkpt>
      <trkpt lat="46.2061490" lon="3.4046380">
        <ele>266.2</ele>
        <time>2020-07-04T16:40:06Z</time>
      </trkpt>
      <trkpt lat="46.2060600" lon="3.4046610">
        <ele>266.4</ele>
        <time>2020-07-04T16:40:08Z</time>
      </trkpt>
      <trkpt lat="46.2057590" lon="3.4047460">
        <ele>266.2</ele>
        <time>2020-07-04T16:40:14Z</time>
      </trkpt>
      <trkpt lat="46.2057020" lon="3.4047620">
        <ele>266.0</ele>
        <time>2020-07-04T16:40:15Z</time>
      </trkpt>
      <trkpt lat="46.2055180" lon="3.4048190">
        <ele>265.6</ele>
        <time>2020-07-04T16:40:18Z</time>
      </trkpt>
      <trkpt lat="46.2051840" lon="3.4049110">
        <ele>264.8</ele>
        <time>2020-07-04T16:40:23Z</time>
      </trkpt>
      <trkpt lat="46.2047280" lon="3.4049390">
        <ele>262.6</ele>
        <time>2020-07-04T16:40:30Z</time>
      </trkpt>
      <trkpt lat="46.2043150" lon="3.4049680">
        <ele>262.8</ele>
        <time>2020-07-04T16:40:37Z</time>
      </trkpt>
      <trkpt lat="46.2041920" lon="3.4049890">
        <ele>262.6</ele>
        <time>2020-07-04T16:40:39Z</time>
      </trkpt>
      <trkpt lat="46.2038800" lon="3.4049790">
        <ele>262.2</ele>
        <time>2020-07-04T16:40:44Z</time>
      </trkpt>
      <trkpt lat="46.2036370" lon="3.4049320">
        <ele>262.0</ele>
        <time>2020-07-04T16:40:48Z</time>
      </trkpt>
      <trkpt lat="46.2032820" lon="3.4048720">
        <ele>260.6</ele>
        <time>2020-07-04T16:40:54Z</time>
      </trkpt>
      <trkpt lat="46.2031690" lon="3.4048680">
        <ele>260.4</ele>
        <time>2020-07-04T16:40:56Z</time>
      </trkpt>
      <trkpt lat="46.2029940" lon="3.4048730">
        <ele>260.4</ele>
        <time>2020-07-04T16:40:59Z</time>
      </trkpt>
      <trkpt lat="46.2027590" lon="3.4048980">
        <ele>260.4</ele>
        <time>2020-07-04T16:41:03Z</time>
      </trkpt>
      <trkpt lat="46.2025350" lon="3.4049590">
        <ele>260.2</ele>
        <time>2020-07-04T16:41:07Z</time>
      </trkpt>
      <trkpt lat="46.2023740" lon="3.4050250">
        <ele>260.4</ele>
        <time>2020-07-04T16:41:10Z</time>
      </trkpt>
      <trkpt lat="46.2020790" lon="3.4051750">
        <ele>260.8</ele>
        <time>2020-07-04T16:41:16Z</time>
      </trkpt>
      <trkpt lat="46.2019050" lon="3.4052730">
        <ele>261.0</ele>
        <time>2020-07-04T16:41:20Z</time>
      </trkpt>
      <trkpt lat="46.2018230" lon="3.4053150">
        <ele>261.4</ele>
        <time>2020-07-04T16:41:22Z</time>
      </trkpt>
      <trkpt lat="46.2016290" lon="3.4054130">
        <ele>262.2</ele>
        <time>2020-07-04T16:41:27Z</time>
      </trkpt>
      <trkpt lat="46.2015250" lon="3.4054530">
        <ele>262.8</ele>
        <time>2020-07-04T16:41:30Z</time>
      </trkpt>
      <trkpt lat="46.2014680" lon="3.4054810">
        <ele>263.4</ele>
        <time>2020-07-04T16:41:32Z</time>
      </trkpt>
      <trkpt lat="46.2013160" lon="3.4055620">
        <ele>264.8</ele>
        <time>2020-07-04T16:41:38Z</time>
      </trkpt>
      <trkpt lat="46.2012090" lon="3.4056150">
        <ele>265.8</ele>
        <time>2020-07-04T16:41:42Z</time>
      </trkpt>
      <trkpt lat="46.2009370" lon="3.4057340">
        <ele>267.0</ele>
        <time>2020-07-04T16:41:51Z</time>
      </trkpt>
      <trkpt lat="46.2005150" lon="3.4058520">
        <ele>267.4</ele>
        <time>2020-07-04T16:42:02Z</time>
      </trkpt>
      <trkpt lat="46.2000780" lon="3.4059340">
        <ele>267.2</ele>
        <time>2020-07-04T16:42:12Z</time>
      </trkpt>
      <trkpt lat="46.1996640" lon="3.4058770">
        <ele>267.2</ele>
        <time>2020-07-04T16:42:21Z</time>
      </trkpt>
      <trkpt lat="46.1991650" lon="3.4057240">
        <ele>267.6</ele>
        <time>2020-07-04T16:42:31Z</time>
      </trkpt>
      <trkpt lat="46.1986680" lon="3.4056440">
        <ele>267.4</ele>
        <time>2020-07-04T16:42:39Z</time>
      </trkpt>
      <trkpt lat="46.1985390" lon="3.4056170">
        <ele>267.2</ele>
        <time>2020-07-04T16:42:41Z</time>
      </trkpt>
      <trkpt lat="46.1980050" lon="3.4055520">
        <ele>266.6</ele>
        <time>2020-07-04T16:42:49Z</time>
      </trkpt>
      <trkpt lat="46.1975740" lon="3.4054770">
        <ele>264.8</ele>
        <time>2020-07-04T16:42:56Z</time>
      </trkpt>
      <trkpt lat="46.1974680" lon="3.4054250">
        <ele>264.8</ele>
        <time>2020-07-04T16:42:58Z</time>
      </trkpt>
      <trkpt lat="46.1971600" lon="3.4052360">
        <ele>264.8</ele>
        <time>2020-07-04T16:43:04Z</time>
      </trkpt>
      <trkpt lat="46.1967980" lon="3.4050710">
        <ele>266.0</ele>
        <time>2020-07-04T16:43:11Z</time>
      </trkpt>
      <trkpt lat="46.1965470" lon="3.4050260">
        <ele>266.0</ele>
        <time>2020-07-04T16:43:16Z</time>
      </trkpt>
      <trkpt lat="46.1963780" lon="3.4050240">
        <ele>266.4</ele>
        <time>2020-07-04T16:43:19Z</time>
      </trkpt>
      <trkpt lat="46.1958700" lon="3.4050970">
        <ele>266.8</ele>
        <time>2020-07-04T16:43:28Z</time>
      </trkpt>
      <trkpt lat="46.1958130" lon="3.4051100">
        <ele>266.8</ele>
        <time>2020-07-04T16:43:29Z</time>
      </trkpt>
      <trkpt lat="46.1952500" lon="3.4052680">
        <ele>266.4</ele>
        <time>2020-07-04T16:43:39Z</time>
      </trkpt>
      <trkpt lat="46.1951910" lon="3.4052790">
        <ele>266.6</ele>
        <time>2020-07-04T16:43:40Z</time>
      </trkpt>
      <trkpt lat="46.1946050" lon="3.4053590">
        <ele>266.4</ele>
        <time>2020-07-04T16:43:50Z</time>
      </trkpt>
      <trkpt lat="46.1944910" lon="3.4053680">
        <ele>266.6</ele>
        <time>2020-07-04T16:43:52Z</time>
      </trkpt>
      <trkpt lat="46.1943260" lon="3.4053810">
        <ele>266.8</ele>
        <time>2020-07-04T16:43:55Z</time>
      </trkpt>
      <trkpt lat="46.1937420" lon="3.4053880">
        <ele>267.0</ele>
        <time>2020-07-04T16:44:06Z</time>
      </trkpt>
      <trkpt lat="46.1936870" lon="3.4053870">
        <ele>267.2</ele>
        <time>2020-07-04T16:44:07Z</time>
      </trkpt>
      <trkpt lat="46.1931700" lon="3.4053550">
        <ele>267.2</ele>
        <time>2020-07-04T16:44:16Z</time>
      </trkpt>
      <trkpt lat="46.1930550" lon="3.4053300">
        <ele>267.0</ele>
        <time>2020-07-04T16:44:18Z</time>
      </trkpt>
      <trkpt lat="46.1927840" lon="3.4052520">
        <ele>267.0</ele>
        <time>2020-07-04T16:44:22Z</time>
      </trkpt>
      <trkpt lat="46.1924120" lon="3.4052610">
        <ele>265.6</ele>
        <time>2020-07-04T16:44:27Z</time>
      </trkpt>
      <trkpt lat="46.1923500" lon="3.4052790">
        <ele>265.0</ele>
        <time>2020-07-04T16:44:28Z</time>
      </trkpt>
      <trkpt lat="46.1922090" lon="3.4053420">
        <ele>264.6</ele>
        <time>2020-07-04T16:44:31Z</time>
      </trkpt>
      <trkpt lat="46.1920930" lon="3.4053940">
        <ele>264.6</ele>
        <time>2020-07-04T16:44:33Z</time>
      </trkpt>
      <trkpt lat="46.1919810" lon="3.4054500">
        <ele>264.4</ele>
        <time>2020-07-04T16:44:37Z</time>
      </trkpt>
      <trkpt lat="46.1916610" lon="3.4055560">
        <ele>263.8</ele>
        <time>2020-07-04T16:44:43Z</time>
      </trkpt>
      <trkpt lat="46.1915510" lon="3.4055760">
        <ele>263.8</ele>
        <time>2020-07-04T16:44:45Z</time>
      </trkpt>
      <trkpt lat="46.1913500" lon="3.4055890">
        <ele>263.6</ele>
        <time>2020-07-04T16:44:49Z</time>
      </trkpt>
      <trkpt lat="46.1912570" lon="3.4055670">
        <ele>263.6</ele>
        <time>2020-07-04T16:44:51Z</time>
      </trkpt>
      <trkpt lat="46.1910610" lon="3.4054550">
        <ele>263.6</ele>
        <time>2020-07-04T16:44:56Z</time>
      </trkpt>
      <trkpt lat="46.1909960" lon="3.4053900">
        <ele>263.6</ele>
        <time>2020-07-04T16:44:58Z</time>
      </trkpt>
      <trkpt lat="46.1907210" lon="3.4051360">
        <ele>265.0</ele>
        <time>2020-07-04T16:45:07Z</time>
      </trkpt>
      <trkpt lat="46.1906660" lon="3.4050740">
        <ele>265.2</ele>
        <time>2020-07-04T16:45:09Z</time>
      </trkpt>
      <trkpt lat="46.1903710" lon="3.4046810">
        <ele>267.0</ele>
        <time>2020-07-04T16:45:20Z</time>
      </trkpt>
      <trkpt lat="46.1903130" lon="3.4046010">
        <ele>267.0</ele>
        <time>2020-07-04T16:45:22Z</time>
      </trkpt>
      <trkpt lat="46.1901070" lon="3.4043170">
        <ele>267.4</ele>
        <time>2020-07-04T16:45:29Z</time>
      </trkpt>
      <trkpt lat="46.1897780" lon="3.4039510">
        <ele>267.8</ele>
        <time>2020-07-04T16:45:37Z</time>
      </trkpt>
      <trkpt lat="46.1894960" lon="3.4036460">
        <ele>267.8</ele>
        <time>2020-07-04T16:45:43Z</time>
      </trkpt>
      <trkpt lat="46.1893900" lon="3.4035350">
        <ele>267.4</ele>
        <time>2020-07-04T16:45:45Z</time>
      </trkpt>
      <trkpt lat="46.1893360" lon="3.4034820">
        <ele>267.0</ele>
        <time>2020-07-04T16:45:46Z</time>
      </trkpt>
      <trkpt lat="46.1888990" lon="3.4031650">
        <ele>265.6</ele>
        <time>2020-07-04T16:45:53Z</time>
      </trkpt>
      <trkpt lat="46.1888300" lon="3.4031380">
        <ele>265.4</ele>
        <time>2020-07-04T16:45:54Z</time>
      </trkpt>
      <trkpt lat="46.1886290" lon="3.4031190">
        <ele>264.8</ele>
        <time>2020-07-04T16:45:57Z</time>
      </trkpt>
      <trkpt lat="46.1884950" lon="3.4031240">
        <ele>264.8</ele>
        <time>2020-07-04T16:45:59Z</time>
      </trkpt>
      <trkpt lat="46.1881480" lon="3.4030820">
        <ele>264.2</ele>
        <time>2020-07-04T16:46:04Z</time>
      </trkpt>
      <trkpt lat="46.1878240" lon="3.4030180">
        <ele>264.4</ele>
        <time>2020-07-04T16:46:09Z</time>
      </trkpt>
      <trkpt lat="46.1875910" lon="3.4029650">
        <ele>264.6</ele>
        <time>2020-07-04T16:46:13Z</time>
      </trkpt>
      <trkpt lat="46.1874860" lon="3.4029260">
        <ele>264.4</ele>
        <time>2020-07-04T16:46:15Z</time>
      </trkpt>
      <trkpt lat="46.1871380" lon="3.4027970">
        <ele>265.0</ele>
        <time>2020-07-04T16:46:22Z</time>
      </trkpt>
      <trkpt lat="46.1869970" lon="3.4027510">
        <ele>265.6</ele>
        <time>2020-07-04T16:46:25Z</time>
      </trkpt>
      <trkpt lat="46.1865860" lon="3.4025740">
        <ele>266.2</ele>
        <time>2020-07-04T16:46:34Z</time>
      </trkpt>
      <trkpt lat="46.1864760" lon="3.4024640">
        <ele>266.4</ele>
        <time>2020-07-04T16:46:37Z</time>
      </trkpt>
      <trkpt lat="46.1864440" lon="3.4024180">
        <ele>266.4</ele>
        <time>2020-07-04T16:46:38Z</time>
      </trkpt>
      <trkpt lat="46.1863860" lon="3.4023210">
        <ele>266.6</ele>
        <time>2020-07-04T16:46:40Z</time>
      </trkpt>
      <trkpt lat="46.1863050" lon="3.4021620">
        <ele>266.8</ele>
        <time>2020-07-04T16:46:43Z</time>
      </trkpt>
      <trkpt lat="46.1862420" lon="3.4019400">
        <ele>267.2</ele>
        <time>2020-07-04T16:46:47Z</time>
      </trkpt>
      <trkpt lat="46.1861870" lon="3.4014670">
        <ele>268.4</ele>
        <time>2020-07-04T16:46:55Z</time>
      </trkpt>
      <trkpt lat="46.1861840" lon="3.4014080">
        <ele>268.6</ele>
        <time>2020-07-04T16:46:56Z</time>
      </trkpt>
      <trkpt lat="46.1861820" lon="3.4013500">
        <ele>268.4</ele>
        <time>2020-07-04T16:46:57Z</time>
      </trkpt>
      <trkpt lat="46.1861770" lon="3.4012970">
        <ele>268.6</ele>
        <time>2020-07-04T16:46:58Z</time>
      </trkpt>
      <trkpt lat="46.1861670" lon="3.4011130">
        <ele>268.6</ele>
        <time>2020-07-04T16:47:02Z</time>
      </trkpt>
      <trkpt lat="46.1861640" lon="3.4010760">
        <ele>268.6</ele>
        <time>2020-07-04T16:47:03Z</time>
      </trkpt>
      <trkpt lat="46.1861610" lon="3.4010410">
        <ele>268.8</ele>
        <time>2020-07-04T16:47:04Z</time>
      </trkpt>
      <trkpt lat="46.1861390" lon="3.4007330">
        <ele>269.0</ele>
        <time>2020-07-04T16:47:12Z</time>
      </trkpt>
      <trkpt lat="46.1860980" lon="3.4003560">
        <ele>269.0</ele>
        <time>2020-07-04T16:47:22Z</time>
      </trkpt>
      <trkpt lat="46.1860770" lon="3.4000000">
        <ele>268.8</ele>
        <time>2020-07-04T16:47:29Z</time>
      </trkpt>
      <trkpt lat="46.1860670" lon="3.3999430">
        <ele>268.8</ele>
        <time>2020-07-04T16:47:30Z</time>
      </trkpt>
      <trkpt lat="46.1860180" lon="3.3996500">
        <ele>268.6</ele>
        <time>2020-07-04T16:47:35Z</time>
      </trkpt>
      <trkpt lat="46.1859860" lon="3.3994790">
        <ele>268.6</ele>
        <time>2020-07-04T16:47:38Z</time>
      </trkpt>
      <trkpt lat="46.1859760" lon="3.3994180">
        <ele>268.4</ele>
        <time>2020-07-04T16:47:39Z</time>
      </trkpt>
      <trkpt lat="46.1859370" lon="3.3991720">
        <ele>268.4</ele>
        <time>2020-07-04T16:47:43Z</time>
      </trkpt>
      <trkpt lat="46.1859080" lon="3.3989500">
        <ele>268.2</ele>
        <time>2020-07-04T16:47:47Z</time>
      </trkpt>
      <trkpt lat="46.1858500" lon="3.3984930">
        <ele>268.8</ele>
        <time>2020-07-04T16:47:55Z</time>
      </trkpt>
      <trkpt lat="46.1858500" lon="3.3984330">
        <ele>268.8</ele>
        <time>2020-07-04T16:47:56Z</time>
      </trkpt>
      <trkpt lat="46.1859260" lon="3.3980900">
        <ele>269.2</ele>
        <time>2020-07-04T16:48:01Z</time>
      </trkpt>
      <trkpt lat="46.1859260" lon="3.3980900">
        <ele>269.2</ele>
        <time>2020-07-04T16:48:02Z</time>
      </trkpt>
      <trkpt lat="46.1860320" lon="3.3977530">
        <ele>269.6</ele>
        <time>2020-07-04T16:48:09Z</time>
      </trkpt>
      <trkpt lat="46.1860180" lon="3.3975570">
        <ele>269.8</ele>
        <time>2020-07-04T16:48:13Z</time>
      </trkpt>
      <trkpt lat="46.1859960" lon="3.3974600">
        <ele>270.0</ele>
        <time>2020-07-04T16:48:15Z</time>
      </trkpt>
      <trkpt lat="46.1859820" lon="3.3974140">
        <ele>270.0</ele>
        <time>2020-07-04T16:48:16Z</time>
      </trkpt>
      <trkpt lat="46.1859680" lon="3.3973680">
        <ele>270.0</ele>
        <time>2020-07-04T16:48:17Z</time>
      </trkpt>
      <trkpt lat="46.1859570" lon="3.3973210">
        <ele>270.2</ele>
        <time>2020-07-04T16:48:18Z</time>
      </trkpt>
      <trkpt lat="46.1859210" lon="3.3970280">
        <ele>270.4</ele>
        <time>2020-07-04T16:48:24Z</time>
      </trkpt>
      <trkpt lat="46.1859030" lon="3.3968280">
        <ele>270.6</ele>
        <time>2020-07-04T16:48:28Z</time>
      </trkpt>
      <trkpt lat="46.1858670" lon="3.3965150">
        <ele>271.0</ele>
        <time>2020-07-04T16:48:34Z</time>
      </trkpt>
      <trkpt lat="46.1858190" lon="3.3959750">
        <ele>271.6</ele>
        <time>2020-07-04T16:48:44Z</time>
      </trkpt>
      <trkpt lat="46.1857600" lon="3.3953190">
        <ele>272.2</ele>
        <time>2020-07-04T16:48:55Z</time>
      </trkpt>
      <trkpt lat="46.1857580" lon="3.3952560">
        <ele>272.2</ele>
        <time>2020-07-04T16:48:56Z</time>
      </trkpt>
      <trkpt lat="46.1857620" lon="3.3946550">
        <ele>272.6</ele>
        <time>2020-07-04T16:49:06Z</time>
      </trkpt>
      <trkpt lat="46.1858070" lon="3.3940790">
        <ele>272.8</ele>
        <time>2020-07-04T16:49:16Z</time>
      </trkpt>
      <trkpt lat="46.1858090" lon="3.3940220">
        <ele>273.0</ele>
        <time>2020-07-04T16:49:17Z</time>
      </trkpt>
      <trkpt lat="46.1858220" lon="3.3934790">
        <ele>273.6</ele>
        <time>2020-07-04T16:49:27Z</time>
      </trkpt>
      <trkpt lat="46.1857940" lon="3.3930440">
        <ele>274.2</ele>
        <time>2020-07-04T16:49:34Z</time>
      </trkpt>
      <trkpt lat="46.1857800" lon="3.3929970">
        <ele>274.4</ele>
        <time>2020-07-04T16:49:36Z</time>
      </trkpt>
      <trkpt lat="46.1856910" lon="3.3928450">
        <ele>274.6</ele>
        <time>2020-07-04T16:49:40Z</time>
      </trkpt>
      <trkpt lat="46.1855900" lon="3.3927340">
        <ele>275.6</ele>
        <time>2020-07-04T16:49:47Z</time>
      </trkpt>
      <trkpt lat="46.1855770" lon="3.3927180">
        <ele>275.8</ele>
        <time>2020-07-04T16:49:48Z</time>
      </trkpt>
      <trkpt lat="46.1854330" lon="3.3925560">
        <ele>276.6</ele>
        <time>2020-07-04T16:49:56Z</time>
      </trkpt>
      <trkpt lat="46.1852440" lon="3.3923530">
        <ele>277.6</ele>
        <time>2020-07-04T16:50:05Z</time>
      </trkpt>
      <trkpt lat="46.1851860" lon="3.3922780">
        <ele>278.0</ele>
        <time>2020-07-04T16:50:08Z</time>
      </trkpt>
      <trkpt lat="46.1850810" lon="3.3921550">
        <ele>278.6</ele>
        <time>2020-07-04T16:50:13Z</time>
      </trkpt>
      <trkpt lat="46.1849730" lon="3.3920140">
        <ele>279.2</ele>
        <time>2020-07-04T16:50:18Z</time>
      </trkpt>
      <trkpt lat="46.1849540" lon="3.3919880">
        <ele>279.0</ele>
        <time>2020-07-04T16:50:19Z</time>
      </trkpt>
      <trkpt lat="46.1848450" lon="3.3918770">
        <ele>280.2</ele>
        <time>2020-07-04T16:50:24Z</time>
      </trkpt>
      <trkpt lat="46.1847430" lon="3.3917940">
        <ele>281.2</ele>
        <time>2020-07-04T16:50:29Z</time>
      </trkpt>
      <trkpt lat="46.1846620" lon="3.3917380">
        <ele>282.0</ele>
        <time>2020-07-04T16:50:33Z</time>
      </trkpt>
      <trkpt lat="46.1845500" lon="3.3916800">
        <ele>282.6</ele>
        <time>2020-07-04T16:50:38Z</time>
      </trkpt>
      <trkpt lat="46.1843420" lon="3.3916610">
        <ele>283.6</ele>
        <time>2020-07-04T16:50:45Z</time>
      </trkpt>
      <trkpt lat="46.1840580" lon="3.3916650">
        <ele>283.6</ele>
        <time>2020-07-04T16:50:53Z</time>
      </trkpt>
      <trkpt lat="46.1836250" lon="3.3916720">
        <ele>283.4</ele>
        <time>2020-07-04T16:51:05Z</time>
      </trkpt>
      <trkpt lat="46.1832800" lon="3.3916310">
        <ele>283.4</ele>
        <time>2020-07-04T16:51:13Z</time>
      </trkpt>
      <trkpt lat="46.1830770" lon="3.3915680">
        <ele>283.6</ele>
        <time>2020-07-04T16:51:19Z</time>
      </trkpt>
      <trkpt lat="46.1829250" lon="3.3913610">
        <ele>283.6</ele>
        <time>2020-07-04T16:51:26Z</time>
      </trkpt>
      <trkpt lat="46.1828610" lon="3.3912970">
        <ele>283.8</ele>
        <time>2020-07-04T16:51:31Z</time>
      </trkpt>
      <trkpt lat="46.1828830" lon="3.3913410">
        <ele>284.0</ele>
        <time>2020-07-04T16:51:34Z</time>
      </trkpt>
      <trkpt lat="46.1829220" lon="3.3913950">
        <ele>284.0</ele>
        <time>2020-07-04T16:51:36Z</time>
      </trkpt>
      <trkpt lat="46.1830360" lon="3.3915990">
        <ele>284.0</ele>
        <time>2020-07-04T16:51:43Z</time>
      </trkpt>
      <trkpt lat="46.1830530" lon="3.3916740">
        <ele>284.0</ele>
        <time>2020-07-04T16:51:51Z</time>
      </trkpt>
      <trkpt lat="46.1830250" lon="3.3917180">
        <ele>284.0</ele>
        <time>2020-07-04T16:51:57Z</time>
      </trkpt>
      <trkpt lat="46.1829910" lon="3.3917480">
        <ele>284.0</ele>
        <time>2020-07-04T16:51:59Z</time>
      </trkpt>
      <trkpt lat="46.1829100" lon="3.3918050">
        <ele>283.8</ele>
        <time>2020-07-04T16:52:02Z</time>
      </trkpt>
      <trkpt lat="46.1828350" lon="3.3918450">
        <ele>283.6</ele>
        <time>2020-07-04T16:52:04Z</time>
      </trkpt>
      <trkpt lat="46.1826010" lon="3.3919870">
        <ele>283.0</ele>
        <time>2020-07-04T16:52:09Z</time>
      </trkpt>
      <trkpt lat="46.1825020" lon="3.3920500">
        <ele>283.0</ele>
        <time>2020-07-04T16:52:11Z</time>
      </trkpt>
      <trkpt lat="46.1819970" lon="3.3923800">
        <ele>281.8</ele>
        <time>2020-07-04T16:52:21Z</time>
      </trkpt>
      <trkpt lat="46.1819440" lon="3.3924100">
        <ele>281.6</ele>
        <time>2020-07-04T16:52:22Z</time>
      </trkpt>
      <trkpt lat="46.1814740" lon="3.3926870">
        <ele>281.4</ele>
        <time>2020-07-04T16:52:31Z</time>
      </trkpt>
      <trkpt lat="46.1810050" lon="3.3929950">
        <ele>281.4</ele>
        <time>2020-07-04T16:52:40Z</time>
      </trkpt>
      <trkpt lat="46.1806530" lon="3.3932840">
        <ele>281.2</ele>
        <time>2020-07-04T16:52:48Z</time>
      </trkpt>
      <trkpt lat="46.1805670" lon="3.3933600">
        <ele>281.4</ele>
        <time>2020-07-04T16:52:50Z</time>
      </trkpt>
      <trkpt lat="46.1801150" lon="3.3937520">
        <ele>282.8</ele>
        <time>2020-07-04T16:53:00Z</time>
      </trkpt>
      <trkpt lat="46.1796720" lon="3.3941630">
        <ele>283.2</ele>
        <time>2020-07-04T16:53:10Z</time>
      </trkpt>
      <trkpt lat="46.1793410" lon="3.3944960">
        <ele>283.4</ele>
        <time>2020-07-04T16:53:17Z</time>
      </trkpt>
      <trkpt lat="46.1792530" lon="3.3946380">
        <ele>283.4</ele>
        <time>2020-07-04T16:53:19Z</time>
      </trkpt>
      <trkpt lat="46.1791620" lon="3.3947910">
        <ele>283.2</ele>
        <time>2020-07-04T16:53:21Z</time>
      </trkpt>
      <trkpt lat="46.1790760" lon="3.3949750">
        <ele>283.2</ele>
        <time>2020-07-04T16:53:23Z</time>
      </trkpt>
      <trkpt lat="46.1790330" lon="3.3950800">
        <ele>283.2</ele>
        <time>2020-07-04T16:53:24Z</time>
      </trkpt>
      <trkpt lat="46.1789040" lon="3.3954310">
        <ele>283.0</ele>
        <time>2020-07-04T16:53:27Z</time>
      </trkpt>
      <trkpt lat="46.1788110" lon="3.3956880">
        <ele>281.8</ele>
        <time>2020-07-04T16:53:29Z</time>
      </trkpt>
      <trkpt lat="46.1787640" lon="3.3958210">
        <ele>281.2</ele>
        <time>2020-07-04T16:53:30Z</time>
      </trkpt>
      <trkpt lat="46.1787170" lon="3.3959530">
        <ele>280.4</ele>
        <time>2020-07-04T16:53:31Z</time>
      </trkpt>
      <trkpt lat="46.1784070" lon="3.3967130">
        <ele>275.8</ele>
        <time>2020-07-04T16:53:37Z</time>
      </trkpt>
      <trkpt lat="46.1780290" lon="3.3972760">
        <ele>274.2</ele>
        <time>2020-07-04T16:53:43Z</time>
      </trkpt>
      <trkpt lat="46.1778440" lon="3.3975530">
        <ele>273.6</ele>
        <time>2020-07-04T16:53:46Z</time>
      </trkpt>
      <trkpt lat="46.1775480" lon="3.3980250">
        <ele>273.0</ele>
        <time>2020-07-04T16:53:51Z</time>
      </trkpt>
      <trkpt lat="46.1774280" lon="3.3982200">
        <ele>272.6</ele>
        <time>2020-07-04T16:53:53Z</time>
      </trkpt>
      <trkpt lat="46.1773100" lon="3.3984140">
        <ele>272.2</ele>
        <time>2020-07-04T16:53:55Z</time>
      </trkpt>
      <trkpt lat="46.1769000" lon="3.3990570">
        <ele>270.6</ele>
        <time>2020-07-04T16:54:02Z</time>
      </trkpt>
      <trkpt lat="46.1768390" lon="3.3991250">
        <ele>270.2</ele>
        <time>2020-07-04T16:54:03Z</time>
      </trkpt>
      <trkpt lat="46.1767740" lon="3.3991810">
        <ele>269.6</ele>
        <time>2020-07-04T16:54:04Z</time>
      </trkpt>
      <trkpt lat="46.1765770" lon="3.3993290">
        <ele>269.2</ele>
        <time>2020-07-04T16:54:07Z</time>
      </trkpt>
      <trkpt lat="46.1765110" lon="3.3993810">
        <ele>269.0</ele>
        <time>2020-07-04T16:54:08Z</time>
      </trkpt>
      <trkpt lat="46.1763700" lon="3.3994600">
        <ele>269.0</ele>
        <time>2020-07-04T16:54:10Z</time>
      </trkpt>
      <trkpt lat="46.1762960" lon="3.3994820">
        <ele>269.0</ele>
        <time>2020-07-04T16:54:11Z</time>
      </trkpt>
      <trkpt lat="46.1762220" lon="3.3994950">
        <ele>269.0</ele>
        <time>2020-07-04T16:54:12Z</time>
      </trkpt>
      <trkpt lat="46.1759510" lon="3.3994960">
        <ele>268.8</ele>
        <time>2020-07-04T16:54:16Z</time>
      </trkpt>
      <trkpt lat="46.1758930" lon="3.3994890">
        <ele>269.0</ele>
        <time>2020-07-04T16:54:17Z</time>
      </trkpt>
      <trkpt lat="46.1758380" lon="3.3994810">
        <ele>269.0</ele>
        <time>2020-07-04T16:54:18Z</time>
      </trkpt>
      <trkpt lat="46.1755880" lon="3.3994080">
        <ele>269.4</ele>
        <time>2020-07-04T16:54:23Z</time>
      </trkpt>
      <trkpt lat="46.1755410" lon="3.3993880">
        <ele>269.4</ele>
        <time>2020-07-04T16:54:24Z</time>
      </trkpt>
      <trkpt lat="46.1750760" lon="3.3991180">
        <ele>272.6</ele>
        <time>2020-07-04T16:54:34Z</time>
      </trkpt>
      <trkpt lat="46.1750270" lon="3.3990880">
        <ele>272.6</ele>
        <time>2020-07-04T16:54:35Z</time>
      </trkpt>
      <trkpt lat="46.1748260" lon="3.3989640">
        <ele>272.8</ele>
        <time>2020-07-04T16:54:39Z</time>
      </trkpt>
      <trkpt lat="46.1745000" lon="3.3987940">
        <ele>273.0</ele>
        <time>2020-07-04T16:54:45Z</time>
      </trkpt>
      <trkpt lat="46.1744440" lon="3.3987700">
        <ele>273.2</ele>
        <time>2020-07-04T16:54:46Z</time>
      </trkpt>
      <trkpt lat="46.1739190" lon="3.3985750">
        <ele>273.2</ele>
        <time>2020-07-04T16:54:55Z</time>
      </trkpt>
      <trkpt lat="46.1737500" lon="3.3985160">
        <ele>273.4</ele>
        <time>2020-07-04T16:54:58Z</time>
      </trkpt>
      <trkpt lat="46.1731710" lon="3.3982850">
        <ele>273.6</ele>
        <time>2020-07-04T16:55:08Z</time>
      </trkpt>
      <trkpt lat="46.1729280" lon="3.3981910">
        <ele>274.0</ele>
        <time>2020-07-04T16:55:12Z</time>
      </trkpt>
      <trkpt lat="46.1723860" lon="3.3979780">
        <ele>274.2</ele>
        <time>2020-07-04T16:55:21Z</time>
      </trkpt>
      <trkpt lat="46.1720930" lon="3.3978490">
        <ele>274.2</ele>
        <time>2020-07-04T16:55:26Z</time>
      </trkpt>
      <trkpt lat="46.1715690" lon="3.3976320">
        <ele>274.2</ele>
        <time>2020-07-04T16:55:35Z</time>
      </trkpt>
      <trkpt lat="46.1712830" lon="3.3975030">
        <ele>274.2</ele>
        <time>2020-07-04T16:55:40Z</time>
      </trkpt>
      <trkpt lat="46.1710030" lon="3.3973560">
        <ele>274.0</ele>
        <time>2020-07-04T16:55:45Z</time>
      </trkpt>
      <trkpt lat="46.1706740" lon="3.3971470">
        <ele>274.4</ele>
        <time>2020-07-04T16:55:51Z</time>
      </trkpt>
      <trkpt lat="46.1702360" lon="3.3968470">
        <ele>274.8</ele>
        <time>2020-07-04T16:55:59Z</time>
      </trkpt>
      <trkpt lat="46.1701310" lon="3.3967740">
        <ele>274.8</ele>
        <time>2020-07-04T16:56:01Z</time>
      </trkpt>
      <trkpt lat="46.1698650" lon="3.3965990">
        <ele>274.8</ele>
        <time>2020-07-04T16:56:06Z</time>
      </trkpt>
      <trkpt lat="46.1697560" lon="3.3965320">
        <ele>274.8</ele>
        <time>2020-07-04T16:56:08Z</time>
      </trkpt>
      <trkpt lat="46.1695920" lon="3.3964240">
        <ele>274.8</ele>
        <time>2020-07-04T16:56:11Z</time>
      </trkpt>
      <trkpt lat="46.1690960" lon="3.3960930">
        <ele>275.2</ele>
        <time>2020-07-04T16:56:20Z</time>
      </trkpt>
      <trkpt lat="46.1685790" lon="3.3957690">
        <ele>275.8</ele>
        <time>2020-07-04T16:56:29Z</time>
      </trkpt>
      <trkpt lat="46.1685240" lon="3.3957310">
        <ele>275.6</ele>
        <time>2020-07-04T16:56:30Z</time>
      </trkpt>
      <trkpt lat="46.1680610" lon="3.3954590">
        <ele>276.0</ele>
        <time>2020-07-04T16:56:38Z</time>
      </trkpt>
      <trkpt lat="46.1679420" lon="3.3953970">
        <ele>276.0</ele>
        <time>2020-07-04T16:56:40Z</time>
      </trkpt>
      <trkpt lat="46.1678190" lon="3.3953320">
        <ele>276.0</ele>
        <time>2020-07-04T16:56:42Z</time>
      </trkpt>
      <trkpt lat="46.1672460" lon="3.3951160">
        <ele>276.0</ele>
        <time>2020-07-04T16:56:51Z</time>
      </trkpt>
      <trkpt lat="46.1671170" lon="3.3950720">
        <ele>276.0</ele>
        <time>2020-07-04T16:56:53Z</time>
      </trkpt>
      <trkpt lat="46.1665310" lon="3.3948650">
        <ele>276.0</ele>
        <time>2020-07-04T16:57:02Z</time>
      </trkpt>
      <trkpt lat="46.1662770" lon="3.3947740">
        <ele>276.2</ele>
        <time>2020-07-04T16:57:06Z</time>
      </trkpt>
      <trkpt lat="46.1659680" lon="3.3946840">
        <ele>276.0</ele>
        <time>2020-07-04T16:57:11Z</time>
      </trkpt>
      <trkpt lat="46.1655860" lon="3.3946100">
        <ele>276.0</ele>
        <time>2020-07-04T16:57:17Z</time>
      </trkpt>
      <trkpt lat="46.1650580" lon="3.3945330">
        <ele>275.0</ele>
        <time>2020-07-04T16:57:25Z</time>
      </trkpt>
      <trkpt lat="46.1648540" lon="3.3944920">
        <ele>275.0</ele>
        <time>2020-07-04T16:57:28Z</time>
      </trkpt>
      <trkpt lat="46.1643690" lon="3.3943300">
        <ele>274.0</ele>
        <time>2020-07-04T16:57:35Z</time>
      </trkpt>
      <trkpt lat="46.1643010" lon="3.3942970">
        <ele>274.0</ele>
        <time>2020-07-04T16:57:36Z</time>
      </trkpt>
      <trkpt lat="46.1639060" lon="3.3940270">
        <ele>272.8</ele>
        <time>2020-07-04T16:57:42Z</time>
      </trkpt>
      <trkpt lat="46.1638460" lon="3.3939760">
        <ele>272.8</ele>
        <time>2020-07-04T16:57:43Z</time>
      </trkpt>
      <trkpt lat="46.1633910" lon="3.3935770">
        <ele>272.6</ele>
        <time>2020-07-04T16:57:51Z</time>
      </trkpt>
      <trkpt lat="46.1631220" lon="3.3933470">
        <ele>272.6</ele>
        <time>2020-07-04T16:57:56Z</time>
      </trkpt>
      <trkpt lat="46.1628660" lon="3.3931660">
        <ele>272.8</ele>
        <time>2020-07-04T16:58:01Z</time>
      </trkpt>
      <trkpt lat="46.1624570" lon="3.3930180">
        <ele>274.8</ele>
        <time>2020-07-04T16:58:09Z</time>
      </trkpt>
      <trkpt lat="46.1619510" lon="3.3929660">
        <ele>276.6</ele>
        <time>2020-07-04T16:58:18Z</time>
      </trkpt>
      <trkpt lat="46.1614090" lon="3.3929650">
        <ele>276.8</ele>
        <time>2020-07-04T16:58:27Z</time>
      </trkpt>
      <trkpt lat="46.1612230" lon="3.3929750">
        <ele>276.8</ele>
        <time>2020-07-04T16:58:30Z</time>
      </trkpt>
      <trkpt lat="46.1606770" lon="3.3930100">
        <ele>277.0</ele>
        <time>2020-07-04T16:58:39Z</time>
      </trkpt>
      <trkpt lat="46.1606210" lon="3.3930130">
        <ele>277.0</ele>
        <time>2020-07-04T16:58:40Z</time>
      </trkpt>
      <trkpt lat="46.1600800" lon="3.3930390">
        <ele>277.2</ele>
        <time>2020-07-04T16:58:49Z</time>
      </trkpt>
      <trkpt lat="46.1600190" lon="3.3930430">
        <ele>277.0</ele>
        <time>2020-07-04T16:58:50Z</time>
      </trkpt>
      <trkpt lat="46.1594580" lon="3.3930760">
        <ele>277.2</ele>
        <time>2020-07-04T16:58:59Z</time>
      </trkpt>
      <trkpt lat="46.1593350" lon="3.3930800">
        <ele>277.2</ele>
        <time>2020-07-04T16:59:01Z</time>
      </trkpt>
      <trkpt lat="46.1591480" lon="3.3930850">
        <ele>277.2</ele>
        <time>2020-07-04T16:59:04Z</time>
      </trkpt>
      <trkpt lat="46.1585890" lon="3.3931220">
        <ele>277.0</ele>
        <time>2020-07-04T16:59:13Z</time>
      </trkpt>
      <trkpt lat="46.1583400" lon="3.3931370">
        <ele>277.0</ele>
        <time>2020-07-04T16:59:17Z</time>
      </trkpt>
      <trkpt lat="46.1577820" lon="3.3931740">
        <ele>277.0</ele>
        <time>2020-07-04T16:59:26Z</time>
      </trkpt>
      <trkpt lat="46.1574690" lon="3.3931890">
        <ele>277.0</ele>
        <time>2020-07-04T16:59:31Z</time>
      </trkpt>
      <trkpt lat="46.1571790" lon="3.3931870">
        <ele>276.8</ele>
        <time>2020-07-04T16:59:36Z</time>
      </trkpt>
      <trkpt lat="46.1570710" lon="3.3931250">
        <ele>276.8</ele>
        <time>2020-07-04T16:59:38Z</time>
      </trkpt>
      <trkpt lat="46.1570150" lon="3.3931020">
        <ele>276.8</ele>
        <time>2020-07-04T16:59:39Z</time>
      </trkpt>
      <trkpt lat="46.1568950" lon="3.3931070">
        <ele>277.0</ele>
        <time>2020-07-04T16:59:41Z</time>
      </trkpt>
      <trkpt lat="46.1568350" lon="3.3931340">
        <ele>276.8</ele>
        <time>2020-07-04T16:59:42Z</time>
      </trkpt>
      <trkpt lat="46.1566470" lon="3.3932280">
        <ele>276.8</ele>
        <time>2020-07-04T16:59:45Z</time>
      </trkpt>
      <trkpt lat="46.1565080" lon="3.3932570">
        <ele>277.0</ele>
        <time>2020-07-04T16:59:47Z</time>
      </trkpt>
      <trkpt lat="46.1559060" lon="3.3933260">
        <ele>277.0</ele>
        <time>2020-07-04T16:59:56Z</time>
      </trkpt>
      <trkpt lat="46.1558370" lon="3.3933330">
        <ele>277.0</ele>
        <time>2020-07-04T16:59:57Z</time>
      </trkpt>
      <trkpt lat="46.1552760" lon="3.3933750">
        <ele>277.2</ele>
        <time>2020-07-04T17:00:05Z</time>
      </trkpt>
      <trkpt lat="46.1547160" lon="3.3934090">
        <ele>277.0</ele>
        <time>2020-07-04T17:00:13Z</time>
      </trkpt>
      <trkpt lat="46.1541420" lon="3.3934400">
        <ele>276.8</ele>
        <time>2020-07-04T17:00:21Z</time>
      </trkpt>
      <trkpt lat="46.1535670" lon="3.3934880">
        <ele>276.4</ele>
        <time>2020-07-04T17:00:29Z</time>
      </trkpt>
      <trkpt lat="46.1531420" lon="3.3935020">
        <ele>276.2</ele>
        <time>2020-07-04T17:00:35Z</time>
      </trkpt>
      <trkpt lat="46.1526700" lon="3.3935120">
        <ele>276.0</ele>
        <time>2020-07-04T17:00:42Z</time>
      </trkpt>
      <trkpt lat="46.1520760" lon="3.3935360">
        <ele>275.4</ele>
        <time>2020-07-04T17:00:51Z</time>
      </trkpt>
      <trkpt lat="46.1518010" lon="3.3935560">
        <ele>275.4</ele>
        <time>2020-07-04T17:00:55Z</time>
      </trkpt>
      <trkpt lat="46.1513810" lon="3.3936060">
        <ele>275.4</ele>
        <time>2020-07-04T17:01:00Z</time>
      </trkpt>
      <trkpt lat="46.1508850" lon="3.3936740">
        <ele>275.0</ele>
        <time>2020-07-04T17:01:08Z</time>
      </trkpt>
      <trkpt lat="46.1508130" lon="3.3936840">
        <ele>274.8</ele>
        <time>2020-07-04T17:01:09Z</time>
      </trkpt>
      <trkpt lat="46.1502510" lon="3.3938140">
        <ele>273.6</ele>
        <time>2020-07-04T17:01:17Z</time>
      </trkpt>
      <trkpt lat="46.1501770" lon="3.3938330">
        <ele>273.6</ele>
        <time>2020-07-04T17:01:18Z</time>
      </trkpt>
      <trkpt lat="46.1501040" lon="3.3938540">
        <ele>273.4</ele>
        <time>2020-07-04T17:01:19Z</time>
      </trkpt>
      <trkpt lat="46.1495860" lon="3.3940740">
        <ele>273.0</ele>
        <time>2020-07-04T17:01:26Z</time>
      </trkpt>
      <trkpt lat="46.1494410" lon="3.3941390">
        <ele>272.8</ele>
        <time>2020-07-04T17:01:28Z</time>
      </trkpt>
      <trkpt lat="46.1488670" lon="3.3944070">
        <ele>272.4</ele>
        <time>2020-07-04T17:01:36Z</time>
      </trkpt>
      <trkpt lat="46.1486540" lon="3.3945020">
        <ele>272.4</ele>
        <time>2020-07-04T17:01:39Z</time>
      </trkpt>
      <trkpt lat="46.1481110" lon="3.3947350">
        <ele>273.2</ele>
        <time>2020-07-04T17:01:47Z</time>
      </trkpt>
      <trkpt lat="46.1478500" lon="3.3948440">
        <ele>273.4</ele>
        <time>2020-07-04T17:01:51Z</time>
      </trkpt>
      <trkpt lat="46.1474570" lon="3.3950250">
        <ele>273.4</ele>
        <time>2020-07-04T17:01:57Z</time>
      </trkpt>
      <trkpt lat="46.1470500" lon="3.3951740">
        <ele>273.6</ele>
        <time>2020-07-04T17:02:02Z</time>
      </trkpt>
      <trkpt lat="46.1469140" lon="3.3952190">
        <ele>273.6</ele>
        <time>2020-07-04T17:02:04Z</time>
      </trkpt>
      <trkpt lat="46.1465470" lon="3.3953490">
        <ele>273.4</ele>
        <time>2020-07-04T17:02:09Z</time>
      </trkpt>
      <trkpt lat="46.1465470" lon="3.3953490">
        <ele>273.4</ele>
        <time>2020-07-04T17:02:10Z</time>
      </trkpt>
      <trkpt lat="46.1460740" lon="3.3955210">
        <ele>272.6</ele>
        <time>2020-07-04T17:02:16Z</time>
      </trkpt>
      <trkpt lat="46.1457610" lon="3.3956310">
        <ele>271.4</ele>
        <time>2020-07-04T17:02:20Z</time>
      </trkpt>
      <trkpt lat="46.1451680" lon="3.3958330">
        <ele>270.4</ele>
        <time>2020-07-04T17:02:28Z</time>
      </trkpt>
      <trkpt lat="46.1450200" lon="3.3958810">
        <ele>270.4</ele>
        <time>2020-07-04T17:02:30Z</time>
      </trkpt>
      <trkpt lat="46.1449450" lon="3.3959060">
        <ele>270.4</ele>
        <time>2020-07-04T17:02:31Z</time>
      </trkpt>
      <trkpt lat="46.1445640" lon="3.3960290">
        <ele>270.0</ele>
        <time>2020-07-04T17:02:36Z</time>
      </trkpt>
      <trkpt lat="46.1440070" lon="3.3962270">
        <ele>268.6</ele>
        <time>2020-07-04T17:02:43Z</time>
      </trkpt>
      <trkpt lat="46.1439270" lon="3.3962520">
        <ele>268.6</ele>
        <time>2020-07-04T17:02:44Z</time>
      </trkpt>
      <trkpt lat="46.1433670" lon="3.3964570">
        <ele>267.8</ele>
        <time>2020-07-04T17:02:51Z</time>
      </trkpt>
      <trkpt lat="46.1428260" lon="3.3966450">
        <ele>267.8</ele>
        <time>2020-07-04T17:02:58Z</time>
      </trkpt>
      <trkpt lat="46.1422410" lon="3.3968170">
        <ele>267.8</ele>
        <time>2020-07-04T17:03:06Z</time>
      </trkpt>
      <trkpt lat="46.1420300" lon="3.3968850">
        <ele>268.2</ele>
        <time>2020-07-04T17:03:09Z</time>
      </trkpt>
      <trkpt lat="46.1414670" lon="3.3971270">
        <ele>268.4</ele>
        <time>2020-07-04T17:03:17Z</time>
      </trkpt>
      <trkpt lat="46.1412600" lon="3.3972410">
        <ele>268.4</ele>
        <time>2020-07-04T17:03:20Z</time>
      </trkpt>
      <trkpt lat="46.1412010" lon="3.3972880">
        <ele>268.6</ele>
        <time>2020-07-04T17:03:21Z</time>
      </trkpt>
      <trkpt lat="46.1410660" lon="3.3974050">
        <ele>268.6</ele>
        <time>2020-07-04T17:03:24Z</time>
      </trkpt>
      <trkpt lat="46.1409710" lon="3.3974540">
        <ele>268.6</ele>
        <time>2020-07-04T17:03:28Z</time>
      </trkpt>
      <trkpt lat="46.1408270" lon="3.3974200">
        <ele>268.6</ele>
        <time>2020-07-04T17:03:34Z</time>
      </trkpt>
      <trkpt lat="46.1407900" lon="3.3974320">
        <ele>268.8</ele>
        <time>2020-07-04T17:03:35Z</time>
      </trkpt>
      <trkpt lat="46.1406700" lon="3.3975220">
        <ele>268.8</ele>
        <time>2020-07-04T17:03:38Z</time>
      </trkpt>
      <trkpt lat="46.1405360" lon="3.3975910">
        <ele>269.0</ele>
        <time>2020-07-04T17:03:41Z</time>
      </trkpt>
      <trkpt lat="46.1404370" lon="3.3976040">
        <ele>269.0</ele>
        <time>2020-07-04T17:03:43Z</time>
      </trkpt>
      <trkpt lat="46.1401590" lon="3.3975830">
        <ele>268.8</ele>
        <time>2020-07-04T17:03:49Z</time>
      </trkpt>
      <trkpt lat="46.1401070" lon="3.3975440">
        <ele>268.8</ele>
        <time>2020-07-04T17:03:53Z</time>
      </trkpt>
      <trkpt lat="46.1401360" lon="3.3975050">
        <ele>269.0</ele>
        <time>2020-07-04T17:04:01Z</time>
      </trkpt>
      <trkpt lat="46.1401370" lon="3.3974970">
        <ele>269.0</ele>
        <time>2020-07-04T17:04:24Z</time>
      </trkpt>
      <trkpt lat="46.1401850" lon="3.3974760">
        <ele>269.2</ele>
        <time>2020-07-04T17:04:33Z</time>
      </trkpt>
      <trkpt lat="46.1402270" lon="3.3974700">
        <ele>269.0</ele>
        <time>2020-07-04T17:04:35Z</time>
      </trkpt>
      <trkpt lat="46.1403770" lon="3.3974390">
        <ele>269.0</ele>
        <time>2020-07-04T17:04:41Z</time>
      </trkpt>
      <trkpt lat="46.1406220" lon="3.3974130">
        <ele>269.0</ele>
        <time>2020-07-04T17:04:49Z</time>
      </trkpt>
      <trkpt lat="46.1407920" lon="3.3973320">
        <ele>269.0</ele>
        <time>2020-07-04T17:04:56Z</time>
      </trkpt>
      <trkpt lat="46.1408070" lon="3.3973400">
        <ele>269.0</ele>
        <time>2020-07-04T17:04:57Z</time>
      </trkpt>
      <trkpt lat="46.1408200" lon="3.3973910">
        <ele>269.0</ele>
        <time>2020-07-04T17:04:59Z</time>
      </trkpt>
      <trkpt lat="46.1408150" lon="3.3974270">
        <ele>269.2</ele>
        <time>2020-07-04T17:05:00Z</time>
      </trkpt>
      <trkpt lat="46.1407930" lon="3.3976860">
        <ele>269.0</ele>
        <time>2020-07-04T17:05:05Z</time>
      </trkpt>
      <trkpt lat="46.1408110" lon="3.3977490">
        <ele>269.0</ele>
        <time>2020-07-04T17:05:06Z</time>
      </trkpt>
      <trkpt lat="46.1408970" lon="3.3979970">
        <ele>269.0</ele>
        <time>2020-07-04T17:05:10Z</time>
      </trkpt>
      <trkpt lat="46.1409660" lon="3.3984600">
        <ele>268.8</ele>
        <time>2020-07-04T17:05:16Z</time>
      </trkpt>
      <trkpt lat="46.1410160" lon="3.3992410">
        <ele>268.6</ele>
        <time>2020-07-04T17:05:24Z</time>
      </trkpt>
      <trkpt lat="46.1410760" lon="3.4000610">
        <ele>268.2</ele>
        <time>2020-07-04T17:05:31Z</time>
      </trkpt>
      <trkpt lat="46.1410970" lon="3.4002780">
        <ele>268.2</ele>
        <time>2020-07-04T17:05:33Z</time>
      </trkpt>
      <trkpt lat="46.1411560" lon="3.4010710">
        <ele>268.0</ele>
        <time>2020-07-04T17:05:41Z</time>
      </trkpt>
      <trkpt lat="46.1411660" lon="3.4012690">
        <ele>268.2</ele>
        <time>2020-07-04T17:05:43Z</time>
      </trkpt>
      <trkpt lat="46.1412120" lon="3.4020530">
        <ele>268.2</ele>
        <time>2020-07-04T17:05:51Z</time>
      </trkpt>
      <trkpt lat="46.1412300" lon="3.4023120">
        <ele>268.2</ele>
        <time>2020-07-04T17:05:54Z</time>
      </trkpt>
      <trkpt lat="46.1412540" lon="3.4028110">
        <ele>268.4</ele>
        <time>2020-07-04T17:06:01Z</time>
      </trkpt>
      <trkpt lat="46.1412140" lon="3.4030450">
        <ele>268.4</ele>
        <time>2020-07-04T17:06:05Z</time>
      </trkpt>
      <trkpt lat="46.1412140" lon="3.4031770">
        <ele>268.4</ele>
        <time>2020-07-04T17:06:07Z</time>
      </trkpt>
      <trkpt lat="46.1412540" lon="3.4038960">
        <ele>268.2</ele>
        <time>2020-07-04T17:06:17Z</time>
      </trkpt>
      <trkpt lat="46.1412790" lon="3.4041060">
        <ele>268.2</ele>
        <time>2020-07-04T17:06:20Z</time>
      </trkpt>
      <trkpt lat="46.1413250" lon="3.4042900">
        <ele>268.2</ele>
        <time>2020-07-04T17:06:23Z</time>
      </trkpt>
      <trkpt lat="46.1413630" lon="3.4047350">
        <ele>268.2</ele>
        <time>2020-07-04T17:06:29Z</time>
      </trkpt>
      <trkpt lat="46.1413730" lon="3.4048960">
        <ele>268.2</ele>
        <time>2020-07-04T17:06:31Z</time>
      </trkpt>
      <trkpt lat="46.1414120" lon="3.4055940">
        <ele>268.8</ele>
        <time>2020-07-04T17:06:40Z</time>
      </trkpt>
      <trkpt lat="46.1414160" lon="3.4056670">
        <ele>268.8</ele>
        <time>2020-07-04T17:06:41Z</time>
      </trkpt>
      <trkpt lat="46.1414260" lon="3.4059440">
        <ele>269.4</ele>
        <time>2020-07-04T17:06:45Z</time>
      </trkpt>
      <trkpt lat="46.1414240" lon="3.4060060">
        <ele>269.4</ele>
        <time>2020-07-04T17:06:46Z</time>
      </trkpt>
      <trkpt lat="46.1413930" lon="3.4060990">
        <ele>269.6</ele>
        <time>2020-07-04T17:06:48Z</time>
      </trkpt>
      <trkpt lat="46.1412650" lon="3.4062370">
        <ele>270.6</ele>
        <time>2020-07-04T17:06:53Z</time>
      </trkpt>
      <trkpt lat="46.1412580" lon="3.4064340">
        <ele>271.2</ele>
        <time>2020-07-04T17:06:57Z</time>
      </trkpt>
      <trkpt lat="46.1413260" lon="3.4066230">
        <ele>271.6</ele>
        <time>2020-07-04T17:07:01Z</time>
      </trkpt>
      <trkpt lat="46.1414120" lon="3.4067030">
        <ele>271.6</ele>
        <time>2020-07-04T17:07:04Z</time>
      </trkpt>
      <trkpt lat="46.1414850" lon="3.4068000">
        <ele>271.6</ele>
        <time>2020-07-04T17:07:07Z</time>
      </trkpt>
      <trkpt lat="46.1415160" lon="3.4070630">
        <ele>271.8</ele>
        <time>2020-07-04T17:07:12Z</time>
      </trkpt>
      <trkpt lat="46.1415570" lon="3.4075130">
        <ele>272.6</ele>
        <time>2020-07-04T17:07:19Z</time>
      </trkpt>
      <trkpt lat="46.1415740" lon="3.4077190">
        <ele>273.0</ele>
        <time>2020-07-04T17:07:22Z</time>
      </trkpt>
      <trkpt lat="46.1416440" lon="3.4085590">
        <ele>273.6</ele>
        <time>2020-07-04T17:07:33Z</time>
      </trkpt>
      <trkpt lat="46.1417150" lon="3.4093370">
        <ele>273.8</ele>
        <time>2020-07-04T17:07:43Z</time>
      </trkpt>
      <trkpt lat="46.1417790" lon="3.4101520">
        <ele>274.0</ele>
        <time>2020-07-04T17:07:54Z</time>
      </trkpt>
      <trkpt lat="46.1417930" lon="3.4103040">
        <ele>274.0</ele>
        <time>2020-07-04T17:07:56Z</time>
      </trkpt>
      <trkpt lat="46.1418000" lon="3.4103790">
        <ele>273.8</ele>
        <time>2020-07-04T17:07:57Z</time>
      </trkpt>
      <trkpt lat="46.1418760" lon="3.4111430">
        <ele>274.0</ele>
        <time>2020-07-04T17:08:07Z</time>
      </trkpt>
      <trkpt lat="46.1419060" lon="3.4114530">
        <ele>274.2</ele>
        <time>2020-07-04T17:08:11Z</time>
      </trkpt>
      <trkpt lat="46.1419740" lon="3.4122780">
        <ele>274.2</ele>
        <time>2020-07-04T17:08:22Z</time>
      </trkpt>
      <trkpt lat="46.1419860" lon="3.4124220">
        <ele>274.0</ele>
        <time>2020-07-04T17:08:24Z</time>
      </trkpt>
      <trkpt lat="46.1420620" lon="3.4132380">
        <ele>274.2</ele>
        <time>2020-07-04T17:08:36Z</time>
      </trkpt>
      <trkpt lat="46.1420470" lon="3.4138030">
        <ele>274.0</ele>
        <time>2020-07-04T17:08:45Z</time>
      </trkpt>
      <trkpt lat="46.1420380" lon="3.4138710">
        <ele>274.0</ele>
        <time>2020-07-04T17:08:46Z</time>
      </trkpt>
      <trkpt lat="46.1419560" lon="3.4142500">
        <ele>273.8</ele>
        <time>2020-07-04T17:08:51Z</time>
      </trkpt>
      <trkpt lat="46.1419330" lon="3.4143270">
        <ele>273.6</ele>
        <time>2020-07-04T17:08:52Z</time>
      </trkpt>
      <trkpt lat="46.1418180" lon="3.4146050">
        <ele>272.8</ele>
        <time>2020-07-04T17:08:57Z</time>
      </trkpt>
      <trkpt lat="46.1417740" lon="3.4147120">
        <ele>272.0</ele>
        <time>2020-07-04T17:09:00Z</time>
      </trkpt>
      <trkpt lat="46.1417380" lon="3.4147790">
        <ele>271.6</ele>
        <time>2020-07-04T17:09:02Z</time>
      </trkpt>
      <trkpt lat="46.1416980" lon="3.4147810">
        <ele>271.0</ele>
        <time>2020-07-04T17:09:08Z</time>
      </trkpt>
      <trkpt lat="46.1416810" lon="3.4147370">
        <ele>269.6</ele>
        <time>2020-07-04T17:09:23Z</time>
      </trkpt>
      <trkpt lat="46.1416730" lon="3.4147220">
        <ele>269.6</ele>
        <time>2020-07-04T17:09:41Z</time>
      </trkpt>
      <trkpt lat="46.1416020" lon="3.4147390">
        <ele>270.2</ele>
        <time>2020-07-04T17:10:04Z</time>
      </trkpt>
      <trkpt lat="46.1415760" lon="3.4147560">
        <ele>270.0</ele>
        <time>2020-07-04T17:10:05Z</time>
      </trkpt>
      <trkpt lat="46.1414880" lon="3.4147940">
        <ele>270.0</ele>
        <time>2020-07-04T17:10:09Z</time>
      </trkpt>
      <trkpt lat="46.1411960" lon="3.4149290">
        <ele>269.4</ele>
        <time>2020-07-04T17:10:16Z</time>
      </trkpt>
      <trkpt lat="46.1409970" lon="3.4149570">
        <ele>269.2</ele>
        <time>2020-07-04T17:10:22Z</time>
      </trkpt>
      <trkpt lat="46.1407440" lon="3.4150000">
        <ele>269.2</ele>
        <time>2020-07-04T17:10:29Z</time>
      </trkpt>
      <trkpt lat="46.1403660" lon="3.4150690">
        <ele>268.8</ele>
        <time>2020-07-04T17:10:37Z</time>
      </trkpt>
      <trkpt lat="46.1403170" lon="3.4150700">
        <ele>268.8</ele>
        <time>2020-07-04T17:10:38Z</time>
      </trkpt>
      <trkpt lat="46.1402220" lon="3.4150790">
        <ele>268.8</ele>
        <time>2020-07-04T17:10:40Z</time>
      </trkpt>
      <trkpt lat="46.1399710" lon="3.4150850">
        <ele>268.6</ele>
        <time>2020-07-04T17:10:47Z</time>
      </trkpt>
      <trkpt lat="46.1397040" lon="3.4152030">
        <ele>268.8</ele>
        <time>2020-07-04T17:10:54Z</time>
      </trkpt>
      <trkpt lat="46.1395900" lon="3.4152430">
        <ele>269.2</ele>
        <time>2020-07-04T17:11:01Z</time>
      </trkpt>
      <trkpt lat="46.1395270" lon="3.4152760">
        <ele>269.2</ele>
        <time>2020-07-04T17:11:09Z</time>
      </trkpt>
      <trkpt lat="46.1395280" lon="3.4152820">
        <ele>269.4</ele>
        <time>2020-07-04T17:11:30Z</time>
      </trkpt>
      <trkpt lat="46.1395440" lon="3.4152920">
        <ele>269.4</ele>
        <time>2020-07-04T17:12:00Z</time>
      </trkpt>
      <trkpt lat="46.1394840" lon="3.4152860">
        <ele>269.6</ele>
        <time>2020-07-04T17:12:22Z</time>
      </trkpt>
      <trkpt lat="46.1393370" lon="3.4152940">
        <ele>269.4</ele>
        <time>2020-07-04T17:12:28Z</time>
      </trkpt>
      <trkpt lat="46.1390480" lon="3.4153270">
        <ele>269.4</ele>
        <time>2020-07-04T17:12:38Z</time>
      </trkpt>
      <trkpt lat="46.1390060" lon="3.4153500">
        <ele>269.4</ele>
        <time>2020-07-04T17:12:42Z</time>
      </trkpt>
      <trkpt lat="46.1389940" lon="3.4153940">
        <ele>269.4</ele>
        <time>2020-07-04T17:12:44Z</time>
      </trkpt>
      <trkpt lat="46.1389770" lon="3.4154230">
        <ele>269.4</ele>
        <time>2020-07-04T17:12:45Z</time>
      </trkpt>
      <trkpt lat="46.1388590" lon="3.4154550">
        <ele>269.4</ele>
        <time>2020-07-04T17:12:48Z</time>
      </trkpt>
      <trkpt lat="46.1384570" lon="3.4155000">
        <ele>268.8</ele>
        <time>2020-07-04T17:12:58Z</time>
      </trkpt>
      <trkpt lat="46.1380450" lon="3.4155390">
        <ele>269.0</ele>
        <time>2020-07-04T17:13:08Z</time>
      </trkpt>
      <trkpt lat="46.1376550" lon="3.4156000">
        <ele>268.8</ele>
        <time>2020-07-04T17:13:16Z</time>
      </trkpt>
      <trkpt lat="46.1370710" lon="3.4157120">
        <ele>268.6</ele>
        <time>2020-07-04T17:13:28Z</time>
      </trkpt>
      <trkpt lat="46.1365230" lon="3.4158000">
        <ele>268.8</ele>
        <time>2020-07-04T17:13:38Z</time>
      </trkpt>
      <trkpt lat="46.1362870" lon="3.4157750">
        <ele>269.0</ele>
        <time>2020-07-04T17:13:43Z</time>
      </trkpt>
      <trkpt lat="46.1362440" lon="3.4157640">
        <ele>269.0</ele>
        <time>2020-07-04T17:13:45Z</time>
      </trkpt>
      <trkpt lat="46.1361650" lon="3.4157040">
        <ele>269.0</ele>
        <time>2020-07-04T17:13:47Z</time>
      </trkpt>
      <trkpt lat="46.1360950" lon="3.4156240">
        <ele>269.0</ele>
        <time>2020-07-04T17:13:49Z</time>
      </trkpt>
      <trkpt lat="46.1358200" lon="3.4152240">
        <ele>268.8</ele>
        <time>2020-07-04T17:13:57Z</time>
      </trkpt>
      <trkpt lat="46.1354160" lon="3.4147750">
        <ele>269.0</ele>
        <time>2020-07-04T17:14:07Z</time>
      </trkpt>
      <trkpt lat="46.1349800" lon="3.4144400">
        <ele>269.2</ele>
        <time>2020-07-04T17:14:16Z</time>
      </trkpt>
      <trkpt lat="46.1346210" lon="3.4143200">
        <ele>269.4</ele>
        <time>2020-07-04T17:14:23Z</time>
      </trkpt>
      <trkpt lat="46.1342420" lon="3.4144110">
        <ele>269.4</ele>
        <time>2020-07-04T17:14:29Z</time>
      </trkpt>
      <trkpt lat="46.1340960" lon="3.4144400">
        <ele>269.4</ele>
        <time>2020-07-04T17:14:33Z</time>
      </trkpt>
      <trkpt lat="46.1340760" lon="3.4143990">
        <ele>269.4</ele>
        <time>2020-07-04T17:14:35Z</time>
      </trkpt>
      <trkpt lat="46.1340520" lon="3.4143650">
        <ele>269.4</ele>
        <time>2020-07-04T17:14:37Z</time>
      </trkpt>
      <trkpt lat="46.1339270" lon="3.4144070">
        <ele>269.6</ele>
        <time>2020-07-04T17:14:42Z</time>
      </trkpt>
      <trkpt lat="46.1336550" lon="3.4144750">
        <ele>270.4</ele>
        <time>2020-07-04T17:14:52Z</time>
      </trkpt>
      <trkpt lat="46.1333450" lon="3.4145710">
        <ele>270.6</ele>
        <time>2020-07-04T17:15:03Z</time>
      </trkpt>
      <trkpt lat="46.1330820" lon="3.4146780">
        <ele>270.8</ele>
        <time>2020-07-04T17:15:11Z</time>
      </trkpt>
      <trkpt lat="46.1327440" lon="3.4148220">
        <ele>271.0</ele>
        <time>2020-07-04T17:15:22Z</time>
      </trkpt>
      <trkpt lat="46.1325200" lon="3.4148800">
        <ele>271.0</ele>
        <time>2020-07-04T17:15:30Z</time>
      </trkpt>
      <trkpt lat="46.1324620" lon="3.4149040">
        <ele>271.2</ele>
        <time>2020-07-04T17:15:32Z</time>
      </trkpt>
      <trkpt lat="46.1322690" lon="3.4149790">
        <ele>271.2</ele>
        <time>2020-07-04T17:15:38Z</time>
      </trkpt>
      <trkpt lat="46.1318990" lon="3.4150990">
        <ele>271.4</ele>
        <time>2020-07-04T17:15:50Z</time>
      </trkpt>
      <trkpt lat="46.1316790" lon="3.4151670">
        <ele>271.4</ele>
        <time>2020-07-04T17:15:56Z</time>
      </trkpt>
      <trkpt lat="46.1313260" lon="3.4152920">
        <ele>271.2</ele>
        <time>2020-07-04T17:16:06Z</time>
      </trkpt>
      <trkpt lat="46.1310150" lon="3.4154060">
        <ele>271.2</ele>
        <time>2020-07-04T17:16:16Z</time>
      </trkpt>
      <trkpt lat="46.1306920" lon="3.4155310">
        <ele>271.4</ele>
        <time>2020-07-04T17:16:26Z</time>
      </trkpt>
      <trkpt lat="46.1303440" lon="3.4156610">
        <ele>271.4</ele>
        <time>2020-07-04T17:16:37Z</time>
      </trkpt>
      <trkpt lat="46.1299890" lon="3.4157910">
        <ele>271.2</ele>
        <time>2020-07-04T17:16:48Z</time>
      </trkpt>
      <trkpt lat="46.1297440" lon="3.4158690">
        <ele>271.2</ele>
        <time>2020-07-04T17:16:57Z</time>
      </trkpt>
      <trkpt lat="46.1295490" lon="3.4159490">
        <ele>271.6</ele>
        <time>2020-07-04T17:17:07Z</time>
      </trkpt>
      <trkpt lat="46.1295350" lon="3.4159650">
        <ele>271.6</ele>
        <time>2020-07-04T17:17:14Z</time>
      </trkpt>
      <trkpt lat="46.1294260" lon="3.4159970">
        <ele>271.8</ele>
        <time>2020-07-04T17:17:20Z</time>
      </trkpt>
      <trkpt lat="46.1291990" lon="3.4160620">
        <ele>271.8</ele>
        <time>2020-07-04T17:17:28Z</time>
      </trkpt>
      <trkpt lat="46.1290270" lon="3.4159310">
        <ele>271.8</ele>
        <time>2020-07-04T17:17:36Z</time>
      </trkpt>
      <trkpt lat="46.1289380" lon="3.4158240">
        <ele>271.6</ele>
        <time>2020-07-04T17:17:42Z</time>
      </trkpt>
      <trkpt lat="46.1289250" lon="3.4158060">
        <ele>271.8</ele>
        <time>2020-07-04T17:17:48Z</time>
      </trkpt>
      <trkpt lat="46.1289360" lon="3.4158160">
        <ele>272.2</ele>
        <time>2020-07-04T17:18:08Z</time>
      </trkpt>
      <trkpt lat="46.1289390" lon="3.4158190">
        <ele>271.4</ele>
        <time>2020-07-04T17:18:28Z</time>
      </trkpt>
      <trkpt lat="46.1289880" lon="3.4158460">
        <ele>271.4</ele>
        <time>2020-07-04T17:18:36Z</time>
      </trkpt>
      <trkpt lat="46.1290050" lon="3.4158640">
        <ele>271.4</ele>
        <time>2020-07-04T17:18:37Z</time>
      </trkpt>
      <trkpt lat="46.1290190" lon="3.4158810">
        <ele>271.4</ele>
        <time>2020-07-04T17:18:38Z</time>
      </trkpt>
      <trkpt lat="46.1290460" lon="3.4159770">
        <ele>271.4</ele>
        <time>2020-07-04T17:18:41Z</time>
      </trkpt>
      <trkpt lat="46.1290170" lon="3.4161310">
        <ele>271.2</ele>
        <time>2020-07-04T17:18:46Z</time>
      </trkpt>
      <trkpt lat="46.1288960" lon="3.4162130">
        <ele>271.4</ele>
        <time>2020-07-04T17:18:53Z</time>
      </trkpt>
      <trkpt lat="46.1288490" lon="3.4163830">
        <ele>271.4</ele>
        <time>2020-07-04T17:18:59Z</time>
      </trkpt>
      <trkpt lat="46.1288010" lon="3.4164470">
        <ele>271.6</ele>
        <time>2020-07-04T17:19:01Z</time>
      </trkpt>
      <trkpt lat="46.1287130" lon="3.4165370">
        <ele>271.6</ele>
        <time>2020-07-04T17:19:04Z</time>
      </trkpt>
      <trkpt lat="46.1284550" lon="3.4166840">
        <ele>270.8</ele>
        <time>2020-07-04T17:19:10Z</time>
      </trkpt>
      <trkpt lat="46.1281110" lon="3.4167620">
        <ele>270.4</ele>
        <time>2020-07-04T17:19:18Z</time>
      </trkpt>
      <trkpt lat="46.1279420" lon="3.4168310">
        <ele>270.4</ele>
        <time>2020-07-04T17:19:22Z</time>
      </trkpt>
      <trkpt lat="46.1279140" lon="3.4168430">
        <ele>270.4</ele>
        <time>2020-07-04T17:19:24Z</time>
      </trkpt>
      <trkpt lat="46.1276510" lon="3.4169620">
        <ele>271.2</ele>
        <time>2020-07-04T17:19:32Z</time>
      </trkpt>
      <trkpt lat="46.1274480" lon="3.4171650">
        <ele>271.4</ele>
        <time>2020-07-04T17:19:38Z</time>
      </trkpt>
      <trkpt lat="46.1273560" lon="3.4172650">
        <ele>271.4</ele>
        <time>2020-07-04T17:19:44Z</time>
      </trkpt>
      <trkpt lat="46.1273170" lon="3.4173330">
        <ele>271.6</ele>
        <time>2020-07-04T17:19:53Z</time>
      </trkpt>
      <trkpt lat="46.1273280" lon="3.4174920">
        <ele>271.4</ele>
        <time>2020-07-04T17:19:59Z</time>
      </trkpt>
      <trkpt lat="46.1273910" lon="3.4176210">
        <ele>271.2</ele>
        <time>2020-07-04T17:20:04Z</time>
      </trkpt>
      <trkpt lat="46.1274390" lon="3.4176800">
        <ele>271.4</ele>
        <time>2020-07-04T17:20:13Z</time>
      </trkpt>
      <trkpt lat="46.1274380" lon="3.4176830">
        <ele>271.4</ele>
        <time>2020-07-04T17:20:31Z</time>
      </trkpt>
      <trkpt lat="46.1274500" lon="3.4177250">
        <ele>271.4</ele>
        <time>2020-07-04T17:20:45Z</time>
      </trkpt>
      <trkpt lat="46.1274640" lon="3.4177470">
        <ele>271.6</ele>
        <time>2020-07-04T17:21:07Z</time>
      </trkpt>
      <trkpt lat="46.1274530" lon="3.4177640">
        <ele>271.4</ele>
        <time>2020-07-04T17:21:29Z</time>
      </trkpt>
      <trkpt lat="46.1274420" lon="3.4177830">
        <ele>271.2</ele>
        <time>2020-07-04T17:21:43Z</time>
      </trkpt>
      <trkpt lat="46.1274400" lon="3.4178040">
        <ele>271.2</ele>
        <time>2020-07-04T17:21:55Z</time>
      </trkpt>
      <trkpt lat="46.1274090" lon="3.4178240">
        <ele>271.0</ele>
        <time>2020-07-04T17:22:09Z</time>
      </trkpt>
      <trkpt lat="46.1274030" lon="3.4178210">
        <ele>271.2</ele>
        <time>2020-07-04T17:22:25Z</time>
      </trkpt>
      <trkpt lat="46.1273760" lon="3.4178310">
        <ele>271.2</ele>
        <time>2020-07-04T17:22:39Z</time>
      </trkpt>
      <trkpt lat="46.1273890" lon="3.4178270">
        <ele>271.2</ele>
        <time>2020-07-04T17:22:50Z</time>
      </trkpt>
      <trkpt lat="46.1274460" lon="3.4178090">
        <ele>271.0</ele>
        <time>2020-07-04T17:23:04Z</time>
      </trkpt>
      <trkpt lat="46.1275130" lon="3.4177460">
        <ele>271.0</ele>
        <time>2020-07-04T17:23:17Z</time>
      </trkpt>
      <trkpt lat="46.1275010" lon="3.4176630">
        <ele>271.2</ele>
        <time>2020-07-04T17:23:30Z</time>
      </trkpt>
      <trkpt lat="46.1275260" lon="3.4174830">
        <ele>271.0</ele>
        <time>2020-07-04T17:23:38Z</time>
      </trkpt>
      <trkpt lat="46.1275220" lon="3.4174400">
        <ele>271.0</ele>
        <time>2020-07-04T17:23:40Z</time>
      </trkpt>
      <trkpt lat="46.1275120" lon="3.4172450">
        <ele>271.0</ele>
        <time>2020-07-04T17:23:52Z</time>
      </trkpt>
      <trkpt lat="46.1275110" lon="3.4172850">
        <ele>271.2</ele>
        <time>2020-07-04T17:24:00Z</time>
      </trkpt>
      <trkpt lat="46.1275340" lon="3.4173190">
        <ele>271.0</ele>
        <time>2020-07-04T17:24:07Z</time>
      </trkpt>
      <trkpt lat="46.1275270" lon="3.4173690">
        <ele>271.0</ele>
        <time>2020-07-04T17:24:15Z</time>
      </trkpt>
      <trkpt lat="46.1275770" lon="3.4174750">
        <ele>271.2</ele>
        <time>2020-07-04T17:24:23Z</time>
      </trkpt>
      <trkpt lat="46.1275820" lon="3.4174630">
        <ele>271.2</ele>
        <time>2020-07-04T17:24:30Z</time>
      </trkpt>
      <trkpt lat="46.1275780" lon="3.4174530">
        <ele>271.2</ele>
        <time>2020-07-04T17:24:31Z</time>
      </trkpt>
      <trkpt lat="46.1275540" lon="3.4175220">
        <ele>271.2</ele>
        <time>2020-07-04T17:24:40Z</time>
      </trkpt>
      <trkpt lat="46.1275680" lon="3.4176310">
        <ele>271.2</ele>
        <time>2020-07-04T17:24:49Z</time>
      </trkpt>
      <trkpt lat="46.1275900" lon="3.4177050">
        <ele>271.2</ele>
        <time>2020-07-04T17:24:57Z</time>
      </trkpt>
      <trkpt lat="46.1276260" lon="3.4177770">
        <ele>271.0</ele>
        <time>2020-07-04T17:25:05Z</time>
      </trkpt>
      <trkpt lat="46.1276500" lon="3.4177610">
        <ele>271.0</ele>
        <time>2020-07-04T17:25:14Z</time>
      </trkpt>
      <trkpt lat="46.1276460" lon="3.4178160">
        <ele>271.0</ele>
        <time>2020-07-04T17:25:24Z</time>
      </trkpt>
      <trkpt lat="46.1276270" lon="3.4178010">
        <ele>271.0</ele>
        <time>2020-07-04T17:25:32Z</time>
      </trkpt>
      <trkpt lat="46.1276360" lon="3.4177530">
        <ele>270.8</ele>
        <time>2020-07-04T17:25:42Z</time>
      </trkpt>
      <trkpt lat="46.1275870" lon="3.4176490">
        <ele>270.8</ele>
        <time>2020-07-04T17:25:52Z</time>
      </trkpt>
      <trkpt lat="46.1274990" lon="3.4175420">
        <ele>270.8</ele>
        <time>2020-07-04T17:25:59Z</time>
      </trkpt>
      <trkpt lat="46.1274670" lon="3.4174840">
        <ele>270.8</ele>
        <time>2020-07-04T17:26:08Z</time>
      </trkpt>
      <trkpt lat="46.1274670" lon="3.4174840">
        <ele>271.0</ele>
        <time>2020-07-04T17:26:26Z</time>
      </trkpt>
      <trkpt lat="46.1274670" lon="3.4174840">
        <ele>270.8</ele>
        <time>2020-07-04T17:26:28Z</time>
      </trkpt>
      <trkpt lat="46.1274670" lon="3.4174840">
        <ele>271.0</ele>
        <time>2020-07-04T17:26:29Z</time>
      </trkpt>
      <trkpt lat="46.1274670" lon="3.4174840">
        <ele>271.0</ele>
        <time>2020-07-04T17:26:30Z</time>
      </trkpt>
      <trkpt lat="46.1274120" lon="3.4176250">
        <ele>271.2</ele>
        <time>2020-07-04T17:26:36Z</time>
      </trkpt>
      <trkpt lat="46.1274350" lon="3.4176020">
        <ele>271.2</ele>
        <time>2020-07-04T17:26:39Z</time>
      </trkpt>
      <trkpt lat="46.1275050" lon="3.4175800">
        <ele>271.2</ele>
        <time>2020-07-04T17:26:42Z</time>
      </trkpt>
      <trkpt lat="46.1277090" lon="3.4175410">
        <ele>271.4</ele>
        <time>2020-07-04T17:26:49Z</time>
      </trkpt>
      <trkpt lat="46.1280990" lon="3.4175250">
        <ele>271.4</ele>
        <time>2020-07-04T17:26:57Z</time>
      </trkpt>
      <trkpt lat="46.1280550" lon="3.4174970">
        <ele>271.2</ele>
        <time>2020-07-04T17:27:03Z</time>
      </trkpt>
      <trkpt lat="46.1279900" lon="3.4175340">
        <ele>271.2</ele>
        <time>2020-07-04T17:27:09Z</time>
      </trkpt>
      <trkpt lat="46.1279840" lon="3.4175430">
        <ele>271.2</ele>
        <time>2020-07-04T17:27:10Z</time>
      </trkpt>
      <trkpt lat="46.1280030" lon="3.4176620">
        <ele>270.8</ele>
        <time>2020-07-04T17:27:20Z</time>
      </trkpt>
      <trkpt lat="46.1278910" lon="3.4177760">
        <ele>270.2</ele>
        <time>2020-07-04T17:27:25Z</time>
      </trkpt>
      <trkpt lat="46.1278750" lon="3.4178250">
        <ele>270.2</ele>
        <time>2020-07-04T17:27:27Z</time>
      </trkpt>
      <trkpt lat="46.1276640" lon="3.4177450">
        <ele>270.0</ele>
        <time>2020-07-04T17:27:35Z</time>
      </trkpt>
      <trkpt lat="46.1276000" lon="3.4177840">
        <ele>270.2</ele>
        <time>2020-07-04T17:27:43Z</time>
      </trkpt>
      <trkpt lat="46.1275880" lon="3.4177870">
        <ele>270.2</ele>
        <time>2020-07-04T17:27:45Z</time>
      </trkpt>
      <trkpt lat="46.1275190" lon="3.4178410">
        <ele>270.2</ele>
        <time>2020-07-04T17:27:54Z</time>
      </trkpt>
      <trkpt lat="46.1274900" lon="3.4176660">
        <ele>270.2</ele>
        <time>2020-07-04T17:28:02Z</time>
      </trkpt>
      <trkpt lat="46.1275150" lon="3.4174780">
        <ele>270.4</ele>
        <time>2020-07-04T17:28:11Z</time>
      </trkpt>
      <trkpt lat="46.1275000" lon="3.4174440">
        <ele>270.4</ele>
        <time>2020-07-04T17:28:21Z</time>
      </trkpt>
      <trkpt lat="46.1274550" lon="3.4174650">
        <ele>270.4</ele>
        <time>2020-07-04T17:28:23Z</time>
      </trkpt>
      <trkpt lat="46.1273290" lon="3.4174460">
        <ele>270.4</ele>
        <time>2020-07-04T17:28:28Z</time>
      </trkpt>
      <trkpt lat="46.1272910" lon="3.4173140">
        <ele>270.4</ele>
        <time>2020-07-04T17:28:35Z</time>
      </trkpt>
      <trkpt lat="46.1272930" lon="3.4172830">
        <ele>270.2</ele>
        <time>2020-07-04T17:28:36Z</time>
      </trkpt>
      <trkpt lat="46.1272900" lon="3.4172490">
        <ele>270.2</ele>
        <time>2020-07-04T17:28:37Z</time>
      </trkpt>
      <trkpt lat="46.1272780" lon="3.4172070">
        <ele>270.4</ele>
        <time>2020-07-04T17:28:38Z</time>
      </trkpt>
      <trkpt lat="46.1272700" lon="3.4171840">
        <ele>270.2</ele>
        <time>2020-07-04T17:28:40Z</time>
      </trkpt>
      <trkpt lat="46.1272620" lon="3.4171620">
        <ele>270.4</ele>
        <time>2020-07-04T17:28:41Z</time>
      </trkpt>
      <trkpt lat="46.1272540" lon="3.4171390">
        <ele>270.4</ele>
        <time>2020-07-04T17:28:43Z</time>
      </trkpt>
      <trkpt lat="46.1272460" lon="3.4171170">
        <ele>270.4</ele>
        <time>2020-07-04T17:28:44Z</time>
      </trkpt>
      <trkpt lat="46.1272460" lon="3.4171170">
        <ele>270.2</ele>
        <time>2020-07-04T17:28:46Z</time>
      </trkpt>
      <trkpt lat="46.1272460" lon="3.4171170">
        <ele>270.2</ele>
        <time>2020-07-04T17:28:47Z</time>
      </trkpt>
      <trkpt lat="46.1272460" lon="3.4171170">
        <ele>270.2</ele>
        <time>2020-07-04T17:28:48Z</time>
      </trkpt>
      <trkpt lat="46.1272460" lon="3.4171170">
        <ele>270.8</ele>
        <time>2020-07-04T17:28:57Z</time>
      </trkpt>
    </trkseg>
  </trk>
</gpx>
